<?xml version='1.0' encoding='UTF-8'?><gpx version="1.1" creator="JPX - https://github.com/jenetics/jpx" xmlns="http://www.topografix.com/GPX/1/1"><trk><trkseg><trkpt lat="42.4443632" lon="-8.6248224"><ele>59.0</ele><time>2026-03-28T09:07:33.149Z</time></trkpt><trkpt lat="42.4443795" lon="-8.6250926"><ele>59.00000000000001</ele><time>2026-03-28T09:07:37.883Z</time></trkpt><trkpt lat="42.444373" lon="-8.6251843"><ele>59.00000000000001</ele><time>2026-03-28T09:09:23.02Z</time></trkpt><trkpt lat="42.4443679" lon="-8.6250848"><ele>59.0</ele><time>2026-03-28T09:12:09.018Z</time></trkpt><trkpt lat="42.444366" lon="-8.6249955"><ele>59.0</ele><time>2026-03-28T09:13:57.019Z</time></trkpt><trkpt lat="42.4444055" lon="-8.6249175"><ele>59.00000000000001</ele><time>2026-03-28T09:14:21.017Z</time></trkpt><trkpt lat="42.4444194" lon="-8.6250236"><ele>59.0</ele><time>2026-03-28T09:14:39.025Z</time></trkpt><trkpt lat="42.4444619" lon="-8.62511"><ele>59.0</ele><time>2026-03-28T09:14:41.017Z</time></trkpt><trkpt lat="42.444495" lon="-8.6251911"><ele>59.0</ele><time>2026-03-28T09:14:43.022Z</time></trkpt><trkpt lat="42.4444552" lon="-8.6253028"><ele>59.00000000000001</ele><time>2026-03-28T09:14:46.018Z</time></trkpt><trkpt lat="42.4444101" lon="-8.6253915"><ele>59.0</ele><time>2026-03-28T09:14:48.027Z</time></trkpt><trkpt lat="42.4443668" lon="-8.6254826"><ele>58.50000000000001</ele><time>2026-03-28T09:14:50.015Z</time></trkpt><trkpt lat="42.4443418" lon="-8.6255974"><ele>58.0</ele><time>2026-03-28T09:14:53.024Z</time></trkpt><trkpt lat="42.4442939" lon="-8.6256954"><ele>57.5</ele><time>2026-03-28T09:14:56.023Z</time></trkpt><trkpt lat="42.444223" lon="-8.625665"><ele>57.0</ele><time>2026-03-28T09:14:59.024Z</time></trkpt><trkpt lat="42.4441567" lon="-8.6256035"><ele>56.50000000000001</ele><time>2026-03-28T09:15:02.025Z</time></trkpt><trkpt lat="42.4440941" lon="-8.6256585"><ele>56.0</ele><time>2026-03-28T09:15:04.023Z</time></trkpt><trkpt lat="42.4440411" lon="-8.6258081"><ele>56.0</ele><time>2026-03-28T09:15:06.02Z</time></trkpt><trkpt lat="42.4440146" lon="-8.6258963"><ele>56.0</ele><time>2026-03-28T09:15:07.03Z</time></trkpt><trkpt lat="42.4439824" lon="-8.6259825"><ele>56.0</ele><time>2026-03-28T09:15:08.02Z</time></trkpt><trkpt lat="42.4439571" lon="-8.6260677"><ele>56.0</ele><time>2026-03-28T09:15:09.023Z</time></trkpt><trkpt lat="42.443927" lon="-8.626158"><ele>56.0</ele><time>2026-03-28T09:15:10.025Z</time></trkpt><trkpt lat="42.4439024" lon="-8.626241"><ele>56.0</ele><time>2026-03-28T09:15:11.018Z</time></trkpt><trkpt lat="42.4438754" lon="-8.6263397"><ele>56.0</ele><time>2026-03-28T09:15:12.02Z</time></trkpt><trkpt lat="42.4438497" lon="-8.6264399"><ele>56.00000000000001</ele><time>2026-03-28T09:15:13.02Z</time></trkpt><trkpt lat="42.443821" lon="-8.6265224"><ele>56.0</ele><time>2026-03-28T09:15:14.021Z</time></trkpt><trkpt lat="42.4437798" lon="-8.6266138"><ele>56.0</ele><time>2026-03-28T09:15:16.023Z</time></trkpt><trkpt lat="42.4437412" lon="-8.6267319"><ele>56.0</ele><time>2026-03-28T09:15:19.015Z</time></trkpt><trkpt lat="42.4436981" lon="-8.626845"><ele>56.00000000000001</ele><time>2026-03-28T09:15:21.021Z</time></trkpt><trkpt lat="42.4436705" lon="-8.6269321"><ele>56.0</ele><time>2026-03-28T09:15:23.028Z</time></trkpt><trkpt lat="42.4436058" lon="-8.6269712"><ele>58.16666666666667</ele><time>2026-03-28T09:15:25.031Z</time></trkpt><trkpt lat="42.4435095" lon="-8.6268861"><ele>60.333333333333336</ele><time>2026-03-28T09:15:27.017Z</time></trkpt><trkpt lat="42.4434556" lon="-8.6268301"><ele>62.5</ele><time>2026-03-28T09:15:28.02Z</time></trkpt><trkpt lat="42.4433846" lon="-8.626771"><ele>64.66666666666667</ele><time>2026-03-28T09:15:29.021Z</time></trkpt><trkpt lat="42.4433063" lon="-8.6267002"><ele>66.83333333333333</ele><time>2026-03-28T09:15:30.018Z</time></trkpt><trkpt lat="42.4432315" lon="-8.6266371"><ele>69.0</ele><time>2026-03-28T09:15:31.023Z</time></trkpt><trkpt lat="42.4431584" lon="-8.6265726"><ele>69.0</ele><time>2026-03-28T09:15:32.016Z</time></trkpt><trkpt lat="42.4430796" lon="-8.6265082"><ele>69.0</ele><time>2026-03-28T09:15:33.018Z</time></trkpt><trkpt lat="42.4429975" lon="-8.6264347"><ele>69.0</ele><time>2026-03-28T09:15:34.029Z</time></trkpt><trkpt lat="42.4429105" lon="-8.6263619"><ele>69.0</ele><time>2026-03-28T09:15:35.023Z</time></trkpt><trkpt lat="42.442828" lon="-8.6262921"><ele>69.0</ele><time>2026-03-28T09:15:36.021Z</time></trkpt><trkpt lat="42.4427474" lon="-8.6262338"><ele>68.33333333333333</ele><time>2026-03-28T09:15:37.02Z</time></trkpt><trkpt lat="42.4426616" lon="-8.6261764"><ele>67.66666666666667</ele><time>2026-03-28T09:15:38.02Z</time></trkpt><trkpt lat="42.4425814" lon="-8.6261139"><ele>67.0</ele><time>2026-03-28T09:15:39.029Z</time></trkpt><trkpt lat="42.4425098" lon="-8.6260505"><ele>66.33333333333334</ele><time>2026-03-28T09:15:40.031Z</time></trkpt><trkpt lat="42.4424499" lon="-8.6259933"><ele>65.66666666666667</ele><time>2026-03-28T09:15:41.018Z</time></trkpt><trkpt lat="42.4423859" lon="-8.6259381"><ele>65.0</ele><time>2026-03-28T09:15:42.011Z</time></trkpt><trkpt lat="42.4423246" lon="-8.6258873"><ele>65.16666666666667</ele><time>2026-03-28T09:15:43.025Z</time></trkpt><trkpt lat="42.4422605" lon="-8.6258436"><ele>65.33333333333334</ele><time>2026-03-28T09:15:44.015Z</time></trkpt><trkpt lat="42.4421991" lon="-8.6258205"><ele>65.5</ele><time>2026-03-28T09:15:45.027Z</time></trkpt><trkpt lat="42.4421346" lon="-8.6258174"><ele>65.66666666666667</ele><time>2026-03-28T09:15:46.027Z</time></trkpt><trkpt lat="42.4420189" lon="-8.6257966"><ele>65.83333333333333</ele><time>2026-03-28T09:15:48.014Z</time></trkpt><trkpt lat="42.4419266" lon="-8.6257075"><ele>66.0</ele><time>2026-03-28T09:15:50.021Z</time></trkpt><trkpt lat="42.4419477" lon="-8.62556"><ele>66.0</ele><time>2026-03-28T09:15:52.021Z</time></trkpt><trkpt lat="42.4420013" lon="-8.6254976"><ele>66.0</ele><time>2026-03-28T09:15:53.022Z</time></trkpt><trkpt lat="42.4420713" lon="-8.6254359"><ele>66.0</ele><time>2026-03-28T09:15:54.016Z</time></trkpt><trkpt lat="42.4421379" lon="-8.6253683"><ele>66.0</ele><time>2026-03-28T09:15:55.014Z</time></trkpt><trkpt lat="42.4422107" lon="-8.6253037"><ele>66.0</ele><time>2026-03-28T09:15:56.019Z</time></trkpt><trkpt lat="42.4422728" lon="-8.6252458"><ele>66.0</ele><time>2026-03-28T09:15:57.021Z</time></trkpt><trkpt lat="42.4423321" lon="-8.6251833"><ele>67.16666666666667</ele><time>2026-03-28T09:15:58.017Z</time></trkpt><trkpt lat="42.4423915" lon="-8.6251197"><ele>68.33333333333333</ele><time>2026-03-28T09:15:59.015Z</time></trkpt><trkpt lat="42.4424464" lon="-8.6250554"><ele>69.5</ele><time>2026-03-28T09:16:00.016Z</time></trkpt><trkpt lat="42.4425038" lon="-8.6249949"><ele>70.66666666666666</ele><time>2026-03-28T09:16:01.015Z</time></trkpt><trkpt lat="42.4425596" lon="-8.6249389"><ele>71.83333333333333</ele><time>2026-03-28T09:16:02.019Z</time></trkpt><trkpt lat="42.4426398" lon="-8.6248335"><ele>73.0</ele><time>2026-03-28T09:16:04.027Z</time></trkpt><trkpt lat="42.442705" lon="-8.6247234"><ele>73.0</ele><time>2026-03-28T09:16:06.022Z</time></trkpt><trkpt lat="42.4427053" lon="-8.6246239"><ele>73.0</ele><time>2026-03-28T09:16:08.025Z</time></trkpt><trkpt lat="42.4427212" lon="-8.6244833"><ele>73.0</ele><time>2026-03-28T09:16:13.024Z</time></trkpt><trkpt lat="42.4427003" lon="-8.6243084"><ele>73.0</ele><time>2026-03-28T09:16:15.019Z</time></trkpt><trkpt lat="42.4426699" lon="-8.624149"><ele>73.0</ele><time>2026-03-28T09:16:16.024Z</time></trkpt><trkpt lat="42.4426215" lon="-8.6239931"><ele>72.2</ele><time>2026-03-28T09:16:17.021Z</time></trkpt><trkpt lat="42.4425967" lon="-8.623849"><ele>71.4</ele><time>2026-03-28T09:16:18.031Z</time></trkpt><trkpt lat="42.4425747" lon="-8.6237067"><ele>70.60000000000001</ele><time>2026-03-28T09:16:19.018Z</time></trkpt><trkpt lat="42.4425437" lon="-8.623566"><ele>69.8</ele><time>2026-03-28T09:16:20.024Z</time></trkpt><trkpt lat="42.442518" lon="-8.6234197"><ele>69.0</ele><time>2026-03-28T09:16:21.016Z</time></trkpt><trkpt lat="42.4425176" lon="-8.6232891"><ele>68.8</ele><time>2026-03-28T09:16:22.025Z</time></trkpt><trkpt lat="42.4425236" lon="-8.6231593"><ele>68.60000000000001</ele><time>2026-03-28T09:16:23.018Z</time></trkpt><trkpt lat="42.4425314" lon="-8.623004"><ele>68.4</ele><time>2026-03-28T09:16:24.015Z</time></trkpt><trkpt lat="42.442543" lon="-8.6228485"><ele>68.2</ele><time>2026-03-28T09:16:25.027Z</time></trkpt><trkpt lat="42.4425512" lon="-8.6226933"><ele>68.0</ele><time>2026-03-28T09:16:26.026Z</time></trkpt><trkpt lat="42.4425592" lon="-8.6225374"><ele>68.5</ele><time>2026-03-28T09:16:27.021Z</time></trkpt><trkpt lat="42.4425665" lon="-8.6223978"><ele>69.0</ele><time>2026-03-28T09:16:28.017Z</time></trkpt><trkpt lat="42.4425622" lon="-8.6222716"><ele>69.5</ele><time>2026-03-28T09:16:29.013Z</time></trkpt><trkpt lat="42.4425479" lon="-8.6221669"><ele>70.0</ele><time>2026-03-28T09:16:30.027Z</time></trkpt><trkpt lat="42.4425328" lon="-8.6220634"><ele>70.5</ele><time>2026-03-28T09:16:31.015Z</time></trkpt><trkpt lat="42.4425247" lon="-8.6219657"><ele>71.0</ele><time>2026-03-28T09:16:32.018Z</time></trkpt><trkpt lat="42.4425209" lon="-8.6218692"><ele>71.33333333333334</ele><time>2026-03-28T09:16:33.033Z</time></trkpt><trkpt lat="42.4425082" lon="-8.6217677"><ele>71.66666666666667</ele><time>2026-03-28T09:16:34.028Z</time></trkpt><trkpt lat="42.4424993" lon="-8.6216701"><ele>72.0</ele><time>2026-03-28T09:16:35.02Z</time></trkpt><trkpt lat="42.4424874" lon="-8.6215753"><ele>72.33333333333333</ele><time>2026-03-28T09:16:36.016Z</time></trkpt><trkpt lat="42.4424787" lon="-8.6214821"><ele>72.66666666666666</ele><time>2026-03-28T09:16:37.023Z</time></trkpt><trkpt lat="42.442447" lon="-8.621327"><ele>73.0</ele><time>2026-03-28T09:16:39.018Z</time></trkpt><trkpt lat="42.4423951" lon="-8.6212047"><ele>73.8</ele><time>2026-03-28T09:16:41.026Z</time></trkpt><trkpt lat="42.4423585" lon="-8.6210514"><ele>74.6</ele><time>2026-03-28T09:16:43.017Z</time></trkpt><trkpt lat="42.4423122" lon="-8.6209242"><ele>75.4</ele><time>2026-03-28T09:16:45.02Z</time></trkpt><trkpt lat="42.4422213" lon="-8.6208211"><ele>76.2</ele><time>2026-03-28T09:16:47.029Z</time></trkpt><trkpt lat="42.4421729" lon="-8.620766"><ele>77.0</ele><time>2026-03-28T09:16:48.026Z</time></trkpt><trkpt lat="42.4421245" lon="-8.6207036"><ele>77.16666666666667</ele><time>2026-03-28T09:16:49.018Z</time></trkpt><trkpt lat="42.4420662" lon="-8.6206137"><ele>77.33333333333334</ele><time>2026-03-28T09:16:50.027Z</time></trkpt><trkpt lat="42.4420161" lon="-8.6205062"><ele>77.5</ele><time>2026-03-28T09:16:51.016Z</time></trkpt><trkpt lat="42.4419761" lon="-8.6204074"><ele>77.66666666666667</ele><time>2026-03-28T09:16:52.034Z</time></trkpt><trkpt lat="42.4419365" lon="-8.620314"><ele>77.83333333333333</ele><time>2026-03-28T09:16:53.026Z</time></trkpt><trkpt lat="42.4418914" lon="-8.6202235"><ele>78.0</ele><time>2026-03-28T09:16:54.016Z</time></trkpt><trkpt lat="42.4418421" lon="-8.6201332"><ele>78.0</ele><time>2026-03-28T09:16:55.024Z</time></trkpt><trkpt lat="42.441799" lon="-8.6200335"><ele>78.0</ele><time>2026-03-28T09:16:56.022Z</time></trkpt><trkpt lat="42.4417596" lon="-8.619925"><ele>78.0</ele><time>2026-03-28T09:16:57.026Z</time></trkpt><trkpt lat="42.4417155" lon="-8.6198115"><ele>78.0</ele><time>2026-03-28T09:16:58.014Z</time></trkpt><trkpt lat="42.4416696" lon="-8.6196956"><ele>78.0</ele><time>2026-03-28T09:16:59.017Z</time></trkpt><trkpt lat="42.4416256" lon="-8.6195801"><ele>78.0</ele><time>2026-03-28T09:17:00.014Z</time></trkpt><trkpt lat="42.4415851" lon="-8.6194669"><ele>78.0</ele><time>2026-03-28T09:17:01.028Z</time></trkpt><trkpt lat="42.4415531" lon="-8.6193631"><ele>78.0</ele><time>2026-03-28T09:17:02.019Z</time></trkpt><trkpt lat="42.4415239" lon="-8.6192623"><ele>78.0</ele><time>2026-03-28T09:17:03.016Z</time></trkpt><trkpt lat="42.4414868" lon="-8.6191646"><ele>78.0</ele><time>2026-03-28T09:17:04.014Z</time></trkpt><trkpt lat="42.4414438" lon="-8.6190749"><ele>78.0</ele><time>2026-03-28T09:17:05.015Z</time></trkpt><trkpt lat="42.4413865" lon="-8.6189922"><ele>78.0</ele><time>2026-03-28T09:17:06.035Z</time></trkpt><trkpt lat="42.4413114" lon="-8.6189163"><ele>78.0</ele><time>2026-03-28T09:17:07.015Z</time></trkpt><trkpt lat="42.4412322" lon="-8.6188322"><ele>78.0</ele><time>2026-03-28T09:17:08.02Z</time></trkpt><trkpt lat="42.4411834" lon="-8.6187352"><ele>78.0</ele><time>2026-03-28T09:17:09.015Z</time></trkpt><trkpt lat="42.4411491" lon="-8.6186349"><ele>78.0</ele><time>2026-03-28T09:17:10.021Z</time></trkpt><trkpt lat="42.4411367" lon="-8.6185305"><ele>78.0</ele><time>2026-03-28T09:17:11.014Z</time></trkpt><trkpt lat="42.4411233" lon="-8.6184208"><ele>79.5</ele><time>2026-03-28T09:17:12.027Z</time></trkpt><trkpt lat="42.4410962" lon="-8.6183167"><ele>81.0</ele><time>2026-03-28T09:17:13.013Z</time></trkpt><trkpt lat="42.4410704" lon="-8.6182142"><ele>82.5</ele><time>2026-03-28T09:17:14.018Z</time></trkpt><trkpt lat="42.4410545" lon="-8.6181187"><ele>84.0</ele><time>2026-03-28T09:17:15.013Z</time></trkpt><trkpt lat="42.4410322" lon="-8.6180337"><ele>85.5</ele><time>2026-03-28T09:17:16.013Z</time></trkpt><trkpt lat="42.4410231" lon="-8.6178966"><ele>87.0</ele><time>2026-03-28T09:17:18.017Z</time></trkpt><trkpt lat="42.4410258" lon="-8.6178077"><ele>87.66666666666667</ele><time>2026-03-28T09:17:23.027Z</time></trkpt><trkpt lat="42.4410054" lon="-8.6177211"><ele>88.33333333333333</ele><time>2026-03-28T09:17:28.022Z</time></trkpt><trkpt lat="42.4409914" lon="-8.61761"><ele>89.0</ele><time>2026-03-28T09:17:40.018Z</time></trkpt><trkpt lat="42.440977" lon="-8.6175047"><ele>89.66666666666666</ele><time>2026-03-28T09:17:43.014Z</time></trkpt><trkpt lat="42.4409161" lon="-8.6174466"><ele>90.33333333333333</ele><time>2026-03-28T09:18:04.016Z</time></trkpt><trkpt lat="42.4409188" lon="-8.6172995"><ele>91.0</ele><time>2026-03-28T09:18:07.018Z</time></trkpt><trkpt lat="42.4409674" lon="-8.6171695"><ele>91.0</ele><time>2026-03-28T09:18:09.022Z</time></trkpt><trkpt lat="42.4410087" lon="-8.6170879"><ele>91.0</ele><time>2026-03-28T09:18:10.019Z</time></trkpt><trkpt lat="42.4410482" lon="-8.6170137"><ele>91.0</ele><time>2026-03-28T09:18:11.024Z</time></trkpt><trkpt lat="42.4411116" lon="-8.6168827"><ele>91.0</ele><time>2026-03-28T09:18:12.019Z</time></trkpt><trkpt lat="42.4411843" lon="-8.6167304"><ele>91.0</ele><time>2026-03-28T09:18:13.015Z</time></trkpt><trkpt lat="42.4412466" lon="-8.6165944"><ele>90.8</ele><time>2026-03-28T09:18:14.017Z</time></trkpt><trkpt lat="42.4413079" lon="-8.6164637"><ele>90.6</ele><time>2026-03-28T09:18:15.016Z</time></trkpt><trkpt lat="42.4413577" lon="-8.6163336"><ele>90.4</ele><time>2026-03-28T09:18:16.018Z</time></trkpt><trkpt lat="42.4414138" lon="-8.6162002"><ele>90.2</ele><time>2026-03-28T09:18:17.017Z</time></trkpt><trkpt lat="42.4414649" lon="-8.6160898"><ele>90.0</ele><time>2026-03-28T09:18:18.012Z</time></trkpt><trkpt lat="42.4415078" lon="-8.6160024"><ele>90.0</ele><time>2026-03-28T09:18:19.018Z</time></trkpt><trkpt lat="42.4415449" lon="-8.6159196"><ele>90.0</ele><time>2026-03-28T09:18:20.017Z</time></trkpt><trkpt lat="42.4416029" lon="-8.6158054"><ele>90.0</ele><time>2026-03-28T09:18:22.019Z</time></trkpt><trkpt lat="42.441615" lon="-8.6157065"><ele>90.0</ele><time>2026-03-28T09:18:24.015Z</time></trkpt><trkpt lat="42.44159" lon="-8.615608"><ele>90.0</ele><time>2026-03-28T09:18:27.017Z</time></trkpt><trkpt lat="42.4415416" lon="-8.6155164"><ele>90.0</ele><time>2026-03-28T09:18:30.011Z</time></trkpt><trkpt lat="42.4415207" lon="-8.6154002"><ele>91.0</ele><time>2026-03-28T09:18:32.019Z</time></trkpt><trkpt lat="42.4415056" lon="-8.6152521"><ele>92.0</ele><time>2026-03-28T09:18:34.014Z</time></trkpt><trkpt lat="42.441507" lon="-8.6151172"><ele>93.0</ele><time>2026-03-28T09:18:36.02Z</time></trkpt><trkpt lat="42.441494" lon="-8.6149644"><ele>94.0</ele><time>2026-03-28T09:18:38.018Z</time></trkpt><trkpt lat="42.4414728" lon="-8.6148775"><ele>95.0</ele><time>2026-03-28T09:18:39.022Z</time></trkpt><trkpt lat="42.4414535" lon="-8.6147853"><ele>95.0</ele><time>2026-03-28T09:18:40.023Z</time></trkpt><trkpt lat="42.4414223" lon="-8.6146891"><ele>95.0</ele><time>2026-03-28T09:18:41.012Z</time></trkpt><trkpt lat="42.4413894" lon="-8.6145919"><ele>95.0</ele><time>2026-03-28T09:18:42.014Z</time></trkpt><trkpt lat="42.4413525" lon="-8.614508"><ele>95.0</ele><time>2026-03-28T09:18:43.016Z</time></trkpt><trkpt lat="42.4413102" lon="-8.6144309"><ele>95.0</ele><time>2026-03-28T09:18:44.018Z</time></trkpt><trkpt lat="42.4412604" lon="-8.6143476"><ele>95.0</ele><time>2026-03-28T09:18:45.017Z</time></trkpt><trkpt lat="42.4412057" lon="-8.6142662"><ele>96.16666666666667</ele><time>2026-03-28T09:18:46.017Z</time></trkpt><trkpt lat="42.4411436" lon="-8.6141888"><ele>97.33333333333334</ele><time>2026-03-28T09:18:47.017Z</time></trkpt><trkpt lat="42.4410747" lon="-8.6141121"><ele>98.5</ele><time>2026-03-28T09:18:48.02Z</time></trkpt><trkpt lat="42.4410151" lon="-8.6140258"><ele>99.66666666666667</ele><time>2026-03-28T09:18:49.018Z</time></trkpt><trkpt lat="42.4409636" lon="-8.6139317"><ele>100.83333333333333</ele><time>2026-03-28T09:18:50.013Z</time></trkpt><trkpt lat="42.4409313" lon="-8.613827"><ele>102.0</ele><time>2026-03-28T09:18:51.023Z</time></trkpt><trkpt lat="42.4409211" lon="-8.6137225"><ele>102.33333333333333</ele><time>2026-03-28T09:18:52.016Z</time></trkpt><trkpt lat="42.4409227" lon="-8.6136196"><ele>102.66666666666666</ele><time>2026-03-28T09:18:53.018Z</time></trkpt><trkpt lat="42.440935" lon="-8.6135194"><ele>103.0</ele><time>2026-03-28T09:18:54.023Z</time></trkpt><trkpt lat="42.4409539" lon="-8.613418"><ele>103.33333333333333</ele><time>2026-03-28T09:18:55.016Z</time></trkpt><trkpt lat="42.4409835" lon="-8.6133105"><ele>103.66666666666666</ele><time>2026-03-28T09:18:56.018Z</time></trkpt><trkpt lat="42.4410151" lon="-8.6131974"><ele>104.0</ele><time>2026-03-28T09:18:57.022Z</time></trkpt><trkpt lat="42.4410346" lon="-8.6130886"><ele>103.99999999999999</ele><time>2026-03-28T09:18:58.024Z</time></trkpt><trkpt lat="42.4410468" lon="-8.6129834"><ele>104.0</ele><time>2026-03-28T09:18:59.026Z</time></trkpt><trkpt lat="42.4410482" lon="-8.6128889"><ele>104.0</ele><time>2026-03-28T09:19:00.016Z</time></trkpt><trkpt lat="42.4410384" lon="-8.6128042"><ele>104.0</ele><time>2026-03-28T09:19:01.014Z</time></trkpt><trkpt lat="42.4410169" lon="-8.6126464"><ele>103.99999999999999</ele><time>2026-03-28T09:19:03.022Z</time></trkpt><trkpt lat="42.4410146" lon="-8.612546"><ele>104.0</ele><time>2026-03-28T09:19:04.024Z</time></trkpt><trkpt lat="42.4410266" lon="-8.6124388"><ele>105.16666666666666</ele><time>2026-03-28T09:19:05.025Z</time></trkpt><trkpt lat="42.441045" lon="-8.6123307"><ele>106.33333333333333</ele><time>2026-03-28T09:19:06.024Z</time></trkpt><trkpt lat="42.4410778" lon="-8.6122267"><ele>107.5</ele><time>2026-03-28T09:19:07.012Z</time></trkpt><trkpt lat="42.4411083" lon="-8.612112"><ele>108.66666666666666</ele><time>2026-03-28T09:19:08.017Z</time></trkpt><trkpt lat="42.4411421" lon="-8.6120202"><ele>109.83333333333333</ele><time>2026-03-28T09:19:09.024Z</time></trkpt><trkpt lat="42.4411528" lon="-8.6119151"><ele>111.0</ele><time>2026-03-28T09:19:10.018Z</time></trkpt><trkpt lat="42.4411506" lon="-8.6118199"><ele>111.14285714285714</ele><time>2026-03-28T09:19:11.019Z</time></trkpt><trkpt lat="42.4411432" lon="-8.6117212"><ele>111.28571428571429</ele><time>2026-03-28T09:19:12.016Z</time></trkpt><trkpt lat="42.4411215" lon="-8.6116269"><ele>111.42857142857143</ele><time>2026-03-28T09:19:13.012Z</time></trkpt><trkpt lat="42.4410944" lon="-8.6115339"><ele>111.57142857142857</ele><time>2026-03-28T09:19:14.019Z</time></trkpt><trkpt lat="42.4410769" lon="-8.6114434"><ele>111.71428571428572</ele><time>2026-03-28T09:19:15.027Z</time></trkpt><trkpt lat="42.4410627" lon="-8.6113545"><ele>111.85714285714286</ele><time>2026-03-28T09:19:16.017Z</time></trkpt><trkpt lat="42.4410499" lon="-8.6112662"><ele>112.0</ele><time>2026-03-28T09:19:17.014Z</time></trkpt><trkpt lat="42.4410342" lon="-8.6111709"><ele>112.85714285714286</ele><time>2026-03-28T09:19:18.021Z</time></trkpt><trkpt lat="42.4410177" lon="-8.6110703"><ele>113.71428571428572</ele><time>2026-03-28T09:19:19.023Z</time></trkpt><trkpt lat="42.4409957" lon="-8.6109801"><ele>114.57142857142857</ele><time>2026-03-28T09:19:20.019Z</time></trkpt><trkpt lat="42.4409824" lon="-8.6108868"><ele>115.42857142857143</ele><time>2026-03-28T09:19:21.016Z</time></trkpt><trkpt lat="42.4409633" lon="-8.6107882"><ele>116.28571428571429</ele><time>2026-03-28T09:19:22.019Z</time></trkpt><trkpt lat="42.4409352" lon="-8.6106869"><ele>117.14285714285714</ele><time>2026-03-28T09:19:23.022Z</time></trkpt><trkpt lat="42.4409211" lon="-8.6105837"><ele>118.0</ele><time>2026-03-28T09:19:24.017Z</time></trkpt><trkpt lat="42.4409136" lon="-8.6104864"><ele>118.00000000000001</ele><time>2026-03-28T09:19:25.013Z</time></trkpt><trkpt lat="42.4408882" lon="-8.6103252"><ele>118.0</ele><time>2026-03-28T09:19:27.033Z</time></trkpt><trkpt lat="42.4408628" lon="-8.6101713"><ele>118.0</ele><time>2026-03-28T09:19:29.013Z</time></trkpt><trkpt lat="42.4408445" lon="-8.610089"><ele>118.0</ele><time>2026-03-28T09:19:30.017Z</time></trkpt><trkpt lat="42.4408196" lon="-8.6100059"><ele>118.00000000000001</ele><time>2026-03-28T09:19:31.015Z</time></trkpt><trkpt lat="42.4407924" lon="-8.6099213"><ele>118.0</ele><time>2026-03-28T09:19:32.026Z</time></trkpt><trkpt lat="42.4407548" lon="-8.6098463"><ele>118.83333333333334</ele><time>2026-03-28T09:19:33.021Z</time></trkpt><trkpt lat="42.4406902" lon="-8.6098048"><ele>119.66666666666667</ele><time>2026-03-28T09:19:34.014Z</time></trkpt><trkpt lat="42.4406165" lon="-8.6097768"><ele>120.5</ele><time>2026-03-28T09:19:35.023Z</time></trkpt><trkpt lat="42.440548" lon="-8.6097428"><ele>121.33333333333334</ele><time>2026-03-28T09:19:36.025Z</time></trkpt><trkpt lat="42.4404788" lon="-8.6097058"><ele>122.16666666666667</ele><time>2026-03-28T09:19:37.017Z</time></trkpt><trkpt lat="42.440411" lon="-8.6096546"><ele>123.0</ele><time>2026-03-28T09:19:38.017Z</time></trkpt><trkpt lat="42.4403462" lon="-8.6095961"><ele>124.66666666666667</ele><time>2026-03-28T09:19:39.028Z</time></trkpt><trkpt lat="42.4402815" lon="-8.6095172"><ele>126.33333333333334</ele><time>2026-03-28T09:19:40.016Z</time></trkpt><trkpt lat="42.4402278" lon="-8.6094343"><ele>128.0</ele><time>2026-03-28T09:19:41.013Z</time></trkpt><trkpt lat="42.4401651" lon="-8.6093539"><ele>129.66666666666669</ele><time>2026-03-28T09:19:42.017Z</time></trkpt><trkpt lat="42.4400979" lon="-8.6092859"><ele>131.33333333333334</ele><time>2026-03-28T09:19:43.012Z</time></trkpt><trkpt lat="42.4400299" lon="-8.6092213"><ele>133.0</ele><time>2026-03-28T09:19:44.02Z</time></trkpt><trkpt lat="42.439963" lon="-8.6091612"><ele>133.0</ele><time>2026-03-28T09:19:45.019Z</time></trkpt><trkpt lat="42.4398877" lon="-8.6091112"><ele>133.0</ele><time>2026-03-28T09:19:46.021Z</time></trkpt><trkpt lat="42.439808" lon="-8.6090904"><ele>133.0</ele><time>2026-03-28T09:19:47.011Z</time></trkpt><trkpt lat="42.4396936" lon="-8.6091479"><ele>133.0</ele><time>2026-03-28T09:19:49.037Z</time></trkpt><trkpt lat="42.4395884" lon="-8.6092426"><ele>133.0</ele><time>2026-03-28T09:19:51.033Z</time></trkpt><trkpt lat="42.439529" lon="-8.6093068"><ele>133.71428571428572</ele><time>2026-03-28T09:19:52.011Z</time></trkpt><trkpt lat="42.4394655" lon="-8.6093623"><ele>134.42857142857144</ele><time>2026-03-28T09:19:53.016Z</time></trkpt><trkpt lat="42.4393949" lon="-8.6094225"><ele>135.14285714285714</ele><time>2026-03-28T09:19:54.017Z</time></trkpt><trkpt lat="42.4393319" lon="-8.6094809"><ele>135.85714285714286</ele><time>2026-03-28T09:19:55.017Z</time></trkpt><trkpt lat="42.4392665" lon="-8.6095303"><ele>136.57142857142858</ele><time>2026-03-28T09:19:56.021Z</time></trkpt><trkpt lat="42.4392028" lon="-8.6095637"><ele>137.28571428571428</ele><time>2026-03-28T09:19:57.014Z</time></trkpt><trkpt lat="42.4391381" lon="-8.6095843"><ele>138.0</ele><time>2026-03-28T09:19:58.015Z</time></trkpt><trkpt lat="42.4390699" lon="-8.6096039"><ele>138.85714285714286</ele><time>2026-03-28T09:19:59.018Z</time></trkpt><trkpt lat="42.4390006" lon="-8.6096259"><ele>139.71428571428572</ele><time>2026-03-28T09:20:00.019Z</time></trkpt><trkpt lat="42.4389279" lon="-8.609643"><ele>140.57142857142858</ele><time>2026-03-28T09:20:01.018Z</time></trkpt><trkpt lat="42.4388583" lon="-8.6096523"><ele>141.42857142857144</ele><time>2026-03-28T09:20:02.017Z</time></trkpt><trkpt lat="42.4387872" lon="-8.6096574"><ele>142.28571428571428</ele><time>2026-03-28T09:20:03.027Z</time></trkpt><trkpt lat="42.4387184" lon="-8.6096619"><ele>143.14285714285717</ele><time>2026-03-28T09:20:04.018Z</time></trkpt><trkpt lat="42.4386543" lon="-8.6096599"><ele>144.0</ele><time>2026-03-28T09:20:05.018Z</time></trkpt><trkpt lat="42.4385307" lon="-8.6096591"><ele>144.0</ele><time>2026-03-28T09:20:07.021Z</time></trkpt><trkpt lat="42.4384105" lon="-8.6096684"><ele>144.0</ele><time>2026-03-28T09:20:09.018Z</time></trkpt><trkpt lat="42.4382932" lon="-8.6096761"><ele>144.0</ele><time>2026-03-28T09:20:11.019Z</time></trkpt><trkpt lat="42.4381888" lon="-8.6096688"><ele>144.0</ele><time>2026-03-28T09:20:13.02Z</time></trkpt><trkpt lat="42.4381133" lon="-8.6096441"><ele>144.0</ele><time>2026-03-28T09:20:15.016Z</time></trkpt><trkpt lat="42.4380435" lon="-8.6096624"><ele>144.0</ele><time>2026-03-28T09:20:18.018Z</time></trkpt><trkpt lat="42.4380128" lon="-8.6095503"><ele>144.0</ele><time>2026-03-28T09:20:23.017Z</time></trkpt><trkpt lat="42.4380479" lon="-8.6094452"><ele>144.0</ele><time>2026-03-28T09:20:25.019Z</time></trkpt><trkpt lat="42.438085" lon="-8.6093607"><ele>144.0</ele><time>2026-03-28T09:20:27.018Z</time></trkpt><trkpt lat="42.4381079" lon="-8.6092499"><ele>144.0</ele><time>2026-03-28T09:20:29.014Z</time></trkpt><trkpt lat="42.4380943" lon="-8.6091308"><ele>144.0</ele><time>2026-03-28T09:20:31.028Z</time></trkpt><trkpt lat="42.4381407" lon="-8.6090272"><ele>143.66666666666666</ele><time>2026-03-28T09:20:33.014Z</time></trkpt><trkpt lat="42.4381735" lon="-8.6089502"><ele>143.33333333333334</ele><time>2026-03-28T09:20:35.021Z</time></trkpt><trkpt lat="42.4382018" lon="-8.6088515"><ele>143.0</ele><time>2026-03-28T09:20:37.017Z</time></trkpt><trkpt lat="42.438243" lon="-8.6087121"><ele>142.66666666666669</ele><time>2026-03-28T09:20:39.02Z</time></trkpt><trkpt lat="42.4382804" lon="-8.60859"><ele>142.33333333333334</ele><time>2026-03-28T09:20:41.021Z</time></trkpt><trkpt lat="42.4383419" lon="-8.6085193"><ele>142.0</ele><time>2026-03-28T09:20:43.009Z</time></trkpt><trkpt lat="42.4384141" lon="-8.608484"><ele>140.5</ele><time>2026-03-28T09:20:46.018Z</time></trkpt><trkpt lat="42.4384751" lon="-8.608404"><ele>139.0</ele><time>2026-03-28T09:20:49.021Z</time></trkpt><trkpt lat="42.4385463" lon="-8.6083614"><ele>137.5</ele><time>2026-03-28T09:20:52.017Z</time></trkpt><trkpt lat="42.4385338" lon="-8.6082727"><ele>136.0</ele><time>2026-03-28T09:20:56.015Z</time></trkpt><trkpt lat="42.4385501" lon="-8.6081486"><ele>134.5</ele><time>2026-03-28T09:20:58.017Z</time></trkpt><trkpt lat="42.4385595" lon="-8.6080341"><ele>133.0</ele><time>2026-03-28T09:21:01.017Z</time></trkpt><trkpt lat="42.4385786" lon="-8.6079398"><ele>133.0</ele><time>2026-03-28T09:21:03.025Z</time></trkpt><trkpt lat="42.438603" lon="-8.6078563"><ele>133.0</ele><time>2026-03-28T09:21:05.017Z</time></trkpt><trkpt lat="42.4386395" lon="-8.6077645"><ele>133.0</ele><time>2026-03-28T09:21:07.02Z</time></trkpt><trkpt lat="42.4387061" lon="-8.6076684"><ele>133.0</ele><time>2026-03-28T09:21:09.016Z</time></trkpt><trkpt lat="42.4387745" lon="-8.6075624"><ele>133.0</ele><time>2026-03-28T09:21:11.022Z</time></trkpt><trkpt lat="42.4388153" lon="-8.6074514"><ele>133.0</ele><time>2026-03-28T09:21:13.021Z</time></trkpt><trkpt lat="42.438836" lon="-8.6073557"><ele>132.0</ele><time>2026-03-28T09:21:15.013Z</time></trkpt><trkpt lat="42.4388645" lon="-8.6072689"><ele>131.0</ele><time>2026-03-28T09:21:18.019Z</time></trkpt><trkpt lat="42.4388342" lon="-8.6071815"><ele>130.0</ele><time>2026-03-28T09:21:21.015Z</time></trkpt><trkpt lat="42.4387861" lon="-8.6071055"><ele>129.0</ele><time>2026-03-28T09:21:23.019Z</time></trkpt><trkpt lat="42.4387314" lon="-8.6070243"><ele>128.0</ele><time>2026-03-28T09:21:25.015Z</time></trkpt><trkpt lat="42.4386689" lon="-8.606965"><ele>127.0</ele><time>2026-03-28T09:21:27.016Z</time></trkpt><trkpt lat="42.4385941" lon="-8.6068744"><ele>131.5</ele><time>2026-03-28T09:21:29.018Z</time></trkpt><trkpt lat="42.4384954" lon="-8.6067791"><ele>136.0</ele><time>2026-03-28T09:21:31.026Z</time></trkpt><trkpt lat="42.4384143" lon="-8.6066884"><ele>140.5</ele><time>2026-03-28T09:21:33.013Z</time></trkpt><trkpt lat="42.438328" lon="-8.606584"><ele>145.0</ele><time>2026-03-28T09:21:35.017Z</time></trkpt><trkpt lat="42.43824" lon="-8.6064936"><ele>145.0</ele><time>2026-03-28T09:21:37.017Z</time></trkpt><trkpt lat="42.4381458" lon="-8.6064517"><ele>145.0</ele><time>2026-03-28T09:21:39.015Z</time></trkpt><trkpt lat="42.4380467" lon="-8.6064425"><ele>145.0</ele><time>2026-03-28T09:21:41.018Z</time></trkpt><trkpt lat="42.4379559" lon="-8.6064506"><ele>145.0</ele><time>2026-03-28T09:21:43.016Z</time></trkpt><trkpt lat="42.4378545" lon="-8.6064773"><ele>145.0</ele><time>2026-03-28T09:21:45.023Z</time></trkpt><trkpt lat="42.4377429" lon="-8.6065219"><ele>147.8</ele><time>2026-03-28T09:21:47.019Z</time></trkpt><trkpt lat="42.4376337" lon="-8.6065538"><ele>150.6</ele><time>2026-03-28T09:21:49.027Z</time></trkpt><trkpt lat="42.4375217" lon="-8.6065328"><ele>153.4</ele><time>2026-03-28T09:21:51.014Z</time></trkpt><trkpt lat="42.4374054" lon="-8.6064602"><ele>156.2</ele><time>2026-03-28T09:21:53.023Z</time></trkpt><trkpt lat="42.4373525" lon="-8.6063991"><ele>159.0</ele><time>2026-03-28T09:21:54.018Z</time></trkpt><trkpt lat="42.4372754" lon="-8.6062841"><ele>159.0</ele><time>2026-03-28T09:21:56.032Z</time></trkpt><trkpt lat="42.4372095" lon="-8.6061664"><ele>159.0</ele><time>2026-03-28T09:21:58.015Z</time></trkpt><trkpt lat="42.4371338" lon="-8.6060732"><ele>159.0</ele><time>2026-03-28T09:22:00.018Z</time></trkpt><trkpt lat="42.4370657" lon="-8.6059765"><ele>159.0</ele><time>2026-03-28T09:22:02.021Z</time></trkpt><trkpt lat="42.4370181" lon="-8.6058736"><ele>159.0</ele><time>2026-03-28T09:22:04.017Z</time></trkpt><trkpt lat="42.4369427" lon="-8.6059397"><ele>159.83333333333334</ele><time>2026-03-28T09:22:07.022Z</time></trkpt><trkpt lat="42.4369086" lon="-8.6060281"><ele>160.66666666666666</ele><time>2026-03-28T09:22:08.015Z</time></trkpt><trkpt lat="42.4368514" lon="-8.6061146"><ele>161.5</ele><time>2026-03-28T09:22:09.018Z</time></trkpt><trkpt lat="42.4367758" lon="-8.6062167"><ele>162.33333333333331</ele><time>2026-03-28T09:22:10.017Z</time></trkpt><trkpt lat="42.4366981" lon="-8.6062898"><ele>163.16666666666666</ele><time>2026-03-28T09:22:11.019Z</time></trkpt><trkpt lat="42.4366335" lon="-8.6063363"><ele>164.0</ele><time>2026-03-28T09:22:12.016Z</time></trkpt><trkpt lat="42.4365373" lon="-8.6064015"><ele>164.0</ele><time>2026-03-28T09:22:14.022Z</time></trkpt><trkpt lat="42.4364232" lon="-8.606482"><ele>164.0</ele><time>2026-03-28T09:22:16.02Z</time></trkpt><trkpt lat="42.4363551" lon="-8.6065138"><ele>164.0</ele><time>2026-03-28T09:22:17.028Z</time></trkpt><trkpt lat="42.4362299" lon="-8.6064703"><ele>164.0</ele><time>2026-03-28T09:22:19.018Z</time></trkpt><trkpt lat="42.436136" lon="-8.6063579"><ele>166.0</ele><time>2026-03-28T09:22:21.02Z</time></trkpt><trkpt lat="42.4360875" lon="-8.6063031"><ele>168.0</ele><time>2026-03-28T09:22:22.015Z</time></trkpt><trkpt lat="42.4360111" lon="-8.6062208"><ele>170.0</ele><time>2026-03-28T09:22:24.022Z</time></trkpt><trkpt lat="42.4359214" lon="-8.6061525"><ele>172.0</ele><time>2026-03-28T09:22:26.021Z</time></trkpt><trkpt lat="42.4358426" lon="-8.6060572"><ele>174.0</ele><time>2026-03-28T09:22:28.015Z</time></trkpt><trkpt lat="42.4357615" lon="-8.6059815"><ele>175.2</ele><time>2026-03-28T09:22:30.026Z</time></trkpt><trkpt lat="42.435681" lon="-8.605919"><ele>176.39999999999998</ele><time>2026-03-28T09:22:32.017Z</time></trkpt><trkpt lat="42.4355934" lon="-8.6058989"><ele>177.6</ele><time>2026-03-28T09:22:34.016Z</time></trkpt><trkpt lat="42.4354964" lon="-8.605899"><ele>178.8</ele><time>2026-03-28T09:22:36.015Z</time></trkpt><trkpt lat="42.4354089" lon="-8.6058837"><ele>180.0</ele><time>2026-03-28T09:22:38.016Z</time></trkpt><trkpt lat="42.4353104" lon="-8.6058602"><ele>181.2</ele><time>2026-03-28T09:22:40.015Z</time></trkpt><trkpt lat="42.4352083" lon="-8.6058964"><ele>182.4</ele><time>2026-03-28T09:22:42.015Z</time></trkpt><trkpt lat="42.4351102" lon="-8.6059423"><ele>183.60000000000002</ele><time>2026-03-28T09:22:44.025Z</time></trkpt><trkpt lat="42.435013" lon="-8.6059676"><ele>184.8</ele><time>2026-03-28T09:22:46.016Z</time></trkpt><trkpt lat="42.4349111" lon="-8.6059652"><ele>186.0</ele><time>2026-03-28T09:22:48.021Z</time></trkpt><trkpt lat="42.434823" lon="-8.6059592"><ele>186.0</ele><time>2026-03-28T09:22:50.015Z</time></trkpt><trkpt lat="42.4347677" lon="-8.6058979"><ele>186.0</ele><time>2026-03-28T09:22:52.017Z</time></trkpt><trkpt lat="42.4347297" lon="-8.6057811"><ele>186.0</ele><time>2026-03-28T09:22:54.021Z</time></trkpt><trkpt lat="42.4347073" lon="-8.6057012"><ele>186.0</ele><time>2026-03-28T09:22:55.013Z</time></trkpt><trkpt lat="42.4346394" lon="-8.6055753"><ele>186.0</ele><time>2026-03-28T09:22:57.015Z</time></trkpt><trkpt lat="42.4345547" lon="-8.6054883"><ele>185.16666666666666</ele><time>2026-03-28T09:22:59.011Z</time></trkpt><trkpt lat="42.4344882" lon="-8.6054391"><ele>184.33333333333334</ele><time>2026-03-28T09:23:00.016Z</time></trkpt><trkpt lat="42.4344217" lon="-8.6054033"><ele>183.5</ele><time>2026-03-28T09:23:01.017Z</time></trkpt><trkpt lat="42.4343542" lon="-8.605363"><ele>182.66666666666669</ele><time>2026-03-28T09:23:02.015Z</time></trkpt><trkpt lat="42.4342732" lon="-8.6053166"><ele>181.83333333333334</ele><time>2026-03-28T09:23:03.016Z</time></trkpt><trkpt lat="42.4341891" lon="-8.6052847"><ele>181.0</ele><time>2026-03-28T09:23:04.029Z</time></trkpt><trkpt lat="42.4341111" lon="-8.6052561"><ele>182.16666666666669</ele><time>2026-03-28T09:23:05.018Z</time></trkpt><trkpt lat="42.4340295" lon="-8.6052387"><ele>183.33333333333334</ele><time>2026-03-28T09:23:06.013Z</time></trkpt><trkpt lat="42.4339511" lon="-8.6052506"><ele>184.5</ele><time>2026-03-28T09:23:07.012Z</time></trkpt><trkpt lat="42.4338813" lon="-8.6052811"><ele>185.66666666666666</ele><time>2026-03-28T09:23:08.026Z</time></trkpt><trkpt lat="42.4338128" lon="-8.6052959"><ele>186.83333333333331</ele><time>2026-03-28T09:23:09.022Z</time></trkpt><trkpt lat="42.4337275" lon="-8.6053009"><ele>188.0</ele><time>2026-03-28T09:23:11.022Z</time></trkpt><trkpt lat="42.4336932" lon="-8.6052198"><ele>188.0</ele><time>2026-03-28T09:23:14.009Z</time></trkpt><trkpt lat="42.4336604" lon="-8.6051099"><ele>188.0</ele><time>2026-03-28T09:23:20.02Z</time></trkpt><trkpt lat="42.4336192" lon="-8.6050072"><ele>188.0</ele><time>2026-03-28T09:23:40.018Z</time></trkpt><trkpt lat="42.4335312" lon="-8.6049815"><ele>188.0</ele><time>2026-03-28T09:23:42.018Z</time></trkpt><trkpt lat="42.4334608" lon="-8.6049335"><ele>188.0</ele><time>2026-03-28T09:23:44.017Z</time></trkpt><trkpt lat="42.4334052" lon="-8.6048928"><ele>188.0</ele><time>2026-03-28T09:23:45.02Z</time></trkpt><trkpt lat="42.4333541" lon="-8.6048293"><ele>188.0</ele><time>2026-03-28T09:23:46.025Z</time></trkpt><trkpt lat="42.4332808" lon="-8.6047067"><ele>188.0</ele><time>2026-03-28T09:23:48.016Z</time></trkpt><trkpt lat="42.433192" lon="-8.6046388"><ele>188.0</ele><time>2026-03-28T09:23:50.013Z</time></trkpt><trkpt lat="42.4330802" lon="-8.6045716"><ele>188.0</ele><time>2026-03-28T09:23:52.016Z</time></trkpt><trkpt lat="42.4330148" lon="-8.6045398"><ele>188.0</ele><time>2026-03-28T09:23:53.014Z</time></trkpt><trkpt lat="42.4329467" lon="-8.6045088"><ele>189.83333333333331</ele><time>2026-03-28T09:23:54.02Z</time></trkpt><trkpt lat="42.4328637" lon="-8.6044754"><ele>191.66666666666666</ele><time>2026-03-28T09:23:55.018Z</time></trkpt><trkpt lat="42.4327861" lon="-8.6044296"><ele>193.5</ele><time>2026-03-28T09:23:56.017Z</time></trkpt><trkpt lat="42.4327332" lon="-8.6043803"><ele>195.33333333333331</ele><time>2026-03-28T09:23:57.013Z</time></trkpt><trkpt lat="42.4326323" lon="-8.6043323"><ele>197.16666666666666</ele><time>2026-03-28T09:23:59.02Z</time></trkpt><trkpt lat="42.432556" lon="-8.6043198"><ele>199.0</ele><time>2026-03-28T09:24:00.014Z</time></trkpt><trkpt lat="42.4324842" lon="-8.6043016"><ele>198.99999999999997</ele><time>2026-03-28T09:24:01.017Z</time></trkpt><trkpt lat="42.4324064" lon="-8.6042922"><ele>199.0</ele><time>2026-03-28T09:24:02.023Z</time></trkpt><trkpt lat="42.4323286" lon="-8.6042802"><ele>199.0</ele><time>2026-03-28T09:24:03.018Z</time></trkpt><trkpt lat="42.4322633" lon="-8.6042576"><ele>199.0</ele><time>2026-03-28T09:24:04.016Z</time></trkpt><trkpt lat="42.4321545" lon="-8.6042221"><ele>198.99999999999997</ele><time>2026-03-28T09:24:06.022Z</time></trkpt><trkpt lat="42.4320899" lon="-8.6042307"><ele>199.0</ele><time>2026-03-28T09:24:07.016Z</time></trkpt><trkpt lat="42.4320265" lon="-8.604244"><ele>201.39999999999998</ele><time>2026-03-28T09:24:08.022Z</time></trkpt><trkpt lat="42.4319272" lon="-8.6043133"><ele>203.8</ele><time>2026-03-28T09:24:10.015Z</time></trkpt><trkpt lat="42.431822" lon="-8.6043396"><ele>206.2</ele><time>2026-03-28T09:24:12.013Z</time></trkpt><trkpt lat="42.4317096" lon="-8.6043702"><ele>208.60000000000002</ele><time>2026-03-28T09:24:14.023Z</time></trkpt><trkpt lat="42.4316196" lon="-8.6044416"><ele>211.0</ele><time>2026-03-28T09:24:16.019Z</time></trkpt><trkpt lat="42.431529" lon="-8.6045134"><ele>210.99999999999997</ele><time>2026-03-28T09:24:18.013Z</time></trkpt><trkpt lat="42.4314463" lon="-8.6045698"><ele>211.0</ele><time>2026-03-28T09:24:20.025Z</time></trkpt><trkpt lat="42.4313599" lon="-8.6045851"><ele>211.0</ele><time>2026-03-28T09:24:23.018Z</time></trkpt><trkpt lat="42.4312712" lon="-8.6045449"><ele>211.0</ele><time>2026-03-28T09:24:26.013Z</time></trkpt><trkpt lat="42.4312105" lon="-8.6045026"><ele>210.99999999999997</ele><time>2026-03-28T09:24:28.014Z</time></trkpt><trkpt lat="42.4311357" lon="-8.6044995"><ele>211.0</ele><time>2026-03-28T09:24:31.015Z</time></trkpt><trkpt lat="42.4310683" lon="-8.6045105"><ele>211.99999999999997</ele><time>2026-03-28T09:24:34.02Z</time></trkpt><trkpt lat="42.4310096" lon="-8.604436"><ele>213.0</ele><time>2026-03-28T09:24:39.014Z</time></trkpt><trkpt lat="42.4309449" lon="-8.6044111"><ele>214.0</ele><time>2026-03-28T09:24:42.021Z</time></trkpt><trkpt lat="42.4308543" lon="-8.6044264"><ele>215.0</ele><time>2026-03-28T09:24:46.012Z</time></trkpt><trkpt lat="42.4308012" lon="-8.6045001"><ele>215.99999999999997</ele><time>2026-03-28T09:24:48.02Z</time></trkpt><trkpt lat="42.4308092" lon="-8.6046102"><ele>217.0</ele><time>2026-03-28T09:24:52.026Z</time></trkpt><trkpt lat="42.4308839" lon="-8.604647"><ele>216.83333333333331</ele><time>2026-03-28T09:24:56.022Z</time></trkpt><trkpt lat="42.4309126" lon="-8.604763"><ele>216.66666666666666</ele><time>2026-03-28T09:24:59.014Z</time></trkpt><trkpt lat="42.4309073" lon="-8.604853"><ele>216.5</ele><time>2026-03-28T09:25:06.019Z</time></trkpt><trkpt lat="42.4309393" lon="-8.6049639"><ele>216.33333333333331</ele><time>2026-03-28T09:25:35.022Z</time></trkpt><trkpt lat="42.430986" lon="-8.6050647"><ele>216.16666666666666</ele><time>2026-03-28T09:25:37.014Z</time></trkpt><trkpt lat="42.4310272" lon="-8.6052116"><ele>216.0</ele><time>2026-03-28T09:25:39.019Z</time></trkpt><trkpt lat="42.431051" lon="-8.6053681"><ele>216.0</ele><time>2026-03-28T09:25:41.015Z</time></trkpt><trkpt lat="42.4310937" lon="-8.6055109"><ele>216.00000000000003</ele><time>2026-03-28T09:25:43.017Z</time></trkpt><trkpt lat="42.4311007" lon="-8.6056138"><ele>216.00000000000003</ele><time>2026-03-28T09:25:45.015Z</time></trkpt><trkpt lat="42.4310805" lon="-8.605734"><ele>216.0</ele><time>2026-03-28T09:25:48.015Z</time></trkpt><trkpt lat="42.4309835" lon="-8.6057654"><ele>216.0</ele><time>2026-03-28T09:26:11.015Z</time></trkpt><trkpt lat="42.4308945" lon="-8.6057782"><ele>216.0</ele><time>2026-03-28T09:26:13.026Z</time></trkpt><trkpt lat="42.430778" lon="-8.6057866"><ele>216.00000000000003</ele><time>2026-03-28T09:26:15.016Z</time></trkpt><trkpt lat="42.4306751" lon="-8.6057703"><ele>216.00000000000003</ele><time>2026-03-28T09:26:17.016Z</time></trkpt><trkpt lat="42.4306087" lon="-8.6056818"><ele>216.0</ele><time>2026-03-28T09:26:19.025Z</time></trkpt><trkpt lat="42.430552" lon="-8.6056071"><ele>216.0</ele><time>2026-03-28T09:26:21.016Z</time></trkpt><trkpt lat="42.4304501" lon="-8.6055358"><ele>216.60000000000002</ele><time>2026-03-28T09:26:23.013Z</time></trkpt><trkpt lat="42.4303165" lon="-8.6054992"><ele>217.20000000000002</ele><time>2026-03-28T09:26:25.022Z</time></trkpt><trkpt lat="42.4302538" lon="-8.6054584"><ele>217.79999999999998</ele><time>2026-03-28T09:26:26.018Z</time></trkpt><trkpt lat="42.4301583" lon="-8.6053458"><ele>218.39999999999998</ele><time>2026-03-28T09:26:28.014Z</time></trkpt><trkpt lat="42.4300907" lon="-8.6052337"><ele>219.0</ele><time>2026-03-28T09:26:30.018Z</time></trkpt><trkpt lat="42.4300078" lon="-8.6051497"><ele>219.0</ele><time>2026-03-28T09:26:32.021Z</time></trkpt><trkpt lat="42.4299277" lon="-8.6050859"><ele>219.0</ele><time>2026-03-28T09:26:34.016Z</time></trkpt><trkpt lat="42.4298655" lon="-8.6050654"><ele>219.0</ele><time>2026-03-28T09:26:45.021Z</time></trkpt><trkpt lat="42.42982" lon="-8.6050024"><ele>219.0</ele><time>2026-03-28T09:26:48.016Z</time></trkpt><trkpt lat="42.4297401" lon="-8.605023"><ele>219.0</ele><time>2026-03-28T09:27:08.011Z</time></trkpt><trkpt lat="42.4296875" lon="-8.605098"><ele>219.0</ele><time>2026-03-28T09:27:12.024Z</time></trkpt><trkpt lat="42.4296689" lon="-8.6052055"><ele>216.0</ele><time>2026-03-28T09:27:16.013Z</time></trkpt><trkpt lat="42.4296269" lon="-8.6052837"><ele>213.0</ele><time>2026-03-28T09:27:20.011Z</time></trkpt><trkpt lat="42.429585" lon="-8.6053672"><ele>210.0</ele><time>2026-03-28T09:27:24.019Z</time></trkpt><trkpt lat="42.4295291" lon="-8.6054183"><ele>207.0</ele><time>2026-03-28T09:27:30.019Z</time></trkpt><trkpt lat="42.4295245" lon="-8.6053313"><ele>204.0</ele><time>2026-03-28T09:27:52.025Z</time></trkpt><trkpt lat="42.429568" lon="-8.6052262"><ele>201.0</ele><time>2026-03-28T09:27:54.017Z</time></trkpt><trkpt lat="42.429634" lon="-8.6050666"><ele>201.0</ele><time>2026-03-28T09:27:56.012Z</time></trkpt><trkpt lat="42.4296585" lon="-8.6049764"><ele>201.0</ele><time>2026-03-28T09:28:39.026Z</time></trkpt><trkpt lat="42.4297135" lon="-8.6049303"><ele>201.0</ele><time>2026-03-28T09:29:01.019Z</time></trkpt><trkpt lat="42.42965" lon="-8.6048613"><ele>201.0</ele><time>2026-03-28T09:30:46.023Z</time></trkpt><trkpt lat="42.42959" lon="-8.6048135"><ele>201.0</ele><time>2026-03-28T09:30:48.024Z</time></trkpt><trkpt lat="42.4295559" lon="-8.6047117"><ele>201.0</ele><time>2026-03-28T09:30:50.015Z</time></trkpt><trkpt lat="42.429551" lon="-8.6045811"><ele>202.33333333333334</ele><time>2026-03-28T09:30:52.015Z</time></trkpt><trkpt lat="42.4295621" lon="-8.6044547"><ele>203.66666666666669</ele><time>2026-03-28T09:30:54.018Z</time></trkpt><trkpt lat="42.4295865" lon="-8.6043664"><ele>205.0</ele><time>2026-03-28T09:30:56.014Z</time></trkpt><trkpt lat="42.4295994" lon="-8.6042709"><ele>206.33333333333334</ele><time>2026-03-28T09:30:59.019Z</time></trkpt><trkpt lat="42.4296198" lon="-8.6041881"><ele>207.66666666666669</ele><time>2026-03-28T09:31:03.015Z</time></trkpt><trkpt lat="42.4296123" lon="-8.6040669"><ele>209.0</ele><time>2026-03-28T09:31:06.017Z</time></trkpt><trkpt lat="42.4295953" lon="-8.6039819"><ele>209.00000000000003</ele><time>2026-03-28T09:31:08.013Z</time></trkpt><trkpt lat="42.4295303" lon="-8.6038838"><ele>209.0</ele><time>2026-03-28T09:31:10.019Z</time></trkpt><trkpt lat="42.4294554" lon="-8.6038481"><ele>209.0</ele><time>2026-03-28T09:31:13.014Z</time></trkpt><trkpt lat="42.4293924" lon="-8.6038483"><ele>209.0</ele><time>2026-03-28T09:31:15.017Z</time></trkpt><trkpt lat="42.4292868" lon="-8.6038375"><ele>209.00000000000003</ele><time>2026-03-28T09:31:18.015Z</time></trkpt><trkpt lat="42.4292135" lon="-8.6038176"><ele>209.0</ele><time>2026-03-28T09:31:20.014Z</time></trkpt><trkpt lat="42.4291381" lon="-8.6037368"><ele>210.16666666666669</ele><time>2026-03-28T09:31:22.009Z</time></trkpt><trkpt lat="42.4290465" lon="-8.6036356"><ele>211.33333333333334</ele><time>2026-03-28T09:31:24.02Z</time></trkpt><trkpt lat="42.4289754" lon="-8.6035504"><ele>212.5</ele><time>2026-03-28T09:31:26.014Z</time></trkpt><trkpt lat="42.4289382" lon="-8.6034715"><ele>213.66666666666669</ele><time>2026-03-28T09:31:28.017Z</time></trkpt><trkpt lat="42.4289737" lon="-8.6033723"><ele>214.83333333333334</ele><time>2026-03-28T09:31:49.017Z</time></trkpt><trkpt lat="42.4289919" lon="-8.6032754"><ele>216.0</ele><time>2026-03-28T09:31:51.029Z</time></trkpt><trkpt lat="42.4290015" lon="-8.6031686"><ele>216.0</ele><time>2026-03-28T09:31:53.032Z</time></trkpt><trkpt lat="42.4289794" lon="-8.602992"><ele>216.00000000000003</ele><time>2026-03-28T09:31:55.012Z</time></trkpt><trkpt lat="42.4289777" lon="-8.6028818"><ele>216.00000000000003</ele><time>2026-03-28T09:31:56.02Z</time></trkpt><trkpt lat="42.4289733" lon="-8.6027706"><ele>216.0</ele><time>2026-03-28T09:31:57.016Z</time></trkpt><trkpt lat="42.4289682" lon="-8.602658"><ele>216.0</ele><time>2026-03-28T09:31:58.023Z</time></trkpt><trkpt lat="42.4289751" lon="-8.602542"><ele>216.83333333333334</ele><time>2026-03-28T09:31:59.017Z</time></trkpt><trkpt lat="42.4289885" lon="-8.6024199"><ele>217.66666666666669</ele><time>2026-03-28T09:32:00.019Z</time></trkpt><trkpt lat="42.4290073" lon="-8.6023122"><ele>218.5</ele><time>2026-03-28T09:32:01.028Z</time></trkpt><trkpt lat="42.4290261" lon="-8.6022019"><ele>219.33333333333334</ele><time>2026-03-28T09:32:02.029Z</time></trkpt><trkpt lat="42.4290341" lon="-8.6020999"><ele>220.16666666666669</ele><time>2026-03-28T09:32:03.009Z</time></trkpt><trkpt lat="42.4290466" lon="-8.6020009"><ele>221.0</ele><time>2026-03-28T09:32:04.021Z</time></trkpt><trkpt lat="42.429051" lon="-8.6019045"><ele>221.33333333333334</ele><time>2026-03-28T09:32:05.018Z</time></trkpt><trkpt lat="42.4290552" lon="-8.6018078"><ele>221.66666666666669</ele><time>2026-03-28T09:32:06.019Z</time></trkpt><trkpt lat="42.4290629" lon="-8.6017208"><ele>222.0</ele><time>2026-03-28T09:32:07.022Z</time></trkpt><trkpt lat="42.4290802" lon="-8.6016377"><ele>222.33333333333331</ele><time>2026-03-28T09:32:08.017Z</time></trkpt><trkpt lat="42.4290933" lon="-8.6014936"><ele>222.66666666666666</ele><time>2026-03-28T09:32:10.01Z</time></trkpt><trkpt lat="42.4290445" lon="-8.6013901"><ele>223.0</ele><time>2026-03-28T09:32:12.015Z</time></trkpt><trkpt lat="42.4289296" lon="-8.6013586"><ele>222.99999999999997</ele><time>2026-03-28T09:32:14.013Z</time></trkpt><trkpt lat="42.4288469" lon="-8.6013419"><ele>223.0</ele><time>2026-03-28T09:32:15.014Z</time></trkpt><trkpt lat="42.428783" lon="-8.6013003"><ele>223.0</ele><time>2026-03-28T09:32:16.018Z</time></trkpt><trkpt lat="42.4287275" lon="-8.6012476"><ele>223.0</ele><time>2026-03-28T09:32:17.017Z</time></trkpt><trkpt lat="42.4286646" lon="-8.6011979"><ele>222.99999999999997</ele><time>2026-03-28T09:32:18.011Z</time></trkpt><trkpt lat="42.4286" lon="-8.601135"><ele>223.0</ele><time>2026-03-28T09:32:19.024Z</time></trkpt><trkpt lat="42.4285352" lon="-8.6010731"><ele>223.66666666666666</ele><time>2026-03-28T09:32:20.011Z</time></trkpt><trkpt lat="42.4284746" lon="-8.6010266"><ele>224.33333333333331</ele><time>2026-03-28T09:32:21.017Z</time></trkpt><trkpt lat="42.4283588" lon="-8.600966"><ele>225.0</ele><time>2026-03-28T09:32:23.012Z</time></trkpt><trkpt lat="42.4282949" lon="-8.6009456"><ele>225.66666666666669</ele><time>2026-03-28T09:32:24.012Z</time></trkpt><trkpt lat="42.4281818" lon="-8.6009214"><ele>226.33333333333334</ele><time>2026-03-28T09:32:26.013Z</time></trkpt><trkpt lat="42.4281124" lon="-8.6009049"><ele>227.0</ele><time>2026-03-28T09:32:27.014Z</time></trkpt><trkpt lat="42.4280368" lon="-8.6008945"><ele>226.2</ele><time>2026-03-28T09:32:28.022Z</time></trkpt><trkpt lat="42.4279678" lon="-8.6008833"><ele>225.39999999999998</ele><time>2026-03-28T09:32:29.013Z</time></trkpt><trkpt lat="42.4278527" lon="-8.6008613"><ele>224.60000000000002</ele><time>2026-03-28T09:32:31.02Z</time></trkpt><trkpt lat="42.427788" lon="-8.6008017"><ele>223.8</ele><time>2026-03-28T09:32:33.015Z</time></trkpt><trkpt lat="42.4277897" lon="-8.6006661"><ele>223.0</ele><time>2026-03-28T09:32:35.02Z</time></trkpt><trkpt lat="42.4278221" lon="-8.6005468"><ele>222.99999999999997</ele><time>2026-03-28T09:32:36.011Z</time></trkpt><trkpt lat="42.4278458" lon="-8.6004239"><ele>223.0</ele><time>2026-03-28T09:32:37.02Z</time></trkpt><trkpt lat="42.427874" lon="-8.6003117"><ele>223.0</ele><time>2026-03-28T09:32:38.014Z</time></trkpt><trkpt lat="42.4278985" lon="-8.6002107"><ele>223.0</ele><time>2026-03-28T09:32:39.009Z</time></trkpt><trkpt lat="42.4279263" lon="-8.6001303"><ele>222.99999999999997</ele><time>2026-03-28T09:32:40.012Z</time></trkpt><trkpt lat="42.4279748" lon="-8.59999"><ele>223.0</ele><time>2026-03-28T09:32:42.018Z</time></trkpt><trkpt lat="42.4280209" lon="-8.5998814"><ele>222.83333333333331</ele><time>2026-03-28T09:32:44.008Z</time></trkpt><trkpt lat="42.4281021" lon="-8.599756"><ele>222.66666666666666</ele><time>2026-03-28T09:32:46.021Z</time></trkpt><trkpt lat="42.4282128" lon="-8.5996798"><ele>222.5</ele><time>2026-03-28T09:32:48.016Z</time></trkpt><trkpt lat="42.4282741" lon="-8.5996572"><ele>222.33333333333331</ele><time>2026-03-28T09:32:49.014Z</time></trkpt><trkpt lat="42.4283387" lon="-8.5996322"><ele>222.16666666666666</ele><time>2026-03-28T09:32:50.016Z</time></trkpt><trkpt lat="42.4284084" lon="-8.5996358"><ele>222.0</ele><time>2026-03-28T09:32:51.018Z</time></trkpt><trkpt lat="42.428482" lon="-8.5996766"><ele>222.0</ele><time>2026-03-28T09:32:52.022Z</time></trkpt><trkpt lat="42.4285561" lon="-8.5997322"><ele>222.0</ele><time>2026-03-28T09:32:53.014Z</time></trkpt><trkpt lat="42.4286435" lon="-8.5997855"><ele>222.0</ele><time>2026-03-28T09:32:54.02Z</time></trkpt><trkpt lat="42.4287213" lon="-8.5998324"><ele>222.0</ele><time>2026-03-28T09:32:55.016Z</time></trkpt><trkpt lat="42.4287978" lon="-8.599885"><ele>222.0</ele><time>2026-03-28T09:32:56.012Z</time></trkpt><trkpt lat="42.4288681" lon="-8.5999193"><ele>222.0</ele><time>2026-03-28T09:32:57.012Z</time></trkpt><trkpt lat="42.4289779" lon="-8.5999676"><ele>221.66666666666666</ele><time>2026-03-28T09:32:59.02Z</time></trkpt><trkpt lat="42.4290539" lon="-8.6000092"><ele>221.33333333333331</ele><time>2026-03-28T09:33:01.022Z</time></trkpt><trkpt lat="42.4291052" lon="-8.6000658"><ele>221.0</ele><time>2026-03-28T09:33:04.01Z</time></trkpt><trkpt lat="42.4291779" lon="-8.6000943"><ele>220.66666666666666</ele><time>2026-03-28T09:33:07.022Z</time></trkpt><trkpt lat="42.4292455" lon="-8.6001463"><ele>220.33333333333331</ele><time>2026-03-28T09:33:09.023Z</time></trkpt><trkpt lat="42.4293389" lon="-8.6002277"><ele>220.0</ele><time>2026-03-28T09:33:11.014Z</time></trkpt><trkpt lat="42.4294596" lon="-8.6002921"><ele>219.99999999999997</ele><time>2026-03-28T09:33:13.018Z</time></trkpt><trkpt lat="42.4295349" lon="-8.6003094"><ele>220.0</ele><time>2026-03-28T09:33:14.016Z</time></trkpt><trkpt lat="42.4296032" lon="-8.6003175"><ele>220.0</ele><time>2026-03-28T09:33:15.015Z</time></trkpt><trkpt lat="42.4296798" lon="-8.6003349"><ele>220.0</ele><time>2026-03-28T09:33:16.011Z</time></trkpt><trkpt lat="42.4297565" lon="-8.6003503"><ele>219.99999999999997</ele><time>2026-03-28T09:33:17.018Z</time></trkpt><trkpt lat="42.4298607" lon="-8.6003611"><ele>220.0</ele><time>2026-03-28T09:33:19.014Z</time></trkpt><trkpt lat="42.4299383" lon="-8.6003726"><ele>220.49999999999997</ele><time>2026-03-28T09:33:21.017Z</time></trkpt><trkpt lat="42.4300351" lon="-8.6003799"><ele>221.0</ele><time>2026-03-28T09:33:24.013Z</time></trkpt><trkpt lat="42.4301064" lon="-8.6003717"><ele>221.5</ele><time>2026-03-28T09:33:26.013Z</time></trkpt><trkpt lat="42.4301765" lon="-8.6003663"><ele>222.0</ele><time>2026-03-28T09:33:28.014Z</time></trkpt><trkpt lat="42.4302501" lon="-8.6003758"><ele>222.49999999999997</ele><time>2026-03-28T09:33:30.01Z</time></trkpt><trkpt lat="42.4303138" lon="-8.6003755"><ele>223.0</ele><time>2026-03-28T09:33:32.015Z</time></trkpt><trkpt lat="42.4303887" lon="-8.6003929"><ele>222.99999999999997</ele><time>2026-03-28T09:33:34.016Z</time></trkpt><trkpt lat="42.4304579" lon="-8.6004171"><ele>223.0</ele><time>2026-03-28T09:33:36.026Z</time></trkpt><trkpt lat="42.430544" lon="-8.6004075"><ele>223.0</ele><time>2026-03-28T09:33:38.014Z</time></trkpt><trkpt lat="42.4306438" lon="-8.6003937"><ele>223.0</ele><time>2026-03-28T09:33:41.018Z</time></trkpt><trkpt lat="42.4307244" lon="-8.6004184"><ele>222.99999999999997</ele><time>2026-03-28T09:33:44.017Z</time></trkpt><trkpt lat="42.430762" lon="-8.6003434"><ele>223.0</ele><time>2026-03-28T09:33:47.021Z</time></trkpt><trkpt lat="42.4308036" lon="-8.6002453"><ele>220.16666666666666</ele><time>2026-03-28T09:33:49.014Z</time></trkpt><trkpt lat="42.4308276" lon="-8.6001403"><ele>217.33333333333331</ele><time>2026-03-28T09:33:51.016Z</time></trkpt><trkpt lat="42.4308166" lon="-8.6000319"><ele>214.5</ele><time>2026-03-28T09:33:53.012Z</time></trkpt><trkpt lat="42.4307862" lon="-8.5999345"><ele>211.66666666666669</ele><time>2026-03-28T09:33:55.012Z</time></trkpt><trkpt lat="42.4307897" lon="-8.5998391"><ele>208.83333333333334</ele><time>2026-03-28T09:33:58.014Z</time></trkpt><trkpt lat="42.4308025" lon="-8.5997307"><ele>206.0</ele><time>2026-03-28T09:34:02.016Z</time></trkpt><trkpt lat="42.4307461" lon="-8.5996527"><ele>206.00000000000003</ele><time>2026-03-28T09:34:05.018Z</time></trkpt><trkpt lat="42.4306861" lon="-8.5996003"><ele>206.0</ele><time>2026-03-28T09:34:07.012Z</time></trkpt><trkpt lat="42.4306134" lon="-8.5995618"><ele>206.0</ele><time>2026-03-28T09:34:09.018Z</time></trkpt><trkpt lat="42.4305415" lon="-8.5995033"><ele>206.0</ele><time>2026-03-28T09:34:11.012Z</time></trkpt><trkpt lat="42.4304862" lon="-8.5993859"><ele>206.00000000000003</ele><time>2026-03-28T09:34:13.013Z</time></trkpt><trkpt lat="42.4304406" lon="-8.5992936"><ele>206.0</ele><time>2026-03-28T09:34:14.015Z</time></trkpt><trkpt lat="42.4304055" lon="-8.5991997"><ele>206.20000000000002</ele><time>2026-03-28T09:34:15.008Z</time></trkpt><trkpt lat="42.4303858" lon="-8.5991084"><ele>206.4</ele><time>2026-03-28T09:34:16.017Z</time></trkpt><trkpt lat="42.4303742" lon="-8.5990129"><ele>206.6</ele><time>2026-03-28T09:34:17.019Z</time></trkpt><trkpt lat="42.430368" lon="-8.5988489"><ele>206.8</ele><time>2026-03-28T09:34:19.011Z</time></trkpt><trkpt lat="42.430406" lon="-8.5986844"><ele>207.0</ele><time>2026-03-28T09:34:21.028Z</time></trkpt><trkpt lat="42.4304337" lon="-8.5986064"><ele>203.39999999999998</ele><time>2026-03-28T09:34:22.009Z</time></trkpt><trkpt lat="42.4305087" lon="-8.5984708"><ele>199.79999999999998</ele><time>2026-03-28T09:34:24.012Z</time></trkpt><trkpt lat="42.4305568" lon="-8.5983477"><ele>196.2</ele><time>2026-03-28T09:34:26.03Z</time></trkpt><trkpt lat="42.4306397" lon="-8.5982304"><ele>192.6</ele><time>2026-03-28T09:34:28.016Z</time></trkpt><trkpt lat="42.4307085" lon="-8.5981576"><ele>189.0</ele><time>2026-03-28T09:34:30.012Z</time></trkpt><trkpt lat="42.4307895" lon="-8.5981314"><ele>189.0</ele><time>2026-03-28T09:34:33.014Z</time></trkpt><trkpt lat="42.4308367" lon="-8.5982048"><ele>189.0</ele><time>2026-03-28T09:34:35.016Z</time></trkpt><trkpt lat="42.4309116" lon="-8.598258"><ele>189.0</ele><time>2026-03-28T09:34:38.017Z</time></trkpt><trkpt lat="42.4309974" lon="-8.5983135"><ele>189.0</ele><time>2026-03-28T09:34:40.013Z</time></trkpt><trkpt lat="42.4310954" lon="-8.5983649"><ele>189.0</ele><time>2026-03-28T09:34:42.011Z</time></trkpt><trkpt lat="42.4311544" lon="-8.5983027"><ele>189.0</ele><time>2026-03-28T09:34:44.02Z</time></trkpt><trkpt lat="42.4312154" lon="-8.5982333"><ele>189.0</ele><time>2026-03-28T09:34:46.013Z</time></trkpt><trkpt lat="42.4312771" lon="-8.5981897"><ele>189.0</ele><time>2026-03-28T09:34:48.022Z</time></trkpt><trkpt lat="42.431318" lon="-8.5981088"><ele>189.0</ele><time>2026-03-28T09:34:54.019Z</time></trkpt><trkpt lat="42.4313518" lon="-8.5980316"><ele>189.0</ele><time>2026-03-28T09:34:56.012Z</time></trkpt><trkpt lat="42.431326" lon="-8.5979332"><ele>189.0</ele><time>2026-03-28T09:34:57.012Z</time></trkpt><trkpt lat="42.4312721" lon="-8.5978177"><ele>189.0</ele><time>2026-03-28T09:34:59.022Z</time></trkpt><trkpt lat="42.4312776" lon="-8.5976859"><ele>186.39999999999998</ele><time>2026-03-28T09:35:01.021Z</time></trkpt><trkpt lat="42.4313274" lon="-8.5975458"><ele>183.8</ele><time>2026-03-28T09:35:03.011Z</time></trkpt><trkpt lat="42.4313975" lon="-8.5974276"><ele>181.2</ele><time>2026-03-28T09:35:05.011Z</time></trkpt><trkpt lat="42.4314429" lon="-8.5973532"><ele>178.60000000000002</ele><time>2026-03-28T09:35:06.017Z</time></trkpt><trkpt lat="42.4315102" lon="-8.5972635"><ele>176.0</ele><time>2026-03-28T09:35:08.014Z</time></trkpt><trkpt lat="42.4315638" lon="-8.5971391"><ele>176.0</ele><time>2026-03-28T09:35:10.01Z</time></trkpt><trkpt lat="42.4316143" lon="-8.5970158"><ele>176.0</ele><time>2026-03-28T09:35:12.025Z</time></trkpt><trkpt lat="42.4316543" lon="-8.5969488"><ele>176.0</ele><time>2026-03-28T09:35:13.009Z</time></trkpt><trkpt lat="42.4316965" lon="-8.5968847"><ele>176.0</ele><time>2026-03-28T09:35:14.022Z</time></trkpt><trkpt lat="42.4317527" lon="-8.5967537"><ele>176.0</ele><time>2026-03-28T09:35:16.018Z</time></trkpt><trkpt lat="42.4317974" lon="-8.5966487"><ele>176.0</ele><time>2026-03-28T09:35:18.012Z</time></trkpt><trkpt lat="42.431739" lon="-8.5966002"><ele>173.83333333333331</ele><time>2026-03-28T09:35:28.017Z</time></trkpt><trkpt lat="42.4316915" lon="-8.596544"><ele>171.66666666666666</ele><time>2026-03-28T09:35:31.013Z</time></trkpt><trkpt lat="42.4316445" lon="-8.5964787"><ele>169.5</ele><time>2026-03-28T09:35:33.012Z</time></trkpt><trkpt lat="42.4315921" lon="-8.5964197"><ele>167.33333333333334</ele><time>2026-03-28T09:35:35.011Z</time></trkpt><trkpt lat="42.4315216" lon="-8.5963426"><ele>165.16666666666669</ele><time>2026-03-28T09:35:37.022Z</time></trkpt><trkpt lat="42.431443" lon="-8.5962762"><ele>163.0</ele><time>2026-03-28T09:35:39.016Z</time></trkpt><trkpt lat="42.4313748" lon="-8.5962231"><ele>163.33333333333334</ele><time>2026-03-28T09:35:42.012Z</time></trkpt><trkpt lat="42.4312757" lon="-8.5961708"><ele>163.66666666666669</ele><time>2026-03-28T09:35:44.02Z</time></trkpt><trkpt lat="42.431188" lon="-8.5960972"><ele>164.0</ele><time>2026-03-28T09:35:46.011Z</time></trkpt><trkpt lat="42.4311212" lon="-8.5960431"><ele>164.33333333333334</ele><time>2026-03-28T09:35:48.013Z</time></trkpt><trkpt lat="42.4310544" lon="-8.5960355"><ele>164.66666666666666</ele><time>2026-03-28T09:35:50.013Z</time></trkpt><trkpt lat="42.4310185" lon="-8.5961133"><ele>165.0</ele><time>2026-03-28T09:35:52.022Z</time></trkpt><trkpt lat="42.4309713" lon="-8.5962012"><ele>165.0</ele><time>2026-03-28T09:35:54.021Z</time></trkpt><trkpt lat="42.4309037" lon="-8.5962394"><ele>165.0</ele><time>2026-03-28T09:35:56.012Z</time></trkpt><trkpt lat="42.4308199" lon="-8.5962417"><ele>165.0</ele><time>2026-03-28T09:35:58.018Z</time></trkpt><trkpt lat="42.4307418" lon="-8.5961866"><ele>165.0</ele><time>2026-03-28T09:36:00.012Z</time></trkpt><trkpt lat="42.4307136" lon="-8.5961047"><ele>165.0</ele><time>2026-03-28T09:36:01.019Z</time></trkpt><trkpt lat="42.4306723" lon="-8.5960134"><ele>165.0</ele><time>2026-03-28T09:36:02.009Z</time></trkpt><trkpt lat="42.4306257" lon="-8.5959192"><ele>164.4</ele><time>2026-03-28T09:36:03.011Z</time></trkpt><trkpt lat="42.4305695" lon="-8.5958226"><ele>163.8</ele><time>2026-03-28T09:36:04.022Z</time></trkpt><trkpt lat="42.4305168" lon="-8.5957286"><ele>163.2</ele><time>2026-03-28T09:36:05.009Z</time></trkpt><trkpt lat="42.4304621" lon="-8.5956346"><ele>162.6</ele><time>2026-03-28T09:36:06.01Z</time></trkpt><trkpt lat="42.4304045" lon="-8.5955289"><ele>162.0</ele><time>2026-03-28T09:36:07.008Z</time></trkpt><trkpt lat="42.4303476" lon="-8.5954224"><ele>159.2</ele><time>2026-03-28T09:36:08.008Z</time></trkpt><trkpt lat="42.430285" lon="-8.5953235"><ele>156.39999999999998</ele><time>2026-03-28T09:36:09.017Z</time></trkpt><trkpt lat="42.4302184" lon="-8.5952326"><ele>153.60000000000002</ele><time>2026-03-28T09:36:10.005Z</time></trkpt><trkpt lat="42.4301512" lon="-8.5951504"><ele>150.8</ele><time>2026-03-28T09:36:11.018Z</time></trkpt><trkpt lat="42.4300787" lon="-8.5950873"><ele>148.0</ele><time>2026-03-28T09:36:12.019Z</time></trkpt><trkpt lat="42.4299956" lon="-8.59502"><ele>148.0</ele><time>2026-03-28T09:36:13.015Z</time></trkpt><trkpt lat="42.4299191" lon="-8.5949603"><ele>148.0</ele><time>2026-03-28T09:36:14.016Z</time></trkpt><trkpt lat="42.4298574" lon="-8.5949047"><ele>148.0</ele><time>2026-03-28T09:36:15.022Z</time></trkpt><trkpt lat="42.4297983" lon="-8.5948409"><ele>148.0</ele><time>2026-03-28T09:36:17.009Z</time></trkpt><trkpt lat="42.4297647" lon="-8.5947572"><ele>148.0</ele><time>2026-03-28T09:36:19.01Z</time></trkpt><trkpt lat="42.4297612" lon="-8.5946712"><ele>148.0</ele><time>2026-03-28T09:36:20.008Z</time></trkpt><trkpt lat="42.4297548" lon="-8.5945129"><ele>145.6</ele><time>2026-03-28T09:36:22.011Z</time></trkpt><trkpt lat="42.4297487" lon="-8.5943698"><ele>143.20000000000002</ele><time>2026-03-28T09:36:24.012Z</time></trkpt><trkpt lat="42.4297714" lon="-8.5942335"><ele>140.8</ele><time>2026-03-28T09:36:26.017Z</time></trkpt><trkpt lat="42.4298116" lon="-8.5941005"><ele>138.4</ele><time>2026-03-28T09:36:28.015Z</time></trkpt><trkpt lat="42.4298436" lon="-8.5939896"><ele>136.0</ele><time>2026-03-28T09:36:30.013Z</time></trkpt><trkpt lat="42.4297818" lon="-8.5938811"><ele>136.0</ele><time>2026-03-28T09:36:33.012Z</time></trkpt><trkpt lat="42.4296793" lon="-8.5938081"><ele>136.0</ele><time>2026-03-28T09:36:35.009Z</time></trkpt><trkpt lat="42.4296195" lon="-8.5937706"><ele>136.0</ele><time>2026-03-28T09:36:36.014Z</time></trkpt><trkpt lat="42.4295615" lon="-8.5937323"><ele>136.0</ele><time>2026-03-28T09:36:37.015Z</time></trkpt><trkpt lat="42.4294725" lon="-8.5936888"><ele>136.0</ele><time>2026-03-28T09:36:39.011Z</time></trkpt><trkpt lat="42.4293991" lon="-8.5936572"><ele>136.0</ele><time>2026-03-28T09:36:41.011Z</time></trkpt><trkpt lat="42.4293355" lon="-8.5936163"><ele>131.8</ele><time>2026-03-28T09:36:43.013Z</time></trkpt><trkpt lat="42.429251" lon="-8.5935603"><ele>127.6</ele><time>2026-03-28T09:36:45.017Z</time></trkpt><trkpt lat="42.4291553" lon="-8.5934802"><ele>123.4</ele><time>2026-03-28T09:36:47.014Z</time></trkpt><trkpt lat="42.4290889" lon="-8.5934249"><ele>119.2</ele><time>2026-03-28T09:36:48.01Z</time></trkpt><trkpt lat="42.4290136" lon="-8.5933715"><ele>115.0</ele><time>2026-03-28T09:36:49.015Z</time></trkpt><trkpt lat="42.4289349" lon="-8.5933097"><ele>115.00000000000001</ele><time>2026-03-28T09:36:50.015Z</time></trkpt><trkpt lat="42.4288561" lon="-8.5932435"><ele>115.0</ele><time>2026-03-28T09:36:51.011Z</time></trkpt><trkpt lat="42.428778" lon="-8.5931723"><ele>115.0</ele><time>2026-03-28T09:36:52.007Z</time></trkpt><trkpt lat="42.4286966" lon="-8.5931058"><ele>115.0</ele><time>2026-03-28T09:36:53.014Z</time></trkpt><trkpt lat="42.4286256" lon="-8.5930512"><ele>115.00000000000001</ele><time>2026-03-28T09:36:54.012Z</time></trkpt><trkpt lat="42.4285584" lon="-8.5930058"><ele>115.0</ele><time>2026-03-28T09:36:55.02Z</time></trkpt><trkpt lat="42.4284995" lon="-8.5929651"><ele>115.00000000000001</ele><time>2026-03-28T09:36:56.012Z</time></trkpt><trkpt lat="42.4284411" lon="-8.5929289"><ele>115.0</ele><time>2026-03-28T09:36:57.014Z</time></trkpt><trkpt lat="42.4283541" lon="-8.5928712"><ele>115.0</ele><time>2026-03-28T09:36:59.017Z</time></trkpt><trkpt lat="42.4282783" lon="-8.5927963"><ele>115.0</ele><time>2026-03-28T09:37:17.025Z</time></trkpt><trkpt lat="42.4281972" lon="-8.5927724"><ele>115.00000000000001</ele><time>2026-03-28T09:37:19.015Z</time></trkpt><trkpt lat="42.4281923" lon="-8.5926575"><ele>115.0</ele><time>2026-03-28T09:37:40.023Z</time></trkpt><trkpt lat="42.4281527" lon="-8.592538"><ele>113.83333333333334</ele><time>2026-03-28T09:37:42.01Z</time></trkpt><trkpt lat="42.4281105" lon="-8.5923929"><ele>112.66666666666667</ele><time>2026-03-28T09:37:44.01Z</time></trkpt><trkpt lat="42.4280769" lon="-8.5922734"><ele>111.5</ele><time>2026-03-28T09:37:46.013Z</time></trkpt><trkpt lat="42.4280487" lon="-8.5921685"><ele>110.33333333333334</ele><time>2026-03-28T09:37:48.022Z</time></trkpt><trkpt lat="42.4280065" lon="-8.5920836"><ele>109.16666666666667</ele><time>2026-03-28T09:37:50.011Z</time></trkpt><trkpt lat="42.4279565" lon="-8.5919981"><ele>108.0</ele><time>2026-03-28T09:37:52.011Z</time></trkpt><trkpt lat="42.4279104" lon="-8.5919132"><ele>108.0</ele><time>2026-03-28T09:37:54.016Z</time></trkpt><trkpt lat="42.4278555" lon="-8.5918548"><ele>108.0</ele><time>2026-03-28T09:37:56.012Z</time></trkpt><trkpt lat="42.4277649" lon="-8.5918639"><ele>108.0</ele><time>2026-03-28T09:37:58.008Z</time></trkpt><trkpt lat="42.4276896" lon="-8.5918756"><ele>108.0</ele><time>2026-03-28T09:38:00.014Z</time></trkpt><trkpt lat="42.4276019" lon="-8.5918595"><ele>108.0</ele><time>2026-03-28T09:38:03.015Z</time></trkpt><trkpt lat="42.4275782" lon="-8.5917646"><ele>108.0</ele><time>2026-03-28T09:38:08.014Z</time></trkpt><trkpt lat="42.4275874" lon="-8.5916712"><ele>108.0</ele><time>2026-03-28T09:38:10.023Z</time></trkpt><trkpt lat="42.4276126" lon="-8.5914997"><ele>108.0</ele><time>2026-03-28T09:38:12.015Z</time></trkpt><trkpt lat="42.4276146" lon="-8.5914116"><ele>108.0</ele><time>2026-03-28T09:38:13.008Z</time></trkpt><trkpt lat="42.4276155" lon="-8.5912836"><ele>108.0</ele><time>2026-03-28T09:38:15.015Z</time></trkpt><trkpt lat="42.4276288" lon="-8.5911959"><ele>108.0</ele><time>2026-03-28T09:38:37.018Z</time></trkpt><trkpt lat="42.4276583" lon="-8.5910876"><ele>108.0</ele><time>2026-03-28T09:38:53.017Z</time></trkpt><trkpt lat="42.4277105" lon="-8.5909996"><ele>106.66666666666667</ele><time>2026-03-28T09:38:55.01Z</time></trkpt><trkpt lat="42.4277594" lon="-8.5908876"><ele>105.33333333333334</ele><time>2026-03-28T09:38:57.015Z</time></trkpt><trkpt lat="42.4278281" lon="-8.5907465"><ele>104.0</ele><time>2026-03-28T09:38:59.016Z</time></trkpt><trkpt lat="42.4278738" lon="-8.5906866"><ele>102.66666666666667</ele><time>2026-03-28T09:39:00.012Z</time></trkpt><trkpt lat="42.4279266" lon="-8.5906308"><ele>101.33333333333334</ele><time>2026-03-28T09:39:01.011Z</time></trkpt><trkpt lat="42.4279877" lon="-8.5905688"><ele>100.0</ele><time>2026-03-28T09:39:02.006Z</time></trkpt><trkpt lat="42.4280564" lon="-8.5905018"><ele>100.00000000000001</ele><time>2026-03-28T09:39:03.008Z</time></trkpt><trkpt lat="42.4281233" lon="-8.5904249"><ele>100.0</ele><time>2026-03-28T09:39:04.012Z</time></trkpt><trkpt lat="42.4281862" lon="-8.5903478"><ele>100.0</ele><time>2026-03-28T09:39:05.014Z</time></trkpt><trkpt lat="42.4282476" lon="-8.5902624"><ele>100.0</ele><time>2026-03-28T09:39:06.016Z</time></trkpt><trkpt lat="42.4283135" lon="-8.590176"><ele>100.00000000000001</ele><time>2026-03-28T09:39:07.028Z</time></trkpt><trkpt lat="42.428379" lon="-8.5900908"><ele>100.0</ele><time>2026-03-28T09:39:08.022Z</time></trkpt><trkpt lat="42.4284477" lon="-8.590015"><ele>99.66666666666667</ele><time>2026-03-28T09:39:09.011Z</time></trkpt><trkpt lat="42.4285182" lon="-8.5899434"><ele>99.33333333333334</ele><time>2026-03-28T09:39:10.017Z</time></trkpt><trkpt lat="42.4285878" lon="-8.5898661"><ele>99.0</ele><time>2026-03-28T09:39:11.009Z</time></trkpt><trkpt lat="42.4286583" lon="-8.5898028"><ele>98.66666666666666</ele><time>2026-03-28T09:39:12.012Z</time></trkpt><trkpt lat="42.428734" lon="-8.5897527"><ele>98.33333333333333</ele><time>2026-03-28T09:39:13.012Z</time></trkpt><trkpt lat="42.4288123" lon="-8.589708"><ele>98.0</ele><time>2026-03-28T09:39:14.01Z</time></trkpt><trkpt lat="42.4288831" lon="-8.589635"><ele>98.0</ele><time>2026-03-28T09:39:15.01Z</time></trkpt><trkpt lat="42.428955" lon="-8.5895612"><ele>98.0</ele><time>2026-03-28T09:39:16.008Z</time></trkpt><trkpt lat="42.4290309" lon="-8.5894749"><ele>98.0</ele><time>2026-03-28T09:39:17.015Z</time></trkpt><trkpt lat="42.4290984" lon="-8.5893833"><ele>98.0</ele><time>2026-03-28T09:39:18.019Z</time></trkpt><trkpt lat="42.4291626" lon="-8.5892989"><ele>98.0</ele><time>2026-03-28T09:39:19.016Z</time></trkpt><trkpt lat="42.4292323" lon="-8.5892152"><ele>99.71428571428571</ele><time>2026-03-28T09:39:20.013Z</time></trkpt><trkpt lat="42.429286" lon="-8.5891449"><ele>101.42857142857143</ele><time>2026-03-28T09:39:21.017Z</time></trkpt><trkpt lat="42.4293418" lon="-8.5890833"><ele>103.14285714285714</ele><time>2026-03-28T09:39:22.015Z</time></trkpt><trkpt lat="42.4294053" lon="-8.5890165"><ele>104.85714285714286</ele><time>2026-03-28T09:39:23.016Z</time></trkpt><trkpt lat="42.4294577" lon="-8.5889532"><ele>106.57142857142857</ele><time>2026-03-28T09:39:24.012Z</time></trkpt><trkpt lat="42.4295174" lon="-8.5888797"><ele>108.28571428571428</ele><time>2026-03-28T09:39:27.01Z</time></trkpt><trkpt lat="42.4295848" lon="-8.5888764"><ele>110.0</ele><time>2026-03-28T09:39:35.013Z</time></trkpt><trkpt lat="42.4296403" lon="-8.5888161"><ele>109.99999999999999</ele><time>2026-03-28T09:39:52.015Z</time></trkpt><trkpt lat="42.4296896" lon="-8.5887554"><ele>110.0</ele><time>2026-03-28T09:40:01.005Z</time></trkpt><trkpt lat="42.429658" lon="-8.5886613"><ele>110.0</ele><time>2026-03-28T09:40:04.012Z</time></trkpt><trkpt lat="42.4296006" lon="-8.5885902"><ele>110.0</ele><time>2026-03-28T09:40:07.009Z</time></trkpt><trkpt lat="42.4295771" lon="-8.5885049"><ele>109.99999999999999</ele><time>2026-03-28T09:40:09.017Z</time></trkpt><trkpt lat="42.429532" lon="-8.5884161"><ele>110.0</ele><time>2026-03-28T09:40:13.017Z</time></trkpt><trkpt lat="42.4294851" lon="-8.5883188"><ele>112.99999999999999</ele><time>2026-03-28T09:40:16.011Z</time></trkpt><trkpt lat="42.4294501" lon="-8.5882188"><ele>116.0</ele><time>2026-03-28T09:40:18.007Z</time></trkpt><trkpt lat="42.4294163" lon="-8.5881323"><ele>119.0</ele><time>2026-03-28T09:40:20.007Z</time></trkpt><trkpt lat="42.4293732" lon="-8.588054"><ele>122.0</ele><time>2026-03-28T09:40:22.011Z</time></trkpt><trkpt lat="42.4293208" lon="-8.5879554"><ele>124.99999999999999</ele><time>2026-03-28T09:40:24.016Z</time></trkpt><trkpt lat="42.4292523" lon="-8.5878093"><ele>128.0</ele><time>2026-03-28T09:40:26.013Z</time></trkpt><trkpt lat="42.4292056" lon="-8.5877331"><ele>130.33333333333331</ele><time>2026-03-28T09:40:28.01Z</time></trkpt><trkpt lat="42.4292037" lon="-8.5876359"><ele>132.66666666666666</ele><time>2026-03-28T09:40:41.023Z</time></trkpt><trkpt lat="42.4291728" lon="-8.5875547"><ele>135.0</ele><time>2026-03-28T09:40:57.011Z</time></trkpt><trkpt lat="42.4292445" lon="-8.5875397"><ele>137.33333333333334</ele><time>2026-03-28T09:41:00.018Z</time></trkpt><trkpt lat="42.4293321" lon="-8.5875239"><ele>139.66666666666669</ele><time>2026-03-28T09:41:02.008Z</time></trkpt><trkpt lat="42.429428" lon="-8.5874922"><ele>142.0</ele><time>2026-03-28T09:41:04.014Z</time></trkpt><trkpt lat="42.4294941" lon="-8.5874748"><ele>142.0</ele><time>2026-03-28T09:41:05.011Z</time></trkpt><trkpt lat="42.4295603" lon="-8.5874489"><ele>142.0</ele><time>2026-03-28T09:41:06.014Z</time></trkpt><trkpt lat="42.4296338" lon="-8.5874198"><ele>142.0</ele><time>2026-03-28T09:41:08.018Z</time></trkpt><trkpt lat="42.4297039" lon="-8.5873862"><ele>142.0</ele><time>2026-03-28T09:41:09.009Z</time></trkpt><trkpt lat="42.4297771" lon="-8.5873087"><ele>142.0</ele><time>2026-03-28T09:41:10.011Z</time></trkpt><trkpt lat="42.4298332" lon="-8.5872391"><ele>142.0</ele><time>2026-03-28T09:41:11.006Z</time></trkpt><trkpt lat="42.4298821" lon="-8.5871707"><ele>139.0</ele><time>2026-03-28T09:41:12.011Z</time></trkpt><trkpt lat="42.4299217" lon="-8.5871022"><ele>136.0</ele><time>2026-03-28T09:41:13.021Z</time></trkpt><trkpt lat="42.4299715" lon="-8.5869443"><ele>133.0</ele><time>2026-03-28T09:41:15.011Z</time></trkpt><trkpt lat="42.4299888" lon="-8.5868606"><ele>130.0</ele><time>2026-03-28T09:41:16.011Z</time></trkpt><trkpt lat="42.4300277" lon="-8.5867009"><ele>127.0</ele><time>2026-03-28T09:41:18.01Z</time></trkpt><trkpt lat="42.4300445" lon="-8.5865767"><ele>126.83333333333334</ele><time>2026-03-28T09:41:20.013Z</time></trkpt><trkpt lat="42.4300097" lon="-8.586474"><ele>126.66666666666667</ele><time>2026-03-28T09:41:22.012Z</time></trkpt><trkpt lat="42.4299344" lon="-8.5864403"><ele>126.5</ele><time>2026-03-28T09:41:26.015Z</time></trkpt><trkpt lat="42.4298613" lon="-8.5864098"><ele>126.33333333333334</ele><time>2026-03-28T09:41:35.01Z</time></trkpt><trkpt lat="42.4297726" lon="-8.5864409"><ele>126.16666666666667</ele><time>2026-03-28T09:41:38.01Z</time></trkpt><trkpt lat="42.4297003" lon="-8.5864061"><ele>126.0</ele><time>2026-03-28T09:41:42.025Z</time></trkpt><trkpt lat="42.4296667" lon="-8.5863296"><ele>125.33333333333333</ele><time>2026-03-28T09:41:46.01Z</time></trkpt><trkpt lat="42.4296252" lon="-8.5862521"><ele>124.66666666666666</ele><time>2026-03-28T09:41:50.01Z</time></trkpt><trkpt lat="42.4295594" lon="-8.5861959"><ele>124.0</ele><time>2026-03-28T09:41:53.014Z</time></trkpt><trkpt lat="42.4294914" lon="-8.5861546"><ele>123.33333333333333</ele><time>2026-03-28T09:41:55.008Z</time></trkpt><trkpt lat="42.4294355" lon="-8.5860568"><ele>122.66666666666666</ele><time>2026-03-28T09:41:57.011Z</time></trkpt><trkpt lat="42.4293751" lon="-8.5859561"><ele>122.0</ele><time>2026-03-28T09:41:59.012Z</time></trkpt><trkpt lat="42.4293177" lon="-8.5858806"><ele>121.99999999999999</ele><time>2026-03-28T09:42:01.018Z</time></trkpt><trkpt lat="42.4292677" lon="-8.5857866"><ele>122.0</ele><time>2026-03-28T09:42:08.014Z</time></trkpt><trkpt lat="42.4292283" lon="-8.58568"><ele>122.0</ele><time>2026-03-28T09:42:12.006Z</time></trkpt><trkpt lat="42.4292444" lon="-8.58558"><ele>122.0</ele><time>2026-03-28T09:42:15.012Z</time></trkpt><trkpt lat="42.429283" lon="-8.5854846"><ele>121.99999999999999</ele><time>2026-03-28T09:42:19.008Z</time></trkpt><trkpt lat="42.4293297" lon="-8.5853615"><ele>122.0</ele><time>2026-03-28T09:42:22.011Z</time></trkpt><trkpt lat="42.4293618" lon="-8.5852576"><ele>119.83333333333333</ele><time>2026-03-28T09:42:24.009Z</time></trkpt><trkpt lat="42.4293746" lon="-8.5851547"><ele>117.66666666666666</ele><time>2026-03-28T09:42:26.01Z</time></trkpt><trkpt lat="42.4294005" lon="-8.5850596"><ele>115.5</ele><time>2026-03-28T09:42:28.015Z</time></trkpt><trkpt lat="42.4294096" lon="-8.5849501"><ele>113.33333333333334</ele><time>2026-03-28T09:42:31.004Z</time></trkpt><trkpt lat="42.4294465" lon="-8.5848372"><ele>111.16666666666667</ele><time>2026-03-28T09:42:34.012Z</time></trkpt><trkpt lat="42.4294947" lon="-8.5847538"><ele>109.0</ele><time>2026-03-28T09:42:37.01Z</time></trkpt><trkpt lat="42.4295331" lon="-8.5846539"><ele>109.00000000000001</ele><time>2026-03-28T09:42:40.015Z</time></trkpt><trkpt lat="42.4295359" lon="-8.584567"><ele>109.0</ele><time>2026-03-28T09:42:42.008Z</time></trkpt><trkpt lat="42.4295584" lon="-8.584462"><ele>109.0</ele><time>2026-03-28T09:42:44.02Z</time></trkpt><trkpt lat="42.4295605" lon="-8.5843626"><ele>109.0</ele><time>2026-03-28T09:42:46.008Z</time></trkpt><trkpt lat="42.429557" lon="-8.5842302"><ele>109.00000000000001</ele><time>2026-03-28T09:42:48.011Z</time></trkpt><trkpt lat="42.4295486" lon="-8.5841037"><ele>109.0</ele><time>2026-03-28T09:42:50.01Z</time></trkpt><trkpt lat="42.4295571" lon="-8.5839696"><ele>107.66666666666667</ele><time>2026-03-28T09:42:52.024Z</time></trkpt><trkpt lat="42.4295453" lon="-8.5838765"><ele>106.33333333333334</ele><time>2026-03-28T09:42:54.015Z</time></trkpt><trkpt lat="42.4294267" lon="-8.5838085"><ele>105.0</ele><time>2026-03-28T09:42:56.023Z</time></trkpt><trkpt lat="42.4293548" lon="-8.5837734"><ele>103.66666666666666</ele><time>2026-03-28T09:42:57.008Z</time></trkpt><trkpt lat="42.4292811" lon="-8.583733"><ele>102.33333333333333</ele><time>2026-03-28T09:42:58.015Z</time></trkpt><trkpt lat="42.4292155" lon="-8.5836894"><ele>101.0</ele><time>2026-03-28T09:42:59.021Z</time></trkpt><trkpt lat="42.4291568" lon="-8.583642"><ele>100.8</ele><time>2026-03-28T09:43:00.011Z</time></trkpt><trkpt lat="42.4290617" lon="-8.5835799"><ele>100.6</ele><time>2026-03-28T09:43:02.02Z</time></trkpt><trkpt lat="42.4289421" lon="-8.5835282"><ele>100.4</ele><time>2026-03-28T09:43:04.007Z</time></trkpt><trkpt lat="42.4288769" lon="-8.5834976"><ele>100.2</ele><time>2026-03-28T09:43:05.014Z</time></trkpt><trkpt lat="42.4288169" lon="-8.5834708"><ele>100.0</ele><time>2026-03-28T09:43:06.016Z</time></trkpt><trkpt lat="42.4286959" lon="-8.583419"><ele>103.4</ele><time>2026-03-28T09:43:08.011Z</time></trkpt><trkpt lat="42.4285769" lon="-8.583406"><ele>106.8</ele><time>2026-03-28T09:43:10.008Z</time></trkpt><trkpt lat="42.4284632" lon="-8.5834033"><ele>110.19999999999999</ele><time>2026-03-28T09:43:12.02Z</time></trkpt><trkpt lat="42.4283371" lon="-8.5833705"><ele>113.6</ele><time>2026-03-28T09:43:14.009Z</time></trkpt><trkpt lat="42.4282748" lon="-8.5833398"><ele>117.0</ele><time>2026-03-28T09:43:15.011Z</time></trkpt><trkpt lat="42.4282118" lon="-8.5833023"><ele>117.0</ele><time>2026-03-28T09:43:16.008Z</time></trkpt><trkpt lat="42.4281453" lon="-8.583257"><ele>117.0</ele><time>2026-03-28T09:43:17.009Z</time></trkpt><trkpt lat="42.4280827" lon="-8.5832196"><ele>117.0</ele><time>2026-03-28T09:43:18.007Z</time></trkpt><trkpt lat="42.4280158" lon="-8.5831922"><ele>117.0</ele><time>2026-03-28T09:43:19.008Z</time></trkpt><trkpt lat="42.4278999" lon="-8.5831289"><ele>117.0</ele><time>2026-03-28T09:43:21.01Z</time></trkpt><trkpt lat="42.4278307" lon="-8.5830981"><ele>117.0</ele><time>2026-03-28T09:43:22.018Z</time></trkpt><trkpt lat="42.4277509" lon="-8.5830742"><ele>118.19999999999999</ele><time>2026-03-28T09:43:23.019Z</time></trkpt><trkpt lat="42.4276651" lon="-8.5830493"><ele>119.39999999999999</ele><time>2026-03-28T09:43:24.011Z</time></trkpt><trkpt lat="42.4275916" lon="-8.5830153"><ele>120.60000000000001</ele><time>2026-03-28T09:43:25.018Z</time></trkpt><trkpt lat="42.4274849" lon="-8.5829773"><ele>121.80000000000001</ele><time>2026-03-28T09:43:27.003Z</time></trkpt><trkpt lat="42.4274083" lon="-8.5829879"><ele>123.0</ele><time>2026-03-28T09:43:45.017Z</time></trkpt><trkpt lat="42.4273107" lon="-8.5829852"><ele>123.0</ele><time>2026-03-28T09:43:48.006Z</time></trkpt><trkpt lat="42.4272318" lon="-8.582948"><ele>123.0</ele><time>2026-03-28T09:43:50.019Z</time></trkpt><trkpt lat="42.427171" lon="-8.582913"><ele>123.0</ele><time>2026-03-28T09:43:52.012Z</time></trkpt><trkpt lat="42.4271002" lon="-8.5828915"><ele>123.0</ele><time>2026-03-28T09:43:54.009Z</time></trkpt><trkpt lat="42.4270159" lon="-8.582861"><ele>123.0</ele><time>2026-03-28T09:43:56.016Z</time></trkpt><trkpt lat="42.4269202" lon="-8.5828441"><ele>123.0</ele><time>2026-03-28T09:43:58.009Z</time></trkpt><trkpt lat="42.4268456" lon="-8.582838"><ele>119.0</ele><time>2026-03-28T09:44:00.014Z</time></trkpt><trkpt lat="42.4267658" lon="-8.5828333"><ele>115.0</ele><time>2026-03-28T09:44:02.006Z</time></trkpt><trkpt lat="42.4266878" lon="-8.5828177"><ele>111.0</ele><time>2026-03-28T09:44:04.026Z</time></trkpt><trkpt lat="42.426612" lon="-8.5827897"><ele>107.0</ele><time>2026-03-28T09:44:06.01Z</time></trkpt><trkpt lat="42.4265387" lon="-8.5827512"><ele>103.0</ele><time>2026-03-28T09:44:08.019Z</time></trkpt><trkpt lat="42.4264518" lon="-8.5827471"><ele>99.0</ele><time>2026-03-28T09:44:11.009Z</time></trkpt><trkpt lat="42.4263739" lon="-8.582751"><ele>98.83333333333333</ele><time>2026-03-28T09:44:14.01Z</time></trkpt><trkpt lat="42.4263001" lon="-8.5827348"><ele>98.66666666666666</ele><time>2026-03-28T09:44:18.006Z</time></trkpt><trkpt lat="42.426217" lon="-8.5827366"><ele>98.5</ele><time>2026-03-28T09:44:22.004Z</time></trkpt><trkpt lat="42.4261535" lon="-8.582723"><ele>98.33333333333333</ele><time>2026-03-28T09:44:27.009Z</time></trkpt><trkpt lat="42.4260846" lon="-8.5827214"><ele>98.16666666666666</ele><time>2026-03-28T09:44:34.01Z</time></trkpt><trkpt lat="42.4260048" lon="-8.5827089"><ele>98.0</ele><time>2026-03-28T09:44:36.017Z</time></trkpt><trkpt lat="42.4258866" lon="-8.5826894"><ele>97.99999999999999</ele><time>2026-03-28T09:44:38.008Z</time></trkpt><trkpt lat="42.4258161" lon="-8.582629"><ele>98.0</ele><time>2026-03-28T09:44:39.007Z</time></trkpt><trkpt lat="42.4257474" lon="-8.5825838"><ele>98.0</ele><time>2026-03-28T09:44:40.01Z</time></trkpt><trkpt lat="42.4256895" lon="-8.5825173"><ele>98.0</ele><time>2026-03-28T09:44:41.021Z</time></trkpt><trkpt lat="42.4256082" lon="-8.5824604"><ele>97.99999999999999</ele><time>2026-03-28T09:44:43.009Z</time></trkpt><trkpt lat="42.4255367" lon="-8.5824394"><ele>98.0</ele><time>2026-03-28T09:44:44.004Z</time></trkpt><trkpt lat="42.4254443" lon="-8.5823771"><ele>101.16666666666666</ele><time>2026-03-28T09:44:46.01Z</time></trkpt><trkpt lat="42.4253461" lon="-8.5823372"><ele>104.33333333333333</ele><time>2026-03-28T09:44:48.017Z</time></trkpt><trkpt lat="42.4254083" lon="-8.5822931"><ele>107.5</ele><time>2026-03-28T09:45:17.018Z</time></trkpt><trkpt lat="42.4254744" lon="-8.5823157"><ele>110.66666666666666</ele><time>2026-03-28T09:45:21.01Z</time></trkpt><trkpt lat="42.4254366" lon="-8.582389"><ele>113.83333333333333</ele><time>2026-03-28T09:49:14.01Z</time></trkpt><trkpt lat="42.4253602" lon="-8.5824582"><ele>117.0</ele><time>2026-03-28T09:49:17.011Z</time></trkpt><trkpt lat="42.4253075" lon="-8.5825067"><ele>117.0</ele><time>2026-03-28T09:49:19.007Z</time></trkpt><trkpt lat="42.4252371" lon="-8.5825148"><ele>117.0</ele><time>2026-03-28T09:50:30.015Z</time></trkpt><trkpt lat="42.4251631" lon="-8.5824967"><ele>117.0</ele><time>2026-03-28T09:50:32.011Z</time></trkpt><trkpt lat="42.4250697" lon="-8.5824943"><ele>117.0</ele><time>2026-03-28T09:50:34.01Z</time></trkpt><trkpt lat="42.4249994" lon="-8.5824808"><ele>117.0</ele><time>2026-03-28T09:50:36.01Z</time></trkpt><trkpt lat="42.4249249" lon="-8.5824468"><ele>117.0</ele><time>2026-03-28T09:50:38.014Z</time></trkpt><trkpt lat="42.4248547" lon="-8.5824347"><ele>117.0</ele><time>2026-03-28T09:50:40.015Z</time></trkpt><trkpt lat="42.4247552" lon="-8.5824301"><ele>117.0</ele><time>2026-03-28T09:50:43.006Z</time></trkpt><trkpt lat="42.4246743" lon="-8.5824643"><ele>117.0</ele><time>2026-03-28T09:50:45.011Z</time></trkpt><trkpt lat="42.4245743" lon="-8.5824942"><ele>117.0</ele><time>2026-03-28T09:50:47.011Z</time></trkpt><trkpt lat="42.424509" lon="-8.5825087"><ele>117.0</ele><time>2026-03-28T09:50:48.004Z</time></trkpt><trkpt lat="42.4244367" lon="-8.5825166"><ele>117.0</ele><time>2026-03-28T09:50:49.013Z</time></trkpt><trkpt lat="42.424369" lon="-8.5825305"><ele>118.42857142857143</ele><time>2026-03-28T09:50:50.015Z</time></trkpt><trkpt lat="42.4242969" lon="-8.5825188"><ele>119.85714285714286</ele><time>2026-03-28T09:50:51.004Z</time></trkpt><trkpt lat="42.4242274" lon="-8.5824885"><ele>121.28571428571429</ele><time>2026-03-28T09:50:52.009Z</time></trkpt><trkpt lat="42.4241576" lon="-8.5824471"><ele>122.71428571428572</ele><time>2026-03-28T09:50:53.005Z</time></trkpt><trkpt lat="42.4241045" lon="-8.5823893"><ele>124.14285714285714</ele><time>2026-03-28T09:50:54.008Z</time></trkpt><trkpt lat="42.4240668" lon="-8.582303"><ele>125.57142857142858</ele><time>2026-03-28T09:50:55.01Z</time></trkpt><trkpt lat="42.4240398" lon="-8.5822154"><ele>127.0</ele><time>2026-03-28T09:50:56.007Z</time></trkpt><trkpt lat="42.424003" lon="-8.5821023"><ele>127.0</ele><time>2026-03-28T09:50:58.013Z</time></trkpt><trkpt lat="42.4239393" lon="-8.5820645"><ele>126.99999999999999</ele><time>2026-03-28T09:51:00.007Z</time></trkpt><trkpt lat="42.423834" lon="-8.5820861"><ele>126.99999999999999</ele><time>2026-03-28T09:51:02.019Z</time></trkpt><trkpt lat="42.4237358" lon="-8.5821055"><ele>127.0</ele><time>2026-03-28T09:51:04.01Z</time></trkpt><trkpt lat="42.4236325" lon="-8.5821081"><ele>127.0</ele><time>2026-03-28T09:51:06.01Z</time></trkpt><trkpt lat="42.4235249" lon="-8.5820592"><ele>130.0</ele><time>2026-03-28T09:51:08.01Z</time></trkpt><trkpt lat="42.4234203" lon="-8.5819983"><ele>133.0</ele><time>2026-03-28T09:51:10.015Z</time></trkpt><trkpt lat="42.4233123" lon="-8.5819437"><ele>136.0</ele><time>2026-03-28T09:51:12.013Z</time></trkpt><trkpt lat="42.4231928" lon="-8.5819242"><ele>139.0</ele><time>2026-03-28T09:51:14.008Z</time></trkpt><trkpt lat="42.4230725" lon="-8.5819573"><ele>139.0</ele><time>2026-03-28T09:51:16.007Z</time></trkpt><trkpt lat="42.4230048" lon="-8.5819943"><ele>139.0</ele><time>2026-03-28T09:51:17.002Z</time></trkpt><trkpt lat="42.4229465" lon="-8.5820282"><ele>139.0</ele><time>2026-03-28T09:51:18.017Z</time></trkpt><trkpt lat="42.4228817" lon="-8.5820467"><ele>139.0</ele><time>2026-03-28T09:51:19.009Z</time></trkpt><trkpt lat="42.4228142" lon="-8.5820514"><ele>139.0</ele><time>2026-03-28T09:51:20.006Z</time></trkpt><trkpt lat="42.4227516" lon="-8.582042"><ele>139.0</ele><time>2026-03-28T09:51:21.002Z</time></trkpt><trkpt lat="42.4226856" lon="-8.5820315"><ele>139.0</ele><time>2026-03-28T09:51:22.008Z</time></trkpt><trkpt lat="42.4226172" lon="-8.5820112"><ele>140.42857142857142</ele><time>2026-03-28T09:51:23.012Z</time></trkpt><trkpt lat="42.4225533" lon="-8.5819962"><ele>141.85714285714286</ele><time>2026-03-28T09:51:24.01Z</time></trkpt><trkpt lat="42.4224892" lon="-8.5819856"><ele>143.28571428571428</ele><time>2026-03-28T09:51:25.007Z</time></trkpt><trkpt lat="42.4224211" lon="-8.5819808"><ele>144.71428571428572</ele><time>2026-03-28T09:51:26.039Z</time></trkpt><trkpt lat="42.4223577" lon="-8.5819742"><ele>146.14285714285714</ele><time>2026-03-28T09:51:27.005Z</time></trkpt><trkpt lat="42.4222928" lon="-8.5819591"><ele>147.57142857142856</ele><time>2026-03-28T09:51:28.017Z</time></trkpt><trkpt lat="42.4222282" lon="-8.5819396"><ele>149.0</ele><time>2026-03-28T09:51:29.012Z</time></trkpt><trkpt lat="42.422132" lon="-8.5819274"><ele>149.16666666666666</ele><time>2026-03-28T09:51:31.012Z</time></trkpt><trkpt lat="42.4220565" lon="-8.5819336"><ele>149.33333333333331</ele><time>2026-03-28T09:51:33.006Z</time></trkpt><trkpt lat="42.4219775" lon="-8.5819257"><ele>149.5</ele><time>2026-03-28T09:51:36.003Z</time></trkpt><trkpt lat="42.4218883" lon="-8.5819251"><ele>149.66666666666666</ele><time>2026-03-28T09:51:39.017Z</time></trkpt><trkpt lat="42.4218186" lon="-8.5818985"><ele>149.83333333333334</ele><time>2026-03-28T09:51:41.01Z</time></trkpt><trkpt lat="42.4217526" lon="-8.5818713"><ele>150.0</ele><time>2026-03-28T09:51:43.011Z</time></trkpt><trkpt lat="42.4216697" lon="-8.5818696"><ele>150.0</ele><time>2026-03-28T09:51:45.008Z</time></trkpt><trkpt lat="42.4215451" lon="-8.5818433"><ele>150.0</ele><time>2026-03-28T09:51:47.011Z</time></trkpt><trkpt lat="42.4214695" lon="-8.5818283"><ele>150.0</ele><time>2026-03-28T09:51:48.009Z</time></trkpt><trkpt lat="42.4213839" lon="-8.5818082"><ele>150.0</ele><time>2026-03-28T09:51:49.005Z</time></trkpt><trkpt lat="42.4213004" lon="-8.5817854"><ele>150.0</ele><time>2026-03-28T09:51:50.018Z</time></trkpt><trkpt lat="42.4212049" lon="-8.5817679"><ele>152.99999999999997</ele><time>2026-03-28T09:51:51.011Z</time></trkpt><trkpt lat="42.4211163" lon="-8.5817532"><ele>156.0</ele><time>2026-03-28T09:51:52.009Z</time></trkpt><trkpt lat="42.4210368" lon="-8.5817274"><ele>159.0</ele><time>2026-03-28T09:51:53.013Z</time></trkpt><trkpt lat="42.4209662" lon="-8.5817072"><ele>162.0</ele><time>2026-03-28T09:51:54.008Z</time></trkpt><trkpt lat="42.4209006" lon="-8.5816872"><ele>165.0</ele><time>2026-03-28T09:51:55.009Z</time></trkpt><trkpt lat="42.4208322" lon="-8.5816779"><ele>167.99999999999997</ele><time>2026-03-28T09:51:56.011Z</time></trkpt><trkpt lat="42.4207633" lon="-8.5816613"><ele>171.0</ele><time>2026-03-28T09:51:57.017Z</time></trkpt><trkpt lat="42.4206941" lon="-8.5816436"><ele>171.0</ele><time>2026-03-28T09:51:58.009Z</time></trkpt><trkpt lat="42.420624" lon="-8.5816302"><ele>171.0</ele><time>2026-03-28T09:51:59.013Z</time></trkpt><trkpt lat="42.4205054" lon="-8.5815914"><ele>171.0</ele><time>2026-03-28T09:52:01.004Z</time></trkpt><trkpt lat="42.4204002" lon="-8.5815349"><ele>171.0</ele><time>2026-03-28T09:52:03.022Z</time></trkpt><trkpt lat="42.4203245" lon="-8.5814615"><ele>171.0</ele><time>2026-03-28T09:52:05.008Z</time></trkpt><trkpt lat="42.4202631" lon="-8.5813852"><ele>175.5</ele><time>2026-03-28T09:52:07.006Z</time></trkpt><trkpt lat="42.4202029" lon="-8.5813116"><ele>180.0</ele><time>2026-03-28T09:52:10.019Z</time></trkpt><trkpt lat="42.4201449" lon="-8.5812572"><ele>184.5</ele><time>2026-03-28T09:52:15.007Z</time></trkpt><trkpt lat="42.4200729" lon="-8.5812271"><ele>189.0</ele><time>2026-03-28T09:52:17.021Z</time></trkpt><trkpt lat="42.4200003" lon="-8.5811966"><ele>193.5</ele><time>2026-03-28T09:52:19.011Z</time></trkpt><trkpt lat="42.4198976" lon="-8.5811947"><ele>198.0</ele><time>2026-03-28T09:52:21.004Z</time></trkpt><trkpt lat="42.4197773" lon="-8.5812104"><ele>198.0</ele><time>2026-03-28T09:52:23.01Z</time></trkpt><trkpt lat="42.4196783" lon="-8.5812097"><ele>198.0</ele><time>2026-03-28T09:52:25.014Z</time></trkpt><trkpt lat="42.4195887" lon="-8.5812178"><ele>198.0</ele><time>2026-03-28T09:52:27.018Z</time></trkpt><trkpt lat="42.4195062" lon="-8.5812314"><ele>198.0</ele><time>2026-03-28T09:52:29.008Z</time></trkpt><trkpt lat="42.4194322" lon="-8.5812575"><ele>198.0</ele><time>2026-03-28T09:52:31.006Z</time></trkpt><trkpt lat="42.4193435" lon="-8.5812884"><ele>198.0</ele><time>2026-03-28T09:52:34.016Z</time></trkpt><trkpt lat="42.419275" lon="-8.5813037"><ele>200.16666666666666</ele><time>2026-03-28T09:52:39.01Z</time></trkpt><trkpt lat="42.4192025" lon="-8.5813216"><ele>202.33333333333331</ele><time>2026-03-28T09:52:47.01Z</time></trkpt><trkpt lat="42.4191167" lon="-8.5813172"><ele>204.5</ele><time>2026-03-28T09:52:57.008Z</time></trkpt><trkpt lat="42.4190531" lon="-8.5813322"><ele>206.66666666666666</ele><time>2026-03-28T09:53:00.007Z</time></trkpt><trkpt lat="42.4189723" lon="-8.5813739"><ele>208.83333333333331</ele><time>2026-03-28T09:56:07.004Z</time></trkpt><trkpt lat="42.4189002" lon="-8.581367"><ele>211.0</ele><time>2026-03-28T09:56:10.006Z</time></trkpt><trkpt lat="42.418807" lon="-8.5813173"><ele>209.66666666666666</ele><time>2026-03-28T09:56:13.004Z</time></trkpt><trkpt lat="42.4187331" lon="-8.5812606"><ele>208.33333333333331</ele><time>2026-03-28T09:56:16.004Z</time></trkpt><trkpt lat="42.4186599" lon="-8.581211"><ele>207.0</ele><time>2026-03-28T09:56:19.003Z</time></trkpt><trkpt lat="42.4185853" lon="-8.5811965"><ele>205.66666666666669</ele><time>2026-03-28T09:56:21.011Z</time></trkpt><trkpt lat="42.4184982" lon="-8.581182"><ele>204.33333333333334</ele><time>2026-03-28T09:56:23.015Z</time></trkpt><trkpt lat="42.418409" lon="-8.5811587"><ele>203.0</ele><time>2026-03-28T09:56:25.008Z</time></trkpt><trkpt lat="42.4183112" lon="-8.5811393"><ele>203.0</ele><time>2026-03-28T09:56:27.009Z</time></trkpt><trkpt lat="42.4182067" lon="-8.5811245"><ele>203.0</ele><time>2026-03-28T09:56:29.009Z</time></trkpt><trkpt lat="42.4181085" lon="-8.5811052"><ele>203.0</ele><time>2026-03-28T09:56:31.015Z</time></trkpt><trkpt lat="42.4180092" lon="-8.5811"><ele>203.0</ele><time>2026-03-28T09:56:33.014Z</time></trkpt><trkpt lat="42.4179277" lon="-8.5810778"><ele>203.0</ele><time>2026-03-28T09:56:35.005Z</time></trkpt><trkpt lat="42.417846" lon="-8.581055"><ele>204.16666666666669</ele><time>2026-03-28T09:56:37.003Z</time></trkpt><trkpt lat="42.4177572" lon="-8.5810316"><ele>205.33333333333334</ele><time>2026-03-28T09:56:39.007Z</time></trkpt><trkpt lat="42.4176698" lon="-8.5810027"><ele>206.5</ele><time>2026-03-28T09:56:41.008Z</time></trkpt><trkpt lat="42.4175783" lon="-8.5809801"><ele>207.66666666666669</ele><time>2026-03-28T09:56:43.004Z</time></trkpt><trkpt lat="42.417489" lon="-8.5809687"><ele>208.83333333333334</ele><time>2026-03-28T09:56:45.009Z</time></trkpt><trkpt lat="42.4174175" lon="-8.5809602"><ele>210.0</ele><time>2026-03-28T09:56:47.009Z</time></trkpt><trkpt lat="42.417349" lon="-8.5809029"><ele>210.0</ele><time>2026-03-28T09:56:49.015Z</time></trkpt><trkpt lat="42.4172755" lon="-8.5808228"><ele>210.0</ele><time>2026-03-28T09:56:51.006Z</time></trkpt><trkpt lat="42.4172013" lon="-8.5807366"><ele>210.0</ele><time>2026-03-28T09:56:53.018Z</time></trkpt><trkpt lat="42.4171315" lon="-8.5806642"><ele>210.0</ele><time>2026-03-28T09:56:55.015Z</time></trkpt><trkpt lat="42.4170691" lon="-8.5806019"><ele>210.0</ele><time>2026-03-28T09:56:57.009Z</time></trkpt><trkpt lat="42.4169927" lon="-8.5805474"><ele>210.0</ele><time>2026-03-28T09:58:05.004Z</time></trkpt><trkpt lat="42.4169228" lon="-8.5805267"><ele>211.66666666666666</ele><time>2026-03-28T09:58:06.005Z</time></trkpt><trkpt lat="42.4168459" lon="-8.5805132"><ele>213.33333333333331</ele><time>2026-03-28T09:58:07.009Z</time></trkpt><trkpt lat="42.4167594" lon="-8.5804976"><ele>215.0</ele><time>2026-03-28T09:58:08.007Z</time></trkpt><trkpt lat="42.4166737" lon="-8.5804955"><ele>216.66666666666666</ele><time>2026-03-28T09:58:09.003Z</time></trkpt><trkpt lat="42.4166052" lon="-8.5804912"><ele>218.33333333333331</ele><time>2026-03-28T09:58:10.005Z</time></trkpt><trkpt lat="42.4165112" lon="-8.5804897"><ele>220.0</ele><time>2026-03-28T09:58:12.004Z</time></trkpt><trkpt lat="42.4164164" lon="-8.5805216"><ele>219.99999999999997</ele><time>2026-03-28T09:58:14.011Z</time></trkpt><trkpt lat="42.4163648" lon="-8.5805719"><ele>220.0</ele><time>2026-03-28T09:58:21.008Z</time></trkpt><trkpt lat="42.4163008" lon="-8.5806223"><ele>220.0</ele><time>2026-03-28T09:58:25.003Z</time></trkpt><trkpt lat="42.4162267" lon="-8.5805808"><ele>220.0</ele><time>2026-03-28T09:58:27.998Z</time></trkpt><trkpt lat="42.4161677" lon="-8.5805348"><ele>220.0</ele><time>2026-03-28T09:58:30.999Z</time></trkpt><trkpt lat="42.4160971" lon="-8.5805967"><ele>219.99999999999997</ele><time>2026-03-28T09:58:34.005Z</time></trkpt><trkpt lat="42.4160348" lon="-8.5806139"><ele>220.0</ele><time>2026-03-28T09:58:36.013Z</time></trkpt><trkpt lat="42.4161011" lon="-8.5805777"><ele>218.14285714285714</ele><time>2026-03-28T10:06:52.003Z</time></trkpt><trkpt lat="42.4161608" lon="-8.5805337"><ele>216.28571428571428</ele><time>2026-03-28T10:06:54.005Z</time></trkpt><trkpt lat="42.416213" lon="-8.5804696"><ele>214.42857142857144</ele><time>2026-03-28T10:06:56.007Z</time></trkpt><trkpt lat="42.4162695" lon="-8.580396"><ele>212.57142857142856</ele><time>2026-03-28T10:06:57.997Z</time></trkpt><trkpt lat="42.416325" lon="-8.5803372"><ele>210.71428571428572</ele><time>2026-03-28T10:07:00.014Z</time></trkpt><trkpt lat="42.4163812" lon="-8.5802765"><ele>208.85714285714286</ele><time>2026-03-28T10:07:02.004Z</time></trkpt><trkpt lat="42.4164165" lon="-8.5802053"><ele>207.0</ele><time>2026-03-28T10:07:04.018Z</time></trkpt><trkpt lat="42.4164507" lon="-8.580126"><ele>207.0</ele><time>2026-03-28T10:07:06.005Z</time></trkpt><trkpt lat="42.4165129" lon="-8.5800691"><ele>207.0</ele><time>2026-03-28T10:07:08.002Z</time></trkpt><trkpt lat="42.4165801" lon="-8.5800069"><ele>207.0</ele><time>2026-03-28T10:07:15.001Z</time></trkpt><trkpt lat="42.4166425" lon="-8.5799038"><ele>207.0</ele><time>2026-03-28T10:07:18.004Z</time></trkpt><trkpt lat="42.4166921" lon="-8.579812"><ele>207.0</ele><time>2026-03-28T10:07:19.996Z</time></trkpt><trkpt lat="42.4167383" lon="-8.5797038"><ele>207.0</ele><time>2026-03-28T10:07:22.011Z</time></trkpt><trkpt lat="42.4167835" lon="-8.5796074"><ele>207.0</ele><time>2026-03-28T10:07:24Z</time></trkpt><trkpt lat="42.4168281" lon="-8.5795181"><ele>207.0</ele><time>2026-03-28T10:07:26.002Z</time></trkpt><trkpt lat="42.4168618" lon="-8.5794412"><ele>207.0</ele><time>2026-03-28T10:07:28.002Z</time></trkpt><trkpt lat="42.4169245" lon="-8.5795251"><ele>207.0</ele><time>2026-03-28T10:07:33.007Z</time></trkpt><trkpt lat="42.4169526" lon="-8.5796213"><ele>207.0</ele><time>2026-03-28T10:07:35.001Z</time></trkpt><trkpt lat="42.4170386" lon="-8.5796678"><ele>207.0</ele><time>2026-03-28T10:07:39Z</time></trkpt><trkpt lat="42.4171296" lon="-8.5795963"><ele>205.0</ele><time>2026-03-28T10:07:41.004Z</time></trkpt><trkpt lat="42.4172525" lon="-8.5795175"><ele>203.0</ele><time>2026-03-28T10:07:43.01Z</time></trkpt><trkpt lat="42.4173244" lon="-8.57947"><ele>201.0</ele><time>2026-03-28T10:07:44.002Z</time></trkpt><trkpt lat="42.4173947" lon="-8.5794207"><ele>199.0</ele><time>2026-03-28T10:07:45.002Z</time></trkpt><trkpt lat="42.4174645" lon="-8.5793732"><ele>197.0</ele><time>2026-03-28T10:07:46.002Z</time></trkpt><trkpt lat="42.4175356" lon="-8.5793218"><ele>196.8</ele><time>2026-03-28T10:07:46.999Z</time></trkpt><trkpt lat="42.4176069" lon="-8.5792673"><ele>196.6</ele><time>2026-03-28T10:07:48.001Z</time></trkpt><trkpt lat="42.4176881" lon="-8.5792115"><ele>196.4</ele><time>2026-03-28T10:07:49.01Z</time></trkpt><trkpt lat="42.4177789" lon="-8.5791747"><ele>196.20000000000002</ele><time>2026-03-28T10:07:49.996Z</time></trkpt><trkpt lat="42.4178751" lon="-8.5791514"><ele>196.0</ele><time>2026-03-28T10:07:51.008Z</time></trkpt><trkpt lat="42.4179738" lon="-8.5791419"><ele>193.20000000000002</ele><time>2026-03-28T10:07:52.002Z</time></trkpt><trkpt lat="42.4180824" lon="-8.5791605"><ele>190.4</ele><time>2026-03-28T10:07:53.006Z</time></trkpt><trkpt lat="42.4181887" lon="-8.579186"><ele>187.6</ele><time>2026-03-28T10:07:54.002Z</time></trkpt><trkpt lat="42.4182779" lon="-8.5792151"><ele>184.8</ele><time>2026-03-28T10:07:55.005Z</time></trkpt><trkpt lat="42.4183449" lon="-8.5792436"><ele>182.0</ele><time>2026-03-28T10:07:56.003Z</time></trkpt><trkpt lat="42.418453" lon="-8.5792561"><ele>182.0</ele><time>2026-03-28T10:07:58.001Z</time></trkpt><trkpt lat="42.4185724" lon="-8.5791958"><ele>182.0</ele><time>2026-03-28T10:07:59.998Z</time></trkpt><trkpt lat="42.4186208" lon="-8.5791394"><ele>182.0</ele><time>2026-03-28T10:08:00.996Z</time></trkpt><trkpt lat="42.4186617" lon="-8.5790262"><ele>182.0</ele><time>2026-03-28T10:08:03.016Z</time></trkpt><trkpt lat="42.418623" lon="-8.5789178"><ele>182.0</ele><time>2026-03-28T10:08:06.006Z</time></trkpt><trkpt lat="42.4185507" lon="-8.5788603"><ele>182.0</ele><time>2026-03-28T10:08:07.998Z</time></trkpt><trkpt lat="42.4184485" lon="-8.5787748"><ele>182.0</ele><time>2026-03-28T10:08:09.998Z</time></trkpt><trkpt lat="42.4183808" lon="-8.5787285"><ele>182.0</ele><time>2026-03-28T10:08:10.996Z</time></trkpt><trkpt lat="42.4183016" lon="-8.5786708"><ele>182.0</ele><time>2026-03-28T10:08:12.011Z</time></trkpt><trkpt lat="42.4182203" lon="-8.5786062"><ele>182.0</ele><time>2026-03-28T10:08:13Z</time></trkpt><trkpt lat="42.4181308" lon="-8.5785398"><ele>181.8</ele><time>2026-03-28T10:08:13.999Z</time></trkpt><trkpt lat="42.4180394" lon="-8.5784726"><ele>181.6</ele><time>2026-03-28T10:08:14.996Z</time></trkpt><trkpt lat="42.4179389" lon="-8.5784066"><ele>181.4</ele><time>2026-03-28T10:08:15.999Z</time></trkpt><trkpt lat="42.4178401" lon="-8.5783332"><ele>181.20000000000002</ele><time>2026-03-28T10:08:17.006Z</time></trkpt><trkpt lat="42.4177476" lon="-8.5782535"><ele>181.0</ele><time>2026-03-28T10:08:18.005Z</time></trkpt><trkpt lat="42.4176595" lon="-8.5781759"><ele>181.0</ele><time>2026-03-28T10:08:19.005Z</time></trkpt><trkpt lat="42.4175766" lon="-8.5780951"><ele>181.0</ele><time>2026-03-28T10:08:20Z</time></trkpt><trkpt lat="42.4174983" lon="-8.5780218"><ele>181.0</ele><time>2026-03-28T10:08:21.006Z</time></trkpt><trkpt lat="42.4174174" lon="-8.5779728"><ele>181.0</ele><time>2026-03-28T10:08:22.003Z</time></trkpt><trkpt lat="42.4173293" lon="-8.577954"><ele>181.0</ele><time>2026-03-28T10:08:22.996Z</time></trkpt><trkpt lat="42.4172446" lon="-8.5779803"><ele>181.0</ele><time>2026-03-28T10:08:24.009Z</time></trkpt><trkpt lat="42.4171778" lon="-8.5780463"><ele>181.0</ele><time>2026-03-28T10:08:25.002Z</time></trkpt><trkpt lat="42.4171132" lon="-8.5780955"><ele>181.0</ele><time>2026-03-28T10:08:26.004Z</time></trkpt><trkpt lat="42.4170419" lon="-8.5781058"><ele>181.0</ele><time>2026-03-28T10:08:27Z</time></trkpt><trkpt lat="42.4169341" lon="-8.5780467"><ele>181.0</ele><time>2026-03-28T10:08:29.012Z</time></trkpt><trkpt lat="42.416869" lon="-8.5779643"><ele>181.0</ele><time>2026-03-28T10:08:31Z</time></trkpt><trkpt lat="42.4168508" lon="-8.5778679"><ele>180.20000000000002</ele><time>2026-03-28T10:08:35.005Z</time></trkpt><trkpt lat="42.4168886" lon="-8.5777908"><ele>179.4</ele><time>2026-03-28T10:08:39.999Z</time></trkpt><trkpt lat="42.4169502" lon="-8.5776849"><ele>178.6</ele><time>2026-03-28T10:08:43.009Z</time></trkpt><trkpt lat="42.4170336" lon="-8.5775988"><ele>177.8</ele><time>2026-03-28T10:08:45.007Z</time></trkpt><trkpt lat="42.4171404" lon="-8.5774925"><ele>177.0</ele><time>2026-03-28T10:08:46.999Z</time></trkpt><trkpt lat="42.4172235" lon="-8.5773563"><ele>177.0</ele><time>2026-03-28T10:08:49.01Z</time></trkpt><trkpt lat="42.4173011" lon="-8.5773076"><ele>177.0</ele><time>2026-03-28T10:08:50Z</time></trkpt><trkpt lat="42.4173833" lon="-8.5772528"><ele>177.0</ele><time>2026-03-28T10:08:51.003Z</time></trkpt><trkpt lat="42.4174689" lon="-8.5772027"><ele>177.0</ele><time>2026-03-28T10:08:52.008Z</time></trkpt><trkpt lat="42.4175513" lon="-8.5771601"><ele>177.0</ele><time>2026-03-28T10:08:53.002Z</time></trkpt><trkpt lat="42.417627" lon="-8.5771266"><ele>177.0</ele><time>2026-03-28T10:08:54.003Z</time></trkpt><trkpt lat="42.4177114" lon="-8.5771022"><ele>177.0</ele><time>2026-03-28T10:08:55.004Z</time></trkpt><trkpt lat="42.4177954" lon="-8.57711"><ele>177.0</ele><time>2026-03-28T10:08:56Z</time></trkpt><trkpt lat="42.4178753" lon="-8.5770941"><ele>177.0</ele><time>2026-03-28T10:08:57.001Z</time></trkpt><trkpt lat="42.4179618" lon="-8.577078"><ele>177.0</ele><time>2026-03-28T10:08:58.002Z</time></trkpt><trkpt lat="42.4180601" lon="-8.5770716"><ele>177.0</ele><time>2026-03-28T10:08:58.999Z</time></trkpt><trkpt lat="42.4181474" lon="-8.57706"><ele>177.0</ele><time>2026-03-28T10:09:00.009Z</time></trkpt><trkpt lat="42.4182337" lon="-8.5770378"><ele>176.66666666666666</ele><time>2026-03-28T10:09:01.006Z</time></trkpt><trkpt lat="42.4183085" lon="-8.5770276"><ele>176.33333333333334</ele><time>2026-03-28T10:09:02.01Z</time></trkpt><trkpt lat="42.4183828" lon="-8.5770096"><ele>176.0</ele><time>2026-03-28T10:09:03Z</time></trkpt><trkpt lat="42.4184475" lon="-8.5769938"><ele>175.66666666666669</ele><time>2026-03-28T10:09:04.004Z</time></trkpt><trkpt lat="42.4185542" lon="-8.576959"><ele>175.33333333333334</ele><time>2026-03-28T10:09:06.006Z</time></trkpt><trkpt lat="42.4185888" lon="-8.5768839"><ele>175.0</ele><time>2026-03-28T10:09:08.004Z</time></trkpt><trkpt lat="42.4184935" lon="-8.5767945"><ele>178.16666666666669</ele><time>2026-03-28T10:09:10.003Z</time></trkpt><trkpt lat="42.4184267" lon="-8.5767425"><ele>181.33333333333334</ele><time>2026-03-28T10:09:11.005Z</time></trkpt><trkpt lat="42.4183508" lon="-8.5766947"><ele>184.5</ele><time>2026-03-28T10:09:12.01Z</time></trkpt><trkpt lat="42.4182874" lon="-8.5766535"><ele>187.66666666666669</ele><time>2026-03-28T10:09:13.003Z</time></trkpt><trkpt lat="42.4182299" lon="-8.576606"><ele>190.83333333333334</ele><time>2026-03-28T10:09:14.004Z</time></trkpt><trkpt lat="42.4181418" lon="-8.5765029"><ele>194.0</ele><time>2026-03-28T10:09:15.999Z</time></trkpt><trkpt lat="42.4180617" lon="-8.5763955"><ele>194.00000000000003</ele><time>2026-03-28T10:09:18.005Z</time></trkpt><trkpt lat="42.4180354" lon="-8.5762894"><ele>194.0</ele><time>2026-03-28T10:09:20.013Z</time></trkpt><trkpt lat="42.4179433" lon="-8.5763179"><ele>194.0</ele><time>2026-03-28T10:09:51.007Z</time></trkpt><trkpt lat="42.4178693" lon="-8.5763376"><ele>194.0</ele><time>2026-03-28T10:09:52.997Z</time></trkpt><trkpt lat="42.4178041" lon="-8.5763361"><ele>194.00000000000003</ele><time>2026-03-28T10:09:54.995Z</time></trkpt><trkpt lat="42.417737" lon="-8.576368"><ele>194.0</ele><time>2026-03-28T10:09:57.004Z</time></trkpt><trkpt lat="42.417635" lon="-8.576377"><ele>194.39999999999998</ele><time>2026-03-28T10:09:59.001Z</time></trkpt><trkpt lat="42.4175437" lon="-8.5763235"><ele>194.8</ele><time>2026-03-28T10:10:01.005Z</time></trkpt><trkpt lat="42.4174471" lon="-8.5762517"><ele>195.2</ele><time>2026-03-28T10:10:03.002Z</time></trkpt><trkpt lat="42.4173434" lon="-8.5762196"><ele>195.60000000000002</ele><time>2026-03-28T10:10:05.006Z</time></trkpt><trkpt lat="42.4172405" lon="-8.5762392"><ele>196.0</ele><time>2026-03-28T10:10:07.003Z</time></trkpt><trkpt lat="42.4171549" lon="-8.5762973"><ele>196.99999999999997</ele><time>2026-03-28T10:10:09Z</time></trkpt><trkpt lat="42.4170886" lon="-8.5763483"><ele>198.0</ele><time>2026-03-28T10:10:10.999Z</time></trkpt><trkpt lat="42.4170205" lon="-8.5763974"><ele>199.0</ele><time>2026-03-28T10:10:13.004Z</time></trkpt><trkpt lat="42.4169528" lon="-8.576449"><ele>200.0</ele><time>2026-03-28T10:10:16.001Z</time></trkpt><trkpt lat="42.4168771" lon="-8.5764541"><ele>200.99999999999997</ele><time>2026-03-28T10:10:19.003Z</time></trkpt><trkpt lat="42.4168046" lon="-8.5764369"><ele>202.0</ele><time>2026-03-28T10:10:23.005Z</time></trkpt><trkpt lat="42.4168014" lon="-8.5763387"><ele>201.99999999999997</ele><time>2026-03-28T10:10:28.007Z</time></trkpt><trkpt lat="42.4168049" lon="-8.5762444"><ele>202.0</ele><time>2026-03-28T10:10:38Z</time></trkpt><trkpt lat="42.4168358" lon="-8.5761686"><ele>202.0</ele><time>2026-03-28T10:10:41.005Z</time></trkpt><trkpt lat="42.4168031" lon="-8.5760685"><ele>202.0</ele><time>2026-03-28T10:10:44.999Z</time></trkpt><trkpt lat="42.4167353" lon="-8.5760627"><ele>201.99999999999997</ele><time>2026-03-28T10:10:47Z</time></trkpt><trkpt lat="42.4166471" lon="-8.5760963"><ele>202.0</ele><time>2026-03-28T10:10:49Z</time></trkpt><trkpt lat="42.4165374" lon="-8.5760926"><ele>202.0</ele><time>2026-03-28T10:10:50.995Z</time></trkpt><trkpt lat="42.4164624" lon="-8.5760679"><ele>202.0</ele><time>2026-03-28T10:10:53.005Z</time></trkpt><trkpt lat="42.4164097" lon="-8.5761149"><ele>202.0</ele><time>2026-03-28T10:10:58.001Z</time></trkpt><trkpt lat="42.4163908" lon="-8.5762134"><ele>202.0</ele><time>2026-03-28T10:11:22.994Z</time></trkpt><trkpt lat="42.4163273" lon="-8.5762608"><ele>202.0</ele><time>2026-03-28T10:11:26.004Z</time></trkpt><trkpt lat="42.4162519" lon="-8.5762251"><ele>202.0</ele><time>2026-03-28T10:11:28Z</time></trkpt><trkpt lat="42.4162004" lon="-8.5761507"><ele>202.0</ele><time>2026-03-28T10:11:29.999Z</time></trkpt><trkpt lat="42.4161613" lon="-8.5760705"><ele>204.49999999999997</ele><time>2026-03-28T10:11:33.994Z</time></trkpt><trkpt lat="42.4162119" lon="-8.5760057"><ele>207.0</ele><time>2026-03-28T10:11:35.995Z</time></trkpt><trkpt lat="42.4162914" lon="-8.5758793"><ele>209.5</ele><time>2026-03-28T10:11:38.011Z</time></trkpt><trkpt lat="42.416306" lon="-8.5757802"><ele>212.0</ele><time>2026-03-28T10:11:39.004Z</time></trkpt><trkpt lat="42.4163184" lon="-8.5756862"><ele>214.49999999999997</ele><time>2026-03-28T10:11:40.002Z</time></trkpt><trkpt lat="42.4163431" lon="-8.5755573"><ele>217.0</ele><time>2026-03-28T10:11:42.004Z</time></trkpt><trkpt lat="42.4164373" lon="-8.5755058"><ele>217.0</ele><time>2026-03-28T10:11:44.011Z</time></trkpt><trkpt lat="42.4165571" lon="-8.575528"><ele>217.0</ele><time>2026-03-28T10:11:46.001Z</time></trkpt><trkpt lat="42.4166736" lon="-8.5754921"><ele>217.0</ele><time>2026-03-28T10:11:47.997Z</time></trkpt><trkpt lat="42.4167435" lon="-8.5754266"><ele>217.0</ele><time>2026-03-28T10:11:48.995Z</time></trkpt><trkpt lat="42.4168218" lon="-8.5753574"><ele>217.0</ele><time>2026-03-28T10:11:50.008Z</time></trkpt><trkpt lat="42.4168981" lon="-8.5753058"><ele>219.0</ele><time>2026-03-28T10:11:50.998Z</time></trkpt><trkpt lat="42.4169771" lon="-8.575303"><ele>221.0</ele><time>2026-03-28T10:11:52.005Z</time></trkpt><trkpt lat="42.4170486" lon="-8.5753053"><ele>223.0</ele><time>2026-03-28T10:11:52.998Z</time></trkpt><trkpt lat="42.4171748" lon="-8.575298"><ele>225.0</ele><time>2026-03-28T10:11:55.004Z</time></trkpt><trkpt lat="42.4172979" lon="-8.5752835"><ele>227.0</ele><time>2026-03-28T10:11:57.005Z</time></trkpt><trkpt lat="42.417367" lon="-8.5752705"><ele>227.00000000000003</ele><time>2026-03-28T10:11:58.005Z</time></trkpt><trkpt lat="42.4174369" lon="-8.575254"><ele>227.0</ele><time>2026-03-28T10:11:59Z</time></trkpt><trkpt lat="42.4174964" lon="-8.5752261"><ele>227.0</ele><time>2026-03-28T10:12:00.001Z</time></trkpt><trkpt lat="42.4175882" lon="-8.5751203"><ele>227.0</ele><time>2026-03-28T10:12:01.998Z</time></trkpt><trkpt lat="42.4176899" lon="-8.5750235"><ele>227.00000000000003</ele><time>2026-03-28T10:12:03.995Z</time></trkpt><trkpt lat="42.4177457" lon="-8.5749731"><ele>227.0</ele><time>2026-03-28T10:12:04.998Z</time></trkpt><trkpt lat="42.4178066" lon="-8.5749381"><ele>227.0</ele><time>2026-03-28T10:12:06.005Z</time></trkpt><trkpt lat="42.4178697" lon="-8.5749059"><ele>227.0</ele><time>2026-03-28T10:12:07.001Z</time></trkpt><trkpt lat="42.4179359" lon="-8.5748826"><ele>227.0</ele><time>2026-03-28T10:12:08.004Z</time></trkpt><trkpt lat="42.417998" lon="-8.5748511"><ele>227.0</ele><time>2026-03-28T10:12:09.007Z</time></trkpt><trkpt lat="42.4181014" lon="-8.5747644"><ele>227.0</ele><time>2026-03-28T10:12:11.001Z</time></trkpt><trkpt lat="42.4182222" lon="-8.5746936"><ele>226.71428571428572</ele><time>2026-03-28T10:12:13Z</time></trkpt><trkpt lat="42.418289" lon="-8.5746739"><ele>226.42857142857144</ele><time>2026-03-28T10:12:14.002Z</time></trkpt><trkpt lat="42.4183541" lon="-8.5746492"><ele>226.14285714285717</ele><time>2026-03-28T10:12:15.003Z</time></trkpt><trkpt lat="42.4184171" lon="-8.5746091"><ele>225.8571428571429</ele><time>2026-03-28T10:12:16.004Z</time></trkpt><trkpt lat="42.418467" lon="-8.5745529"><ele>225.57142857142858</ele><time>2026-03-28T10:12:17Z</time></trkpt><trkpt lat="42.4185076" lon="-8.5744696"><ele>225.28571428571433</ele><time>2026-03-28T10:12:17.996Z</time></trkpt><trkpt lat="42.4185296" lon="-8.5743875"><ele>225.00000000000003</ele><time>2026-03-28T10:12:19.008Z</time></trkpt><trkpt lat="42.4185125" lon="-8.5742935"><ele>225.0</ele><time>2026-03-28T10:12:20.001Z</time></trkpt><trkpt lat="42.4184914" lon="-8.5742032"><ele>225.0</ele><time>2026-03-28T10:12:21.003Z</time></trkpt><trkpt lat="42.4184619" lon="-8.5740477"><ele>225.0</ele><time>2026-03-28T10:12:23.002Z</time></trkpt><trkpt lat="42.4184547" lon="-8.5739512"><ele>225.0</ele><time>2026-03-28T10:12:24.006Z</time></trkpt><trkpt lat="42.418467" lon="-8.5737876"><ele>225.0</ele><time>2026-03-28T10:12:26.004Z</time></trkpt><trkpt lat="42.4184988" lon="-8.5736479"><ele>227.16666666666666</ele><time>2026-03-28T10:12:27.996Z</time></trkpt><trkpt lat="42.4185147" lon="-8.5735579"><ele>229.33333333333331</ele><time>2026-03-28T10:12:33Z</time></trkpt><trkpt lat="42.4184659" lon="-8.5734971"><ele>231.5</ele><time>2026-03-28T10:12:38Z</time></trkpt><trkpt lat="42.4184217" lon="-8.5734122"><ele>233.66666666666666</ele><time>2026-03-28T10:12:40.01Z</time></trkpt><trkpt lat="42.4183763" lon="-8.5733359"><ele>235.83333333333331</ele><time>2026-03-28T10:12:42Z</time></trkpt><trkpt lat="42.4183356" lon="-8.5732416"><ele>238.0</ele><time>2026-03-28T10:12:44.007Z</time></trkpt><trkpt lat="42.4183713" lon="-8.5731324"><ele>238.0</ele><time>2026-03-28T10:12:46.998Z</time></trkpt><trkpt lat="42.4184285" lon="-8.5730876"><ele>238.0</ele><time>2026-03-28T10:12:49.007Z</time></trkpt><trkpt lat="42.4184981" lon="-8.5731165"><ele>238.0</ele><time>2026-03-28T10:13:11.004Z</time></trkpt><trkpt lat="42.4185457" lon="-8.5731787"><ele>238.0</ele><time>2026-03-28T10:13:20.994Z</time></trkpt><trkpt lat="42.4185506" lon="-8.5732785"><ele>238.0</ele><time>2026-03-28T10:13:25.997Z</time></trkpt><trkpt lat="42.4185894" lon="-8.5731981"><ele>238.0</ele><time>2026-03-28T10:14:06.003Z</time></trkpt><trkpt lat="42.4186072" lon="-8.5730771"><ele>238.0</ele><time>2026-03-28T10:14:08.992Z</time></trkpt><trkpt lat="42.4186139" lon="-8.5729717"><ele>238.0</ele><time>2026-03-28T10:14:11.008Z</time></trkpt><trkpt lat="42.4186064" lon="-8.5728849"><ele>238.0</ele><time>2026-03-28T10:14:13.006Z</time></trkpt><trkpt lat="42.418572" lon="-8.572767"><ele>238.0</ele><time>2026-03-28T10:14:16.009Z</time></trkpt><trkpt lat="42.4185319" lon="-8.5726857"><ele>238.0</ele><time>2026-03-28T10:14:18.009Z</time></trkpt><trkpt lat="42.4185476" lon="-8.5725912"><ele>238.0</ele><time>2026-03-28T10:14:21.999Z</time></trkpt><trkpt lat="42.4184854" lon="-8.5725451"><ele>238.0</ele><time>2026-03-28T10:15:54.009Z</time></trkpt><trkpt lat="42.4184631" lon="-8.5726309"><ele>238.0</ele><time>2026-03-28T10:24:25.99Z</time></trkpt><trkpt lat="42.4185242" lon="-8.57268"><ele>240.71428571428572</ele><time>2026-03-28T10:24:31.993Z</time></trkpt><trkpt lat="42.4184875" lon="-8.5726056"><ele>243.42857142857144</ele><time>2026-03-28T10:25:10.999Z</time></trkpt><trkpt lat="42.4184395" lon="-8.5725428"><ele>246.14285714285714</ele><time>2026-03-28T10:25:34Z</time></trkpt><trkpt lat="42.4184873" lon="-8.572606"><ele>248.85714285714286</ele><time>2026-03-28T10:26:12.991Z</time></trkpt><trkpt lat="42.4185152" lon="-8.5725114"><ele>251.57142857142858</ele><time>2026-03-28T10:26:55.999Z</time></trkpt><trkpt lat="42.4184908" lon="-8.5725969"><ele>254.28571428571428</ele><time>2026-03-28T10:28:04.992Z</time></trkpt><trkpt lat="42.4185113" lon="-8.5726792"><ele>257.0</ele><time>2026-03-28T10:29:04.994Z</time></trkpt><trkpt lat="42.4185522" lon="-8.5726121"><ele>257.0</ele><time>2026-03-28T10:29:14.995Z</time></trkpt><trkpt lat="42.4184859" lon="-8.5726295"><ele>257.0</ele><time>2026-03-28T10:30:08.99Z</time></trkpt><trkpt lat="42.418514" lon="-8.5725457"><ele>257.0</ele><time>2026-03-28T10:30:21.997Z</time></trkpt><trkpt lat="42.4184485" lon="-8.5726061"><ele>257.0</ele><time>2026-03-28T10:30:30.993Z</time></trkpt><trkpt lat="42.4183587" lon="-8.5726799"><ele>257.0</ele><time>2026-03-28T10:30:32.994Z</time></trkpt><trkpt lat="42.4182815" lon="-8.5727505"><ele>257.0</ele><time>2026-03-28T10:30:35.009Z</time></trkpt><trkpt lat="42.4182047" lon="-8.5728107"><ele>257.0</ele><time>2026-03-28T10:30:36.995Z</time></trkpt><trkpt lat="42.4181374" lon="-8.5728538"><ele>257.0</ele><time>2026-03-28T10:30:38.991Z</time></trkpt><trkpt lat="42.4180632" lon="-8.5729585"><ele>257.0</ele><time>2026-03-28T10:30:41Z</time></trkpt><trkpt lat="42.4180196" lon="-8.5730299"><ele>257.0</ele><time>2026-03-28T10:30:41.994Z</time></trkpt><trkpt lat="42.4179721" lon="-8.5731074"><ele>257.0</ele><time>2026-03-28T10:30:43.001Z</time></trkpt><trkpt lat="42.4179192" lon="-8.5731843"><ele>257.0</ele><time>2026-03-28T10:30:43.988Z</time></trkpt><trkpt lat="42.4178621" lon="-8.5732733"><ele>257.6</ele><time>2026-03-28T10:30:44.995Z</time></trkpt><trkpt lat="42.4178082" lon="-8.5733676"><ele>258.2</ele><time>2026-03-28T10:30:45.998Z</time></trkpt><trkpt lat="42.417736" lon="-8.5734511"><ele>258.8</ele><time>2026-03-28T10:30:46.998Z</time></trkpt><trkpt lat="42.4176648" lon="-8.5735391"><ele>259.4</ele><time>2026-03-28T10:30:47.99Z</time></trkpt><trkpt lat="42.4175879" lon="-8.5736184"><ele>260.0</ele><time>2026-03-28T10:30:48.997Z</time></trkpt><trkpt lat="42.4175188" lon="-8.5737178"><ele>260.4</ele><time>2026-03-28T10:30:49.991Z</time></trkpt><trkpt lat="42.4174416" lon="-8.5738163"><ele>260.8</ele><time>2026-03-28T10:30:50.995Z</time></trkpt><trkpt lat="42.4173475" lon="-8.573895"><ele>261.2</ele><time>2026-03-28T10:30:51.989Z</time></trkpt><trkpt lat="42.4172763" lon="-8.5739642"><ele>261.6</ele><time>2026-03-28T10:30:52.992Z</time></trkpt><trkpt lat="42.4171695" lon="-8.5740159"><ele>262.0</ele><time>2026-03-28T10:30:53.999Z</time></trkpt><trkpt lat="42.4170683" lon="-8.5740421"><ele>262.0</ele><time>2026-03-28T10:30:54.997Z</time></trkpt><trkpt lat="42.4169579" lon="-8.5740672"><ele>262.0</ele><time>2026-03-28T10:30:55.986Z</time></trkpt><trkpt lat="42.4168565" lon="-8.5740614"><ele>262.0</ele><time>2026-03-28T10:30:56.999Z</time></trkpt><trkpt lat="42.4167635" lon="-8.574013"><ele>262.0</ele><time>2026-03-28T10:30:57.991Z</time></trkpt><trkpt lat="42.4166677" lon="-8.5739448"><ele>262.0</ele><time>2026-03-28T10:30:58.996Z</time></trkpt><trkpt lat="42.4165714" lon="-8.5738826"><ele>262.0</ele><time>2026-03-28T10:31:00.018Z</time></trkpt><trkpt lat="42.4164807" lon="-8.5738277"><ele>262.0</ele><time>2026-03-28T10:31:00.991Z</time></trkpt><trkpt lat="42.4163923" lon="-8.5737972"><ele>262.0</ele><time>2026-03-28T10:31:01.997Z</time></trkpt><trkpt lat="42.4163129" lon="-8.5737852"><ele>262.0</ele><time>2026-03-28T10:31:02.99Z</time></trkpt><trkpt lat="42.4162051" lon="-8.5737891"><ele>262.0</ele><time>2026-03-28T10:31:04.992Z</time></trkpt><trkpt lat="42.416134" lon="-8.5738038"><ele>262.7142857142857</ele><time>2026-03-28T10:31:06.989Z</time></trkpt><trkpt lat="42.4160915" lon="-8.5737239"><ele>263.42857142857144</ele><time>2026-03-28T10:31:08.994Z</time></trkpt><trkpt lat="42.4160793" lon="-8.5736208"><ele>264.14285714285717</ele><time>2026-03-28T10:31:09.992Z</time></trkpt><trkpt lat="42.4160651" lon="-8.5735151"><ele>264.8571428571429</ele><time>2026-03-28T10:31:10.984Z</time></trkpt><trkpt lat="42.4160569" lon="-8.5734134"><ele>265.57142857142856</ele><time>2026-03-28T10:31:12Z</time></trkpt><trkpt lat="42.4160588" lon="-8.5733156"><ele>266.28571428571433</ele><time>2026-03-28T10:31:12.995Z</time></trkpt><trkpt lat="42.4160606" lon="-8.5732175"><ele>267.0</ele><time>2026-03-28T10:31:13.991Z</time></trkpt><trkpt lat="42.4160614" lon="-8.5730602"><ele>268.5</ele><time>2026-03-28T10:31:15.99Z</time></trkpt><trkpt lat="42.416054" lon="-8.5728887"><ele>270.0</ele><time>2026-03-28T10:31:18.009Z</time></trkpt><trkpt lat="42.4160415" lon="-8.5727857"><ele>271.5</ele><time>2026-03-28T10:31:18.992Z</time></trkpt><trkpt lat="42.4160304" lon="-8.5726795"><ele>273.0</ele><time>2026-03-28T10:31:19.992Z</time></trkpt><trkpt lat="42.4160238" lon="-8.5725749"><ele>274.5</ele><time>2026-03-28T10:31:20.992Z</time></trkpt><trkpt lat="42.4160129" lon="-8.5724746"><ele>276.0</ele><time>2026-03-28T10:31:21.988Z</time></trkpt><trkpt lat="42.4160008" lon="-8.5723812"><ele>277.0</ele><time>2026-03-28T10:31:22.995Z</time></trkpt><trkpt lat="42.4159989" lon="-8.5722218"><ele>278.0</ele><time>2026-03-28T10:31:24.99Z</time></trkpt><trkpt lat="42.4159913" lon="-8.5721332"><ele>279.0</ele><time>2026-03-28T10:31:25.984Z</time></trkpt><trkpt lat="42.4159502" lon="-8.5720488"><ele>280.0</ele><time>2026-03-28T10:31:26.991Z</time></trkpt><trkpt lat="42.4159167" lon="-8.5719735"><ele>281.0</ele><time>2026-03-28T10:31:27.99Z</time></trkpt><trkpt lat="42.4158783" lon="-8.5718952"><ele>282.0</ele><time>2026-03-28T10:31:28.99Z</time></trkpt><trkpt lat="42.4158356" lon="-8.5718142"><ele>283.6</ele><time>2026-03-28T10:31:29.992Z</time></trkpt><trkpt lat="42.4157999" lon="-8.5717349"><ele>285.2</ele><time>2026-03-28T10:31:30.991Z</time></trkpt><trkpt lat="42.4157205" lon="-8.571613"><ele>286.8</ele><time>2026-03-28T10:31:32.989Z</time></trkpt><trkpt lat="42.4156532" lon="-8.5714823"><ele>288.4</ele><time>2026-03-28T10:31:34.993Z</time></trkpt><trkpt lat="42.4155804" lon="-8.5713521"><ele>290.0</ele><time>2026-03-28T10:31:36.992Z</time></trkpt><trkpt lat="42.4154931" lon="-8.5712449"><ele>291.1666666666667</ele><time>2026-03-28T10:31:38.992Z</time></trkpt><trkpt lat="42.4154144" lon="-8.5711812"><ele>292.33333333333337</ele><time>2026-03-28T10:31:40.99Z</time></trkpt><trkpt lat="42.4153229" lon="-8.571154"><ele>293.5</ele><time>2026-03-28T10:31:42.994Z</time></trkpt><trkpt lat="42.4151994" lon="-8.5711107"><ele>294.6666666666667</ele><time>2026-03-28T10:31:44.989Z</time></trkpt><trkpt lat="42.4151326" lon="-8.571086"><ele>295.8333333333333</ele><time>2026-03-28T10:31:45.992Z</time></trkpt><trkpt lat="42.4150712" lon="-8.5710565"><ele>297.0</ele><time>2026-03-28T10:31:46.998Z</time></trkpt><trkpt lat="42.4149725" lon="-8.5710136"><ele>297.0</ele><time>2026-03-28T10:31:48.99Z</time></trkpt><trkpt lat="42.4148646" lon="-8.5709961"><ele>297.0</ele><time>2026-03-28T10:31:50.986Z</time></trkpt><trkpt lat="42.414796" lon="-8.5710112"><ele>297.0</ele><time>2026-03-28T10:31:51.991Z</time></trkpt><trkpt lat="42.4147079" lon="-8.5710328"><ele>297.0</ele><time>2026-03-28T10:31:52.991Z</time></trkpt><trkpt lat="42.4146147" lon="-8.5710407"><ele>297.0</ele><time>2026-03-28T10:31:53.991Z</time></trkpt><trkpt lat="42.414525" lon="-8.5710336"><ele>298.0</ele><time>2026-03-28T10:31:54.987Z</time></trkpt><trkpt lat="42.4144442" lon="-8.5710222"><ele>299.0</ele><time>2026-03-28T10:31:55.991Z</time></trkpt><trkpt lat="42.4143632" lon="-8.5709942"><ele>300.0</ele><time>2026-03-28T10:31:56.992Z</time></trkpt><trkpt lat="42.4142869" lon="-8.5709897"><ele>301.0</ele><time>2026-03-28T10:31:57.995Z</time></trkpt><trkpt lat="42.4142224" lon="-8.5709829"><ele>302.0</ele><time>2026-03-28T10:31:58.994Z</time></trkpt><trkpt lat="42.4141487" lon="-8.5709539"><ele>303.0</ele><time>2026-03-28T10:31:59.994Z</time></trkpt><trkpt lat="42.4140913" lon="-8.5708993"><ele>303.0</ele><time>2026-03-28T10:32:00.987Z</time></trkpt><trkpt lat="42.4140403" lon="-8.5708402"><ele>303.0</ele><time>2026-03-28T10:32:02.011Z</time></trkpt><trkpt lat="42.4140024" lon="-8.5706801"><ele>303.0</ele><time>2026-03-28T10:32:03.994Z</time></trkpt><trkpt lat="42.4139807" lon="-8.5705987"><ele>303.0</ele><time>2026-03-28T10:32:04.997Z</time></trkpt><trkpt lat="42.4139513" lon="-8.5705131"><ele>303.0</ele><time>2026-03-28T10:32:05.989Z</time></trkpt><trkpt lat="42.4139223" lon="-8.5704232"><ele>303.0</ele><time>2026-03-28T10:32:06.997Z</time></trkpt><trkpt lat="42.4138843" lon="-8.5703382"><ele>303.8333333333333</ele><time>2026-03-28T10:32:08Z</time></trkpt><trkpt lat="42.4138449" lon="-8.5702596"><ele>304.6666666666667</ele><time>2026-03-28T10:32:08.989Z</time></trkpt><trkpt lat="42.4138044" lon="-8.5701897"><ele>305.5</ele><time>2026-03-28T10:32:09.995Z</time></trkpt><trkpt lat="42.4137694" lon="-8.5700355"><ele>306.33333333333337</ele><time>2026-03-28T10:32:11.991Z</time></trkpt><trkpt lat="42.413778" lon="-8.5699506"><ele>307.1666666666667</ele><time>2026-03-28T10:32:13.001Z</time></trkpt><trkpt lat="42.4137858" lon="-8.5698569"><ele>308.0</ele><time>2026-03-28T10:32:13.994Z</time></trkpt><trkpt lat="42.4138018" lon="-8.5697727"><ele>309.2</ele><time>2026-03-28T10:32:14.989Z</time></trkpt><trkpt lat="42.4138007" lon="-8.5696011"><ele>310.4</ele><time>2026-03-28T10:32:16.99Z</time></trkpt><trkpt lat="42.4137682" lon="-8.5694315"><ele>311.59999999999997</ele><time>2026-03-28T10:32:18.994Z</time></trkpt><trkpt lat="42.413735" lon="-8.5693313"><ele>312.8</ele><time>2026-03-28T10:32:19.992Z</time></trkpt><trkpt lat="42.4136949" lon="-8.5692381"><ele>314.0</ele><time>2026-03-28T10:32:21.001Z</time></trkpt><trkpt lat="42.4136577" lon="-8.5691504"><ele>314.57142857142856</ele><time>2026-03-28T10:32:21.997Z</time></trkpt><trkpt lat="42.4136277" lon="-8.569063"><ele>315.1428571428571</ele><time>2026-03-28T10:32:22.995Z</time></trkpt><trkpt lat="42.4136033" lon="-8.5689723"><ele>315.71428571428567</ele><time>2026-03-28T10:32:24.001Z</time></trkpt><trkpt lat="42.4135817" lon="-8.5688796"><ele>316.2857142857143</ele><time>2026-03-28T10:32:25Z</time></trkpt><trkpt lat="42.4135605" lon="-8.5687877"><ele>316.8571428571429</ele><time>2026-03-28T10:32:25.991Z</time></trkpt><trkpt lat="42.4135397" lon="-8.5686974"><ele>317.4285714285714</ele><time>2026-03-28T10:32:26.999Z</time></trkpt><trkpt lat="42.4135155" lon="-8.5686037"><ele>318.0</ele><time>2026-03-28T10:32:27.989Z</time></trkpt><trkpt lat="42.4134946" lon="-8.568512"><ele>318.6666666666667</ele><time>2026-03-28T10:32:28.989Z</time></trkpt><trkpt lat="42.4134855" lon="-8.568358"><ele>319.3333333333333</ele><time>2026-03-28T10:32:30.992Z</time></trkpt><trkpt lat="42.4135039" lon="-8.5682637"><ele>320.0</ele><time>2026-03-28T10:32:31.987Z</time></trkpt><trkpt lat="42.4135221" lon="-8.5681815"><ele>320.66666666666663</ele><time>2026-03-28T10:32:32.996Z</time></trkpt><trkpt lat="42.4135395" lon="-8.568086"><ele>321.3333333333333</ele><time>2026-03-28T10:32:33.988Z</time></trkpt><trkpt lat="42.4135544" lon="-8.5679953"><ele>322.0</ele><time>2026-03-28T10:32:34.99Z</time></trkpt><trkpt lat="42.4135681" lon="-8.5679081"><ele>322.7142857142857</ele><time>2026-03-28T10:32:35.996Z</time></trkpt><trkpt lat="42.4135869" lon="-8.5678141"><ele>323.42857142857144</ele><time>2026-03-28T10:32:36.991Z</time></trkpt><trkpt lat="42.4136056" lon="-8.5677146"><ele>324.1428571428571</ele><time>2026-03-28T10:32:38.008Z</time></trkpt><trkpt lat="42.4136263" lon="-8.5676183"><ele>324.8571428571429</ele><time>2026-03-28T10:32:38.985Z</time></trkpt><trkpt lat="42.4136401" lon="-8.567524"><ele>325.57142857142856</ele><time>2026-03-28T10:32:39.995Z</time></trkpt><trkpt lat="42.413658" lon="-8.567437"><ele>326.2857142857143</ele><time>2026-03-28T10:32:40.991Z</time></trkpt><trkpt lat="42.413676" lon="-8.5673467"><ele>327.0</ele><time>2026-03-28T10:32:41.988Z</time></trkpt><trkpt lat="42.4137108" lon="-8.5672673"><ele>327.0</ele><time>2026-03-28T10:32:43.001Z</time></trkpt><trkpt lat="42.413755" lon="-8.5671954"><ele>327.0</ele><time>2026-03-28T10:32:43.995Z</time></trkpt><trkpt lat="42.4137995" lon="-8.5671162"><ele>327.0</ele><time>2026-03-28T10:32:44.988Z</time></trkpt><trkpt lat="42.4138463" lon="-8.56704"><ele>327.0</ele><time>2026-03-28T10:32:45.99Z</time></trkpt><trkpt lat="42.4138917" lon="-8.5669564"><ele>327.0</ele><time>2026-03-28T10:32:46.988Z</time></trkpt><trkpt lat="42.4139218" lon="-8.5668618"><ele>327.0</ele><time>2026-03-28T10:32:47.991Z</time></trkpt><trkpt lat="42.4139308" lon="-8.5667558"><ele>327.0</ele><time>2026-03-28T10:32:48.993Z</time></trkpt><trkpt lat="42.4139275" lon="-8.5666543"><ele>328.0</ele><time>2026-03-28T10:32:49.989Z</time></trkpt><trkpt lat="42.4139277" lon="-8.5665519"><ele>329.0</ele><time>2026-03-28T10:32:50.989Z</time></trkpt><trkpt lat="42.4139261" lon="-8.5664484"><ele>330.0</ele><time>2026-03-28T10:32:51.996Z</time></trkpt><trkpt lat="42.4139196" lon="-8.5663351"><ele>331.0</ele><time>2026-03-28T10:32:52.988Z</time></trkpt><trkpt lat="42.4139175" lon="-8.5662282"><ele>332.0</ele><time>2026-03-28T10:32:53.989Z</time></trkpt><trkpt lat="42.4139028" lon="-8.5661261"><ele>333.0</ele><time>2026-03-28T10:32:54.993Z</time></trkpt><trkpt lat="42.4138832" lon="-8.5660373"><ele>333.5</ele><time>2026-03-28T10:32:55.997Z</time></trkpt><trkpt lat="42.4138653" lon="-8.5659409"><ele>334.0</ele><time>2026-03-28T10:32:56.995Z</time></trkpt><trkpt lat="42.413857" lon="-8.5658397"><ele>334.5</ele><time>2026-03-28T10:32:57.992Z</time></trkpt><trkpt lat="42.4138452" lon="-8.5657372"><ele>335.0</ele><time>2026-03-28T10:32:58.993Z</time></trkpt><trkpt lat="42.4138274" lon="-8.5656228"><ele>335.5</ele><time>2026-03-28T10:32:59.988Z</time></trkpt><trkpt lat="42.4138115" lon="-8.5655064"><ele>336.0</ele><time>2026-03-28T10:33:00.988Z</time></trkpt><trkpt lat="42.413801" lon="-8.5653866"><ele>335.8333333333333</ele><time>2026-03-28T10:33:01.997Z</time></trkpt><trkpt lat="42.4137976" lon="-8.5652625"><ele>335.6666666666667</ele><time>2026-03-28T10:33:02.992Z</time></trkpt><trkpt lat="42.4138024" lon="-8.5651491"><ele>335.5</ele><time>2026-03-28T10:33:03.988Z</time></trkpt><trkpt lat="42.4138102" lon="-8.5650397"><ele>335.33333333333337</ele><time>2026-03-28T10:33:05.002Z</time></trkpt><trkpt lat="42.4138232" lon="-8.5649345"><ele>335.1666666666667</ele><time>2026-03-28T10:33:05.994Z</time></trkpt><trkpt lat="42.4138221" lon="-8.5648361"><ele>335.0</ele><time>2026-03-28T10:33:06.987Z</time></trkpt><trkpt lat="42.4138218" lon="-8.5647288"><ele>335.6666666666667</ele><time>2026-03-28T10:33:07.989Z</time></trkpt><trkpt lat="42.4138279" lon="-8.5646165"><ele>336.33333333333337</ele><time>2026-03-28T10:33:08.989Z</time></trkpt><trkpt lat="42.4138187" lon="-8.5645013"><ele>337.0</ele><time>2026-03-28T10:33:09.997Z</time></trkpt><trkpt lat="42.4138072" lon="-8.5643851"><ele>337.6666666666667</ele><time>2026-03-28T10:33:10.991Z</time></trkpt><trkpt lat="42.4138061" lon="-8.5642748"><ele>338.3333333333333</ele><time>2026-03-28T10:33:11.991Z</time></trkpt><trkpt lat="42.413806" lon="-8.5641655"><ele>339.0</ele><time>2026-03-28T10:33:12.991Z</time></trkpt><trkpt lat="42.4138076" lon="-8.5640534"><ele>339.0</ele><time>2026-03-28T10:33:13.991Z</time></trkpt><trkpt lat="42.4138079" lon="-8.5639464"><ele>339.0</ele><time>2026-03-28T10:33:14.987Z</time></trkpt><trkpt lat="42.413808" lon="-8.5638466"><ele>339.0</ele><time>2026-03-28T10:33:15.994Z</time></trkpt><trkpt lat="42.4138099" lon="-8.563751"><ele>339.0</ele><time>2026-03-28T10:33:16.992Z</time></trkpt><trkpt lat="42.4138177" lon="-8.5635917"><ele>339.0</ele><time>2026-03-28T10:33:18.993Z</time></trkpt><trkpt lat="42.4138138" lon="-8.5634491"><ele>339.0</ele><time>2026-03-28T10:33:20.992Z</time></trkpt><trkpt lat="42.4138474" lon="-8.5633229"><ele>338.4</ele><time>2026-03-28T10:33:22.988Z</time></trkpt><trkpt lat="42.4138625" lon="-8.5631863"><ele>337.79999999999995</ele><time>2026-03-28T10:33:25.002Z</time></trkpt><trkpt lat="42.413873" lon="-8.5630099"><ele>337.20000000000005</ele><time>2026-03-28T10:33:26.991Z</time></trkpt><trkpt lat="42.4138793" lon="-8.5629054"><ele>336.6</ele><time>2026-03-28T10:33:27.991Z</time></trkpt><trkpt lat="42.4138948" lon="-8.5628016"><ele>336.0</ele><time>2026-03-28T10:33:28.999Z</time></trkpt><trkpt lat="42.4139185" lon="-8.5626991"><ele>335.20000000000005</ele><time>2026-03-28T10:33:29.986Z</time></trkpt><trkpt lat="42.413954" lon="-8.5626035"><ele>334.40000000000003</ele><time>2026-03-28T10:33:30.991Z</time></trkpt><trkpt lat="42.4139862" lon="-8.5625213"><ele>333.6</ele><time>2026-03-28T10:33:32.002Z</time></trkpt><trkpt lat="42.4139919" lon="-8.5623939"><ele>332.8</ele><time>2026-03-28T10:33:33.985Z</time></trkpt><trkpt lat="42.4139067" lon="-8.5622645"><ele>332.0</ele><time>2026-03-28T10:33:35.989Z</time></trkpt><trkpt lat="42.4138385" lon="-8.5621787"><ele>331.5</ele><time>2026-03-28T10:33:36.991Z</time></trkpt><trkpt lat="42.4137715" lon="-8.562091"><ele>331.0</ele><time>2026-03-28T10:33:37.995Z</time></trkpt><trkpt lat="42.413713" lon="-8.5620124"><ele>330.5</ele><time>2026-03-28T10:33:38.99Z</time></trkpt><trkpt lat="42.4136499" lon="-8.5619416"><ele>330.0</ele><time>2026-03-28T10:33:39.989Z</time></trkpt><trkpt lat="42.4135864" lon="-8.5618807"><ele>329.5</ele><time>2026-03-28T10:33:41.002Z</time></trkpt><trkpt lat="42.41353" lon="-8.5618275"><ele>329.0</ele><time>2026-03-28T10:33:41.992Z</time></trkpt><trkpt lat="42.4134632" lon="-8.5617335"><ele>328.4</ele><time>2026-03-28T10:33:43.99Z</time></trkpt><trkpt lat="42.4134348" lon="-8.5616209"><ele>327.79999999999995</ele><time>2026-03-28T10:33:45.991Z</time></trkpt><trkpt lat="42.4133576" lon="-8.5614671"><ele>327.20000000000005</ele><time>2026-03-28T10:33:47.99Z</time></trkpt><trkpt lat="42.4132989" lon="-8.5613494"><ele>326.6</ele><time>2026-03-28T10:33:48.989Z</time></trkpt><trkpt lat="42.4132513" lon="-8.5612059"><ele>326.0</ele><time>2026-03-28T10:33:49.992Z</time></trkpt><trkpt lat="42.4132073" lon="-8.5610588"><ele>325.8</ele><time>2026-03-28T10:33:50.99Z</time></trkpt><trkpt lat="42.413166" lon="-8.5609227"><ele>325.6</ele><time>2026-03-28T10:33:51.99Z</time></trkpt><trkpt lat="42.4131139" lon="-8.5607987"><ele>325.4</ele><time>2026-03-28T10:33:52.997Z</time></trkpt><trkpt lat="42.4130627" lon="-8.5606795"><ele>325.2</ele><time>2026-03-28T10:33:53.991Z</time></trkpt><trkpt lat="42.4130073" lon="-8.5605725"><ele>325.0</ele><time>2026-03-28T10:33:54.996Z</time></trkpt><trkpt lat="42.4129526" lon="-8.5604799"><ele>324.0</ele><time>2026-03-28T10:33:55.993Z</time></trkpt><trkpt lat="42.4129116" lon="-8.5603893"><ele>323.0</ele><time>2026-03-28T10:33:56.992Z</time></trkpt><trkpt lat="42.4128849" lon="-8.5603076"><ele>322.0</ele><time>2026-03-28T10:33:57.989Z</time></trkpt><trkpt lat="42.41287" lon="-8.5601539"><ele>321.0</ele><time>2026-03-28T10:33:59.989Z</time></trkpt><trkpt lat="42.412919" lon="-8.5600104"><ele>320.0</ele><time>2026-03-28T10:34:01.986Z</time></trkpt><trkpt lat="42.4129521" lon="-8.559916"><ele>321.1666666666667</ele><time>2026-03-28T10:34:02.988Z</time></trkpt><trkpt lat="42.4129901" lon="-8.5598286"><ele>322.33333333333337</ele><time>2026-03-28T10:34:03.992Z</time></trkpt><trkpt lat="42.4130355" lon="-8.5597385"><ele>323.5</ele><time>2026-03-28T10:34:04.999Z</time></trkpt><trkpt lat="42.413086" lon="-8.5596456"><ele>324.6666666666667</ele><time>2026-03-28T10:34:05.993Z</time></trkpt><trkpt lat="42.4131301" lon="-8.559543"><ele>325.8333333333333</ele><time>2026-03-28T10:34:06.991Z</time></trkpt><trkpt lat="42.4131613" lon="-8.5594234"><ele>327.0</ele><time>2026-03-28T10:34:07.987Z</time></trkpt><trkpt lat="42.4131916" lon="-8.5593177"><ele>327.0</ele><time>2026-03-28T10:34:08.989Z</time></trkpt><trkpt lat="42.413224" lon="-8.5592282"><ele>327.0</ele><time>2026-03-28T10:34:09.986Z</time></trkpt><trkpt lat="42.4132618" lon="-8.5591437"><ele>327.0</ele><time>2026-03-28T10:34:10.998Z</time></trkpt><trkpt lat="42.4133027" lon="-8.55907"><ele>327.0</ele><time>2026-03-28T10:34:11.987Z</time></trkpt><trkpt lat="42.4133418" lon="-8.5590027"><ele>327.0</ele><time>2026-03-28T10:34:12.996Z</time></trkpt><trkpt lat="42.413401" lon="-8.5588505"><ele>327.0</ele><time>2026-03-28T10:34:14.985Z</time></trkpt><trkpt lat="42.4134176" lon="-8.5587579"><ele>327.0</ele><time>2026-03-28T10:34:15.996Z</time></trkpt><trkpt lat="42.4134237" lon="-8.5586618"><ele>327.0</ele><time>2026-03-28T10:34:16.995Z</time></trkpt><trkpt lat="42.4134197" lon="-8.5585709"><ele>327.0</ele><time>2026-03-28T10:34:17.993Z</time></trkpt><trkpt lat="42.4134255" lon="-8.5584755"><ele>327.0</ele><time>2026-03-28T10:34:18.986Z</time></trkpt><trkpt lat="42.4134197" lon="-8.5583801"><ele>327.0</ele><time>2026-03-28T10:34:19.993Z</time></trkpt><trkpt lat="42.4134026" lon="-8.5582477"><ele>327.0</ele><time>2026-03-28T10:34:22.001Z</time></trkpt><trkpt lat="42.4133378" lon="-8.5581726"><ele>327.0</ele><time>2026-03-28T10:34:23.99Z</time></trkpt><trkpt lat="42.4132387" lon="-8.5581406"><ele>327.0</ele><time>2026-03-28T10:34:25.987Z</time></trkpt><trkpt lat="42.4131114" lon="-8.5581155"><ele>327.0</ele><time>2026-03-28T10:34:27.989Z</time></trkpt><trkpt lat="42.4130393" lon="-8.5581003"><ele>327.0</ele><time>2026-03-28T10:34:28.994Z</time></trkpt><trkpt lat="42.4129772" lon="-8.5580858"><ele>327.0</ele><time>2026-03-28T10:34:29.989Z</time></trkpt><trkpt lat="42.412897" lon="-8.5580848"><ele>327.0</ele><time>2026-03-28T10:34:51.99Z</time></trkpt><trkpt lat="42.41282" lon="-8.5580507"><ele>326.6666666666667</ele><time>2026-03-28T10:34:55Z</time></trkpt><trkpt lat="42.4127051" lon="-8.5580536"><ele>326.3333333333333</ele><time>2026-03-28T10:34:56.987Z</time></trkpt><trkpt lat="42.4126284" lon="-8.5580379"><ele>326.0</ele><time>2026-03-28T10:34:57.988Z</time></trkpt><trkpt lat="42.4125652" lon="-8.5580157"><ele>325.66666666666663</ele><time>2026-03-28T10:34:58.997Z</time></trkpt><trkpt lat="42.4125127" lon="-8.5579431"><ele>325.3333333333333</ele><time>2026-03-28T10:34:59.984Z</time></trkpt><trkpt lat="42.4124708" lon="-8.5578046"><ele>325.0</ele><time>2026-03-28T10:35:00.989Z</time></trkpt><trkpt lat="42.4124072" lon="-8.5576351"><ele>326.5</ele><time>2026-03-28T10:35:01.988Z</time></trkpt><trkpt lat="42.4123266" lon="-8.5574828"><ele>328.0</ele><time>2026-03-28T10:35:02.994Z</time></trkpt><trkpt lat="42.412242" lon="-8.5573405"><ele>329.5</ele><time>2026-03-28T10:35:03.985Z</time></trkpt><trkpt lat="42.4121762" lon="-8.5572173"><ele>331.0</ele><time>2026-03-28T10:35:05Z</time></trkpt><trkpt lat="42.4121228" lon="-8.557133"><ele>331.0</ele><time>2026-03-28T10:35:05.991Z</time></trkpt><trkpt lat="42.412066" lon="-8.5570848"><ele>331.0</ele><time>2026-03-28T10:35:06.989Z</time></trkpt><trkpt lat="42.4119905" lon="-8.5570492"><ele>331.0</ele><time>2026-03-28T10:35:07.99Z</time></trkpt><trkpt lat="42.4119119" lon="-8.5570242"><ele>331.0</ele><time>2026-03-28T10:35:08.989Z</time></trkpt><trkpt lat="42.4118401" lon="-8.556993"><ele>331.0</ele><time>2026-03-28T10:35:09.999Z</time></trkpt><trkpt lat="42.4117465" lon="-8.5569162"><ele>331.0</ele><time>2026-03-28T10:35:11.992Z</time></trkpt><trkpt lat="42.4117027" lon="-8.5567899"><ele>331.16666666666663</ele><time>2026-03-28T10:35:13.986Z</time></trkpt><trkpt lat="42.4117175" lon="-8.5566439"><ele>331.3333333333333</ele><time>2026-03-28T10:35:15.991Z</time></trkpt><trkpt lat="42.4117358" lon="-8.5565392"><ele>331.5</ele><time>2026-03-28T10:35:17.989Z</time></trkpt><trkpt lat="42.4117804" lon="-8.5566361"><ele>331.6666666666667</ele><time>2026-03-28T10:35:41.991Z</time></trkpt><trkpt lat="42.4117682" lon="-8.5567387"><ele>331.83333333333337</ele><time>2026-03-28T10:35:43.986Z</time></trkpt><trkpt lat="42.4117591" lon="-8.5568663"><ele>332.0</ele><time>2026-03-28T10:35:45.987Z</time></trkpt><trkpt lat="42.4117972" lon="-8.5569582"><ele>332.0</ele><time>2026-03-28T10:35:47.988Z</time></trkpt><trkpt lat="42.4118531" lon="-8.5570286"><ele>332.0</ele><time>2026-03-28T10:35:49.982Z</time></trkpt><trkpt lat="42.4119138" lon="-8.5570661"><ele>332.0</ele><time>2026-03-28T10:35:51.995Z</time></trkpt><trkpt lat="42.4119956" lon="-8.5570978"><ele>332.0</ele><time>2026-03-28T10:35:53.994Z</time></trkpt><trkpt lat="42.4120928" lon="-8.5571507"><ele>332.0</ele><time>2026-03-28T10:35:55.99Z</time></trkpt><trkpt lat="42.4121814" lon="-8.557226"><ele>332.0</ele><time>2026-03-28T10:35:57.989Z</time></trkpt><trkpt lat="42.4122357" lon="-8.5573145"><ele>331.8</ele><time>2026-03-28T10:35:58.997Z</time></trkpt><trkpt lat="42.4122974" lon="-8.5574186"><ele>331.6</ele><time>2026-03-28T10:35:59.993Z</time></trkpt><trkpt lat="42.4123605" lon="-8.55752"><ele>331.40000000000003</ele><time>2026-03-28T10:36:01.003Z</time></trkpt><trkpt lat="42.412421" lon="-8.5576168"><ele>331.20000000000005</ele><time>2026-03-28T10:36:01.987Z</time></trkpt><trkpt lat="42.4124757" lon="-8.5577149"><ele>331.0</ele><time>2026-03-28T10:36:02.991Z</time></trkpt><trkpt lat="42.4125213" lon="-8.5578161"><ele>329.8</ele><time>2026-03-28T10:36:03.985Z</time></trkpt><trkpt lat="42.4125534" lon="-8.5579104"><ele>328.6</ele><time>2026-03-28T10:36:04.985Z</time></trkpt><trkpt lat="42.412601" lon="-8.5580663"><ele>327.4</ele><time>2026-03-28T10:36:06.986Z</time></trkpt><trkpt lat="42.4127215" lon="-8.5581157"><ele>326.2</ele><time>2026-03-28T10:36:08.995Z</time></trkpt><trkpt lat="42.4128158" lon="-8.5581074"><ele>325.0</ele><time>2026-03-28T10:36:09.991Z</time></trkpt><trkpt lat="42.4129138" lon="-8.5581277"><ele>325.4</ele><time>2026-03-28T10:36:10.996Z</time></trkpt><trkpt lat="42.4130059" lon="-8.5581666"><ele>325.8</ele><time>2026-03-28T10:36:11.994Z</time></trkpt><trkpt lat="42.4131055" lon="-8.5581982"><ele>326.20000000000005</ele><time>2026-03-28T10:36:12.993Z</time></trkpt><trkpt lat="42.4132063" lon="-8.5582185"><ele>326.6</ele><time>2026-03-28T10:36:13.992Z</time></trkpt><trkpt lat="42.41331" lon="-8.5582313"><ele>327.0</ele><time>2026-03-28T10:36:14.985Z</time></trkpt><trkpt lat="42.4134015" lon="-8.5582548"><ele>327.0</ele><time>2026-03-28T10:36:15.989Z</time></trkpt><trkpt lat="42.4134892" lon="-8.5582846"><ele>327.0</ele><time>2026-03-28T10:36:16.991Z</time></trkpt><trkpt lat="42.4135787" lon="-8.5583157"><ele>327.0</ele><time>2026-03-28T10:36:17.992Z</time></trkpt><trkpt lat="42.4136654" lon="-8.5583368"><ele>327.0</ele><time>2026-03-28T10:36:18.989Z</time></trkpt><trkpt lat="42.4137409" lon="-8.5583454"><ele>327.0</ele><time>2026-03-28T10:36:19.992Z</time></trkpt><trkpt lat="42.4138079" lon="-8.5583473"><ele>327.0</ele><time>2026-03-28T10:36:20.989Z</time></trkpt><trkpt lat="42.4139216" lon="-8.5583524"><ele>327.0</ele><time>2026-03-28T10:36:22.989Z</time></trkpt><trkpt lat="42.4140014" lon="-8.5583887"><ele>327.0</ele><time>2026-03-28T10:36:24.995Z</time></trkpt><trkpt lat="42.4140399" lon="-8.558463"><ele>327.0</ele><time>2026-03-28T10:36:27.987Z</time></trkpt><trkpt lat="42.4139586" lon="-8.5584179"><ele>327.0</ele><time>2026-03-28T10:36:32.99Z</time></trkpt><trkpt lat="42.4138881" lon="-8.5583707"><ele>327.0</ele><time>2026-03-28T10:36:33.982Z</time></trkpt><trkpt lat="42.4137734" lon="-8.5583368"><ele>327.0</ele><time>2026-03-28T10:36:34.993Z</time></trkpt><trkpt lat="42.4136499" lon="-8.5583269"><ele>327.0</ele><time>2026-03-28T10:36:35.992Z</time></trkpt><trkpt lat="42.413564" lon="-8.5583209"><ele>327.0</ele><time>2026-03-28T10:36:36.99Z</time></trkpt><trkpt lat="42.4134927" lon="-8.5583026"><ele>327.0</ele><time>2026-03-28T10:36:37.99Z</time></trkpt><trkpt lat="42.4134303" lon="-8.5582824"><ele>327.0</ele><time>2026-03-28T10:36:38.986Z</time></trkpt><trkpt lat="42.4133201" lon="-8.5582396"><ele>327.0</ele><time>2026-03-28T10:36:40.996Z</time></trkpt><trkpt lat="42.4132418" lon="-8.5582053"><ele>327.0</ele><time>2026-03-28T10:36:41.99Z</time></trkpt><trkpt lat="42.4131444" lon="-8.5581805"><ele>327.0</ele><time>2026-03-28T10:36:42.988Z</time></trkpt><trkpt lat="42.4130415" lon="-8.5581493"><ele>327.0</ele><time>2026-03-28T10:36:43.989Z</time></trkpt><trkpt lat="42.412933" lon="-8.5581232"><ele>327.0</ele><time>2026-03-28T10:36:44.987Z</time></trkpt><trkpt lat="42.4128173" lon="-8.5580998"><ele>327.0</ele><time>2026-03-28T10:36:45.991Z</time></trkpt><trkpt lat="42.4127056" lon="-8.558086"><ele>327.0</ele><time>2026-03-28T10:36:46.991Z</time></trkpt><trkpt lat="42.4126093" lon="-8.5580592"><ele>326.6666666666667</ele><time>2026-03-28T10:36:47.991Z</time></trkpt><trkpt lat="42.4125254" lon="-8.5580288"><ele>326.3333333333333</ele><time>2026-03-28T10:36:48.984Z</time></trkpt><trkpt lat="42.4124576" lon="-8.5579645"><ele>326.0</ele><time>2026-03-28T10:36:49.993Z</time></trkpt><trkpt lat="42.4124223" lon="-8.5578774"><ele>325.66666666666663</ele><time>2026-03-28T10:36:51Z</time></trkpt><trkpt lat="42.4124062" lon="-8.5577818"><ele>325.3333333333333</ele><time>2026-03-28T10:36:51.986Z</time></trkpt><trkpt lat="42.4123557" lon="-8.5576569"><ele>325.0</ele><time>2026-03-28T10:36:53.99Z</time></trkpt><trkpt lat="42.4123104" lon="-8.5575234"><ele>326.0</ele><time>2026-03-28T10:36:55.983Z</time></trkpt><trkpt lat="42.4122707" lon="-8.5574438"><ele>327.0</ele><time>2026-03-28T10:36:56.996Z</time></trkpt><trkpt lat="42.4122152" lon="-8.5573573"><ele>328.0</ele><time>2026-03-28T10:36:57.987Z</time></trkpt><trkpt lat="42.4121539" lon="-8.557268"><ele>329.0</ele><time>2026-03-28T10:36:58.997Z</time></trkpt><trkpt lat="42.4121083" lon="-8.5571844"><ele>330.0</ele><time>2026-03-28T10:36:59.989Z</time></trkpt><trkpt lat="42.4120583" lon="-8.5571193"><ele>331.0</ele><time>2026-03-28T10:37:00.989Z</time></trkpt><trkpt lat="42.4119931" lon="-8.5570735"><ele>331.0</ele><time>2026-03-28T10:37:01.99Z</time></trkpt><trkpt lat="42.411928" lon="-8.5570459"><ele>331.0</ele><time>2026-03-28T10:37:02.99Z</time></trkpt><trkpt lat="42.4118206" lon="-8.556992"><ele>331.0</ele><time>2026-03-28T10:37:04.991Z</time></trkpt><trkpt lat="42.4117439" lon="-8.5569115"><ele>331.0</ele><time>2026-03-28T10:37:06.984Z</time></trkpt><trkpt lat="42.4117318" lon="-8.5568182"><ele>331.0</ele><time>2026-03-28T10:37:07.985Z</time></trkpt><trkpt lat="42.4117242" lon="-8.5567151"><ele>331.0</ele><time>2026-03-28T10:37:08.99Z</time></trkpt><trkpt lat="42.4117266" lon="-8.5566159"><ele>331.16666666666663</ele><time>2026-03-28T10:37:09.987Z</time></trkpt><trkpt lat="42.4117474" lon="-8.5565236"><ele>331.3333333333333</ele><time>2026-03-28T10:37:10.983Z</time></trkpt><trkpt lat="42.4117726" lon="-8.5564254"><ele>331.5</ele><time>2026-03-28T10:37:11.99Z</time></trkpt><trkpt lat="42.4117916" lon="-8.5563144"><ele>331.6666666666667</ele><time>2026-03-28T10:37:12.987Z</time></trkpt><trkpt lat="42.4118161" lon="-8.5561903"><ele>331.83333333333337</ele><time>2026-03-28T10:37:13.989Z</time></trkpt><trkpt lat="42.4118373" lon="-8.5560692"><ele>332.0</ele><time>2026-03-28T10:37:14.983Z</time></trkpt><trkpt lat="42.411853" lon="-8.5559397"><ele>332.20000000000005</ele><time>2026-03-28T10:37:15.993Z</time></trkpt><trkpt lat="42.4118627" lon="-8.5558024"><ele>332.4</ele><time>2026-03-28T10:37:16.986Z</time></trkpt><trkpt lat="42.4118908" lon="-8.5556671"><ele>332.6</ele><time>2026-03-28T10:37:17.997Z</time></trkpt><trkpt lat="42.4119318" lon="-8.5555313"><ele>332.79999999999995</ele><time>2026-03-28T10:37:19.003Z</time></trkpt><trkpt lat="42.4119857" lon="-8.5553994"><ele>333.0</ele><time>2026-03-28T10:37:19.989Z</time></trkpt><trkpt lat="42.412032" lon="-8.5552619"><ele>333.5</ele><time>2026-03-28T10:37:20.986Z</time></trkpt><trkpt lat="42.4120828" lon="-8.555107"><ele>334.0</ele><time>2026-03-28T10:37:21.998Z</time></trkpt><trkpt lat="42.4121354" lon="-8.5549725"><ele>334.5</ele><time>2026-03-28T10:37:22.992Z</time></trkpt><trkpt lat="42.4121927" lon="-8.5548167"><ele>335.0</ele><time>2026-03-28T10:37:23.988Z</time></trkpt><trkpt lat="42.4122529" lon="-8.5546638"><ele>334.75</ele><time>2026-03-28T10:37:24.991Z</time></trkpt><trkpt lat="42.4123126" lon="-8.5545161"><ele>334.5</ele><time>2026-03-28T10:37:25.983Z</time></trkpt><trkpt lat="42.4123733" lon="-8.5543724"><ele>334.25</ele><time>2026-03-28T10:37:26.993Z</time></trkpt><trkpt lat="42.4124371" lon="-8.5542459"><ele>334.0</ele><time>2026-03-28T10:37:28Z</time></trkpt><trkpt lat="42.4125191" lon="-8.5541358"><ele>334.0</ele><time>2026-03-28T10:37:28.989Z</time></trkpt><trkpt lat="42.4125954" lon="-8.5540208"><ele>334.0</ele><time>2026-03-28T10:37:29.984Z</time></trkpt><trkpt lat="42.4126678" lon="-8.5538971"><ele>334.0</ele><time>2026-03-28T10:37:30.987Z</time></trkpt><trkpt lat="42.4127307" lon="-8.5537683"><ele>334.0</ele><time>2026-03-28T10:37:31.989Z</time></trkpt><trkpt lat="42.4127891" lon="-8.5536269"><ele>333.75</ele><time>2026-03-28T10:37:32.983Z</time></trkpt><trkpt lat="42.4128561" lon="-8.5534783"><ele>333.5</ele><time>2026-03-28T10:37:33.986Z</time></trkpt><trkpt lat="42.4129236" lon="-8.5533376"><ele>333.25</ele><time>2026-03-28T10:37:34.989Z</time></trkpt><trkpt lat="42.4129799" lon="-8.5532149"><ele>333.0</ele><time>2026-03-28T10:37:35.991Z</time></trkpt><trkpt lat="42.4130118" lon="-8.5530943"><ele>332.4</ele><time>2026-03-28T10:37:36.99Z</time></trkpt><trkpt lat="42.4130166" lon="-8.5529721"><ele>331.79999999999995</ele><time>2026-03-28T10:37:37.997Z</time></trkpt><trkpt lat="42.4129999" lon="-8.5528301"><ele>331.2</ele><time>2026-03-28T10:37:38.992Z</time></trkpt><trkpt lat="42.4129855" lon="-8.5526765"><ele>330.6</ele><time>2026-03-28T10:37:39.999Z</time></trkpt><trkpt lat="42.4129924" lon="-8.5525118"><ele>330.0</ele><time>2026-03-28T10:37:40.984Z</time></trkpt><trkpt lat="42.4130175" lon="-8.5523394"><ele>332.0</ele><time>2026-03-28T10:37:41.987Z</time></trkpt><trkpt lat="42.4130574" lon="-8.5521632"><ele>334.0</ele><time>2026-03-28T10:37:42.996Z</time></trkpt><trkpt lat="42.4131103" lon="-8.5519903"><ele>336.0</ele><time>2026-03-28T10:37:43.992Z</time></trkpt><trkpt lat="42.4131766" lon="-8.5518377"><ele>338.0</ele><time>2026-03-28T10:37:44.993Z</time></trkpt><trkpt lat="42.413234" lon="-8.5516894"><ele>338.0</ele><time>2026-03-28T10:37:46.002Z</time></trkpt><trkpt lat="42.4132656" lon="-8.5515379"><ele>338.0</ele><time>2026-03-28T10:37:46.985Z</time></trkpt><trkpt lat="42.4132828" lon="-8.5513906"><ele>338.0</ele><time>2026-03-28T10:37:47.988Z</time></trkpt><trkpt lat="42.4133032" lon="-8.5512513"><ele>338.0</ele><time>2026-03-28T10:37:48.989Z</time></trkpt><trkpt lat="42.4133281" lon="-8.5511114"><ele>338.0</ele><time>2026-03-28T10:37:49.988Z</time></trkpt><trkpt lat="42.4133509" lon="-8.5509583"><ele>337.59999999999997</ele><time>2026-03-28T10:37:50.998Z</time></trkpt><trkpt lat="42.4133751" lon="-8.5508084"><ele>337.2</ele><time>2026-03-28T10:37:52Z</time></trkpt><trkpt lat="42.4134105" lon="-8.5506765"><ele>336.8</ele><time>2026-03-28T10:37:53.003Z</time></trkpt><trkpt lat="42.4134444" lon="-8.5505548"><ele>336.4</ele><time>2026-03-28T10:37:53.985Z</time></trkpt><trkpt lat="42.4134762" lon="-8.5504357"><ele>336.0</ele><time>2026-03-28T10:37:54.982Z</time></trkpt><trkpt lat="42.4134917" lon="-8.5503117"><ele>335.20000000000005</ele><time>2026-03-28T10:37:55.997Z</time></trkpt><trkpt lat="42.4134913" lon="-8.550183"><ele>334.40000000000003</ele><time>2026-03-28T10:37:56.994Z</time></trkpt><trkpt lat="42.413482" lon="-8.5500669"><ele>333.6</ele><time>2026-03-28T10:37:57.984Z</time></trkpt><trkpt lat="42.4134949" lon="-8.5499396"><ele>332.8</ele><time>2026-03-28T10:37:58.99Z</time></trkpt><trkpt lat="42.4135139" lon="-8.5498172"><ele>332.0</ele><time>2026-03-28T10:37:59.984Z</time></trkpt><trkpt lat="42.4135368" lon="-8.5497045"><ele>332.0</ele><time>2026-03-28T10:38:00.987Z</time></trkpt><trkpt lat="42.413571" lon="-8.5496005"><ele>332.0</ele><time>2026-03-28T10:38:02.003Z</time></trkpt><trkpt lat="42.4136114" lon="-8.5495111"><ele>332.0</ele><time>2026-03-28T10:38:02.988Z</time></trkpt><trkpt lat="42.4136553" lon="-8.5494255"><ele>332.0</ele><time>2026-03-28T10:38:03.989Z</time></trkpt><trkpt lat="42.413704" lon="-8.5493487"><ele>332.0</ele><time>2026-03-28T10:38:04.987Z</time></trkpt><trkpt lat="42.4137495" lon="-8.5492669"><ele>332.0</ele><time>2026-03-28T10:38:05.996Z</time></trkpt><trkpt lat="42.4137927" lon="-8.5491754"><ele>332.20000000000005</ele><time>2026-03-28T10:38:06.996Z</time></trkpt><trkpt lat="42.4138348" lon="-8.5490629"><ele>332.4</ele><time>2026-03-28T10:38:07.989Z</time></trkpt><trkpt lat="42.4138647" lon="-8.5489323"><ele>332.6</ele><time>2026-03-28T10:38:08.993Z</time></trkpt><trkpt lat="42.413891" lon="-8.5487997"><ele>332.79999999999995</ele><time>2026-03-28T10:38:09.983Z</time></trkpt><trkpt lat="42.4139199" lon="-8.548667"><ele>333.0</ele><time>2026-03-28T10:38:10.998Z</time></trkpt><trkpt lat="42.4139523" lon="-8.5485504"><ele>333.3333333333333</ele><time>2026-03-28T10:38:11.998Z</time></trkpt><trkpt lat="42.4139791" lon="-8.5484408"><ele>333.6666666666667</ele><time>2026-03-28T10:38:12.985Z</time></trkpt><trkpt lat="42.4139951" lon="-8.5483558"><ele>334.0</ele><time>2026-03-28T10:38:13.992Z</time></trkpt><trkpt lat="42.4139875" lon="-8.5482285"><ele>334.33333333333337</ele><time>2026-03-28T10:38:15.994Z</time></trkpt><trkpt lat="42.4140224" lon="-8.5480721"><ele>334.6666666666667</ele><time>2026-03-28T10:38:17.998Z</time></trkpt><trkpt lat="42.4140653" lon="-8.5479837"><ele>335.0</ele><time>2026-03-28T10:38:18.995Z</time></trkpt><trkpt lat="42.414113" lon="-8.5478798"><ele>335.8</ele><time>2026-03-28T10:38:19.984Z</time></trkpt><trkpt lat="42.4141536" lon="-8.5477634"><ele>336.6</ele><time>2026-03-28T10:38:20.983Z</time></trkpt><trkpt lat="42.4141852" lon="-8.5476477"><ele>337.4</ele><time>2026-03-28T10:38:22.001Z</time></trkpt><trkpt lat="42.41421" lon="-8.5475318"><ele>338.2</ele><time>2026-03-28T10:38:22.989Z</time></trkpt><trkpt lat="42.4142366" lon="-8.5474109"><ele>339.0</ele><time>2026-03-28T10:38:23.989Z</time></trkpt><trkpt lat="42.4142634" lon="-8.5473006"><ele>339.0</ele><time>2026-03-28T10:38:24.982Z</time></trkpt><trkpt lat="42.414293" lon="-8.5472048"><ele>339.0</ele><time>2026-03-28T10:38:25.989Z</time></trkpt><trkpt lat="42.4143298" lon="-8.5470884"><ele>339.0</ele><time>2026-03-28T10:38:27.987Z</time></trkpt><trkpt lat="42.4143766" lon="-8.5469908"><ele>339.0</ele><time>2026-03-28T10:38:57.995Z</time></trkpt><trkpt lat="42.4143502" lon="-8.546901"><ele>339.0</ele><time>2026-03-28T10:38:59.987Z</time></trkpt><trkpt lat="42.4143618" lon="-8.546809"><ele>339.0</ele><time>2026-03-28T10:39:01.982Z</time></trkpt><trkpt lat="42.4143928" lon="-8.5466889"><ele>341.3333333333333</ele><time>2026-03-28T10:39:04.982Z</time></trkpt><trkpt lat="42.4144229" lon="-8.5465769"><ele>343.6666666666667</ele><time>2026-03-28T10:39:06.995Z</time></trkpt><trkpt lat="42.4144429" lon="-8.5464467"><ele>346.0</ele><time>2026-03-28T10:39:08.983Z</time></trkpt><trkpt lat="42.4144735" lon="-8.546349"><ele>348.33333333333337</ele><time>2026-03-28T10:39:10.988Z</time></trkpt><trkpt lat="42.4144962" lon="-8.5462565"><ele>350.6666666666667</ele><time>2026-03-28T10:39:12.991Z</time></trkpt><trkpt lat="42.4145237" lon="-8.5461269"><ele>353.0</ele><time>2026-03-28T10:39:15.994Z</time></trkpt><trkpt lat="42.4145301" lon="-8.5460222"><ele>354.0</ele><time>2026-03-28T10:39:17.985Z</time></trkpt><trkpt lat="42.414545" lon="-8.5458546"><ele>355.0</ele><time>2026-03-28T10:39:19.984Z</time></trkpt><trkpt lat="42.4145555" lon="-8.5457603"><ele>356.0</ele><time>2026-03-28T10:39:20.99Z</time></trkpt><trkpt lat="42.4145728" lon="-8.5456761"><ele>357.0</ele><time>2026-03-28T10:39:21.988Z</time></trkpt><trkpt lat="42.4145881" lon="-8.5455912"><ele>358.0</ele><time>2026-03-28T10:39:22.985Z</time></trkpt><trkpt lat="42.4146104" lon="-8.5454182"><ele>357.5</ele><time>2026-03-28T10:39:24.993Z</time></trkpt><trkpt lat="42.4146239" lon="-8.5453216"><ele>357.0</ele><time>2026-03-28T10:39:25.988Z</time></trkpt><trkpt lat="42.4146398" lon="-8.5452252"><ele>356.5</ele><time>2026-03-28T10:39:26.983Z</time></trkpt><trkpt lat="42.4146586" lon="-8.5451395"><ele>356.0</ele><time>2026-03-28T10:39:27.992Z</time></trkpt><trkpt lat="42.4146796" lon="-8.5450526"><ele>355.5</ele><time>2026-03-28T10:39:28.989Z</time></trkpt><trkpt lat="42.414694" lon="-8.5449653"><ele>355.0</ele><time>2026-03-28T10:39:29.992Z</time></trkpt><trkpt lat="42.4147225" lon="-8.5448117"><ele>355.0</ele><time>2026-03-28T10:39:31.996Z</time></trkpt><trkpt lat="42.414758" lon="-8.5446733"><ele>355.0</ele><time>2026-03-28T10:39:34.003Z</time></trkpt><trkpt lat="42.4147877" lon="-8.5445586"><ele>355.0</ele><time>2026-03-28T10:39:36.988Z</time></trkpt><trkpt lat="42.4147729" lon="-8.5444683"><ele>355.0</ele><time>2026-03-28T10:39:38.996Z</time></trkpt><trkpt lat="42.4147372" lon="-8.5443803"><ele>355.0</ele><time>2026-03-28T10:39:40.983Z</time></trkpt><trkpt lat="42.4147172" lon="-8.5442685"><ele>355.0</ele><time>2026-03-28T10:39:42.987Z</time></trkpt><trkpt lat="42.4146978" lon="-8.5441746"><ele>357.0</ele><time>2026-03-28T10:39:44.986Z</time></trkpt><trkpt lat="42.4146906" lon="-8.5440562"><ele>359.0</ele><time>2026-03-28T10:39:46.993Z</time></trkpt><trkpt lat="42.414683" lon="-8.5439452"><ele>361.0</ele><time>2026-03-28T10:39:48.985Z</time></trkpt><trkpt lat="42.4147026" lon="-8.5438193"><ele>363.0</ele><time>2026-03-28T10:39:50.99Z</time></trkpt><trkpt lat="42.4147391" lon="-8.5437368"><ele>365.0</ele><time>2026-03-28T10:39:52.981Z</time></trkpt><trkpt lat="42.4147206" lon="-8.5436312"><ele>367.0</ele><time>2026-03-28T10:39:55.988Z</time></trkpt><trkpt lat="42.4146784" lon="-8.5435355"><ele>368.66666666666663</ele><time>2026-03-28T10:39:57.986Z</time></trkpt><trkpt lat="42.4146383" lon="-8.5434186"><ele>370.3333333333333</ele><time>2026-03-28T10:39:59.983Z</time></trkpt><trkpt lat="42.4146604" lon="-8.5433176"><ele>372.0</ele><time>2026-03-28T10:40:02.988Z</time></trkpt><trkpt lat="42.4146923" lon="-8.5432381"><ele>373.6666666666667</ele><time>2026-03-28T10:40:21.996Z</time></trkpt><trkpt lat="42.4147738" lon="-8.5432134"><ele>375.33333333333337</ele><time>2026-03-28T10:40:23.989Z</time></trkpt><trkpt lat="42.414868" lon="-8.5431653"><ele>377.0</ele><time>2026-03-28T10:40:24.985Z</time></trkpt><trkpt lat="42.4149857" lon="-8.5431113"><ele>377.0</ele><time>2026-03-28T10:40:25.98Z</time></trkpt><trkpt lat="42.4150814" lon="-8.5430543"><ele>377.0</ele><time>2026-03-28T10:40:26.993Z</time></trkpt><trkpt lat="42.4151656" lon="-8.5429813"><ele>377.0</ele><time>2026-03-28T10:40:27.989Z</time></trkpt><trkpt lat="42.4152383" lon="-8.5429009"><ele>377.0</ele><time>2026-03-28T10:40:28.984Z</time></trkpt><trkpt lat="42.4153028" lon="-8.5428228"><ele>377.0</ele><time>2026-03-28T10:40:29.993Z</time></trkpt><trkpt lat="42.4153444" lon="-8.542727"><ele>378.33333333333337</ele><time>2026-03-28T10:40:30.992Z</time></trkpt><trkpt lat="42.415372" lon="-8.5426256"><ele>379.6666666666667</ele><time>2026-03-28T10:40:31.993Z</time></trkpt><trkpt lat="42.4153852" lon="-8.5425124"><ele>381.0</ele><time>2026-03-28T10:40:32.987Z</time></trkpt><trkpt lat="42.4153892" lon="-8.542403"><ele>382.33333333333337</ele><time>2026-03-28T10:40:34.006Z</time></trkpt><trkpt lat="42.4153872" lon="-8.5422793"><ele>383.6666666666667</ele><time>2026-03-28T10:40:34.987Z</time></trkpt><trkpt lat="42.4153921" lon="-8.5421658"><ele>385.0</ele><time>2026-03-28T10:40:35.991Z</time></trkpt><trkpt lat="42.4153994" lon="-8.5420511"><ele>387.00000000000006</ele><time>2026-03-28T10:40:36.991Z</time></trkpt><trkpt lat="42.4154051" lon="-8.5419382"><ele>389.0</ele><time>2026-03-28T10:40:37.986Z</time></trkpt><trkpt lat="42.4154111" lon="-8.5418261"><ele>391.0</ele><time>2026-03-28T10:40:38.986Z</time></trkpt><trkpt lat="42.4154185" lon="-8.541712"><ele>393.0</ele><time>2026-03-28T10:40:39.988Z</time></trkpt><trkpt lat="42.4154271" lon="-8.5416023"><ele>395.00000000000006</ele><time>2026-03-28T10:40:40.991Z</time></trkpt><trkpt lat="42.4154312" lon="-8.5415009"><ele>397.0</ele><time>2026-03-28T10:40:41.99Z</time></trkpt><trkpt lat="42.4154467" lon="-8.5413972"><ele>397.0</ele><time>2026-03-28T10:40:42.985Z</time></trkpt><trkpt lat="42.4154707" lon="-8.541296"><ele>397.0</ele><time>2026-03-28T10:40:43.995Z</time></trkpt><trkpt lat="42.4154983" lon="-8.5411998"><ele>397.0</ele><time>2026-03-28T10:40:44.996Z</time></trkpt><trkpt lat="42.4155248" lon="-8.5411032"><ele>397.0</ele><time>2026-03-28T10:40:45.984Z</time></trkpt><trkpt lat="42.415556" lon="-8.5410114"><ele>397.0</ele><time>2026-03-28T10:40:46.993Z</time></trkpt><trkpt lat="42.4155764" lon="-8.5409246"><ele>397.0</ele><time>2026-03-28T10:40:47.982Z</time></trkpt><trkpt lat="42.4155969" lon="-8.5408285"><ele>397.0</ele><time>2026-03-28T10:40:48.991Z</time></trkpt><trkpt lat="42.4156203" lon="-8.5407327"><ele>397.57142857142856</ele><time>2026-03-28T10:40:50Z</time></trkpt><trkpt lat="42.4156413" lon="-8.5406429"><ele>398.1428571428571</ele><time>2026-03-28T10:40:50.995Z</time></trkpt><trkpt lat="42.4156591" lon="-8.5405427"><ele>398.7142857142857</ele><time>2026-03-28T10:40:51.986Z</time></trkpt><trkpt lat="42.4156761" lon="-8.5404444"><ele>399.2857142857143</ele><time>2026-03-28T10:40:52.987Z</time></trkpt><trkpt lat="42.4156895" lon="-8.5403421"><ele>399.8571428571429</ele><time>2026-03-28T10:40:53.984Z</time></trkpt><trkpt lat="42.4157083" lon="-8.5402415"><ele>400.42857142857144</ele><time>2026-03-28T10:40:54.987Z</time></trkpt><trkpt lat="42.4157171" lon="-8.5401461"><ele>401.0</ele><time>2026-03-28T10:40:55.986Z</time></trkpt><trkpt lat="42.4157205" lon="-8.5400437"><ele>400.99999999999994</ele><time>2026-03-28T10:40:56.99Z</time></trkpt><trkpt lat="42.4157193" lon="-8.5399501"><ele>401.0</ele><time>2026-03-28T10:40:57.986Z</time></trkpt><trkpt lat="42.4157078" lon="-8.5398295"><ele>401.0</ele><time>2026-03-28T10:40:59.985Z</time></trkpt><trkpt lat="42.4156968" lon="-8.539728"><ele>401.0</ele><time>2026-03-28T10:41:02.001Z</time></trkpt><trkpt lat="42.4156787" lon="-8.5395858"><ele>400.99999999999994</ele><time>2026-03-28T10:41:03.992Z</time></trkpt><trkpt lat="42.4156669" lon="-8.5394984"><ele>401.0</ele><time>2026-03-28T10:41:04.992Z</time></trkpt><trkpt lat="42.4156453" lon="-8.539383"><ele>400.6</ele><time>2026-03-28T10:41:05.985Z</time></trkpt><trkpt lat="42.4156282" lon="-8.5392373"><ele>400.20000000000005</ele><time>2026-03-28T10:41:06.993Z</time></trkpt><trkpt lat="42.4156197" lon="-8.5391036"><ele>399.79999999999995</ele><time>2026-03-28T10:41:07.99Z</time></trkpt><trkpt lat="42.4155957" lon="-8.5389631"><ele>399.4</ele><time>2026-03-28T10:41:08.992Z</time></trkpt><trkpt lat="42.4155797" lon="-8.538816"><ele>399.0</ele><time>2026-03-28T10:41:09.987Z</time></trkpt><trkpt lat="42.4155629" lon="-8.5386735"><ele>399.0</ele><time>2026-03-28T10:41:10.99Z</time></trkpt><trkpt lat="42.4155429" lon="-8.5385201"><ele>399.0</ele><time>2026-03-28T10:41:11.987Z</time></trkpt><trkpt lat="42.4155117" lon="-8.5383765"><ele>399.0</ele><time>2026-03-28T10:41:12.988Z</time></trkpt><trkpt lat="42.4154864" lon="-8.5382338"><ele>399.0</ele><time>2026-03-28T10:41:13.995Z</time></trkpt><trkpt lat="42.4154682" lon="-8.5380833"><ele>399.0</ele><time>2026-03-28T10:41:14.99Z</time></trkpt><trkpt lat="42.415452" lon="-8.5379441"><ele>400.6</ele><time>2026-03-28T10:41:15.99Z</time></trkpt><trkpt lat="42.4154321" lon="-8.5378347"><ele>402.2</ele><time>2026-03-28T10:41:16.992Z</time></trkpt><trkpt lat="42.4154174" lon="-8.537726"><ele>403.8</ele><time>2026-03-28T10:41:17.985Z</time></trkpt><trkpt lat="42.4153991" lon="-8.5376352"><ele>405.40000000000003</ele><time>2026-03-28T10:41:18.985Z</time></trkpt><trkpt lat="42.4153444" lon="-8.5374657"><ele>407.0</ele><time>2026-03-28T10:41:20.988Z</time></trkpt><trkpt lat="42.4153045" lon="-8.5373723"><ele>406.99999999999994</ele><time>2026-03-28T10:41:21.989Z</time></trkpt><trkpt lat="42.4152557" lon="-8.5372762"><ele>407.0</ele><time>2026-03-28T10:41:22.984Z</time></trkpt><trkpt lat="42.4152022" lon="-8.5371804"><ele>407.0</ele><time>2026-03-28T10:41:23.991Z</time></trkpt><trkpt lat="42.4151436" lon="-8.5370934"><ele>407.0</ele><time>2026-03-28T10:41:24.991Z</time></trkpt><trkpt lat="42.4150874" lon="-8.5370121"><ele>406.99999999999994</ele><time>2026-03-28T10:41:25.989Z</time></trkpt><trkpt lat="42.4150392" lon="-8.5369411"><ele>407.0</ele><time>2026-03-28T10:41:26.995Z</time></trkpt><trkpt lat="42.4149825" lon="-8.5368646"><ele>407.28571428571433</ele><time>2026-03-28T10:41:27.995Z</time></trkpt><trkpt lat="42.4149378" lon="-8.5368011"><ele>407.57142857142856</ele><time>2026-03-28T10:41:28.98Z</time></trkpt><trkpt lat="42.4148614" lon="-8.5367515"><ele>407.8571428571429</ele><time>2026-03-28T10:41:30.994Z</time></trkpt><trkpt lat="42.4147769" lon="-8.5367494"><ele>408.14285714285717</ele><time>2026-03-28T10:41:48.991Z</time></trkpt><trkpt lat="42.4147145" lon="-8.536727"><ele>408.42857142857144</ele><time>2026-03-28T10:41:49.987Z</time></trkpt><trkpt lat="42.4146491" lon="-8.536708"><ele>408.7142857142857</ele><time>2026-03-28T10:41:50.983Z</time></trkpt><trkpt lat="42.414587" lon="-8.536692"><ele>409.0</ele><time>2026-03-28T10:41:51.984Z</time></trkpt><trkpt lat="42.4145153" lon="-8.536679"><ele>408.0</ele><time>2026-03-28T10:41:52.996Z</time></trkpt><trkpt lat="42.414449" lon="-8.5366777"><ele>407.0</ele><time>2026-03-28T10:41:53.991Z</time></trkpt><trkpt lat="42.4143718" lon="-8.5366741"><ele>406.0</ele><time>2026-03-28T10:41:54.987Z</time></trkpt><trkpt lat="42.4142974" lon="-8.5366728"><ele>405.0</ele><time>2026-03-28T10:41:55.991Z</time></trkpt><trkpt lat="42.4142285" lon="-8.5366747"><ele>404.0</ele><time>2026-03-28T10:41:56.993Z</time></trkpt><trkpt lat="42.4141624" lon="-8.5366771"><ele>403.0</ele><time>2026-03-28T10:41:57.992Z</time></trkpt><trkpt lat="42.414097" lon="-8.5366885"><ele>402.0</ele><time>2026-03-28T10:41:58.99Z</time></trkpt><trkpt lat="42.4139708" lon="-8.5367249"><ele>402.0</ele><time>2026-03-28T10:42:00.983Z</time></trkpt><trkpt lat="42.4138938" lon="-8.536742"><ele>402.0</ele><time>2026-03-28T10:42:01.994Z</time></trkpt><trkpt lat="42.413813" lon="-8.536735"><ele>402.0</ele><time>2026-03-28T10:42:02.987Z</time></trkpt><trkpt lat="42.4137329" lon="-8.5367307"><ele>402.0</ele><time>2026-03-28T10:42:03.984Z</time></trkpt><trkpt lat="42.4136533" lon="-8.5367225"><ele>402.0</ele><time>2026-03-28T10:42:04.984Z</time></trkpt><trkpt lat="42.4135765" lon="-8.5367038"><ele>402.0</ele><time>2026-03-28T10:42:05.985Z</time></trkpt><trkpt lat="42.413499" lon="-8.5366804"><ele>399.57142857142856</ele><time>2026-03-28T10:42:06.983Z</time></trkpt><trkpt lat="42.4134308" lon="-8.5366479"><ele>397.14285714285717</ele><time>2026-03-28T10:42:07.985Z</time></trkpt><trkpt lat="42.4133667" lon="-8.5366067"><ele>394.7142857142857</ele><time>2026-03-28T10:42:08.985Z</time></trkpt><trkpt lat="42.4133013" lon="-8.5365619"><ele>392.2857142857143</ele><time>2026-03-28T10:42:09.988Z</time></trkpt><trkpt lat="42.4132315" lon="-8.5365155"><ele>389.8571428571429</ele><time>2026-03-28T10:42:10.999Z</time></trkpt><trkpt lat="42.4131658" lon="-8.536468"><ele>387.42857142857144</ele><time>2026-03-28T10:42:11.987Z</time></trkpt><trkpt lat="42.4130913" lon="-8.5364267"><ele>385.0</ele><time>2026-03-28T10:42:12.993Z</time></trkpt><trkpt lat="42.4130143" lon="-8.5363944"><ele>384.00000000000006</ele><time>2026-03-28T10:42:13.988Z</time></trkpt><trkpt lat="42.4129416" lon="-8.536356"><ele>383.0</ele><time>2026-03-28T10:42:14.991Z</time></trkpt><trkpt lat="42.4128854" lon="-8.5363056"><ele>382.0</ele><time>2026-03-28T10:42:15.984Z</time></trkpt><trkpt lat="42.4128398" lon="-8.5362458"><ele>381.0</ele><time>2026-03-28T10:42:16.989Z</time></trkpt><trkpt lat="42.4127701" lon="-8.5361488"><ele>380.0</ele><time>2026-03-28T10:42:18.99Z</time></trkpt><trkpt lat="42.4127179" lon="-8.5360818"><ele>379.0</ele><time>2026-03-28T10:42:24.984Z</time></trkpt><trkpt lat="42.4126858" lon="-8.5359762"><ele>379.0</ele><time>2026-03-28T10:42:29.994Z</time></trkpt><trkpt lat="42.4126727" lon="-8.5358676"><ele>379.0</ele><time>2026-03-28T10:42:31.987Z</time></trkpt><trkpt lat="42.412675" lon="-8.5357348"><ele>379.0</ele><time>2026-03-28T10:42:33.989Z</time></trkpt><trkpt lat="42.4126396" lon="-8.535551"><ele>379.0</ele><time>2026-03-28T10:42:35.988Z</time></trkpt><trkpt lat="42.4126021" lon="-8.5354527"><ele>379.0</ele><time>2026-03-28T10:42:37.001Z</time></trkpt><trkpt lat="42.412554" lon="-8.5353655"><ele>380.3333333333333</ele><time>2026-03-28T10:42:37.982Z</time></trkpt><trkpt lat="42.412492" lon="-8.5352693"><ele>381.66666666666663</ele><time>2026-03-28T10:42:38.992Z</time></trkpt><trkpt lat="42.4124318" lon="-8.5351743"><ele>383.0</ele><time>2026-03-28T10:42:39.991Z</time></trkpt><trkpt lat="42.4123754" lon="-8.5350895"><ele>384.3333333333333</ele><time>2026-03-28T10:42:40.992Z</time></trkpt><trkpt lat="42.4123107" lon="-8.5350178"><ele>385.6666666666667</ele><time>2026-03-28T10:42:41.984Z</time></trkpt><trkpt lat="42.4122505" lon="-8.5349552"><ele>387.0</ele><time>2026-03-28T10:42:42.99Z</time></trkpt><trkpt lat="42.4121836" lon="-8.5349007"><ele>384.5</ele><time>2026-03-28T10:42:43.985Z</time></trkpt><trkpt lat="42.4121085" lon="-8.5348603"><ele>382.0</ele><time>2026-03-28T10:42:44.983Z</time></trkpt><trkpt lat="42.412043" lon="-8.5348016"><ele>379.5</ele><time>2026-03-28T10:42:45.986Z</time></trkpt><trkpt lat="42.4119599" lon="-8.5347546"><ele>377.0</ele><time>2026-03-28T10:42:46.993Z</time></trkpt><trkpt lat="42.4118802" lon="-8.5347009"><ele>374.5</ele><time>2026-03-28T10:42:47.983Z</time></trkpt><trkpt lat="42.4118068" lon="-8.5346414"><ele>372.0</ele><time>2026-03-28T10:42:48.982Z</time></trkpt><trkpt lat="42.4117396" lon="-8.53459"><ele>374.7142857142857</ele><time>2026-03-28T10:42:49.984Z</time></trkpt><trkpt lat="42.4116864" lon="-8.5345319"><ele>377.42857142857144</ele><time>2026-03-28T10:42:50.986Z</time></trkpt><trkpt lat="42.4116352" lon="-8.5344635"><ele>380.1428571428571</ele><time>2026-03-28T10:42:51.985Z</time></trkpt><trkpt lat="42.4115939" lon="-8.5343839"><ele>382.8571428571429</ele><time>2026-03-28T10:42:52.988Z</time></trkpt><trkpt lat="42.4115575" lon="-8.5343074"><ele>385.57142857142856</ele><time>2026-03-28T10:42:53.99Z</time></trkpt><trkpt lat="42.4115109" lon="-8.5342296"><ele>388.2857142857143</ele><time>2026-03-28T10:42:54.991Z</time></trkpt><trkpt lat="42.4114582" lon="-8.5341594"><ele>391.0</ele><time>2026-03-28T10:42:55.983Z</time></trkpt><trkpt lat="42.4114017" lon="-8.534094"><ele>390.99999999999994</ele><time>2026-03-28T10:42:56.985Z</time></trkpt><trkpt lat="42.4113347" lon="-8.5340553"><ele>391.0</ele><time>2026-03-28T10:42:57.989Z</time></trkpt><trkpt lat="42.4112624" lon="-8.5340197"><ele>391.0</ele><time>2026-03-28T10:42:58.989Z</time></trkpt><trkpt lat="42.4111976" lon="-8.5339831"><ele>391.0</ele><time>2026-03-28T10:42:59.992Z</time></trkpt><trkpt lat="42.4111303" lon="-8.5339361"><ele>391.0</ele><time>2026-03-28T10:43:01.003Z</time></trkpt><trkpt lat="42.411065" lon="-8.5338732"><ele>390.99999999999994</ele><time>2026-03-28T10:43:01.988Z</time></trkpt><trkpt lat="42.4110153" lon="-8.5338063"><ele>391.0</ele><time>2026-03-28T10:43:02.985Z</time></trkpt><trkpt lat="42.4109707" lon="-8.5337347"><ele>392.00000000000006</ele><time>2026-03-28T10:43:03.982Z</time></trkpt><trkpt lat="42.410936" lon="-8.5336423"><ele>393.0</ele><time>2026-03-28T10:43:04.983Z</time></trkpt><trkpt lat="42.410911" lon="-8.5335513"><ele>394.0</ele><time>2026-03-28T10:43:05.987Z</time></trkpt><trkpt lat="42.4108837" lon="-8.5334731"><ele>395.0</ele><time>2026-03-28T10:43:06.987Z</time></trkpt><trkpt lat="42.4107994" lon="-8.5333542"><ele>396.00000000000006</ele><time>2026-03-28T10:43:08.995Z</time></trkpt><trkpt lat="42.4107368" lon="-8.5333282"><ele>397.0</ele><time>2026-03-28T10:43:09.99Z</time></trkpt><trkpt lat="42.4106593" lon="-8.5333163"><ele>397.00000000000006</ele><time>2026-03-28T10:43:10.982Z</time></trkpt><trkpt lat="42.4105785" lon="-8.5333276"><ele>397.0</ele><time>2026-03-28T10:43:11.99Z</time></trkpt><trkpt lat="42.4104938" lon="-8.5333512"><ele>397.0</ele><time>2026-03-28T10:43:12.989Z</time></trkpt><trkpt lat="42.4104133" lon="-8.5333718"><ele>397.0</ele><time>2026-03-28T10:43:13.986Z</time></trkpt><trkpt lat="42.4103391" lon="-8.5333726"><ele>397.00000000000006</ele><time>2026-03-28T10:43:14.991Z</time></trkpt><trkpt lat="42.4102668" lon="-8.5333571"><ele>397.0</ele><time>2026-03-28T10:43:15.994Z</time></trkpt><trkpt lat="42.4101947" lon="-8.5333415"><ele>396.00000000000006</ele><time>2026-03-28T10:43:16.989Z</time></trkpt><trkpt lat="42.4101205" lon="-8.5333189"><ele>395.0</ele><time>2026-03-28T10:43:17.984Z</time></trkpt><trkpt lat="42.4100441" lon="-8.533301"><ele>394.0</ele><time>2026-03-28T10:43:18.98Z</time></trkpt><trkpt lat="42.4099741" lon="-8.5332715"><ele>393.0</ele><time>2026-03-28T10:43:19.983Z</time></trkpt><trkpt lat="42.409896" lon="-8.5332548"><ele>392.00000000000006</ele><time>2026-03-28T10:43:20.999Z</time></trkpt><trkpt lat="42.4098185" lon="-8.533234"><ele>391.0</ele><time>2026-03-28T10:43:21.985Z</time></trkpt><trkpt lat="42.409731" lon="-8.5332115"><ele>390.0</ele><time>2026-03-28T10:43:22.992Z</time></trkpt><trkpt lat="42.4096321" lon="-8.5331955"><ele>389.0</ele><time>2026-03-28T10:43:23.986Z</time></trkpt><trkpt lat="42.4095347" lon="-8.5331721"><ele>388.0</ele><time>2026-03-28T10:43:24.983Z</time></trkpt><trkpt lat="42.4094311" lon="-8.5331289"><ele>387.0</ele><time>2026-03-28T10:43:25.988Z</time></trkpt><trkpt lat="42.4093141" lon="-8.5330576"><ele>386.0</ele><time>2026-03-28T10:43:26.987Z</time></trkpt><trkpt lat="42.4092017" lon="-8.5329661"><ele>390.0</ele><time>2026-03-28T10:43:27.989Z</time></trkpt><trkpt lat="42.4091048" lon="-8.5328658"><ele>394.0</ele><time>2026-03-28T10:43:28.994Z</time></trkpt><trkpt lat="42.4090183" lon="-8.5327517"><ele>398.0</ele><time>2026-03-28T10:43:29.981Z</time></trkpt><trkpt lat="42.4089391" lon="-8.5326227"><ele>402.0</ele><time>2026-03-28T10:43:30.989Z</time></trkpt><trkpt lat="42.4088749" lon="-8.5324747"><ele>398.0</ele><time>2026-03-28T10:43:31.993Z</time></trkpt><trkpt lat="42.4088256" lon="-8.5323043"><ele>394.0</ele><time>2026-03-28T10:43:32.981Z</time></trkpt><trkpt lat="42.4088049" lon="-8.5321202"><ele>390.0</ele><time>2026-03-28T10:43:33.986Z</time></trkpt><trkpt lat="42.4088046" lon="-8.5319403"><ele>386.0</ele><time>2026-03-28T10:43:34.986Z</time></trkpt><trkpt lat="42.4088152" lon="-8.5317812"><ele>386.0</ele><time>2026-03-28T10:43:35.984Z</time></trkpt><trkpt lat="42.4088204" lon="-8.5316277"><ele>386.0</ele><time>2026-03-28T10:43:36.982Z</time></trkpt><trkpt lat="42.408814" lon="-8.5314896"><ele>386.0</ele><time>2026-03-28T10:43:37.988Z</time></trkpt><trkpt lat="42.4087934" lon="-8.5313596"><ele>386.0</ele><time>2026-03-28T10:43:38.986Z</time></trkpt><trkpt lat="42.4087667" lon="-8.5312431"><ele>386.0</ele><time>2026-03-28T10:43:39.99Z</time></trkpt><trkpt lat="42.408741" lon="-8.5311328"><ele>387.0</ele><time>2026-03-28T10:43:40.987Z</time></trkpt><trkpt lat="42.4087184" lon="-8.5310125"><ele>388.0</ele><time>2026-03-28T10:43:41.983Z</time></trkpt><trkpt lat="42.4087018" lon="-8.530888"><ele>389.0</ele><time>2026-03-28T10:43:42.982Z</time></trkpt><trkpt lat="42.4086869" lon="-8.5307581"><ele>390.0</ele><time>2026-03-28T10:43:43.984Z</time></trkpt><trkpt lat="42.4086736" lon="-8.530624"><ele>391.0</ele><time>2026-03-28T10:43:44.993Z</time></trkpt><trkpt lat="42.4086493" lon="-8.5304897"><ele>392.33333333333337</ele><time>2026-03-28T10:43:45.984Z</time></trkpt><trkpt lat="42.408631" lon="-8.5303635"><ele>393.6666666666667</ele><time>2026-03-28T10:43:46.986Z</time></trkpt><trkpt lat="42.408614" lon="-8.5302348"><ele>395.0</ele><time>2026-03-28T10:43:47.993Z</time></trkpt><trkpt lat="42.4085976" lon="-8.5301265"><ele>396.33333333333337</ele><time>2026-03-28T10:43:48.982Z</time></trkpt><trkpt lat="42.4085796" lon="-8.5300229"><ele>397.6666666666667</ele><time>2026-03-28T10:43:49.985Z</time></trkpt><trkpt lat="42.4085612" lon="-8.5299149"><ele>399.0</ele><time>2026-03-28T10:43:50.992Z</time></trkpt><trkpt lat="42.4085302" lon="-8.5298078"><ele>399.0</ele><time>2026-03-28T10:43:51.983Z</time></trkpt><trkpt lat="42.4084902" lon="-8.5297054"><ele>399.0</ele><time>2026-03-28T10:43:52.98Z</time></trkpt><trkpt lat="42.4084283" lon="-8.5295975"><ele>399.0</ele><time>2026-03-28T10:43:53.987Z</time></trkpt><trkpt lat="42.4083626" lon="-8.5294926"><ele>399.0</ele><time>2026-03-28T10:43:54.989Z</time></trkpt><trkpt lat="42.4082888" lon="-8.52938"><ele>399.0</ele><time>2026-03-28T10:43:55.991Z</time></trkpt><trkpt lat="42.4082168" lon="-8.5292734"><ele>397.2</ele><time>2026-03-28T10:43:56.985Z</time></trkpt><trkpt lat="42.4081511" lon="-8.5291772"><ele>395.4</ele><time>2026-03-28T10:43:57.985Z</time></trkpt><trkpt lat="42.4080949" lon="-8.5290722"><ele>393.6</ele><time>2026-03-28T10:43:58.98Z</time></trkpt><trkpt lat="42.4080507" lon="-8.528955"><ele>391.8</ele><time>2026-03-28T10:43:59.984Z</time></trkpt><trkpt lat="42.4080059" lon="-8.5288387"><ele>390.0</ele><time>2026-03-28T10:44:00.991Z</time></trkpt><trkpt lat="42.4079686" lon="-8.5287168"><ele>390.0</ele><time>2026-03-28T10:44:01.987Z</time></trkpt><trkpt lat="42.4079342" lon="-8.5286017"><ele>390.0</ele><time>2026-03-28T10:44:02.987Z</time></trkpt><trkpt lat="42.407912" lon="-8.5284805"><ele>390.0</ele><time>2026-03-28T10:44:03.987Z</time></trkpt><trkpt lat="42.4079043" lon="-8.5283505"><ele>390.0</ele><time>2026-03-28T10:44:04.988Z</time></trkpt><trkpt lat="42.4079034" lon="-8.5282384"><ele>390.0</ele><time>2026-03-28T10:44:05.983Z</time></trkpt><trkpt lat="42.4079056" lon="-8.5281235"><ele>390.0</ele><time>2026-03-28T10:44:06.986Z</time></trkpt><trkpt lat="42.4079291" lon="-8.5280093"><ele>390.0</ele><time>2026-03-28T10:44:07.985Z</time></trkpt><trkpt lat="42.4079544" lon="-8.5278959"><ele>390.0</ele><time>2026-03-28T10:44:08.988Z</time></trkpt><trkpt lat="42.40798" lon="-8.5277885"><ele>390.0</ele><time>2026-03-28T10:44:09.985Z</time></trkpt><trkpt lat="42.408006" lon="-8.527683"><ele>390.0</ele><time>2026-03-28T10:44:10.984Z</time></trkpt><trkpt lat="42.4080432" lon="-8.5275746"><ele>390.0</ele><time>2026-03-28T10:44:11.988Z</time></trkpt><trkpt lat="42.4080956" lon="-8.5274766"><ele>390.0</ele><time>2026-03-28T10:44:12.984Z</time></trkpt><trkpt lat="42.4081548" lon="-8.5273833"><ele>391.6666666666667</ele><time>2026-03-28T10:44:13.991Z</time></trkpt><trkpt lat="42.408213" lon="-8.527299"><ele>393.33333333333337</ele><time>2026-03-28T10:44:15.004Z</time></trkpt><trkpt lat="42.4082646" lon="-8.5272061"><ele>395.0</ele><time>2026-03-28T10:44:15.992Z</time></trkpt><trkpt lat="42.4083155" lon="-8.5271125"><ele>396.6666666666667</ele><time>2026-03-28T10:44:16.984Z</time></trkpt><trkpt lat="42.4083643" lon="-8.5270201"><ele>398.33333333333337</ele><time>2026-03-28T10:44:17.986Z</time></trkpt><trkpt lat="42.4084113" lon="-8.5269257"><ele>400.0</ele><time>2026-03-28T10:44:18.981Z</time></trkpt><trkpt lat="42.4084575" lon="-8.5268413"><ele>400.00000000000006</ele><time>2026-03-28T10:44:19.984Z</time></trkpt><trkpt lat="42.4085121" lon="-8.5267575"><ele>400.0</ele><time>2026-03-28T10:44:20.989Z</time></trkpt><trkpt lat="42.4085632" lon="-8.5266718"><ele>400.0</ele><time>2026-03-28T10:44:21.986Z</time></trkpt><trkpt lat="42.4086174" lon="-8.5265891"><ele>400.0</ele><time>2026-03-28T10:44:22.983Z</time></trkpt><trkpt lat="42.4086687" lon="-8.5265029"><ele>400.00000000000006</ele><time>2026-03-28T10:44:23.985Z</time></trkpt><trkpt lat="42.408725" lon="-8.526413"><ele>400.0</ele><time>2026-03-28T10:44:24.978Z</time></trkpt><trkpt lat="42.4087785" lon="-8.526324"><ele>401.00000000000006</ele><time>2026-03-28T10:44:25.983Z</time></trkpt><trkpt lat="42.4088272" lon="-8.5262415"><ele>402.0</ele><time>2026-03-28T10:44:26.984Z</time></trkpt><trkpt lat="42.4088771" lon="-8.5261572"><ele>403.0</ele><time>2026-03-28T10:44:27.986Z</time></trkpt><trkpt lat="42.408931" lon="-8.5260697"><ele>404.0</ele><time>2026-03-28T10:44:28.994Z</time></trkpt><trkpt lat="42.4089867" lon="-8.5259794"><ele>405.00000000000006</ele><time>2026-03-28T10:44:29.995Z</time></trkpt><trkpt lat="42.4090499" lon="-8.5259005"><ele>406.0</ele><time>2026-03-28T10:44:30.986Z</time></trkpt><trkpt lat="42.409113" lon="-8.5258318"><ele>406.00000000000006</ele><time>2026-03-28T10:44:31.985Z</time></trkpt><trkpt lat="42.4091812" lon="-8.5257745"><ele>406.0</ele><time>2026-03-28T10:44:32.983Z</time></trkpt><trkpt lat="42.409256" lon="-8.5257114"><ele>406.0</ele><time>2026-03-28T10:44:33.984Z</time></trkpt><trkpt lat="42.4093349" lon="-8.5256471"><ele>406.0</ele><time>2026-03-28T10:44:34.981Z</time></trkpt><trkpt lat="42.409416" lon="-8.525599"><ele>406.00000000000006</ele><time>2026-03-28T10:44:35.988Z</time></trkpt><trkpt lat="42.4095033" lon="-8.525568"><ele>406.0</ele><time>2026-03-28T10:44:37.001Z</time></trkpt><trkpt lat="42.4095906" lon="-8.5255448"><ele>407.33333333333337</ele><time>2026-03-28T10:44:37.988Z</time></trkpt><trkpt lat="42.4096769" lon="-8.5254993"><ele>408.6666666666667</ele><time>2026-03-28T10:44:38.99Z</time></trkpt><trkpt lat="42.4097554" lon="-8.5254523"><ele>410.0</ele><time>2026-03-28T10:44:39.993Z</time></trkpt><trkpt lat="42.4098214" lon="-8.5253977"><ele>411.33333333333337</ele><time>2026-03-28T10:44:40.983Z</time></trkpt><trkpt lat="42.4098784" lon="-8.5253301"><ele>412.6666666666667</ele><time>2026-03-28T10:44:41.989Z</time></trkpt><trkpt lat="42.4099301" lon="-8.5252575"><ele>414.0</ele><time>2026-03-28T10:44:42.985Z</time></trkpt><trkpt lat="42.4099662" lon="-8.5251762"><ele>414.0</ele><time>2026-03-28T10:44:43.988Z</time></trkpt><trkpt lat="42.4099808" lon="-8.5250728"><ele>414.0</ele><time>2026-03-28T10:44:44.983Z</time></trkpt><trkpt lat="42.4099793" lon="-8.524963"><ele>414.0</ele><time>2026-03-28T10:44:45.988Z</time></trkpt><trkpt lat="42.4099769" lon="-8.5248433"><ele>414.0</ele><time>2026-03-28T10:44:46.986Z</time></trkpt><trkpt lat="42.4099821" lon="-8.5247315"><ele>414.0</ele><time>2026-03-28T10:44:47.985Z</time></trkpt><trkpt lat="42.4099695" lon="-8.5246432"><ele>414.0</ele><time>2026-03-28T10:44:48.992Z</time></trkpt><trkpt lat="42.4099159" lon="-8.5244597"><ele>414.5</ele><time>2026-03-28T10:44:50.983Z</time></trkpt><trkpt lat="42.4098813" lon="-8.5243545"><ele>415.0</ele><time>2026-03-28T10:44:51.984Z</time></trkpt><trkpt lat="42.4098431" lon="-8.5242534"><ele>415.5</ele><time>2026-03-28T10:44:52.994Z</time></trkpt><trkpt lat="42.4097997" lon="-8.5241538"><ele>416.0</ele><time>2026-03-28T10:44:53.989Z</time></trkpt><trkpt lat="42.409743" lon="-8.5240617"><ele>416.5</ele><time>2026-03-28T10:44:54.984Z</time></trkpt><trkpt lat="42.4096832" lon="-8.5239709"><ele>417.0</ele><time>2026-03-28T10:44:55.981Z</time></trkpt><trkpt lat="42.4096181" lon="-8.5238876"><ele>413.6666666666667</ele><time>2026-03-28T10:44:56.985Z</time></trkpt><trkpt lat="42.409557" lon="-8.5238024"><ele>410.33333333333337</ele><time>2026-03-28T10:44:57.99Z</time></trkpt><trkpt lat="42.4095182" lon="-8.5237095"><ele>407.0</ele><time>2026-03-28T10:44:58.978Z</time></trkpt><trkpt lat="42.4094627" lon="-8.5236188"><ele>403.6666666666667</ele><time>2026-03-28T10:44:59.987Z</time></trkpt><trkpt lat="42.4094046" lon="-8.5235376"><ele>400.33333333333337</ele><time>2026-03-28T10:45:00.989Z</time></trkpt><trkpt lat="42.4093567" lon="-8.5234416"><ele>397.0</ele><time>2026-03-28T10:45:01.983Z</time></trkpt><trkpt lat="42.4092985" lon="-8.5233645"><ele>397.00000000000006</ele><time>2026-03-28T10:45:02.99Z</time></trkpt><trkpt lat="42.4092471" lon="-8.5232745"><ele>397.0</ele><time>2026-03-28T10:45:03.982Z</time></trkpt><trkpt lat="42.4091998" lon="-8.5231892"><ele>397.0</ele><time>2026-03-28T10:45:04.981Z</time></trkpt><trkpt lat="42.4091575" lon="-8.5230899"><ele>397.0</ele><time>2026-03-28T10:45:05.985Z</time></trkpt><trkpt lat="42.4091185" lon="-8.5229806"><ele>397.00000000000006</ele><time>2026-03-28T10:45:06.988Z</time></trkpt><trkpt lat="42.4090923" lon="-8.5228674"><ele>397.0</ele><time>2026-03-28T10:45:07.984Z</time></trkpt><trkpt lat="42.4090736" lon="-8.5227544"><ele>397.40000000000003</ele><time>2026-03-28T10:45:08.986Z</time></trkpt><trkpt lat="42.4090386" lon="-8.5226288"><ele>397.8</ele><time>2026-03-28T10:45:09.985Z</time></trkpt><trkpt lat="42.409005" lon="-8.5225129"><ele>398.2</ele><time>2026-03-28T10:45:10.99Z</time></trkpt><trkpt lat="42.4089724" lon="-8.5223992"><ele>398.6</ele><time>2026-03-28T10:45:11.982Z</time></trkpt><trkpt lat="42.408949" lon="-8.5222839"><ele>399.0</ele><time>2026-03-28T10:45:12.984Z</time></trkpt><trkpt lat="42.4089361" lon="-8.5221759"><ele>399.8333333333333</ele><time>2026-03-28T10:45:13.981Z</time></trkpt><trkpt lat="42.4089292" lon="-8.5220541"><ele>400.66666666666663</ele><time>2026-03-28T10:45:14.984Z</time></trkpt><trkpt lat="42.4089293" lon="-8.5219304"><ele>401.5</ele><time>2026-03-28T10:45:15.991Z</time></trkpt><trkpt lat="42.4089337" lon="-8.5218093"><ele>402.3333333333333</ele><time>2026-03-28T10:45:16.98Z</time></trkpt><trkpt lat="42.4089269" lon="-8.5217015"><ele>403.16666666666663</ele><time>2026-03-28T10:45:17.983Z</time></trkpt><trkpt lat="42.4089035" lon="-8.5216086"><ele>404.0</ele><time>2026-03-28T10:45:18.985Z</time></trkpt><trkpt lat="42.4088558" lon="-8.5215365"><ele>398.3333333333333</ele><time>2026-03-28T10:45:19.986Z</time></trkpt><trkpt lat="42.4087897" lon="-8.5214858"><ele>392.66666666666663</ele><time>2026-03-28T10:45:20.982Z</time></trkpt><trkpt lat="42.4087225" lon="-8.5214454"><ele>387.0</ele><time>2026-03-28T10:45:21.982Z</time></trkpt><trkpt lat="42.4086459" lon="-8.5214348"><ele>381.3333333333333</ele><time>2026-03-28T10:45:22.995Z</time></trkpt><trkpt lat="42.4085684" lon="-8.5214008"><ele>375.66666666666663</ele><time>2026-03-28T10:45:23.985Z</time></trkpt><trkpt lat="42.4085" lon="-8.5213529"><ele>370.0</ele><time>2026-03-28T10:45:24.982Z</time></trkpt><trkpt lat="42.4084371" lon="-8.521301"><ele>370.0</ele><time>2026-03-28T10:45:25.989Z</time></trkpt><trkpt lat="42.4083776" lon="-8.5212351"><ele>370.0</ele><time>2026-03-28T10:45:26.995Z</time></trkpt><trkpt lat="42.4083054" lon="-8.5211624"><ele>370.0</ele><time>2026-03-28T10:45:27.983Z</time></trkpt><trkpt lat="42.408235" lon="-8.5210978"><ele>370.0</ele><time>2026-03-28T10:45:28.983Z</time></trkpt><trkpt lat="42.4081599" lon="-8.5210434"><ele>370.0</ele><time>2026-03-28T10:45:29.986Z</time></trkpt><trkpt lat="42.4081019" lon="-8.5210084"><ele>370.0</ele><time>2026-03-28T10:45:30.988Z</time></trkpt><trkpt lat="42.4080326" lon="-8.5210108"><ele>370.0</ele><time>2026-03-28T10:45:32.986Z</time></trkpt><trkpt lat="42.4080481" lon="-8.5211037"><ele>370.0</ele><time>2026-03-28T10:45:39.985Z</time></trkpt><trkpt lat="42.4080953" lon="-8.5211644"><ele>370.0</ele><time>2026-03-28T10:45:41.987Z</time></trkpt><trkpt lat="42.4081509" lon="-8.5212765"><ele>370.0</ele><time>2026-03-28T10:45:43.994Z</time></trkpt><trkpt lat="42.408185" lon="-8.5213598"><ele>370.0</ele><time>2026-03-28T10:45:44.983Z</time></trkpt><trkpt lat="42.4082039" lon="-8.5214423"><ele>370.0</ele><time>2026-03-28T10:45:45.99Z</time></trkpt><trkpt lat="42.4082289" lon="-8.5215894"><ele>370.0</ele><time>2026-03-28T10:45:47.989Z</time></trkpt><trkpt lat="42.4082881" lon="-8.5217132"><ele>370.0</ele><time>2026-03-28T10:45:49.991Z</time></trkpt><trkpt lat="42.4083386" lon="-8.5218226"><ele>370.0</ele><time>2026-03-28T10:45:51.982Z</time></trkpt><trkpt lat="42.4083827" lon="-8.5219394"><ele>370.0</ele><time>2026-03-28T10:45:53.982Z</time></trkpt><trkpt lat="42.4084128" lon="-8.5220603"><ele>370.0</ele><time>2026-03-28T10:45:55.988Z</time></trkpt><trkpt lat="42.4084127" lon="-8.5221723"><ele>369.0</ele><time>2026-03-28T10:45:57.984Z</time></trkpt><trkpt lat="42.4083904" lon="-8.5222602"><ele>368.0</ele><time>2026-03-28T10:45:59.986Z</time></trkpt><trkpt lat="42.4083501" lon="-8.5223397"><ele>367.0</ele><time>2026-03-28T10:46:01.987Z</time></trkpt><trkpt lat="42.4082715" lon="-8.5224252"><ele>366.0</ele><time>2026-03-28T10:46:03.997Z</time></trkpt><trkpt lat="42.408197" lon="-8.522522"><ele>365.0</ele><time>2026-03-28T10:46:05.985Z</time></trkpt><trkpt lat="42.4081257" lon="-8.5225959"><ele>364.0</ele><time>2026-03-28T10:46:07.986Z</time></trkpt><trkpt lat="42.4080223" lon="-8.52267"><ele>360.0</ele><time>2026-03-28T10:46:09.992Z</time></trkpt><trkpt lat="42.4079616" lon="-8.5227012"><ele>356.0</ele><time>2026-03-28T10:46:10.985Z</time></trkpt><trkpt lat="42.4079" lon="-8.522734"><ele>352.0</ele><time>2026-03-28T10:46:11.983Z</time></trkpt><trkpt lat="42.407839" lon="-8.5227714"><ele>348.0</ele><time>2026-03-28T10:46:12.991Z</time></trkpt><trkpt lat="42.4077212" lon="-8.5228049"><ele>344.0</ele><time>2026-03-28T10:46:14.989Z</time></trkpt><trkpt lat="42.4075927" lon="-8.522845"><ele>344.00000000000006</ele><time>2026-03-28T10:46:16.986Z</time></trkpt><trkpt lat="42.407522" lon="-8.5228791"><ele>344.0</ele><time>2026-03-28T10:46:17.984Z</time></trkpt><trkpt lat="42.4074518" lon="-8.5229215"><ele>344.0</ele><time>2026-03-28T10:46:18.985Z</time></trkpt><trkpt lat="42.4073746" lon="-8.5229626"><ele>344.0</ele><time>2026-03-28T10:46:19.99Z</time></trkpt><trkpt lat="42.4073143" lon="-8.5230077"><ele>344.0</ele><time>2026-03-28T10:46:20.983Z</time></trkpt><trkpt lat="42.4072504" lon="-8.5230519"><ele>344.00000000000006</ele><time>2026-03-28T10:46:21.987Z</time></trkpt><trkpt lat="42.4071853" lon="-8.523092"><ele>344.0</ele><time>2026-03-28T10:46:22.988Z</time></trkpt><trkpt lat="42.4071229" lon="-8.5231382"><ele>343.6666666666667</ele><time>2026-03-28T10:46:23.985Z</time></trkpt><trkpt lat="42.4070578" lon="-8.5231903"><ele>343.33333333333337</ele><time>2026-03-28T10:46:24.988Z</time></trkpt><trkpt lat="42.4069917" lon="-8.5232328"><ele>343.0</ele><time>2026-03-28T10:46:25.983Z</time></trkpt><trkpt lat="42.4069191" lon="-8.5232622"><ele>342.6666666666667</ele><time>2026-03-28T10:46:26.982Z</time></trkpt><trkpt lat="42.4068348" lon="-8.5232927"><ele>342.3333333333333</ele><time>2026-03-28T10:46:27.993Z</time></trkpt><trkpt lat="42.4067463" lon="-8.5233151"><ele>342.0</ele><time>2026-03-28T10:46:28.982Z</time></trkpt><trkpt lat="42.406664" lon="-8.5233387"><ele>342.0</ele><time>2026-03-28T10:46:29.988Z</time></trkpt><trkpt lat="42.4065833" lon="-8.5233753"><ele>342.0</ele><time>2026-03-28T10:46:30.976Z</time></trkpt><trkpt lat="42.4065057" lon="-8.5233798"><ele>342.0</ele><time>2026-03-28T10:46:31.988Z</time></trkpt><trkpt lat="42.4064299" lon="-8.5233723"><ele>342.0</ele><time>2026-03-28T10:46:32.985Z</time></trkpt><trkpt lat="42.4063575" lon="-8.5233481"><ele>342.0</ele><time>2026-03-28T10:46:33.986Z</time></trkpt><trkpt lat="42.4062788" lon="-8.5233154"><ele>342.0</ele><time>2026-03-28T10:46:34.991Z</time></trkpt><trkpt lat="42.406201" lon="-8.523284"><ele>340.20000000000005</ele><time>2026-03-28T10:46:35.983Z</time></trkpt><trkpt lat="42.4061287" lon="-8.5232656"><ele>338.4</ele><time>2026-03-28T10:46:36.984Z</time></trkpt><trkpt lat="42.4060651" lon="-8.523258"><ele>336.6</ele><time>2026-03-28T10:46:37.989Z</time></trkpt><trkpt lat="42.4059686" lon="-8.5233173"><ele>334.79999999999995</ele><time>2026-03-28T10:46:39.985Z</time></trkpt><trkpt lat="42.4058637" lon="-8.5233983"><ele>333.0</ele><time>2026-03-28T10:46:41.983Z</time></trkpt><trkpt lat="42.4057684" lon="-8.5234804"><ele>333.0</ele><time>2026-03-28T10:46:43.989Z</time></trkpt><trkpt lat="42.4056988" lon="-8.5235143"><ele>333.0</ele><time>2026-03-28T10:46:44.988Z</time></trkpt><trkpt lat="42.4056265" lon="-8.523555"><ele>333.0</ele><time>2026-03-28T10:46:45.982Z</time></trkpt><trkpt lat="42.4055617" lon="-8.5236116"><ele>333.0</ele><time>2026-03-28T10:46:46.988Z</time></trkpt><trkpt lat="42.4054893" lon="-8.523674"><ele>333.0</ele><time>2026-03-28T10:46:47.992Z</time></trkpt><trkpt lat="42.4054101" lon="-8.5237324"><ele>333.0</ele><time>2026-03-28T10:46:48.991Z</time></trkpt><trkpt lat="42.4053397" lon="-8.5238097"><ele>331.3333333333333</ele><time>2026-03-28T10:46:49.99Z</time></trkpt><trkpt lat="42.4052785" lon="-8.5238868"><ele>329.6666666666667</ele><time>2026-03-28T10:46:50.984Z</time></trkpt><trkpt lat="42.4052138" lon="-8.5239613"><ele>328.0</ele><time>2026-03-28T10:46:51.996Z</time></trkpt><trkpt lat="42.405148" lon="-8.5240447"><ele>326.33333333333337</ele><time>2026-03-28T10:46:52.982Z</time></trkpt><trkpt lat="42.4050859" lon="-8.5241267"><ele>324.6666666666667</ele><time>2026-03-28T10:46:53.987Z</time></trkpt><trkpt lat="42.405037" lon="-8.5242094"><ele>323.0</ele><time>2026-03-28T10:46:54.99Z</time></trkpt><trkpt lat="42.4049948" lon="-8.5242983"><ele>323.0</ele><time>2026-03-28T10:46:55.988Z</time></trkpt><trkpt lat="42.4049486" lon="-8.5243791"><ele>323.0</ele><time>2026-03-28T10:46:56.979Z</time></trkpt><trkpt lat="42.4049052" lon="-8.5244478"><ele>323.0</ele><time>2026-03-28T10:46:57.989Z</time></trkpt><trkpt lat="42.4048073" lon="-8.5245145"><ele>323.0</ele><time>2026-03-28T10:46:59.987Z</time></trkpt><trkpt lat="42.4047434" lon="-8.5245025"><ele>323.0</ele><time>2026-03-28T10:47:00.985Z</time></trkpt><trkpt lat="42.4046459" lon="-8.5244396"><ele>323.0</ele><time>2026-03-28T10:47:02.98Z</time></trkpt><trkpt lat="42.40454" lon="-8.5244097"><ele>322.4</ele><time>2026-03-28T10:47:04.984Z</time></trkpt><trkpt lat="42.4044409" lon="-8.5244154"><ele>321.79999999999995</ele><time>2026-03-28T10:47:06.984Z</time></trkpt><trkpt lat="42.4043528" lon="-8.5244282"><ele>321.2</ele><time>2026-03-28T10:47:08.981Z</time></trkpt><trkpt lat="42.4042533" lon="-8.5244328"><ele>320.6</ele><time>2026-03-28T10:47:10.991Z</time></trkpt><trkpt lat="42.4041626" lon="-8.5244267"><ele>320.0</ele><time>2026-03-28T10:47:12.987Z</time></trkpt><trkpt lat="42.4040767" lon="-8.5244046"><ele>320.0</ele><time>2026-03-28T10:47:14.983Z</time></trkpt><trkpt lat="42.4039943" lon="-8.5243504"><ele>320.0</ele><time>2026-03-28T10:47:16.985Z</time></trkpt><trkpt lat="42.4039028" lon="-8.5242954"><ele>320.0</ele><time>2026-03-28T10:47:18.987Z</time></trkpt><trkpt lat="42.4037972" lon="-8.5242644"><ele>320.0</ele><time>2026-03-28T10:47:20.983Z</time></trkpt><trkpt lat="42.4037014" lon="-8.5242368"><ele>320.0</ele><time>2026-03-28T10:47:22.982Z</time></trkpt><trkpt lat="42.4035959" lon="-8.5241839"><ele>321.4</ele><time>2026-03-28T10:47:24.978Z</time></trkpt><trkpt lat="42.4034897" lon="-8.5240967"><ele>322.8</ele><time>2026-03-28T10:47:26.996Z</time></trkpt><trkpt lat="42.4033961" lon="-8.5239916"><ele>324.20000000000005</ele><time>2026-03-28T10:47:28.988Z</time></trkpt><trkpt lat="42.4033098" lon="-8.5238866"><ele>325.6</ele><time>2026-03-28T10:47:30.983Z</time></trkpt><trkpt lat="42.4032577" lon="-8.5238304"><ele>327.0</ele><time>2026-03-28T10:47:31.98Z</time></trkpt><trkpt lat="42.4031949" lon="-8.5237705"><ele>324.8</ele><time>2026-03-28T10:47:32.981Z</time></trkpt><trkpt lat="42.4031205" lon="-8.5236988"><ele>322.6</ele><time>2026-03-28T10:47:33.985Z</time></trkpt><trkpt lat="42.4030393" lon="-8.5236269"><ele>320.40000000000003</ele><time>2026-03-28T10:47:34.993Z</time></trkpt><trkpt lat="42.4029519" lon="-8.5235531"><ele>318.20000000000005</ele><time>2026-03-28T10:47:35.989Z</time></trkpt><trkpt lat="42.4028571" lon="-8.523486"><ele>316.0</ele><time>2026-03-28T10:47:36.992Z</time></trkpt><trkpt lat="42.4027642" lon="-8.5234337"><ele>316.0</ele><time>2026-03-28T10:47:37.987Z</time></trkpt><trkpt lat="42.4026704" lon="-8.5233934"><ele>316.0</ele><time>2026-03-28T10:47:38.978Z</time></trkpt><trkpt lat="42.4025789" lon="-8.5233833"><ele>316.0</ele><time>2026-03-28T10:47:39.991Z</time></trkpt><trkpt lat="42.4024982" lon="-8.5234049"><ele>316.0</ele><time>2026-03-28T10:47:40.999Z</time></trkpt><trkpt lat="42.4024295" lon="-8.5234621"><ele>316.0</ele><time>2026-03-28T10:47:41.982Z</time></trkpt><trkpt lat="42.4023703" lon="-8.5235488"><ele>316.0</ele><time>2026-03-28T10:47:42.985Z</time></trkpt><trkpt lat="42.4023098" lon="-8.5236491"><ele>315.2</ele><time>2026-03-28T10:47:43.986Z</time></trkpt><trkpt lat="42.4022609" lon="-8.5237725"><ele>314.40000000000003</ele><time>2026-03-28T10:47:44.991Z</time></trkpt><trkpt lat="42.4022163" lon="-8.5239001"><ele>313.6</ele><time>2026-03-28T10:47:45.983Z</time></trkpt><trkpt lat="42.4021707" lon="-8.5240201"><ele>312.8</ele><time>2026-03-28T10:47:46.985Z</time></trkpt><trkpt lat="42.4021221" lon="-8.5241271"><ele>312.0</ele><time>2026-03-28T10:47:47.986Z</time></trkpt><trkpt lat="42.40207" lon="-8.5242237"><ele>312.0</ele><time>2026-03-28T10:47:48.987Z</time></trkpt><trkpt lat="42.402017" lon="-8.5243142"><ele>312.0</ele><time>2026-03-28T10:47:49.98Z</time></trkpt><trkpt lat="42.4019629" lon="-8.5243952"><ele>312.0</ele><time>2026-03-28T10:47:50.979Z</time></trkpt><trkpt lat="42.4019017" lon="-8.5244624"><ele>312.0</ele><time>2026-03-28T10:47:51.99Z</time></trkpt><trkpt lat="42.401839" lon="-8.5245127"><ele>312.0</ele><time>2026-03-28T10:47:52.99Z</time></trkpt><trkpt lat="42.4017766" lon="-8.5245435"><ele>312.0</ele><time>2026-03-28T10:47:53.982Z</time></trkpt><trkpt lat="42.4016782" lon="-8.5246198"><ele>312.2</ele><time>2026-03-28T10:47:55.984Z</time></trkpt><trkpt lat="42.4016241" lon="-8.5247797"><ele>312.4</ele><time>2026-03-28T10:47:57.99Z</time></trkpt><trkpt lat="42.4015978" lon="-8.5248879"><ele>312.6</ele><time>2026-03-28T10:47:58.999Z</time></trkpt><trkpt lat="42.4015666" lon="-8.5249947"><ele>312.8</ele><time>2026-03-28T10:47:59.99Z</time></trkpt><trkpt lat="42.4015301" lon="-8.5251055"><ele>313.0</ele><time>2026-03-28T10:48:00.986Z</time></trkpt><trkpt lat="42.4014869" lon="-8.5252172"><ele>313.0</ele><time>2026-03-28T10:48:01.987Z</time></trkpt><trkpt lat="42.4014473" lon="-8.525328"><ele>313.0</ele><time>2026-03-28T10:48:02.976Z</time></trkpt><trkpt lat="42.4014094" lon="-8.5254359"><ele>313.0</ele><time>2026-03-28T10:48:03.983Z</time></trkpt><trkpt lat="42.4013692" lon="-8.5255205"><ele>313.0</ele><time>2026-03-28T10:48:04.983Z</time></trkpt><trkpt lat="42.4012802" lon="-8.5256032"><ele>313.0</ele><time>2026-03-28T10:48:06.984Z</time></trkpt><trkpt lat="42.4012013" lon="-8.5256671"><ele>310.2857142857143</ele><time>2026-03-28T10:48:08.989Z</time></trkpt><trkpt lat="42.4011255" lon="-8.5257213"><ele>307.57142857142856</ele><time>2026-03-28T10:48:10.986Z</time></trkpt><trkpt lat="42.4010736" lon="-8.5257847"><ele>304.8571428571429</ele><time>2026-03-28T10:48:12.994Z</time></trkpt><trkpt lat="42.4010776" lon="-8.5258735"><ele>302.1428571428571</ele><time>2026-03-28T10:48:32.982Z</time></trkpt><trkpt lat="42.4011072" lon="-8.5259681"><ele>299.42857142857144</ele><time>2026-03-28T10:48:35.989Z</time></trkpt><trkpt lat="42.4011613" lon="-8.5260183"><ele>296.7142857142857</ele><time>2026-03-28T10:48:37.995Z</time></trkpt><trkpt lat="42.40121" lon="-8.5260788"><ele>294.0</ele><time>2026-03-28T10:48:39.983Z</time></trkpt><trkpt lat="42.4011091" lon="-8.5261228"><ele>294.0</ele><time>2026-03-28T10:48:42.992Z</time></trkpt><trkpt lat="42.4010056" lon="-8.5260981"><ele>294.0</ele><time>2026-03-28T10:48:44.984Z</time></trkpt><trkpt lat="42.4008968" lon="-8.5261278"><ele>294.0</ele><time>2026-03-28T10:48:46.982Z</time></trkpt><trkpt lat="42.400792" lon="-8.5261286"><ele>294.0</ele><time>2026-03-28T10:48:48.999Z</time></trkpt><trkpt lat="42.4006647" lon="-8.5260898"><ele>294.0</ele><time>2026-03-28T10:48:50.987Z</time></trkpt><trkpt lat="42.4005957" lon="-8.5260522"><ele>294.0</ele><time>2026-03-28T10:48:51.983Z</time></trkpt><trkpt lat="42.4005241" lon="-8.5259971"><ele>294.0</ele><time>2026-03-28T10:48:52.984Z</time></trkpt><trkpt lat="42.4004458" lon="-8.5259346"><ele>294.0</ele><time>2026-03-28T10:48:53.984Z</time></trkpt><trkpt lat="42.4003666" lon="-8.5258781"><ele>294.0</ele><time>2026-03-28T10:48:54.985Z</time></trkpt><trkpt lat="42.4002904" lon="-8.5258216"><ele>294.0</ele><time>2026-03-28T10:48:55.982Z</time></trkpt><trkpt lat="42.4002116" lon="-8.5257642"><ele>291.2</ele><time>2026-03-28T10:48:56.981Z</time></trkpt><trkpt lat="42.4001303" lon="-8.5257041"><ele>288.4</ele><time>2026-03-28T10:48:57.984Z</time></trkpt><trkpt lat="42.4000491" lon="-8.5256364"><ele>285.6</ele><time>2026-03-28T10:48:58.987Z</time></trkpt><trkpt lat="42.3999681" lon="-8.5255641"><ele>282.8</ele><time>2026-03-28T10:48:59.996Z</time></trkpt><trkpt lat="42.3998954" lon="-8.5254888"><ele>280.0</ele><time>2026-03-28T10:49:00.987Z</time></trkpt><trkpt lat="42.3998365" lon="-8.5254133"><ele>279.4</ele><time>2026-03-28T10:49:01.992Z</time></trkpt><trkpt lat="42.399784" lon="-8.5253371"><ele>278.8</ele><time>2026-03-28T10:49:02.981Z</time></trkpt><trkpt lat="42.3997409" lon="-8.5252617"><ele>278.2</ele><time>2026-03-28T10:49:03.986Z</time></trkpt><trkpt lat="42.3996844" lon="-8.5251238"><ele>277.6</ele><time>2026-03-28T10:49:05.994Z</time></trkpt><trkpt lat="42.3996419" lon="-8.5250155"><ele>277.0</ele><time>2026-03-28T10:49:07.984Z</time></trkpt><trkpt lat="42.3995401" lon="-8.5249446"><ele>277.0</ele><time>2026-03-28T10:49:09.986Z</time></trkpt><trkpt lat="42.3994736" lon="-8.5249261"><ele>277.0</ele><time>2026-03-28T10:49:10.985Z</time></trkpt><trkpt lat="42.3994076" lon="-8.5249083"><ele>277.0</ele><time>2026-03-28T10:49:11.991Z</time></trkpt><trkpt lat="42.3992969" lon="-8.5248709"><ele>277.0</ele><time>2026-03-28T10:49:13.985Z</time></trkpt><trkpt lat="42.399222" lon="-8.5248534"><ele>277.0</ele><time>2026-03-28T10:49:15.983Z</time></trkpt><trkpt lat="42.3991364" lon="-8.5248576"><ele>277.0</ele><time>2026-03-28T10:49:18.979Z</time></trkpt><trkpt lat="42.399041" lon="-8.5248062"><ele>277.0</ele><time>2026-03-28T10:49:20.989Z</time></trkpt><trkpt lat="42.3989894" lon="-8.5247524"><ele>277.0</ele><time>2026-03-28T10:49:21.983Z</time></trkpt><trkpt lat="42.3989308" lon="-8.5246966"><ele>277.0</ele><time>2026-03-28T10:49:22.993Z</time></trkpt><trkpt lat="42.3988682" lon="-8.524639"><ele>277.0</ele><time>2026-03-28T10:49:23.987Z</time></trkpt><trkpt lat="42.3987999" lon="-8.5245875"><ele>277.0</ele><time>2026-03-28T10:49:24.983Z</time></trkpt><trkpt lat="42.3987263" lon="-8.524542"><ele>277.0</ele><time>2026-03-28T10:49:25.993Z</time></trkpt><trkpt lat="42.3986598" lon="-8.5244872"><ele>277.0</ele><time>2026-03-28T10:49:26.987Z</time></trkpt><trkpt lat="42.3986012" lon="-8.5244329"><ele>275.42857142857144</ele><time>2026-03-28T10:49:27.981Z</time></trkpt><trkpt lat="42.398543" lon="-8.5243775"><ele>273.85714285714283</ele><time>2026-03-28T10:49:28.984Z</time></trkpt><trkpt lat="42.3984874" lon="-8.5243075"><ele>272.2857142857143</ele><time>2026-03-28T10:49:29.985Z</time></trkpt><trkpt lat="42.3984314" lon="-8.5242361"><ele>270.7142857142857</ele><time>2026-03-28T10:49:30.983Z</time></trkpt><trkpt lat="42.3983777" lon="-8.5241633"><ele>269.1428571428571</ele><time>2026-03-28T10:49:31.985Z</time></trkpt><trkpt lat="42.3983306" lon="-8.5240935"><ele>267.57142857142856</ele><time>2026-03-28T10:49:32.985Z</time></trkpt><trkpt lat="42.3982876" lon="-8.5240282"><ele>266.0</ele><time>2026-03-28T10:49:33.987Z</time></trkpt><trkpt lat="42.3982307" lon="-8.5239122"><ele>266.0</ele><time>2026-03-28T10:49:35.992Z</time></trkpt><trkpt lat="42.3981708" lon="-8.523833"><ele>266.0</ele><time>2026-03-28T10:49:37.988Z</time></trkpt><trkpt lat="42.3981174" lon="-8.523787"><ele>266.0</ele><time>2026-03-28T10:49:40.993Z</time></trkpt><trkpt lat="42.3980528" lon="-8.5237337"><ele>266.0</ele><time>2026-03-28T10:49:43.989Z</time></trkpt><trkpt lat="42.3980665" lon="-8.5236033"><ele>266.0</ele><time>2026-03-28T10:49:45.982Z</time></trkpt><trkpt lat="42.3981092" lon="-8.523466"><ele>266.0</ele><time>2026-03-28T10:49:46.982Z</time></trkpt><trkpt lat="42.398151" lon="-8.5233112"><ele>265.5</ele><time>2026-03-28T10:49:47.991Z</time></trkpt><trkpt lat="42.3981874" lon="-8.5231549"><ele>265.0</ele><time>2026-03-28T10:49:48.98Z</time></trkpt><trkpt lat="42.3982272" lon="-8.5229946"><ele>264.5</ele><time>2026-03-28T10:49:49.986Z</time></trkpt><trkpt lat="42.3982697" lon="-8.5228389"><ele>264.0</ele><time>2026-03-28T10:49:50.982Z</time></trkpt><trkpt lat="42.3983072" lon="-8.5226847"><ele>263.0</ele><time>2026-03-28T10:49:51.978Z</time></trkpt><trkpt lat="42.3983438" lon="-8.5225386"><ele>262.0</ele><time>2026-03-28T10:49:52.977Z</time></trkpt><trkpt lat="42.3983772" lon="-8.5224004"><ele>261.0</ele><time>2026-03-28T10:49:53.997Z</time></trkpt><trkpt lat="42.3984099" lon="-8.5222661"><ele>260.0</ele><time>2026-03-28T10:49:54.98Z</time></trkpt><trkpt lat="42.3984394" lon="-8.5221267"><ele>259.0</ele><time>2026-03-28T10:49:55.98Z</time></trkpt><trkpt lat="42.3984638" lon="-8.5219815"><ele>258.0</ele><time>2026-03-28T10:49:56.982Z</time></trkpt><trkpt lat="42.3984802" lon="-8.5218282"><ele>257.0</ele><time>2026-03-28T10:49:57.983Z</time></trkpt><trkpt lat="42.3984911" lon="-8.5216668"><ele>256.0</ele><time>2026-03-28T10:49:58.986Z</time></trkpt><trkpt lat="42.3984965" lon="-8.5214992"><ele>255.0</ele><time>2026-03-28T10:49:59.978Z</time></trkpt><trkpt lat="42.3985016" lon="-8.5213134"><ele>253.75</ele><time>2026-03-28T10:50:00.985Z</time></trkpt><trkpt lat="42.3984982" lon="-8.5211486"><ele>252.5</ele><time>2026-03-28T10:50:01.979Z</time></trkpt><trkpt lat="42.3984867" lon="-8.5209868"><ele>251.25</ele><time>2026-03-28T10:50:02.994Z</time></trkpt><trkpt lat="42.3984647" lon="-8.5208301"><ele>250.0</ele><time>2026-03-28T10:50:03.989Z</time></trkpt><trkpt lat="42.3984324" lon="-8.5206762"><ele>250.0</ele><time>2026-03-28T10:50:04.984Z</time></trkpt><trkpt lat="42.3983951" lon="-8.5205168"><ele>250.0</ele><time>2026-03-28T10:50:05.982Z</time></trkpt><trkpt lat="42.398351" lon="-8.520347"><ele>250.0</ele><time>2026-03-28T10:50:06.98Z</time></trkpt><trkpt lat="42.3982994" lon="-8.520175"><ele>250.0</ele><time>2026-03-28T10:50:07.999Z</time></trkpt><trkpt lat="42.3982375" lon="-8.5200038"><ele>249.5</ele><time>2026-03-28T10:50:08.996Z</time></trkpt><trkpt lat="42.3981686" lon="-8.5198359"><ele>249.0</ele><time>2026-03-28T10:50:09.989Z</time></trkpt><trkpt lat="42.3981019" lon="-8.5196786"><ele>248.5</ele><time>2026-03-28T10:50:10.977Z</time></trkpt><trkpt lat="42.3980168" lon="-8.5195192"><ele>248.0</ele><time>2026-03-28T10:50:11.988Z</time></trkpt><trkpt lat="42.3979128" lon="-8.5193719"><ele>244.75</ele><time>2026-03-28T10:50:12.986Z</time></trkpt><trkpt lat="42.3978073" lon="-8.519225"><ele>241.5</ele><time>2026-03-28T10:50:13.98Z</time></trkpt><trkpt lat="42.3977092" lon="-8.5190787"><ele>238.25</ele><time>2026-03-28T10:50:14.981Z</time></trkpt><trkpt lat="42.3976086" lon="-8.5189369"><ele>235.0</ele><time>2026-03-28T10:50:15.989Z</time></trkpt><trkpt lat="42.39751" lon="-8.5187964"><ele>233.25</ele><time>2026-03-28T10:50:16.981Z</time></trkpt><trkpt lat="42.3974004" lon="-8.5186568"><ele>231.5</ele><time>2026-03-28T10:50:17.977Z</time></trkpt><trkpt lat="42.3972915" lon="-8.5185298"><ele>229.75</ele><time>2026-03-28T10:50:18.979Z</time></trkpt><trkpt lat="42.3971835" lon="-8.5184064"><ele>228.0</ele><time>2026-03-28T10:50:19.982Z</time></trkpt><trkpt lat="42.3970617" lon="-8.518293"><ele>232.0</ele><time>2026-03-28T10:50:20.987Z</time></trkpt><trkpt lat="42.3969378" lon="-8.5181919"><ele>236.0</ele><time>2026-03-28T10:50:21.992Z</time></trkpt><trkpt lat="42.3968215" lon="-8.5180983"><ele>240.0</ele><time>2026-03-28T10:50:22.988Z</time></trkpt><trkpt lat="42.3967129" lon="-8.5180221"><ele>244.0</ele><time>2026-03-28T10:50:23.984Z</time></trkpt><trkpt lat="42.3966033" lon="-8.5179395"><ele>245.75</ele><time>2026-03-28T10:50:24.987Z</time></trkpt><trkpt lat="42.3964943" lon="-8.5178539"><ele>247.5</ele><time>2026-03-28T10:50:25.986Z</time></trkpt><trkpt lat="42.3963808" lon="-8.5177787"><ele>249.25</ele><time>2026-03-28T10:50:26.983Z</time></trkpt><trkpt lat="42.3962626" lon="-8.5177218"><ele>251.0</ele><time>2026-03-28T10:50:27.982Z</time></trkpt><trkpt lat="42.3961477" lon="-8.517669"><ele>253.0</ele><time>2026-03-28T10:50:28.978Z</time></trkpt><trkpt lat="42.3960289" lon="-8.5176273"><ele>255.0</ele><time>2026-03-28T10:50:29.989Z</time></trkpt><trkpt lat="42.3959094" lon="-8.5175814"><ele>257.0</ele><time>2026-03-28T10:50:30.981Z</time></trkpt><trkpt lat="42.3957893" lon="-8.5175383"><ele>259.0</ele><time>2026-03-28T10:50:31.987Z</time></trkpt><trkpt lat="42.3956625" lon="-8.5174944"><ele>259.0</ele><time>2026-03-28T10:50:32.975Z</time></trkpt><trkpt lat="42.3955316" lon="-8.5174482"><ele>259.0</ele><time>2026-03-28T10:50:33.984Z</time></trkpt><trkpt lat="42.395401" lon="-8.5174055"><ele>259.0</ele><time>2026-03-28T10:50:34.983Z</time></trkpt><trkpt lat="42.3952737" lon="-8.5173719"><ele>259.0</ele><time>2026-03-28T10:50:35.99Z</time></trkpt><trkpt lat="42.3951504" lon="-8.5173388"><ele>258.25</ele><time>2026-03-28T10:50:36.985Z</time></trkpt><trkpt lat="42.3950239" lon="-8.5173045"><ele>257.5</ele><time>2026-03-28T10:50:37.994Z</time></trkpt><trkpt lat="42.3948967" lon="-8.5172652"><ele>256.75</ele><time>2026-03-28T10:50:38.979Z</time></trkpt><trkpt lat="42.394766" lon="-8.5172253"><ele>256.0</ele><time>2026-03-28T10:50:39.992Z</time></trkpt><trkpt lat="42.3946332" lon="-8.5171805"><ele>255.75</ele><time>2026-03-28T10:50:40.983Z</time></trkpt><trkpt lat="42.3944979" lon="-8.5171418"><ele>255.5</ele><time>2026-03-28T10:50:41.987Z</time></trkpt><trkpt lat="42.3943648" lon="-8.5170998"><ele>255.25</ele><time>2026-03-28T10:50:42.992Z</time></trkpt><trkpt lat="42.3942382" lon="-8.5170648"><ele>255.0</ele><time>2026-03-28T10:50:43.977Z</time></trkpt><trkpt lat="42.3941105" lon="-8.5170345"><ele>256.75</ele><time>2026-03-28T10:50:44.982Z</time></trkpt><trkpt lat="42.3939787" lon="-8.5170134"><ele>258.5</ele><time>2026-03-28T10:50:45.989Z</time></trkpt><trkpt lat="42.3938516" lon="-8.5169844"><ele>260.25</ele><time>2026-03-28T10:50:46.98Z</time></trkpt><trkpt lat="42.393731" lon="-8.5169488"><ele>262.0</ele><time>2026-03-28T10:50:47.982Z</time></trkpt><trkpt lat="42.3936098" lon="-8.5169111"><ele>262.5</ele><time>2026-03-28T10:50:48.982Z</time></trkpt><trkpt lat="42.3934903" lon="-8.5168719"><ele>263.0</ele><time>2026-03-28T10:50:49.98Z</time></trkpt><trkpt lat="42.3933671" lon="-8.5168296"><ele>263.5</ele><time>2026-03-28T10:50:50.984Z</time></trkpt><trkpt lat="42.3932457" lon="-8.5167851"><ele>264.0</ele><time>2026-03-28T10:50:51.981Z</time></trkpt><trkpt lat="42.393122" lon="-8.5167503"><ele>263.5</ele><time>2026-03-28T10:50:52.988Z</time></trkpt><trkpt lat="42.3929946" lon="-8.5167157"><ele>263.0</ele><time>2026-03-28T10:50:53.989Z</time></trkpt><trkpt lat="42.3928631" lon="-8.5166775"><ele>262.5</ele><time>2026-03-28T10:50:54.982Z</time></trkpt><trkpt lat="42.3927295" lon="-8.5166377"><ele>262.0</ele><time>2026-03-28T10:50:55.99Z</time></trkpt><trkpt lat="42.3925956" lon="-8.5165895"><ele>262.0</ele><time>2026-03-28T10:50:56.99Z</time></trkpt><trkpt lat="42.3924812" lon="-8.5165472"><ele>262.0</ele><time>2026-03-28T10:50:57.995Z</time></trkpt><trkpt lat="42.3923854" lon="-8.5164995"><ele>262.0</ele><time>2026-03-28T10:50:58.984Z</time></trkpt><trkpt lat="42.392297" lon="-8.5164446"><ele>262.0</ele><time>2026-03-28T10:50:59.987Z</time></trkpt><trkpt lat="42.3922209" lon="-8.5163976"><ele>262.0</ele><time>2026-03-28T10:51:00.988Z</time></trkpt><trkpt lat="42.3921443" lon="-8.5163473"><ele>262.2</ele><time>2026-03-28T10:51:01.982Z</time></trkpt><trkpt lat="42.3920745" lon="-8.5162713"><ele>262.4</ele><time>2026-03-28T10:51:02.985Z</time></trkpt><trkpt lat="42.3920156" lon="-8.5161589"><ele>262.6</ele><time>2026-03-28T10:51:03.985Z</time></trkpt><trkpt lat="42.3919708" lon="-8.5160164"><ele>262.8</ele><time>2026-03-28T10:51:04.986Z</time></trkpt><trkpt lat="42.3919383" lon="-8.5158601"><ele>263.0</ele><time>2026-03-28T10:51:05.979Z</time></trkpt><trkpt lat="42.3919168" lon="-8.5156993"><ele>263.5</ele><time>2026-03-28T10:51:06.982Z</time></trkpt><trkpt lat="42.3919053" lon="-8.515534"><ele>264.0</ele><time>2026-03-28T10:51:07.987Z</time></trkpt><trkpt lat="42.3919106" lon="-8.5153745"><ele>264.5</ele><time>2026-03-28T10:51:08.985Z</time></trkpt><trkpt lat="42.3919307" lon="-8.5152176"><ele>265.0</ele><time>2026-03-28T10:51:09.992Z</time></trkpt><trkpt lat="42.3919681" lon="-8.5150642"><ele>265.0</ele><time>2026-03-28T10:51:10.982Z</time></trkpt><trkpt lat="42.3920176" lon="-8.5149116"><ele>265.0</ele><time>2026-03-28T10:51:11.987Z</time></trkpt><trkpt lat="42.3920648" lon="-8.5147653"><ele>265.0</ele><time>2026-03-28T10:51:12.981Z</time></trkpt><trkpt lat="42.3921179" lon="-8.5146117"><ele>265.0</ele><time>2026-03-28T10:51:13.985Z</time></trkpt><trkpt lat="42.3921725" lon="-8.5144546"><ele>267.75</ele><time>2026-03-28T10:51:14.984Z</time></trkpt><trkpt lat="42.3922288" lon="-8.5142888"><ele>270.5</ele><time>2026-03-28T10:51:15.987Z</time></trkpt><trkpt lat="42.3922844" lon="-8.514124"><ele>273.25</ele><time>2026-03-28T10:51:16.984Z</time></trkpt><trkpt lat="42.3923383" lon="-8.5139592"><ele>276.0</ele><time>2026-03-28T10:51:17.979Z</time></trkpt><trkpt lat="42.3923798" lon="-8.5137958"><ele>275.75</ele><time>2026-03-28T10:51:18.986Z</time></trkpt><trkpt lat="42.3923978" lon="-8.5136247"><ele>275.5</ele><time>2026-03-28T10:51:19.985Z</time></trkpt><trkpt lat="42.3923819" lon="-8.5134541"><ele>275.25</ele><time>2026-03-28T10:51:20.986Z</time></trkpt><trkpt lat="42.3923235" lon="-8.5132949"><ele>275.0</ele><time>2026-03-28T10:51:21.985Z</time></trkpt><trkpt lat="42.3922402" lon="-8.51314"><ele>273.75</ele><time>2026-03-28T10:51:22.983Z</time></trkpt><trkpt lat="42.3921406" lon="-8.5130062"><ele>272.5</ele><time>2026-03-28T10:51:23.981Z</time></trkpt><trkpt lat="42.3920187" lon="-8.5128975"><ele>271.25</ele><time>2026-03-28T10:51:24.982Z</time></trkpt><trkpt lat="42.3919002" lon="-8.5128114"><ele>270.0</ele><time>2026-03-28T10:51:25.988Z</time></trkpt><trkpt lat="42.391783" lon="-8.5127342"><ele>271.25</ele><time>2026-03-28T10:51:26.98Z</time></trkpt><trkpt lat="42.3916631" lon="-8.5126632"><ele>272.5</ele><time>2026-03-28T10:51:27.984Z</time></trkpt><trkpt lat="42.3915458" lon="-8.5125959"><ele>273.75</ele><time>2026-03-28T10:51:28.992Z</time></trkpt><trkpt lat="42.3914325" lon="-8.5125364"><ele>275.0</ele><time>2026-03-28T10:51:29.978Z</time></trkpt><trkpt lat="42.3913228" lon="-8.5124741"><ele>275.0</ele><time>2026-03-28T10:51:30.992Z</time></trkpt><trkpt lat="42.3912309" lon="-8.512384"><ele>275.0</ele><time>2026-03-28T10:51:31.985Z</time></trkpt><trkpt lat="42.3911692" lon="-8.5122615"><ele>275.0</ele><time>2026-03-28T10:51:32.982Z</time></trkpt><trkpt lat="42.3911408" lon="-8.512117"><ele>275.0</ele><time>2026-03-28T10:51:33.984Z</time></trkpt><trkpt lat="42.3911681" lon="-8.5119801"><ele>275.0</ele><time>2026-03-28T10:51:34.98Z</time></trkpt><trkpt lat="42.3912287" lon="-8.5118298"><ele>276.25</ele><time>2026-03-28T10:51:35.994Z</time></trkpt><trkpt lat="42.3912899" lon="-8.5116796"><ele>277.5</ele><time>2026-03-28T10:51:36.987Z</time></trkpt><trkpt lat="42.3913436" lon="-8.5115308"><ele>278.75</ele><time>2026-03-28T10:51:37.981Z</time></trkpt><trkpt lat="42.3913493" lon="-8.5113777"><ele>280.0</ele><time>2026-03-28T10:51:38.978Z</time></trkpt><trkpt lat="42.3913057" lon="-8.5112245"><ele>282.25</ele><time>2026-03-28T10:51:39.988Z</time></trkpt><trkpt lat="42.391232" lon="-8.5110875"><ele>284.5</ele><time>2026-03-28T10:51:40.995Z</time></trkpt><trkpt lat="42.3911409" lon="-8.5109482"><ele>286.75</ele><time>2026-03-28T10:51:41.984Z</time></trkpt><trkpt lat="42.391049" lon="-8.5108107"><ele>289.0</ele><time>2026-03-28T10:51:42.984Z</time></trkpt><trkpt lat="42.390956" lon="-8.5106886"><ele>289.0</ele><time>2026-03-28T10:51:43.991Z</time></trkpt><trkpt lat="42.3908665" lon="-8.5105709"><ele>289.0</ele><time>2026-03-28T10:51:44.981Z</time></trkpt><trkpt lat="42.3907753" lon="-8.5104387"><ele>289.0</ele><time>2026-03-28T10:51:46.004Z</time></trkpt><trkpt lat="42.390687" lon="-8.5103015"><ele>289.0</ele><time>2026-03-28T10:51:46.986Z</time></trkpt><trkpt lat="42.3905976" lon="-8.5101599"><ele>291.25</ele><time>2026-03-28T10:51:47.985Z</time></trkpt><trkpt lat="42.3905103" lon="-8.5100165"><ele>293.5</ele><time>2026-03-28T10:51:48.979Z</time></trkpt><trkpt lat="42.3904199" lon="-8.5098855"><ele>295.75</ele><time>2026-03-28T10:51:49.992Z</time></trkpt><trkpt lat="42.3903275" lon="-8.5097705"><ele>298.0</ele><time>2026-03-28T10:51:50.981Z</time></trkpt><trkpt lat="42.3902363" lon="-8.5096695"><ele>298.0</ele><time>2026-03-28T10:51:51.987Z</time></trkpt><trkpt lat="42.3901493" lon="-8.5095832"><ele>298.0</ele><time>2026-03-28T10:51:52.979Z</time></trkpt><trkpt lat="42.3900674" lon="-8.5095079"><ele>298.0</ele><time>2026-03-28T10:51:53.982Z</time></trkpt><trkpt lat="42.3899865" lon="-8.5094458"><ele>298.0</ele><time>2026-03-28T10:51:54.985Z</time></trkpt><trkpt lat="42.3899143" lon="-8.5093855"><ele>298.0</ele><time>2026-03-28T10:51:55.989Z</time></trkpt><trkpt lat="42.389851" lon="-8.5093315"><ele>298.42857142857144</ele><time>2026-03-28T10:51:56.981Z</time></trkpt><trkpt lat="42.3897955" lon="-8.5092832"><ele>298.85714285714283</ele><time>2026-03-28T10:51:57.978Z</time></trkpt><trkpt lat="42.3897319" lon="-8.5092745"><ele>299.2857142857143</ele><time>2026-03-28T10:52:04.976Z</time></trkpt><trkpt lat="42.3896692" lon="-8.5092878"><ele>299.7142857142857</ele><time>2026-03-28T10:52:08.977Z</time></trkpt><trkpt lat="42.3896245" lon="-8.5092266"><ele>300.1428571428571</ele><time>2026-03-28T11:03:34.977Z</time></trkpt><trkpt lat="42.3896841" lon="-8.5091598"><ele>300.57142857142856</ele><time>2026-03-28T11:22:15.968Z</time></trkpt><trkpt lat="42.3896729" lon="-8.5090327"><ele>301.0</ele><time>2026-03-28T11:22:18.969Z</time></trkpt><trkpt lat="42.3896335" lon="-8.5088776"><ele>302.0</ele><time>2026-03-28T11:22:20.969Z</time></trkpt><trkpt lat="42.3896132" lon="-8.5087827"><ele>303.0</ele><time>2026-03-28T11:22:21.968Z</time></trkpt><trkpt lat="42.3895912" lon="-8.5086839"><ele>304.0</ele><time>2026-03-28T11:22:22.968Z</time></trkpt><trkpt lat="42.3895631" lon="-8.5085849"><ele>305.0</ele><time>2026-03-28T11:22:23.968Z</time></trkpt><trkpt lat="42.3895422" lon="-8.5084787"><ele>306.0</ele><time>2026-03-28T11:22:24.978Z</time></trkpt><trkpt lat="42.3895137" lon="-8.50838"><ele>307.0</ele><time>2026-03-28T11:22:25.968Z</time></trkpt><trkpt lat="42.3894803" lon="-8.5082846"><ele>307.0</ele><time>2026-03-28T11:22:26.966Z</time></trkpt><trkpt lat="42.3894548" lon="-8.5082046"><ele>307.0</ele><time>2026-03-28T11:22:27.97Z</time></trkpt><trkpt lat="42.3894322" lon="-8.5081194"><ele>307.0</ele><time>2026-03-28T11:22:28.977Z</time></trkpt><trkpt lat="42.3894142" lon="-8.5080296"><ele>307.0</ele><time>2026-03-28T11:22:29.966Z</time></trkpt><trkpt lat="42.3894041" lon="-8.507944"><ele>307.0</ele><time>2026-03-28T11:22:30.975Z</time></trkpt><trkpt lat="42.3894252" lon="-8.5077793"><ele>307.0</ele><time>2026-03-28T11:22:32.972Z</time></trkpt><trkpt lat="42.3894591" lon="-8.5076879"><ele>307.8</ele><time>2026-03-28T11:22:33.97Z</time></trkpt><trkpt lat="42.389495" lon="-8.5075817"><ele>308.6</ele><time>2026-03-28T11:22:34.968Z</time></trkpt><trkpt lat="42.3895318" lon="-8.5074619"><ele>309.40000000000003</ele><time>2026-03-28T11:22:35.961Z</time></trkpt><trkpt lat="42.3895727" lon="-8.5073337"><ele>310.2</ele><time>2026-03-28T11:22:36.973Z</time></trkpt><trkpt lat="42.3896202" lon="-8.5071942"><ele>311.0</ele><time>2026-03-28T11:22:37.968Z</time></trkpt><trkpt lat="42.3896773" lon="-8.5070545"><ele>311.0</ele><time>2026-03-28T11:22:38.981Z</time></trkpt><trkpt lat="42.3897211" lon="-8.50692"><ele>311.0</ele><time>2026-03-28T11:22:39.974Z</time></trkpt><trkpt lat="42.3897584" lon="-8.5067851"><ele>311.0</ele><time>2026-03-28T11:22:40.975Z</time></trkpt><trkpt lat="42.3897875" lon="-8.5066443"><ele>311.0</ele><time>2026-03-28T11:22:41.964Z</time></trkpt><trkpt lat="42.3898048" lon="-8.5064866"><ele>311.0</ele><time>2026-03-28T11:22:42.966Z</time></trkpt><trkpt lat="42.3898079" lon="-8.5063267"><ele>311.0</ele><time>2026-03-28T11:22:43.966Z</time></trkpt><trkpt lat="42.3897954" lon="-8.5061667"><ele>311.0</ele><time>2026-03-28T11:22:44.968Z</time></trkpt><trkpt lat="42.3897729" lon="-8.5060086"><ele>311.0</ele><time>2026-03-28T11:22:45.966Z</time></trkpt><trkpt lat="42.3897317" lon="-8.5058595"><ele>311.0</ele><time>2026-03-28T11:22:46.974Z</time></trkpt><trkpt lat="42.3896931" lon="-8.5057213"><ele>309.0</ele><time>2026-03-28T11:22:47.968Z</time></trkpt><trkpt lat="42.3896561" lon="-8.5055959"><ele>307.0</ele><time>2026-03-28T11:22:48.966Z</time></trkpt><trkpt lat="42.3896183" lon="-8.5054731"><ele>305.0</ele><time>2026-03-28T11:22:49.968Z</time></trkpt><trkpt lat="42.389574" lon="-8.5053555"><ele>303.0</ele><time>2026-03-28T11:22:50.975Z</time></trkpt><trkpt lat="42.3895233" lon="-8.5052411"><ele>301.0</ele><time>2026-03-28T11:22:51.971Z</time></trkpt><trkpt lat="42.3894671" lon="-8.5051287"><ele>300.40000000000003</ele><time>2026-03-28T11:22:52.968Z</time></trkpt><trkpt lat="42.389409" lon="-8.5050175"><ele>299.8</ele><time>2026-03-28T11:22:53.969Z</time></trkpt><trkpt lat="42.3893529" lon="-8.5049043"><ele>299.20000000000005</ele><time>2026-03-28T11:22:54.968Z</time></trkpt><trkpt lat="42.3893055" lon="-8.5047906"><ele>298.6</ele><time>2026-03-28T11:22:55.974Z</time></trkpt><trkpt lat="42.3892695" lon="-8.504674"><ele>298.0</ele><time>2026-03-28T11:22:56.965Z</time></trkpt><trkpt lat="42.3892405" lon="-8.5045575"><ele>297.6</ele><time>2026-03-28T11:22:57.976Z</time></trkpt><trkpt lat="42.3892228" lon="-8.5044374"><ele>297.20000000000005</ele><time>2026-03-28T11:22:58.965Z</time></trkpt><trkpt lat="42.3892055" lon="-8.5043132"><ele>296.8</ele><time>2026-03-28T11:22:59.975Z</time></trkpt><trkpt lat="42.3891917" lon="-8.5041862"><ele>296.40000000000003</ele><time>2026-03-28T11:23:00.976Z</time></trkpt><trkpt lat="42.389183" lon="-8.50405"><ele>296.0</ele><time>2026-03-28T11:23:01.974Z</time></trkpt><trkpt lat="42.3891802" lon="-8.503909"><ele>296.0</ele><time>2026-03-28T11:23:02.969Z</time></trkpt><trkpt lat="42.3891836" lon="-8.503765"><ele>296.0</ele><time>2026-03-28T11:23:03.969Z</time></trkpt><trkpt lat="42.3891909" lon="-8.503616"><ele>296.0</ele><time>2026-03-28T11:23:04.969Z</time></trkpt><trkpt lat="42.3891982" lon="-8.503472"><ele>296.0</ele><time>2026-03-28T11:23:05.966Z</time></trkpt><trkpt lat="42.3892081" lon="-8.5033348"><ele>296.0</ele><time>2026-03-28T11:23:06.97Z</time></trkpt><trkpt lat="42.3892207" lon="-8.5032002"><ele>295.0</ele><time>2026-03-28T11:23:07.977Z</time></trkpt><trkpt lat="42.3892322" lon="-8.5030717"><ele>294.0</ele><time>2026-03-28T11:23:08.971Z</time></trkpt><trkpt lat="42.3892427" lon="-8.5029453"><ele>293.0</ele><time>2026-03-28T11:23:09.97Z</time></trkpt><trkpt lat="42.3892544" lon="-8.5028178"><ele>292.0</ele><time>2026-03-28T11:23:10.97Z</time></trkpt><trkpt lat="42.3892762" lon="-8.5026985"><ele>291.0</ele><time>2026-03-28T11:23:11.968Z</time></trkpt><trkpt lat="42.3893031" lon="-8.5025833"><ele>291.0</ele><time>2026-03-28T11:23:12.979Z</time></trkpt><trkpt lat="42.3893312" lon="-8.5024681"><ele>291.0</ele><time>2026-03-28T11:23:13.973Z</time></trkpt><trkpt lat="42.3893582" lon="-8.5023516"><ele>291.0</ele><time>2026-03-28T11:23:14.973Z</time></trkpt><trkpt lat="42.3893909" lon="-8.502237"><ele>291.0</ele><time>2026-03-28T11:23:15.978Z</time></trkpt><trkpt lat="42.3894228" lon="-8.5021263"><ele>291.0</ele><time>2026-03-28T11:23:16.976Z</time></trkpt><trkpt lat="42.3894596" lon="-8.5020209"><ele>291.0</ele><time>2026-03-28T11:23:17.964Z</time></trkpt><trkpt lat="42.3894872" lon="-8.5019156"><ele>291.2</ele><time>2026-03-28T11:23:18.965Z</time></trkpt><trkpt lat="42.3895106" lon="-8.5018174"><ele>291.40000000000003</ele><time>2026-03-28T11:23:19.97Z</time></trkpt><trkpt lat="42.3895355" lon="-8.5017313"><ele>291.6</ele><time>2026-03-28T11:23:20.971Z</time></trkpt><trkpt lat="42.3895778" lon="-8.5015919"><ele>291.8</ele><time>2026-03-28T11:23:22.984Z</time></trkpt><trkpt lat="42.3896337" lon="-8.5014704"><ele>292.0</ele><time>2026-03-28T11:23:24.967Z</time></trkpt><trkpt lat="42.3896973" lon="-8.5013298"><ele>291.16666666666663</ele><time>2026-03-28T11:23:26.966Z</time></trkpt><trkpt lat="42.3897342" lon="-8.5012402"><ele>290.3333333333333</ele><time>2026-03-28T11:23:27.971Z</time></trkpt><trkpt lat="42.389772" lon="-8.5011481"><ele>289.5</ele><time>2026-03-28T11:23:28.978Z</time></trkpt><trkpt lat="42.3898088" lon="-8.5010514"><ele>288.6666666666667</ele><time>2026-03-28T11:23:29.97Z</time></trkpt><trkpt lat="42.3898467" lon="-8.5009498"><ele>287.83333333333337</ele><time>2026-03-28T11:23:30.962Z</time></trkpt><trkpt lat="42.3898907" lon="-8.5008457"><ele>287.0</ele><time>2026-03-28T11:23:31.968Z</time></trkpt><trkpt lat="42.3899339" lon="-8.5007446"><ele>287.0</ele><time>2026-03-28T11:23:32.963Z</time></trkpt><trkpt lat="42.3899741" lon="-8.5006496"><ele>287.0</ele><time>2026-03-28T11:23:33.966Z</time></trkpt><trkpt lat="42.390013" lon="-8.50056"><ele>287.0</ele><time>2026-03-28T11:23:34.972Z</time></trkpt><trkpt lat="42.3900487" lon="-8.5004677"><ele>287.0</ele><time>2026-03-28T11:23:35.971Z</time></trkpt><trkpt lat="42.3900867" lon="-8.500379"><ele>287.0</ele><time>2026-03-28T11:23:36.968Z</time></trkpt><trkpt lat="42.3901205" lon="-8.5002851"><ele>287.0</ele><time>2026-03-28T11:23:37.966Z</time></trkpt><trkpt lat="42.3901454" lon="-8.5001903"><ele>286.7142857142857</ele><time>2026-03-28T11:23:38.975Z</time></trkpt><trkpt lat="42.3901648" lon="-8.5000968"><ele>286.42857142857144</ele><time>2026-03-28T11:23:39.971Z</time></trkpt><trkpt lat="42.3901811" lon="-8.5000048"><ele>286.1428571428571</ele><time>2026-03-28T11:23:40.967Z</time></trkpt><trkpt lat="42.3901889" lon="-8.4999139"><ele>285.8571428571429</ele><time>2026-03-28T11:23:41.965Z</time></trkpt><trkpt lat="42.39019" lon="-8.4998162"><ele>285.57142857142856</ele><time>2026-03-28T11:23:42.971Z</time></trkpt><trkpt lat="42.3901885" lon="-8.4997257"><ele>285.2857142857143</ele><time>2026-03-28T11:23:43.967Z</time></trkpt><trkpt lat="42.3901868" lon="-8.4996378"><ele>285.0</ele><time>2026-03-28T11:23:44.973Z</time></trkpt><trkpt lat="42.3901906" lon="-8.4995519"><ele>285.0</ele><time>2026-03-28T11:23:45.974Z</time></trkpt><trkpt lat="42.3901991" lon="-8.4994074"><ele>285.0</ele><time>2026-03-28T11:23:47.967Z</time></trkpt><trkpt lat="42.3901873" lon="-8.4992946"><ele>285.0</ele><time>2026-03-28T11:23:49.964Z</time></trkpt><trkpt lat="42.3901559" lon="-8.4992054"><ele>285.0</ele><time>2026-03-28T11:23:51.967Z</time></trkpt><trkpt lat="42.3900849" lon="-8.4990835"><ele>285.0</ele><time>2026-03-28T11:23:53.971Z</time></trkpt><trkpt lat="42.390012" lon="-8.4989435"><ele>285.0</ele><time>2026-03-28T11:23:55.973Z</time></trkpt><trkpt lat="42.3899698" lon="-8.4988611"><ele>285.0</ele><time>2026-03-28T11:23:56.97Z</time></trkpt><trkpt lat="42.3899292" lon="-8.4987736"><ele>285.0</ele><time>2026-03-28T11:23:57.97Z</time></trkpt><trkpt lat="42.3898763" lon="-8.4986849"><ele>285.0</ele><time>2026-03-28T11:23:58.969Z</time></trkpt><trkpt lat="42.3898159" lon="-8.4985963"><ele>285.0</ele><time>2026-03-28T11:23:59.962Z</time></trkpt><trkpt lat="42.3897521" lon="-8.4985022"><ele>285.0</ele><time>2026-03-28T11:24:00.971Z</time></trkpt><trkpt lat="42.3896876" lon="-8.4984059"><ele>286.0</ele><time>2026-03-28T11:24:01.981Z</time></trkpt><trkpt lat="42.3896214" lon="-8.4983168"><ele>287.0</ele><time>2026-03-28T11:24:02.973Z</time></trkpt><trkpt lat="42.3895528" lon="-8.4982352"><ele>288.0</ele><time>2026-03-28T11:24:03.975Z</time></trkpt><trkpt lat="42.3894826" lon="-8.4981576"><ele>289.0</ele><time>2026-03-28T11:24:04.981Z</time></trkpt><trkpt lat="42.3894088" lon="-8.4980863"><ele>290.0</ele><time>2026-03-28T11:24:05.966Z</time></trkpt><trkpt lat="42.3893357" lon="-8.4980182"><ele>290.0</ele><time>2026-03-28T11:24:06.976Z</time></trkpt><trkpt lat="42.3892463" lon="-8.4979585"><ele>290.0</ele><time>2026-03-28T11:24:07.971Z</time></trkpt><trkpt lat="42.3891515" lon="-8.4978988"><ele>290.0</ele><time>2026-03-28T11:24:08.972Z</time></trkpt><trkpt lat="42.3890666" lon="-8.4978391"><ele>290.0</ele><time>2026-03-28T11:24:09.97Z</time></trkpt><trkpt lat="42.3889894" lon="-8.4977809"><ele>290.0</ele><time>2026-03-28T11:24:10.966Z</time></trkpt><trkpt lat="42.388908" lon="-8.4977332"><ele>290.83333333333337</ele><time>2026-03-28T11:24:11.978Z</time></trkpt><trkpt lat="42.388827" lon="-8.4976778"><ele>291.6666666666667</ele><time>2026-03-28T11:24:12.965Z</time></trkpt><trkpt lat="42.3887563" lon="-8.4976319"><ele>292.5</ele><time>2026-03-28T11:24:13.97Z</time></trkpt><trkpt lat="42.388691" lon="-8.4975883"><ele>293.3333333333333</ele><time>2026-03-28T11:24:14.968Z</time></trkpt><trkpt lat="42.3886263" lon="-8.4975587"><ele>294.16666666666663</ele><time>2026-03-28T11:24:15.97Z</time></trkpt><trkpt lat="42.3885158" lon="-8.4975065"><ele>295.0</ele><time>2026-03-28T11:24:17.968Z</time></trkpt><trkpt lat="42.3884306" lon="-8.4974523"><ele>295.0</ele><time>2026-03-28T11:24:19.981Z</time></trkpt><trkpt lat="42.3883131" lon="-8.4973818"><ele>295.0</ele><time>2026-03-28T11:24:21.968Z</time></trkpt><trkpt lat="42.388246" lon="-8.4973486"><ele>295.0</ele><time>2026-03-28T11:24:22.967Z</time></trkpt><trkpt lat="42.3881804" lon="-8.4973174"><ele>295.0</ele><time>2026-03-28T11:24:23.968Z</time></trkpt><trkpt lat="42.3881135" lon="-8.4972794"><ele>295.0</ele><time>2026-03-28T11:24:24.971Z</time></trkpt><trkpt lat="42.3880456" lon="-8.497231"><ele>295.0</ele><time>2026-03-28T11:24:25.969Z</time></trkpt><trkpt lat="42.3879653" lon="-8.4971807"><ele>295.16666666666663</ele><time>2026-03-28T11:24:26.967Z</time></trkpt><trkpt lat="42.3878755" lon="-8.4971311"><ele>295.3333333333333</ele><time>2026-03-28T11:24:27.971Z</time></trkpt><trkpt lat="42.38779" lon="-8.4970771"><ele>295.5</ele><time>2026-03-28T11:24:28.97Z</time></trkpt><trkpt lat="42.3877008" lon="-8.4970397"><ele>295.6666666666667</ele><time>2026-03-28T11:24:29.972Z</time></trkpt><trkpt lat="42.3876097" lon="-8.4970244"><ele>295.83333333333337</ele><time>2026-03-28T11:24:30.966Z</time></trkpt><trkpt lat="42.3875423" lon="-8.4970603"><ele>296.0</ele><time>2026-03-28T11:24:31.965Z</time></trkpt><trkpt lat="42.3875004" lon="-8.4971347"><ele>296.0</ele><time>2026-03-28T11:24:32.963Z</time></trkpt><trkpt lat="42.3874685" lon="-8.4972177"><ele>296.0</ele><time>2026-03-28T11:24:33.965Z</time></trkpt><trkpt lat="42.3874358" lon="-8.4972983"><ele>296.0</ele><time>2026-03-28T11:24:34.97Z</time></trkpt><trkpt lat="42.3873884" lon="-8.4974344"><ele>296.0</ele><time>2026-03-28T11:24:36.973Z</time></trkpt><trkpt lat="42.3873493" lon="-8.4975524"><ele>296.0</ele><time>2026-03-28T11:24:39.968Z</time></trkpt><trkpt lat="42.3873329" lon="-8.4976738"><ele>296.0</ele><time>2026-03-28T11:24:41.967Z</time></trkpt><trkpt lat="42.3872769" lon="-8.4978271"><ele>296.0</ele><time>2026-03-28T11:24:43.97Z</time></trkpt><trkpt lat="42.3872572" lon="-8.497913"><ele>296.0</ele><time>2026-03-28T11:24:44.97Z</time></trkpt><trkpt lat="42.3872322" lon="-8.4979979"><ele>296.0</ele><time>2026-03-28T11:24:45.972Z</time></trkpt><trkpt lat="42.3871762" lon="-8.4981275"><ele>296.0</ele><time>2026-03-28T11:24:47.962Z</time></trkpt><trkpt lat="42.3870679" lon="-8.498217"><ele>296.0</ele><time>2026-03-28T11:24:49.974Z</time></trkpt><trkpt lat="42.3869877" lon="-8.4981892"><ele>297.0</ele><time>2026-03-28T11:24:51.966Z</time></trkpt><trkpt lat="42.386972" lon="-8.4980717"><ele>298.0</ele><time>2026-03-28T11:24:54.967Z</time></trkpt><trkpt lat="42.386954" lon="-8.4979509"><ele>299.0</ele><time>2026-03-28T11:24:57.966Z</time></trkpt><trkpt lat="42.3869451" lon="-8.4978336"><ele>300.0</ele><time>2026-03-28T11:24:59.968Z</time></trkpt><trkpt lat="42.3869726" lon="-8.4976847"><ele>301.0</ele><time>2026-03-28T11:25:01.984Z</time></trkpt><trkpt lat="42.3869812" lon="-8.497588"><ele>301.0</ele><time>2026-03-28T11:25:02.965Z</time></trkpt><trkpt lat="42.3870191" lon="-8.4974452"><ele>301.0</ele><time>2026-03-28T11:25:04.971Z</time></trkpt><trkpt lat="42.3869897" lon="-8.4973054"><ele>301.0</ele><time>2026-03-28T11:25:06.968Z</time></trkpt><trkpt lat="42.3869172" lon="-8.497177"><ele>301.0</ele><time>2026-03-28T11:25:08.964Z</time></trkpt><trkpt lat="42.3868503" lon="-8.4970514"><ele>302.66666666666663</ele><time>2026-03-28T11:25:10.974Z</time></trkpt><trkpt lat="42.3867819" lon="-8.4969402"><ele>304.3333333333333</ele><time>2026-03-28T11:25:12.974Z</time></trkpt><trkpt lat="42.3866978" lon="-8.4968313"><ele>306.0</ele><time>2026-03-28T11:25:14.968Z</time></trkpt><trkpt lat="42.386652" lon="-8.4967674"><ele>307.6666666666667</ele><time>2026-03-28T11:25:15.972Z</time></trkpt><trkpt lat="42.3866117" lon="-8.4966877"><ele>309.33333333333337</ele><time>2026-03-28T11:25:16.969Z</time></trkpt><trkpt lat="42.3865747" lon="-8.496603"><ele>311.0</ele><time>2026-03-28T11:25:17.969Z</time></trkpt><trkpt lat="42.3865441" lon="-8.4965192"><ele>311.0</ele><time>2026-03-28T11:25:18.974Z</time></trkpt><trkpt lat="42.3865084" lon="-8.4964328"><ele>311.0</ele><time>2026-03-28T11:25:19.967Z</time></trkpt><trkpt lat="42.3864865" lon="-8.4963496"><ele>311.0</ele><time>2026-03-28T11:25:20.976Z</time></trkpt><trkpt lat="42.3864725" lon="-8.4962057"><ele>311.0</ele><time>2026-03-28T11:25:22.967Z</time></trkpt><trkpt lat="42.3864687" lon="-8.4960573"><ele>311.0</ele><time>2026-03-28T11:25:24.97Z</time></trkpt><trkpt lat="42.3864741" lon="-8.4959674"><ele>311.0</ele><time>2026-03-28T11:25:25.968Z</time></trkpt><trkpt lat="42.3864809" lon="-8.495877"><ele>312.83333333333337</ele><time>2026-03-28T11:25:26.964Z</time></trkpt><trkpt lat="42.3864912" lon="-8.4957902"><ele>314.6666666666667</ele><time>2026-03-28T11:25:27.971Z</time></trkpt><trkpt lat="42.3865077" lon="-8.4957038"><ele>316.5</ele><time>2026-03-28T11:25:28.967Z</time></trkpt><trkpt lat="42.3865705" lon="-8.4955628"><ele>318.3333333333333</ele><time>2026-03-28T11:25:30.967Z</time></trkpt><trkpt lat="42.386608" lon="-8.4954101"><ele>320.16666666666663</ele><time>2026-03-28T11:25:32.97Z</time></trkpt><trkpt lat="42.3866221" lon="-8.495323"><ele>322.0</ele><time>2026-03-28T11:25:33.973Z</time></trkpt><trkpt lat="42.3866373" lon="-8.495168"><ele>322.8</ele><time>2026-03-28T11:25:35.966Z</time></trkpt><trkpt lat="42.3866331" lon="-8.4950161"><ele>323.6</ele><time>2026-03-28T11:25:37.972Z</time></trkpt><trkpt lat="42.3865863" lon="-8.4948809"><ele>324.40000000000003</ele><time>2026-03-28T11:25:39.968Z</time></trkpt><trkpt lat="42.3865229" lon="-8.4947436"><ele>325.20000000000005</ele><time>2026-03-28T11:25:41.972Z</time></trkpt><trkpt lat="42.3864807" lon="-8.4946751"><ele>326.0</ele><time>2026-03-28T11:25:42.962Z</time></trkpt><trkpt lat="42.3864534" lon="-8.4945231"><ele>327.0</ele><time>2026-03-28T11:25:44.974Z</time></trkpt><trkpt lat="42.3864403" lon="-8.4943846"><ele>328.0</ele><time>2026-03-28T11:25:46.967Z</time></trkpt><trkpt lat="42.386392" lon="-8.49426"><ele>329.0</ele><time>2026-03-28T11:25:48.968Z</time></trkpt><trkpt lat="42.3863391" lon="-8.4941579"><ele>330.0</ele><time>2026-03-28T11:25:50.968Z</time></trkpt><trkpt lat="42.3862823" lon="-8.4940829"><ele>331.0</ele><time>2026-03-28T11:25:52.976Z</time></trkpt><trkpt lat="42.3862313" lon="-8.4940086"><ele>333.0</ele><time>2026-03-28T11:25:54.964Z</time></trkpt><trkpt lat="42.386175" lon="-8.4939689"><ele>335.0</ele><time>2026-03-28T11:25:55.971Z</time></trkpt><trkpt lat="42.3860723" lon="-8.4938889"><ele>337.0</ele><time>2026-03-28T11:25:57.974Z</time></trkpt><trkpt lat="42.3859606" lon="-8.4938138"><ele>339.0</ele><time>2026-03-28T11:25:59.967Z</time></trkpt><trkpt lat="42.3858576" lon="-8.4937871"><ele>341.0</ele><time>2026-03-28T11:26:01.964Z</time></trkpt><trkpt lat="42.3857315" lon="-8.4938256"><ele>341.0</ele><time>2026-03-28T11:26:03.969Z</time></trkpt><trkpt lat="42.3856659" lon="-8.4938619"><ele>341.0</ele><time>2026-03-28T11:26:04.986Z</time></trkpt><trkpt lat="42.3856053" lon="-8.4938892"><ele>341.0</ele><time>2026-03-28T11:26:05.972Z</time></trkpt><trkpt lat="42.3854921" lon="-8.4938795"><ele>341.0</ele><time>2026-03-28T11:26:07.968Z</time></trkpt><trkpt lat="42.3854277" lon="-8.4937598"><ele>341.0</ele><time>2026-03-28T11:26:09.967Z</time></trkpt><trkpt lat="42.3854029" lon="-8.4936143"><ele>343.0</ele><time>2026-03-28T11:26:11.966Z</time></trkpt><trkpt lat="42.3853819" lon="-8.493447"><ele>345.0</ele><time>2026-03-28T11:26:13.965Z</time></trkpt><trkpt lat="42.3853582" lon="-8.49336"><ele>347.0</ele><time>2026-03-28T11:26:14.967Z</time></trkpt><trkpt lat="42.3853378" lon="-8.4932611"><ele>349.0</ele><time>2026-03-28T11:26:15.976Z</time></trkpt><trkpt lat="42.385325" lon="-8.4931597"><ele>351.0</ele><time>2026-03-28T11:26:16.964Z</time></trkpt><trkpt lat="42.3853188" lon="-8.4930572"><ele>353.0</ele><time>2026-03-28T11:26:17.977Z</time></trkpt><trkpt lat="42.3853197" lon="-8.4929548"><ele>352.83333333333337</ele><time>2026-03-28T11:26:18.967Z</time></trkpt><trkpt lat="42.3853253" lon="-8.4928431"><ele>352.6666666666667</ele><time>2026-03-28T11:26:19.963Z</time></trkpt><trkpt lat="42.3853576" lon="-8.4927414"><ele>352.5</ele><time>2026-03-28T11:26:20.968Z</time></trkpt><trkpt lat="42.3854061" lon="-8.4926396"><ele>352.3333333333333</ele><time>2026-03-28T11:26:21.959Z</time></trkpt><trkpt lat="42.3854479" lon="-8.4925532"><ele>352.16666666666663</ele><time>2026-03-28T11:26:22.975Z</time></trkpt><trkpt lat="42.3854868" lon="-8.4924773"><ele>352.0</ele><time>2026-03-28T11:26:23.973Z</time></trkpt><trkpt lat="42.3855258" lon="-8.4923458"><ele>354.0</ele><time>2026-03-28T11:26:25.969Z</time></trkpt><trkpt lat="42.3854191" lon="-8.4923804"><ele>356.0</ele><time>2026-03-28T11:26:28.965Z</time></trkpt><trkpt lat="42.3853555" lon="-8.4924296"><ele>358.0</ele><time>2026-03-28T11:26:29.969Z</time></trkpt><trkpt lat="42.385285" lon="-8.4924715"><ele>360.0</ele><time>2026-03-28T11:26:30.967Z</time></trkpt><trkpt lat="42.3852186" lon="-8.4925079"><ele>362.0</ele><time>2026-03-28T11:26:31.964Z</time></trkpt><trkpt lat="42.3851412" lon="-8.4925355"><ele>364.0</ele><time>2026-03-28T11:26:32.976Z</time></trkpt><trkpt lat="42.3850646" lon="-8.4925531"><ele>364.0</ele><time>2026-03-28T11:26:33.969Z</time></trkpt><trkpt lat="42.3849933" lon="-8.492566"><ele>364.0</ele><time>2026-03-28T11:26:34.97Z</time></trkpt><trkpt lat="42.3849316" lon="-8.4925488"><ele>364.0</ele><time>2026-03-28T11:26:35.966Z</time></trkpt><trkpt lat="42.3848256" lon="-8.4924782"><ele>364.0</ele><time>2026-03-28T11:26:37.969Z</time></trkpt><trkpt lat="42.3847395" lon="-8.4923703"><ele>364.0</ele><time>2026-03-28T11:26:39.966Z</time></trkpt><trkpt lat="42.3846954" lon="-8.4923007"><ele>364.0</ele><time>2026-03-28T11:26:40.966Z</time></trkpt><trkpt lat="42.3846581" lon="-8.4922177"><ele>365.6</ele><time>2026-03-28T11:26:41.974Z</time></trkpt><trkpt lat="42.3846171" lon="-8.4920759"><ele>367.2</ele><time>2026-03-28T11:26:43.971Z</time></trkpt><trkpt lat="42.3846387" lon="-8.49195"><ele>368.8</ele><time>2026-03-28T11:26:45.966Z</time></trkpt><trkpt lat="42.3846658" lon="-8.491849"><ele>370.40000000000003</ele><time>2026-03-28T11:26:47.967Z</time></trkpt><trkpt lat="42.3846462" lon="-8.4917261"><ele>372.0</ele><time>2026-03-28T11:26:49.97Z</time></trkpt><trkpt lat="42.3846264" lon="-8.4915667"><ele>372.0</ele><time>2026-03-28T11:26:51.963Z</time></trkpt><trkpt lat="42.3846192" lon="-8.4914789"><ele>372.0</ele><time>2026-03-28T11:26:52.977Z</time></trkpt><trkpt lat="42.3846134" lon="-8.4913857"><ele>372.0</ele><time>2026-03-28T11:26:53.968Z</time></trkpt><trkpt lat="42.3846064" lon="-8.4912779"><ele>372.0</ele><time>2026-03-28T11:26:54.98Z</time></trkpt><trkpt lat="42.3845951" lon="-8.4911541"><ele>372.0</ele><time>2026-03-28T11:26:55.966Z</time></trkpt><trkpt lat="42.3845827" lon="-8.4910389"><ele>372.0</ele><time>2026-03-28T11:26:56.969Z</time></trkpt><trkpt lat="42.3845721" lon="-8.4909262"><ele>373.5</ele><time>2026-03-28T11:26:57.97Z</time></trkpt><trkpt lat="42.3845565" lon="-8.4908158"><ele>375.0</ele><time>2026-03-28T11:26:58.966Z</time></trkpt><trkpt lat="42.3845419" lon="-8.4907096"><ele>376.5</ele><time>2026-03-28T11:26:59.961Z</time></trkpt><trkpt lat="42.3845262" lon="-8.4905955"><ele>378.0</ele><time>2026-03-28T11:27:00.97Z</time></trkpt><trkpt lat="42.3845079" lon="-8.4904779"><ele>379.5</ele><time>2026-03-28T11:27:01.967Z</time></trkpt><trkpt lat="42.3844853" lon="-8.4903776"><ele>381.0</ele><time>2026-03-28T11:27:02.971Z</time></trkpt><trkpt lat="42.3844601" lon="-8.490279"><ele>382.0</ele><time>2026-03-28T11:27:03.968Z</time></trkpt><trkpt lat="42.384427" lon="-8.4901817"><ele>383.0</ele><time>2026-03-28T11:27:04.976Z</time></trkpt><trkpt lat="42.384388" lon="-8.4900941"><ele>384.0</ele><time>2026-03-28T11:27:05.97Z</time></trkpt><trkpt lat="42.3843434" lon="-8.4899995"><ele>385.0</ele><time>2026-03-28T11:27:06.965Z</time></trkpt><trkpt lat="42.3842987" lon="-8.4898957"><ele>386.0</ele><time>2026-03-28T11:27:07.969Z</time></trkpt><trkpt lat="42.3842562" lon="-8.4897859"><ele>387.0</ele><time>2026-03-28T11:27:08.971Z</time></trkpt><trkpt lat="42.3842104" lon="-8.4896669"><ele>388.0</ele><time>2026-03-28T11:27:09.967Z</time></trkpt><trkpt lat="42.3841643" lon="-8.4895449"><ele>389.0</ele><time>2026-03-28T11:27:10.965Z</time></trkpt><trkpt lat="42.3841198" lon="-8.489432"><ele>390.0</ele><time>2026-03-28T11:27:11.979Z</time></trkpt><trkpt lat="42.3840774" lon="-8.4893179"><ele>391.0</ele><time>2026-03-28T11:27:12.97Z</time></trkpt><trkpt lat="42.3840318" lon="-8.4892062"><ele>392.0</ele><time>2026-03-28T11:27:13.967Z</time></trkpt><trkpt lat="42.3839895" lon="-8.4890968"><ele>392.0</ele><time>2026-03-28T11:27:14.966Z</time></trkpt><trkpt lat="42.3839509" lon="-8.4889871"><ele>392.0</ele><time>2026-03-28T11:27:15.971Z</time></trkpt><trkpt lat="42.3839072" lon="-8.4888751"><ele>392.0</ele><time>2026-03-28T11:27:16.973Z</time></trkpt><trkpt lat="42.3838578" lon="-8.4887666"><ele>392.0</ele><time>2026-03-28T11:27:17.971Z</time></trkpt><trkpt lat="42.3838073" lon="-8.4886498"><ele>392.0</ele><time>2026-03-28T11:27:18.975Z</time></trkpt><trkpt lat="42.3837499" lon="-8.4885372"><ele>392.8</ele><time>2026-03-28T11:27:19.97Z</time></trkpt><trkpt lat="42.3836933" lon="-8.4884263"><ele>393.6</ele><time>2026-03-28T11:27:20.966Z</time></trkpt><trkpt lat="42.3836219" lon="-8.4883134"><ele>394.40000000000003</ele><time>2026-03-28T11:27:21.972Z</time></trkpt><trkpt lat="42.3835508" lon="-8.4881947"><ele>395.20000000000005</ele><time>2026-03-28T11:27:22.979Z</time></trkpt><trkpt lat="42.3834742" lon="-8.488076"><ele>396.0</ele><time>2026-03-28T11:27:23.966Z</time></trkpt><trkpt lat="42.383392" lon="-8.4879535"><ele>395.25</ele><time>2026-03-28T11:27:24.966Z</time></trkpt><trkpt lat="42.3833031" lon="-8.4878398"><ele>394.5</ele><time>2026-03-28T11:27:25.974Z</time></trkpt><trkpt lat="42.3832139" lon="-8.4877285"><ele>393.75</ele><time>2026-03-28T11:27:26.962Z</time></trkpt><trkpt lat="42.3831204" lon="-8.4876298"><ele>393.0</ele><time>2026-03-28T11:27:27.961Z</time></trkpt><trkpt lat="42.3830302" lon="-8.4875618"><ele>394.0</ele><time>2026-03-28T11:27:28.962Z</time></trkpt><trkpt lat="42.3829475" lon="-8.4875115"><ele>395.0</ele><time>2026-03-28T11:27:29.974Z</time></trkpt><trkpt lat="42.3828822" lon="-8.4874744"><ele>396.0</ele><time>2026-03-28T11:27:30.97Z</time></trkpt><trkpt lat="42.3828158" lon="-8.4874561"><ele>397.0</ele><time>2026-03-28T11:27:31.967Z</time></trkpt><trkpt lat="42.3826969" lon="-8.4875028"><ele>398.0</ele><time>2026-03-28T11:27:33.966Z</time></trkpt><trkpt lat="42.3826544" lon="-8.4875944"><ele>399.0</ele><time>2026-03-28T11:27:34.963Z</time></trkpt><trkpt lat="42.3826229" lon="-8.4877256"><ele>399.0</ele><time>2026-03-28T11:27:35.969Z</time></trkpt><trkpt lat="42.3826102" lon="-8.4878447"><ele>399.0</ele><time>2026-03-28T11:27:36.961Z</time></trkpt><trkpt lat="42.3826202" lon="-8.4879675"><ele>399.0</ele><time>2026-03-28T11:27:37.973Z</time></trkpt><trkpt lat="42.3826203" lon="-8.4880913"><ele>399.0</ele><time>2026-03-28T11:27:38.968Z</time></trkpt><trkpt lat="42.3826113" lon="-8.4882189"><ele>399.0</ele><time>2026-03-28T11:27:39.963Z</time></trkpt><trkpt lat="42.3825937" lon="-8.4883349"><ele>399.2</ele><time>2026-03-28T11:27:40.975Z</time></trkpt><trkpt lat="42.3825597" lon="-8.4884192"><ele>399.4</ele><time>2026-03-28T11:27:41.963Z</time></trkpt><trkpt lat="42.3824704" lon="-8.4884992"><ele>399.6</ele><time>2026-03-28T11:27:43.973Z</time></trkpt><trkpt lat="42.382408" lon="-8.4885894"><ele>399.8</ele><time>2026-03-28T11:27:45.972Z</time></trkpt><trkpt lat="42.3823447" lon="-8.4887137"><ele>400.0</ele><time>2026-03-28T11:27:47.96Z</time></trkpt><trkpt lat="42.382307" lon="-8.4888461"><ele>400.0</ele><time>2026-03-28T11:27:49.966Z</time></trkpt><trkpt lat="42.3822723" lon="-8.4889339"><ele>400.0</ele><time>2026-03-28T11:27:50.964Z</time></trkpt><trkpt lat="42.3822247" lon="-8.4890441"><ele>400.0</ele><time>2026-03-28T11:27:51.963Z</time></trkpt><trkpt lat="42.3821535" lon="-8.4891787"><ele>400.0</ele><time>2026-03-28T11:27:52.975Z</time></trkpt><trkpt lat="42.3820771" lon="-8.4893136"><ele>400.0</ele><time>2026-03-28T11:27:53.971Z</time></trkpt><trkpt lat="42.3819961" lon="-8.4894475"><ele>399.5</ele><time>2026-03-28T11:27:54.967Z</time></trkpt><trkpt lat="42.3819095" lon="-8.4895798"><ele>399.0</ele><time>2026-03-28T11:27:55.965Z</time></trkpt><trkpt lat="42.3818224" lon="-8.4897061"><ele>398.5</ele><time>2026-03-28T11:27:56.967Z</time></trkpt><trkpt lat="42.3817312" lon="-8.4898215"><ele>398.0</ele><time>2026-03-28T11:27:57.967Z</time></trkpt><trkpt lat="42.3816495" lon="-8.4899385"><ele>398.0</ele><time>2026-03-28T11:27:58.966Z</time></trkpt><trkpt lat="42.3815744" lon="-8.4900514"><ele>398.0</ele><time>2026-03-28T11:27:59.986Z</time></trkpt><trkpt lat="42.3814905" lon="-8.4901627"><ele>398.0</ele><time>2026-03-28T11:28:00.969Z</time></trkpt><trkpt lat="42.3814005" lon="-8.4902818"><ele>398.0</ele><time>2026-03-28T11:28:01.967Z</time></trkpt><trkpt lat="42.3813143" lon="-8.4904095"><ele>397.16666666666663</ele><time>2026-03-28T11:28:02.978Z</time></trkpt><trkpt lat="42.3812426" lon="-8.4905161"><ele>396.3333333333333</ele><time>2026-03-28T11:28:03.968Z</time></trkpt><trkpt lat="42.3811707" lon="-8.4906129"><ele>395.5</ele><time>2026-03-28T11:28:04.965Z</time></trkpt><trkpt lat="42.3810975" lon="-8.490694"><ele>394.66666666666663</ele><time>2026-03-28T11:28:05.971Z</time></trkpt><trkpt lat="42.3810342" lon="-8.4907507"><ele>393.8333333333333</ele><time>2026-03-28T11:28:06.971Z</time></trkpt><trkpt lat="42.3809722" lon="-8.4907905"><ele>393.0</ele><time>2026-03-28T11:28:07.963Z</time></trkpt><trkpt lat="42.3808989" lon="-8.4907968"><ele>393.0</ele><time>2026-03-28T11:28:08.963Z</time></trkpt><trkpt lat="42.3808001" lon="-8.4907608"><ele>393.0</ele><time>2026-03-28T11:28:09.964Z</time></trkpt><trkpt lat="42.3806935" lon="-8.4906998"><ele>393.0</ele><time>2026-03-28T11:28:10.967Z</time></trkpt><trkpt lat="42.380584" lon="-8.4906312"><ele>393.0</ele><time>2026-03-28T11:28:11.967Z</time></trkpt><trkpt lat="42.3804865" lon="-8.4905478"><ele>392.4</ele><time>2026-03-28T11:28:12.968Z</time></trkpt><trkpt lat="42.3804033" lon="-8.4904483"><ele>391.79999999999995</ele><time>2026-03-28T11:28:13.96Z</time></trkpt><trkpt lat="42.380333" lon="-8.4903423"><ele>391.2</ele><time>2026-03-28T11:28:14.966Z</time></trkpt><trkpt lat="42.3802665" lon="-8.4902248"><ele>390.6</ele><time>2026-03-28T11:28:15.97Z</time></trkpt><trkpt lat="42.3801973" lon="-8.4900906"><ele>390.0</ele><time>2026-03-28T11:28:16.972Z</time></trkpt><trkpt lat="42.3801293" lon="-8.4899434"><ele>390.0</ele><time>2026-03-28T11:28:17.967Z</time></trkpt><trkpt lat="42.3800618" lon="-8.4898054"><ele>390.0</ele><time>2026-03-28T11:28:18.967Z</time></trkpt><trkpt lat="42.3800112" lon="-8.4896841"><ele>390.0</ele><time>2026-03-28T11:28:19.964Z</time></trkpt><trkpt lat="42.3799711" lon="-8.4895626"><ele>390.0</ele><time>2026-03-28T11:28:20.966Z</time></trkpt><trkpt lat="42.37994" lon="-8.4894401"><ele>390.0</ele><time>2026-03-28T11:28:21.966Z</time></trkpt><trkpt lat="42.3799177" lon="-8.4892828"><ele>391.0</ele><time>2026-03-28T11:28:22.971Z</time></trkpt><trkpt lat="42.3798944" lon="-8.4891108"><ele>392.0</ele><time>2026-03-28T11:28:23.963Z</time></trkpt><trkpt lat="42.3798854" lon="-8.4889495"><ele>393.0</ele><time>2026-03-28T11:28:24.965Z</time></trkpt><trkpt lat="42.3798661" lon="-8.4888224"><ele>394.0</ele><time>2026-03-28T11:28:25.968Z</time></trkpt><trkpt lat="42.3798439" lon="-8.4887084"><ele>395.0</ele><time>2026-03-28T11:28:26.965Z</time></trkpt><trkpt lat="42.379779" lon="-8.4885801"><ele>395.8333333333333</ele><time>2026-03-28T11:28:28.968Z</time></trkpt><trkpt lat="42.379759" lon="-8.488492"><ele>396.66666666666663</ele><time>2026-03-28T11:28:29.967Z</time></trkpt><trkpt lat="42.3797312" lon="-8.4883992"><ele>397.5</ele><time>2026-03-28T11:28:30.971Z</time></trkpt><trkpt lat="42.3797044" lon="-8.4882983"><ele>398.33333333333337</ele><time>2026-03-28T11:28:31.976Z</time></trkpt><trkpt lat="42.3796968" lon="-8.4881871"><ele>399.1666666666667</ele><time>2026-03-28T11:28:32.966Z</time></trkpt><trkpt lat="42.3796862" lon="-8.4880686"><ele>400.0</ele><time>2026-03-28T11:28:33.967Z</time></trkpt><trkpt lat="42.3796726" lon="-8.4879471"><ele>403.00000000000006</ele><time>2026-03-28T11:28:34.97Z</time></trkpt><trkpt lat="42.3796717" lon="-8.4878335"><ele>406.0</ele><time>2026-03-28T11:28:35.964Z</time></trkpt><trkpt lat="42.3796613" lon="-8.4877158"><ele>409.0</ele><time>2026-03-28T11:28:36.964Z</time></trkpt><trkpt lat="42.3796545" lon="-8.4875973"><ele>412.0</ele><time>2026-03-28T11:28:37.972Z</time></trkpt><trkpt lat="42.3796436" lon="-8.4874948"><ele>415.00000000000006</ele><time>2026-03-28T11:28:38.963Z</time></trkpt><trkpt lat="42.3796386" lon="-8.4873807"><ele>418.0</ele><time>2026-03-28T11:28:39.973Z</time></trkpt><trkpt lat="42.3796315" lon="-8.4872598"><ele>418.0</ele><time>2026-03-28T11:28:40.965Z</time></trkpt><trkpt lat="42.3796239" lon="-8.4871395"><ele>418.0</ele><time>2026-03-28T11:28:41.969Z</time></trkpt><trkpt lat="42.3796072" lon="-8.4870149"><ele>418.0</ele><time>2026-03-28T11:28:42.967Z</time></trkpt><trkpt lat="42.3795842" lon="-8.4868953"><ele>418.0</ele><time>2026-03-28T11:28:43.963Z</time></trkpt><trkpt lat="42.3795621" lon="-8.4867817"><ele>418.0</ele><time>2026-03-28T11:28:44.966Z</time></trkpt><trkpt lat="42.3795277" lon="-8.4866499"><ele>419.2</ele><time>2026-03-28T11:28:45.961Z</time></trkpt><trkpt lat="42.3795006" lon="-8.4865043"><ele>420.4</ele><time>2026-03-28T11:28:46.977Z</time></trkpt><trkpt lat="42.3794704" lon="-8.4863596"><ele>421.59999999999997</ele><time>2026-03-28T11:28:47.971Z</time></trkpt><trkpt lat="42.3794387" lon="-8.486209"><ele>422.79999999999995</ele><time>2026-03-28T11:28:48.968Z</time></trkpt><trkpt lat="42.3794019" lon="-8.4860686"><ele>424.0</ele><time>2026-03-28T11:28:49.972Z</time></trkpt><trkpt lat="42.3793587" lon="-8.4859357"><ele>424.0</ele><time>2026-03-28T11:28:50.963Z</time></trkpt><trkpt lat="42.379314" lon="-8.4858027"><ele>424.0</ele><time>2026-03-28T11:28:51.974Z</time></trkpt><trkpt lat="42.3792687" lon="-8.4856922"><ele>424.0</ele><time>2026-03-28T11:28:52.973Z</time></trkpt><trkpt lat="42.3792219" lon="-8.4855838"><ele>424.0</ele><time>2026-03-28T11:28:53.97Z</time></trkpt><trkpt lat="42.3791689" lon="-8.4854923"><ele>424.0</ele><time>2026-03-28T11:28:54.975Z</time></trkpt><trkpt lat="42.3790918" lon="-8.4854217"><ele>424.33333333333337</ele><time>2026-03-28T11:28:55.966Z</time></trkpt><trkpt lat="42.379023" lon="-8.4853903"><ele>424.6666666666667</ele><time>2026-03-28T11:28:56.97Z</time></trkpt><trkpt lat="42.3789457" lon="-8.4853754"><ele>425.0</ele><time>2026-03-28T11:28:57.96Z</time></trkpt><trkpt lat="42.3788566" lon="-8.4853932"><ele>425.33333333333337</ele><time>2026-03-28T11:28:58.981Z</time></trkpt><trkpt lat="42.3787509" lon="-8.4854288"><ele>425.6666666666667</ele><time>2026-03-28T11:28:59.965Z</time></trkpt><trkpt lat="42.3786553" lon="-8.4854542"><ele>426.0</ele><time>2026-03-28T11:29:00.969Z</time></trkpt><trkpt lat="42.3785672" lon="-8.4854719"><ele>427.3333333333333</ele><time>2026-03-28T11:29:01.969Z</time></trkpt><trkpt lat="42.3784695" lon="-8.485461"><ele>428.66666666666663</ele><time>2026-03-28T11:29:02.967Z</time></trkpt><trkpt lat="42.3783793" lon="-8.485434"><ele>430.0</ele><time>2026-03-28T11:29:03.966Z</time></trkpt><trkpt lat="42.3782915" lon="-8.4854203"><ele>431.3333333333333</ele><time>2026-03-28T11:29:04.966Z</time></trkpt><trkpt lat="42.3782062" lon="-8.4854066"><ele>432.66666666666663</ele><time>2026-03-28T11:29:05.98Z</time></trkpt><trkpt lat="42.3781243" lon="-8.4854016"><ele>434.0</ele><time>2026-03-28T11:29:06.973Z</time></trkpt><trkpt lat="42.3780413" lon="-8.4854055"><ele>434.99999999999994</ele><time>2026-03-28T11:29:07.963Z</time></trkpt><trkpt lat="42.3779618" lon="-8.4854152"><ele>436.0</ele><time>2026-03-28T11:29:08.962Z</time></trkpt><trkpt lat="42.3778901" lon="-8.4854288"><ele>437.0</ele><time>2026-03-28T11:29:09.964Z</time></trkpt><trkpt lat="42.3778269" lon="-8.4854409"><ele>438.0</ele><time>2026-03-28T11:29:10.965Z</time></trkpt><trkpt lat="42.3778268" lon="-8.4853533"><ele>438.99999999999994</ele><time>2026-03-28T11:29:17.964Z</time></trkpt><trkpt lat="42.3778551" lon="-8.4852565"><ele>440.0</ele><time>2026-03-28T11:29:20.97Z</time></trkpt><trkpt lat="42.3777592" lon="-8.485239"><ele>439.99999999999994</ele><time>2026-03-28T11:29:25.971Z</time></trkpt><trkpt lat="42.3776948" lon="-8.4852779"><ele>440.0</ele><time>2026-03-28T11:29:27.971Z</time></trkpt><trkpt lat="42.3776254" lon="-8.4853428"><ele>440.0</ele><time>2026-03-28T11:29:29.966Z</time></trkpt><trkpt lat="42.3775345" lon="-8.4854105"><ele>440.0</ele><time>2026-03-28T11:29:31.966Z</time></trkpt><trkpt lat="42.3774642" lon="-8.4854586"><ele>439.99999999999994</ele><time>2026-03-28T11:29:33.966Z</time></trkpt><trkpt lat="42.3774018" lon="-8.485473"><ele>440.0</ele><time>2026-03-28T11:29:56.974Z</time></trkpt><trkpt lat="42.3773363" lon="-8.4853957"><ele>440.66666666666663</ele><time>2026-03-28T11:29:58.962Z</time></trkpt><trkpt lat="42.3772357" lon="-8.4853004"><ele>441.3333333333333</ele><time>2026-03-28T11:30:00.974Z</time></trkpt><trkpt lat="42.3771754" lon="-8.4852431"><ele>442.0</ele><time>2026-03-28T11:30:01.972Z</time></trkpt><trkpt lat="42.377121" lon="-8.4851685"><ele>442.66666666666663</ele><time>2026-03-28T11:30:02.971Z</time></trkpt><trkpt lat="42.3770776" lon="-8.4850841"><ele>443.3333333333333</ele><time>2026-03-28T11:30:03.966Z</time></trkpt><trkpt lat="42.3770452" lon="-8.4849912"><ele>444.0</ele><time>2026-03-28T11:30:04.964Z</time></trkpt><trkpt lat="42.3770256" lon="-8.4848953"><ele>444.5</ele><time>2026-03-28T11:30:05.964Z</time></trkpt><trkpt lat="42.3770257" lon="-8.4847974"><ele>445.0</ele><time>2026-03-28T11:30:06.966Z</time></trkpt><trkpt lat="42.3770536" lon="-8.4846996"><ele>445.5</ele><time>2026-03-28T11:30:07.971Z</time></trkpt><trkpt lat="42.3770939" lon="-8.4846021"><ele>446.0</ele><time>2026-03-28T11:30:08.966Z</time></trkpt><trkpt lat="42.3771437" lon="-8.4845097"><ele>446.5</ele><time>2026-03-28T11:30:09.966Z</time></trkpt><trkpt lat="42.3772059" lon="-8.4844208"><ele>447.0</ele><time>2026-03-28T11:30:10.967Z</time></trkpt><trkpt lat="42.3772608" lon="-8.4843482"><ele>447.0</ele><time>2026-03-28T11:30:11.964Z</time></trkpt><trkpt lat="42.3772984" lon="-8.484276"><ele>447.00000000000006</ele><time>2026-03-28T11:30:12.969Z</time></trkpt><trkpt lat="42.3772988" lon="-8.4841352"><ele>447.00000000000006</ele><time>2026-03-28T11:30:14.969Z</time></trkpt><trkpt lat="42.3772552" lon="-8.4840153"><ele>447.0</ele><time>2026-03-28T11:30:16.963Z</time></trkpt><trkpt lat="42.3771542" lon="-8.4839118"><ele>447.0</ele><time>2026-03-28T11:30:18.972Z</time></trkpt><trkpt lat="42.3770966" lon="-8.4838441"><ele>449.0</ele><time>2026-03-28T11:30:19.972Z</time></trkpt><trkpt lat="42.3770338" lon="-8.4837801"><ele>451.0</ele><time>2026-03-28T11:30:20.962Z</time></trkpt><trkpt lat="42.3769687" lon="-8.4837169"><ele>453.0</ele><time>2026-03-28T11:30:21.967Z</time></trkpt><trkpt lat="42.3768974" lon="-8.4836529"><ele>455.0</ele><time>2026-03-28T11:30:22.985Z</time></trkpt><trkpt lat="42.3768238" lon="-8.4835837"><ele>457.0</ele><time>2026-03-28T11:30:23.969Z</time></trkpt><trkpt lat="42.3767521" lon="-8.4835147"><ele>459.0</ele><time>2026-03-28T11:30:24.964Z</time></trkpt><trkpt lat="42.3766872" lon="-8.4834468"><ele>459.8333333333333</ele><time>2026-03-28T11:30:25.969Z</time></trkpt><trkpt lat="42.3766228" lon="-8.48338"><ele>460.66666666666663</ele><time>2026-03-28T11:30:26.966Z</time></trkpt><trkpt lat="42.3765617" lon="-8.483309"><ele>461.5</ele><time>2026-03-28T11:30:27.968Z</time></trkpt><trkpt lat="42.3764968" lon="-8.4832407"><ele>462.3333333333333</ele><time>2026-03-28T11:30:28.966Z</time></trkpt><trkpt lat="42.376424" lon="-8.4831745"><ele>463.16666666666663</ele><time>2026-03-28T11:30:29.964Z</time></trkpt><trkpt lat="42.3763521" lon="-8.4831025"><ele>464.0</ele><time>2026-03-28T11:30:30.964Z</time></trkpt><trkpt lat="42.3762847" lon="-8.4830223"><ele>467.4</ele><time>2026-03-28T11:30:31.977Z</time></trkpt><trkpt lat="42.3762153" lon="-8.4829482"><ele>470.79999999999995</ele><time>2026-03-28T11:30:32.959Z</time></trkpt><trkpt lat="42.3761377" lon="-8.4828857"><ele>474.20000000000005</ele><time>2026-03-28T11:30:33.966Z</time></trkpt><trkpt lat="42.376058" lon="-8.4828369"><ele>477.6</ele><time>2026-03-28T11:30:34.961Z</time></trkpt><trkpt lat="42.3759746" lon="-8.4827827"><ele>481.0</ele><time>2026-03-28T11:30:35.965Z</time></trkpt><trkpt lat="42.3758799" lon="-8.482722"><ele>481.0</ele><time>2026-03-28T11:30:36.976Z</time></trkpt><trkpt lat="42.3757794" lon="-8.4826601"><ele>481.0</ele><time>2026-03-28T11:30:37.965Z</time></trkpt><trkpt lat="42.3756777" lon="-8.4825994"><ele>481.0</ele><time>2026-03-28T11:30:38.963Z</time></trkpt><trkpt lat="42.3755836" lon="-8.4825386"><ele>481.0</ele><time>2026-03-28T11:30:39.966Z</time></trkpt><trkpt lat="42.3754999" lon="-8.4824785"><ele>481.0</ele><time>2026-03-28T11:30:40.966Z</time></trkpt><trkpt lat="42.3754275" lon="-8.4824079"><ele>480.6</ele><time>2026-03-28T11:30:41.965Z</time></trkpt><trkpt lat="42.3753535" lon="-8.4823281"><ele>480.20000000000005</ele><time>2026-03-28T11:30:42.968Z</time></trkpt><trkpt lat="42.3752784" lon="-8.4822588"><ele>479.79999999999995</ele><time>2026-03-28T11:30:43.968Z</time></trkpt><trkpt lat="42.3752078" lon="-8.4821892"><ele>479.4</ele><time>2026-03-28T11:30:44.965Z</time></trkpt><trkpt lat="42.375128" lon="-8.4821178"><ele>479.0</ele><time>2026-03-28T11:30:45.969Z</time></trkpt><trkpt lat="42.3750392" lon="-8.4820379"><ele>478.0</ele><time>2026-03-28T11:30:46.967Z</time></trkpt><trkpt lat="42.374948" lon="-8.4819548"><ele>477.0</ele><time>2026-03-28T11:30:47.969Z</time></trkpt><trkpt lat="42.3748663" lon="-8.481861"><ele>476.0</ele><time>2026-03-28T11:30:48.965Z</time></trkpt><trkpt lat="42.3747956" lon="-8.481763"><ele>475.0</ele><time>2026-03-28T11:30:49.961Z</time></trkpt><trkpt lat="42.3747342" lon="-8.4816629"><ele>474.0</ele><time>2026-03-28T11:30:50.976Z</time></trkpt><trkpt lat="42.3746802" lon="-8.4815741"><ele>473.5</ele><time>2026-03-28T11:30:51.96Z</time></trkpt><trkpt lat="42.3746202" lon="-8.4814905"><ele>473.0</ele><time>2026-03-28T11:30:52.966Z</time></trkpt><trkpt lat="42.374569" lon="-8.4814014"><ele>472.5</ele><time>2026-03-28T11:30:53.973Z</time></trkpt><trkpt lat="42.3745376" lon="-8.4812966"><ele>472.0</ele><time>2026-03-28T11:30:54.965Z</time></trkpt><trkpt lat="42.37452" lon="-8.4811904"><ele>471.5</ele><time>2026-03-28T11:30:55.97Z</time></trkpt><trkpt lat="42.3745125" lon="-8.4810826"><ele>471.0</ele><time>2026-03-28T11:30:56.966Z</time></trkpt><trkpt lat="42.3745151" lon="-8.4809809"><ele>470.3333333333333</ele><time>2026-03-28T11:30:57.961Z</time></trkpt><trkpt lat="42.3745154" lon="-8.4808733"><ele>469.66666666666663</ele><time>2026-03-28T11:30:58.964Z</time></trkpt><trkpt lat="42.3745231" lon="-8.4807687"><ele>469.0</ele><time>2026-03-28T11:30:59.971Z</time></trkpt><trkpt lat="42.3745395" lon="-8.4806784"><ele>468.3333333333333</ele><time>2026-03-28T11:31:00.967Z</time></trkpt><trkpt lat="42.3745518" lon="-8.4805934"><ele>467.66666666666663</ele><time>2026-03-28T11:31:01.971Z</time></trkpt><trkpt lat="42.3745499" lon="-8.4804319"><ele>467.0</ele><time>2026-03-28T11:31:03.966Z</time></trkpt><trkpt lat="42.3745084" lon="-8.4803164"><ele>466.8</ele><time>2026-03-28T11:31:05.971Z</time></trkpt><trkpt lat="42.3743845" lon="-8.4802379"><ele>466.6</ele><time>2026-03-28T11:31:07.971Z</time></trkpt><trkpt lat="42.3742988" lon="-8.4802088"><ele>466.40000000000003</ele><time>2026-03-28T11:31:08.963Z</time></trkpt><trkpt lat="42.3742045" lon="-8.4801607"><ele>466.20000000000005</ele><time>2026-03-28T11:31:09.969Z</time></trkpt><trkpt lat="42.3741151" lon="-8.4800902"><ele>466.0</ele><time>2026-03-28T11:31:10.968Z</time></trkpt><trkpt lat="42.3740254" lon="-8.4800268"><ele>466.00000000000006</ele><time>2026-03-28T11:31:11.971Z</time></trkpt><trkpt lat="42.3739518" lon="-8.4799775"><ele>466.0</ele><time>2026-03-28T11:31:12.966Z</time></trkpt><trkpt lat="42.3738951" lon="-8.4799273"><ele>466.0</ele><time>2026-03-28T11:31:13.969Z</time></trkpt><trkpt lat="42.3738443" lon="-8.479816"><ele>466.0</ele><time>2026-03-28T11:31:15.971Z</time></trkpt><trkpt lat="42.3739101" lon="-8.4797013"><ele>466.00000000000006</ele><time>2026-03-28T11:31:17.962Z</time></trkpt><trkpt lat="42.3739961" lon="-8.4796454"><ele>466.0</ele><time>2026-03-28T11:31:18.966Z</time></trkpt><trkpt lat="42.374083" lon="-8.4795937"><ele>467.5</ele><time>2026-03-28T11:31:19.971Z</time></trkpt><trkpt lat="42.3741858" lon="-8.4795131"><ele>469.0</ele><time>2026-03-28T11:31:20.965Z</time></trkpt><trkpt lat="42.3742762" lon="-8.4794078"><ele>470.5</ele><time>2026-03-28T11:31:21.966Z</time></trkpt><trkpt lat="42.3743588" lon="-8.4792816"><ele>472.0</ele><time>2026-03-28T11:31:22.965Z</time></trkpt><trkpt lat="42.3744341" lon="-8.4791681"><ele>472.0</ele><time>2026-03-28T11:31:23.967Z</time></trkpt><trkpt lat="42.3744973" lon="-8.4790546"><ele>472.00000000000006</ele><time>2026-03-28T11:31:24.965Z</time></trkpt><trkpt lat="42.3745578" lon="-8.4789515"><ele>472.00000000000006</ele><time>2026-03-28T11:31:25.969Z</time></trkpt><trkpt lat="42.3746215" lon="-8.4788507"><ele>472.0</ele><time>2026-03-28T11:31:26.968Z</time></trkpt><trkpt lat="42.3746864" lon="-8.4787567"><ele>472.0</ele><time>2026-03-28T11:31:27.97Z</time></trkpt><trkpt lat="42.3747522" lon="-8.4786882"><ele>471.20000000000005</ele><time>2026-03-28T11:31:28.973Z</time></trkpt><trkpt lat="42.3748338" lon="-8.4786493"><ele>470.40000000000003</ele><time>2026-03-28T11:31:29.969Z</time></trkpt><trkpt lat="42.3749276" lon="-8.478623"><ele>469.59999999999997</ele><time>2026-03-28T11:31:30.965Z</time></trkpt><trkpt lat="42.375023" lon="-8.4785854"><ele>468.79999999999995</ele><time>2026-03-28T11:31:31.968Z</time></trkpt><trkpt lat="42.3751134" lon="-8.4785354"><ele>468.0</ele><time>2026-03-28T11:31:32.972Z</time></trkpt><trkpt lat="42.3752044" lon="-8.4784798"><ele>468.0</ele><time>2026-03-28T11:31:33.967Z</time></trkpt><trkpt lat="42.3752909" lon="-8.4784186"><ele>468.0</ele><time>2026-03-28T11:31:34.966Z</time></trkpt><trkpt lat="42.3753657" lon="-8.4783587"><ele>468.0</ele><time>2026-03-28T11:31:35.979Z</time></trkpt><trkpt lat="42.3754293" lon="-8.4783038"><ele>468.0</ele><time>2026-03-28T11:31:36.967Z</time></trkpt><trkpt lat="42.3754901" lon="-8.4782423"><ele>468.0</ele><time>2026-03-28T11:31:37.966Z</time></trkpt><trkpt lat="42.3755482" lon="-8.4781676"><ele>468.0</ele><time>2026-03-28T11:31:38.967Z</time></trkpt><trkpt lat="42.3756027" lon="-8.4780814"><ele>466.3333333333333</ele><time>2026-03-28T11:31:39.967Z</time></trkpt><trkpt lat="42.3756442" lon="-8.4779843"><ele>464.66666666666663</ele><time>2026-03-28T11:31:40.963Z</time></trkpt><trkpt lat="42.3756756" lon="-8.4778763"><ele>463.0</ele><time>2026-03-28T11:31:41.964Z</time></trkpt><trkpt lat="42.3756902" lon="-8.4777633"><ele>461.3333333333333</ele><time>2026-03-28T11:31:42.964Z</time></trkpt><trkpt lat="42.3757004" lon="-8.4776455"><ele>459.66666666666663</ele><time>2026-03-28T11:31:43.962Z</time></trkpt><trkpt lat="42.3756969" lon="-8.4775342"><ele>458.0</ele><time>2026-03-28T11:31:44.972Z</time></trkpt><trkpt lat="42.3756769" lon="-8.4774278"><ele>458.0</ele><time>2026-03-28T11:31:45.962Z</time></trkpt><trkpt lat="42.3756447" lon="-8.4773237"><ele>457.99999999999994</ele><time>2026-03-28T11:31:46.96Z</time></trkpt><trkpt lat="42.3755958" lon="-8.4772281"><ele>457.99999999999994</ele><time>2026-03-28T11:31:47.969Z</time></trkpt><trkpt lat="42.3755259" lon="-8.4771282"><ele>458.0</ele><time>2026-03-28T11:31:48.966Z</time></trkpt><trkpt lat="42.3754507" lon="-8.4770248"><ele>458.0</ele><time>2026-03-28T11:31:49.968Z</time></trkpt><trkpt lat="42.3753802" lon="-8.476928"><ele>458.59999999999997</ele><time>2026-03-28T11:31:50.976Z</time></trkpt><trkpt lat="42.3753165" lon="-8.4768269"><ele>459.19999999999993</ele><time>2026-03-28T11:31:51.967Z</time></trkpt><trkpt lat="42.3752647" lon="-8.4767167"><ele>459.8</ele><time>2026-03-28T11:31:52.961Z</time></trkpt><trkpt lat="42.3752081" lon="-8.4765989"><ele>460.4</ele><time>2026-03-28T11:31:53.968Z</time></trkpt><trkpt lat="42.3751559" lon="-8.4764604"><ele>461.0</ele><time>2026-03-28T11:31:54.964Z</time></trkpt><trkpt lat="42.3751124" lon="-8.4763114"><ele>461.0</ele><time>2026-03-28T11:31:55.965Z</time></trkpt><trkpt lat="42.3750813" lon="-8.4761524"><ele>461.0</ele><time>2026-03-28T11:31:56.96Z</time></trkpt><trkpt lat="42.3750565" lon="-8.4759885"><ele>461.0</ele><time>2026-03-28T11:31:57.979Z</time></trkpt><trkpt lat="42.3750407" lon="-8.4758306"><ele>461.0</ele><time>2026-03-28T11:31:58.965Z</time></trkpt><trkpt lat="42.3750351" lon="-8.475683"><ele>460.99999999999994</ele><time>2026-03-28T11:31:59.96Z</time></trkpt><trkpt lat="42.3750384" lon="-8.4755459"><ele>461.0</ele><time>2026-03-28T11:32:00.961Z</time></trkpt><trkpt lat="42.3750622" lon="-8.4754128"><ele>461.0</ele><time>2026-03-28T11:32:01.967Z</time></trkpt><trkpt lat="42.3750955" lon="-8.4752912"><ele>461.0</ele><time>2026-03-28T11:32:02.967Z</time></trkpt><trkpt lat="42.3751159" lon="-8.4751959"><ele>460.99999999999994</ele><time>2026-03-28T11:32:03.964Z</time></trkpt><trkpt lat="42.3751205" lon="-8.4750914"><ele>461.0</ele><time>2026-03-28T11:32:05.96Z</time></trkpt><trkpt lat="42.3750463" lon="-8.4750226"><ele>461.4</ele><time>2026-03-28T11:32:07.965Z</time></trkpt><trkpt lat="42.3749636" lon="-8.4749435"><ele>461.8</ele><time>2026-03-28T11:32:09.97Z</time></trkpt><trkpt lat="42.3748723" lon="-8.4748611"><ele>462.19999999999993</ele><time>2026-03-28T11:32:11.96Z</time></trkpt><trkpt lat="42.3748202" lon="-8.4748108"><ele>462.59999999999997</ele><time>2026-03-28T11:32:12.968Z</time></trkpt><trkpt lat="42.3747709" lon="-8.4747536"><ele>463.0</ele><time>2026-03-28T11:32:13.964Z</time></trkpt><trkpt lat="42.3746875" lon="-8.4746477"><ele>462.50000000000006</ele><time>2026-03-28T11:32:15.971Z</time></trkpt><trkpt lat="42.3746297" lon="-8.4745685"><ele>462.0</ele><time>2026-03-28T11:32:17.966Z</time></trkpt><trkpt lat="42.3745953" lon="-8.4744652"><ele>461.5</ele><time>2026-03-28T11:32:19.963Z</time></trkpt><trkpt lat="42.3745563" lon="-8.4743789"><ele>461.0</ele><time>2026-03-28T11:32:21.964Z</time></trkpt><trkpt lat="42.3744878" lon="-8.4742853"><ele>460.50000000000006</ele><time>2026-03-28T11:32:23.971Z</time></trkpt><trkpt lat="42.3744267" lon="-8.4741779"><ele>460.0</ele><time>2026-03-28T11:32:25.963Z</time></trkpt><trkpt lat="42.3743813" lon="-8.4740534"><ele>459.99999999999994</ele><time>2026-03-28T11:32:27.967Z</time></trkpt><trkpt lat="42.3743591" lon="-8.473945"><ele>460.0</ele><time>2026-03-28T11:32:29.969Z</time></trkpt><trkpt lat="42.3743502" lon="-8.4738603"><ele>459.99999999999994</ele><time>2026-03-28T11:32:33.967Z</time></trkpt><trkpt lat="42.374354" lon="-8.4737661"><ele>459.99999999999994</ele><time>2026-03-28T11:32:42.959Z</time></trkpt><trkpt lat="42.3743458" lon="-8.4736788"><ele>460.0</ele><time>2026-03-28T11:32:46.964Z</time></trkpt><trkpt lat="42.3743732" lon="-8.4735604"><ele>459.99999999999994</ele><time>2026-03-28T11:32:49.972Z</time></trkpt><trkpt lat="42.3743981" lon="-8.473468"><ele>459.99999999999994</ele><time>2026-03-28T11:32:51.965Z</time></trkpt><trkpt lat="42.3744146" lon="-8.4733631"><ele>457.6</ele><time>2026-03-28T11:32:53.962Z</time></trkpt><trkpt lat="42.3744271" lon="-8.4732168"><ele>455.2</ele><time>2026-03-28T11:32:55.963Z</time></trkpt><trkpt lat="42.3744726" lon="-8.4730856"><ele>452.79999999999995</ele><time>2026-03-28T11:32:57.964Z</time></trkpt><trkpt lat="42.3745219" lon="-8.4730074"><ele>450.4</ele><time>2026-03-28T11:33:02.967Z</time></trkpt><trkpt lat="42.3745573" lon="-8.4729007"><ele>448.0</ele><time>2026-03-28T11:33:05.963Z</time></trkpt><trkpt lat="42.3746007" lon="-8.4728119"><ele>448.00000000000006</ele><time>2026-03-28T11:33:07.967Z</time></trkpt><trkpt lat="42.374646" lon="-8.472729"><ele>448.0</ele><time>2026-03-28T11:33:09.97Z</time></trkpt><trkpt lat="42.3746727" lon="-8.4726067"><ele>448.0</ele><time>2026-03-28T11:33:12.964Z</time></trkpt><trkpt lat="42.3747153" lon="-8.4725224"><ele>448.0</ele><time>2026-03-28T11:33:14.975Z</time></trkpt><trkpt lat="42.3747641" lon="-8.4724592"><ele>448.00000000000006</ele><time>2026-03-28T11:33:16.968Z</time></trkpt><trkpt lat="42.3747999" lon="-8.4723213"><ele>448.0</ele><time>2026-03-28T11:33:18.972Z</time></trkpt><trkpt lat="42.3748448" lon="-8.4722466"><ele>448.00000000000006</ele><time>2026-03-28T11:33:20.96Z</time></trkpt><trkpt lat="42.3748979" lon="-8.4721554"><ele>448.0</ele><time>2026-03-28T11:33:22.967Z</time></trkpt><trkpt lat="42.3749114" lon="-8.4720144"><ele>448.0</ele><time>2026-03-28T11:33:24.963Z</time></trkpt><trkpt lat="42.3749143" lon="-8.4719238"><ele>448.0</ele><time>2026-03-28T11:33:25.961Z</time></trkpt><trkpt lat="42.3749245" lon="-8.4718335"><ele>448.00000000000006</ele><time>2026-03-28T11:33:26.966Z</time></trkpt><trkpt lat="42.3749517" lon="-8.4717528"><ele>448.0</ele><time>2026-03-28T11:33:27.965Z</time></trkpt><trkpt lat="42.3749992" lon="-8.4716827"><ele>447.6666666666667</ele><time>2026-03-28T11:33:28.969Z</time></trkpt><trkpt lat="42.3750566" lon="-8.471623"><ele>447.33333333333337</ele><time>2026-03-28T11:33:29.959Z</time></trkpt><trkpt lat="42.3751109" lon="-8.4715653"><ele>447.0</ele><time>2026-03-28T11:33:30.963Z</time></trkpt><trkpt lat="42.3751981" lon="-8.4714616"><ele>446.66666666666663</ele><time>2026-03-28T11:33:32.969Z</time></trkpt><trkpt lat="42.3752522" lon="-8.4713327"><ele>446.3333333333333</ele><time>2026-03-28T11:33:34.965Z</time></trkpt><trkpt lat="42.37528" lon="-8.4712276"><ele>446.0</ele><time>2026-03-28T11:33:36.971Z</time></trkpt><trkpt lat="42.3753078" lon="-8.4711479"><ele>445.99999999999994</ele><time>2026-03-28T11:33:50.966Z</time></trkpt><trkpt lat="42.3753577" lon="-8.4710622"><ele>446.0</ele><time>2026-03-28T11:33:53.962Z</time></trkpt><trkpt lat="42.3753892" lon="-8.470963"><ele>446.0</ele><time>2026-03-28T11:33:55.965Z</time></trkpt><trkpt lat="42.3754111" lon="-8.4708179"><ele>446.0</ele><time>2026-03-28T11:33:57.96Z</time></trkpt><trkpt lat="42.3754094" lon="-8.470731"><ele>445.99999999999994</ele><time>2026-03-28T11:33:58.962Z</time></trkpt><trkpt lat="42.3754068" lon="-8.4706315"><ele>446.0</ele><time>2026-03-28T11:33:59.975Z</time></trkpt><trkpt lat="42.3753999" lon="-8.4705315"><ele>445.8</ele><time>2026-03-28T11:34:00.966Z</time></trkpt><trkpt lat="42.3753969" lon="-8.47043"><ele>445.6</ele><time>2026-03-28T11:34:01.965Z</time></trkpt><trkpt lat="42.3753959" lon="-8.4703245"><ele>445.4</ele><time>2026-03-28T11:34:02.969Z</time></trkpt><trkpt lat="42.3754089" lon="-8.4702081"><ele>445.2</ele><time>2026-03-28T11:34:03.967Z</time></trkpt><trkpt lat="42.375421" lon="-8.4700709"><ele>445.0</ele><time>2026-03-28T11:34:04.963Z</time></trkpt><trkpt lat="42.3754472" lon="-8.4699218"><ele>445.0</ele><time>2026-03-28T11:34:05.961Z</time></trkpt><trkpt lat="42.3754799" lon="-8.469778"><ele>445.0</ele><time>2026-03-28T11:34:06.97Z</time></trkpt><trkpt lat="42.3755164" lon="-8.4696344"><ele>445.0</ele><time>2026-03-28T11:34:07.963Z</time></trkpt><trkpt lat="42.3755449" lon="-8.4694924"><ele>445.0</ele><time>2026-03-28T11:34:08.968Z</time></trkpt><trkpt lat="42.3755595" lon="-8.4693544"><ele>445.0</ele><time>2026-03-28T11:34:09.965Z</time></trkpt><trkpt lat="42.3755763" lon="-8.469229"><ele>446.6666666666667</ele><time>2026-03-28T11:34:10.965Z</time></trkpt><trkpt lat="42.3755982" lon="-8.4691245"><ele>448.33333333333337</ele><time>2026-03-28T11:34:11.969Z</time></trkpt><trkpt lat="42.375632" lon="-8.4690486"><ele>450.0</ele><time>2026-03-28T11:34:12.961Z</time></trkpt><trkpt lat="42.3756779" lon="-8.4689471"><ele>451.66666666666663</ele><time>2026-03-28T11:34:14.96Z</time></trkpt><trkpt lat="42.375723" lon="-8.4688821"><ele>453.3333333333333</ele><time>2026-03-28T11:34:16.962Z</time></trkpt><trkpt lat="42.3757867" lon="-8.4688093"><ele>455.0</ele><time>2026-03-28T11:34:18.968Z</time></trkpt><trkpt lat="42.3758605" lon="-8.4687153"><ele>454.99999999999994</ele><time>2026-03-28T11:34:20.968Z</time></trkpt><trkpt lat="42.3759354" lon="-8.4686215"><ele>455.0</ele><time>2026-03-28T11:34:22.96Z</time></trkpt><trkpt lat="42.3759969" lon="-8.4685419"><ele>455.0</ele><time>2026-03-28T11:34:24.97Z</time></trkpt><trkpt lat="42.3760462" lon="-8.4684694"><ele>455.0</ele><time>2026-03-28T11:34:26.975Z</time></trkpt><trkpt lat="42.3760999" lon="-8.468392"><ele>454.99999999999994</ele><time>2026-03-28T11:34:28.958Z</time></trkpt><trkpt lat="42.3761623" lon="-8.46834"><ele>455.0</ele><time>2026-03-28T11:34:30.963Z</time></trkpt><trkpt lat="42.3762349" lon="-8.4683246"><ele>454.99999999999994</ele><time>2026-03-28T11:34:32.979Z</time></trkpt><trkpt lat="42.3763107" lon="-8.4683456"><ele>455.0</ele><time>2026-03-28T11:34:35.969Z</time></trkpt><trkpt lat="42.3763905" lon="-8.4683506"><ele>455.0</ele><time>2026-03-28T11:34:38.961Z</time></trkpt><trkpt lat="42.3765041" lon="-8.4683583"><ele>455.0</ele><time>2026-03-28T11:34:40.967Z</time></trkpt><trkpt lat="42.376577" lon="-8.4683684"><ele>454.99999999999994</ele><time>2026-03-28T11:34:41.963Z</time></trkpt><trkpt lat="42.3766597" lon="-8.4683839"><ele>455.0</ele><time>2026-03-28T11:34:42.96Z</time></trkpt><trkpt lat="42.3767431" lon="-8.4684009"><ele>455.2</ele><time>2026-03-28T11:34:43.961Z</time></trkpt><trkpt lat="42.3768319" lon="-8.4684113"><ele>455.4</ele><time>2026-03-28T11:34:44.969Z</time></trkpt><trkpt lat="42.3769261" lon="-8.4684192"><ele>455.6</ele><time>2026-03-28T11:34:45.972Z</time></trkpt><trkpt lat="42.3770197" lon="-8.4684214"><ele>455.8</ele><time>2026-03-28T11:34:46.96Z</time></trkpt><trkpt lat="42.3771135" lon="-8.4684223"><ele>456.0</ele><time>2026-03-28T11:34:47.966Z</time></trkpt><trkpt lat="42.3772031" lon="-8.4684314"><ele>455.1666666666667</ele><time>2026-03-28T11:34:48.965Z</time></trkpt><trkpt lat="42.377292" lon="-8.468436"><ele>454.33333333333337</ele><time>2026-03-28T11:34:49.962Z</time></trkpt><trkpt lat="42.3773825" lon="-8.4684423"><ele>453.5</ele><time>2026-03-28T11:34:50.961Z</time></trkpt><trkpt lat="42.3774641" lon="-8.4684523"><ele>452.6666666666667</ele><time>2026-03-28T11:34:51.98Z</time></trkpt><trkpt lat="42.3775393" lon="-8.4684549"><ele>451.83333333333337</ele><time>2026-03-28T11:34:52.96Z</time></trkpt><trkpt lat="42.3776143" lon="-8.4684521"><ele>451.0</ele><time>2026-03-28T11:34:53.971Z</time></trkpt><trkpt lat="42.3776888" lon="-8.4684526"><ele>451.00000000000006</ele><time>2026-03-28T11:34:54.965Z</time></trkpt><trkpt lat="42.3777631" lon="-8.468454"><ele>451.0</ele><time>2026-03-28T11:34:55.964Z</time></trkpt><trkpt lat="42.3778374" lon="-8.4684571"><ele>451.0</ele><time>2026-03-28T11:34:56.962Z</time></trkpt><trkpt lat="42.3779154" lon="-8.4684587"><ele>451.0</ele><time>2026-03-28T11:34:57.97Z</time></trkpt><trkpt lat="42.377991" lon="-8.4684655"><ele>451.00000000000006</ele><time>2026-03-28T11:34:58.965Z</time></trkpt><trkpt lat="42.3780677" lon="-8.4684741"><ele>451.0</ele><time>2026-03-28T11:34:59.964Z</time></trkpt><trkpt lat="42.378138" lon="-8.4684805"><ele>449.8</ele><time>2026-03-28T11:35:00.962Z</time></trkpt><trkpt lat="42.3782431" lon="-8.4684582"><ele>448.6</ele><time>2026-03-28T11:35:02.961Z</time></trkpt><trkpt lat="42.3782813" lon="-8.4683582"><ele>447.4</ele><time>2026-03-28T11:35:04.96Z</time></trkpt><trkpt lat="42.3782949" lon="-8.468197"><ele>446.2</ele><time>2026-03-28T11:35:06.964Z</time></trkpt><trkpt lat="42.3783108" lon="-8.4681004"><ele>445.0</ele><time>2026-03-28T11:35:07.967Z</time></trkpt><trkpt lat="42.3783294" lon="-8.4679942"><ele>446.0</ele><time>2026-03-28T11:35:08.961Z</time></trkpt><trkpt lat="42.3783452" lon="-8.4678744"><ele>447.0</ele><time>2026-03-28T11:35:09.956Z</time></trkpt><trkpt lat="42.3783536" lon="-8.4677485"><ele>448.0</ele><time>2026-03-28T11:35:10.968Z</time></trkpt><trkpt lat="42.3783447" lon="-8.4676202"><ele>449.0</ele><time>2026-03-28T11:35:11.967Z</time></trkpt><trkpt lat="42.3783183" lon="-8.4675041"><ele>450.0</ele><time>2026-03-28T11:35:12.97Z</time></trkpt><trkpt lat="42.3782788" lon="-8.467394"><ele>450.0</ele><time>2026-03-28T11:35:13.964Z</time></trkpt><trkpt lat="42.3782457" lon="-8.4673039"><ele>450.0</ele><time>2026-03-28T11:35:14.963Z</time></trkpt><trkpt lat="42.3782068" lon="-8.467152"><ele>450.0</ele><time>2026-03-28T11:35:16.962Z</time></trkpt><trkpt lat="42.378158" lon="-8.4670291"><ele>450.0</ele><time>2026-03-28T11:35:18.958Z</time></trkpt><trkpt lat="42.3781038" lon="-8.4668999"><ele>450.0</ele><time>2026-03-28T11:35:20.961Z</time></trkpt><trkpt lat="42.3780437" lon="-8.4667717"><ele>449.8571428571429</ele><time>2026-03-28T11:35:22.962Z</time></trkpt><trkpt lat="42.3780091" lon="-8.4666958"><ele>449.7142857142857</ele><time>2026-03-28T11:35:23.982Z</time></trkpt><trkpt lat="42.3779864" lon="-8.46661"><ele>449.57142857142856</ele><time>2026-03-28T11:35:24.964Z</time></trkpt><trkpt lat="42.3779663" lon="-8.4665174"><ele>449.42857142857144</ele><time>2026-03-28T11:35:25.963Z</time></trkpt><trkpt lat="42.37796" lon="-8.4664105"><ele>449.2857142857142</ele><time>2026-03-28T11:35:26.965Z</time></trkpt><trkpt lat="42.3779606" lon="-8.4663093"><ele>449.1428571428571</ele><time>2026-03-28T11:35:27.974Z</time></trkpt><trkpt lat="42.3779629" lon="-8.4662146"><ele>449.0</ele><time>2026-03-28T11:35:28.968Z</time></trkpt><trkpt lat="42.3779665" lon="-8.4661095"><ele>448.66666666666663</ele><time>2026-03-28T11:35:29.965Z</time></trkpt><trkpt lat="42.3779747" lon="-8.4659993"><ele>448.3333333333333</ele><time>2026-03-28T11:35:30.964Z</time></trkpt><trkpt lat="42.377991" lon="-8.465902"><ele>448.0</ele><time>2026-03-28T11:35:31.966Z</time></trkpt><trkpt lat="42.3780178" lon="-8.4658061"><ele>447.66666666666663</ele><time>2026-03-28T11:35:32.967Z</time></trkpt><trkpt lat="42.3780504" lon="-8.4657088"><ele>447.3333333333333</ele><time>2026-03-28T11:35:33.963Z</time></trkpt><trkpt lat="42.3780835" lon="-8.4656184"><ele>447.0</ele><time>2026-03-28T11:35:34.958Z</time></trkpt><trkpt lat="42.3781235" lon="-8.46553"><ele>447.0</ele><time>2026-03-28T11:35:35.966Z</time></trkpt><trkpt lat="42.3781716" lon="-8.4654476"><ele>447.0</ele><time>2026-03-28T11:35:36.96Z</time></trkpt><trkpt lat="42.3782267" lon="-8.4653632"><ele>447.0</ele><time>2026-03-28T11:35:37.969Z</time></trkpt><trkpt lat="42.3782802" lon="-8.4652735"><ele>447.0</ele><time>2026-03-28T11:35:38.965Z</time></trkpt><trkpt lat="42.3783377" lon="-8.4651955"><ele>447.0</ele><time>2026-03-28T11:35:39.975Z</time></trkpt><trkpt lat="42.3783965" lon="-8.4651277"><ele>447.0</ele><time>2026-03-28T11:35:40.969Z</time></trkpt><trkpt lat="42.3784695" lon="-8.4650704"><ele>447.0</ele><time>2026-03-28T11:35:41.964Z</time></trkpt><trkpt lat="42.3785491" lon="-8.4650175"><ele>447.0</ele><time>2026-03-28T11:35:42.969Z</time></trkpt><trkpt lat="42.3786214" lon="-8.4649617"><ele>447.0</ele><time>2026-03-28T11:35:43.961Z</time></trkpt><trkpt lat="42.3786874" lon="-8.464889"><ele>447.0</ele><time>2026-03-28T11:35:44.959Z</time></trkpt><trkpt lat="42.378751" lon="-8.4648054"><ele>447.0</ele><time>2026-03-28T11:35:45.971Z</time></trkpt><trkpt lat="42.3788191" lon="-8.4647232"><ele>447.0</ele><time>2026-03-28T11:35:46.967Z</time></trkpt><trkpt lat="42.3788944" lon="-8.4646507"><ele>447.3333333333333</ele><time>2026-03-28T11:35:47.963Z</time></trkpt><trkpt lat="42.3789684" lon="-8.4645826"><ele>447.66666666666663</ele><time>2026-03-28T11:35:48.972Z</time></trkpt><trkpt lat="42.3790414" lon="-8.4645095"><ele>448.0</ele><time>2026-03-28T11:35:49.96Z</time></trkpt><trkpt lat="42.3791126" lon="-8.464433"><ele>448.3333333333333</ele><time>2026-03-28T11:35:50.959Z</time></trkpt><trkpt lat="42.3791896" lon="-8.4643718"><ele>448.66666666666663</ele><time>2026-03-28T11:35:51.964Z</time></trkpt><trkpt lat="42.3792632" lon="-8.4643233"><ele>449.0</ele><time>2026-03-28T11:35:52.961Z</time></trkpt><trkpt lat="42.3793378" lon="-8.4642669"><ele>448.99999999999994</ele><time>2026-03-28T11:35:53.959Z</time></trkpt><trkpt lat="42.3794038" lon="-8.4641972"><ele>449.0</ele><time>2026-03-28T11:35:54.962Z</time></trkpt><trkpt lat="42.3794519" lon="-8.4641181"><ele>449.0</ele><time>2026-03-28T11:35:55.959Z</time></trkpt><trkpt lat="42.3794701" lon="-8.4639474"><ele>449.0</ele><time>2026-03-28T11:35:57.966Z</time></trkpt><trkpt lat="42.3794734" lon="-8.4638493"><ele>448.99999999999994</ele><time>2026-03-28T11:35:58.974Z</time></trkpt><trkpt lat="42.3794698" lon="-8.4637496"><ele>449.0</ele><time>2026-03-28T11:35:59.97Z</time></trkpt><trkpt lat="42.3794573" lon="-8.4636411"><ele>448.66666666666663</ele><time>2026-03-28T11:36:00.957Z</time></trkpt><trkpt lat="42.3794389" lon="-8.4635245"><ele>448.3333333333333</ele><time>2026-03-28T11:36:01.958Z</time></trkpt><trkpt lat="42.3794198" lon="-8.463415"><ele>448.0</ele><time>2026-03-28T11:36:02.968Z</time></trkpt><trkpt lat="42.3794081" lon="-8.4633072"><ele>447.66666666666663</ele><time>2026-03-28T11:36:03.96Z</time></trkpt><trkpt lat="42.3794089" lon="-8.4632074"><ele>447.3333333333333</ele><time>2026-03-28T11:36:04.972Z</time></trkpt><trkpt lat="42.3794122" lon="-8.4631012"><ele>447.0</ele><time>2026-03-28T11:36:05.97Z</time></trkpt><trkpt lat="42.3794185" lon="-8.4629796"><ele>446.1666666666667</ele><time>2026-03-28T11:36:06.965Z</time></trkpt><trkpt lat="42.3794333" lon="-8.4628567"><ele>445.33333333333337</ele><time>2026-03-28T11:36:07.967Z</time></trkpt><trkpt lat="42.379441" lon="-8.4627451"><ele>444.5</ele><time>2026-03-28T11:36:08.971Z</time></trkpt><trkpt lat="42.3794475" lon="-8.4626385"><ele>443.6666666666667</ele><time>2026-03-28T11:36:09.96Z</time></trkpt><trkpt lat="42.3794579" lon="-8.4625278"><ele>442.83333333333337</ele><time>2026-03-28T11:36:10.96Z</time></trkpt><trkpt lat="42.3794728" lon="-8.4624154"><ele>442.0</ele><time>2026-03-28T11:36:11.957Z</time></trkpt><trkpt lat="42.3794957" lon="-8.4623067"><ele>442.00000000000006</ele><time>2026-03-28T11:36:12.963Z</time></trkpt><trkpt lat="42.3795242" lon="-8.4622084"><ele>442.0</ele><time>2026-03-28T11:36:13.961Z</time></trkpt><trkpt lat="42.3795588" lon="-8.4621175"><ele>442.0</ele><time>2026-03-28T11:36:14.961Z</time></trkpt><trkpt lat="42.3795937" lon="-8.462022"><ele>442.0</ele><time>2026-03-28T11:36:15.969Z</time></trkpt><trkpt lat="42.3796272" lon="-8.461931"><ele>442.00000000000006</ele><time>2026-03-28T11:36:16.971Z</time></trkpt><trkpt lat="42.3796595" lon="-8.4618518"><ele>442.0</ele><time>2026-03-28T11:36:17.966Z</time></trkpt><trkpt lat="42.3797024" lon="-8.4617041"><ele>441.8</ele><time>2026-03-28T11:36:19.966Z</time></trkpt><trkpt lat="42.379713" lon="-8.4615669"><ele>441.6</ele><time>2026-03-28T11:36:21.958Z</time></trkpt><trkpt lat="42.3797402" lon="-8.4614489"><ele>441.40000000000003</ele><time>2026-03-28T11:36:23.959Z</time></trkpt><trkpt lat="42.3797995" lon="-8.4613359"><ele>441.20000000000005</ele><time>2026-03-28T11:36:25.956Z</time></trkpt><trkpt lat="42.3798817" lon="-8.4612393"><ele>441.0</ele><time>2026-03-28T11:36:27.964Z</time></trkpt><trkpt lat="42.3799854" lon="-8.4611458"><ele>441.0</ele><time>2026-03-28T11:36:29.96Z</time></trkpt><trkpt lat="42.3800489" lon="-8.4610956"><ele>441.0</ele><time>2026-03-28T11:36:30.964Z</time></trkpt><trkpt lat="42.380107" lon="-8.4610464"><ele>441.0</ele><time>2026-03-28T11:36:31.966Z</time></trkpt><trkpt lat="42.3801983" lon="-8.4609512"><ele>441.0</ele><time>2026-03-28T11:36:33.963Z</time></trkpt><trkpt lat="42.3802782" lon="-8.4608367"><ele>441.0</ele><time>2026-03-28T11:36:35.972Z</time></trkpt><trkpt lat="42.3803536" lon="-8.4607127"><ele>441.0</ele><time>2026-03-28T11:36:37.962Z</time></trkpt><trkpt lat="42.3804068" lon="-8.4606011"><ele>441.0</ele><time>2026-03-28T11:36:39.962Z</time></trkpt><trkpt lat="42.3804766" lon="-8.4605864"><ele>441.0</ele><time>2026-03-28T11:36:46.959Z</time></trkpt><trkpt lat="42.3805213" lon="-8.4606982"><ele>441.0</ele><time>2026-03-28T11:36:48.967Z</time></trkpt><trkpt lat="42.3805451" lon="-8.4607957"><ele>441.0</ele><time>2026-03-28T11:36:50.959Z</time></trkpt><trkpt lat="42.380563" lon="-8.460902"><ele>441.0</ele><time>2026-03-28T11:36:53.965Z</time></trkpt><trkpt lat="42.3806241" lon="-8.4609266"><ele>441.6</ele><time>2026-03-28T11:36:55.966Z</time></trkpt><trkpt lat="42.3807297" lon="-8.4609528"><ele>442.20000000000005</ele><time>2026-03-28T11:36:57.959Z</time></trkpt><trkpt lat="42.380866" lon="-8.4609617"><ele>442.79999999999995</ele><time>2026-03-28T11:36:59.957Z</time></trkpt><trkpt lat="42.3809506" lon="-8.4609374"><ele>443.4</ele><time>2026-03-28T11:37:00.961Z</time></trkpt><trkpt lat="42.3810588" lon="-8.4608885"><ele>444.0</ele><time>2026-03-28T11:37:01.962Z</time></trkpt><trkpt lat="42.3811735" lon="-8.460822"><ele>444.0</ele><time>2026-03-28T11:37:02.96Z</time></trkpt><trkpt lat="42.3812906" lon="-8.4607481"><ele>444.0</ele><time>2026-03-28T11:37:03.959Z</time></trkpt><trkpt lat="42.3814084" lon="-8.4606711"><ele>444.0</ele><time>2026-03-28T11:37:04.963Z</time></trkpt><trkpt lat="42.3815109" lon="-8.4605943"><ele>444.0</ele><time>2026-03-28T11:37:05.974Z</time></trkpt><trkpt lat="42.3816079" lon="-8.4605192"><ele>445.5</ele><time>2026-03-28T11:37:06.961Z</time></trkpt><trkpt lat="42.3816991" lon="-8.4604454"><ele>447.0</ele><time>2026-03-28T11:37:07.962Z</time></trkpt><trkpt lat="42.3817798" lon="-8.4603848"><ele>448.5</ele><time>2026-03-28T11:37:08.961Z</time></trkpt><trkpt lat="42.3818479" lon="-8.4603362"><ele>450.0</ele><time>2026-03-28T11:37:09.963Z</time></trkpt><trkpt lat="42.3819091" lon="-8.4602923"><ele>451.5</ele><time>2026-03-28T11:37:10.963Z</time></trkpt><trkpt lat="42.3819885" lon="-8.4602185"><ele>453.0</ele><time>2026-03-28T11:37:12.96Z</time></trkpt><trkpt lat="42.3820214" lon="-8.4601337"><ele>453.0</ele><time>2026-03-28T11:37:15.969Z</time></trkpt><trkpt lat="42.3819987" lon="-8.4600221"><ele>453.0</ele><time>2026-03-28T11:37:19.962Z</time></trkpt><trkpt lat="42.3820523" lon="-8.4599668"><ele>453.0</ele><time>2026-03-28T11:37:24.959Z</time></trkpt><trkpt lat="42.3820534" lon="-8.4600558"><ele>453.0</ele><time>2026-03-28T11:37:28.96Z</time></trkpt><trkpt lat="42.3820228" lon="-8.4601391"><ele>453.0</ele><time>2026-03-28T11:37:30.962Z</time></trkpt><trkpt lat="42.3819659" lon="-8.4602433"><ele>453.0</ele><time>2026-03-28T11:37:33.958Z</time></trkpt><trkpt lat="42.3819029" lon="-8.4602831"><ele>453.0</ele><time>2026-03-28T11:37:35.97Z</time></trkpt><trkpt lat="42.3818933" lon="-8.4601762"><ele>452.99999999999994</ele><time>2026-03-28T11:37:40.954Z</time></trkpt><trkpt lat="42.3818816" lon="-8.4600427"><ele>452.99999999999994</ele><time>2026-03-28T11:37:42.963Z</time></trkpt><trkpt lat="42.3818621" lon="-8.4599105"><ele>453.0</ele><time>2026-03-28T11:37:44.968Z</time></trkpt><trkpt lat="42.3818703" lon="-8.4597535"><ele>453.0</ele><time>2026-03-28T11:37:46.958Z</time></trkpt><trkpt lat="42.3818599" lon="-8.4596202"><ele>454.5</ele><time>2026-03-28T11:37:47.96Z</time></trkpt><trkpt lat="42.3818416" lon="-8.4595158"><ele>456.0</ele><time>2026-03-28T11:37:48.958Z</time></trkpt><trkpt lat="42.3818173" lon="-8.4594016"><ele>457.5</ele><time>2026-03-28T11:37:49.958Z</time></trkpt><trkpt lat="42.3817844" lon="-8.4592887"><ele>459.0</ele><time>2026-03-28T11:37:50.971Z</time></trkpt><trkpt lat="42.3817645" lon="-8.4591854"><ele>460.5</ele><time>2026-03-28T11:37:51.957Z</time></trkpt><trkpt lat="42.3817455" lon="-8.4590767"><ele>462.0</ele><time>2026-03-28T11:37:52.955Z</time></trkpt><trkpt lat="42.3817355" lon="-8.4589874"><ele>462.0</ele><time>2026-03-28T11:37:53.962Z</time></trkpt><trkpt lat="42.3817287" lon="-8.458856"><ele>462.0</ele><time>2026-03-28T11:37:55.964Z</time></trkpt><trkpt lat="42.3817618" lon="-8.4587598"><ele>462.0</ele><time>2026-03-28T11:37:58.953Z</time></trkpt><trkpt lat="42.3818082" lon="-8.4588191"><ele>462.0</ele><time>2026-03-28T11:38:04.97Z</time></trkpt><trkpt lat="42.3818779" lon="-8.4588572"><ele>462.0</ele><time>2026-03-28T11:38:05.958Z</time></trkpt><trkpt lat="42.3819606" lon="-8.4589253"><ele>462.0</ele><time>2026-03-28T11:38:06.965Z</time></trkpt><trkpt lat="42.3820413" lon="-8.4589872"><ele>462.0</ele><time>2026-03-28T11:38:07.959Z</time></trkpt><trkpt lat="42.3821167" lon="-8.4590485"><ele>462.00000000000006</ele><time>2026-03-28T11:38:08.968Z</time></trkpt><trkpt lat="42.3821861" lon="-8.4590894"><ele>462.00000000000006</ele><time>2026-03-28T11:38:09.963Z</time></trkpt><trkpt lat="42.3822803" lon="-8.4591243"><ele>462.0</ele><time>2026-03-28T11:38:10.956Z</time></trkpt><trkpt lat="42.3823887" lon="-8.4591519"><ele>462.0</ele><time>2026-03-28T11:38:11.963Z</time></trkpt><trkpt lat="42.3824774" lon="-8.4591953"><ele>463.8</ele><time>2026-03-28T11:38:12.962Z</time></trkpt><trkpt lat="42.3825459" lon="-8.4592333"><ele>465.6</ele><time>2026-03-28T11:38:13.951Z</time></trkpt><trkpt lat="42.3826642" lon="-8.4592531"><ele>467.40000000000003</ele><time>2026-03-28T11:38:15.96Z</time></trkpt><trkpt lat="42.3827772" lon="-8.4592368"><ele>469.20000000000005</ele><time>2026-03-28T11:38:17.959Z</time></trkpt><trkpt lat="42.3828454" lon="-8.4592042"><ele>471.0</ele><time>2026-03-28T11:38:18.955Z</time></trkpt><trkpt lat="42.3829166" lon="-8.459141"><ele>471.0</ele><time>2026-03-28T11:38:19.956Z</time></trkpt><trkpt lat="42.382999" lon="-8.4590709"><ele>471.0</ele><time>2026-03-28T11:38:20.967Z</time></trkpt><trkpt lat="42.3830837" lon="-8.4590038"><ele>471.0</ele><time>2026-03-28T11:38:21.958Z</time></trkpt><trkpt lat="42.3832319" lon="-8.4588908"><ele>471.0</ele><time>2026-03-28T11:38:23.754Z</time></trkpt><trkpt lat="42.3833212" lon="-8.4588439"><ele>472.0</ele><time>2026-03-28T11:38:24.764Z</time></trkpt><trkpt lat="42.3834122" lon="-8.4587955"><ele>473.0</ele><time>2026-03-28T11:38:25.759Z</time></trkpt><trkpt lat="42.3834934" lon="-8.4587432"><ele>474.0</ele><time>2026-03-28T11:38:26.766Z</time></trkpt><trkpt lat="42.3835718" lon="-8.4586888"><ele>475.0</ele><time>2026-03-28T11:38:27.754Z</time></trkpt><trkpt lat="42.3836476" lon="-8.4586368"><ele>476.0</ele><time>2026-03-28T11:38:28.76Z</time></trkpt><trkpt lat="42.3837259" lon="-8.4585788"><ele>477.0</ele><time>2026-03-28T11:38:29.756Z</time></trkpt><trkpt lat="42.3837929" lon="-8.4585111"><ele>478.0</ele><time>2026-03-28T11:38:30.762Z</time></trkpt><trkpt lat="42.3838506" lon="-8.4584454"><ele>479.0</ele><time>2026-03-28T11:38:31.758Z</time></trkpt><trkpt lat="42.3839668" lon="-8.4583018"><ele>480.0</ele><time>2026-03-28T11:38:34.454Z</time></trkpt><trkpt lat="42.3840076" lon="-8.4581938"><ele>481.0</ele><time>2026-03-28T11:38:36.263Z</time></trkpt><trkpt lat="42.3840409" lon="-8.4580642"><ele>478.6666666666667</ele><time>2026-03-28T11:38:38.057Z</time></trkpt><trkpt lat="42.3840946" lon="-8.4579075"><ele>476.33333333333337</ele><time>2026-03-28T11:38:39.966Z</time></trkpt><trkpt lat="42.3841217" lon="-8.4578179"><ele>474.0</ele><time>2026-03-28T11:38:40.971Z</time></trkpt><trkpt lat="42.3841482" lon="-8.4577326"><ele>471.66666666666663</ele><time>2026-03-28T11:38:41.965Z</time></trkpt><trkpt lat="42.3841768" lon="-8.4576509"><ele>469.3333333333333</ele><time>2026-03-28T11:38:42.965Z</time></trkpt><trkpt lat="42.3842135" lon="-8.4575637"><ele>467.0</ele><time>2026-03-28T11:38:43.963Z</time></trkpt><trkpt lat="42.3842576" lon="-8.4574786"><ele>466.99999999999994</ele><time>2026-03-28T11:38:44.967Z</time></trkpt><trkpt lat="42.3843036" lon="-8.4573997"><ele>467.0</ele><time>2026-03-28T11:38:45.956Z</time></trkpt><trkpt lat="42.3843405" lon="-8.4573214"><ele>467.0</ele><time>2026-03-28T11:38:46.962Z</time></trkpt><trkpt lat="42.3843595" lon="-8.4572401"><ele>467.0</ele><time>2026-03-28T11:38:47.96Z</time></trkpt><trkpt lat="42.3843345" lon="-8.4570769"><ele>466.99999999999994</ele><time>2026-03-28T11:38:49.956Z</time></trkpt><trkpt lat="42.3843076" lon="-8.4569949"><ele>467.0</ele><time>2026-03-28T11:38:50.963Z</time></trkpt><trkpt lat="42.3842574" lon="-8.4568595"><ele>466.66666666666663</ele><time>2026-03-28T11:38:52.959Z</time></trkpt><trkpt lat="42.3842462" lon="-8.4567597"><ele>466.3333333333333</ele><time>2026-03-28T11:42:13.969Z</time></trkpt><trkpt lat="42.3842305" lon="-8.4566172"><ele>466.0</ele><time>2026-03-28T11:42:15.959Z</time></trkpt><trkpt lat="42.3842291" lon="-8.4565208"><ele>465.66666666666663</ele><time>2026-03-28T11:42:16.958Z</time></trkpt><trkpt lat="42.3842245" lon="-8.4564081"><ele>465.3333333333333</ele><time>2026-03-28T11:42:17.967Z</time></trkpt><trkpt lat="42.3842094" lon="-8.4562814"><ele>465.0</ele><time>2026-03-28T11:42:18.958Z</time></trkpt><trkpt lat="42.3841838" lon="-8.4561443"><ele>463.1666666666667</ele><time>2026-03-28T11:42:19.957Z</time></trkpt><trkpt lat="42.3841635" lon="-8.456014"><ele>461.33333333333337</ele><time>2026-03-28T11:42:20.968Z</time></trkpt><trkpt lat="42.3841358" lon="-8.4558981"><ele>459.5</ele><time>2026-03-28T11:42:21.963Z</time></trkpt><trkpt lat="42.3841086" lon="-8.4557972"><ele>457.6666666666667</ele><time>2026-03-28T11:42:22.962Z</time></trkpt><trkpt lat="42.3840682" lon="-8.4557134"><ele>455.83333333333337</ele><time>2026-03-28T11:42:23.962Z</time></trkpt><trkpt lat="42.3840149" lon="-8.4556416"><ele>454.0</ele><time>2026-03-28T11:42:24.964Z</time></trkpt><trkpt lat="42.3839608" lon="-8.455592"><ele>454.0</ele><time>2026-03-28T11:42:25.966Z</time></trkpt><trkpt lat="42.3838833" lon="-8.4555601"><ele>454.0</ele><time>2026-03-28T11:42:26.957Z</time></trkpt><trkpt lat="42.3837889" lon="-8.4555405"><ele>454.0</ele><time>2026-03-28T11:42:27.966Z</time></trkpt><trkpt lat="42.3836853" lon="-8.4555216"><ele>454.0</ele><time>2026-03-28T11:42:28.969Z</time></trkpt><trkpt lat="42.3835794" lon="-8.4555087"><ele>454.0</ele><time>2026-03-28T11:42:29.962Z</time></trkpt><trkpt lat="42.383482" lon="-8.4554914"><ele>455.1666666666667</ele><time>2026-03-28T11:42:30.97Z</time></trkpt><trkpt lat="42.3833927" lon="-8.4554756"><ele>456.33333333333337</ele><time>2026-03-28T11:42:31.96Z</time></trkpt><trkpt lat="42.3833143" lon="-8.4554642"><ele>457.5</ele><time>2026-03-28T11:42:32.958Z</time></trkpt><trkpt lat="42.3832482" lon="-8.4554503"><ele>458.66666666666663</ele><time>2026-03-28T11:42:33.967Z</time></trkpt><trkpt lat="42.3831388" lon="-8.4554082"><ele>459.8333333333333</ele><time>2026-03-28T11:42:35.967Z</time></trkpt><trkpt lat="42.3830537" lon="-8.4553634"><ele>461.0</ele><time>2026-03-28T11:42:37.956Z</time></trkpt><trkpt lat="42.3829662" lon="-8.4553505"><ele>460.3333333333333</ele><time>2026-03-28T11:42:39.959Z</time></trkpt><trkpt lat="42.3828782" lon="-8.4553258"><ele>459.66666666666663</ele><time>2026-03-28T11:42:41.96Z</time></trkpt><trkpt lat="42.3827966" lon="-8.4553267"><ele>459.0</ele><time>2026-03-28T11:42:43.962Z</time></trkpt><trkpt lat="42.3827232" lon="-8.4553844"><ele>458.33333333333337</ele><time>2026-03-28T11:42:45.967Z</time></trkpt><trkpt lat="42.3826197" lon="-8.4554359"><ele>457.6666666666667</ele><time>2026-03-28T11:42:47.967Z</time></trkpt><trkpt lat="42.3825564" lon="-8.4554597"><ele>457.0</ele><time>2026-03-28T11:42:48.957Z</time></trkpt><trkpt lat="42.3824883" lon="-8.455482"><ele>457.00000000000006</ele><time>2026-03-28T11:42:49.975Z</time></trkpt><trkpt lat="42.382418" lon="-8.4555056"><ele>457.0</ele><time>2026-03-28T11:42:50.958Z</time></trkpt><trkpt lat="42.3823496" lon="-8.4555355"><ele>457.0</ele><time>2026-03-28T11:42:51.962Z</time></trkpt><trkpt lat="42.3822841" lon="-8.4555624"><ele>457.0</ele><time>2026-03-28T11:42:52.964Z</time></trkpt><trkpt lat="42.382222" lon="-8.4555783"><ele>457.00000000000006</ele><time>2026-03-28T11:42:53.959Z</time></trkpt><trkpt lat="42.3821347" lon="-8.455535"><ele>457.0</ele><time>2026-03-28T11:42:55.959Z</time></trkpt><trkpt lat="42.3820846" lon="-8.4554027"><ele>455.33333333333337</ele><time>2026-03-28T11:42:57.956Z</time></trkpt><trkpt lat="42.3820791" lon="-8.4553077"><ele>453.6666666666667</ele><time>2026-03-28T11:42:58.967Z</time></trkpt><trkpt lat="42.3821149" lon="-8.4551419"><ele>452.0</ele><time>2026-03-28T11:43:00.963Z</time></trkpt><trkpt lat="42.3821367" lon="-8.4550467"><ele>450.33333333333337</ele><time>2026-03-28T11:43:01.973Z</time></trkpt><trkpt lat="42.3821605" lon="-8.4549593"><ele>448.6666666666667</ele><time>2026-03-28T11:43:02.967Z</time></trkpt><trkpt lat="42.3821824" lon="-8.4548743"><ele>447.0</ele><time>2026-03-28T11:43:03.971Z</time></trkpt><trkpt lat="42.3821902" lon="-8.4547345"><ele>447.0</ele><time>2026-03-28T11:43:05.958Z</time></trkpt><trkpt lat="42.3821326" lon="-8.4546164"><ele>447.0</ele><time>2026-03-28T11:43:07.96Z</time></trkpt><trkpt lat="42.3820957" lon="-8.454505"><ele>447.0</ele><time>2026-03-28T11:43:09.96Z</time></trkpt><trkpt lat="42.3820762" lon="-8.4543821"><ele>447.0</ele><time>2026-03-28T11:43:11.957Z</time></trkpt><trkpt lat="42.3820766" lon="-8.454282"><ele>447.0</ele><time>2026-03-28T11:43:13.966Z</time></trkpt><trkpt lat="42.3821026" lon="-8.4542038"><ele>447.0</ele><time>2026-03-28T11:43:15.972Z</time></trkpt><trkpt lat="42.382152" lon="-8.4541062"><ele>447.20000000000005</ele><time>2026-03-28T11:43:17.956Z</time></trkpt><trkpt lat="42.3822009" lon="-8.4540041"><ele>447.40000000000003</ele><time>2026-03-28T11:43:19.964Z</time></trkpt><trkpt lat="42.3822671" lon="-8.4538578"><ele>447.59999999999997</ele><time>2026-03-28T11:43:21.956Z</time></trkpt><trkpt lat="42.3823047" lon="-8.4537874"><ele>447.79999999999995</ele><time>2026-03-28T11:43:22.969Z</time></trkpt><trkpt lat="42.3823776" lon="-8.4536564"><ele>448.0</ele><time>2026-03-28T11:43:24.962Z</time></trkpt><trkpt lat="42.3824367" lon="-8.4535156"><ele>448.4</ele><time>2026-03-28T11:43:26.962Z</time></trkpt><trkpt lat="42.3824514" lon="-8.4533381"><ele>448.79999999999995</ele><time>2026-03-28T11:43:28.97Z</time></trkpt><trkpt lat="42.3824433" lon="-8.453245"><ele>449.2</ele><time>2026-03-28T11:43:29.962Z</time></trkpt><trkpt lat="42.3824233" lon="-8.4530858"><ele>449.6</ele><time>2026-03-28T11:43:31.964Z</time></trkpt><trkpt lat="42.3824526" lon="-8.4529646"><ele>450.0</ele><time>2026-03-28T11:43:33.96Z</time></trkpt><trkpt lat="42.3825295" lon="-8.452885"><ele>450.0</ele><time>2026-03-28T11:43:35.962Z</time></trkpt><trkpt lat="42.3825987" lon="-8.4528053"><ele>450.0</ele><time>2026-03-28T11:43:37.958Z</time></trkpt><trkpt lat="42.3826693" lon="-8.4527607"><ele>450.0</ele><time>2026-03-28T11:43:39.966Z</time></trkpt><trkpt lat="42.3827499" lon="-8.4527291"><ele>450.0</ele><time>2026-03-28T11:43:41.963Z</time></trkpt><trkpt lat="42.3828144" lon="-8.4526731"><ele>450.0</ele><time>2026-03-28T11:43:43.965Z</time></trkpt><trkpt lat="42.3828467" lon="-8.4525929"><ele>450.0</ele><time>2026-03-28T11:43:45.964Z</time></trkpt><trkpt lat="42.3828675" lon="-8.4524973"><ele>450.0</ele><time>2026-03-28T11:43:49.959Z</time></trkpt><trkpt lat="42.3829033" lon="-8.45238"><ele>450.0</ele><time>2026-03-28T11:43:52.96Z</time></trkpt><trkpt lat="42.3829701" lon="-8.4522329"><ele>450.0</ele><time>2026-03-28T11:43:54.961Z</time></trkpt><trkpt lat="42.3830185" lon="-8.4521423"><ele>450.0</ele><time>2026-03-28T11:43:55.961Z</time></trkpt><trkpt lat="42.3830868" lon="-8.4520498"><ele>450.0</ele><time>2026-03-28T11:43:56.968Z</time></trkpt><trkpt lat="42.383177" lon="-8.4519538"><ele>449.4</ele><time>2026-03-28T11:43:57.955Z</time></trkpt><trkpt lat="42.3832704" lon="-8.4518531"><ele>448.8</ele><time>2026-03-28T11:43:58.982Z</time></trkpt><trkpt lat="42.3833485" lon="-8.4517669"><ele>448.20000000000005</ele><time>2026-03-28T11:43:59.965Z</time></trkpt><trkpt lat="42.3834249" lon="-8.4516922"><ele>447.6</ele><time>2026-03-28T11:44:00.963Z</time></trkpt><trkpt lat="42.3835005" lon="-8.4516168"><ele>447.0</ele><time>2026-03-28T11:44:01.97Z</time></trkpt><trkpt lat="42.3835764" lon="-8.4515396"><ele>447.0</ele><time>2026-03-28T11:44:02.958Z</time></trkpt><trkpt lat="42.3836429" lon="-8.451463"><ele>447.0</ele><time>2026-03-28T11:44:03.964Z</time></trkpt><trkpt lat="42.3837033" lon="-8.451386"><ele>447.0</ele><time>2026-03-28T11:44:04.972Z</time></trkpt><trkpt lat="42.3837517" lon="-8.4513067"><ele>447.0</ele><time>2026-03-28T11:44:05.956Z</time></trkpt><trkpt lat="42.3837974" lon="-8.4512262"><ele>447.0</ele><time>2026-03-28T11:44:06.96Z</time></trkpt><trkpt lat="42.3838547" lon="-8.4511524"><ele>447.0</ele><time>2026-03-28T11:44:07.963Z</time></trkpt><trkpt lat="42.3839173" lon="-8.45108"><ele>448.3333333333333</ele><time>2026-03-28T11:44:08.97Z</time></trkpt><trkpt lat="42.3839871" lon="-8.4510112"><ele>449.66666666666663</ele><time>2026-03-28T11:44:09.959Z</time></trkpt><trkpt lat="42.3840576" lon="-8.4509412"><ele>451.0</ele><time>2026-03-28T11:44:10.971Z</time></trkpt><trkpt lat="42.3841313" lon="-8.4508668"><ele>452.3333333333333</ele><time>2026-03-28T11:44:11.959Z</time></trkpt><trkpt lat="42.3842061" lon="-8.4507908"><ele>453.66666666666663</ele><time>2026-03-28T11:44:12.958Z</time></trkpt><trkpt lat="42.3842757" lon="-8.4507194"><ele>455.0</ele><time>2026-03-28T11:44:13.97Z</time></trkpt><trkpt lat="42.3843464" lon="-8.450642"><ele>454.99999999999994</ele><time>2026-03-28T11:44:14.962Z</time></trkpt><trkpt lat="42.3844127" lon="-8.4505684"><ele>455.0</ele><time>2026-03-28T11:44:15.958Z</time></trkpt><trkpt lat="42.3844681" lon="-8.450483"><ele>455.0</ele><time>2026-03-28T11:44:16.96Z</time></trkpt><trkpt lat="42.3845234" lon="-8.4504017"><ele>455.0</ele><time>2026-03-28T11:44:17.959Z</time></trkpt><trkpt lat="42.3845732" lon="-8.450319"><ele>454.99999999999994</ele><time>2026-03-28T11:44:18.964Z</time></trkpt><trkpt lat="42.3846224" lon="-8.4502259"><ele>455.0</ele><time>2026-03-28T11:44:19.968Z</time></trkpt><trkpt lat="42.3846622" lon="-8.4501292"><ele>454.8333333333333</ele><time>2026-03-28T11:44:20.954Z</time></trkpt><trkpt lat="42.3846997" lon="-8.4500273"><ele>454.66666666666663</ele><time>2026-03-28T11:44:21.957Z</time></trkpt><trkpt lat="42.3847407" lon="-8.4499325"><ele>454.5</ele><time>2026-03-28T11:44:22.973Z</time></trkpt><trkpt lat="42.3847932" lon="-8.4498502"><ele>454.33333333333337</ele><time>2026-03-28T11:44:23.959Z</time></trkpt><trkpt lat="42.3848713" lon="-8.4497972"><ele>454.1666666666667</ele><time>2026-03-28T11:44:24.96Z</time></trkpt><trkpt lat="42.3849648" lon="-8.4497891"><ele>454.0</ele><time>2026-03-28T11:44:25.961Z</time></trkpt><trkpt lat="42.3850599" lon="-8.4498028"><ele>454.0</ele><time>2026-03-28T11:44:26.956Z</time></trkpt><trkpt lat="42.3851651" lon="-8.4498121"><ele>454.0</ele><time>2026-03-28T11:44:27.96Z</time></trkpt><trkpt lat="42.385259" lon="-8.4498206"><ele>454.0</ele><time>2026-03-28T11:44:28.96Z</time></trkpt><trkpt lat="42.3853508" lon="-8.449828"><ele>454.0</ele><time>2026-03-28T11:44:29.959Z</time></trkpt><trkpt lat="42.3854426" lon="-8.4498257"><ele>454.0</ele><time>2026-03-28T11:44:30.961Z</time></trkpt><trkpt lat="42.3855335" lon="-8.4498104"><ele>454.6</ele><time>2026-03-28T11:44:31.967Z</time></trkpt><trkpt lat="42.3856226" lon="-8.4497837"><ele>455.2</ele><time>2026-03-28T11:44:32.967Z</time></trkpt><trkpt lat="42.3857165" lon="-8.4497357"><ele>455.80000000000007</ele><time>2026-03-28T11:44:33.958Z</time></trkpt><trkpt lat="42.3858028" lon="-8.4496724"><ele>456.40000000000003</ele><time>2026-03-28T11:44:34.962Z</time></trkpt><trkpt lat="42.385882" lon="-8.4496031"><ele>457.0</ele><time>2026-03-28T11:44:35.957Z</time></trkpt><trkpt lat="42.3859545" lon="-8.4495261"><ele>457.00000000000006</ele><time>2026-03-28T11:44:36.96Z</time></trkpt><trkpt lat="42.3860166" lon="-8.449449"><ele>457.0</ele><time>2026-03-28T11:44:37.958Z</time></trkpt><trkpt lat="42.386074" lon="-8.4493673"><ele>457.0</ele><time>2026-03-28T11:44:38.962Z</time></trkpt><trkpt lat="42.3861291" lon="-8.4492984"><ele>457.0</ele><time>2026-03-28T11:44:39.963Z</time></trkpt><trkpt lat="42.3861887" lon="-8.4492307"><ele>457.00000000000006</ele><time>2026-03-28T11:44:40.962Z</time></trkpt><trkpt lat="42.386256" lon="-8.4491773"><ele>457.0</ele><time>2026-03-28T11:44:41.966Z</time></trkpt><trkpt lat="42.3863199" lon="-8.449129"><ele>456.8</ele><time>2026-03-28T11:44:42.965Z</time></trkpt><trkpt lat="42.3863807" lon="-8.449062"><ele>456.6</ele><time>2026-03-28T11:44:43.967Z</time></trkpt><trkpt lat="42.3864334" lon="-8.4489649"><ele>456.40000000000003</ele><time>2026-03-28T11:44:44.958Z</time></trkpt><trkpt lat="42.3864984" lon="-8.4488462"><ele>456.20000000000005</ele><time>2026-03-28T11:44:45.954Z</time></trkpt><trkpt lat="42.3865591" lon="-8.4487415"><ele>456.0</ele><time>2026-03-28T11:44:46.954Z</time></trkpt><trkpt lat="42.3866252" lon="-8.4486687"><ele>456.0</ele><time>2026-03-28T11:44:47.964Z</time></trkpt><trkpt lat="42.3867041" lon="-8.448633"><ele>456.0</ele><time>2026-03-28T11:44:48.964Z</time></trkpt><trkpt lat="42.3868029" lon="-8.4486096"><ele>456.0</ele><time>2026-03-28T11:44:49.96Z</time></trkpt><trkpt lat="42.3869045" lon="-8.4485955"><ele>456.0</ele><time>2026-03-28T11:44:50.962Z</time></trkpt><trkpt lat="42.3870028" lon="-8.4485755"><ele>456.0</ele><time>2026-03-28T11:44:51.963Z</time></trkpt><trkpt lat="42.3871005" lon="-8.4485553"><ele>454.6666666666667</ele><time>2026-03-28T11:44:52.969Z</time></trkpt><trkpt lat="42.3871864" lon="-8.4485367"><ele>453.33333333333337</ele><time>2026-03-28T11:44:53.965Z</time></trkpt><trkpt lat="42.3872612" lon="-8.4485177"><ele>452.0</ele><time>2026-03-28T11:44:54.957Z</time></trkpt><trkpt lat="42.3873396" lon="-8.4485045"><ele>450.6666666666667</ele><time>2026-03-28T11:44:55.965Z</time></trkpt><trkpt lat="42.3874065" lon="-8.4484873"><ele>449.33333333333337</ele><time>2026-03-28T11:44:56.963Z</time></trkpt><trkpt lat="42.3875118" lon="-8.4484318"><ele>448.0</ele><time>2026-03-28T11:44:58.961Z</time></trkpt><trkpt lat="42.3876061" lon="-8.448348"><ele>448.0</ele><time>2026-03-28T11:45:00.954Z</time></trkpt><trkpt lat="42.3876604" lon="-8.448293"><ele>447.99999999999994</ele><time>2026-03-28T11:45:01.957Z</time></trkpt><trkpt lat="42.3877141" lon="-8.4482345"><ele>447.99999999999994</ele><time>2026-03-28T11:45:02.959Z</time></trkpt><trkpt lat="42.3878069" lon="-8.4481288"><ele>448.0</ele><time>2026-03-28T11:45:04.96Z</time></trkpt><trkpt lat="42.3879126" lon="-8.4480429"><ele>448.0</ele><time>2026-03-28T11:45:06.975Z</time></trkpt><trkpt lat="42.3880169" lon="-8.4479915"><ele>451.79999999999995</ele><time>2026-03-28T11:45:08.952Z</time></trkpt><trkpt lat="42.388115" lon="-8.4479"><ele>455.59999999999997</ele><time>2026-03-28T11:45:10.965Z</time></trkpt><trkpt lat="42.3881926" lon="-8.4477855"><ele>459.40000000000003</ele><time>2026-03-28T11:45:12.958Z</time></trkpt><trkpt lat="42.3882692" lon="-8.4477035"><ele>463.20000000000005</ele><time>2026-03-28T11:45:14.958Z</time></trkpt><trkpt lat="42.388385" lon="-8.44771"><ele>467.0</ele><time>2026-03-28T11:45:16.96Z</time></trkpt><trkpt lat="42.3884493" lon="-8.4477139"><ele>466.99999999999994</ele><time>2026-03-28T11:45:17.966Z</time></trkpt><trkpt lat="42.3885187" lon="-8.4477039"><ele>467.0</ele><time>2026-03-28T11:45:18.962Z</time></trkpt><trkpt lat="42.3885947" lon="-8.4476888"><ele>467.0</ele><time>2026-03-28T11:45:19.964Z</time></trkpt><trkpt lat="42.3886772" lon="-8.4476668"><ele>467.0</ele><time>2026-03-28T11:45:20.969Z</time></trkpt><trkpt lat="42.388761" lon="-8.4476452"><ele>466.99999999999994</ele><time>2026-03-28T11:45:21.959Z</time></trkpt><trkpt lat="42.3888457" lon="-8.4476307"><ele>467.0</ele><time>2026-03-28T11:45:22.958Z</time></trkpt><trkpt lat="42.3889312" lon="-8.4476163"><ele>466.99999999999994</ele><time>2026-03-28T11:45:23.96Z</time></trkpt><trkpt lat="42.3890119" lon="-8.4475967"><ele>467.0</ele><time>2026-03-28T11:45:24.966Z</time></trkpt><trkpt lat="42.3890887" lon="-8.447571"><ele>467.0</ele><time>2026-03-28T11:45:25.96Z</time></trkpt><trkpt lat="42.3891671" lon="-8.4475353"><ele>467.0</ele><time>2026-03-28T11:45:26.963Z</time></trkpt><trkpt lat="42.3892496" lon="-8.447491"><ele>466.99999999999994</ele><time>2026-03-28T11:45:27.963Z</time></trkpt><trkpt lat="42.3893224" lon="-8.4474378"><ele>467.0</ele><time>2026-03-28T11:45:28.963Z</time></trkpt><trkpt lat="42.3893846" lon="-8.447385"><ele>466.99999999999994</ele><time>2026-03-28T11:45:29.962Z</time></trkpt><trkpt lat="42.389438" lon="-8.4473333"><ele>467.0</ele><time>2026-03-28T11:45:30.959Z</time></trkpt><trkpt lat="42.3894917" lon="-8.4472716"><ele>467.0</ele><time>2026-03-28T11:45:31.958Z</time></trkpt><trkpt lat="42.3895433" lon="-8.4471927"><ele>467.0</ele><time>2026-03-28T11:45:32.965Z</time></trkpt><trkpt lat="42.3895919" lon="-8.4471069"><ele>466.99999999999994</ele><time>2026-03-28T11:45:33.964Z</time></trkpt><trkpt lat="42.3896319" lon="-8.4470077"><ele>467.0</ele><time>2026-03-28T11:45:34.96Z</time></trkpt><trkpt lat="42.3896717" lon="-8.4469009"><ele>466.20000000000005</ele><time>2026-03-28T11:45:35.972Z</time></trkpt><trkpt lat="42.3897036" lon="-8.446788"><ele>465.40000000000003</ele><time>2026-03-28T11:45:36.958Z</time></trkpt><trkpt lat="42.3897335" lon="-8.446666"><ele>464.59999999999997</ele><time>2026-03-28T11:45:37.991Z</time></trkpt><trkpt lat="42.3897601" lon="-8.4465523"><ele>463.79999999999995</ele><time>2026-03-28T11:45:38.965Z</time></trkpt><trkpt lat="42.3897879" lon="-8.446435"><ele>463.0</ele><time>2026-03-28T11:45:39.956Z</time></trkpt><trkpt lat="42.3898224" lon="-8.4463183"><ele>463.59999999999997</ele><time>2026-03-28T11:45:40.965Z</time></trkpt><trkpt lat="42.3898662" lon="-8.4462066"><ele>464.19999999999993</ele><time>2026-03-28T11:45:41.962Z</time></trkpt><trkpt lat="42.3899089" lon="-8.4460872"><ele>464.8</ele><time>2026-03-28T11:45:42.959Z</time></trkpt><trkpt lat="42.3899542" lon="-8.4459661"><ele>465.4</ele><time>2026-03-28T11:45:43.959Z</time></trkpt><trkpt lat="42.3899887" lon="-8.445842"><ele>466.0</ele><time>2026-03-28T11:45:44.966Z</time></trkpt><trkpt lat="42.3900064" lon="-8.4457214"><ele>466.0</ele><time>2026-03-28T11:45:45.961Z</time></trkpt><trkpt lat="42.3900182" lon="-8.4456065"><ele>466.0</ele><time>2026-03-28T11:45:46.959Z</time></trkpt><trkpt lat="42.3900292" lon="-8.4455016"><ele>466.0</ele><time>2026-03-28T11:45:47.959Z</time></trkpt><trkpt lat="42.3900363" lon="-8.4454083"><ele>466.0</ele><time>2026-03-28T11:45:48.962Z</time></trkpt><trkpt lat="42.3900416" lon="-8.4453123"><ele>466.0</ele><time>2026-03-28T11:45:49.964Z</time></trkpt><trkpt lat="42.3900501" lon="-8.4452187"><ele>466.0</ele><time>2026-03-28T11:45:50.965Z</time></trkpt><trkpt lat="42.3900519" lon="-8.4451278"><ele>466.0</ele><time>2026-03-28T11:45:51.958Z</time></trkpt><trkpt lat="42.3900476" lon="-8.4450385"><ele>466.8</ele><time>2026-03-28T11:45:52.959Z</time></trkpt><trkpt lat="42.3900168" lon="-8.4448788"><ele>467.6</ele><time>2026-03-28T11:45:54.958Z</time></trkpt><trkpt lat="42.39" lon="-8.4447206"><ele>468.4</ele><time>2026-03-28T11:45:56.958Z</time></trkpt><trkpt lat="42.3900325" lon="-8.4445996"><ele>469.2</ele><time>2026-03-28T11:45:58.958Z</time></trkpt><trkpt lat="42.390097" lon="-8.4445378"><ele>470.0</ele><time>2026-03-28T11:46:00.962Z</time></trkpt><trkpt lat="42.3901793" lon="-8.4444861"><ele>471.16666666666663</ele><time>2026-03-28T11:46:02.958Z</time></trkpt><trkpt lat="42.3902834" lon="-8.4444459"><ele>472.3333333333333</ele><time>2026-03-28T11:46:04.96Z</time></trkpt><trkpt lat="42.3903887" lon="-8.4444451"><ele>473.5</ele><time>2026-03-28T11:46:06.962Z</time></trkpt><trkpt lat="42.3904533" lon="-8.4444653"><ele>474.66666666666663</ele><time>2026-03-28T11:46:07.953Z</time></trkpt><trkpt lat="42.390528" lon="-8.4444919"><ele>475.8333333333333</ele><time>2026-03-28T11:46:08.958Z</time></trkpt><trkpt lat="42.3906035" lon="-8.4445249"><ele>477.0</ele><time>2026-03-28T11:46:09.96Z</time></trkpt><trkpt lat="42.3906737" lon="-8.4445694"><ele>477.0</ele><time>2026-03-28T11:46:10.958Z</time></trkpt><trkpt lat="42.3907485" lon="-8.4446053"><ele>477.0</ele><time>2026-03-28T11:46:11.955Z</time></trkpt><trkpt lat="42.3908225" lon="-8.4446264"><ele>477.0</ele><time>2026-03-28T11:46:12.96Z</time></trkpt><trkpt lat="42.3908933" lon="-8.444609"><ele>477.0</ele><time>2026-03-28T11:46:13.957Z</time></trkpt><trkpt lat="42.3909671" lon="-8.4445778"><ele>477.0</ele><time>2026-03-28T11:46:14.967Z</time></trkpt><trkpt lat="42.3910395" lon="-8.4445349"><ele>477.0</ele><time>2026-03-28T11:46:15.957Z</time></trkpt><trkpt lat="42.3911114" lon="-8.4444558"><ele>477.0</ele><time>2026-03-28T11:46:16.958Z</time></trkpt><trkpt lat="42.3911837" lon="-8.4443594"><ele>477.00000000000006</ele><time>2026-03-28T11:46:17.957Z</time></trkpt><trkpt lat="42.3912598" lon="-8.4442581"><ele>477.00000000000006</ele><time>2026-03-28T11:46:18.953Z</time></trkpt><trkpt lat="42.3913452" lon="-8.4441566"><ele>477.0</ele><time>2026-03-28T11:46:19.962Z</time></trkpt><trkpt lat="42.3914278" lon="-8.4440627"><ele>477.0</ele><time>2026-03-28T11:46:20.959Z</time></trkpt><trkpt lat="42.3915016" lon="-8.4439751"><ele>475.6666666666667</ele><time>2026-03-28T11:46:21.96Z</time></trkpt><trkpt lat="42.391565" lon="-8.4438892"><ele>474.33333333333337</ele><time>2026-03-28T11:46:22.959Z</time></trkpt><trkpt lat="42.3916167" lon="-8.4437987"><ele>473.0</ele><time>2026-03-28T11:46:23.965Z</time></trkpt><trkpt lat="42.391643" lon="-8.4436992"><ele>471.6666666666667</ele><time>2026-03-28T11:46:24.963Z</time></trkpt><trkpt lat="42.3916524" lon="-8.4436042"><ele>470.33333333333337</ele><time>2026-03-28T11:46:25.966Z</time></trkpt><trkpt lat="42.3916397" lon="-8.4434804"><ele>469.0</ele><time>2026-03-28T11:46:27.961Z</time></trkpt><trkpt lat="42.3916129" lon="-8.4433935"><ele>469.00000000000006</ele><time>2026-03-28T11:46:30.964Z</time></trkpt><trkpt lat="42.3916128" lon="-8.4433067"><ele>469.0</ele><time>2026-03-28T11:46:32.956Z</time></trkpt><trkpt lat="42.3916361" lon="-8.4431429"><ele>469.0</ele><time>2026-03-28T11:46:34.969Z</time></trkpt><trkpt lat="42.3916575" lon="-8.4430449"><ele>469.0</ele><time>2026-03-28T11:46:35.966Z</time></trkpt><trkpt lat="42.3916781" lon="-8.4429496"><ele>469.00000000000006</ele><time>2026-03-28T11:46:36.958Z</time></trkpt><trkpt lat="42.3916928" lon="-8.4428584"><ele>469.0</ele><time>2026-03-28T11:46:37.958Z</time></trkpt><trkpt lat="42.391708" lon="-8.4427713"><ele>470.5</ele><time>2026-03-28T11:46:38.969Z</time></trkpt><trkpt lat="42.3917513" lon="-8.4426176"><ele>472.0</ele><time>2026-03-28T11:46:40.958Z</time></trkpt><trkpt lat="42.3917727" lon="-8.4424686"><ele>473.5</ele><time>2026-03-28T11:46:42.971Z</time></trkpt><trkpt lat="42.3917809" lon="-8.4423203"><ele>475.0</ele><time>2026-03-28T11:46:44.963Z</time></trkpt><trkpt lat="42.3917748" lon="-8.4421726"><ele>476.50000000000006</ele><time>2026-03-28T11:46:46.96Z</time></trkpt><trkpt lat="42.3917579" lon="-8.44203"><ele>478.0</ele><time>2026-03-28T11:46:48.957Z</time></trkpt><trkpt lat="42.3917645" lon="-8.4418722"><ele>479.5</ele><time>2026-03-28T11:46:50.963Z</time></trkpt><trkpt lat="42.39177" lon="-8.4417781"><ele>481.0</ele><time>2026-03-28T11:46:51.952Z</time></trkpt><trkpt lat="42.3917733" lon="-8.4416826"><ele>482.50000000000006</ele><time>2026-03-28T11:46:52.957Z</time></trkpt><trkpt lat="42.3917796" lon="-8.441586"><ele>484.0</ele><time>2026-03-28T11:46:53.964Z</time></trkpt><trkpt lat="42.3917891" lon="-8.4414902"><ele>484.00000000000006</ele><time>2026-03-28T11:46:54.959Z</time></trkpt><trkpt lat="42.3918039" lon="-8.4413556"><ele>484.0</ele><time>2026-03-28T11:46:56.955Z</time></trkpt><trkpt lat="42.3918194" lon="-8.4412647"><ele>484.0</ele><time>2026-03-28T11:46:58.96Z</time></trkpt><trkpt lat="42.391847" lon="-8.4411572"><ele>484.0</ele><time>2026-03-28T11:47:00.958Z</time></trkpt><trkpt lat="42.3918807" lon="-8.4410758"><ele>484.00000000000006</ele><time>2026-03-28T11:47:02.952Z</time></trkpt><trkpt lat="42.391965" lon="-8.4410328"><ele>484.0</ele><time>2026-03-28T11:47:05.958Z</time></trkpt><trkpt lat="42.3920664" lon="-8.4410015"><ele>485.0</ele><time>2026-03-28T11:47:07.954Z</time></trkpt><trkpt lat="42.3921629" lon="-8.4409606"><ele>486.0</ele><time>2026-03-28T11:47:09.959Z</time></trkpt><trkpt lat="42.392233" lon="-8.4409387"><ele>487.0</ele><time>2026-03-28T11:47:11.958Z</time></trkpt><trkpt lat="42.3923145" lon="-8.4408967"><ele>488.0</ele><time>2026-03-28T11:47:14.97Z</time></trkpt><trkpt lat="42.3924113" lon="-8.4408399"><ele>489.0</ele><time>2026-03-28T11:47:16.958Z</time></trkpt><trkpt lat="42.3924937" lon="-8.4408058"><ele>489.0</ele><time>2026-03-28T11:47:18.962Z</time></trkpt><trkpt lat="42.3925817" lon="-8.4407734"><ele>489.0</ele><time>2026-03-28T11:47:20.956Z</time></trkpt><trkpt lat="42.3926822" lon="-8.4407319"><ele>489.0</ele><time>2026-03-28T11:47:22.96Z</time></trkpt><trkpt lat="42.3927687" lon="-8.4406867"><ele>489.0</ele><time>2026-03-28T11:47:24.951Z</time></trkpt><trkpt lat="42.3928638" lon="-8.4406328"><ele>489.0</ele><time>2026-03-28T11:47:26.957Z</time></trkpt><trkpt lat="42.3929519" lon="-8.4405402"><ele>490.0</ele><time>2026-03-28T11:47:28.961Z</time></trkpt><trkpt lat="42.3930318" lon="-8.4404263"><ele>491.0</ele><time>2026-03-28T11:47:30.958Z</time></trkpt><trkpt lat="42.3930761" lon="-8.4403626"><ele>492.0</ele><time>2026-03-28T11:47:31.958Z</time></trkpt><trkpt lat="42.3931504" lon="-8.4402635"><ele>493.0</ele><time>2026-03-28T11:47:33.965Z</time></trkpt><trkpt lat="42.3932282" lon="-8.4401666"><ele>494.0</ele><time>2026-03-28T11:47:35.963Z</time></trkpt><trkpt lat="42.3932959" lon="-8.4400672"><ele>494.0</ele><time>2026-03-28T11:47:37.962Z</time></trkpt><trkpt lat="42.3933789" lon="-8.4399835"><ele>494.0</ele><time>2026-03-28T11:47:39.961Z</time></trkpt><trkpt lat="42.3934904" lon="-8.4399374"><ele>494.0</ele><time>2026-03-28T11:47:41.963Z</time></trkpt><trkpt lat="42.3936063" lon="-8.4399112"><ele>494.0</ele><time>2026-03-28T11:47:43.956Z</time></trkpt><trkpt lat="42.3936699" lon="-8.4398953"><ele>494.0</ele><time>2026-03-28T11:47:44.957Z</time></trkpt><trkpt lat="42.3937331" lon="-8.4398816"><ele>492.2</ele><time>2026-03-28T11:47:45.954Z</time></trkpt><trkpt lat="42.393857" lon="-8.4398655"><ele>490.4</ele><time>2026-03-28T11:47:47.958Z</time></trkpt><trkpt lat="42.3939752" lon="-8.4398638"><ele>488.6</ele><time>2026-03-28T11:47:49.957Z</time></trkpt><trkpt lat="42.3940683" lon="-8.4398509"><ele>486.8</ele><time>2026-03-28T11:47:51.963Z</time></trkpt><trkpt lat="42.3941658" lon="-8.4398073"><ele>485.0</ele><time>2026-03-28T11:47:53.956Z</time></trkpt><trkpt lat="42.3942697" lon="-8.439763"><ele>484.99999999999994</ele><time>2026-03-28T11:47:55.956Z</time></trkpt><trkpt lat="42.3943929" lon="-8.4397396"><ele>485.0</ele><time>2026-03-28T11:47:57.963Z</time></trkpt><trkpt lat="42.3944602" lon="-8.439722"><ele>485.0</ele><time>2026-03-28T11:47:58.956Z</time></trkpt><trkpt lat="42.394519" lon="-8.4396842"><ele>485.0</ele><time>2026-03-28T11:47:59.956Z</time></trkpt><trkpt lat="42.3945974" lon="-8.4395914"><ele>484.99999999999994</ele><time>2026-03-28T11:48:01.97Z</time></trkpt><trkpt lat="42.3946516" lon="-8.4395284"><ele>485.0</ele><time>2026-03-28T11:48:03.958Z</time></trkpt><trkpt lat="42.3947152" lon="-8.4394637"><ele>486.0</ele><time>2026-03-28T11:48:05.961Z</time></trkpt><trkpt lat="42.3947673" lon="-8.4394033"><ele>487.0</ele><time>2026-03-28T11:49:38.957Z</time></trkpt><trkpt lat="42.3948418" lon="-8.4393313"><ele>488.0</ele><time>2026-03-28T11:49:41.959Z</time></trkpt><trkpt lat="42.3949164" lon="-8.4392503"><ele>489.0</ele><time>2026-03-28T11:49:43.953Z</time></trkpt><trkpt lat="42.3950177" lon="-8.4391305"><ele>490.0</ele><time>2026-03-28T11:49:45.961Z</time></trkpt><trkpt lat="42.3950888" lon="-8.4390785"><ele>490.0</ele><time>2026-03-28T11:49:46.958Z</time></trkpt><trkpt lat="42.3951415" lon="-8.439016"><ele>490.0</ele><time>2026-03-28T11:49:47.958Z</time></trkpt><trkpt lat="42.3952183" lon="-8.4388991"><ele>490.0</ele><time>2026-03-28T11:49:49.961Z</time></trkpt><trkpt lat="42.3952914" lon="-8.4388009"><ele>490.0</ele><time>2026-03-28T11:49:51.955Z</time></trkpt><trkpt lat="42.3953921" lon="-8.4387058"><ele>490.0</ele><time>2026-03-28T11:49:53.965Z</time></trkpt><trkpt lat="42.3954542" lon="-8.4386719"><ele>490.0</ele><time>2026-03-28T11:49:54.967Z</time></trkpt><trkpt lat="42.3955557" lon="-8.4385823"><ele>490.0</ele><time>2026-03-28T11:49:56.956Z</time></trkpt><trkpt lat="42.3956144" lon="-8.4385422"><ele>490.0</ele><time>2026-03-28T11:49:57.966Z</time></trkpt><trkpt lat="42.395674" lon="-8.4385094"><ele>490.0</ele><time>2026-03-28T11:49:58.951Z</time></trkpt><trkpt lat="42.395775" lon="-8.4384214"><ele>490.0</ele><time>2026-03-28T11:50:00.96Z</time></trkpt><trkpt lat="42.3958698" lon="-8.4383397"><ele>490.0</ele><time>2026-03-28T11:50:02.961Z</time></trkpt><trkpt lat="42.3959748" lon="-8.4382855"><ele>490.0</ele><time>2026-03-28T11:50:04.955Z</time></trkpt><trkpt lat="42.3960788" lon="-8.4382183"><ele>490.0</ele><time>2026-03-28T11:50:06.962Z</time></trkpt><trkpt lat="42.3961822" lon="-8.4381294"><ele>490.0</ele><time>2026-03-28T11:50:08.956Z</time></trkpt><trkpt lat="42.3962857" lon="-8.4380281"><ele>488.2857142857143</ele><time>2026-03-28T11:50:10.959Z</time></trkpt><trkpt lat="42.396341" lon="-8.4379794"><ele>486.57142857142856</ele><time>2026-03-28T11:50:11.955Z</time></trkpt><trkpt lat="42.396391" lon="-8.4379246"><ele>484.8571428571429</ele><time>2026-03-28T11:50:12.959Z</time></trkpt><trkpt lat="42.3964409" lon="-8.437867"><ele>483.14285714285717</ele><time>2026-03-28T11:50:13.964Z</time></trkpt><trkpt lat="42.396493" lon="-8.437807"><ele>481.42857142857144</ele><time>2026-03-28T11:50:14.96Z</time></trkpt><trkpt lat="42.3965521" lon="-8.4377408"><ele>479.7142857142858</ele><time>2026-03-28T11:50:15.955Z</time></trkpt><trkpt lat="42.3966034" lon="-8.4376744"><ele>478.00000000000006</ele><time>2026-03-28T11:50:16.956Z</time></trkpt><trkpt lat="42.3966506" lon="-8.437607"><ele>478.0</ele><time>2026-03-28T11:50:17.96Z</time></trkpt><trkpt lat="42.3966965" lon="-8.4375457"><ele>477.99999999999994</ele><time>2026-03-28T11:50:18.956Z</time></trkpt><trkpt lat="42.3968037" lon="-8.4374934"><ele>477.99999999999994</ele><time>2026-03-28T11:50:20.967Z</time></trkpt><trkpt lat="42.3968988" lon="-8.4374412"><ele>478.0</ele><time>2026-03-28T11:50:22.958Z</time></trkpt><trkpt lat="42.3969793" lon="-8.4373504"><ele>478.0</ele><time>2026-03-28T11:50:24.958Z</time></trkpt><trkpt lat="42.3970441" lon="-8.4372208"><ele>478.00000000000006</ele><time>2026-03-28T11:50:26.958Z</time></trkpt><trkpt lat="42.3970842" lon="-8.4371393"><ele>478.0</ele><time>2026-03-28T11:50:27.956Z</time></trkpt><trkpt lat="42.3971288" lon="-8.4370513"><ele>478.0</ele><time>2026-03-28T11:50:28.962Z</time></trkpt><trkpt lat="42.3971757" lon="-8.4369654"><ele>478.0</ele><time>2026-03-28T11:50:29.96Z</time></trkpt><trkpt lat="42.397229" lon="-8.4368783"><ele>478.00000000000006</ele><time>2026-03-28T11:50:30.964Z</time></trkpt><trkpt lat="42.3972833" lon="-8.436795"><ele>478.0</ele><time>2026-03-28T11:50:31.955Z</time></trkpt><trkpt lat="42.3973416" lon="-8.4367075"><ele>478.00000000000006</ele><time>2026-03-28T11:50:32.961Z</time></trkpt><trkpt lat="42.3973984" lon="-8.4366233"><ele>478.0</ele><time>2026-03-28T11:50:33.968Z</time></trkpt><trkpt lat="42.3974495" lon="-8.4365575"><ele>478.0</ele><time>2026-03-28T11:50:34.965Z</time></trkpt><trkpt lat="42.3975016" lon="-8.4365044"><ele>478.0</ele><time>2026-03-28T11:50:35.954Z</time></trkpt><trkpt lat="42.3975582" lon="-8.4364642"><ele>478.00000000000006</ele><time>2026-03-28T11:50:36.959Z</time></trkpt><trkpt lat="42.3976732" lon="-8.4364109"><ele>478.0</ele><time>2026-03-28T11:50:38.964Z</time></trkpt><trkpt lat="42.3977377" lon="-8.4363829"><ele>478.00000000000006</ele><time>2026-03-28T11:50:39.966Z</time></trkpt><trkpt lat="42.3977968" lon="-8.4363415"><ele>478.0</ele><time>2026-03-28T11:50:40.958Z</time></trkpt><trkpt lat="42.397894" lon="-8.4362452"><ele>478.0</ele><time>2026-03-28T11:50:42.965Z</time></trkpt><trkpt lat="42.3979424" lon="-8.4361805"><ele>478.0</ele><time>2026-03-28T11:50:43.961Z</time></trkpt><trkpt lat="42.3979955" lon="-8.4361156"><ele>478.00000000000006</ele><time>2026-03-28T11:50:44.957Z</time></trkpt><trkpt lat="42.3980591" lon="-8.4360419"><ele>478.0</ele><time>2026-03-28T11:50:45.963Z</time></trkpt><trkpt lat="42.3981108" lon="-8.4359524"><ele>478.1666666666667</ele><time>2026-03-28T11:50:46.966Z</time></trkpt><trkpt lat="42.3981508" lon="-8.435856"><ele>478.33333333333337</ele><time>2026-03-28T11:50:47.961Z</time></trkpt><trkpt lat="42.3981759" lon="-8.4357565"><ele>478.5</ele><time>2026-03-28T11:50:48.959Z</time></trkpt><trkpt lat="42.398187" lon="-8.4356471"><ele>478.66666666666663</ele><time>2026-03-28T11:50:49.954Z</time></trkpt><trkpt lat="42.3981836" lon="-8.4355432"><ele>478.8333333333333</ele><time>2026-03-28T11:50:50.957Z</time></trkpt><trkpt lat="42.3981644" lon="-8.4354511"><ele>479.0</ele><time>2026-03-28T11:50:51.961Z</time></trkpt><trkpt lat="42.398138" lon="-8.435356"><ele>480.66666666666663</ele><time>2026-03-28T11:50:52.965Z</time></trkpt><trkpt lat="42.3981202" lon="-8.4352639"><ele>482.3333333333333</ele><time>2026-03-28T11:50:53.959Z</time></trkpt><trkpt lat="42.3981017" lon="-8.4351619"><ele>484.0</ele><time>2026-03-28T11:50:54.951Z</time></trkpt><trkpt lat="42.398077" lon="-8.4350535"><ele>485.66666666666663</ele><time>2026-03-28T11:50:55.958Z</time></trkpt><trkpt lat="42.39806" lon="-8.4349455"><ele>487.3333333333333</ele><time>2026-03-28T11:50:56.954Z</time></trkpt><trkpt lat="42.3980474" lon="-8.4348327"><ele>489.0</ele><time>2026-03-28T11:50:57.955Z</time></trkpt><trkpt lat="42.3980414" lon="-8.4347187"><ele>491.1666666666667</ele><time>2026-03-28T11:50:58.967Z</time></trkpt><trkpt lat="42.3980466" lon="-8.4346211"><ele>493.33333333333337</ele><time>2026-03-28T11:50:59.96Z</time></trkpt><trkpt lat="42.3980647" lon="-8.4345304"><ele>495.5</ele><time>2026-03-28T11:51:00.96Z</time></trkpt><trkpt lat="42.3980936" lon="-8.4344471"><ele>497.6666666666667</ele><time>2026-03-28T11:51:01.957Z</time></trkpt><trkpt lat="42.3981286" lon="-8.4343747"><ele>499.83333333333337</ele><time>2026-03-28T11:51:02.959Z</time></trkpt><trkpt lat="42.3981952" lon="-8.4342449"><ele>502.0</ele><time>2026-03-28T11:51:04.958Z</time></trkpt><trkpt lat="42.3982469" lon="-8.4341624"><ele>502.0</ele><time>2026-03-28T11:51:06.96Z</time></trkpt><trkpt lat="42.3982809" lon="-8.4340746"><ele>502.00000000000006</ele><time>2026-03-28T11:51:09.955Z</time></trkpt><trkpt lat="42.3983293" lon="-8.4340015"><ele>502.00000000000006</ele><time>2026-03-28T11:51:11.959Z</time></trkpt><trkpt lat="42.3983755" lon="-8.4338769"><ele>502.0</ele><time>2026-03-28T11:51:13.958Z</time></trkpt><trkpt lat="42.3984095" lon="-8.433745"><ele>502.0</ele><time>2026-03-28T11:51:15.954Z</time></trkpt><trkpt lat="42.3984471" lon="-8.4335932"><ele>502.1666666666667</ele><time>2026-03-28T11:51:17.958Z</time></trkpt><trkpt lat="42.3984881" lon="-8.4335231"><ele>502.33333333333337</ele><time>2026-03-28T11:51:18.964Z</time></trkpt><trkpt lat="42.3985426" lon="-8.4334785"><ele>502.5</ele><time>2026-03-28T11:51:19.957Z</time></trkpt><trkpt lat="42.3986288" lon="-8.4334213"><ele>502.66666666666663</ele><time>2026-03-28T11:51:21.958Z</time></trkpt><trkpt lat="42.3987079" lon="-8.4333474"><ele>502.8333333333333</ele><time>2026-03-28T11:51:23.955Z</time></trkpt><trkpt lat="42.3987707" lon="-8.4332765"><ele>503.0</ele><time>2026-03-28T11:51:25.965Z</time></trkpt><trkpt lat="42.3988365" lon="-8.4332114"><ele>503.0</ele><time>2026-03-28T11:51:27.953Z</time></trkpt><trkpt lat="42.3988996" lon="-8.4331162"><ele>502.99999999999994</ele><time>2026-03-28T11:51:29.955Z</time></trkpt><trkpt lat="42.3989425" lon="-8.4329887"><ele>502.99999999999994</ele><time>2026-03-28T11:51:31.96Z</time></trkpt><trkpt lat="42.3989576" lon="-8.4328489"><ele>503.0</ele><time>2026-03-28T11:51:33.964Z</time></trkpt><trkpt lat="42.3989598" lon="-8.4326836"><ele>503.0</ele><time>2026-03-28T11:51:35.957Z</time></trkpt><trkpt lat="42.3989732" lon="-8.4325219"><ele>505.79999999999995</ele><time>2026-03-28T11:51:37.961Z</time></trkpt><trkpt lat="42.3989837" lon="-8.4323587"><ele>508.59999999999997</ele><time>2026-03-28T11:51:39.957Z</time></trkpt><trkpt lat="42.3989971" lon="-8.4322675"><ele>511.40000000000003</ele><time>2026-03-28T11:51:40.967Z</time></trkpt><trkpt lat="42.3989984" lon="-8.4321125"><ele>514.2</ele><time>2026-03-28T11:51:42.959Z</time></trkpt><trkpt lat="42.3990404" lon="-8.4319885"><ele>517.0</ele><time>2026-03-28T11:51:44.958Z</time></trkpt><trkpt lat="42.3991234" lon="-8.4319171"><ele>519.3333333333334</ele><time>2026-03-28T11:51:46.956Z</time></trkpt><trkpt lat="42.3992262" lon="-8.431875"><ele>521.6666666666667</ele><time>2026-03-28T11:51:48.952Z</time></trkpt><trkpt lat="42.3992982" lon="-8.4318656"><ele>524.0</ele><time>2026-03-28T11:51:50.957Z</time></trkpt><trkpt lat="42.3993887" lon="-8.4318889"><ele>526.3333333333334</ele><time>2026-03-28T11:52:02.958Z</time></trkpt><trkpt lat="42.3994669" lon="-8.4318903"><ele>528.6666666666666</ele><time>2026-03-28T11:52:04.956Z</time></trkpt><trkpt lat="42.3995534" lon="-8.4318435"><ele>531.0</ele><time>2026-03-28T11:52:06.966Z</time></trkpt><trkpt lat="42.3996533" lon="-8.431785"><ele>530.8</ele><time>2026-03-28T11:52:08.954Z</time></trkpt><trkpt lat="42.3997781" lon="-8.4317562"><ele>530.6</ele><time>2026-03-28T11:52:10.956Z</time></trkpt><trkpt lat="42.3998434" lon="-8.4317444"><ele>530.4</ele><time>2026-03-28T11:52:11.956Z</time></trkpt><trkpt lat="42.3999434" lon="-8.4317165"><ele>530.2</ele><time>2026-03-28T11:52:13.954Z</time></trkpt><trkpt lat="42.4000109" lon="-8.431664"><ele>530.0</ele><time>2026-03-28T11:52:15.955Z</time></trkpt><trkpt lat="42.4000684" lon="-8.4315841"><ele>530.0</ele><time>2026-03-28T11:52:17.96Z</time></trkpt><trkpt lat="42.4001387" lon="-8.4314916"><ele>530.0</ele><time>2026-03-28T11:52:19.962Z</time></trkpt><trkpt lat="42.4002053" lon="-8.4313582"><ele>530.0</ele><time>2026-03-28T11:52:21.968Z</time></trkpt><trkpt lat="42.4002555" lon="-8.4312306"><ele>530.0</ele><time>2026-03-28T11:52:23.959Z</time></trkpt><trkpt lat="42.4002941" lon="-8.4311278"><ele>530.0</ele><time>2026-03-28T11:52:25.959Z</time></trkpt><trkpt lat="42.4003432" lon="-8.4310432"><ele>531.1666666666666</ele><time>2026-03-28T11:52:27.965Z</time></trkpt><trkpt lat="42.4003793" lon="-8.4309647"><ele>532.3333333333333</ele><time>2026-03-28T11:52:29.955Z</time></trkpt><trkpt lat="42.4004279" lon="-8.4308722"><ele>533.5</ele><time>2026-03-28T11:52:31.956Z</time></trkpt><trkpt lat="42.4004774" lon="-8.4307989"><ele>534.6666666666666</ele><time>2026-03-28T11:52:33.957Z</time></trkpt><trkpt lat="42.4005511" lon="-8.430734"><ele>535.8333333333334</ele><time>2026-03-28T11:52:35.956Z</time></trkpt><trkpt lat="42.4006547" lon="-8.4306653"><ele>537.0</ele><time>2026-03-28T11:52:37.957Z</time></trkpt><trkpt lat="42.4007095" lon="-8.430618"><ele>537.0</ele><time>2026-03-28T11:52:38.956Z</time></trkpt><trkpt lat="42.400761" lon="-8.4305661"><ele>537.0</ele><time>2026-03-28T11:52:39.959Z</time></trkpt><trkpt lat="42.400853" lon="-8.4304906"><ele>537.0</ele><time>2026-03-28T11:52:41.956Z</time></trkpt><trkpt lat="42.4009131" lon="-8.4304174"><ele>537.0</ele><time>2026-03-28T11:52:43.953Z</time></trkpt><trkpt lat="42.4010065" lon="-8.4303711"><ele>537.0</ele><time>2026-03-28T11:52:46.956Z</time></trkpt><trkpt lat="42.4010891" lon="-8.4302984"><ele>538.2</ele><time>2026-03-28T11:52:48.961Z</time></trkpt><trkpt lat="42.401143" lon="-8.4302308"><ele>539.4000000000001</ele><time>2026-03-28T11:52:50.961Z</time></trkpt><trkpt lat="42.4012157" lon="-8.4301688"><ele>540.5999999999999</ele><time>2026-03-28T11:52:52.956Z</time></trkpt><trkpt lat="42.4013091" lon="-8.4300913"><ele>541.8</ele><time>2026-03-28T11:52:54.956Z</time></trkpt><trkpt lat="42.401409" lon="-8.4300103"><ele>543.0</ele><time>2026-03-28T11:52:56.957Z</time></trkpt><trkpt lat="42.4014947" lon="-8.4299287"><ele>543.0</ele><time>2026-03-28T11:52:58.96Z</time></trkpt><trkpt lat="42.4015814" lon="-8.4298486"><ele>543.0</ele><time>2026-03-28T11:53:00.955Z</time></trkpt><trkpt lat="42.4016634" lon="-8.4297765"><ele>543.0</ele><time>2026-03-28T11:53:02.953Z</time></trkpt><trkpt lat="42.4023802" lon="-8.4291689"><ele>564.0</ele><time>2026-03-28T12:01:04.956Z</time></trkpt><trkpt lat="42.4037877" lon="-8.4270868"><ele>546.0</ele><time>2026-03-28T12:01:34.955Z</time></trkpt><trkpt lat="42.4041996" lon="-8.424402"><ele>539.0</ele><time>2026-03-28T12:16:06.946Z</time></trkpt><trkpt lat="42.4039989" lon="-8.4225982"><ele>544.0</ele><time>2026-03-28T12:17:31.951Z</time></trkpt><trkpt lat="42.4042285" lon="-8.4216941"><ele>550.0</ele><time>2026-03-28T12:18:16.95Z</time></trkpt><trkpt lat="42.4043896" lon="-8.4198819"><ele>544.0</ele><time>2026-03-28T12:22:00.956Z</time></trkpt><trkpt lat="42.4047318" lon="-8.4195682"><ele>538.0</ele><time>2026-03-28T12:28:51.937Z</time></trkpt><trkpt lat="42.4047188" lon="-8.4196607"><ele>538.0</ele><time>2026-03-28T12:28:57.942Z</time></trkpt><trkpt lat="42.4047332" lon="-8.4195755"><ele>538.0</ele><time>2026-03-28T12:29:52.944Z</time></trkpt><trkpt lat="42.4046677" lon="-8.4195552"><ele>538.0</ele><time>2026-03-28T12:30:03.944Z</time></trkpt><trkpt lat="42.404674" lon="-8.4196405"><ele>538.0</ele><time>2026-03-28T12:31:42.943Z</time></trkpt><trkpt lat="42.4046108" lon="-8.4195962"><ele>538.0</ele><time>2026-03-28T12:32:02.944Z</time></trkpt><trkpt lat="42.4046648" lon="-8.4195456"><ele>538.0</ele><time>2026-03-28T12:32:18.948Z</time></trkpt><trkpt lat="42.4047189" lon="-8.4194966"><ele>538.0</ele><time>2026-03-28T12:32:25.94Z</time></trkpt><trkpt lat="42.4046822" lon="-8.4195687"><ele>538.0</ele><time>2026-03-28T12:32:37.941Z</time></trkpt><trkpt lat="42.4047476" lon="-8.4195596"><ele>538.0</ele><time>2026-03-28T12:32:44.94Z</time></trkpt><trkpt lat="42.4046709" lon="-8.4196109"><ele>538.0</ele><time>2026-03-28T12:32:58.944Z</time></trkpt><trkpt lat="42.4046079" lon="-8.4196549"><ele>538.0</ele><time>2026-03-28T12:33:00.931Z</time></trkpt><trkpt lat="42.4045552" lon="-8.4197283"><ele>538.0</ele><time>2026-03-28T12:33:02.939Z</time></trkpt><trkpt lat="42.4045239" lon="-8.4198104"><ele>538.0</ele><time>2026-03-28T12:33:04.938Z</time></trkpt><trkpt lat="42.4044733" lon="-8.4198698"><ele>538.0</ele><time>2026-03-28T12:33:21.945Z</time></trkpt><trkpt lat="42.404503" lon="-8.4197885"><ele>539.7142857142858</ele><time>2026-03-28T12:33:49.934Z</time></trkpt><trkpt lat="42.4045487" lon="-8.4196886"><ele>541.4285714285714</ele><time>2026-03-28T12:33:52.935Z</time></trkpt><trkpt lat="42.4045597" lon="-8.4197828"><ele>543.1428571428571</ele><time>2026-03-28T12:34:05.936Z</time></trkpt><trkpt lat="42.4045596" lon="-8.4198793"><ele>544.8571428571429</ele><time>2026-03-28T12:34:09.934Z</time></trkpt><trkpt lat="42.4045076" lon="-8.4199527"><ele>546.5714285714286</ele><time>2026-03-28T12:34:12.935Z</time></trkpt><trkpt lat="42.4045221" lon="-8.4200405"><ele>548.2857142857143</ele><time>2026-03-28T12:34:45.932Z</time></trkpt><trkpt lat="42.4044833" lon="-8.4201121"><ele>550.0</ele><time>2026-03-28T12:34:50.935Z</time></trkpt><trkpt lat="42.4045197" lon="-8.4201939"><ele>550.0</ele><time>2026-03-28T12:34:54.936Z</time></trkpt><trkpt lat="42.4045027" lon="-8.4202932"><ele>550.0</ele><time>2026-03-28T12:34:57.947Z</time></trkpt><trkpt lat="42.4044769" lon="-8.4202074"><ele>550.0</ele><time>2026-03-28T12:35:01.936Z</time></trkpt><trkpt lat="42.4044628" lon="-8.4201216"><ele>550.0</ele><time>2026-03-28T12:35:06.938Z</time></trkpt><trkpt lat="42.4044814" lon="-8.4200156"><ele>550.0</ele><time>2026-03-28T12:35:09.936Z</time></trkpt><trkpt lat="42.4044582" lon="-8.4199229"><ele>550.0</ele><time>2026-03-28T12:35:16.938Z</time></trkpt><trkpt lat="42.4044745" lon="-8.4198349"><ele>550.0</ele><time>2026-03-28T12:35:21.93Z</time></trkpt><trkpt lat="42.4045334" lon="-8.4197371"><ele>550.0</ele><time>2026-03-28T12:35:24.935Z</time></trkpt><trkpt lat="42.4045805" lon="-8.4196762"><ele>550.0</ele><time>2026-03-28T12:35:32.936Z</time></trkpt><trkpt lat="42.404568" lon="-8.4197688"><ele>550.0</ele><time>2026-03-28T12:35:51.941Z</time></trkpt><trkpt lat="42.4045411" lon="-8.4198643"><ele>550.0</ele><time>2026-03-28T12:35:53.937Z</time></trkpt><trkpt lat="42.4045173" lon="-8.4199673"><ele>550.0</ele><time>2026-03-28T12:35:55.937Z</time></trkpt><trkpt lat="42.4045236" lon="-8.4200721"><ele>550.0</ele><time>2026-03-28T12:35:59.941Z</time></trkpt><trkpt lat="42.4045279" lon="-8.4201904"><ele>550.0</ele><time>2026-03-28T12:36:02.94Z</time></trkpt><trkpt lat="42.404498" lon="-8.4202894"><ele>550.0</ele><time>2026-03-28T12:36:04.929Z</time></trkpt><trkpt lat="42.4045161" lon="-8.4201872"><ele>550.0</ele><time>2026-03-28T12:36:13.936Z</time></trkpt><trkpt lat="42.4045086" lon="-8.4201007"><ele>550.0</ele><time>2026-03-28T12:36:16.938Z</time></trkpt><trkpt lat="42.4044688" lon="-8.4200206"><ele>550.0</ele><time>2026-03-28T12:36:33.931Z</time></trkpt><trkpt lat="42.4044532" lon="-8.419915"><ele>550.0</ele><time>2026-03-28T12:36:41.938Z</time></trkpt><trkpt lat="42.4044787" lon="-8.4198252"><ele>550.0</ele><time>2026-03-28T12:36:45.938Z</time></trkpt><trkpt lat="42.4045485" lon="-8.4197282"><ele>550.7142857142858</ele><time>2026-03-28T12:36:48.931Z</time></trkpt><trkpt lat="42.4045716" lon="-8.4196347"><ele>551.4285714285714</ele><time>2026-03-28T12:36:51.944Z</time></trkpt><trkpt lat="42.4045461" lon="-8.4195534"><ele>552.1428571428571</ele><time>2026-03-28T12:37:05.938Z</time></trkpt><trkpt lat="42.404616" lon="-8.4195692"><ele>552.8571428571429</ele><time>2026-03-28T12:37:29.939Z</time></trkpt><trkpt lat="42.4046855" lon="-8.4195254"><ele>553.5714285714286</ele><time>2026-03-28T12:37:40.93Z</time></trkpt><trkpt lat="42.4047563" lon="-8.4195211"><ele>554.2857142857143</ele><time>2026-03-28T12:37:42.943Z</time></trkpt><trkpt lat="42.4048258" lon="-8.4195272"><ele>555.0</ele><time>2026-03-28T12:37:44.936Z</time></trkpt><trkpt lat="42.4048905" lon="-8.4194957"><ele>552.1666666666666</ele><time>2026-03-28T12:37:46.937Z</time></trkpt><trkpt lat="42.4049675" lon="-8.4194371"><ele>549.3333333333334</ele><time>2026-03-28T12:37:48.931Z</time></trkpt><trkpt lat="42.4050446" lon="-8.4193555"><ele>546.5</ele><time>2026-03-28T12:37:50.936Z</time></trkpt><trkpt lat="42.4051174" lon="-8.4192976"><ele>543.6666666666667</ele><time>2026-03-28T12:37:53.931Z</time></trkpt><trkpt lat="42.4051862" lon="-8.4192541"><ele>540.8333333333334</ele><time>2026-03-28T12:37:56.935Z</time></trkpt><trkpt lat="42.4052496" lon="-8.4192156"><ele>538.0</ele><time>2026-03-28T12:37:59.934Z</time></trkpt><trkpt lat="42.4053104" lon="-8.4191825"><ele>538.0</ele><time>2026-03-28T12:38:02.94Z</time></trkpt><trkpt lat="42.4053675" lon="-8.4191364"><ele>538.0</ele><time>2026-03-28T12:38:04.937Z</time></trkpt><trkpt lat="42.4054147" lon="-8.4190533"><ele>538.0</ele><time>2026-03-28T12:38:06.942Z</time></trkpt><trkpt lat="42.4054523" lon="-8.418963"><ele>538.0</ele><time>2026-03-28T12:38:10.93Z</time></trkpt><trkpt lat="42.405476" lon="-8.4188796"><ele>538.0</ele><time>2026-03-28T12:38:12.933Z</time></trkpt><trkpt lat="42.40547" lon="-8.4187911"><ele>538.0</ele><time>2026-03-28T12:38:28.938Z</time></trkpt><trkpt lat="42.4055179" lon="-8.4187195"><ele>538.0</ele><time>2026-03-28T12:38:31.939Z</time></trkpt><trkpt lat="42.4055806" lon="-8.4186837"><ele>537.3333333333334</ele><time>2026-03-28T12:38:34.936Z</time></trkpt><trkpt lat="42.4056525" lon="-8.4186436"><ele>536.6666666666667</ele><time>2026-03-28T12:38:36.936Z</time></trkpt><trkpt lat="42.4057328" lon="-8.4185948"><ele>536.0</ele><time>2026-03-28T12:38:38.936Z</time></trkpt><trkpt lat="42.4058098" lon="-8.4186043"><ele>535.3333333333334</ele><time>2026-03-28T12:38:40.936Z</time></trkpt><trkpt lat="42.4058818" lon="-8.4186423"><ele>534.6666666666666</ele><time>2026-03-28T12:38:42.937Z</time></trkpt><trkpt lat="42.4059587" lon="-8.4186798"><ele>534.0</ele><time>2026-03-28T12:38:44.94Z</time></trkpt><trkpt lat="42.4060447" lon="-8.4186892"><ele>534.0</ele><time>2026-03-28T12:38:46.938Z</time></trkpt><trkpt lat="42.4061366" lon="-8.41871"><ele>534.0</ele><time>2026-03-28T12:38:48.936Z</time></trkpt><trkpt lat="42.4061924" lon="-8.4187541"><ele>534.0</ele><time>2026-03-28T12:38:50.931Z</time></trkpt><trkpt lat="42.4062604" lon="-8.4187336"><ele>534.0</ele><time>2026-03-28T12:38:54.936Z</time></trkpt><trkpt lat="42.4062899" lon="-8.4186024"><ele>534.0</ele><time>2026-03-28T12:38:56.934Z</time></trkpt><trkpt lat="42.4063179" lon="-8.4185133"><ele>534.0</ele><time>2026-03-28T12:38:58.934Z</time></trkpt><trkpt lat="42.4063708" lon="-8.4184307"><ele>532.8571428571429</ele><time>2026-03-28T12:39:01.933Z</time></trkpt><trkpt lat="42.4064362" lon="-8.4183984"><ele>531.7142857142858</ele><time>2026-03-28T12:39:03.927Z</time></trkpt><trkpt lat="42.4065189" lon="-8.4184211"><ele>530.5714285714286</ele><time>2026-03-28T12:39:06.939Z</time></trkpt><trkpt lat="42.4065741" lon="-8.4184628"><ele>529.4285714285714</ele><time>2026-03-28T12:39:08.943Z</time></trkpt><trkpt lat="42.4066282" lon="-8.4185273"><ele>528.2857142857142</ele><time>2026-03-28T12:39:10.936Z</time></trkpt><trkpt lat="42.406687" lon="-8.418563"><ele>527.1428571428571</ele><time>2026-03-28T12:39:12.936Z</time></trkpt><trkpt lat="42.4067568" lon="-8.4185887"><ele>526.0</ele><time>2026-03-28T12:39:14.932Z</time></trkpt><trkpt lat="42.4068105" lon="-8.418643"><ele>526.0</ele><time>2026-03-28T12:39:16.939Z</time></trkpt><trkpt lat="42.4068653" lon="-8.418692"><ele>526.0</ele><time>2026-03-28T12:39:18.933Z</time></trkpt><trkpt lat="42.4069184" lon="-8.4187497"><ele>526.0</ele><time>2026-03-28T12:39:24.942Z</time></trkpt><trkpt lat="42.4069282" lon="-8.4188538"><ele>526.0</ele><time>2026-03-28T12:39:27.944Z</time></trkpt><trkpt lat="42.4069197" lon="-8.4189418"><ele>526.0</ele><time>2026-03-28T12:39:32.935Z</time></trkpt><trkpt lat="42.4068711" lon="-8.4190031"><ele>526.0</ele><time>2026-03-28T12:39:34.941Z</time></trkpt><trkpt lat="42.4068039" lon="-8.4190344"><ele>526.0</ele><time>2026-03-28T12:39:40.934Z</time></trkpt><trkpt lat="42.4067643" lon="-8.4191296"><ele>524.2857142857142</ele><time>2026-03-28T12:39:45.939Z</time></trkpt><trkpt lat="42.4067292" lon="-8.4192044"><ele>522.5714285714286</ele><time>2026-03-28T12:39:50.93Z</time></trkpt><trkpt lat="42.4066748" lon="-8.4192507"><ele>520.8571428571429</ele><time>2026-03-28T12:40:20.932Z</time></trkpt><trkpt lat="42.4066697" lon="-8.4193737"><ele>519.1428571428571</ele><time>2026-03-28T12:40:24.933Z</time></trkpt><trkpt lat="42.406683" lon="-8.419485"><ele>517.4285714285714</ele><time>2026-03-28T12:40:33.935Z</time></trkpt><trkpt lat="42.4066952" lon="-8.4195873"><ele>515.7142857142857</ele><time>2026-03-28T12:40:42.938Z</time></trkpt><trkpt lat="42.4066338" lon="-8.4196194"><ele>514.0</ele><time>2026-03-28T12:40:51.933Z</time></trkpt><trkpt lat="42.406615" lon="-8.4197186"><ele>514.1428571428571</ele><time>2026-03-28T12:42:08.93Z</time></trkpt><trkpt lat="42.406608" lon="-8.4198203"><ele>514.2857142857143</ele><time>2026-03-28T12:42:15.934Z</time></trkpt><trkpt lat="42.4065855" lon="-8.4199168"><ele>514.4285714285714</ele><time>2026-03-28T12:42:17.932Z</time></trkpt><trkpt lat="42.4065449" lon="-8.4199944"><ele>514.5714285714286</ele><time>2026-03-28T12:44:12.925Z</time></trkpt><trkpt lat="42.4064838" lon="-8.4199607"><ele>514.7142857142857</ele><time>2026-03-28T12:44:17.93Z</time></trkpt><trkpt lat="42.406432" lon="-8.4200192"><ele>514.8571428571429</ele><time>2026-03-28T12:44:30.943Z</time></trkpt><trkpt lat="42.4063839" lon="-8.4200744"><ele>515.0</ele><time>2026-03-28T12:44:38.937Z</time></trkpt><trkpt lat="42.4063173" lon="-8.4200267"><ele>515.0</ele><time>2026-03-28T12:44:45.927Z</time></trkpt><trkpt lat="42.4062657" lon="-8.4200902"><ele>515.0</ele><time>2026-03-28T12:44:51.934Z</time></trkpt><trkpt lat="42.4062419" lon="-8.4201795"><ele>515.0</ele><time>2026-03-28T12:45:00.929Z</time></trkpt><trkpt lat="42.4061818" lon="-8.420135"><ele>515.0</ele><time>2026-03-28T12:45:05.936Z</time></trkpt><trkpt lat="42.4061228" lon="-8.4201678"><ele>515.0</ele><time>2026-03-28T12:45:13.929Z</time></trkpt><trkpt lat="42.4061826" lon="-8.4202098"><ele>515.0</ele><time>2026-03-28T12:46:15.938Z</time></trkpt><trkpt lat="42.4061478" lon="-8.4202849"><ele>515.0</ele><time>2026-03-28T12:46:24.926Z</time></trkpt><trkpt lat="42.4061939" lon="-8.420223"><ele>515.0</ele><time>2026-03-28T12:46:32.937Z</time></trkpt><trkpt lat="42.4061286" lon="-8.4202721"><ele>515.0</ele><time>2026-03-28T12:46:55.932Z</time></trkpt><trkpt lat="42.4061818" lon="-8.4203513"><ele>515.0</ele><time>2026-03-28T12:47:00.936Z</time></trkpt><trkpt lat="42.406259" lon="-8.4203228"><ele>515.0</ele><time>2026-03-28T12:47:09.927Z</time></trkpt><trkpt lat="42.4061951" lon="-8.4203541"><ele>515.0</ele><time>2026-03-28T12:47:19.925Z</time></trkpt><trkpt lat="42.4062219" lon="-8.420442"><ele>515.0</ele><time>2026-03-28T12:47:30.928Z</time></trkpt><trkpt lat="42.4061539" lon="-8.4204296"><ele>515.0</ele><time>2026-03-28T12:47:55.932Z</time></trkpt><trkpt lat="42.4062194" lon="-8.4204276"><ele>514.8333333333333</ele><time>2026-03-28T12:48:50.936Z</time></trkpt><trkpt lat="42.4062066" lon="-8.4205181"><ele>514.6666666666666</ele><time>2026-03-28T12:48:54.928Z</time></trkpt><trkpt lat="42.4061774" lon="-8.4206142"><ele>514.5</ele><time>2026-03-28T12:48:57.927Z</time></trkpt><trkpt lat="42.4061656" lon="-8.4206992"><ele>514.3333333333334</ele><time>2026-03-28T12:49:00.927Z</time></trkpt><trkpt lat="42.4060947" lon="-8.4207128"><ele>514.1666666666667</ele><time>2026-03-28T12:50:41.932Z</time></trkpt><trkpt lat="42.4060607" lon="-8.4208192"><ele>514.0</ele><time>2026-03-28T12:50:51.926Z</time></trkpt><trkpt lat="42.406047" lon="-8.4209338"><ele>514.0</ele><time>2026-03-28T12:50:54.929Z</time></trkpt><trkpt lat="42.4060502" lon="-8.421041"><ele>514.0</ele><time>2026-03-28T12:51:00.936Z</time></trkpt><trkpt lat="42.4060519" lon="-8.4211436"><ele>514.0</ele><time>2026-03-28T12:51:10.928Z</time></trkpt><trkpt lat="42.4060339" lon="-8.4212269"><ele>514.0</ele><time>2026-03-28T12:51:16.933Z</time></trkpt><trkpt lat="42.4060824" lon="-8.4212829"><ele>514.0</ele><time>2026-03-28T12:51:24.926Z</time></trkpt><trkpt lat="42.4060948" lon="-8.4213817"><ele>514.0</ele><time>2026-03-28T12:51:27.929Z</time></trkpt><trkpt lat="42.4060646" lon="-8.4214654"><ele>514.0</ele><time>2026-03-28T12:51:32.93Z</time></trkpt><trkpt lat="42.4059929" lon="-8.4214733"><ele>512.7142857142857</ele><time>2026-03-28T12:51:36.931Z</time></trkpt><trkpt lat="42.4059062" lon="-8.4215221"><ele>511.42857142857144</ele><time>2026-03-28T12:51:41.929Z</time></trkpt><trkpt lat="42.4058365" lon="-8.42158"><ele>510.1428571428571</ele><time>2026-03-28T12:51:44.927Z</time></trkpt><trkpt lat="42.4057744" lon="-8.4216107"><ele>508.85714285714283</ele><time>2026-03-28T12:51:47.926Z</time></trkpt><trkpt lat="42.4057119" lon="-8.4216443"><ele>507.57142857142856</ele><time>2026-03-28T12:51:50.932Z</time></trkpt><trkpt lat="42.4056505" lon="-8.4216658"><ele>506.2857142857143</ele><time>2026-03-28T12:51:54.93Z</time></trkpt><trkpt lat="42.4055845" lon="-8.4216535"><ele>505.0</ele><time>2026-03-28T12:52:24.939Z</time></trkpt><trkpt lat="42.4056547" lon="-8.4216657"><ele>505.0</ele><time>2026-03-28T12:52:56.934Z</time></trkpt><trkpt lat="42.4056235" lon="-8.4217428"><ele>504.99999999999994</ele><time>2026-03-28T12:53:00.928Z</time></trkpt><trkpt lat="42.4055822" lon="-8.4218144"><ele>505.0</ele><time>2026-03-28T12:53:09.932Z</time></trkpt><trkpt lat="42.4056426" lon="-8.4218576"><ele>505.0</ele><time>2026-03-28T12:53:19.926Z</time></trkpt><trkpt lat="42.4057062" lon="-8.4218735"><ele>504.99999999999994</ele><time>2026-03-28T12:53:23.925Z</time></trkpt><trkpt lat="42.4056644" lon="-8.4219512"><ele>505.0</ele><time>2026-03-28T12:53:26.929Z</time></trkpt><trkpt lat="42.4057303" lon="-8.4219297"><ele>505.0</ele><time>2026-03-28T12:53:53.922Z</time></trkpt><trkpt lat="42.4056892" lon="-8.4219969"><ele>505.0</ele><time>2026-03-28T12:54:01.926Z</time></trkpt><trkpt lat="42.4056851" lon="-8.4220873"><ele>504.99999999999994</ele><time>2026-03-28T12:54:07.93Z</time></trkpt><trkpt lat="42.4057646" lon="-8.4221169"><ele>505.0</ele><time>2026-03-28T12:54:40.94Z</time></trkpt><trkpt lat="42.405803" lon="-8.4222108"><ele>505.0</ele><time>2026-03-28T12:54:59.932Z</time></trkpt><trkpt lat="42.4058456" lon="-8.4222739"><ele>504.99999999999994</ele><time>2026-03-28T12:55:01.928Z</time></trkpt><trkpt lat="42.4058931" lon="-8.4221843"><ele>505.0</ele><time>2026-03-28T12:55:12.931Z</time></trkpt><trkpt lat="42.4058211" lon="-8.4222059"><ele>505.0</ele><time>2026-03-28T12:55:18.931Z</time></trkpt><trkpt lat="42.4057748" lon="-8.4223039"><ele>504.85714285714283</ele><time>2026-03-28T12:55:31.936Z</time></trkpt><trkpt lat="42.4057094" lon="-8.4222949"><ele>504.71428571428567</ele><time>2026-03-28T12:55:34.939Z</time></trkpt><trkpt lat="42.4056617" lon="-8.4223777"><ele>504.57142857142856</ele><time>2026-03-28T12:56:25.927Z</time></trkpt><trkpt lat="42.4056873" lon="-8.4224574"><ele>504.42857142857144</ele><time>2026-03-28T12:56:29.928Z</time></trkpt><trkpt lat="42.4056239" lon="-8.4224824"><ele>504.2857142857143</ele><time>2026-03-28T12:56:36.926Z</time></trkpt><trkpt lat="42.4055426" lon="-8.422522"><ele>504.1428571428571</ele><time>2026-03-28T12:56:58.932Z</time></trkpt><trkpt lat="42.4054813" lon="-8.4225518"><ele>504.0</ele><time>2026-03-28T12:57:07.923Z</time></trkpt><trkpt lat="42.4054915" lon="-8.422452"><ele>504.0</ele><time>2026-03-28T12:57:55.928Z</time></trkpt><trkpt lat="42.4054528" lon="-8.4225511"><ele>504.0</ele><time>2026-03-28T12:58:05.934Z</time></trkpt><trkpt lat="42.4055307" lon="-8.4225809"><ele>504.0</ele><time>2026-03-28T12:58:14.939Z</time></trkpt><trkpt lat="42.4055945" lon="-8.4226156"><ele>504.0</ele><time>2026-03-28T12:58:30.93Z</time></trkpt><trkpt lat="42.4056107" lon="-8.4227141"><ele>504.0</ele><time>2026-03-28T12:58:32.926Z</time></trkpt><trkpt lat="42.4056586" lon="-8.4227708"><ele>504.0</ele><time>2026-03-28T12:58:35.928Z</time></trkpt><trkpt lat="42.4056783" lon="-8.4228617"><ele>504.0</ele><time>2026-03-28T12:58:39.922Z</time></trkpt><trkpt lat="42.405746" lon="-8.4228689"><ele>504.0</ele><time>2026-03-28T12:58:43.93Z</time></trkpt><trkpt lat="42.4058081" lon="-8.4229135"><ele>504.0</ele><time>2026-03-28T12:58:52.925Z</time></trkpt><trkpt lat="42.4058339" lon="-8.422993"><ele>504.0</ele><time>2026-03-28T12:58:58.922Z</time></trkpt><trkpt lat="42.4058757" lon="-8.4230609"><ele>504.0</ele><time>2026-03-28T12:59:06.927Z</time></trkpt><trkpt lat="42.4058307" lon="-8.4231771"><ele>504.0</ele><time>2026-03-28T12:59:22.933Z</time></trkpt><trkpt lat="42.4057648" lon="-8.423181"><ele>504.0</ele><time>2026-03-28T12:59:32.913Z</time></trkpt><trkpt lat="42.405708" lon="-8.4232362"><ele>504.0</ele><time>2026-03-28T12:59:39.922Z</time></trkpt><trkpt lat="42.4056595" lon="-8.4232918"><ele>504.42857142857144</ele><time>2026-03-28T12:59:58.93Z</time></trkpt><trkpt lat="42.4056845" lon="-8.4233956"><ele>504.8571428571429</ele><time>2026-03-28T13:00:27.919Z</time></trkpt><trkpt lat="42.4056626" lon="-8.4235036"><ele>505.2857142857143</ele><time>2026-03-28T13:00:35.929Z</time></trkpt><trkpt lat="42.4055978" lon="-8.4234964"><ele>505.7142857142857</ele><time>2026-03-28T13:00:44.931Z</time></trkpt><trkpt lat="42.4055373" lon="-8.4235242"><ele>506.14285714285717</ele><time>2026-03-28T13:00:47.926Z</time></trkpt><trkpt lat="42.4054789" lon="-8.4234744"><ele>506.57142857142856</ele><time>2026-03-28T13:00:52.917Z</time></trkpt><trkpt lat="42.4054083" lon="-8.4234724"><ele>507.0</ele><time>2026-03-28T13:00:56.919Z</time></trkpt><trkpt lat="42.405333" lon="-8.4234523"><ele>509.2857142857143</ele><time>2026-03-28T13:01:22.922Z</time></trkpt><trkpt lat="42.405272" lon="-8.4234045"><ele>511.57142857142856</ele><time>2026-03-28T13:01:27.933Z</time></trkpt><trkpt lat="42.4052083" lon="-8.4233648"><ele>513.8571428571429</ele><time>2026-03-28T13:01:31.924Z</time></trkpt><trkpt lat="42.4051446" lon="-8.4233208"><ele>516.1428571428571</ele><time>2026-03-28T13:01:39.925Z</time></trkpt><trkpt lat="42.405078" lon="-8.4234119"><ele>518.4285714285714</ele><time>2026-03-28T13:01:45.922Z</time></trkpt><trkpt lat="42.4050499" lon="-8.423492"><ele>520.7142857142857</ele><time>2026-03-28T13:01:53.936Z</time></trkpt><trkpt lat="42.4050182" lon="-8.4235788"><ele>523.0</ele><time>2026-03-28T13:02:35.928Z</time></trkpt><trkpt lat="42.4050104" lon="-8.4236637"><ele>523.0</ele><time>2026-03-28T13:02:42.923Z</time></trkpt><trkpt lat="42.4050085" lon="-8.4237747"><ele>523.0</ele><time>2026-03-28T13:02:55.929Z</time></trkpt><trkpt lat="42.4050626" lon="-8.4238615"><ele>523.0</ele><time>2026-03-28T13:02:58.928Z</time></trkpt><trkpt lat="42.4050864" lon="-8.4239761"><ele>523.0</ele><time>2026-03-28T13:03:01.921Z</time></trkpt><trkpt lat="42.4051027" lon="-8.4241253"><ele>523.0</ele><time>2026-03-28T13:03:03.921Z</time></trkpt><trkpt lat="42.4051047" lon="-8.424251"><ele>522.7142857142857</ele><time>2026-03-28T13:03:05.922Z</time></trkpt><trkpt lat="42.4051199" lon="-8.4243501"><ele>522.4285714285714</ele><time>2026-03-28T13:03:07.919Z</time></trkpt><trkpt lat="42.4051356" lon="-8.4244402"><ele>522.1428571428571</ele><time>2026-03-28T13:03:09.92Z</time></trkpt><trkpt lat="42.4051417" lon="-8.4245572"><ele>521.8571428571429</ele><time>2026-03-28T13:03:11.922Z</time></trkpt><trkpt lat="42.4050863" lon="-8.4245056"><ele>521.5714285714286</ele><time>2026-03-28T13:03:23.92Z</time></trkpt><trkpt lat="42.405102" lon="-8.424608"><ele>521.2857142857142</ele><time>2026-03-28T13:03:36.917Z</time></trkpt><trkpt lat="42.4050906" lon="-8.4246924"><ele>521.0</ele><time>2026-03-28T13:03:38.923Z</time></trkpt><trkpt lat="42.4051232" lon="-8.42477"><ele>519.8571428571429</ele><time>2026-03-28T13:03:41.918Z</time></trkpt><trkpt lat="42.4051505" lon="-8.4248485"><ele>518.7142857142858</ele><time>2026-03-28T13:03:51.932Z</time></trkpt><trkpt lat="42.4050979" lon="-8.4249062"><ele>517.5714285714287</ele><time>2026-03-28T13:04:16.922Z</time></trkpt><trkpt lat="42.4050749" lon="-8.4250194"><ele>516.4285714285714</ele><time>2026-03-28T13:04:39.923Z</time></trkpt><trkpt lat="42.405104" lon="-8.4250957"><ele>515.2857142857143</ele><time>2026-03-28T13:04:42.925Z</time></trkpt><trkpt lat="42.4050998" lon="-8.4251869"><ele>514.1428571428572</ele><time>2026-03-28T13:04:44.921Z</time></trkpt><trkpt lat="42.405125" lon="-8.4252714"><ele>513.0</ele><time>2026-03-28T13:04:47.918Z</time></trkpt><trkpt lat="42.4051756" lon="-8.4253652"><ele>513.0</ele><time>2026-03-28T13:04:57.928Z</time></trkpt><trkpt lat="42.4052253" lon="-8.4254416"><ele>513.0</ele><time>2026-03-28T13:04:59.92Z</time></trkpt><trkpt lat="42.4052634" lon="-8.4255206"><ele>513.0</ele><time>2026-03-28T13:05:01.921Z</time></trkpt><trkpt lat="42.4053344" lon="-8.4255661"><ele>513.0</ele><time>2026-03-28T13:05:03.915Z</time></trkpt><trkpt lat="42.4054115" lon="-8.425611"><ele>513.0</ele><time>2026-03-28T13:05:05.922Z</time></trkpt><trkpt lat="42.4054595" lon="-8.4256853"><ele>513.0</ele><time>2026-03-28T13:05:07.931Z</time></trkpt><trkpt lat="42.4054779" lon="-8.4257932"><ele>511.00000000000006</ele><time>2026-03-28T13:05:09.93Z</time></trkpt><trkpt lat="42.4055063" lon="-8.4258765"><ele>509.0</ele><time>2026-03-28T13:05:11.931Z</time></trkpt><trkpt lat="42.4055379" lon="-8.4259553"><ele>507.00000000000006</ele><time>2026-03-28T13:05:18.922Z</time></trkpt><trkpt lat="42.405578" lon="-8.4260582"><ele>505.00000000000006</ele><time>2026-03-28T13:05:20.918Z</time></trkpt><trkpt lat="42.4056087" lon="-8.4261361"><ele>503.0</ele><time>2026-03-28T13:05:28.927Z</time></trkpt><trkpt lat="42.4056231" lon="-8.4262214"><ele>501.00000000000006</ele><time>2026-03-28T13:05:52.927Z</time></trkpt><trkpt lat="42.4056311" lon="-8.4263217"><ele>499.00000000000006</ele><time>2026-03-28T13:06:07.929Z</time></trkpt><trkpt lat="42.4057043" lon="-8.4263849"><ele>499.00000000000006</ele><time>2026-03-28T13:06:30.929Z</time></trkpt><trkpt lat="42.4057476" lon="-8.4264657"><ele>499.0</ele><time>2026-03-28T13:06:32.924Z</time></trkpt><trkpt lat="42.4057868" lon="-8.4265697"><ele>499.0</ele><time>2026-03-28T13:06:34.917Z</time></trkpt><trkpt lat="42.40581" lon="-8.4266654"><ele>499.0</ele><time>2026-03-28T13:06:36.933Z</time></trkpt><trkpt lat="42.4058503" lon="-8.426732"><ele>499.00000000000006</ele><time>2026-03-28T13:06:44.92Z</time></trkpt><trkpt lat="42.4059156" lon="-8.4267367"><ele>499.0</ele><time>2026-03-28T13:06:46.921Z</time></trkpt><trkpt lat="42.406014" lon="-8.4266913"><ele>499.0</ele><time>2026-03-28T13:06:48.923Z</time></trkpt><trkpt lat="42.4060897" lon="-8.4266675"><ele>499.0</ele><time>2026-03-28T13:06:50.919Z</time></trkpt><trkpt lat="42.4061876" lon="-8.4266215"><ele>499.0</ele><time>2026-03-28T13:06:52.919Z</time></trkpt><trkpt lat="42.4062817" lon="-8.4265504"><ele>499.0</ele><time>2026-03-28T13:06:54.921Z</time></trkpt><trkpt lat="42.4063652" lon="-8.4264919"><ele>499.0</ele><time>2026-03-28T13:06:56.918Z</time></trkpt><trkpt lat="42.4064469" lon="-8.4264527"><ele>497.5</ele><time>2026-03-28T13:06:58.916Z</time></trkpt><trkpt lat="42.4065633" lon="-8.4264208"><ele>496.0</ele><time>2026-03-28T13:07:00.918Z</time></trkpt><trkpt lat="42.4066781" lon="-8.4263954"><ele>494.5</ele><time>2026-03-28T13:07:02.921Z</time></trkpt><trkpt lat="42.406792" lon="-8.426382"><ele>493.0</ele><time>2026-03-28T13:07:04.933Z</time></trkpt><trkpt lat="42.4069036" lon="-8.4263772"><ele>493.0</ele><time>2026-03-28T13:07:06.921Z</time></trkpt><trkpt lat="42.4070141" lon="-8.4263821"><ele>492.99999999999994</ele><time>2026-03-28T13:07:08.923Z</time></trkpt><trkpt lat="42.4071379" lon="-8.4263817"><ele>492.99999999999994</ele><time>2026-03-28T13:07:10.922Z</time></trkpt><trkpt lat="42.4072045" lon="-8.4263792"><ele>493.0</ele><time>2026-03-28T13:07:11.92Z</time></trkpt><trkpt lat="42.407277" lon="-8.4263599"><ele>493.0</ele><time>2026-03-28T13:07:12.923Z</time></trkpt><trkpt lat="42.4073536" lon="-8.4263472"><ele>491.57142857142856</ele><time>2026-03-28T13:07:13.92Z</time></trkpt><trkpt lat="42.4074266" lon="-8.4263295"><ele>490.14285714285717</ele><time>2026-03-28T13:07:14.925Z</time></trkpt><trkpt lat="42.4074963" lon="-8.4263226"><ele>488.7142857142857</ele><time>2026-03-28T13:07:15.923Z</time></trkpt><trkpt lat="42.4075611" lon="-8.4263362"><ele>487.2857142857143</ele><time>2026-03-28T13:07:16.918Z</time></trkpt><trkpt lat="42.407624" lon="-8.4263541"><ele>485.8571428571429</ele><time>2026-03-28T13:07:17.923Z</time></trkpt><trkpt lat="42.4077168" lon="-8.4263909"><ele>484.42857142857144</ele><time>2026-03-28T13:07:19.918Z</time></trkpt><trkpt lat="42.4077865" lon="-8.426423"><ele>483.0</ele><time>2026-03-28T13:07:21.92Z</time></trkpt><trkpt lat="42.4078574" lon="-8.4264071"><ele>483.0</ele><time>2026-03-28T13:07:26.918Z</time></trkpt><trkpt lat="42.4079302" lon="-8.4263597"><ele>483.0</ele><time>2026-03-28T13:07:28.918Z</time></trkpt><trkpt lat="42.4079991" lon="-8.4263274"><ele>483.0</ele><time>2026-03-28T13:08:09.922Z</time></trkpt><trkpt lat="42.4080649" lon="-8.4262844"><ele>483.0</ele><time>2026-03-28T13:08:12.916Z</time></trkpt><trkpt lat="42.4079949" lon="-8.4263207"><ele>483.0</ele><time>2026-03-28T13:08:16.926Z</time></trkpt><trkpt lat="42.4078718" lon="-8.4263795"><ele>483.0</ele><time>2026-03-28T13:08:18.915Z</time></trkpt><trkpt lat="42.4078069" lon="-8.4264187"><ele>483.0</ele><time>2026-03-28T13:08:19.92Z</time></trkpt><trkpt lat="42.4077263" lon="-8.426465"><ele>482.99999999999994</ele><time>2026-03-28T13:08:21.918Z</time></trkpt><trkpt lat="42.407814" lon="-8.4264185"><ele>482.99999999999994</ele><time>2026-03-28T13:08:27.934Z</time></trkpt><trkpt lat="42.4079315" lon="-8.4263687"><ele>483.0</ele><time>2026-03-28T13:08:29.922Z</time></trkpt><trkpt lat="42.4080002" lon="-8.4263574"><ele>483.0</ele><time>2026-03-28T13:08:30.921Z</time></trkpt><trkpt lat="42.4080759" lon="-8.4263521"><ele>481.0</ele><time>2026-03-28T13:08:31.928Z</time></trkpt><trkpt lat="42.4081546" lon="-8.4263518"><ele>479.0</ele><time>2026-03-28T13:08:32.923Z</time></trkpt><trkpt lat="42.4082385" lon="-8.426355"><ele>477.0</ele><time>2026-03-28T13:08:33.917Z</time></trkpt><trkpt lat="42.4083227" lon="-8.426336"><ele>475.0</ele><time>2026-03-28T13:08:34.92Z</time></trkpt><trkpt lat="42.408393" lon="-8.4263228"><ele>473.0</ele><time>2026-03-28T13:08:35.915Z</time></trkpt><trkpt lat="42.4084715" lon="-8.4263262"><ele>471.0</ele><time>2026-03-28T13:08:36.919Z</time></trkpt><trkpt lat="42.4085462" lon="-8.4263231"><ele>471.0</ele><time>2026-03-28T13:08:37.926Z</time></trkpt><trkpt lat="42.4086218" lon="-8.4263164"><ele>471.0</ele><time>2026-03-28T13:08:38.92Z</time></trkpt><trkpt lat="42.4086854" lon="-8.4263175"><ele>471.0</ele><time>2026-03-28T13:08:39.922Z</time></trkpt><trkpt lat="42.40875" lon="-8.4263178"><ele>471.0</ele><time>2026-03-28T13:08:40.922Z</time></trkpt><trkpt lat="42.4088139" lon="-8.4263132"><ele>471.0</ele><time>2026-03-28T13:08:41.921Z</time></trkpt><trkpt lat="42.4089285" lon="-8.4262832"><ele>471.0</ele><time>2026-03-28T13:08:43.918Z</time></trkpt><trkpt lat="42.4090018" lon="-8.4262243"><ele>469.1666666666667</ele><time>2026-03-28T13:08:45.92Z</time></trkpt><trkpt lat="42.4089639" lon="-8.4261109"><ele>467.33333333333337</ele><time>2026-03-28T13:08:47.919Z</time></trkpt><trkpt lat="42.4089297" lon="-8.426032"><ele>465.5</ele><time>2026-03-28T13:08:48.917Z</time></trkpt><trkpt lat="42.4088929" lon="-8.4259459"><ele>463.6666666666667</ele><time>2026-03-28T13:08:49.918Z</time></trkpt><trkpt lat="42.4088582" lon="-8.4258614"><ele>461.83333333333337</ele><time>2026-03-28T13:08:50.914Z</time></trkpt><trkpt lat="42.4088343" lon="-8.4257815"><ele>460.0</ele><time>2026-03-28T13:08:51.926Z</time></trkpt><trkpt lat="42.4088538" lon="-8.4256322"><ele>460.0</ele><time>2026-03-28T13:08:53.921Z</time></trkpt><trkpt lat="42.4089099" lon="-8.4254882"><ele>460.0</ele><time>2026-03-28T13:08:55.93Z</time></trkpt><trkpt lat="42.4088992" lon="-8.4253266"><ele>460.0</ele><time>2026-03-28T13:08:57.924Z</time></trkpt><trkpt lat="42.4088607" lon="-8.4252505"><ele>460.0</ele><time>2026-03-28T13:08:58.925Z</time></trkpt><trkpt lat="42.4088141" lon="-8.4251654"><ele>460.0</ele><time>2026-03-28T13:08:59.922Z</time></trkpt><trkpt lat="42.4087734" lon="-8.4250768"><ele>460.33333333333337</ele><time>2026-03-28T13:09:00.925Z</time></trkpt><trkpt lat="42.4087332" lon="-8.4249938"><ele>460.6666666666667</ele><time>2026-03-28T13:09:01.922Z</time></trkpt><trkpt lat="42.4086828" lon="-8.4248541"><ele>461.0</ele><time>2026-03-28T13:09:03.918Z</time></trkpt><trkpt lat="42.4086638" lon="-8.4247588"><ele>461.33333333333337</ele><time>2026-03-28T13:09:06.919Z</time></trkpt><trkpt lat="42.4086841" lon="-8.4246714"><ele>461.6666666666667</ele><time>2026-03-28T13:09:08.919Z</time></trkpt><trkpt lat="42.4087495" lon="-8.4245659"><ele>462.0</ele><time>2026-03-28T13:09:10.917Z</time></trkpt><trkpt lat="42.4088336" lon="-8.4244816"><ele>460.3333333333333</ele><time>2026-03-28T13:09:12.918Z</time></trkpt><trkpt lat="42.4088917" lon="-8.4244397"><ele>458.66666666666663</ele><time>2026-03-28T13:09:14.919Z</time></trkpt><trkpt lat="42.4089471" lon="-8.4243675"><ele>457.0</ele><time>2026-03-28T13:09:18.918Z</time></trkpt><trkpt lat="42.4088355" lon="-8.4243062"><ele>455.3333333333333</ele><time>2026-03-28T13:09:21.921Z</time></trkpt><trkpt lat="42.4087721" lon="-8.4242856"><ele>453.66666666666663</ele><time>2026-03-28T13:09:22.924Z</time></trkpt><trkpt lat="42.4086929" lon="-8.4242857"><ele>452.0</ele><time>2026-03-28T13:09:23.923Z</time></trkpt><trkpt lat="42.4086031" lon="-8.4242944"><ele>451.99999999999994</ele><time>2026-03-28T13:09:24.92Z</time></trkpt><trkpt lat="42.4085102" lon="-8.4243124"><ele>452.0</ele><time>2026-03-28T13:09:25.92Z</time></trkpt><trkpt lat="42.4084341" lon="-8.4243171"><ele>452.0</ele><time>2026-03-28T13:09:26.92Z</time></trkpt><trkpt lat="42.4083656" lon="-8.4243257"><ele>452.0</ele><time>2026-03-28T13:09:27.923Z</time></trkpt><trkpt lat="42.4082597" lon="-8.4243447"><ele>451.99999999999994</ele><time>2026-03-28T13:09:29.925Z</time></trkpt><trkpt lat="42.4081906" lon="-8.4243669"><ele>452.0</ele><time>2026-03-28T13:09:30.922Z</time></trkpt><trkpt lat="42.408115" lon="-8.4243864"><ele>452.0</ele><time>2026-03-28T13:09:31.924Z</time></trkpt><trkpt lat="42.4080412" lon="-8.4244073"><ele>452.00000000000006</ele><time>2026-03-28T13:09:32.93Z</time></trkpt><trkpt lat="42.4079775" lon="-8.4244127"><ele>452.00000000000006</ele><time>2026-03-28T13:09:33.919Z</time></trkpt><trkpt lat="42.4078622" lon="-8.4244209"><ele>452.0</ele><time>2026-03-28T13:09:35.916Z</time></trkpt><trkpt lat="42.4077604" lon="-8.4244394"><ele>452.0</ele><time>2026-03-28T13:09:37.932Z</time></trkpt><trkpt lat="42.4076517" lon="-8.424461"><ele>452.99999999999994</ele><time>2026-03-28T13:09:39.915Z</time></trkpt><trkpt lat="42.4075703" lon="-8.4244786"><ele>454.0</ele><time>2026-03-28T13:09:41.921Z</time></trkpt><trkpt lat="42.4075226" lon="-8.4245474"><ele>455.0</ele><time>2026-03-28T13:09:44.92Z</time></trkpt><trkpt lat="42.407603" lon="-8.4246136"><ele>456.0</ele><time>2026-03-28T13:09:47.914Z</time></trkpt><trkpt lat="42.4076667" lon="-8.4246319"><ele>456.99999999999994</ele><time>2026-03-28T13:09:49.914Z</time></trkpt><trkpt lat="42.407733" lon="-8.4246223"><ele>458.0</ele><time>2026-03-28T13:09:51.92Z</time></trkpt><trkpt lat="42.407814" lon="-8.4246086"><ele>458.0</ele><time>2026-03-28T13:09:53.914Z</time></trkpt><trkpt lat="42.4078781" lon="-8.4245531"><ele>458.0</ele><time>2026-03-28T13:09:57.917Z</time></trkpt><trkpt lat="42.4079272" lon="-8.4246084"><ele>458.0</ele><time>2026-03-28T13:11:26.926Z</time></trkpt><trkpt lat="42.4079228" lon="-8.4247172"><ele>458.0</ele><time>2026-03-28T13:13:32.928Z</time></trkpt><trkpt lat="42.4078889" lon="-8.4247933"><ele>458.0</ele><time>2026-03-28T13:13:39.926Z</time></trkpt><trkpt lat="42.4078249" lon="-8.4247629"><ele>458.0</ele><time>2026-03-28T13:42:00.91Z</time></trkpt><trkpt lat="42.4079034" lon="-8.4247937"><ele>458.0</ele><time>2026-03-28T13:47:19.915Z</time></trkpt><trkpt lat="42.4078876" lon="-8.4248812"><ele>465.0</ele><time>2026-03-28T14:00:27.909Z</time></trkpt><trkpt lat="42.407866" lon="-8.4247898"><ele>465.0</ele><time>2026-03-28T14:04:34.91Z</time></trkpt></trkseg><trkseg><trkpt lat="42.407901" lon="-8.4247183"><ele>465.0</ele><time>2026-03-28T15:37:02.891Z</time></trkpt><trkpt lat="42.4078377" lon="-8.4246693"><ele>465.0</ele><time>2026-03-28T15:40:55.889Z</time></trkpt><trkpt lat="42.4078688" lon="-8.4245592"><ele>465.0</ele><time>2026-03-28T15:42:06.9Z</time></trkpt><trkpt lat="42.4079111" lon="-8.424625"><ele>465.0</ele><time>2026-03-28T15:42:11.901Z</time></trkpt><trkpt lat="42.4078869" lon="-8.4245322"><ele>465.0</ele><time>2026-03-28T15:43:47.888Z</time></trkpt><trkpt lat="42.4078195" lon="-8.4245766"><ele>465.0</ele><time>2026-03-28T15:47:14.889Z</time></trkpt><trkpt lat="42.4077487" lon="-8.4246087"><ele>465.0</ele><time>2026-03-28T15:47:18.889Z</time></trkpt><trkpt lat="42.407681" lon="-8.4246368"><ele>464.0</ele><time>2026-03-28T15:47:22.895Z</time></trkpt><trkpt lat="42.4076128" lon="-8.4246247"><ele>463.0</ele><time>2026-03-28T15:47:26.893Z</time></trkpt><trkpt lat="42.4075697" lon="-8.4245531"><ele>462.0</ele><time>2026-03-28T15:47:30.892Z</time></trkpt><trkpt lat="42.407599" lon="-8.4244607"><ele>461.0</ele><time>2026-03-28T15:47:34.892Z</time></trkpt><trkpt lat="42.407665" lon="-8.4244042"><ele>460.0</ele><time>2026-03-28T15:47:37.904Z</time></trkpt><trkpt lat="42.407743" lon="-8.4243788"><ele>459.0</ele><time>2026-03-28T15:47:40.897Z</time></trkpt><trkpt lat="42.4078151" lon="-8.4243536"><ele>458.0</ele><time>2026-03-28T15:47:45.893Z</time></trkpt><trkpt lat="42.4078922" lon="-8.424356"><ele>457.99999999999994</ele><time>2026-03-28T15:47:48.891Z</time></trkpt><trkpt lat="42.407955" lon="-8.4243474"><ele>458.0</ele><time>2026-03-28T15:47:50.898Z</time></trkpt><trkpt lat="42.4080304" lon="-8.4243392"><ele>458.0</ele><time>2026-03-28T15:47:52.892Z</time></trkpt><trkpt lat="42.4081434" lon="-8.4243314"><ele>458.0</ele><time>2026-03-28T15:47:54.892Z</time></trkpt><trkpt lat="42.4082083" lon="-8.4243275"><ele>457.99999999999994</ele><time>2026-03-28T15:47:55.893Z</time></trkpt><trkpt lat="42.4082844" lon="-8.4243119"><ele>458.0</ele><time>2026-03-28T15:47:56.889Z</time></trkpt><trkpt lat="42.4083546" lon="-8.4243005"><ele>457.1428571428571</ele><time>2026-03-28T15:47:57.892Z</time></trkpt><trkpt lat="42.4084255" lon="-8.4242898"><ele>456.28571428571433</ele><time>2026-03-28T15:47:58.888Z</time></trkpt><trkpt lat="42.4084927" lon="-8.4242793"><ele>455.42857142857144</ele><time>2026-03-28T15:47:59.897Z</time></trkpt><trkpt lat="42.4085609" lon="-8.4242533"><ele>454.57142857142856</ele><time>2026-03-28T15:48:00.891Z</time></trkpt><trkpt lat="42.4086296" lon="-8.4242169"><ele>453.71428571428567</ele><time>2026-03-28T15:48:01.895Z</time></trkpt><trkpt lat="42.4087" lon="-8.4242019"><ele>452.8571428571429</ele><time>2026-03-28T15:48:02.888Z</time></trkpt><trkpt lat="42.4087626" lon="-8.4242212"><ele>452.0</ele><time>2026-03-28T15:48:03.887Z</time></trkpt><trkpt lat="42.408831" lon="-8.4242577"><ele>451.8333333333333</ele><time>2026-03-28T15:48:04.893Z</time></trkpt><trkpt lat="42.4088925" lon="-8.4243068"><ele>451.66666666666663</ele><time>2026-03-28T15:48:05.884Z</time></trkpt><trkpt lat="42.4089501" lon="-8.4243636"><ele>451.5</ele><time>2026-03-28T15:48:06.894Z</time></trkpt><trkpt lat="42.4089861" lon="-8.4244374"><ele>451.33333333333337</ele><time>2026-03-28T15:48:07.89Z</time></trkpt><trkpt lat="42.4090509" lon="-8.4245908"><ele>451.1666666666667</ele><time>2026-03-28T15:48:09.898Z</time></trkpt><trkpt lat="42.4090883" lon="-8.4246785"><ele>451.0</ele><time>2026-03-28T15:48:10.889Z</time></trkpt><trkpt lat="42.4091239" lon="-8.4247662"><ele>451.00000000000006</ele><time>2026-03-28T15:48:11.912Z</time></trkpt><trkpt lat="42.4091642" lon="-8.424858"><ele>451.0</ele><time>2026-03-28T15:48:12.891Z</time></trkpt><trkpt lat="42.4092102" lon="-8.4249559"><ele>451.0</ele><time>2026-03-28T15:48:13.889Z</time></trkpt><trkpt lat="42.4092563" lon="-8.4250533"><ele>451.0</ele><time>2026-03-28T15:48:14.891Z</time></trkpt><trkpt lat="42.4093066" lon="-8.425147"><ele>451.00000000000006</ele><time>2026-03-28T15:48:15.895Z</time></trkpt><trkpt lat="42.4093605" lon="-8.4252376"><ele>451.0</ele><time>2026-03-28T15:48:16.892Z</time></trkpt><trkpt lat="42.409411" lon="-8.4253249"><ele>451.00000000000006</ele><time>2026-03-28T15:48:17.908Z</time></trkpt><trkpt lat="42.4094665" lon="-8.425414"><ele>451.0</ele><time>2026-03-28T15:48:18.89Z</time></trkpt><trkpt lat="42.4095199" lon="-8.4254916"><ele>451.0</ele><time>2026-03-28T15:48:19.891Z</time></trkpt><trkpt lat="42.4095775" lon="-8.4255523"><ele>451.0</ele><time>2026-03-28T15:48:20.891Z</time></trkpt><trkpt lat="42.4096461" lon="-8.4256049"><ele>451.00000000000006</ele><time>2026-03-28T15:48:21.891Z</time></trkpt><trkpt lat="42.4097059" lon="-8.4256525"><ele>451.0</ele><time>2026-03-28T15:48:22.899Z</time></trkpt><trkpt lat="42.4097605" lon="-8.4256983"><ele>449.83333333333337</ele><time>2026-03-28T15:48:23.892Z</time></trkpt><trkpt lat="42.4098685" lon="-8.4257826"><ele>448.6666666666667</ele><time>2026-03-28T15:48:25.887Z</time></trkpt><trkpt lat="42.4099315" lon="-8.4258286"><ele>447.5</ele><time>2026-03-28T15:48:26.895Z</time></trkpt><trkpt lat="42.4100032" lon="-8.4258859"><ele>446.33333333333337</ele><time>2026-03-28T15:48:27.888Z</time></trkpt><trkpt lat="42.4100734" lon="-8.4259337"><ele>445.1666666666667</ele><time>2026-03-28T15:48:28.897Z</time></trkpt><trkpt lat="42.4101402" lon="-8.4259788"><ele>444.0</ele><time>2026-03-28T15:48:29.891Z</time></trkpt><trkpt lat="42.4102004" lon="-8.4260158"><ele>444.0</ele><time>2026-03-28T15:48:30.891Z</time></trkpt><trkpt lat="42.4102828" lon="-8.4260483"><ele>444.0</ele><time>2026-03-28T15:48:32.89Z</time></trkpt><trkpt lat="42.4103563" lon="-8.426096"><ele>444.0</ele><time>2026-03-28T15:49:15.893Z</time></trkpt><trkpt lat="42.4103461" lon="-8.426202"><ele>444.0</ele><time>2026-03-28T15:49:17.895Z</time></trkpt><trkpt lat="42.4103296" lon="-8.426296"><ele>444.0</ele><time>2026-03-28T15:49:18.891Z</time></trkpt><trkpt lat="42.4103236" lon="-8.4263998"><ele>444.0</ele><time>2026-03-28T15:49:19.895Z</time></trkpt><trkpt lat="42.4103215" lon="-8.4265129"><ele>444.8333333333333</ele><time>2026-03-28T15:49:20.89Z</time></trkpt><trkpt lat="42.4103181" lon="-8.4266193"><ele>445.66666666666663</ele><time>2026-03-28T15:49:21.893Z</time></trkpt><trkpt lat="42.4103254" lon="-8.4267058"><ele>446.5</ele><time>2026-03-28T15:49:22.893Z</time></trkpt><trkpt lat="42.4102991" lon="-8.4268184"><ele>447.3333333333333</ele><time>2026-03-28T15:49:24.891Z</time></trkpt><trkpt lat="42.4102785" lon="-8.4269098"><ele>448.16666666666663</ele><time>2026-03-28T15:49:29.893Z</time></trkpt><trkpt lat="42.410241" lon="-8.4270193"><ele>449.0</ele><time>2026-03-28T15:56:12.89Z</time></trkpt><trkpt lat="42.4101278" lon="-8.4271281"><ele>447.0</ele><time>2026-03-28T15:56:14.893Z</time></trkpt><trkpt lat="42.4100542" lon="-8.4272094"><ele>445.0</ele><time>2026-03-28T15:56:15.889Z</time></trkpt><trkpt lat="42.4099917" lon="-8.4272856"><ele>443.0</ele><time>2026-03-28T15:56:16.889Z</time></trkpt><trkpt lat="42.4099286" lon="-8.4273607"><ele>441.0</ele><time>2026-03-28T15:56:17.882Z</time></trkpt><trkpt lat="42.4098501" lon="-8.4274384"><ele>439.0</ele><time>2026-03-28T15:56:18.885Z</time></trkpt><trkpt lat="42.4097603" lon="-8.4275316"><ele>439.0</ele><time>2026-03-28T15:56:19.884Z</time></trkpt><trkpt lat="42.4096877" lon="-8.4276217"><ele>439.0</ele><time>2026-03-28T15:56:20.891Z</time></trkpt><trkpt lat="42.4096255" lon="-8.4277266"><ele>439.0</ele><time>2026-03-28T15:56:21.892Z</time></trkpt><trkpt lat="42.4095822" lon="-8.4278556"><ele>439.0</ele><time>2026-03-28T15:56:22.886Z</time></trkpt><trkpt lat="42.4095741" lon="-8.4280112"><ele>439.0</ele><time>2026-03-28T15:56:23.885Z</time></trkpt><trkpt lat="42.4096093" lon="-8.4281777"><ele>439.0</ele><time>2026-03-28T15:56:24.886Z</time></trkpt><trkpt lat="42.4096588" lon="-8.4283391"><ele>439.0</ele><time>2026-03-28T15:56:25.892Z</time></trkpt><trkpt lat="42.4097107" lon="-8.4284955"><ele>439.0</ele><time>2026-03-28T15:56:26.884Z</time></trkpt><trkpt lat="42.4097745" lon="-8.4286351"><ele>439.0</ele><time>2026-03-28T15:56:27.885Z</time></trkpt><trkpt lat="42.4098518" lon="-8.4287508"><ele>441.4</ele><time>2026-03-28T15:56:28.883Z</time></trkpt><trkpt lat="42.4099317" lon="-8.4288398"><ele>443.79999999999995</ele><time>2026-03-28T15:56:29.897Z</time></trkpt><trkpt lat="42.4100424" lon="-8.4289039"><ele>446.20000000000005</ele><time>2026-03-28T15:56:30.897Z</time></trkpt><trkpt lat="42.4101425" lon="-8.4289626"><ele>448.6</ele><time>2026-03-28T15:56:31.893Z</time></trkpt><trkpt lat="42.4102356" lon="-8.4290553"><ele>451.0</ele><time>2026-03-28T15:56:32.888Z</time></trkpt><trkpt lat="42.4103228" lon="-8.429162"><ele>451.0</ele><time>2026-03-28T15:56:33.888Z</time></trkpt><trkpt lat="42.4103986" lon="-8.429284"><ele>451.0</ele><time>2026-03-28T15:56:34.886Z</time></trkpt><trkpt lat="42.4104668" lon="-8.4294188"><ele>451.0</ele><time>2026-03-28T15:56:35.882Z</time></trkpt><trkpt lat="42.4105134" lon="-8.4295653"><ele>451.0</ele><time>2026-03-28T15:56:36.884Z</time></trkpt><trkpt lat="42.4105572" lon="-8.4297121"><ele>446.25</ele><time>2026-03-28T15:56:37.882Z</time></trkpt><trkpt lat="42.4105814" lon="-8.4298795"><ele>441.5</ele><time>2026-03-28T15:56:38.889Z</time></trkpt><trkpt lat="42.410597" lon="-8.4300605"><ele>436.75</ele><time>2026-03-28T15:56:39.892Z</time></trkpt><trkpt lat="42.4106015" lon="-8.4302432"><ele>432.0</ele><time>2026-03-28T15:56:40.89Z</time></trkpt><trkpt lat="42.4106115" lon="-8.4304314"><ele>432.25</ele><time>2026-03-28T15:56:41.888Z</time></trkpt><trkpt lat="42.4106307" lon="-8.4306161"><ele>432.5</ele><time>2026-03-28T15:56:42.888Z</time></trkpt><trkpt lat="42.4106407" lon="-8.4307891"><ele>432.75</ele><time>2026-03-28T15:56:43.881Z</time></trkpt><trkpt lat="42.4106464" lon="-8.4309706"><ele>433.0</ele><time>2026-03-28T15:56:44.899Z</time></trkpt><trkpt lat="42.4106578" lon="-8.4311527"><ele>433.5</ele><time>2026-03-28T15:56:45.884Z</time></trkpt><trkpt lat="42.4106734" lon="-8.4313382"><ele>434.0</ele><time>2026-03-28T15:56:46.894Z</time></trkpt><trkpt lat="42.4107069" lon="-8.4315257"><ele>434.5</ele><time>2026-03-28T15:56:47.889Z</time></trkpt><trkpt lat="42.4107424" lon="-8.4317158"><ele>435.0</ele><time>2026-03-28T15:56:48.89Z</time></trkpt><trkpt lat="42.4107837" lon="-8.4319162"><ele>435.0</ele><time>2026-03-28T15:56:49.889Z</time></trkpt><trkpt lat="42.4108184" lon="-8.4321117"><ele>435.0</ele><time>2026-03-28T15:56:50.888Z</time></trkpt><trkpt lat="42.410835" lon="-8.4322903"><ele>435.0</ele><time>2026-03-28T15:56:51.888Z</time></trkpt><trkpt lat="42.4108365" lon="-8.4324496"><ele>435.0</ele><time>2026-03-28T15:56:52.884Z</time></trkpt><trkpt lat="42.4108249" lon="-8.4326237"><ele>434.75</ele><time>2026-03-28T15:56:53.886Z</time></trkpt><trkpt lat="42.4108119" lon="-8.4327944"><ele>434.5</ele><time>2026-03-28T15:56:54.886Z</time></trkpt><trkpt lat="42.4107988" lon="-8.4329641"><ele>434.25</ele><time>2026-03-28T15:56:55.889Z</time></trkpt><trkpt lat="42.4107898" lon="-8.4331266"><ele>434.0</ele><time>2026-03-28T15:56:56.891Z</time></trkpt><trkpt lat="42.4107811" lon="-8.4332836"><ele>433.6</ele><time>2026-03-28T15:56:57.886Z</time></trkpt><trkpt lat="42.4107764" lon="-8.4334356"><ele>433.2</ele><time>2026-03-28T15:56:58.892Z</time></trkpt><trkpt lat="42.4107692" lon="-8.4335765"><ele>432.80000000000007</ele><time>2026-03-28T15:56:59.895Z</time></trkpt><trkpt lat="42.4107771" lon="-8.4337034"><ele>432.40000000000003</ele><time>2026-03-28T15:57:00.884Z</time></trkpt><trkpt lat="42.4108116" lon="-8.4338224"><ele>432.0</ele><time>2026-03-28T15:57:01.886Z</time></trkpt><trkpt lat="42.4108754" lon="-8.4339093"><ele>434.75</ele><time>2026-03-28T15:57:02.883Z</time></trkpt><trkpt lat="42.4109589" lon="-8.4339588"><ele>437.5</ele><time>2026-03-28T15:57:03.896Z</time></trkpt><trkpt lat="42.4110621" lon="-8.4339756"><ele>440.25</ele><time>2026-03-28T15:57:04.895Z</time></trkpt><trkpt lat="42.411185" lon="-8.4339692"><ele>443.0</ele><time>2026-03-28T15:57:05.894Z</time></trkpt><trkpt lat="42.4113228" lon="-8.4339602"><ele>441.0</ele><time>2026-03-28T15:57:06.891Z</time></trkpt><trkpt lat="42.4114631" lon="-8.4339586"><ele>439.0</ele><time>2026-03-28T15:57:07.893Z</time></trkpt><trkpt lat="42.4116033" lon="-8.4339815"><ele>437.0</ele><time>2026-03-28T15:57:08.886Z</time></trkpt><trkpt lat="42.4117449" lon="-8.434025"><ele>435.0</ele><time>2026-03-28T15:57:09.884Z</time></trkpt><trkpt lat="42.4118775" lon="-8.4340919"><ele>435.0</ele><time>2026-03-28T15:57:10.892Z</time></trkpt><trkpt lat="42.4119866" lon="-8.4341957"><ele>435.0</ele><time>2026-03-28T15:57:11.886Z</time></trkpt><trkpt lat="42.4120667" lon="-8.4343461"><ele>435.0</ele><time>2026-03-28T15:57:12.884Z</time></trkpt><trkpt lat="42.4121102" lon="-8.4345179"><ele>435.0</ele><time>2026-03-28T15:57:13.887Z</time></trkpt><trkpt lat="42.4121218" lon="-8.4347069"><ele>436.66666666666663</ele><time>2026-03-28T15:57:14.885Z</time></trkpt><trkpt lat="42.4121266" lon="-8.4349203"><ele>438.3333333333333</ele><time>2026-03-28T15:57:15.882Z</time></trkpt><trkpt lat="42.4121193" lon="-8.4351381"><ele>440.0</ele><time>2026-03-28T15:57:16.885Z</time></trkpt><trkpt lat="42.4121018" lon="-8.4353328"><ele>440.2</ele><time>2026-03-28T15:57:17.892Z</time></trkpt><trkpt lat="42.4120716" lon="-8.4355016"><ele>440.4</ele><time>2026-03-28T15:57:18.888Z</time></trkpt><trkpt lat="42.4120363" lon="-8.4356491"><ele>440.6</ele><time>2026-03-28T15:57:19.881Z</time></trkpt><trkpt lat="42.4120233" lon="-8.435775"><ele>440.8</ele><time>2026-03-28T15:57:20.88Z</time></trkpt><trkpt lat="42.4120378" lon="-8.4358975"><ele>441.0</ele><time>2026-03-28T15:57:21.887Z</time></trkpt><trkpt lat="42.4120467" lon="-8.4360077"><ele>441.0</ele><time>2026-03-28T15:57:22.886Z</time></trkpt><trkpt lat="42.4121094" lon="-8.4361009"><ele>441.0</ele><time>2026-03-28T15:57:24.884Z</time></trkpt><trkpt lat="42.4121611" lon="-8.4361879"><ele>441.0</ele><time>2026-03-28T15:57:48.887Z</time></trkpt><trkpt lat="42.4121771" lon="-8.4363113"><ele>441.0</ele><time>2026-03-28T15:57:50.884Z</time></trkpt><trkpt lat="42.4121925" lon="-8.4363992"><ele>441.0</ele><time>2026-03-28T15:57:51.887Z</time></trkpt><trkpt lat="42.4122161" lon="-8.4365037"><ele>441.0</ele><time>2026-03-28T15:57:52.895Z</time></trkpt><trkpt lat="42.4122461" lon="-8.4366083"><ele>438.4</ele><time>2026-03-28T15:57:53.893Z</time></trkpt><trkpt lat="42.4122805" lon="-8.4367134"><ele>435.8</ele><time>2026-03-28T15:57:54.886Z</time></trkpt><trkpt lat="42.4123472" lon="-8.436803"><ele>433.19999999999993</ele><time>2026-03-28T15:57:55.896Z</time></trkpt><trkpt lat="42.4124452" lon="-8.4368553"><ele>430.59999999999997</ele><time>2026-03-28T15:57:56.881Z</time></trkpt><trkpt lat="42.4125527" lon="-8.4369148"><ele>428.0</ele><time>2026-03-28T15:57:57.894Z</time></trkpt><trkpt lat="42.4126532" lon="-8.4369795"><ele>428.0</ele><time>2026-03-28T15:57:58.893Z</time></trkpt><trkpt lat="42.4127586" lon="-8.437044"><ele>428.0</ele><time>2026-03-28T15:57:59.888Z</time></trkpt><trkpt lat="42.4128678" lon="-8.437111"><ele>428.0</ele><time>2026-03-28T15:58:00.893Z</time></trkpt><trkpt lat="42.4129816" lon="-8.4371801"><ele>428.0</ele><time>2026-03-28T15:58:01.895Z</time></trkpt><trkpt lat="42.4131022" lon="-8.4372484"><ele>427.25</ele><time>2026-03-28T15:58:02.892Z</time></trkpt><trkpt lat="42.4132279" lon="-8.4373115"><ele>426.5</ele><time>2026-03-28T15:58:03.884Z</time></trkpt><trkpt lat="42.4133606" lon="-8.4373687"><ele>425.75</ele><time>2026-03-28T15:58:04.892Z</time></trkpt><trkpt lat="42.4134994" lon="-8.4374166"><ele>425.0</ele><time>2026-03-28T15:58:05.887Z</time></trkpt><trkpt lat="42.4136353" lon="-8.4374492"><ele>425.0</ele><time>2026-03-28T15:58:06.889Z</time></trkpt><trkpt lat="42.4137692" lon="-8.4374698"><ele>425.0</ele><time>2026-03-28T15:58:07.882Z</time></trkpt><trkpt lat="42.413893" lon="-8.4374873"><ele>425.0</ele><time>2026-03-28T15:58:08.885Z</time></trkpt><trkpt lat="42.4140129" lon="-8.4374891"><ele>425.0</ele><time>2026-03-28T15:58:09.901Z</time></trkpt><trkpt lat="42.4141271" lon="-8.4374665"><ele>422.75</ele><time>2026-03-28T15:58:10.886Z</time></trkpt><trkpt lat="42.4142434" lon="-8.4374112"><ele>420.5</ele><time>2026-03-28T15:58:11.886Z</time></trkpt><trkpt lat="42.4143487" lon="-8.437333"><ele>418.25</ele><time>2026-03-28T15:58:12.884Z</time></trkpt><trkpt lat="42.4144501" lon="-8.4372646"><ele>416.0</ele><time>2026-03-28T15:58:13.887Z</time></trkpt><trkpt lat="42.414553" lon="-8.4372197"><ele>415.8</ele><time>2026-03-28T15:58:14.891Z</time></trkpt><trkpt lat="42.4146605" lon="-8.4371968"><ele>415.6</ele><time>2026-03-28T15:58:15.892Z</time></trkpt><trkpt lat="42.414766" lon="-8.4371935"><ele>415.4</ele><time>2026-03-28T15:58:16.888Z</time></trkpt><trkpt lat="42.4148724" lon="-8.4371908"><ele>415.2</ele><time>2026-03-28T15:58:17.894Z</time></trkpt><trkpt lat="42.414976" lon="-8.4371586"><ele>415.0</ele><time>2026-03-28T15:58:18.888Z</time></trkpt><trkpt lat="42.4150603" lon="-8.4370761"><ele>415.0</ele><time>2026-03-28T15:58:19.897Z</time></trkpt><trkpt lat="42.4151389" lon="-8.4369972"><ele>415.0</ele><time>2026-03-28T15:58:20.887Z</time></trkpt><trkpt lat="42.4152198" lon="-8.4369523"><ele>415.0</ele><time>2026-03-28T15:58:21.889Z</time></trkpt><trkpt lat="42.4153029" lon="-8.4369814"><ele>415.0</ele><time>2026-03-28T15:58:22.881Z</time></trkpt><trkpt lat="42.4153808" lon="-8.4370686"><ele>415.0</ele><time>2026-03-28T15:58:23.886Z</time></trkpt><trkpt lat="42.4154476" lon="-8.437197"><ele>408.25</ele><time>2026-03-28T15:58:24.891Z</time></trkpt><trkpt lat="42.4154951" lon="-8.4373466"><ele>401.5</ele><time>2026-03-28T15:58:25.885Z</time></trkpt><trkpt lat="42.4155276" lon="-8.4374969"><ele>394.75</ele><time>2026-03-28T15:58:26.887Z</time></trkpt><trkpt lat="42.4155571" lon="-8.4376537"><ele>388.0</ele><time>2026-03-28T15:58:27.888Z</time></trkpt><trkpt lat="42.4155761" lon="-8.4378157"><ele>388.0</ele><time>2026-03-28T15:58:28.89Z</time></trkpt><trkpt lat="42.4155837" lon="-8.4379848"><ele>388.0</ele><time>2026-03-28T15:58:29.892Z</time></trkpt><trkpt lat="42.4155779" lon="-8.4381633"><ele>388.0</ele><time>2026-03-28T15:58:30.887Z</time></trkpt><trkpt lat="42.4155601" lon="-8.4383508"><ele>388.0</ele><time>2026-03-28T15:58:31.883Z</time></trkpt><trkpt lat="42.4155262" lon="-8.4385375"><ele>393.25</ele><time>2026-03-28T15:58:32.882Z</time></trkpt><trkpt lat="42.4154766" lon="-8.4387341"><ele>398.5</ele><time>2026-03-28T15:58:33.884Z</time></trkpt><trkpt lat="42.4154181" lon="-8.4389176"><ele>403.75</ele><time>2026-03-28T15:58:34.89Z</time></trkpt><trkpt lat="42.4153639" lon="-8.4390906"><ele>409.0</ele><time>2026-03-28T15:58:35.891Z</time></trkpt><trkpt lat="42.4153104" lon="-8.4392543"><ele>409.0</ele><time>2026-03-28T15:58:36.886Z</time></trkpt><trkpt lat="42.4152665" lon="-8.4394222"><ele>409.0</ele><time>2026-03-28T15:58:37.9Z</time></trkpt><trkpt lat="42.4152314" lon="-8.4395875"><ele>409.0</ele><time>2026-03-28T15:58:38.885Z</time></trkpt><trkpt lat="42.4152003" lon="-8.4397469"><ele>409.0</ele><time>2026-03-28T15:58:39.882Z</time></trkpt><trkpt lat="42.4151754" lon="-8.4398958"><ele>406.79999999999995</ele><time>2026-03-28T15:58:40.894Z</time></trkpt><trkpt lat="42.4151467" lon="-8.4400446"><ele>404.59999999999997</ele><time>2026-03-28T15:58:41.886Z</time></trkpt><trkpt lat="42.4151097" lon="-8.4401812"><ele>402.4</ele><time>2026-03-28T15:58:42.885Z</time></trkpt><trkpt lat="42.4150634" lon="-8.4403091"><ele>400.2</ele><time>2026-03-28T15:58:43.891Z</time></trkpt><trkpt lat="42.4149956" lon="-8.4404321"><ele>398.0</ele><time>2026-03-28T15:58:44.897Z</time></trkpt><trkpt lat="42.41491" lon="-8.4405425"><ele>400.0</ele><time>2026-03-28T15:58:45.886Z</time></trkpt><trkpt lat="42.4148161" lon="-8.4406581"><ele>402.0</ele><time>2026-03-28T15:58:46.891Z</time></trkpt><trkpt lat="42.4147193" lon="-8.44078"><ele>404.0</ele><time>2026-03-28T15:58:47.889Z</time></trkpt><trkpt lat="42.4146283" lon="-8.4409101"><ele>406.0</ele><time>2026-03-28T15:58:48.885Z</time></trkpt><trkpt lat="42.4145483" lon="-8.4410444"><ele>406.0</ele><time>2026-03-28T15:58:49.892Z</time></trkpt><trkpt lat="42.414482" lon="-8.4411856"><ele>406.0</ele><time>2026-03-28T15:58:50.886Z</time></trkpt><trkpt lat="42.4144209" lon="-8.4413143"><ele>406.0</ele><time>2026-03-28T15:58:51.888Z</time></trkpt><trkpt lat="42.4143481" lon="-8.4414218"><ele>406.0</ele><time>2026-03-28T15:58:52.888Z</time></trkpt><trkpt lat="42.4142425" lon="-8.4414956"><ele>403.0</ele><time>2026-03-28T15:58:53.892Z</time></trkpt><trkpt lat="42.4141326" lon="-8.4415601"><ele>400.0</ele><time>2026-03-28T15:58:54.881Z</time></trkpt><trkpt lat="42.414023" lon="-8.4416322"><ele>397.0</ele><time>2026-03-28T15:58:55.895Z</time></trkpt><trkpt lat="42.4139195" lon="-8.4417105"><ele>394.0</ele><time>2026-03-28T15:58:56.897Z</time></trkpt><trkpt lat="42.4138182" lon="-8.4417817"><ele>394.0</ele><time>2026-03-28T15:58:57.887Z</time></trkpt><trkpt lat="42.4137228" lon="-8.4418483"><ele>394.0</ele><time>2026-03-28T15:58:58.885Z</time></trkpt><trkpt lat="42.4136322" lon="-8.4419067"><ele>394.0</ele><time>2026-03-28T15:58:59.891Z</time></trkpt><trkpt lat="42.4135478" lon="-8.4419669"><ele>394.0</ele><time>2026-03-28T15:59:00.887Z</time></trkpt><trkpt lat="42.4134785" lon="-8.4420418"><ele>394.0</ele><time>2026-03-28T15:59:01.89Z</time></trkpt><trkpt lat="42.4134547" lon="-8.4421401"><ele>391.79999999999995</ele><time>2026-03-28T15:59:02.881Z</time></trkpt><trkpt lat="42.4134654" lon="-8.4422634"><ele>389.59999999999997</ele><time>2026-03-28T15:59:03.886Z</time></trkpt><trkpt lat="42.4135084" lon="-8.4423977"><ele>387.4</ele><time>2026-03-28T15:59:04.89Z</time></trkpt><trkpt lat="42.4135719" lon="-8.4425229"><ele>385.2</ele><time>2026-03-28T15:59:05.883Z</time></trkpt><trkpt lat="42.4136456" lon="-8.4426333"><ele>383.0</ele><time>2026-03-28T15:59:06.885Z</time></trkpt><trkpt lat="42.4137184" lon="-8.4427423"><ele>383.0</ele><time>2026-03-28T15:59:07.885Z</time></trkpt><trkpt lat="42.4137872" lon="-8.4428604"><ele>383.0</ele><time>2026-03-28T15:59:08.892Z</time></trkpt><trkpt lat="42.4138431" lon="-8.4429911"><ele>383.0</ele><time>2026-03-28T15:59:09.883Z</time></trkpt><trkpt lat="42.413879" lon="-8.4431224"><ele>383.0</ele><time>2026-03-28T15:59:10.884Z</time></trkpt><trkpt lat="42.4139002" lon="-8.4432615"><ele>383.0</ele><time>2026-03-28T15:59:11.895Z</time></trkpt><trkpt lat="42.4139064" lon="-8.4434042"><ele>383.79999999999995</ele><time>2026-03-28T15:59:12.89Z</time></trkpt><trkpt lat="42.4139052" lon="-8.4435546"><ele>384.6</ele><time>2026-03-28T15:59:13.893Z</time></trkpt><trkpt lat="42.4138933" lon="-8.4436976"><ele>385.4</ele><time>2026-03-28T15:59:14.883Z</time></trkpt><trkpt lat="42.4138709" lon="-8.443844"><ele>386.20000000000005</ele><time>2026-03-28T15:59:15.886Z</time></trkpt><trkpt lat="42.4138421" lon="-8.4439827"><ele>387.0</ele><time>2026-03-28T15:59:16.895Z</time></trkpt><trkpt lat="42.4138084" lon="-8.4441127"><ele>387.0</ele><time>2026-03-28T15:59:17.888Z</time></trkpt><trkpt lat="42.4137742" lon="-8.4442376"><ele>387.0</ele><time>2026-03-28T15:59:18.884Z</time></trkpt><trkpt lat="42.4137455" lon="-8.4443622"><ele>387.0</ele><time>2026-03-28T15:59:19.887Z</time></trkpt><trkpt lat="42.4137194" lon="-8.4444809"><ele>387.0</ele><time>2026-03-28T15:59:20.878Z</time></trkpt><trkpt lat="42.4136899" lon="-8.4446006"><ele>387.0</ele><time>2026-03-28T15:59:21.895Z</time></trkpt><trkpt lat="42.4136667" lon="-8.4447283"><ele>384.20000000000005</ele><time>2026-03-28T15:59:22.886Z</time></trkpt><trkpt lat="42.4136561" lon="-8.444859"><ele>381.4</ele><time>2026-03-28T15:59:23.89Z</time></trkpt><trkpt lat="42.4136671" lon="-8.4449836"><ele>378.6</ele><time>2026-03-28T15:59:24.897Z</time></trkpt><trkpt lat="42.4137021" lon="-8.4450927"><ele>375.79999999999995</ele><time>2026-03-28T15:59:25.886Z</time></trkpt><trkpt lat="42.4137655" lon="-8.4451885"><ele>373.0</ele><time>2026-03-28T15:59:26.89Z</time></trkpt><trkpt lat="42.4138592" lon="-8.4452372"><ele>371.75</ele><time>2026-03-28T15:59:27.893Z</time></trkpt><trkpt lat="42.4139638" lon="-8.4452397"><ele>370.5</ele><time>2026-03-28T15:59:28.894Z</time></trkpt><trkpt lat="42.4140856" lon="-8.4452262"><ele>369.25</ele><time>2026-03-28T15:59:29.891Z</time></trkpt><trkpt lat="42.4142107" lon="-8.445209"><ele>368.0</ele><time>2026-03-28T15:59:30.885Z</time></trkpt><trkpt lat="42.4143391" lon="-8.4451915"><ele>368.0</ele><time>2026-03-28T15:59:31.891Z</time></trkpt><trkpt lat="42.4144684" lon="-8.4451734"><ele>368.0</ele><time>2026-03-28T15:59:32.892Z</time></trkpt><trkpt lat="42.4145997" lon="-8.4451515"><ele>368.0</ele><time>2026-03-28T15:59:33.889Z</time></trkpt><trkpt lat="42.4147288" lon="-8.4451299"><ele>368.0</ele><time>2026-03-28T15:59:34.888Z</time></trkpt><trkpt lat="42.414853" lon="-8.4451087"><ele>369.5</ele><time>2026-03-28T15:59:35.893Z</time></trkpt><trkpt lat="42.414977" lon="-8.4450905"><ele>371.0</ele><time>2026-03-28T15:59:36.891Z</time></trkpt><trkpt lat="42.4150979" lon="-8.4450795"><ele>372.5</ele><time>2026-03-28T15:59:37.897Z</time></trkpt><trkpt lat="42.4152111" lon="-8.4450809"><ele>374.0</ele><time>2026-03-28T15:59:38.886Z</time></trkpt><trkpt lat="42.4153282" lon="-8.4451198"><ele>374.0</ele><time>2026-03-28T15:59:39.882Z</time></trkpt><trkpt lat="42.4154296" lon="-8.4452241"><ele>374.0</ele><time>2026-03-28T15:59:40.88Z</time></trkpt><trkpt lat="42.41549" lon="-8.4453596"><ele>374.0</ele><time>2026-03-28T15:59:41.885Z</time></trkpt><trkpt lat="42.4155083" lon="-8.4454999"><ele>374.0</ele><time>2026-03-28T15:59:42.89Z</time></trkpt><trkpt lat="42.4155251" lon="-8.4456251"><ele>374.0</ele><time>2026-03-28T15:59:43.879Z</time></trkpt><trkpt lat="42.4155426" lon="-8.4457455"><ele>375.5</ele><time>2026-03-28T15:59:44.89Z</time></trkpt><trkpt lat="42.4155566" lon="-8.4458546"><ele>377.0</ele><time>2026-03-28T15:59:45.882Z</time></trkpt><trkpt lat="42.4155702" lon="-8.4459436"><ele>378.5</ele><time>2026-03-28T15:59:46.893Z</time></trkpt><trkpt lat="42.4155855" lon="-8.4460682"><ele>380.0</ele><time>2026-03-28T15:59:48.887Z</time></trkpt><trkpt lat="42.4156534" lon="-8.4460179"><ele>381.5</ele><time>2026-03-28T16:00:33.889Z</time></trkpt><trkpt lat="42.4157602" lon="-8.4459463"><ele>383.0</ele><time>2026-03-28T16:00:35.888Z</time></trkpt><trkpt lat="42.4158153" lon="-8.4458847"><ele>383.0</ele><time>2026-03-28T16:00:36.885Z</time></trkpt><trkpt lat="42.4158713" lon="-8.4458094"><ele>383.0</ele><time>2026-03-28T16:00:37.886Z</time></trkpt><trkpt lat="42.4159317" lon="-8.4457343"><ele>383.0</ele><time>2026-03-28T16:00:38.888Z</time></trkpt><trkpt lat="42.415994" lon="-8.4456666"><ele>383.0</ele><time>2026-03-28T16:00:39.9Z</time></trkpt><trkpt lat="42.4160413" lon="-8.445605"><ele>383.0</ele><time>2026-03-28T16:00:40.886Z</time></trkpt><trkpt lat="42.41612" lon="-8.4455071"><ele>383.0</ele><time>2026-03-28T16:00:42.885Z</time></trkpt><trkpt lat="42.4162258" lon="-8.4454372"><ele>383.0</ele><time>2026-03-28T16:00:44.892Z</time></trkpt><trkpt lat="42.4162898" lon="-8.445413"><ele>383.0</ele><time>2026-03-28T16:00:45.897Z</time></trkpt><trkpt lat="42.4163529" lon="-8.4453844"><ele>383.0</ele><time>2026-03-28T16:00:46.884Z</time></trkpt><trkpt lat="42.4164167" lon="-8.4453574"><ele>383.0</ele><time>2026-03-28T16:00:47.881Z</time></trkpt><trkpt lat="42.4164827" lon="-8.4453266"><ele>383.0</ele><time>2026-03-28T16:00:48.889Z</time></trkpt><trkpt lat="42.416546" lon="-8.4453008"><ele>383.0</ele><time>2026-03-28T16:00:49.888Z</time></trkpt><trkpt lat="42.4166071" lon="-8.4452782"><ele>383.0</ele><time>2026-03-28T16:00:50.894Z</time></trkpt><trkpt lat="42.4167237" lon="-8.4452481"><ele>383.0</ele><time>2026-03-28T16:00:52.885Z</time></trkpt><trkpt lat="42.4168361" lon="-8.4452564"><ele>383.0</ele><time>2026-03-28T16:00:54.883Z</time></trkpt><trkpt lat="42.4169595" lon="-8.4453054"><ele>383.0</ele><time>2026-03-28T16:00:56.891Z</time></trkpt><trkpt lat="42.4170212" lon="-8.4453344"><ele>383.0</ele><time>2026-03-28T16:00:57.893Z</time></trkpt><trkpt lat="42.4171175" lon="-8.4454084"><ele>383.0</ele><time>2026-03-28T16:00:59.886Z</time></trkpt><trkpt lat="42.4171606" lon="-8.4455249"><ele>385.5</ele><time>2026-03-28T16:01:01.891Z</time></trkpt><trkpt lat="42.417134" lon="-8.4456458"><ele>388.0</ele><time>2026-03-28T16:01:03.883Z</time></trkpt><trkpt lat="42.4170787" lon="-8.4457568"><ele>390.5</ele><time>2026-03-28T16:01:05.883Z</time></trkpt><trkpt lat="42.4170341" lon="-8.4458738"><ele>393.0</ele><time>2026-03-28T16:01:07.88Z</time></trkpt><trkpt lat="42.4170335" lon="-8.445963"><ele>395.49999999999994</ele><time>2026-03-28T16:01:09.891Z</time></trkpt><trkpt lat="42.4171056" lon="-8.446013"><ele>398.0</ele><time>2026-03-28T16:01:12.898Z</time></trkpt><trkpt lat="42.4171859" lon="-8.4460382"><ele>400.79999999999995</ele><time>2026-03-28T16:01:14.88Z</time></trkpt><trkpt lat="42.417272" lon="-8.4460155"><ele>403.6</ele><time>2026-03-28T16:01:16.883Z</time></trkpt><trkpt lat="42.41737" lon="-8.4459765"><ele>406.4</ele><time>2026-03-28T16:01:18.888Z</time></trkpt><trkpt lat="42.4174682" lon="-8.4460127"><ele>409.20000000000005</ele><time>2026-03-28T16:01:20.89Z</time></trkpt><trkpt lat="42.417516" lon="-8.4460708"><ele>412.0</ele><time>2026-03-28T16:01:21.885Z</time></trkpt><trkpt lat="42.4175641" lon="-8.4462095"><ele>413.50000000000006</ele><time>2026-03-28T16:01:23.89Z</time></trkpt><trkpt lat="42.4175642" lon="-8.4463029"><ele>415.0</ele><time>2026-03-28T16:01:24.885Z</time></trkpt><trkpt lat="42.4175576" lon="-8.4464078"><ele>416.5</ele><time>2026-03-28T16:01:25.889Z</time></trkpt><trkpt lat="42.4175498" lon="-8.4465125"><ele>418.0</ele><time>2026-03-28T16:01:26.894Z</time></trkpt><trkpt lat="42.4175542" lon="-8.4466034"><ele>419.50000000000006</ele><time>2026-03-28T16:01:27.883Z</time></trkpt><trkpt lat="42.417568" lon="-8.446693"><ele>421.0</ele><time>2026-03-28T16:01:28.887Z</time></trkpt><trkpt lat="42.4176039" lon="-8.4468414"><ele>421.0</ele><time>2026-03-28T16:01:30.885Z</time></trkpt><trkpt lat="42.4176643" lon="-8.4469134"><ele>421.0</ele><time>2026-03-28T16:01:32.88Z</time></trkpt><trkpt lat="42.4177721" lon="-8.4469117"><ele>421.0</ele><time>2026-03-28T16:01:34.884Z</time></trkpt><trkpt lat="42.4178868" lon="-8.4468731"><ele>421.0</ele><time>2026-03-28T16:01:36.888Z</time></trkpt><trkpt lat="42.4179948" lon="-8.4468251"><ele>421.0</ele><time>2026-03-28T16:01:38.887Z</time></trkpt><trkpt lat="42.4180927" lon="-8.4468059"><ele>423.33333333333337</ele><time>2026-03-28T16:01:40.88Z</time></trkpt><trkpt lat="42.4181887" lon="-8.44681"><ele>425.6666666666667</ele><time>2026-03-28T16:01:42.895Z</time></trkpt><trkpt lat="42.4182745" lon="-8.4468126"><ele>428.0</ele><time>2026-03-28T16:01:44.886Z</time></trkpt><trkpt lat="42.4183593" lon="-8.446784"><ele>430.33333333333337</ele><time>2026-03-28T16:01:46.89Z</time></trkpt><trkpt lat="42.4184068" lon="-8.4467144"><ele>432.6666666666667</ele><time>2026-03-28T16:01:48.887Z</time></trkpt><trkpt lat="42.418457" lon="-8.4466425"><ele>435.0</ele><time>2026-03-28T16:01:50.886Z</time></trkpt><trkpt lat="42.4185432" lon="-8.446646"><ele>435.0</ele><time>2026-03-28T16:01:52.884Z</time></trkpt><trkpt lat="42.4186146" lon="-8.4467182"><ele>435.0</ele><time>2026-03-28T16:01:54.887Z</time></trkpt><trkpt lat="42.4186584" lon="-8.4468302"><ele>435.0</ele><time>2026-03-28T16:01:56.896Z</time></trkpt><trkpt lat="42.4186738" lon="-8.446918"><ele>435.0</ele><time>2026-03-28T16:02:10.887Z</time></trkpt><trkpt lat="42.4186864" lon="-8.4470125"><ele>435.0</ele><time>2026-03-28T16:02:12.891Z</time></trkpt><trkpt lat="42.4187113" lon="-8.4471354"><ele>435.0</ele><time>2026-03-28T16:02:14.889Z</time></trkpt><trkpt lat="42.4187527" lon="-8.4472779"><ele>436.4</ele><time>2026-03-28T16:02:16.885Z</time></trkpt><trkpt lat="42.4188195" lon="-8.4473443"><ele>437.8</ele><time>2026-03-28T16:02:18.892Z</time></trkpt><trkpt lat="42.4188995" lon="-8.4473911"><ele>439.20000000000005</ele><time>2026-03-28T16:02:20.884Z</time></trkpt><trkpt lat="42.4189916" lon="-8.4474587"><ele>440.6</ele><time>2026-03-28T16:02:22.884Z</time></trkpt><trkpt lat="42.4191132" lon="-8.4474967"><ele>442.0</ele><time>2026-03-28T16:02:24.884Z</time></trkpt><trkpt lat="42.4192378" lon="-8.4475157"><ele>442.00000000000006</ele><time>2026-03-28T16:02:26.893Z</time></trkpt><trkpt lat="42.4193495" lon="-8.4475128"><ele>442.0</ele><time>2026-03-28T16:02:28.878Z</time></trkpt><trkpt lat="42.4194217" lon="-8.4475243"><ele>442.0</ele><time>2026-03-28T16:02:30.887Z</time></trkpt><trkpt lat="42.4194975" lon="-8.4475207"><ele>442.0</ele><time>2026-03-28T16:02:33.887Z</time></trkpt><trkpt lat="42.4195913" lon="-8.4474823"><ele>442.00000000000006</ele><time>2026-03-28T16:02:36.891Z</time></trkpt><trkpt lat="42.4196763" lon="-8.4474759"><ele>442.0</ele><time>2026-03-28T16:02:38.893Z</time></trkpt><trkpt lat="42.4197663" lon="-8.4474645"><ele>444.20000000000005</ele><time>2026-03-28T16:02:40.881Z</time></trkpt><trkpt lat="42.4198501" lon="-8.4474388"><ele>446.40000000000003</ele><time>2026-03-28T16:02:42.888Z</time></trkpt><trkpt lat="42.4199429" lon="-8.4474012"><ele>448.59999999999997</ele><time>2026-03-28T16:02:44.892Z</time></trkpt><trkpt lat="42.4200352" lon="-8.4473827"><ele>450.79999999999995</ele><time>2026-03-28T16:02:46.882Z</time></trkpt><trkpt lat="42.4201294" lon="-8.4473691"><ele>453.0</ele><time>2026-03-28T16:02:48.89Z</time></trkpt><trkpt lat="42.4202308" lon="-8.4473771"><ele>453.0</ele><time>2026-03-28T16:02:50.882Z</time></trkpt><trkpt lat="42.4203557" lon="-8.4473804"><ele>453.0</ele><time>2026-03-28T16:02:52.887Z</time></trkpt><trkpt lat="42.4204611" lon="-8.4474365"><ele>453.0</ele><time>2026-03-28T16:02:54.884Z</time></trkpt><trkpt lat="42.420538" lon="-8.4475507"><ele>453.0</ele><time>2026-03-28T16:02:56.884Z</time></trkpt><trkpt lat="42.4205989" lon="-8.4476956"><ele>454.6666666666667</ele><time>2026-03-28T16:02:58.881Z</time></trkpt><trkpt lat="42.4206547" lon="-8.4478133"><ele>456.33333333333337</ele><time>2026-03-28T16:03:00.894Z</time></trkpt><trkpt lat="42.4206883" lon="-8.4479031"><ele>458.0</ele><time>2026-03-28T16:03:09.895Z</time></trkpt><trkpt lat="42.4207072" lon="-8.4479909"><ele>459.6666666666667</ele><time>2026-03-28T16:03:11.886Z</time></trkpt><trkpt lat="42.4207428" lon="-8.4481201"><ele>461.33333333333337</ele><time>2026-03-28T16:03:13.882Z</time></trkpt><trkpt lat="42.4207794" lon="-8.4482425"><ele>463.0</ele><time>2026-03-28T16:03:15.893Z</time></trkpt><trkpt lat="42.4208432" lon="-8.4483584"><ele>464.79999999999995</ele><time>2026-03-28T16:03:17.892Z</time></trkpt><trkpt lat="42.4208855" lon="-8.448427"><ele>466.59999999999997</ele><time>2026-03-28T16:03:18.884Z</time></trkpt><trkpt lat="42.4209295" lon="-8.4485056"><ele>468.40000000000003</ele><time>2026-03-28T16:03:19.888Z</time></trkpt><trkpt lat="42.4209833" lon="-8.4486484"><ele>470.20000000000005</ele><time>2026-03-28T16:03:21.885Z</time></trkpt><trkpt lat="42.4210213" lon="-8.4487999"><ele>472.0</ele><time>2026-03-28T16:03:23.879Z</time></trkpt><trkpt lat="42.4210696" lon="-8.4489236"><ele>474.33333333333337</ele><time>2026-03-28T16:03:25.885Z</time></trkpt><trkpt lat="42.4211246" lon="-8.4490409"><ele>476.6666666666667</ele><time>2026-03-28T16:03:27.887Z</time></trkpt><trkpt lat="42.4211674" lon="-8.4491564"><ele>479.0</ele><time>2026-03-28T16:03:29.887Z</time></trkpt><trkpt lat="42.4212025" lon="-8.4492642"><ele>481.33333333333337</ele><time>2026-03-28T16:03:31.889Z</time></trkpt><trkpt lat="42.4212471" lon="-8.4493655"><ele>483.6666666666667</ele><time>2026-03-28T16:03:33.886Z</time></trkpt><trkpt lat="42.4212848" lon="-8.4494444"><ele>486.0</ele><time>2026-03-28T16:03:35.888Z</time></trkpt><trkpt lat="42.4213181" lon="-8.4495402"><ele>490.20000000000005</ele><time>2026-03-28T16:03:37.896Z</time></trkpt><trkpt lat="42.4213469" lon="-8.44967"><ele>494.40000000000003</ele><time>2026-03-28T16:03:39.883Z</time></trkpt><trkpt lat="42.4213596" lon="-8.4497658"><ele>498.6</ele><time>2026-03-28T16:03:41.885Z</time></trkpt><trkpt lat="42.421404" lon="-8.4498702"><ele>502.8</ele><time>2026-03-28T16:04:01.883Z</time></trkpt><trkpt lat="42.4214386" lon="-8.4499941"><ele>507.0</ele><time>2026-03-28T16:04:03.882Z</time></trkpt><trkpt lat="42.4214666" lon="-8.4501151"><ele>507.0</ele><time>2026-03-28T16:04:05.89Z</time></trkpt><trkpt lat="42.4214911" lon="-8.4502578"><ele>507.00000000000006</ele><time>2026-03-28T16:04:07.879Z</time></trkpt><trkpt lat="42.4215445" lon="-8.4504076"><ele>507.00000000000006</ele><time>2026-03-28T16:04:09.89Z</time></trkpt><trkpt lat="42.4215822" lon="-8.4504897"><ele>507.0</ele><time>2026-03-28T16:04:10.882Z</time></trkpt><trkpt lat="42.4216179" lon="-8.4505855"><ele>507.0</ele><time>2026-03-28T16:04:11.882Z</time></trkpt><trkpt lat="42.421649" lon="-8.4506814"><ele>508.1666666666667</ele><time>2026-03-28T16:04:12.889Z</time></trkpt><trkpt lat="42.4216808" lon="-8.450769"><ele>509.33333333333337</ele><time>2026-03-28T16:04:13.882Z</time></trkpt><trkpt lat="42.4217174" lon="-8.4508528"><ele>510.5</ele><time>2026-03-28T16:04:14.884Z</time></trkpt><trkpt lat="42.4217595" lon="-8.450947"><ele>511.6666666666667</ele><time>2026-03-28T16:04:15.877Z</time></trkpt><trkpt lat="42.4218069" lon="-8.4510566"><ele>512.8333333333334</ele><time>2026-03-28T16:04:16.887Z</time></trkpt><trkpt lat="42.421858" lon="-8.4511865"><ele>514.0</ele><time>2026-03-28T16:04:17.884Z</time></trkpt><trkpt lat="42.4219106" lon="-8.4513247"><ele>514.6</ele><time>2026-03-28T16:04:18.886Z</time></trkpt><trkpt lat="42.4219562" lon="-8.4514623"><ele>515.2</ele><time>2026-03-28T16:04:19.879Z</time></trkpt><trkpt lat="42.4220038" lon="-8.4515908"><ele>515.8000000000001</ele><time>2026-03-28T16:04:20.891Z</time></trkpt><trkpt lat="42.422045" lon="-8.4517118"><ele>516.4</ele><time>2026-03-28T16:04:21.884Z</time></trkpt><trkpt lat="42.4220842" lon="-8.4518172"><ele>517.0</ele><time>2026-03-28T16:04:22.884Z</time></trkpt><trkpt lat="42.4221154" lon="-8.4518948"><ele>518.3333333333334</ele><time>2026-03-28T16:04:23.879Z</time></trkpt><trkpt lat="42.4221646" lon="-8.4519875"><ele>519.6666666666667</ele><time>2026-03-28T16:04:28.891Z</time></trkpt><trkpt lat="42.4222346" lon="-8.45208"><ele>521.0</ele><time>2026-03-28T16:04:31.888Z</time></trkpt><trkpt lat="42.4222747" lon="-8.4521652"><ele>522.3333333333334</ele><time>2026-03-28T16:04:33.878Z</time></trkpt><trkpt lat="42.4223559" lon="-8.4521861"><ele>523.6666666666666</ele><time>2026-03-28T16:04:36.883Z</time></trkpt><trkpt lat="42.4224162" lon="-8.4521225"><ele>525.0</ele><time>2026-03-28T16:04:38.888Z</time></trkpt><trkpt lat="42.4224797" lon="-8.4520259"><ele>525.0</ele><time>2026-03-28T16:04:40.885Z</time></trkpt><trkpt lat="42.4225651" lon="-8.4519276"><ele>525.0</ele><time>2026-03-28T16:04:42.883Z</time></trkpt><trkpt lat="42.4226271" lon="-8.4518724"><ele>525.0</ele><time>2026-03-28T16:04:43.884Z</time></trkpt><trkpt lat="42.4226979" lon="-8.4518182"><ele>525.0</ele><time>2026-03-28T16:04:44.887Z</time></trkpt><trkpt lat="42.4227745" lon="-8.4517658"><ele>525.0</ele><time>2026-03-28T16:04:45.884Z</time></trkpt><trkpt lat="42.4228489" lon="-8.4517141"><ele>525.0</ele><time>2026-03-28T16:04:46.893Z</time></trkpt><trkpt lat="42.422926" lon="-8.4516617"><ele>526.0</ele><time>2026-03-28T16:04:47.881Z</time></trkpt><trkpt lat="42.4230058" lon="-8.4516091"><ele>527.0</ele><time>2026-03-28T16:04:48.885Z</time></trkpt><trkpt lat="42.4230803" lon="-8.4515541"><ele>528.0</ele><time>2026-03-28T16:04:49.883Z</time></trkpt><trkpt lat="42.4231536" lon="-8.4515033"><ele>529.0</ele><time>2026-03-28T16:04:50.892Z</time></trkpt><trkpt lat="42.4232239" lon="-8.451449"><ele>530.0</ele><time>2026-03-28T16:04:51.88Z</time></trkpt><trkpt lat="42.4232829" lon="-8.4513944"><ele>531.0</ele><time>2026-03-28T16:04:52.891Z</time></trkpt><trkpt lat="42.4233652" lon="-8.4513182"><ele>531.0</ele><time>2026-03-28T16:04:54.887Z</time></trkpt><trkpt lat="42.4234246" lon="-8.4512874"><ele>531.0</ele><time>2026-03-28T16:04:56.893Z</time></trkpt><trkpt lat="42.4234346" lon="-8.4513767"><ele>531.0</ele><time>2026-03-28T16:05:16.885Z</time></trkpt><trkpt lat="42.4235074" lon="-8.4514615"><ele>531.0</ele><time>2026-03-28T16:05:18.879Z</time></trkpt><trkpt lat="42.4236362" lon="-8.4515125"><ele>531.0</ele><time>2026-03-28T16:05:20.885Z</time></trkpt><trkpt lat="42.4237136" lon="-8.4515203"><ele>531.0</ele><time>2026-03-28T16:05:21.878Z</time></trkpt><trkpt lat="42.423788" lon="-8.4515216"><ele>532.3333333333334</ele><time>2026-03-28T16:05:22.882Z</time></trkpt><trkpt lat="42.4238583" lon="-8.4515197"><ele>533.6666666666666</ele><time>2026-03-28T16:05:23.883Z</time></trkpt><trkpt lat="42.4239271" lon="-8.4515212"><ele>535.0</ele><time>2026-03-28T16:05:24.893Z</time></trkpt><trkpt lat="42.4239917" lon="-8.4515273"><ele>536.3333333333333</ele><time>2026-03-28T16:05:25.887Z</time></trkpt><trkpt lat="42.4240575" lon="-8.4515351"><ele>537.6666666666666</ele><time>2026-03-28T16:05:26.886Z</time></trkpt><trkpt lat="42.4241219" lon="-8.4515448"><ele>539.0</ele><time>2026-03-28T16:05:27.886Z</time></trkpt><trkpt lat="42.4242413" lon="-8.4515686"><ele>539.0</ele><time>2026-03-28T16:05:29.885Z</time></trkpt><trkpt lat="42.4243597" lon="-8.4515943"><ele>539.0</ele><time>2026-03-28T16:05:31.886Z</time></trkpt><trkpt lat="42.4244765" lon="-8.45161"><ele>539.0</ele><time>2026-03-28T16:05:33.881Z</time></trkpt><trkpt lat="42.4245826" lon="-8.4516294"><ele>539.0</ele><time>2026-03-28T16:05:35.889Z</time></trkpt><trkpt lat="42.4247008" lon="-8.4516583"><ele>540.1428571428571</ele><time>2026-03-28T16:05:37.885Z</time></trkpt><trkpt lat="42.4248222" lon="-8.451684"><ele>541.2857142857142</ele><time>2026-03-28T16:05:39.883Z</time></trkpt><trkpt lat="42.4248845" lon="-8.4516982"><ele>542.4285714285714</ele><time>2026-03-28T16:05:40.882Z</time></trkpt><trkpt lat="42.4249472" lon="-8.451708"><ele>543.5714285714286</ele><time>2026-03-28T16:05:41.879Z</time></trkpt><trkpt lat="42.4250106" lon="-8.451719"><ele>544.7142857142857</ele><time>2026-03-28T16:05:42.888Z</time></trkpt><trkpt lat="42.4250753" lon="-8.4517371"><ele>545.8571428571429</ele><time>2026-03-28T16:05:43.889Z</time></trkpt><trkpt lat="42.4251397" lon="-8.4517619"><ele>547.0</ele><time>2026-03-28T16:05:44.885Z</time></trkpt><trkpt lat="42.425207" lon="-8.4517867"><ele>547.0</ele><time>2026-03-28T16:05:45.885Z</time></trkpt><trkpt lat="42.4252788" lon="-8.4518133"><ele>547.0</ele><time>2026-03-28T16:05:46.883Z</time></trkpt><trkpt lat="42.4253565" lon="-8.4518458"><ele>547.0</ele><time>2026-03-28T16:05:47.883Z</time></trkpt><trkpt lat="42.4254356" lon="-8.4518782"><ele>547.0</ele><time>2026-03-28T16:05:48.881Z</time></trkpt><trkpt lat="42.4255287" lon="-8.4519219"><ele>547.0</ele><time>2026-03-28T16:05:49.883Z</time></trkpt><trkpt lat="42.4256247" lon="-8.4519606"><ele>547.0</ele><time>2026-03-28T16:05:50.884Z</time></trkpt><trkpt lat="42.4257197" lon="-8.4519872"><ele>547.8333333333334</ele><time>2026-03-28T16:05:51.891Z</time></trkpt><trkpt lat="42.4258104" lon="-8.4520064"><ele>548.6666666666667</ele><time>2026-03-28T16:05:52.884Z</time></trkpt><trkpt lat="42.425896" lon="-8.4520182"><ele>549.5</ele><time>2026-03-28T16:05:53.887Z</time></trkpt><trkpt lat="42.4259751" lon="-8.4520316"><ele>550.3333333333334</ele><time>2026-03-28T16:05:54.889Z</time></trkpt><trkpt lat="42.4260496" lon="-8.4520469"><ele>551.1666666666666</ele><time>2026-03-28T16:05:55.887Z</time></trkpt><trkpt lat="42.4261262" lon="-8.4520598"><ele>552.0</ele><time>2026-03-28T16:05:56.882Z</time></trkpt><trkpt lat="42.4262034" lon="-8.45207"><ele>552.0</ele><time>2026-03-28T16:05:57.885Z</time></trkpt><trkpt lat="42.4262869" lon="-8.4520767"><ele>552.0</ele><time>2026-03-28T16:05:58.882Z</time></trkpt><trkpt lat="42.426376" lon="-8.4520758"><ele>552.0</ele><time>2026-03-28T16:05:59.889Z</time></trkpt><trkpt lat="42.4264692" lon="-8.4520807"><ele>552.0</ele><time>2026-03-28T16:06:00.88Z</time></trkpt><trkpt lat="42.4265595" lon="-8.4520866"><ele>552.0</ele><time>2026-03-28T16:06:01.885Z</time></trkpt><trkpt lat="42.4266498" lon="-8.4520918"><ele>552.0</ele><time>2026-03-28T16:06:02.887Z</time></trkpt><trkpt lat="42.4267389" lon="-8.4520963"><ele>552.4</ele><time>2026-03-28T16:06:03.884Z</time></trkpt><trkpt lat="42.4268241" lon="-8.4521055"><ele>552.8000000000001</ele><time>2026-03-28T16:06:04.885Z</time></trkpt><trkpt lat="42.4269135" lon="-8.452113"><ele>553.2</ele><time>2026-03-28T16:06:05.878Z</time></trkpt><trkpt lat="42.4270109" lon="-8.4521209"><ele>553.6</ele><time>2026-03-28T16:06:06.886Z</time></trkpt><trkpt lat="42.4271131" lon="-8.4521255"><ele>554.0</ele><time>2026-03-28T16:06:07.883Z</time></trkpt><trkpt lat="42.4272169" lon="-8.4521355"><ele>554.8</ele><time>2026-03-28T16:06:08.885Z</time></trkpt><trkpt lat="42.427319" lon="-8.4521509"><ele>555.5999999999999</ele><time>2026-03-28T16:06:09.897Z</time></trkpt><trkpt lat="42.427419" lon="-8.4521719"><ele>556.4</ele><time>2026-03-28T16:06:10.892Z</time></trkpt><trkpt lat="42.4275159" lon="-8.4521924"><ele>557.1999999999999</ele><time>2026-03-28T16:06:11.883Z</time></trkpt><trkpt lat="42.4276158" lon="-8.4522093"><ele>558.0</ele><time>2026-03-28T16:06:12.896Z</time></trkpt><trkpt lat="42.4277187" lon="-8.4522197"><ele>558.0</ele><time>2026-03-28T16:06:13.888Z</time></trkpt><trkpt lat="42.4278319" lon="-8.452223"><ele>558.0</ele><time>2026-03-28T16:06:14.882Z</time></trkpt><trkpt lat="42.4279525" lon="-8.4522201"><ele>558.0</ele><time>2026-03-28T16:06:15.89Z</time></trkpt><trkpt lat="42.4280667" lon="-8.4522172"><ele>558.0</ele><time>2026-03-28T16:06:16.885Z</time></trkpt><trkpt lat="42.4281773" lon="-8.452214"><ele>557.3333333333334</ele><time>2026-03-28T16:06:17.893Z</time></trkpt><trkpt lat="42.428275" lon="-8.4522089"><ele>556.6666666666666</ele><time>2026-03-28T16:06:18.885Z</time></trkpt><trkpt lat="42.4283523" lon="-8.452199"><ele>556.0</ele><time>2026-03-28T16:06:19.883Z</time></trkpt><trkpt lat="42.428448" lon="-8.4521627"><ele>555.3333333333333</ele><time>2026-03-28T16:06:21.89Z</time></trkpt><trkpt lat="42.4285155" lon="-8.4521239"><ele>554.6666666666666</ele><time>2026-03-28T16:06:23.884Z</time></trkpt><trkpt lat="42.4286081" lon="-8.4520989"><ele>554.0</ele><time>2026-03-28T16:06:25.884Z</time></trkpt><trkpt lat="42.4287353" lon="-8.4520604"><ele>553.0</ele><time>2026-03-28T16:06:27.884Z</time></trkpt><trkpt lat="42.4288101" lon="-8.4520262"><ele>552.0</ele><time>2026-03-28T16:06:28.883Z</time></trkpt><trkpt lat="42.428893" lon="-8.4519908"><ele>551.0</ele><time>2026-03-28T16:06:29.888Z</time></trkpt><trkpt lat="42.4289837" lon="-8.4519583"><ele>550.0</ele><time>2026-03-28T16:06:30.886Z</time></trkpt><trkpt lat="42.4290776" lon="-8.4519248"><ele>549.0</ele><time>2026-03-28T16:06:31.888Z</time></trkpt><trkpt lat="42.4291711" lon="-8.4518914"><ele>549.0</ele><time>2026-03-28T16:06:32.892Z</time></trkpt><trkpt lat="42.4292628" lon="-8.4518615"><ele>549.0</ele><time>2026-03-28T16:06:33.883Z</time></trkpt><trkpt lat="42.4293568" lon="-8.4518345"><ele>549.0</ele><time>2026-03-28T16:06:34.886Z</time></trkpt><trkpt lat="42.4294456" lon="-8.4518127"><ele>549.0</ele><time>2026-03-28T16:06:35.896Z</time></trkpt><trkpt lat="42.4295283" lon="-8.4517968"><ele>549.0</ele><time>2026-03-28T16:06:36.883Z</time></trkpt><trkpt lat="42.4296103" lon="-8.4517812"><ele>549.0</ele><time>2026-03-28T16:06:37.894Z</time></trkpt><trkpt lat="42.4296925" lon="-8.4517685"><ele>549.1666666666666</ele><time>2026-03-28T16:06:38.893Z</time></trkpt><trkpt lat="42.4297776" lon="-8.4517599"><ele>549.3333333333334</ele><time>2026-03-28T16:06:39.881Z</time></trkpt><trkpt lat="42.4298604" lon="-8.4517445"><ele>549.5</ele><time>2026-03-28T16:06:40.883Z</time></trkpt><trkpt lat="42.4299406" lon="-8.4517209"><ele>549.6666666666667</ele><time>2026-03-28T16:06:41.892Z</time></trkpt><trkpt lat="42.4300264" lon="-8.4516933"><ele>549.8333333333334</ele><time>2026-03-28T16:06:42.893Z</time></trkpt><trkpt lat="42.4301127" lon="-8.4516627"><ele>550.0</ele><time>2026-03-28T16:06:43.885Z</time></trkpt><trkpt lat="42.4302089" lon="-8.4516244"><ele>550.0</ele><time>2026-03-28T16:06:44.88Z</time></trkpt><trkpt lat="42.430312" lon="-8.4515724"><ele>550.0</ele><time>2026-03-28T16:06:45.887Z</time></trkpt><trkpt lat="42.4304133" lon="-8.4515197"><ele>550.0</ele><time>2026-03-28T16:06:46.882Z</time></trkpt><trkpt lat="42.4305124" lon="-8.4514665"><ele>550.0</ele><time>2026-03-28T16:06:47.885Z</time></trkpt><trkpt lat="42.4306072" lon="-8.4514193"><ele>550.0</ele><time>2026-03-28T16:06:48.889Z</time></trkpt><trkpt lat="42.4306952" lon="-8.4513795"><ele>550.6</ele><time>2026-03-28T16:06:49.891Z</time></trkpt><trkpt lat="42.4307781" lon="-8.4513439"><ele>551.2</ele><time>2026-03-28T16:06:50.891Z</time></trkpt><trkpt lat="42.4308488" lon="-8.4513158"><ele>551.8</ele><time>2026-03-28T16:06:51.891Z</time></trkpt><trkpt lat="42.4309602" lon="-8.4513006"><ele>552.4</ele><time>2026-03-28T16:06:53.881Z</time></trkpt><trkpt lat="42.4310528" lon="-8.4513981"><ele>553.0</ele><time>2026-03-28T16:06:55.883Z</time></trkpt><trkpt lat="42.4311133" lon="-8.4514899"><ele>553.0</ele><time>2026-03-28T16:06:56.886Z</time></trkpt><trkpt lat="42.4311759" lon="-8.4515976"><ele>553.0</ele><time>2026-03-28T16:06:57.887Z</time></trkpt><trkpt lat="42.4312294" lon="-8.4516952"><ele>553.0</ele><time>2026-03-28T16:06:58.883Z</time></trkpt><trkpt lat="42.4312849" lon="-8.4517882"><ele>553.0</ele><time>2026-03-28T16:06:59.879Z</time></trkpt><trkpt lat="42.4313371" lon="-8.4518801"><ele>553.0</ele><time>2026-03-28T16:07:00.878Z</time></trkpt><trkpt lat="42.4313856" lon="-8.4519646"><ele>553.0</ele><time>2026-03-28T16:07:01.881Z</time></trkpt><trkpt lat="42.431434" lon="-8.4520436"><ele>552.0</ele><time>2026-03-28T16:07:02.897Z</time></trkpt><trkpt lat="42.4314835" lon="-8.4521171"><ele>551.0</ele><time>2026-03-28T16:07:03.891Z</time></trkpt><trkpt lat="42.4315268" lon="-8.4521877"><ele>550.0</ele><time>2026-03-28T16:07:04.888Z</time></trkpt><trkpt lat="42.4315692" lon="-8.4523417"><ele>549.0</ele><time>2026-03-28T16:07:06.885Z</time></trkpt><trkpt lat="42.4315722" lon="-8.4524288"><ele>548.0</ele><time>2026-03-28T16:07:07.885Z</time></trkpt><trkpt lat="42.4315686" lon="-8.4525899"><ele>547.0</ele><time>2026-03-28T16:07:09.89Z</time></trkpt><trkpt lat="42.4316311" lon="-8.4527262"><ele>546.1428571428571</ele><time>2026-03-28T16:07:11.877Z</time></trkpt><trkpt lat="42.4316768" lon="-8.4527983"><ele>545.2857142857142</ele><time>2026-03-28T16:07:12.889Z</time></trkpt><trkpt lat="42.4317259" lon="-8.4528675"><ele>544.4285714285714</ele><time>2026-03-28T16:07:13.889Z</time></trkpt><trkpt lat="42.4317795" lon="-8.4529314"><ele>543.5714285714286</ele><time>2026-03-28T16:07:14.883Z</time></trkpt><trkpt lat="42.4318358" lon="-8.4529957"><ele>542.7142857142858</ele><time>2026-03-28T16:07:15.886Z</time></trkpt><trkpt lat="42.4318939" lon="-8.4530625"><ele>541.8571428571429</ele><time>2026-03-28T16:07:16.883Z</time></trkpt><trkpt lat="42.4319477" lon="-8.4531227"><ele>541.0</ele><time>2026-03-28T16:07:17.891Z</time></trkpt><trkpt lat="42.4320355" lon="-8.4532246"><ele>538.4</ele><time>2026-03-28T16:07:19.882Z</time></trkpt><trkpt lat="42.4321103" lon="-8.4532976"><ele>535.8</ele><time>2026-03-28T16:07:21.879Z</time></trkpt><trkpt lat="42.4321853" lon="-8.4533687"><ele>533.1999999999999</ele><time>2026-03-28T16:07:23.884Z</time></trkpt><trkpt lat="42.4322614" lon="-8.4534614"><ele>530.6</ele><time>2026-03-28T16:07:25.884Z</time></trkpt><trkpt lat="42.4323251" lon="-8.4535668"><ele>528.0</ele><time>2026-03-28T16:07:27.895Z</time></trkpt><trkpt lat="42.4323856" lon="-8.4536868"><ele>524.3333333333334</ele><time>2026-03-28T16:07:29.878Z</time></trkpt><trkpt lat="42.4324565" lon="-8.453803"><ele>520.6666666666666</ele><time>2026-03-28T16:07:31.88Z</time></trkpt><trkpt lat="42.4324998" lon="-8.4538669"><ele>517.0</ele><time>2026-03-28T16:07:32.884Z</time></trkpt><trkpt lat="42.4325497" lon="-8.4539304"><ele>513.3333333333333</ele><time>2026-03-28T16:07:33.888Z</time></trkpt><trkpt lat="42.4326013" lon="-8.454001"><ele>509.66666666666663</ele><time>2026-03-28T16:07:34.88Z</time></trkpt><trkpt lat="42.4326536" lon="-8.4540771"><ele>506.0</ele><time>2026-03-28T16:07:35.889Z</time></trkpt><trkpt lat="42.432704" lon="-8.4541618"><ele>505.99999999999994</ele><time>2026-03-28T16:07:36.88Z</time></trkpt><trkpt lat="42.4327568" lon="-8.4542448"><ele>506.0</ele><time>2026-03-28T16:07:37.893Z</time></trkpt><trkpt lat="42.4328202" lon="-8.4543229"><ele>506.0</ele><time>2026-03-28T16:07:38.888Z</time></trkpt><trkpt lat="42.4328785" lon="-8.4543946"><ele>506.0</ele><time>2026-03-28T16:07:39.882Z</time></trkpt><trkpt lat="42.4329266" lon="-8.4544594"><ele>505.99999999999994</ele><time>2026-03-28T16:07:40.885Z</time></trkpt><trkpt lat="42.4330047" lon="-8.4545552"><ele>506.0</ele><time>2026-03-28T16:07:42.882Z</time></trkpt><trkpt lat="42.4330761" lon="-8.4545221"><ele>505.49999999999994</ele><time>2026-03-28T16:07:45.879Z</time></trkpt><trkpt lat="42.433119" lon="-8.4543598"><ele>505.0</ele><time>2026-03-28T16:07:47.882Z</time></trkpt><trkpt lat="42.4331337" lon="-8.4542761"><ele>504.5</ele><time>2026-03-28T16:07:48.877Z</time></trkpt><trkpt lat="42.4331389" lon="-8.4541844"><ele>504.0</ele><time>2026-03-28T16:07:49.894Z</time></trkpt><trkpt lat="42.4331571" lon="-8.4540473"><ele>503.49999999999994</ele><time>2026-03-28T16:07:51.882Z</time></trkpt><trkpt lat="42.4331553" lon="-8.4539421"><ele>503.0</ele><time>2026-03-28T16:07:53.89Z</time></trkpt><trkpt lat="42.4331505" lon="-8.4538504"><ele>503.28571428571433</ele><time>2026-03-28T16:07:55.878Z</time></trkpt><trkpt lat="42.4331418" lon="-8.4537654"><ele>503.5714285714286</ele><time>2026-03-28T16:07:57.89Z</time></trkpt><trkpt lat="42.4331529" lon="-8.4536787"><ele>503.8571428571429</ele><time>2026-03-28T16:08:00.879Z</time></trkpt><trkpt lat="42.4331484" lon="-8.45358"><ele>504.1428571428571</ele><time>2026-03-28T16:08:03.888Z</time></trkpt><trkpt lat="42.4331467" lon="-8.4534493"><ele>504.4285714285714</ele><time>2026-03-28T16:08:06.887Z</time></trkpt><trkpt lat="42.4331499" lon="-8.4533556"><ele>504.71428571428567</ele><time>2026-03-28T16:08:08.886Z</time></trkpt><trkpt lat="42.4331367" lon="-8.4532643"><ele>505.0</ele><time>2026-03-28T16:08:10.88Z</time></trkpt><trkpt lat="42.4331067" lon="-8.4531459"><ele>505.00000000000006</ele><time>2026-03-28T16:08:13.888Z</time></trkpt><trkpt lat="42.4330809" lon="-8.4530207"><ele>505.0</ele><time>2026-03-28T16:08:16.882Z</time></trkpt><trkpt lat="42.4330384" lon="-8.4529173"><ele>505.0</ele><time>2026-03-28T16:08:19.885Z</time></trkpt><trkpt lat="42.4330393" lon="-8.4528064"><ele>505.0</ele><time>2026-03-28T16:08:22.886Z</time></trkpt><trkpt lat="42.4330414" lon="-8.4527177"><ele>505.00000000000006</ele><time>2026-03-28T16:08:24.883Z</time></trkpt><trkpt lat="42.4330813" lon="-8.4526331"><ele>505.0</ele><time>2026-03-28T16:08:27.882Z</time></trkpt><trkpt lat="42.4331478" lon="-8.4525955"><ele>505.71428571428567</ele><time>2026-03-28T16:08:30.882Z</time></trkpt><trkpt lat="42.4331929" lon="-8.4525253"><ele>506.4285714285714</ele><time>2026-03-28T16:08:34.885Z</time></trkpt><trkpt lat="42.4332369" lon="-8.4524462"><ele>507.1428571428571</ele><time>2026-03-28T16:08:38.886Z</time></trkpt><trkpt lat="42.4332929" lon="-8.4523917"><ele>507.8571428571429</ele><time>2026-03-28T16:08:42.883Z</time></trkpt><trkpt lat="42.4333639" lon="-8.4523849"><ele>508.5714285714286</ele><time>2026-03-28T16:08:47.879Z</time></trkpt><trkpt lat="42.4334259" lon="-8.4524072"><ele>509.28571428571433</ele><time>2026-03-28T16:08:55.892Z</time></trkpt><trkpt lat="42.4334892" lon="-8.4524184"><ele>510.0</ele><time>2026-03-28T16:08:59.887Z</time></trkpt><trkpt lat="42.4335369" lon="-8.4524761"><ele>510.0</ele><time>2026-03-28T16:09:07.893Z</time></trkpt><trkpt lat="42.4336016" lon="-8.4525074"><ele>510.0</ele><time>2026-03-28T16:09:17.889Z</time></trkpt><trkpt lat="42.4336766" lon="-8.4524989"><ele>510.0</ele><time>2026-03-28T16:09:21.885Z</time></trkpt><trkpt lat="42.4337663" lon="-8.4524705"><ele>510.0</ele><time>2026-03-28T16:09:24.885Z</time></trkpt><trkpt lat="42.4338319" lon="-8.4524601"><ele>510.0</ele><time>2026-03-28T16:09:27.881Z</time></trkpt><trkpt lat="42.4339101" lon="-8.4524446"><ele>510.0</ele><time>2026-03-28T16:09:30.884Z</time></trkpt><trkpt lat="42.4339964" lon="-8.4524479"><ele>509.0</ele><time>2026-03-28T16:09:33.883Z</time></trkpt><trkpt lat="42.4340893" lon="-8.4524959"><ele>508.0</ele><time>2026-03-28T16:09:37.889Z</time></trkpt><trkpt lat="42.4341477" lon="-8.4525542"><ele>507.0</ele><time>2026-03-28T16:09:39.884Z</time></trkpt><trkpt lat="42.4341928" lon="-8.4526151"><ele>506.0</ele><time>2026-03-28T16:09:41.879Z</time></trkpt><trkpt lat="42.4342352" lon="-8.4526925"><ele>505.0</ele><time>2026-03-28T16:09:43.876Z</time></trkpt><trkpt lat="42.4342781" lon="-8.4527617"><ele>504.0</ele><time>2026-03-28T16:09:46.886Z</time></trkpt><trkpt lat="42.4343532" lon="-8.452804"><ele>504.0</ele><time>2026-03-28T16:09:49.888Z</time></trkpt><trkpt lat="42.4343996" lon="-8.4528802"><ele>504.0</ele><time>2026-03-28T16:09:52.882Z</time></trkpt><trkpt lat="42.4344692" lon="-8.4529293"><ele>504.0</ele><time>2026-03-28T16:09:56.884Z</time></trkpt><trkpt lat="42.4345431" lon="-8.4529878"><ele>504.0</ele><time>2026-03-28T16:09:59.882Z</time></trkpt><trkpt lat="42.4346068" lon="-8.4530222"><ele>504.0</ele><time>2026-03-28T16:10:03.881Z</time></trkpt><trkpt lat="42.4346909" lon="-8.4530455"><ele>504.0</ele><time>2026-03-28T16:10:06.881Z</time></trkpt><trkpt lat="42.4347564" lon="-8.4530889"><ele>502.6666666666667</ele><time>2026-03-28T16:10:10.883Z</time></trkpt><trkpt lat="42.4348413" lon="-8.4530953"><ele>501.33333333333337</ele><time>2026-03-28T16:10:13.884Z</time></trkpt><trkpt lat="42.4349092" lon="-8.4530865"><ele>500.0</ele><time>2026-03-28T16:10:15.885Z</time></trkpt><trkpt lat="42.434992" lon="-8.4531067"><ele>498.6666666666667</ele><time>2026-03-28T16:10:17.878Z</time></trkpt><trkpt lat="42.4350681" lon="-8.4531505"><ele>497.33333333333337</ele><time>2026-03-28T16:10:19.884Z</time></trkpt><trkpt lat="42.435154" lon="-8.4531882"><ele>496.0</ele><time>2026-03-28T16:10:21.882Z</time></trkpt><trkpt lat="42.4352301" lon="-8.4532087"><ele>496.00000000000006</ele><time>2026-03-28T16:10:23.881Z</time></trkpt><trkpt lat="42.4353231" lon="-8.4532434"><ele>496.0</ele><time>2026-03-28T16:10:26.889Z</time></trkpt><trkpt lat="42.4354063" lon="-8.4532643"><ele>496.0</ele><time>2026-03-28T16:10:28.885Z</time></trkpt><trkpt lat="42.435486" lon="-8.4532584"><ele>496.0</ele><time>2026-03-28T16:10:30.886Z</time></trkpt><trkpt lat="42.4355639" lon="-8.4532651"><ele>496.00000000000006</ele><time>2026-03-28T16:10:32.881Z</time></trkpt><trkpt lat="42.4356357" lon="-8.4532656"><ele>496.0</ele><time>2026-03-28T16:10:34.889Z</time></trkpt><trkpt lat="42.4357344" lon="-8.4532752"><ele>494.50000000000006</ele><time>2026-03-28T16:10:37.892Z</time></trkpt><trkpt lat="42.4358118" lon="-8.4532905"><ele>493.0</ele><time>2026-03-28T16:10:39.885Z</time></trkpt><trkpt lat="42.4359084" lon="-8.4533077"><ele>491.5</ele><time>2026-03-28T16:10:41.883Z</time></trkpt><trkpt lat="42.4360126" lon="-8.4532914"><ele>490.0</ele><time>2026-03-28T16:10:43.882Z</time></trkpt><trkpt lat="42.4360767" lon="-8.4532753"><ele>488.50000000000006</ele><time>2026-03-28T16:10:44.886Z</time></trkpt><trkpt lat="42.436153" lon="-8.4532596"><ele>487.0</ele><time>2026-03-28T16:10:45.883Z</time></trkpt><trkpt lat="42.4362321" lon="-8.4532395"><ele>485.50000000000006</ele><time>2026-03-28T16:10:46.895Z</time></trkpt><trkpt lat="42.4363148" lon="-8.4532186"><ele>484.0</ele><time>2026-03-28T16:10:47.879Z</time></trkpt><trkpt lat="42.4364019" lon="-8.4531832"><ele>482.5</ele><time>2026-03-28T16:10:48.882Z</time></trkpt><trkpt lat="42.4364855" lon="-8.4531341"><ele>481.0</ele><time>2026-03-28T16:10:49.891Z</time></trkpt><trkpt lat="42.4365617" lon="-8.4530796"><ele>479.50000000000006</ele><time>2026-03-28T16:10:50.879Z</time></trkpt><trkpt lat="42.4366205" lon="-8.4530286"><ele>478.0</ele><time>2026-03-28T16:10:51.892Z</time></trkpt><trkpt lat="42.4366764" lon="-8.4529832"><ele>478.00000000000006</ele><time>2026-03-28T16:10:52.88Z</time></trkpt><trkpt lat="42.4367751" lon="-8.4529288"><ele>478.0</ele><time>2026-03-28T16:10:54.887Z</time></trkpt><trkpt lat="42.436864" lon="-8.4529108"><ele>478.0</ele><time>2026-03-28T16:10:56.887Z</time></trkpt><trkpt lat="42.4369303" lon="-8.4529522"><ele>478.0</ele><time>2026-03-28T16:10:58.884Z</time></trkpt><trkpt lat="42.436994" lon="-8.4530218"><ele>478.00000000000006</ele><time>2026-03-28T16:11:01.886Z</time></trkpt><trkpt lat="42.4370426" lon="-8.453097"><ele>478.0</ele><time>2026-03-28T16:11:05.887Z</time></trkpt><trkpt lat="42.4370931" lon="-8.453212"><ele>477.1666666666667</ele><time>2026-03-28T16:11:08.882Z</time></trkpt><trkpt lat="42.4371417" lon="-8.4533255"><ele>476.33333333333337</ele><time>2026-03-28T16:11:10.895Z</time></trkpt><trkpt lat="42.4371806" lon="-8.453416"><ele>475.5</ele><time>2026-03-28T16:11:11.887Z</time></trkpt><trkpt lat="42.4372218" lon="-8.4535004"><ele>474.66666666666663</ele><time>2026-03-28T16:11:12.881Z</time></trkpt><trkpt lat="42.4372705" lon="-8.4535899"><ele>473.8333333333333</ele><time>2026-03-28T16:11:13.88Z</time></trkpt><trkpt lat="42.4373458" lon="-8.45367"><ele>473.0</ele><time>2026-03-28T16:11:14.891Z</time></trkpt><trkpt lat="42.4374106" lon="-8.4537376"><ele>471.8571428571429</ele><time>2026-03-28T16:11:15.89Z</time></trkpt><trkpt lat="42.4374676" lon="-8.4538023"><ele>470.71428571428567</ele><time>2026-03-28T16:11:16.883Z</time></trkpt><trkpt lat="42.4375226" lon="-8.4538647"><ele>469.57142857142856</ele><time>2026-03-28T16:11:17.883Z</time></trkpt><trkpt lat="42.4375913" lon="-8.4538945"><ele>468.42857142857144</ele><time>2026-03-28T16:11:18.893Z</time></trkpt><trkpt lat="42.4376561" lon="-8.4539137"><ele>467.28571428571433</ele><time>2026-03-28T16:11:19.889Z</time></trkpt><trkpt lat="42.4377259" lon="-8.4539285"><ele>466.1428571428571</ele><time>2026-03-28T16:11:20.884Z</time></trkpt><trkpt lat="42.4378034" lon="-8.453937"><ele>465.0</ele><time>2026-03-28T16:11:21.878Z</time></trkpt><trkpt lat="42.4378982" lon="-8.4539403"><ele>462.0</ele><time>2026-03-28T16:11:22.886Z</time></trkpt><trkpt lat="42.4380052" lon="-8.4539336"><ele>459.0</ele><time>2026-03-28T16:11:23.886Z</time></trkpt><trkpt lat="42.4381202" lon="-8.4539206"><ele>456.0</ele><time>2026-03-28T16:11:24.894Z</time></trkpt><trkpt lat="42.4382375" lon="-8.4539049"><ele>453.0</ele><time>2026-03-28T16:11:25.887Z</time></trkpt><trkpt lat="42.438359" lon="-8.4538931"><ele>453.0</ele><time>2026-03-28T16:11:26.881Z</time></trkpt><trkpt lat="42.4384819" lon="-8.4538928"><ele>453.0</ele><time>2026-03-28T16:11:27.885Z</time></trkpt><trkpt lat="42.4386027" lon="-8.4539026"><ele>453.0</ele><time>2026-03-28T16:11:28.886Z</time></trkpt><trkpt lat="42.4387067" lon="-8.4539165"><ele>453.0</ele><time>2026-03-28T16:11:29.884Z</time></trkpt><trkpt lat="42.4388078" lon="-8.4539517"><ele>452.2</ele><time>2026-03-28T16:11:30.883Z</time></trkpt><trkpt lat="42.438908" lon="-8.4539867"><ele>451.4</ele><time>2026-03-28T16:11:31.882Z</time></trkpt><trkpt lat="42.4390096" lon="-8.4540121"><ele>450.59999999999997</ele><time>2026-03-28T16:11:32.884Z</time></trkpt><trkpt lat="42.4390991" lon="-8.4540092"><ele>449.79999999999995</ele><time>2026-03-28T16:11:33.881Z</time></trkpt><trkpt lat="42.439195" lon="-8.4539938"><ele>449.0</ele><time>2026-03-28T16:11:34.892Z</time></trkpt><trkpt lat="42.4392895" lon="-8.4539727"><ele>449.0</ele><time>2026-03-28T16:11:35.882Z</time></trkpt><trkpt lat="42.4393809" lon="-8.4539442"><ele>449.0</ele><time>2026-03-28T16:11:36.885Z</time></trkpt><trkpt lat="42.4394737" lon="-8.4539181"><ele>449.0</ele><time>2026-03-28T16:11:37.885Z</time></trkpt><trkpt lat="42.4395608" lon="-8.4538908"><ele>449.0</ele><time>2026-03-28T16:11:38.882Z</time></trkpt><trkpt lat="42.4396504" lon="-8.4538781"><ele>449.0</ele><time>2026-03-28T16:11:39.89Z</time></trkpt><trkpt lat="42.4397365" lon="-8.4538931"><ele>448.16666666666663</ele><time>2026-03-28T16:11:40.883Z</time></trkpt><trkpt lat="42.4398185" lon="-8.4539267"><ele>447.3333333333333</ele><time>2026-03-28T16:11:41.883Z</time></trkpt><trkpt lat="42.4399037" lon="-8.4539616"><ele>446.5</ele><time>2026-03-28T16:11:42.882Z</time></trkpt><trkpt lat="42.4399888" lon="-8.4540083"><ele>445.66666666666663</ele><time>2026-03-28T16:11:43.878Z</time></trkpt><trkpt lat="42.4400713" lon="-8.4540651"><ele>444.8333333333333</ele><time>2026-03-28T16:11:44.884Z</time></trkpt><trkpt lat="42.4401393" lon="-8.4541169"><ele>444.0</ele><time>2026-03-28T16:11:45.883Z</time></trkpt><trkpt lat="42.4402017" lon="-8.4541676"><ele>444.0</ele><time>2026-03-28T16:11:46.881Z</time></trkpt><trkpt lat="42.4402611" lon="-8.4542246"><ele>444.0</ele><time>2026-03-28T16:11:47.883Z</time></trkpt><trkpt lat="42.4403204" lon="-8.4542918"><ele>444.0</ele><time>2026-03-28T16:11:48.885Z</time></trkpt><trkpt lat="42.4403767" lon="-8.4543725"><ele>444.0</ele><time>2026-03-28T16:11:49.881Z</time></trkpt><trkpt lat="42.4404171" lon="-8.454469"><ele>444.0</ele><time>2026-03-28T16:11:50.887Z</time></trkpt><trkpt lat="42.4404407" lon="-8.4545807"><ele>444.0</ele><time>2026-03-28T16:11:51.894Z</time></trkpt><trkpt lat="42.4404499" lon="-8.4546974"><ele>442.6</ele><time>2026-03-28T16:11:52.887Z</time></trkpt><trkpt lat="42.440447" lon="-8.4548339"><ele>441.2</ele><time>2026-03-28T16:11:53.886Z</time></trkpt><trkpt lat="42.440447" lon="-8.4549772"><ele>439.80000000000007</ele><time>2026-03-28T16:11:54.878Z</time></trkpt><trkpt lat="42.4404367" lon="-8.4551158"><ele>438.40000000000003</ele><time>2026-03-28T16:11:55.891Z</time></trkpt><trkpt lat="42.4404299" lon="-8.4552497"><ele>437.0</ele><time>2026-03-28T16:11:56.882Z</time></trkpt><trkpt lat="42.4404205" lon="-8.4553809"><ele>437.49999999999994</ele><time>2026-03-28T16:11:57.887Z</time></trkpt><trkpt lat="42.440408" lon="-8.455514"><ele>438.0</ele><time>2026-03-28T16:11:58.884Z</time></trkpt><trkpt lat="42.4403939" lon="-8.455642"><ele>438.5</ele><time>2026-03-28T16:11:59.886Z</time></trkpt><trkpt lat="42.4403854" lon="-8.4557397"><ele>439.0</ele><time>2026-03-28T16:12:00.883Z</time></trkpt><trkpt lat="42.4403848" lon="-8.4558667"><ele>439.49999999999994</ele><time>2026-03-28T16:12:02.891Z</time></trkpt><trkpt lat="42.4404309" lon="-8.4559693"><ele>440.0</ele><time>2026-03-28T16:12:05.886Z</time></trkpt><trkpt lat="42.4404954" lon="-8.4560601"><ele>441.49999999999994</ele><time>2026-03-28T16:12:07.885Z</time></trkpt><trkpt lat="42.4405461" lon="-8.4561118"><ele>443.0</ele><time>2026-03-28T16:12:08.887Z</time></trkpt><trkpt lat="42.4406357" lon="-8.4561932"><ele>444.5</ele><time>2026-03-28T16:12:10.889Z</time></trkpt><trkpt lat="42.4407428" lon="-8.4562136"><ele>446.0</ele><time>2026-03-28T16:12:13.883Z</time></trkpt><trkpt lat="42.4407994" lon="-8.4562544"><ele>447.49999999999994</ele><time>2026-03-28T16:12:19.88Z</time></trkpt><trkpt lat="42.440866" lon="-8.4563545"><ele>449.0</ele><time>2026-03-28T16:12:36.885Z</time></trkpt><trkpt lat="42.4409151" lon="-8.4564131"><ele>449.3333333333333</ele><time>2026-03-28T16:12:37.88Z</time></trkpt><trkpt lat="42.440974" lon="-8.4564871"><ele>449.66666666666663</ele><time>2026-03-28T16:12:38.884Z</time></trkpt><trkpt lat="42.4410139" lon="-8.4565885"><ele>450.0</ele><time>2026-03-28T16:12:39.89Z</time></trkpt><trkpt lat="42.4410222" lon="-8.4567172"><ele>450.33333333333337</ele><time>2026-03-28T16:12:40.886Z</time></trkpt><trkpt lat="42.4409916" lon="-8.4568341"><ele>450.6666666666667</ele><time>2026-03-28T16:12:41.882Z</time></trkpt><trkpt lat="42.440948" lon="-8.4569238"><ele>451.0</ele><time>2026-03-28T16:12:42.888Z</time></trkpt><trkpt lat="42.4408924" lon="-8.456989"><ele>451.00000000000006</ele><time>2026-03-28T16:12:43.879Z</time></trkpt><trkpt lat="42.4408268" lon="-8.4570462"><ele>451.0</ele><time>2026-03-28T16:12:44.887Z</time></trkpt><trkpt lat="42.4407572" lon="-8.4570927"><ele>451.0</ele><time>2026-03-28T16:12:45.882Z</time></trkpt><trkpt lat="42.4406858" lon="-8.4571335"><ele>451.0</ele><time>2026-03-28T16:12:46.882Z</time></trkpt><trkpt lat="42.4406153" lon="-8.4571782"><ele>451.00000000000006</ele><time>2026-03-28T16:12:47.878Z</time></trkpt><trkpt lat="42.4405501" lon="-8.4572399"><ele>451.0</ele><time>2026-03-28T16:12:48.885Z</time></trkpt><trkpt lat="42.440513" lon="-8.4573222"><ele>452.6</ele><time>2026-03-28T16:12:49.902Z</time></trkpt><trkpt lat="42.4404991" lon="-8.4574081"><ele>454.20000000000005</ele><time>2026-03-28T16:12:50.886Z</time></trkpt><trkpt lat="42.4405109" lon="-8.4574987"><ele>455.79999999999995</ele><time>2026-03-28T16:12:51.882Z</time></trkpt><trkpt lat="42.4404987" lon="-8.4576629"><ele>457.4</ele><time>2026-03-28T16:12:53.889Z</time></trkpt><trkpt lat="42.4404761" lon="-8.4578273"><ele>459.0</ele><time>2026-03-28T16:12:55.881Z</time></trkpt><trkpt lat="42.4404697" lon="-8.4579263"><ele>459.8333333333333</ele><time>2026-03-28T16:12:56.884Z</time></trkpt><trkpt lat="42.4404532" lon="-8.4580281"><ele>460.66666666666663</ele><time>2026-03-28T16:12:57.878Z</time></trkpt><trkpt lat="42.4404426" lon="-8.4581303"><ele>461.5</ele><time>2026-03-28T16:12:58.887Z</time></trkpt><trkpt lat="42.4404487" lon="-8.4582358"><ele>462.3333333333333</ele><time>2026-03-28T16:12:59.889Z</time></trkpt><trkpt lat="42.4404722" lon="-8.4583363"><ele>463.16666666666663</ele><time>2026-03-28T16:13:00.881Z</time></trkpt><trkpt lat="42.4405071" lon="-8.4584359"><ele>464.0</ele><time>2026-03-28T16:13:01.89Z</time></trkpt><trkpt lat="42.4405429" lon="-8.4585294"><ele>464.49999999999994</ele><time>2026-03-28T16:13:02.886Z</time></trkpt><trkpt lat="42.4405811" lon="-8.458618"><ele>465.0</ele><time>2026-03-28T16:13:03.88Z</time></trkpt><trkpt lat="42.4406148" lon="-8.4586973"><ele>465.5</ele><time>2026-03-28T16:13:04.875Z</time></trkpt><trkpt lat="42.440643" lon="-8.4587834"><ele>466.0</ele><time>2026-03-28T16:13:05.885Z</time></trkpt><trkpt lat="42.4406832" lon="-8.4588569"><ele>466.49999999999994</ele><time>2026-03-28T16:13:06.888Z</time></trkpt><trkpt lat="42.440755" lon="-8.4589779"><ele>467.0</ele><time>2026-03-28T16:13:08.886Z</time></trkpt><trkpt lat="42.4408591" lon="-8.4590572"><ele>467.20000000000005</ele><time>2026-03-28T16:13:10.884Z</time></trkpt><trkpt lat="42.4409437" lon="-8.459121"><ele>467.40000000000003</ele><time>2026-03-28T16:13:12.891Z</time></trkpt><trkpt lat="42.441006" lon="-8.4591808"><ele>467.59999999999997</ele><time>2026-03-28T16:13:14.884Z</time></trkpt><trkpt lat="42.4410553" lon="-8.4592598"><ele>467.79999999999995</ele><time>2026-03-28T16:13:16.886Z</time></trkpt><trkpt lat="42.4411161" lon="-8.459374"><ele>468.0</ele><time>2026-03-28T16:13:18.881Z</time></trkpt><trkpt lat="42.4411887" lon="-8.4595023"><ele>467.59999999999997</ele><time>2026-03-28T16:13:20.883Z</time></trkpt><trkpt lat="42.4412373" lon="-8.4596223"><ele>467.19999999999993</ele><time>2026-03-28T16:13:22.879Z</time></trkpt><trkpt lat="42.4412693" lon="-8.4597433"><ele>466.8</ele><time>2026-03-28T16:13:24.885Z</time></trkpt><trkpt lat="42.4412673" lon="-8.4598702"><ele>466.4</ele><time>2026-03-28T16:13:26.88Z</time></trkpt><trkpt lat="42.4411843" lon="-8.4599687"><ele>466.0</ele><time>2026-03-28T16:13:28.882Z</time></trkpt><trkpt lat="42.4411179" lon="-8.4600841"><ele>466.0</ele><time>2026-03-28T16:13:30.884Z</time></trkpt><trkpt lat="42.441075" lon="-8.4601808"><ele>466.0</ele><time>2026-03-28T16:13:32.884Z</time></trkpt><trkpt lat="42.4410315" lon="-8.4602547"><ele>466.0</ele><time>2026-03-28T16:13:34.885Z</time></trkpt><trkpt lat="42.4410137" lon="-8.4603421"><ele>466.0</ele><time>2026-03-28T16:13:37.879Z</time></trkpt><trkpt lat="42.4410777" lon="-8.4603552"><ele>466.0</ele><time>2026-03-28T16:13:39.878Z</time></trkpt><trkpt lat="42.4411426" lon="-8.4603576"><ele>466.0</ele><time>2026-03-28T16:13:41.885Z</time></trkpt><trkpt lat="42.4412251" lon="-8.4603503"><ele>466.0</ele><time>2026-03-28T16:13:43.879Z</time></trkpt><trkpt lat="42.4412875" lon="-8.4603236"><ele>467.33333333333337</ele><time>2026-03-28T16:13:44.894Z</time></trkpt><trkpt lat="42.441352" lon="-8.4602977"><ele>468.6666666666667</ele><time>2026-03-28T16:13:45.885Z</time></trkpt><trkpt lat="42.4414186" lon="-8.4602679"><ele>470.0</ele><time>2026-03-28T16:13:46.88Z</time></trkpt><trkpt lat="42.4414927" lon="-8.4602445"><ele>471.33333333333337</ele><time>2026-03-28T16:13:47.888Z</time></trkpt><trkpt lat="42.4415701" lon="-8.4602136"><ele>472.6666666666667</ele><time>2026-03-28T16:13:48.891Z</time></trkpt><trkpt lat="42.4416368" lon="-8.4602047"><ele>474.0</ele><time>2026-03-28T16:13:49.884Z</time></trkpt><trkpt lat="42.4417711" lon="-8.4602019"><ele>474.0</ele><time>2026-03-28T16:13:51.88Z</time></trkpt><trkpt lat="42.4418766" lon="-8.4601978"><ele>474.0</ele><time>2026-03-28T16:13:53.883Z</time></trkpt><trkpt lat="42.4419894" lon="-8.4602035"><ele>474.0</ele><time>2026-03-28T16:13:55.887Z</time></trkpt><trkpt lat="42.4420935" lon="-8.4602314"><ele>474.0</ele><time>2026-03-28T16:13:57.886Z</time></trkpt><trkpt lat="42.4422124" lon="-8.4602391"><ele>474.0</ele><time>2026-03-28T16:13:59.886Z</time></trkpt><trkpt lat="42.4422792" lon="-8.4602451"><ele>475.5</ele><time>2026-03-28T16:14:00.889Z</time></trkpt><trkpt lat="42.4423528" lon="-8.4602592"><ele>477.0</ele><time>2026-03-28T16:14:01.881Z</time></trkpt><trkpt lat="42.442435" lon="-8.4602799"><ele>478.5</ele><time>2026-03-28T16:14:02.885Z</time></trkpt><trkpt lat="42.4425098" lon="-8.4603066"><ele>480.0</ele><time>2026-03-28T16:14:03.88Z</time></trkpt><trkpt lat="42.442578" lon="-8.4603258"><ele>481.5</ele><time>2026-03-28T16:14:04.885Z</time></trkpt><trkpt lat="42.4426428" lon="-8.4603307"><ele>483.0</ele><time>2026-03-28T16:14:05.879Z</time></trkpt><trkpt lat="42.442757" lon="-8.4603123"><ele>483.0</ele><time>2026-03-28T16:14:07.883Z</time></trkpt><trkpt lat="42.4428759" lon="-8.4602928"><ele>483.0</ele><time>2026-03-28T16:14:09.878Z</time></trkpt><trkpt lat="42.4429463" lon="-8.4603092"><ele>483.0</ele><time>2026-03-28T16:14:10.876Z</time></trkpt><trkpt lat="42.4430171" lon="-8.4603383"><ele>483.0</ele><time>2026-03-28T16:14:11.88Z</time></trkpt><trkpt lat="42.4430817" lon="-8.4603615"><ele>483.0</ele><time>2026-03-28T16:14:12.882Z</time></trkpt><trkpt lat="42.443184" lon="-8.4603536"><ele>483.0</ele><time>2026-03-28T16:14:14.88Z</time></trkpt><trkpt lat="42.4432628" lon="-8.4602436"><ele>485.1666666666667</ele><time>2026-03-28T16:14:16.884Z</time></trkpt><trkpt lat="42.4433006" lon="-8.4601714"><ele>487.33333333333337</ele><time>2026-03-28T16:14:17.879Z</time></trkpt><trkpt lat="42.4433385" lon="-8.4600918"><ele>489.5</ele><time>2026-03-28T16:14:18.888Z</time></trkpt><trkpt lat="42.4433963" lon="-8.4600129"><ele>491.6666666666667</ele><time>2026-03-28T16:14:19.883Z</time></trkpt><trkpt lat="42.4434663" lon="-8.4599313"><ele>493.83333333333337</ele><time>2026-03-28T16:14:20.885Z</time></trkpt><trkpt lat="42.4435437" lon="-8.459867"><ele>496.0</ele><time>2026-03-28T16:14:21.877Z</time></trkpt><trkpt lat="42.4436292" lon="-8.4598094"><ele>496.0</ele><time>2026-03-28T16:14:22.882Z</time></trkpt><trkpt lat="42.443717" lon="-8.4597618"><ele>496.0</ele><time>2026-03-28T16:14:23.883Z</time></trkpt><trkpt lat="42.4438122" lon="-8.4597285"><ele>496.0</ele><time>2026-03-28T16:14:24.887Z</time></trkpt><trkpt lat="42.4439057" lon="-8.4596998"><ele>496.0</ele><time>2026-03-28T16:14:25.886Z</time></trkpt><trkpt lat="42.4439954" lon="-8.4596597"><ele>496.0</ele><time>2026-03-28T16:14:26.881Z</time></trkpt><trkpt lat="42.4440783" lon="-8.4595952"><ele>497.00000000000006</ele><time>2026-03-28T16:14:27.879Z</time></trkpt><trkpt lat="42.4441497" lon="-8.4595023"><ele>498.0</ele><time>2026-03-28T16:14:28.883Z</time></trkpt><trkpt lat="42.4442028" lon="-8.4594111"><ele>499.0</ele><time>2026-03-28T16:14:29.878Z</time></trkpt><trkpt lat="42.4442478" lon="-8.4593205"><ele>500.0</ele><time>2026-03-28T16:14:30.882Z</time></trkpt><trkpt lat="42.4442875" lon="-8.4592322"><ele>501.00000000000006</ele><time>2026-03-28T16:14:31.886Z</time></trkpt><trkpt lat="42.4443235" lon="-8.459147"><ele>502.0</ele><time>2026-03-28T16:14:32.895Z</time></trkpt><trkpt lat="42.4443661" lon="-8.4590699"><ele>501.99999999999994</ele><time>2026-03-28T16:14:33.882Z</time></trkpt><trkpt lat="42.4444142" lon="-8.4589971"><ele>502.0</ele><time>2026-03-28T16:14:34.881Z</time></trkpt><trkpt lat="42.4444715" lon="-8.4589301"><ele>501.99999999999994</ele><time>2026-03-28T16:14:35.881Z</time></trkpt><trkpt lat="42.4445282" lon="-8.4588637"><ele>501.99999999999994</ele><time>2026-03-28T16:14:36.875Z</time></trkpt><trkpt lat="42.4445883" lon="-8.4588034"><ele>502.0</ele><time>2026-03-28T16:14:37.885Z</time></trkpt><trkpt lat="42.4446481" lon="-8.4587539"><ele>501.99999999999994</ele><time>2026-03-28T16:14:38.892Z</time></trkpt><trkpt lat="42.4447118" lon="-8.4587092"><ele>501.99999999999994</ele><time>2026-03-28T16:14:39.877Z</time></trkpt><trkpt lat="42.4447812" lon="-8.4586694"><ele>501.1666666666667</ele><time>2026-03-28T16:14:40.875Z</time></trkpt><trkpt lat="42.4448565" lon="-8.4586346"><ele>500.33333333333337</ele><time>2026-03-28T16:14:41.879Z</time></trkpt><trkpt lat="42.4449316" lon="-8.4586088"><ele>499.5</ele><time>2026-03-28T16:14:42.889Z</time></trkpt><trkpt lat="42.4449995" lon="-8.4585888"><ele>498.66666666666663</ele><time>2026-03-28T16:14:43.885Z</time></trkpt><trkpt lat="42.4450614" lon="-8.4585667"><ele>497.8333333333333</ele><time>2026-03-28T16:14:44.886Z</time></trkpt><trkpt lat="42.4451241" lon="-8.4585463"><ele>497.0</ele><time>2026-03-28T16:14:45.889Z</time></trkpt><trkpt lat="42.4452343" lon="-8.4585378"><ele>496.99999999999994</ele><time>2026-03-28T16:14:47.879Z</time></trkpt><trkpt lat="42.4453526" lon="-8.4584915"><ele>497.0</ele><time>2026-03-28T16:14:49.881Z</time></trkpt><trkpt lat="42.4454083" lon="-8.4584356"><ele>497.0</ele><time>2026-03-28T16:14:50.882Z</time></trkpt><trkpt lat="42.4454572" lon="-8.4583661"><ele>497.0</ele><time>2026-03-28T16:14:51.887Z</time></trkpt><trkpt lat="42.4455085" lon="-8.4582881"><ele>496.99999999999994</ele><time>2026-03-28T16:14:52.887Z</time></trkpt><trkpt lat="42.4455623" lon="-8.4582046"><ele>497.0</ele><time>2026-03-28T16:14:53.881Z</time></trkpt><trkpt lat="42.4456237" lon="-8.458133"><ele>498.3333333333333</ele><time>2026-03-28T16:14:54.88Z</time></trkpt><trkpt lat="42.445684" lon="-8.4580711"><ele>499.66666666666663</ele><time>2026-03-28T16:14:55.895Z</time></trkpt><trkpt lat="42.4457453" lon="-8.4580157"><ele>501.0</ele><time>2026-03-28T16:14:56.883Z</time></trkpt><trkpt lat="42.4458023" lon="-8.4579659"><ele>502.33333333333337</ele><time>2026-03-28T16:14:57.881Z</time></trkpt><trkpt lat="42.4458595" lon="-8.4579248"><ele>503.6666666666667</ele><time>2026-03-28T16:14:58.874Z</time></trkpt><trkpt lat="42.4459227" lon="-8.4578959"><ele>505.0</ele><time>2026-03-28T16:14:59.881Z</time></trkpt><trkpt lat="42.446034" lon="-8.457823"><ele>505.00000000000006</ele><time>2026-03-28T16:15:01.878Z</time></trkpt><trkpt lat="42.4460974" lon="-8.4577846"><ele>505.0</ele><time>2026-03-28T16:15:02.885Z</time></trkpt><trkpt lat="42.4462216" lon="-8.4577407"><ele>505.0</ele><time>2026-03-28T16:15:04.881Z</time></trkpt><trkpt lat="42.4462912" lon="-8.4577228"><ele>505.0</ele><time>2026-03-28T16:15:05.891Z</time></trkpt><trkpt lat="42.4463602" lon="-8.4577202"><ele>505.00000000000006</ele><time>2026-03-28T16:15:06.885Z</time></trkpt><trkpt lat="42.4464323" lon="-8.4577246"><ele>505.0</ele><time>2026-03-28T16:15:07.882Z</time></trkpt><trkpt lat="42.4465042" lon="-8.4577444"><ele>505.83333333333337</ele><time>2026-03-28T16:15:08.882Z</time></trkpt><trkpt lat="42.446575" lon="-8.4577863"><ele>506.6666666666667</ele><time>2026-03-28T16:15:09.874Z</time></trkpt><trkpt lat="42.4466388" lon="-8.4578402"><ele>507.5</ele><time>2026-03-28T16:15:10.886Z</time></trkpt><trkpt lat="42.4466891" lon="-8.4579124"><ele>508.33333333333337</ele><time>2026-03-28T16:15:11.885Z</time></trkpt><trkpt lat="42.4467287" lon="-8.4580104"><ele>509.1666666666667</ele><time>2026-03-28T16:15:12.879Z</time></trkpt><trkpt lat="42.4467551" lon="-8.4581241"><ele>510.0</ele><time>2026-03-28T16:15:13.884Z</time></trkpt><trkpt lat="42.4467688" lon="-8.458244"><ele>511.8333333333333</ele><time>2026-03-28T16:15:14.88Z</time></trkpt><trkpt lat="42.4467776" lon="-8.4583678"><ele>513.6666666666666</ele><time>2026-03-28T16:15:15.883Z</time></trkpt><trkpt lat="42.4467891" lon="-8.4584979"><ele>515.5</ele><time>2026-03-28T16:15:16.889Z</time></trkpt><trkpt lat="42.4468067" lon="-8.458615"><ele>517.3333333333333</ele><time>2026-03-28T16:15:17.892Z</time></trkpt><trkpt lat="42.4468277" lon="-8.4587232"><ele>519.1666666666666</ele><time>2026-03-28T16:15:18.886Z</time></trkpt><trkpt lat="42.4468589" lon="-8.4588265"><ele>521.0</ele><time>2026-03-28T16:15:19.881Z</time></trkpt><trkpt lat="42.446899" lon="-8.4589388"><ele>522.5</ele><time>2026-03-28T16:15:20.885Z</time></trkpt><trkpt lat="42.4469515" lon="-8.4590288"><ele>524.0</ele><time>2026-03-28T16:15:21.886Z</time></trkpt><trkpt lat="42.4470147" lon="-8.4591051"><ele>525.5</ele><time>2026-03-28T16:15:22.884Z</time></trkpt><trkpt lat="42.4470786" lon="-8.4591796"><ele>527.0</ele><time>2026-03-28T16:15:23.877Z</time></trkpt><trkpt lat="42.447141" lon="-8.4592496"><ele>528.5</ele><time>2026-03-28T16:15:24.888Z</time></trkpt><trkpt lat="42.4472001" lon="-8.459319"><ele>530.0</ele><time>2026-03-28T16:15:25.882Z</time></trkpt><trkpt lat="42.4472603" lon="-8.4593829"><ele>530.5</ele><time>2026-03-28T16:15:26.882Z</time></trkpt><trkpt lat="42.4473174" lon="-8.4594443"><ele>531.0</ele><time>2026-03-28T16:15:27.891Z</time></trkpt><trkpt lat="42.4473702" lon="-8.4595053"><ele>531.5</ele><time>2026-03-28T16:15:28.877Z</time></trkpt><trkpt lat="42.4474584" lon="-8.459606"><ele>532.0</ele><time>2026-03-28T16:15:30.884Z</time></trkpt><trkpt lat="42.4475177" lon="-8.459689"><ele>532.5</ele><time>2026-03-28T16:15:32.887Z</time></trkpt><trkpt lat="42.4475341" lon="-8.4597965"><ele>533.0</ele><time>2026-03-28T16:15:35.875Z</time></trkpt><trkpt lat="42.4474509" lon="-8.4597815"><ele>533.6</ele><time>2026-03-28T16:15:39.886Z</time></trkpt><trkpt lat="42.4473238" lon="-8.4597682"><ele>534.1999999999999</ele><time>2026-03-28T16:15:41.885Z</time></trkpt><trkpt lat="42.4472482" lon="-8.4597973"><ele>534.8</ele><time>2026-03-28T16:15:42.885Z</time></trkpt><trkpt lat="42.4471869" lon="-8.4598456"><ele>535.4</ele><time>2026-03-28T16:15:43.886Z</time></trkpt><trkpt lat="42.447095" lon="-8.4599356"><ele>536.0</ele><time>2026-03-28T16:15:45.885Z</time></trkpt><trkpt lat="42.4470405" lon="-8.4599953"><ele>536.0</ele><time>2026-03-28T16:15:46.89Z</time></trkpt><trkpt lat="42.4469457" lon="-8.4600884"><ele>536.0</ele><time>2026-03-28T16:15:48.882Z</time></trkpt><trkpt lat="42.4468504" lon="-8.4601652"><ele>536.0</ele><time>2026-03-28T16:15:50.883Z</time></trkpt><trkpt lat="42.4467569" lon="-8.4602169"><ele>536.0</ele><time>2026-03-28T16:15:52.88Z</time></trkpt><trkpt lat="42.4466611" lon="-8.460238"><ele>536.0</ele><time>2026-03-28T16:15:54.883Z</time></trkpt><trkpt lat="42.4465503" lon="-8.4602663"><ele>536.0</ele><time>2026-03-28T16:15:56.881Z</time></trkpt><trkpt lat="42.446486" lon="-8.4602804"><ele>536.0</ele><time>2026-03-28T16:15:57.884Z</time></trkpt><trkpt lat="42.4464154" lon="-8.4602961"><ele>536.0</ele><time>2026-03-28T16:15:58.886Z</time></trkpt><trkpt lat="42.4463465" lon="-8.4603217"><ele>536.0</ele><time>2026-03-28T16:15:59.882Z</time></trkpt><trkpt lat="42.4462851" lon="-8.4603558"><ele>536.0</ele><time>2026-03-28T16:16:00.886Z</time></trkpt><trkpt lat="42.4461755" lon="-8.4603962"><ele>536.0</ele><time>2026-03-28T16:16:02.877Z</time></trkpt><trkpt lat="42.4460534" lon="-8.4603449"><ele>535.0</ele><time>2026-03-28T16:16:04.876Z</time></trkpt><trkpt lat="42.4459935" lon="-8.4603182"><ele>534.0</ele><time>2026-03-28T16:16:05.877Z</time></trkpt><trkpt lat="42.445932" lon="-8.4602921"><ele>533.0</ele><time>2026-03-28T16:16:06.886Z</time></trkpt><trkpt lat="42.44587" lon="-8.4602715"><ele>532.0</ele><time>2026-03-28T16:16:07.888Z</time></trkpt><trkpt lat="42.4458053" lon="-8.4602589"><ele>531.0</ele><time>2026-03-28T16:16:08.885Z</time></trkpt><trkpt lat="42.4457392" lon="-8.4602539"><ele>530.0</ele><time>2026-03-28T16:16:09.879Z</time></trkpt><trkpt lat="42.445672" lon="-8.4602518"><ele>529.0</ele><time>2026-03-28T16:16:10.885Z</time></trkpt><trkpt lat="42.4456027" lon="-8.4602576"><ele>529.0</ele><time>2026-03-28T16:16:11.883Z</time></trkpt><trkpt lat="42.445534" lon="-8.4602668"><ele>529.0</ele><time>2026-03-28T16:16:12.887Z</time></trkpt><trkpt lat="42.4454613" lon="-8.4602763"><ele>529.0</ele><time>2026-03-28T16:16:13.887Z</time></trkpt><trkpt lat="42.4453907" lon="-8.4602969"><ele>529.0</ele><time>2026-03-28T16:16:14.883Z</time></trkpt><trkpt lat="42.4453204" lon="-8.4603244"><ele>529.0</ele><time>2026-03-28T16:16:15.887Z</time></trkpt><trkpt lat="42.4452566" lon="-8.4603576"><ele>529.0</ele><time>2026-03-28T16:16:16.878Z</time></trkpt><trkpt lat="42.4451492" lon="-8.4604319"><ele>529.6666666666667</ele><time>2026-03-28T16:16:18.882Z</time></trkpt><trkpt lat="42.445095" lon="-8.4604857"><ele>530.3333333333334</ele><time>2026-03-28T16:16:19.876Z</time></trkpt><trkpt lat="42.4450458" lon="-8.4605428"><ele>531.0</ele><time>2026-03-28T16:16:20.887Z</time></trkpt><trkpt lat="42.4449595" lon="-8.4606624"><ele>531.6666666666666</ele><time>2026-03-28T16:16:22.891Z</time></trkpt><trkpt lat="42.4449201" lon="-8.4607291"><ele>532.3333333333333</ele><time>2026-03-28T16:16:23.877Z</time></trkpt><trkpt lat="42.4448783" lon="-8.4608363"><ele>533.0</ele><time>2026-03-28T16:16:25.885Z</time></trkpt><trkpt lat="42.4448955" lon="-8.4609309"><ele>533.0</ele><time>2026-03-28T16:16:27.885Z</time></trkpt><trkpt lat="42.4449536" lon="-8.4610007"><ele>533.0</ele><time>2026-03-28T16:16:29.884Z</time></trkpt><trkpt lat="42.445047" lon="-8.4610731"><ele>533.0</ele><time>2026-03-28T16:16:31.879Z</time></trkpt><trkpt lat="42.4451688" lon="-8.4610997"><ele>533.0</ele><time>2026-03-28T16:16:33.879Z</time></trkpt><trkpt lat="42.4452369" lon="-8.4611016"><ele>533.0</ele><time>2026-03-28T16:16:34.876Z</time></trkpt><trkpt lat="42.4453047" lon="-8.4610995"><ele>533.0</ele><time>2026-03-28T16:16:35.884Z</time></trkpt><trkpt lat="42.4453696" lon="-8.4611061"><ele>535.4</ele><time>2026-03-28T16:16:36.886Z</time></trkpt><trkpt lat="42.445474" lon="-8.4611579"><ele>537.8</ele><time>2026-03-28T16:16:38.884Z</time></trkpt><trkpt lat="42.4455644" lon="-8.4612519"><ele>540.2</ele><time>2026-03-28T16:16:40.885Z</time></trkpt><trkpt lat="42.4456606" lon="-8.4613673"><ele>542.6</ele><time>2026-03-28T16:16:42.889Z</time></trkpt><trkpt lat="42.4457097" lon="-8.4614249"><ele>545.0</ele><time>2026-03-28T16:16:43.881Z</time></trkpt><trkpt lat="42.4457902" lon="-8.4615287"><ele>547.2</ele><time>2026-03-28T16:16:45.887Z</time></trkpt><trkpt lat="42.4458534" lon="-8.4616115"><ele>549.4</ele><time>2026-03-28T16:16:47.887Z</time></trkpt><trkpt lat="42.4459191" lon="-8.4616775"><ele>551.6</ele><time>2026-03-28T16:16:49.88Z</time></trkpt><trkpt lat="42.4459901" lon="-8.4617434"><ele>553.8</ele><time>2026-03-28T16:16:51.881Z</time></trkpt><trkpt lat="42.4460774" lon="-8.4617856"><ele>556.0</ele><time>2026-03-28T16:16:53.876Z</time></trkpt><trkpt lat="42.4461831" lon="-8.4618535"><ele>556.0</ele><time>2026-03-28T16:16:55.88Z</time></trkpt><trkpt lat="42.4462771" lon="-8.4619163"><ele>556.0</ele><time>2026-03-28T16:16:57.88Z</time></trkpt><trkpt lat="42.4463362" lon="-8.4619467"><ele>556.0</ele><time>2026-03-28T16:17:02.881Z</time></trkpt><trkpt lat="42.4464007" lon="-8.461965"><ele>556.0</ele><time>2026-03-28T16:17:13.884Z</time></trkpt><trkpt lat="42.4464695" lon="-8.4620207"><ele>556.0</ele><time>2026-03-28T16:17:17.878Z</time></trkpt><trkpt lat="42.4465035" lon="-8.4620987"><ele>556.0</ele><time>2026-03-28T16:17:19.882Z</time></trkpt><trkpt lat="42.446538" lon="-8.4622124"><ele>557.1666666666667</ele><time>2026-03-28T16:17:21.884Z</time></trkpt><trkpt lat="42.4466012" lon="-8.4622984"><ele>558.3333333333334</ele><time>2026-03-28T16:17:23.88Z</time></trkpt><trkpt lat="42.4466598" lon="-8.4623409"><ele>559.5</ele><time>2026-03-28T16:17:25.885Z</time></trkpt><trkpt lat="42.4467384" lon="-8.4623525"><ele>560.6666666666666</ele><time>2026-03-28T16:17:27.876Z</time></trkpt><trkpt lat="42.446803" lon="-8.4623341"><ele>561.8333333333333</ele><time>2026-03-28T16:17:29.877Z</time></trkpt><trkpt lat="42.4468643" lon="-8.462354"><ele>563.0</ele><time>2026-03-28T16:17:31.886Z</time></trkpt><trkpt lat="42.446946" lon="-8.462389"><ele>563.0</ele><time>2026-03-28T16:17:33.881Z</time></trkpt><trkpt lat="42.4470344" lon="-8.4623924"><ele>563.0</ele><time>2026-03-28T16:17:35.881Z</time></trkpt><trkpt lat="42.4471015" lon="-8.4624113"><ele>563.0</ele><time>2026-03-28T16:17:37.882Z</time></trkpt><trkpt lat="42.4471493" lon="-8.4624778"><ele>563.0</ele><time>2026-03-28T16:17:40.88Z</time></trkpt><trkpt lat="42.4472295" lon="-8.4625513"><ele>563.0</ele><time>2026-03-28T16:17:48.873Z</time></trkpt><trkpt lat="42.4473009" lon="-8.4625853"><ele>563.0</ele><time>2026-03-28T16:17:52.884Z</time></trkpt><trkpt lat="42.4473115" lon="-8.4627005"><ele>563.7142857142857</ele><time>2026-03-28T16:17:56.878Z</time></trkpt><trkpt lat="42.4473074" lon="-8.4627867"><ele>564.4285714285714</ele><time>2026-03-28T16:17:59.88Z</time></trkpt><trkpt lat="42.4472815" lon="-8.4628869"><ele>565.1428571428571</ele><time>2026-03-28T16:18:21.887Z</time></trkpt><trkpt lat="42.4472318" lon="-8.4629681"><ele>565.8571428571429</ele><time>2026-03-28T16:18:24.883Z</time></trkpt><trkpt lat="42.4471665" lon="-8.4630066"><ele>566.5714285714286</ele><time>2026-03-28T16:18:26.878Z</time></trkpt><trkpt lat="42.4470966" lon="-8.4630721"><ele>567.2857142857142</ele><time>2026-03-28T16:18:29.879Z</time></trkpt><trkpt lat="42.447043" lon="-8.4631228"><ele>568.0</ele><time>2026-03-28T16:18:31.879Z</time></trkpt><trkpt lat="42.4469854" lon="-8.4631668"><ele>568.5</ele><time>2026-03-28T16:18:33.875Z</time></trkpt><trkpt lat="42.4469132" lon="-8.4632229"><ele>569.0</ele><time>2026-03-28T16:18:36.884Z</time></trkpt><trkpt lat="42.4468522" lon="-8.4632854"><ele>569.5</ele><time>2026-03-28T16:18:39.885Z</time></trkpt><trkpt lat="42.4467793" lon="-8.4633551"><ele>570.0</ele><time>2026-03-28T16:18:42.892Z</time></trkpt><trkpt lat="42.4467104" lon="-8.4633947"><ele>570.5</ele><time>2026-03-28T16:18:44.887Z</time></trkpt><trkpt lat="42.4466487" lon="-8.463435"><ele>571.0</ele><time>2026-03-28T16:18:46.878Z</time></trkpt><trkpt lat="42.4465917" lon="-8.4634818"><ele>571.0</ele><time>2026-03-28T16:18:48.884Z</time></trkpt><trkpt lat="42.446525" lon="-8.4635097"><ele>571.0</ele><time>2026-03-28T16:18:50.883Z</time></trkpt><trkpt lat="42.4464623" lon="-8.4635409"><ele>571.0</ele><time>2026-03-28T16:18:53.888Z</time></trkpt><trkpt lat="42.4464068" lon="-8.4636077"><ele>571.0</ele><time>2026-03-28T16:18:58.88Z</time></trkpt><trkpt lat="42.4463502" lon="-8.4636497"><ele>571.0</ele><time>2026-03-28T16:19:02.881Z</time></trkpt><trkpt lat="42.446315" lon="-8.4637339"><ele>571.0</ele><time>2026-03-28T16:19:07.88Z</time></trkpt><trkpt lat="42.4462816" lon="-8.4638293"><ele>571.0</ele><time>2026-03-28T16:19:10.885Z</time></trkpt><trkpt lat="42.4462717" lon="-8.4639625"><ele>570.0</ele><time>2026-03-28T16:19:13.878Z</time></trkpt><trkpt lat="42.4462719" lon="-8.464065"><ele>569.0</ele><time>2026-03-28T16:19:15.877Z</time></trkpt><trkpt lat="42.4462952" lon="-8.4641602"><ele>568.0</ele><time>2026-03-28T16:19:17.877Z</time></trkpt><trkpt lat="42.4463335" lon="-8.464261"><ele>567.0</ele><time>2026-03-28T16:19:20.895Z</time></trkpt><trkpt lat="42.4463894" lon="-8.4643427"><ele>566.0</ele><time>2026-03-28T16:19:23.885Z</time></trkpt><trkpt lat="42.4464666" lon="-8.4643872"><ele>565.0</ele><time>2026-03-28T16:19:26.882Z</time></trkpt><trkpt lat="42.4465244" lon="-8.4644415"><ele>567.0</ele><time>2026-03-28T16:19:28.882Z</time></trkpt><trkpt lat="42.4465768" lon="-8.4645076"><ele>569.0</ele><time>2026-03-28T16:19:30.882Z</time></trkpt><trkpt lat="42.4466672" lon="-8.4645003"><ele>571.0</ele><time>2026-03-28T16:19:33.875Z</time></trkpt><trkpt lat="42.4467329" lon="-8.4644422"><ele>573.0</ele><time>2026-03-28T16:19:35.886Z</time></trkpt><trkpt lat="42.446795" lon="-8.4644579"><ele>575.0</ele><time>2026-03-28T16:19:37.875Z</time></trkpt><trkpt lat="42.4468708" lon="-8.4645324"><ele>577.0</ele><time>2026-03-28T16:19:39.881Z</time></trkpt><trkpt lat="42.4469556" lon="-8.4645988"><ele>577.5</ele><time>2026-03-28T16:19:41.878Z</time></trkpt><trkpt lat="42.4470571" lon="-8.464659"><ele>578.0</ele><time>2026-03-28T16:19:43.877Z</time></trkpt><trkpt lat="42.4471691" lon="-8.4647268"><ele>578.5</ele><time>2026-03-28T16:19:45.887Z</time></trkpt><trkpt lat="42.4472298" lon="-8.4647668"><ele>579.0</ele><time>2026-03-28T16:19:46.882Z</time></trkpt><trkpt lat="42.4472912" lon="-8.4648038"><ele>579.5</ele><time>2026-03-28T16:19:47.876Z</time></trkpt><trkpt lat="42.4473532" lon="-8.4648409"><ele>580.0</ele><time>2026-03-28T16:19:48.877Z</time></trkpt><trkpt lat="42.447416" lon="-8.4648851"><ele>581.8333333333334</ele><time>2026-03-28T16:19:49.881Z</time></trkpt><trkpt lat="42.447482" lon="-8.4649401"><ele>583.6666666666667</ele><time>2026-03-28T16:19:50.878Z</time></trkpt><trkpt lat="42.4475504" lon="-8.4650011"><ele>585.5</ele><time>2026-03-28T16:19:51.882Z</time></trkpt><trkpt lat="42.4476168" lon="-8.4650662"><ele>587.3333333333334</ele><time>2026-03-28T16:19:52.884Z</time></trkpt><trkpt lat="42.4476866" lon="-8.465125"><ele>589.1666666666666</ele><time>2026-03-28T16:19:53.885Z</time></trkpt><trkpt lat="42.4477576" lon="-8.4651873"><ele>591.0</ele><time>2026-03-28T16:19:54.877Z</time></trkpt><trkpt lat="42.4478368" lon="-8.4652448"><ele>591.0</ele><time>2026-03-28T16:19:55.88Z</time></trkpt><trkpt lat="42.4479184" lon="-8.4652952"><ele>591.0</ele><time>2026-03-28T16:19:56.878Z</time></trkpt><trkpt lat="42.4479953" lon="-8.4653413"><ele>591.0</ele><time>2026-03-28T16:19:57.884Z</time></trkpt><trkpt lat="42.448067" lon="-8.4653834"><ele>591.0</ele><time>2026-03-28T16:19:58.882Z</time></trkpt><trkpt lat="42.4481466" lon="-8.4654236"><ele>591.0</ele><time>2026-03-28T16:19:59.879Z</time></trkpt><trkpt lat="42.4482202" lon="-8.4654782"><ele>591.0</ele><time>2026-03-28T16:20:00.88Z</time></trkpt><trkpt lat="42.4482875" lon="-8.4655324"><ele>594.8</ele><time>2026-03-28T16:20:01.878Z</time></trkpt><trkpt lat="42.4483547" lon="-8.4655792"><ele>598.6</ele><time>2026-03-28T16:20:02.884Z</time></trkpt><trkpt lat="42.4484163" lon="-8.4656236"><ele>602.4</ele><time>2026-03-28T16:20:03.875Z</time></trkpt><trkpt lat="42.448524" lon="-8.4656924"><ele>606.2</ele><time>2026-03-28T16:20:05.874Z</time></trkpt><trkpt lat="42.4486391" lon="-8.4657697"><ele>610.0</ele><time>2026-03-28T16:20:07.888Z</time></trkpt><trkpt lat="42.4487045" lon="-8.4658289"><ele>610.0</ele><time>2026-03-28T16:20:08.898Z</time></trkpt><trkpt lat="42.4487776" lon="-8.4658926"><ele>610.0</ele><time>2026-03-28T16:20:09.879Z</time></trkpt><trkpt lat="42.4488507" lon="-8.4659595"><ele>610.0</ele><time>2026-03-28T16:20:10.879Z</time></trkpt><trkpt lat="42.4489213" lon="-8.4660355"><ele>610.0</ele><time>2026-03-28T16:20:11.888Z</time></trkpt><trkpt lat="42.4489732" lon="-8.4661135"><ele>610.0</ele><time>2026-03-28T16:20:12.887Z</time></trkpt><trkpt lat="42.4490122" lon="-8.4661926"><ele>610.0</ele><time>2026-03-28T16:20:13.881Z</time></trkpt><trkpt lat="42.4490151" lon="-8.4663361"><ele>610.8333333333334</ele><time>2026-03-28T16:20:15.881Z</time></trkpt><trkpt lat="42.4489779" lon="-8.4664107"><ele>611.6666666666667</ele><time>2026-03-28T16:20:16.878Z</time></trkpt><trkpt lat="42.4489422" lon="-8.4664966"><ele>612.5</ele><time>2026-03-28T16:20:17.891Z</time></trkpt><trkpt lat="42.4489087" lon="-8.4665805"><ele>613.3333333333334</ele><time>2026-03-28T16:20:18.88Z</time></trkpt><trkpt lat="42.4488486" lon="-8.4667097"><ele>614.1666666666666</ele><time>2026-03-28T16:20:20.878Z</time></trkpt><trkpt lat="42.4487955" lon="-8.4667709"><ele>615.0</ele><time>2026-03-28T16:20:57.88Z</time></trkpt><trkpt lat="42.4487649" lon="-8.4668534"><ele>615.0</ele><time>2026-03-28T16:21:00.88Z</time></trkpt><trkpt lat="42.4487357" lon="-8.4669565"><ele>615.0</ele><time>2026-03-28T16:21:02.881Z</time></trkpt><trkpt lat="42.4487043" lon="-8.4670954"><ele>615.0</ele><time>2026-03-28T16:21:04.896Z</time></trkpt><trkpt lat="42.4486766" lon="-8.4672427"><ele>615.0</ele><time>2026-03-28T16:21:06.878Z</time></trkpt><trkpt lat="42.4486532" lon="-8.4674077"><ele>615.0</ele><time>2026-03-28T16:21:08.884Z</time></trkpt><trkpt lat="42.4486245" lon="-8.4675746"><ele>613.1666666666666</ele><time>2026-03-28T16:21:10.882Z</time></trkpt><trkpt lat="42.4486105" lon="-8.4676674"><ele>611.3333333333334</ele><time>2026-03-28T16:21:11.879Z</time></trkpt><trkpt lat="42.4485981" lon="-8.4677549"><ele>609.5</ele><time>2026-03-28T16:21:12.885Z</time></trkpt><trkpt lat="42.4485804" lon="-8.4678387"><ele>607.6666666666667</ele><time>2026-03-28T16:21:13.878Z</time></trkpt><trkpt lat="42.448552" lon="-8.4679919"><ele>605.8333333333334</ele><time>2026-03-28T16:21:15.876Z</time></trkpt><trkpt lat="42.4485151" lon="-8.4681342"><ele>604.0</ele><time>2026-03-28T16:21:17.873Z</time></trkpt><trkpt lat="42.4484814" lon="-8.4682575"><ele>601.3333333333334</ele><time>2026-03-28T16:21:19.881Z</time></trkpt><trkpt lat="42.4484457" lon="-8.4683541"><ele>598.6666666666667</ele><time>2026-03-28T16:21:21.879Z</time></trkpt><trkpt lat="42.448406" lon="-8.4684471"><ele>596.0</ele><time>2026-03-28T16:21:25.873Z</time></trkpt><trkpt lat="42.4484876" lon="-8.4683927"><ele>593.3333333333334</ele><time>2026-03-28T16:21:31.88Z</time></trkpt><trkpt lat="42.4485579" lon="-8.4683168"><ele>590.6666666666666</ele><time>2026-03-28T16:21:33.887Z</time></trkpt><trkpt lat="42.4486131" lon="-8.4682733"><ele>588.0</ele><time>2026-03-28T16:21:34.875Z</time></trkpt><trkpt lat="42.44872" lon="-8.4682645"><ele>588.0</ele><time>2026-03-28T16:21:36.881Z</time></trkpt><trkpt lat="42.4487794" lon="-8.4683462"><ele>588.0</ele><time>2026-03-28T16:21:38.88Z</time></trkpt><trkpt lat="42.4487995" lon="-8.4684439"><ele>588.0</ele><time>2026-03-28T16:21:41.874Z</time></trkpt><trkpt lat="42.4487667" lon="-8.4685542"><ele>588.0</ele><time>2026-03-28T16:21:44.877Z</time></trkpt><trkpt lat="42.4487144" lon="-8.4686414"><ele>588.0</ele><time>2026-03-28T16:21:46.877Z</time></trkpt><trkpt lat="42.4486586" lon="-8.4687077"><ele>588.0</ele><time>2026-03-28T16:21:48.878Z</time></trkpt><trkpt lat="42.4486026" lon="-8.4687633"><ele>585.1428571428571</ele><time>2026-03-28T16:21:50.88Z</time></trkpt><trkpt lat="42.4485427" lon="-8.468828"><ele>582.2857142857142</ele><time>2026-03-28T16:21:52.881Z</time></trkpt><trkpt lat="42.4484871" lon="-8.4688954"><ele>579.4285714285714</ele><time>2026-03-28T16:21:54.884Z</time></trkpt><trkpt lat="42.4484351" lon="-8.468944"><ele>576.5714285714286</ele><time>2026-03-28T16:21:56.878Z</time></trkpt><trkpt lat="42.448382" lon="-8.4690019"><ele>573.7142857142857</ele><time>2026-03-28T16:21:58.879Z</time></trkpt><trkpt lat="42.448328" lon="-8.4690752"><ele>570.8571428571429</ele><time>2026-03-28T16:22:00.879Z</time></trkpt><trkpt lat="42.4482744" lon="-8.4691531"><ele>568.0</ele><time>2026-03-28T16:22:02.884Z</time></trkpt><trkpt lat="42.4482281" lon="-8.4692366"><ele>568.0</ele><time>2026-03-28T16:22:04.874Z</time></trkpt><trkpt lat="42.4481812" lon="-8.4693063"><ele>568.0</ele><time>2026-03-28T16:22:06.886Z</time></trkpt><trkpt lat="42.4481255" lon="-8.4693916"><ele>568.0</ele><time>2026-03-28T16:22:08.891Z</time></trkpt><trkpt lat="42.4480625" lon="-8.4694739"><ele>568.0</ele><time>2026-03-28T16:22:10.881Z</time></trkpt><trkpt lat="42.4480083" lon="-8.4695462"><ele>568.0</ele><time>2026-03-28T16:22:12.874Z</time></trkpt><trkpt lat="42.4479508" lon="-8.4696172"><ele>568.0</ele><time>2026-03-28T16:22:14.882Z</time></trkpt><trkpt lat="42.4478715" lon="-8.4696984"><ele>566.8333333333334</ele><time>2026-03-28T16:22:16.873Z</time></trkpt><trkpt lat="42.4478237" lon="-8.469786"><ele>565.6666666666667</ele><time>2026-03-28T16:22:18.876Z</time></trkpt><trkpt lat="42.4477766" lon="-8.4699268"><ele>564.5</ele><time>2026-03-28T16:22:20.891Z</time></trkpt><trkpt lat="42.4477426" lon="-8.4699989"><ele>563.3333333333334</ele><time>2026-03-28T16:22:21.875Z</time></trkpt><trkpt lat="42.4476977" lon="-8.4700737"><ele>562.1666666666666</ele><time>2026-03-28T16:22:22.878Z</time></trkpt><trkpt lat="42.4476444" lon="-8.4701562"><ele>561.0</ele><time>2026-03-28T16:22:23.883Z</time></trkpt><trkpt lat="42.4475923" lon="-8.4702377"><ele>561.0</ele><time>2026-03-28T16:22:24.879Z</time></trkpt><trkpt lat="42.4475397" lon="-8.4703178"><ele>561.0</ele><time>2026-03-28T16:22:25.886Z</time></trkpt><trkpt lat="42.447488" lon="-8.4703906"><ele>561.0</ele><time>2026-03-28T16:22:26.881Z</time></trkpt><trkpt lat="42.4474317" lon="-8.4704547"><ele>561.0</ele><time>2026-03-28T16:22:27.893Z</time></trkpt><trkpt lat="42.4473795" lon="-8.4705063"><ele>561.0</ele><time>2026-03-28T16:22:28.881Z</time></trkpt><trkpt lat="42.4472942" lon="-8.4705887"><ele>561.0</ele><time>2026-03-28T16:22:30.875Z</time></trkpt><trkpt lat="42.4472226" lon="-8.4707033"><ele>559.6666666666666</ele><time>2026-03-28T16:22:32.878Z</time></trkpt><trkpt lat="42.4471892" lon="-8.4707933"><ele>558.3333333333334</ele><time>2026-03-28T16:22:33.883Z</time></trkpt><trkpt lat="42.4471684" lon="-8.4708906"><ele>557.0</ele><time>2026-03-28T16:22:34.888Z</time></trkpt><trkpt lat="42.4471477" lon="-8.4709901"><ele>555.6666666666667</ele><time>2026-03-28T16:22:35.884Z</time></trkpt><trkpt lat="42.4471324" lon="-8.4711"><ele>554.3333333333334</ele><time>2026-03-28T16:22:36.877Z</time></trkpt><trkpt lat="42.4471176" lon="-8.4712107"><ele>553.0</ele><time>2026-03-28T16:22:37.881Z</time></trkpt><trkpt lat="42.4471042" lon="-8.4713141"><ele>551.8333333333334</ele><time>2026-03-28T16:22:38.878Z</time></trkpt><trkpt lat="42.4470898" lon="-8.4713976"><ele>550.6666666666667</ele><time>2026-03-28T16:22:39.88Z</time></trkpt><trkpt lat="42.4470477" lon="-8.4715161"><ele>549.5</ele><time>2026-03-28T16:22:41.876Z</time></trkpt><trkpt lat="42.4469748" lon="-8.4715079"><ele>548.3333333333334</ele><time>2026-03-28T16:22:43.877Z</time></trkpt><trkpt lat="42.4469114" lon="-8.4715096"><ele>547.1666666666666</ele><time>2026-03-28T16:22:48.884Z</time></trkpt><trkpt lat="42.4468649" lon="-8.4715829"><ele>546.0</ele><time>2026-03-28T16:22:54.88Z</time></trkpt><trkpt lat="42.4468507" lon="-8.4716957"><ele>546.0</ele><time>2026-03-28T16:22:58.876Z</time></trkpt><trkpt lat="42.4468235" lon="-8.4717773"><ele>546.0</ele><time>2026-03-28T16:23:00.876Z</time></trkpt><trkpt lat="42.4468046" lon="-8.4719213"><ele>546.0</ele><time>2026-03-28T16:23:02.875Z</time></trkpt><trkpt lat="42.4468181" lon="-8.47207"><ele>546.0</ele><time>2026-03-28T16:23:04.876Z</time></trkpt><trkpt lat="42.4468286" lon="-8.4721558"><ele>546.0</ele><time>2026-03-28T16:23:05.886Z</time></trkpt><trkpt lat="42.4468349" lon="-8.472252"><ele>546.0</ele><time>2026-03-28T16:23:06.875Z</time></trkpt><trkpt lat="42.4468442" lon="-8.4723617"><ele>546.3333333333334</ele><time>2026-03-28T16:23:07.873Z</time></trkpt><trkpt lat="42.4468584" lon="-8.4724695"><ele>546.6666666666666</ele><time>2026-03-28T16:23:08.879Z</time></trkpt><trkpt lat="42.4468732" lon="-8.4725785"><ele>547.0</ele><time>2026-03-28T16:23:09.882Z</time></trkpt><trkpt lat="42.446895" lon="-8.4726878"><ele>547.3333333333333</ele><time>2026-03-28T16:23:10.875Z</time></trkpt><trkpt lat="42.4469169" lon="-8.4727854"><ele>547.6666666666666</ele><time>2026-03-28T16:23:11.877Z</time></trkpt><trkpt lat="42.4469299" lon="-8.4728745"><ele>548.0</ele><time>2026-03-28T16:23:12.876Z</time></trkpt><trkpt lat="42.4469448" lon="-8.4730104"><ele>548.8</ele><time>2026-03-28T16:23:14.875Z</time></trkpt><trkpt lat="42.4469942" lon="-8.4731563"><ele>549.5999999999999</ele><time>2026-03-28T16:23:36.879Z</time></trkpt><trkpt lat="42.4470437" lon="-8.4733284"><ele>550.4000000000001</ele><time>2026-03-28T16:23:38.875Z</time></trkpt><trkpt lat="42.4470735" lon="-8.4734141"><ele>551.2</ele><time>2026-03-28T16:23:39.876Z</time></trkpt><trkpt lat="42.4471288" lon="-8.4735325"><ele>552.0</ele><time>2026-03-28T16:23:41.873Z</time></trkpt><trkpt lat="42.447199" lon="-8.4736333"><ele>552.0</ele><time>2026-03-28T16:23:43.876Z</time></trkpt><trkpt lat="42.4472724" lon="-8.4737674"><ele>552.0</ele><time>2026-03-28T16:23:45.876Z</time></trkpt><trkpt lat="42.4473604" lon="-8.4738918"><ele>552.0</ele><time>2026-03-28T16:23:47.878Z</time></trkpt><trkpt lat="42.4473967" lon="-8.4739827"><ele>552.0</ele><time>2026-03-28T16:23:48.883Z</time></trkpt><trkpt lat="42.4474298" lon="-8.4740711"><ele>552.0</ele><time>2026-03-28T16:23:49.884Z</time></trkpt><trkpt lat="42.4474556" lon="-8.4741619"><ele>552.8571428571429</ele><time>2026-03-28T16:23:50.885Z</time></trkpt><trkpt lat="42.447474" lon="-8.4742496"><ele>553.7142857142858</ele><time>2026-03-28T16:23:51.879Z</time></trkpt><trkpt lat="42.4474925" lon="-8.4743447"><ele>554.5714285714286</ele><time>2026-03-28T16:23:52.881Z</time></trkpt><trkpt lat="42.4475136" lon="-8.4744425"><ele>555.4285714285714</ele><time>2026-03-28T16:23:53.884Z</time></trkpt><trkpt lat="42.447543" lon="-8.4745316"><ele>556.2857142857142</ele><time>2026-03-28T16:23:54.878Z</time></trkpt><trkpt lat="42.4475817" lon="-8.4746167"><ele>557.1428571428571</ele><time>2026-03-28T16:23:55.872Z</time></trkpt><trkpt lat="42.4476283" lon="-8.4747043"><ele>558.0</ele><time>2026-03-28T16:23:56.876Z</time></trkpt><trkpt lat="42.4476748" lon="-8.4747941"><ele>558.8571428571428</ele><time>2026-03-28T16:23:57.874Z</time></trkpt><trkpt lat="42.4477163" lon="-8.4748809"><ele>559.7142857142857</ele><time>2026-03-28T16:23:58.881Z</time></trkpt><trkpt lat="42.447742" lon="-8.4749636"><ele>560.5714285714286</ele><time>2026-03-28T16:23:59.879Z</time></trkpt><trkpt lat="42.4477523" lon="-8.4750586"><ele>561.4285714285713</ele><time>2026-03-28T16:24:00.875Z</time></trkpt><trkpt lat="42.4477577" lon="-8.4751566"><ele>562.2857142857142</ele><time>2026-03-28T16:24:01.873Z</time></trkpt><trkpt lat="42.4477556" lon="-8.4752574"><ele>563.1428571428571</ele><time>2026-03-28T16:24:02.871Z</time></trkpt><trkpt lat="42.4477534" lon="-8.4753601"><ele>564.0</ele><time>2026-03-28T16:24:03.874Z</time></trkpt><trkpt lat="42.4477624" lon="-8.4754584"><ele>564.6666666666666</ele><time>2026-03-28T16:24:04.884Z</time></trkpt><trkpt lat="42.4477687" lon="-8.4755609"><ele>565.3333333333334</ele><time>2026-03-28T16:24:05.88Z</time></trkpt><trkpt lat="42.447774" lon="-8.4756646"><ele>566.0</ele><time>2026-03-28T16:24:06.879Z</time></trkpt><trkpt lat="42.4477829" lon="-8.4757638"><ele>566.6666666666667</ele><time>2026-03-28T16:24:07.885Z</time></trkpt><trkpt lat="42.4477885" lon="-8.475866"><ele>567.3333333333334</ele><time>2026-03-28T16:24:08.873Z</time></trkpt><trkpt lat="42.4478035" lon="-8.4759709"><ele>568.0</ele><time>2026-03-28T16:24:09.881Z</time></trkpt><trkpt lat="42.4478253" lon="-8.4760781"><ele>568.0</ele><time>2026-03-28T16:24:10.872Z</time></trkpt><trkpt lat="42.4478411" lon="-8.4761873"><ele>568.0</ele><time>2026-03-28T16:24:11.874Z</time></trkpt><trkpt lat="42.4478533" lon="-8.4762892"><ele>568.0</ele><time>2026-03-28T16:24:12.877Z</time></trkpt><trkpt lat="42.4478769" lon="-8.4763823"><ele>568.0</ele><time>2026-03-28T16:24:13.881Z</time></trkpt><trkpt lat="42.4478914" lon="-8.476478"><ele>568.0</ele><time>2026-03-28T16:24:14.878Z</time></trkpt><trkpt lat="42.4479086" lon="-8.4765733"><ele>568.0</ele><time>2026-03-28T16:24:15.879Z</time></trkpt><trkpt lat="42.4479156" lon="-8.4766595"><ele>568.0</ele><time>2026-03-28T16:24:16.888Z</time></trkpt><trkpt lat="42.447918" lon="-8.4767497"><ele>567.7142857142857</ele><time>2026-03-28T16:24:17.872Z</time></trkpt><trkpt lat="42.4479206" lon="-8.4768421"><ele>567.4285714285713</ele><time>2026-03-28T16:24:18.883Z</time></trkpt><trkpt lat="42.4479244" lon="-8.4769332"><ele>567.1428571428571</ele><time>2026-03-28T16:24:19.88Z</time></trkpt><trkpt lat="42.4479224" lon="-8.4770338"><ele>566.8571428571429</ele><time>2026-03-28T16:24:20.876Z</time></trkpt><trkpt lat="42.4479199" lon="-8.4771332"><ele>566.5714285714287</ele><time>2026-03-28T16:24:21.875Z</time></trkpt><trkpt lat="42.4479161" lon="-8.4772281"><ele>566.2857142857143</ele><time>2026-03-28T16:24:22.879Z</time></trkpt><trkpt lat="42.4479027" lon="-8.4773296"><ele>566.0</ele><time>2026-03-28T16:24:23.876Z</time></trkpt><trkpt lat="42.4478829" lon="-8.4774286"><ele>564.1666666666666</ele><time>2026-03-28T16:24:24.875Z</time></trkpt><trkpt lat="42.4478808" lon="-8.4775178"><ele>562.3333333333333</ele><time>2026-03-28T16:24:25.878Z</time></trkpt><trkpt lat="42.4479169" lon="-8.4776645"><ele>560.5</ele><time>2026-03-28T16:24:27.876Z</time></trkpt><trkpt lat="42.4479604" lon="-8.4777791"><ele>558.6666666666666</ele><time>2026-03-28T16:24:29.881Z</time></trkpt><trkpt lat="42.4480246" lon="-8.4778457"><ele>556.8333333333334</ele><time>2026-03-28T16:24:31.884Z</time></trkpt><trkpt lat="42.448091" lon="-8.4778745"><ele>555.0</ele><time>2026-03-28T16:24:33.877Z</time></trkpt><trkpt lat="42.4481605" lon="-8.4778863"><ele>554.4</ele><time>2026-03-28T16:24:45.886Z</time></trkpt><trkpt lat="42.4482309" lon="-8.4779155"><ele>553.8</ele><time>2026-03-28T16:26:30.881Z</time></trkpt><trkpt lat="42.4482996" lon="-8.4779581"><ele>553.2</ele><time>2026-03-28T16:26:32.882Z</time></trkpt><trkpt lat="42.4483888" lon="-8.4780044"><ele>552.6</ele><time>2026-03-28T16:26:34.874Z</time></trkpt><trkpt lat="42.4484816" lon="-8.4780413"><ele>552.0</ele><time>2026-03-28T16:26:36.885Z</time></trkpt><trkpt lat="42.4486102" lon="-8.4780115"><ele>552.0</ele><time>2026-03-28T16:26:38.877Z</time></trkpt><trkpt lat="42.448718" lon="-8.477959"><ele>552.0</ele><time>2026-03-28T16:26:40.871Z</time></trkpt><trkpt lat="42.448774" lon="-8.4779134"><ele>552.0</ele><time>2026-03-28T16:26:41.878Z</time></trkpt><trkpt lat="42.4488423" lon="-8.4778785"><ele>552.0</ele><time>2026-03-28T16:26:42.874Z</time></trkpt><trkpt lat="42.448909" lon="-8.4778436"><ele>552.0</ele><time>2026-03-28T16:26:43.881Z</time></trkpt><trkpt lat="42.4489774" lon="-8.4777952"><ele>552.0</ele><time>2026-03-28T16:26:44.874Z</time></trkpt><trkpt lat="42.4490489" lon="-8.4777501"><ele>551.6666666666666</ele><time>2026-03-28T16:26:45.884Z</time></trkpt><trkpt lat="42.4491186" lon="-8.4777035"><ele>551.3333333333334</ele><time>2026-03-28T16:26:46.878Z</time></trkpt><trkpt lat="42.4491757" lon="-8.4776559"><ele>551.0</ele><time>2026-03-28T16:26:47.876Z</time></trkpt><trkpt lat="42.4492306" lon="-8.4776021"><ele>550.6666666666667</ele><time>2026-03-28T16:26:48.878Z</time></trkpt><trkpt lat="42.449283" lon="-8.4775498"><ele>550.3333333333334</ele><time>2026-03-28T16:26:49.884Z</time></trkpt><trkpt lat="42.4493745" lon="-8.4774818"><ele>550.0</ele><time>2026-03-28T16:26:51.878Z</time></trkpt><trkpt lat="42.4494813" lon="-8.4774516"><ele>550.0</ele><time>2026-03-28T16:26:53.876Z</time></trkpt><trkpt lat="42.4495929" lon="-8.4774612"><ele>550.0</ele><time>2026-03-28T16:26:55.87Z</time></trkpt><trkpt lat="42.449699" lon="-8.4775023"><ele>550.0</ele><time>2026-03-28T16:26:57.875Z</time></trkpt><trkpt lat="42.4497907" lon="-8.4775869"><ele>550.0</ele><time>2026-03-28T16:26:59.882Z</time></trkpt><trkpt lat="42.4498407" lon="-8.4776422"><ele>550.0</ele><time>2026-03-28T16:27:00.893Z</time></trkpt><trkpt lat="42.4498997" lon="-8.4776835"><ele>550.2857142857143</ele><time>2026-03-28T16:27:01.882Z</time></trkpt><trkpt lat="42.4499676" lon="-8.4777002"><ele>550.5714285714286</ele><time>2026-03-28T16:27:02.875Z</time></trkpt><trkpt lat="42.4500393" lon="-8.4777084"><ele>550.8571428571429</ele><time>2026-03-28T16:27:03.875Z</time></trkpt><trkpt lat="42.4501057" lon="-8.4777051"><ele>551.1428571428571</ele><time>2026-03-28T16:27:04.875Z</time></trkpt><trkpt lat="42.4501733" lon="-8.477691"><ele>551.4285714285714</ele><time>2026-03-28T16:27:05.884Z</time></trkpt><trkpt lat="42.4502457" lon="-8.4776765"><ele>551.7142857142858</ele><time>2026-03-28T16:27:06.872Z</time></trkpt><trkpt lat="42.4503128" lon="-8.4776669"><ele>552.0</ele><time>2026-03-28T16:27:07.881Z</time></trkpt><trkpt lat="42.450376" lon="-8.4776619"><ele>552.0</ele><time>2026-03-28T16:27:08.877Z</time></trkpt><trkpt lat="42.4504452" lon="-8.4776487"><ele>552.0</ele><time>2026-03-28T16:27:09.881Z</time></trkpt><trkpt lat="42.4505158" lon="-8.4776336"><ele>552.0</ele><time>2026-03-28T16:27:10.874Z</time></trkpt><trkpt lat="42.4505971" lon="-8.4776269"><ele>552.0</ele><time>2026-03-28T16:27:11.872Z</time></trkpt><trkpt lat="42.4506823" lon="-8.4776408"><ele>552.0</ele><time>2026-03-28T16:27:12.878Z</time></trkpt><trkpt lat="42.4507682" lon="-8.4776619"><ele>552.0</ele><time>2026-03-28T16:27:13.878Z</time></trkpt><trkpt lat="42.4508562" lon="-8.4776803"><ele>551.6</ele><time>2026-03-28T16:27:14.875Z</time></trkpt><trkpt lat="42.4509536" lon="-8.4776932"><ele>551.2</ele><time>2026-03-28T16:27:15.877Z</time></trkpt><trkpt lat="42.4510523" lon="-8.477699"><ele>550.8</ele><time>2026-03-28T16:27:16.874Z</time></trkpt><trkpt lat="42.4511461" lon="-8.4776911"><ele>550.4</ele><time>2026-03-28T16:27:17.874Z</time></trkpt><trkpt lat="42.4512429" lon="-8.4776724"><ele>550.0</ele><time>2026-03-28T16:27:18.875Z</time></trkpt><trkpt lat="42.4513478" lon="-8.4776546"><ele>550.0</ele><time>2026-03-28T16:27:19.88Z</time></trkpt><trkpt lat="42.4514507" lon="-8.4776423"><ele>550.0</ele><time>2026-03-28T16:27:20.875Z</time></trkpt><trkpt lat="42.4515453" lon="-8.4776328"><ele>550.0</ele><time>2026-03-28T16:27:21.878Z</time></trkpt><trkpt lat="42.4516375" lon="-8.4776269"><ele>550.0</ele><time>2026-03-28T16:27:22.878Z</time></trkpt><trkpt lat="42.4517324" lon="-8.4776209"><ele>550.0</ele><time>2026-03-28T16:27:23.883Z</time></trkpt><trkpt lat="42.4518263" lon="-8.4776221"><ele>550.0</ele><time>2026-03-28T16:27:24.88Z</time></trkpt><trkpt lat="42.4519208" lon="-8.4776333"><ele>550.0</ele><time>2026-03-28T16:27:25.878Z</time></trkpt><trkpt lat="42.4520173" lon="-8.4776541"><ele>550.0</ele><time>2026-03-28T16:27:26.877Z</time></trkpt><trkpt lat="42.4521156" lon="-8.4776739"><ele>550.0</ele><time>2026-03-28T16:27:27.877Z</time></trkpt><trkpt lat="42.4522169" lon="-8.4776927"><ele>550.0</ele><time>2026-03-28T16:27:28.876Z</time></trkpt><trkpt lat="42.4523092" lon="-8.4777066"><ele>550.0</ele><time>2026-03-28T16:27:29.875Z</time></trkpt><trkpt lat="42.452398" lon="-8.4777156"><ele>550.0</ele><time>2026-03-28T16:27:30.882Z</time></trkpt><trkpt lat="42.4524863" lon="-8.4777252"><ele>550.0</ele><time>2026-03-28T16:27:31.876Z</time></trkpt><trkpt lat="42.4525787" lon="-8.4777365"><ele>550.0</ele><time>2026-03-28T16:27:32.877Z</time></trkpt><trkpt lat="42.4526715" lon="-8.4777499"><ele>550.0</ele><time>2026-03-28T16:27:33.871Z</time></trkpt><trkpt lat="42.4527625" lon="-8.4777618"><ele>550.0</ele><time>2026-03-28T16:27:34.877Z</time></trkpt><trkpt lat="42.4528498" lon="-8.4777683"><ele>550.0</ele><time>2026-03-28T16:27:35.881Z</time></trkpt><trkpt lat="42.4529433" lon="-8.4777631"><ele>550.0</ele><time>2026-03-28T16:27:36.873Z</time></trkpt><trkpt lat="42.4530344" lon="-8.4777565"><ele>550.0</ele><time>2026-03-28T16:27:37.876Z</time></trkpt><trkpt lat="42.4531274" lon="-8.4777443"><ele>550.0</ele><time>2026-03-28T16:27:38.885Z</time></trkpt><trkpt lat="42.4532173" lon="-8.4777238"><ele>549.2</ele><time>2026-03-28T16:27:39.883Z</time></trkpt><trkpt lat="42.4533127" lon="-8.4776947"><ele>548.4</ele><time>2026-03-28T16:27:40.881Z</time></trkpt><trkpt lat="42.4533994" lon="-8.4776645"><ele>547.6</ele><time>2026-03-28T16:27:41.878Z</time></trkpt><trkpt lat="42.4534867" lon="-8.4776386"><ele>546.8</ele><time>2026-03-28T16:27:42.879Z</time></trkpt><trkpt lat="42.4535788" lon="-8.4776202"><ele>546.0</ele><time>2026-03-28T16:27:43.873Z</time></trkpt><trkpt lat="42.453672" lon="-8.4776018"><ele>546.0</ele><time>2026-03-28T16:27:44.882Z</time></trkpt><trkpt lat="42.4537695" lon="-8.4775893"><ele>546.0</ele><time>2026-03-28T16:27:45.879Z</time></trkpt><trkpt lat="42.4538654" lon="-8.4775771"><ele>546.0</ele><time>2026-03-28T16:27:46.887Z</time></trkpt><trkpt lat="42.453962" lon="-8.4775553"><ele>546.0</ele><time>2026-03-28T16:27:47.877Z</time></trkpt><trkpt lat="42.4540537" lon="-8.4775307"><ele>546.0</ele><time>2026-03-28T16:27:48.878Z</time></trkpt><trkpt lat="42.4541443" lon="-8.4775065"><ele>545.5</ele><time>2026-03-28T16:27:49.878Z</time></trkpt><trkpt lat="42.4542271" lon="-8.4774803"><ele>545.0</ele><time>2026-03-28T16:27:50.872Z</time></trkpt><trkpt lat="42.4543019" lon="-8.4774419"><ele>544.5</ele><time>2026-03-28T16:27:51.876Z</time></trkpt><trkpt lat="42.4543779" lon="-8.477394"><ele>544.0</ele><time>2026-03-28T16:27:52.883Z</time></trkpt><trkpt lat="42.4544437" lon="-8.4773389"><ele>543.5</ele><time>2026-03-28T16:27:53.883Z</time></trkpt><trkpt lat="42.4545034" lon="-8.4772774"><ele>543.0</ele><time>2026-03-28T16:27:54.871Z</time></trkpt><trkpt lat="42.4545731" lon="-8.4772083"><ele>542.4</ele><time>2026-03-28T16:27:55.879Z</time></trkpt><trkpt lat="42.4546419" lon="-8.4771324"><ele>541.8</ele><time>2026-03-28T16:27:56.874Z</time></trkpt><trkpt lat="42.4547171" lon="-8.4770483"><ele>541.2</ele><time>2026-03-28T16:27:57.884Z</time></trkpt><trkpt lat="42.4547954" lon="-8.4769682"><ele>540.6</ele><time>2026-03-28T16:27:58.874Z</time></trkpt><trkpt lat="42.4548782" lon="-8.4768916"><ele>540.0</ele><time>2026-03-28T16:27:59.881Z</time></trkpt><trkpt lat="42.4549598" lon="-8.4768186"><ele>540.0</ele><time>2026-03-28T16:28:00.876Z</time></trkpt><trkpt lat="42.4550392" lon="-8.4767459"><ele>540.0</ele><time>2026-03-28T16:28:01.875Z</time></trkpt><trkpt lat="42.4551195" lon="-8.4766813"><ele>540.0</ele><time>2026-03-28T16:28:02.881Z</time></trkpt><trkpt lat="42.4551972" lon="-8.4766409"><ele>540.0</ele><time>2026-03-28T16:28:03.882Z</time></trkpt><trkpt lat="42.4552695" lon="-8.4766089"><ele>540.0</ele><time>2026-03-28T16:28:04.872Z</time></trkpt><trkpt lat="42.4553399" lon="-8.4765948"><ele>540.0</ele><time>2026-03-28T16:28:05.873Z</time></trkpt><trkpt lat="42.4554321" lon="-8.4766041"><ele>539.8333333333334</ele><time>2026-03-28T16:28:06.881Z</time></trkpt><trkpt lat="42.455529" lon="-8.4766171"><ele>539.6666666666666</ele><time>2026-03-28T16:28:07.875Z</time></trkpt><trkpt lat="42.4556219" lon="-8.476617"><ele>539.5</ele><time>2026-03-28T16:28:08.874Z</time></trkpt><trkpt lat="42.4557063" lon="-8.4765974"><ele>539.3333333333333</ele><time>2026-03-28T16:28:09.879Z</time></trkpt><trkpt lat="42.4557863" lon="-8.4765707"><ele>539.1666666666666</ele><time>2026-03-28T16:28:10.883Z</time></trkpt><trkpt lat="42.455853" lon="-8.4765425"><ele>539.0</ele><time>2026-03-28T16:28:11.876Z</time></trkpt><trkpt lat="42.4559157" lon="-8.4765089"><ele>539.0</ele><time>2026-03-28T16:28:12.872Z</time></trkpt><trkpt lat="42.4559769" lon="-8.476468"><ele>539.0</ele><time>2026-03-28T16:28:13.878Z</time></trkpt><trkpt lat="42.4560369" lon="-8.4764206"><ele>539.0</ele><time>2026-03-28T16:28:14.894Z</time></trkpt><trkpt lat="42.4560923" lon="-8.4763752"><ele>539.0</ele><time>2026-03-28T16:28:15.875Z</time></trkpt><trkpt lat="42.4561498" lon="-8.4763286"><ele>539.0</ele><time>2026-03-28T16:28:16.878Z</time></trkpt><trkpt lat="42.4562036" lon="-8.4762733"><ele>539.0</ele><time>2026-03-28T16:28:17.872Z</time></trkpt><trkpt lat="42.4562946" lon="-8.4761765"><ele>539.0</ele><time>2026-03-28T16:28:19.881Z</time></trkpt><trkpt lat="42.4563513" lon="-8.4761179"><ele>539.0</ele><time>2026-03-28T16:28:25.881Z</time></trkpt><trkpt lat="42.4564123" lon="-8.4760846"><ele>539.0</ele><time>2026-03-28T16:28:27.879Z</time></trkpt><trkpt lat="42.4565162" lon="-8.4760401"><ele>539.0</ele><time>2026-03-28T16:28:29.876Z</time></trkpt><trkpt lat="42.4566017" lon="-8.475991"><ele>539.0</ele><time>2026-03-28T16:28:30.874Z</time></trkpt><trkpt lat="42.4566933" lon="-8.4759375"><ele>539.0</ele><time>2026-03-28T16:28:31.886Z</time></trkpt><trkpt lat="42.4567855" lon="-8.4758937"><ele>539.0</ele><time>2026-03-28T16:28:32.879Z</time></trkpt><trkpt lat="42.4568708" lon="-8.4758487"><ele>539.0</ele><time>2026-03-28T16:28:33.882Z</time></trkpt><trkpt lat="42.4569522" lon="-8.4758025"><ele>539.0</ele><time>2026-03-28T16:28:34.874Z</time></trkpt><trkpt lat="42.457029" lon="-8.4757615"><ele>539.0</ele><time>2026-03-28T16:28:35.872Z</time></trkpt><trkpt lat="42.4571122" lon="-8.4757203"><ele>539.0</ele><time>2026-03-28T16:28:36.884Z</time></trkpt><trkpt lat="42.4571963" lon="-8.4756853"><ele>539.0</ele><time>2026-03-28T16:28:37.878Z</time></trkpt><trkpt lat="42.4572868" lon="-8.4756429"><ele>539.0</ele><time>2026-03-28T16:28:38.877Z</time></trkpt><trkpt lat="42.457375" lon="-8.4756036"><ele>539.0</ele><time>2026-03-28T16:28:39.881Z</time></trkpt><trkpt lat="42.4574595" lon="-8.4755738"><ele>539.0</ele><time>2026-03-28T16:28:40.878Z</time></trkpt><trkpt lat="42.4575469" lon="-8.4755528"><ele>539.0</ele><time>2026-03-28T16:28:41.873Z</time></trkpt><trkpt lat="42.4576284" lon="-8.4755425"><ele>539.0</ele><time>2026-03-28T16:28:42.879Z</time></trkpt><trkpt lat="42.4577063" lon="-8.4755434"><ele>539.0</ele><time>2026-03-28T16:28:43.879Z</time></trkpt><trkpt lat="42.4577831" lon="-8.4755501"><ele>539.0</ele><time>2026-03-28T16:28:44.879Z</time></trkpt><trkpt lat="42.4578527" lon="-8.4755562"><ele>539.0</ele><time>2026-03-28T16:28:45.871Z</time></trkpt><trkpt lat="42.4579225" lon="-8.4755564"><ele>539.0</ele><time>2026-03-28T16:28:46.882Z</time></trkpt><trkpt lat="42.457984" lon="-8.4755319"><ele>539.0</ele><time>2026-03-28T16:28:47.877Z</time></trkpt><trkpt lat="42.4580523" lon="-8.4754929"><ele>539.0</ele><time>2026-03-28T16:28:48.873Z</time></trkpt><trkpt lat="42.4581215" lon="-8.4754394"><ele>539.0</ele><time>2026-03-28T16:28:49.87Z</time></trkpt><trkpt lat="42.4581818" lon="-8.475377"><ele>539.0</ele><time>2026-03-28T16:28:50.882Z</time></trkpt><trkpt lat="42.4582366" lon="-8.4753032"><ele>537.2857142857143</ele><time>2026-03-28T16:28:51.876Z</time></trkpt><trkpt lat="42.4582836" lon="-8.4752357"><ele>535.5714285714286</ele><time>2026-03-28T16:28:52.879Z</time></trkpt><trkpt lat="42.4583407" lon="-8.4751794"><ele>533.8571428571429</ele><time>2026-03-28T16:28:53.879Z</time></trkpt><trkpt lat="42.4584082" lon="-8.4751313"><ele>532.1428571428571</ele><time>2026-03-28T16:28:54.873Z</time></trkpt><trkpt lat="42.4584819" lon="-8.4750982"><ele>530.4285714285714</ele><time>2026-03-28T16:28:55.872Z</time></trkpt><trkpt lat="42.4585533" lon="-8.4750786"><ele>528.7142857142858</ele><time>2026-03-28T16:28:56.89Z</time></trkpt><trkpt lat="42.4586261" lon="-8.4750723"><ele>527.0</ele><time>2026-03-28T16:28:57.879Z</time></trkpt><trkpt lat="42.4587009" lon="-8.4750836"><ele>527.0</ele><time>2026-03-28T16:28:58.881Z</time></trkpt><trkpt lat="42.4587785" lon="-8.4751082"><ele>527.0</ele><time>2026-03-28T16:28:59.874Z</time></trkpt><trkpt lat="42.4588561" lon="-8.4751306"><ele>527.0</ele><time>2026-03-28T16:29:00.876Z</time></trkpt><trkpt lat="42.4589348" lon="-8.4751514"><ele>527.0</ele><time>2026-03-28T16:29:01.891Z</time></trkpt><trkpt lat="42.4590041" lon="-8.4751708"><ele>527.0</ele><time>2026-03-28T16:29:02.88Z</time></trkpt><trkpt lat="42.459072" lon="-8.4751916"><ele>527.0</ele><time>2026-03-28T16:29:03.873Z</time></trkpt><trkpt lat="42.4591418" lon="-8.4752127"><ele>526.0000000000001</ele><time>2026-03-28T16:29:04.869Z</time></trkpt><trkpt lat="42.4592078" lon="-8.4752292"><ele>525.0</ele><time>2026-03-28T16:29:05.875Z</time></trkpt><trkpt lat="42.4592709" lon="-8.4752468"><ele>524.0</ele><time>2026-03-28T16:29:06.88Z</time></trkpt><trkpt lat="42.4593466" lon="-8.4752004"><ele>523.0</ele><time>2026-03-28T16:29:08.872Z</time></trkpt><trkpt lat="42.459337" lon="-8.4750963"><ele>522.0</ele><time>2026-03-28T16:29:10.873Z</time></trkpt><trkpt lat="42.4592865" lon="-8.4750264"><ele>521.0000000000001</ele><time>2026-03-28T16:29:14.875Z</time></trkpt><trkpt lat="42.4592555" lon="-8.47494"><ele>520.0</ele><time>2026-03-28T16:29:43.878Z</time></trkpt><trkpt lat="42.459246" lon="-8.4748448"><ele>520.0</ele><time>2026-03-28T16:29:45.879Z</time></trkpt><trkpt lat="42.4592375" lon="-8.4747349"><ele>520.0</ele><time>2026-03-28T16:29:47.88Z</time></trkpt><trkpt lat="42.4592072" lon="-8.4746071"><ele>520.0</ele><time>2026-03-28T16:29:49.88Z</time></trkpt><trkpt lat="42.4591783" lon="-8.4744515"><ele>520.0</ele><time>2026-03-28T16:29:51.875Z</time></trkpt><trkpt lat="42.4591585" lon="-8.4743675"><ele>520.0</ele><time>2026-03-28T16:29:52.876Z</time></trkpt><trkpt lat="42.4591332" lon="-8.4742801"><ele>520.0</ele><time>2026-03-28T16:29:53.875Z</time></trkpt><trkpt lat="42.4591063" lon="-8.4741838"><ele>520.1666666666667</ele><time>2026-03-28T16:29:54.875Z</time></trkpt><trkpt lat="42.4590813" lon="-8.4740831"><ele>520.3333333333334</ele><time>2026-03-28T16:29:55.876Z</time></trkpt><trkpt lat="42.4590559" lon="-8.4739867"><ele>520.5</ele><time>2026-03-28T16:29:56.875Z</time></trkpt><trkpt lat="42.4590263" lon="-8.4738902"><ele>520.6666666666666</ele><time>2026-03-28T16:29:57.872Z</time></trkpt><trkpt lat="42.4590058" lon="-8.4737926"><ele>520.8333333333333</ele><time>2026-03-28T16:29:58.882Z</time></trkpt><trkpt lat="42.4589871" lon="-8.4736884"><ele>521.0</ele><time>2026-03-28T16:29:59.871Z</time></trkpt><trkpt lat="42.4589704" lon="-8.4735862"><ele>519.5</ele><time>2026-03-28T16:30:00.881Z</time></trkpt><trkpt lat="42.4589504" lon="-8.4734922"><ele>518.0</ele><time>2026-03-28T16:30:01.875Z</time></trkpt><trkpt lat="42.4589319" lon="-8.4734001"><ele>516.5</ele><time>2026-03-28T16:30:02.873Z</time></trkpt><trkpt lat="42.4589062" lon="-8.4733082"><ele>515.0</ele><time>2026-03-28T16:30:03.882Z</time></trkpt><trkpt lat="42.4588802" lon="-8.4732188"><ele>513.5</ele><time>2026-03-28T16:30:04.876Z</time></trkpt><trkpt lat="42.4588394" lon="-8.4730686"><ele>512.0</ele><time>2026-03-28T16:30:06.871Z</time></trkpt><trkpt lat="42.4588241" lon="-8.472934"><ele>509.99999999999994</ele><time>2026-03-28T16:30:08.875Z</time></trkpt><trkpt lat="42.458822" lon="-8.4728305"><ele>508.0</ele><time>2026-03-28T16:30:10.881Z</time></trkpt><trkpt lat="42.4588028" lon="-8.4727072"><ele>506.0</ele><time>2026-03-28T16:30:16.886Z</time></trkpt><trkpt lat="42.4588" lon="-8.4726113"><ele>504.0</ele><time>2026-03-28T16:30:19.874Z</time></trkpt><trkpt lat="42.4587503" lon="-8.4725514"><ele>501.99999999999994</ele><time>2026-03-28T16:30:25.886Z</time></trkpt><trkpt lat="42.4586716" lon="-8.4725398"><ele>500.0</ele><time>2026-03-28T16:30:28.883Z</time></trkpt><trkpt lat="42.4585881" lon="-8.4725297"><ele>499.99999999999994</ele><time>2026-03-28T16:30:30.883Z</time></trkpt><trkpt lat="42.4585022" lon="-8.4725186"><ele>500.0</ele><time>2026-03-28T16:30:32.876Z</time></trkpt><trkpt lat="42.4584396" lon="-8.4724641"><ele>500.0</ele><time>2026-03-28T16:30:36.877Z</time></trkpt><trkpt lat="42.4583614" lon="-8.4724051"><ele>500.0</ele><time>2026-03-28T16:30:40.874Z</time></trkpt><trkpt lat="42.4583184" lon="-8.4723415"><ele>499.99999999999994</ele><time>2026-03-28T16:30:42.874Z</time></trkpt><trkpt lat="42.4582644" lon="-8.4722351"><ele>500.0</ele><time>2026-03-28T16:30:45.883Z</time></trkpt><trkpt lat="42.4582416" lon="-8.4721404"><ele>498.8333333333333</ele><time>2026-03-28T16:30:47.872Z</time></trkpt><trkpt lat="42.4582489" lon="-8.4720346"><ele>497.66666666666663</ele><time>2026-03-28T16:30:49.876Z</time></trkpt><trkpt lat="42.4582541" lon="-8.4719222"><ele>496.5</ele><time>2026-03-28T16:30:51.883Z</time></trkpt><trkpt lat="42.4582565" lon="-8.4718069"><ele>495.33333333333337</ele><time>2026-03-28T16:30:53.876Z</time></trkpt><trkpt lat="42.4582422" lon="-8.4716928"><ele>494.1666666666667</ele><time>2026-03-28T16:30:55.872Z</time></trkpt><trkpt lat="42.4582828" lon="-8.4715812"><ele>493.0</ele><time>2026-03-28T16:30:57.879Z</time></trkpt><trkpt lat="42.458315" lon="-8.4714858"><ele>493.00000000000006</ele><time>2026-03-28T16:30:59.869Z</time></trkpt><trkpt lat="42.4583477" lon="-8.4714084"><ele>493.0</ele><time>2026-03-28T16:31:01.871Z</time></trkpt><trkpt lat="42.4583842" lon="-8.4713318"><ele>493.0</ele><time>2026-03-28T16:31:03.878Z</time></trkpt><trkpt lat="42.458431" lon="-8.4712134"><ele>493.0</ele><time>2026-03-28T16:31:05.879Z</time></trkpt><trkpt lat="42.4584785" lon="-8.4710811"><ele>493.00000000000006</ele><time>2026-03-28T16:31:07.877Z</time></trkpt><trkpt lat="42.4585295" lon="-8.4709706"><ele>493.0</ele><time>2026-03-28T16:31:09.879Z</time></trkpt><trkpt lat="42.4585628" lon="-8.4708795"><ele>491.59999999999997</ele><time>2026-03-28T16:31:11.882Z</time></trkpt><trkpt lat="42.4586259" lon="-8.4707798"><ele>490.19999999999993</ele><time>2026-03-28T16:31:13.874Z</time></trkpt><trkpt lat="42.4586982" lon="-8.470683"><ele>488.8</ele><time>2026-03-28T16:31:15.879Z</time></trkpt><trkpt lat="42.4587725" lon="-8.4705655"><ele>487.4</ele><time>2026-03-28T16:31:17.875Z</time></trkpt><trkpt lat="42.4588145" lon="-8.4704364"><ele>486.0</ele><time>2026-03-28T16:31:19.879Z</time></trkpt><trkpt lat="42.4588416" lon="-8.4702903"><ele>484.1666666666667</ele><time>2026-03-28T16:31:21.877Z</time></trkpt><trkpt lat="42.4588374" lon="-8.4701575"><ele>482.33333333333337</ele><time>2026-03-28T16:31:23.877Z</time></trkpt><trkpt lat="42.458807" lon="-8.4700506"><ele>480.5</ele><time>2026-03-28T16:31:25.879Z</time></trkpt><trkpt lat="42.4587613" lon="-8.4699564"><ele>478.6666666666667</ele><time>2026-03-28T16:31:27.876Z</time></trkpt><trkpt lat="42.4587179" lon="-8.4698591"><ele>476.83333333333337</ele><time>2026-03-28T16:31:29.872Z</time></trkpt><trkpt lat="42.458684" lon="-8.4697708"><ele>475.0</ele><time>2026-03-28T16:31:31.871Z</time></trkpt><trkpt lat="42.4586695" lon="-8.4696772"><ele>473.1666666666667</ele><time>2026-03-28T16:31:33.876Z</time></trkpt><trkpt lat="42.4586957" lon="-8.4695888"><ele>471.33333333333337</ele><time>2026-03-28T16:31:35.876Z</time></trkpt><trkpt lat="42.4587576" lon="-8.4694544"><ele>469.5</ele><time>2026-03-28T16:31:37.872Z</time></trkpt><trkpt lat="42.4588209" lon="-8.4693752"><ele>467.66666666666663</ele><time>2026-03-28T16:31:38.88Z</time></trkpt><trkpt lat="42.4588743" lon="-8.4693057"><ele>465.8333333333333</ele><time>2026-03-28T16:31:39.875Z</time></trkpt><trkpt lat="42.4589263" lon="-8.4692356"><ele>464.0</ele><time>2026-03-28T16:31:40.876Z</time></trkpt><trkpt lat="42.4589754" lon="-8.4691583"><ele>464.0</ele><time>2026-03-28T16:31:41.879Z</time></trkpt><trkpt lat="42.459021" lon="-8.4690815"><ele>464.0</ele><time>2026-03-28T16:31:42.871Z</time></trkpt><trkpt lat="42.459083" lon="-8.4689528"><ele>464.0</ele><time>2026-03-28T16:31:44.874Z</time></trkpt><trkpt lat="42.4591645" lon="-8.4688563"><ele>464.0</ele><time>2026-03-28T16:31:46.877Z</time></trkpt><trkpt lat="42.459266" lon="-8.4688146"><ele>464.0</ele><time>2026-03-28T16:31:48.878Z</time></trkpt><trkpt lat="42.459374" lon="-8.4687901"><ele>463.99999999999994</ele><time>2026-03-28T16:31:50.874Z</time></trkpt><trkpt lat="42.4594818" lon="-8.4687912"><ele>464.0</ele><time>2026-03-28T16:31:52.88Z</time></trkpt><trkpt lat="42.4595512" lon="-8.4688406"><ele>464.0</ele><time>2026-03-28T16:31:54.871Z</time></trkpt><trkpt lat="42.4596043" lon="-8.4689012"><ele>464.0</ele><time>2026-03-28T16:31:56.878Z</time></trkpt><trkpt lat="42.4596793" lon="-8.4689295"><ele>463.99999999999994</ele><time>2026-03-28T16:31:58.876Z</time></trkpt><trkpt lat="42.4597605" lon="-8.4688865"><ele>464.0</ele><time>2026-03-28T16:32:00.874Z</time></trkpt><trkpt lat="42.4598439" lon="-8.4687968"><ele>463.2</ele><time>2026-03-28T16:32:02.874Z</time></trkpt><trkpt lat="42.4599237" lon="-8.4687121"><ele>462.4</ele><time>2026-03-28T16:32:04.877Z</time></trkpt><trkpt lat="42.4600085" lon="-8.4686915"><ele>461.6</ele><time>2026-03-28T16:32:07.875Z</time></trkpt><trkpt lat="42.4600524" lon="-8.4687707"><ele>460.8</ele><time>2026-03-28T16:32:09.877Z</time></trkpt><trkpt lat="42.4601322" lon="-8.4688593"><ele>460.0</ele><time>2026-03-28T16:32:12.873Z</time></trkpt><trkpt lat="42.4602089" lon="-8.4689857"><ele>460.00000000000006</ele><time>2026-03-28T16:32:14.881Z</time></trkpt><trkpt lat="42.4602506" lon="-8.4690503"><ele>460.0</ele><time>2026-03-28T16:32:15.874Z</time></trkpt><trkpt lat="42.4603298" lon="-8.4691808"><ele>460.0</ele><time>2026-03-28T16:32:17.873Z</time></trkpt><trkpt lat="42.460373" lon="-8.4692482"><ele>460.0</ele><time>2026-03-28T16:32:18.875Z</time></trkpt><trkpt lat="42.4604641" lon="-8.4693599"><ele>460.00000000000006</ele><time>2026-03-28T16:32:20.873Z</time></trkpt><trkpt lat="42.4605168" lon="-8.4694137"><ele>460.0</ele><time>2026-03-28T16:32:21.881Z</time></trkpt><trkpt lat="42.4605725" lon="-8.4694596"><ele>459.50000000000006</ele><time>2026-03-28T16:32:22.882Z</time></trkpt><trkpt lat="42.4606257" lon="-8.4695169"><ele>459.0</ele><time>2026-03-28T16:32:23.873Z</time></trkpt><trkpt lat="42.4606829" lon="-8.469582"><ele>458.5</ele><time>2026-03-28T16:32:24.876Z</time></trkpt><trkpt lat="42.4607428" lon="-8.4696498"><ele>458.0</ele><time>2026-03-28T16:32:25.88Z</time></trkpt><trkpt lat="42.4607943" lon="-8.4697286"><ele>457.50000000000006</ele><time>2026-03-28T16:32:26.873Z</time></trkpt><trkpt lat="42.4608463" lon="-8.4697891"><ele>457.0</ele><time>2026-03-28T16:32:27.875Z</time></trkpt><trkpt lat="42.460935" lon="-8.4699047"><ele>456.8</ele><time>2026-03-28T16:32:29.876Z</time></trkpt><trkpt lat="42.4610187" lon="-8.4700098"><ele>456.6</ele><time>2026-03-28T16:32:31.874Z</time></trkpt><trkpt lat="42.4611152" lon="-8.4700824"><ele>456.40000000000003</ele><time>2026-03-28T16:32:33.872Z</time></trkpt><trkpt lat="42.4611635" lon="-8.4701748"><ele>456.20000000000005</ele><time>2026-03-28T16:32:35.889Z</time></trkpt><trkpt lat="42.461245" lon="-8.4702744"><ele>456.0</ele><time>2026-03-28T16:32:37.871Z</time></trkpt><trkpt lat="42.4613271" lon="-8.4704"><ele>457.6</ele><time>2026-03-28T16:32:39.878Z</time></trkpt><trkpt lat="42.4613588" lon="-8.4704765"><ele>459.20000000000005</ele><time>2026-03-28T16:32:40.876Z</time></trkpt><trkpt lat="42.461414" lon="-8.4706185"><ele>460.79999999999995</ele><time>2026-03-28T16:32:42.876Z</time></trkpt><trkpt lat="42.4614307" lon="-8.4707624"><ele>462.4</ele><time>2026-03-28T16:32:44.879Z</time></trkpt><trkpt lat="42.4614308" lon="-8.4709129"><ele>464.0</ele><time>2026-03-28T16:32:46.875Z</time></trkpt><trkpt lat="42.4614398" lon="-8.471055"><ele>463.99999999999994</ele><time>2026-03-28T16:32:48.886Z</time></trkpt><trkpt lat="42.4614852" lon="-8.4711594"><ele>464.0</ele><time>2026-03-28T16:32:50.885Z</time></trkpt><trkpt lat="42.4615488" lon="-8.471261"><ele>464.0</ele><time>2026-03-28T16:32:52.877Z</time></trkpt><trkpt lat="42.4616241" lon="-8.4713315"><ele>464.0</ele><time>2026-03-28T16:32:54.877Z</time></trkpt><trkpt lat="42.4616995" lon="-8.471395"><ele>463.99999999999994</ele><time>2026-03-28T16:32:56.88Z</time></trkpt><trkpt lat="42.4617538" lon="-8.4714591"><ele>464.0</ele><time>2026-03-28T16:32:58.873Z</time></trkpt><trkpt lat="42.4618282" lon="-8.471541"><ele>466.6</ele><time>2026-03-28T16:33:00.874Z</time></trkpt><trkpt lat="42.4619015" lon="-8.4716397"><ele>469.2</ele><time>2026-03-28T16:33:02.876Z</time></trkpt><trkpt lat="42.4619738" lon="-8.4717363"><ele>471.80000000000007</ele><time>2026-03-28T16:33:04.883Z</time></trkpt><trkpt lat="42.4620279" lon="-8.4718247"><ele>474.40000000000003</ele><time>2026-03-28T16:33:06.881Z</time></trkpt><trkpt lat="42.4620739" lon="-8.4719334"><ele>477.0</ele><time>2026-03-28T16:33:08.876Z</time></trkpt><trkpt lat="42.4621139" lon="-8.4720341"><ele>474.6</ele><time>2026-03-28T16:33:10.876Z</time></trkpt><trkpt lat="42.4621649" lon="-8.4721343"><ele>472.20000000000005</ele><time>2026-03-28T16:33:12.877Z</time></trkpt><trkpt lat="42.4622088" lon="-8.4722449"><ele>469.8</ele><time>2026-03-28T16:33:14.875Z</time></trkpt><trkpt lat="42.462252" lon="-8.4723464"><ele>467.4</ele><time>2026-03-28T16:33:16.877Z</time></trkpt><trkpt lat="42.4622847" lon="-8.4724746"><ele>465.0</ele><time>2026-03-28T16:33:18.876Z</time></trkpt><trkpt lat="42.4623418" lon="-8.4726111"><ele>465.0</ele><time>2026-03-28T16:33:20.87Z</time></trkpt><trkpt lat="42.4623814" lon="-8.4726804"><ele>465.0</ele><time>2026-03-28T16:33:21.88Z</time></trkpt><trkpt lat="42.4624257" lon="-8.4727497"><ele>465.0</ele><time>2026-03-28T16:33:22.875Z</time></trkpt><trkpt lat="42.4624679" lon="-8.4728234"><ele>465.0</ele><time>2026-03-28T16:33:23.876Z</time></trkpt><trkpt lat="42.4625449" lon="-8.4729451"><ele>465.0</ele><time>2026-03-28T16:33:25.872Z</time></trkpt><trkpt lat="42.4625579" lon="-8.4730515"><ele>465.0</ele><time>2026-03-28T16:33:27.878Z</time></trkpt><trkpt lat="42.4625905" lon="-8.4731445"><ele>465.71428571428567</ele><time>2026-03-28T16:33:29.872Z</time></trkpt><trkpt lat="42.462617" lon="-8.4732269"><ele>466.42857142857144</ele><time>2026-03-28T16:33:31.871Z</time></trkpt><trkpt lat="42.4626506" lon="-8.4733294"><ele>467.1428571428571</ele><time>2026-03-28T16:33:33.873Z</time></trkpt><trkpt lat="42.4626897" lon="-8.4734382"><ele>467.85714285714283</ele><time>2026-03-28T16:33:35.877Z</time></trkpt><trkpt lat="42.4627259" lon="-8.4735173"><ele>468.57142857142856</ele><time>2026-03-28T16:33:37.878Z</time></trkpt><trkpt lat="42.4627615" lon="-8.4736052"><ele>469.2857142857143</ele><time>2026-03-28T16:33:39.879Z</time></trkpt><trkpt lat="42.4627825" lon="-8.4736882"><ele>470.0</ele><time>2026-03-28T16:33:41.882Z</time></trkpt><trkpt lat="42.462784" lon="-8.4737905"><ele>471.4</ele><time>2026-03-28T16:33:43.877Z</time></trkpt><trkpt lat="42.4627822" lon="-8.4739194"><ele>472.8</ele><time>2026-03-28T16:33:45.877Z</time></trkpt><trkpt lat="42.4627912" lon="-8.4740377"><ele>474.20000000000005</ele><time>2026-03-28T16:33:47.875Z</time></trkpt><trkpt lat="42.4628187" lon="-8.474155"><ele>475.6</ele><time>2026-03-28T16:33:49.872Z</time></trkpt><trkpt lat="42.4628365" lon="-8.4742955"><ele>477.0</ele><time>2026-03-28T16:33:51.873Z</time></trkpt><trkpt lat="42.462868" lon="-8.4744478"><ele>477.0</ele><time>2026-03-28T16:33:53.877Z</time></trkpt><trkpt lat="42.4629184" lon="-8.4745855"><ele>477.00000000000006</ele><time>2026-03-28T16:33:55.877Z</time></trkpt><trkpt lat="42.4629745" lon="-8.4747022"><ele>477.00000000000006</ele><time>2026-03-28T16:33:57.873Z</time></trkpt><trkpt lat="42.4630165" lon="-8.4748248"><ele>477.0</ele><time>2026-03-28T16:33:59.869Z</time></trkpt><trkpt lat="42.4630279" lon="-8.4749647"><ele>477.0</ele><time>2026-03-28T16:34:01.873Z</time></trkpt><trkpt lat="42.463045" lon="-8.4751113"><ele>475.5</ele><time>2026-03-28T16:34:03.875Z</time></trkpt><trkpt lat="42.4630807" lon="-8.475269"><ele>474.0</ele><time>2026-03-28T16:34:05.877Z</time></trkpt><trkpt lat="42.4630947" lon="-8.4753549"><ele>472.5</ele><time>2026-03-28T16:34:06.878Z</time></trkpt><trkpt lat="42.4631107" lon="-8.4754431"><ele>471.0</ele><time>2026-03-28T16:34:07.872Z</time></trkpt><trkpt lat="42.463133" lon="-8.4755381"><ele>469.5</ele><time>2026-03-28T16:34:08.873Z</time></trkpt><trkpt lat="42.4631654" lon="-8.4756308"><ele>468.0</ele><time>2026-03-28T16:34:09.871Z</time></trkpt><trkpt lat="42.463206" lon="-8.475702"><ele>468.0</ele><time>2026-03-28T16:34:10.871Z</time></trkpt><trkpt lat="42.4632512" lon="-8.4757759"><ele>468.0</ele><time>2026-03-28T16:34:11.867Z</time></trkpt><trkpt lat="42.4632979" lon="-8.475852"><ele>468.0</ele><time>2026-03-28T16:34:12.872Z</time></trkpt><trkpt lat="42.46335" lon="-8.4759276"><ele>468.0</ele><time>2026-03-28T16:34:13.879Z</time></trkpt><trkpt lat="42.463407" lon="-8.4760056"><ele>468.0</ele><time>2026-03-28T16:34:14.87Z</time></trkpt><trkpt lat="42.4634619" lon="-8.4760872"><ele>468.0</ele><time>2026-03-28T16:34:15.873Z</time></trkpt><trkpt lat="42.4635092" lon="-8.4761721"><ele>468.0</ele><time>2026-03-28T16:34:16.872Z</time></trkpt><trkpt lat="42.4635486" lon="-8.4762518"><ele>467.99999999999994</ele><time>2026-03-28T16:34:17.875Z</time></trkpt><trkpt lat="42.4636188" lon="-8.4763778"><ele>467.99999999999994</ele><time>2026-03-28T16:34:19.88Z</time></trkpt><trkpt lat="42.4636807" lon="-8.4764943"><ele>468.0</ele><time>2026-03-28T16:34:21.877Z</time></trkpt><trkpt lat="42.4637396" lon="-8.4766123"><ele>468.0</ele><time>2026-03-28T16:34:23.876Z</time></trkpt><trkpt lat="42.4637793" lon="-8.4767376"><ele>468.0</ele><time>2026-03-28T16:34:25.879Z</time></trkpt><trkpt lat="42.4638309" lon="-8.4767976"><ele>468.0</ele><time>2026-03-28T16:34:27.88Z</time></trkpt><trkpt lat="42.4638959" lon="-8.4768392"><ele>468.0</ele><time>2026-03-28T16:34:29.876Z</time></trkpt><trkpt lat="42.4639744" lon="-8.4768897"><ele>468.0</ele><time>2026-03-28T16:34:31.871Z</time></trkpt><trkpt lat="42.4640516" lon="-8.476953"><ele>468.0</ele><time>2026-03-28T16:34:33.875Z</time></trkpt><trkpt lat="42.4641125" lon="-8.4769975"><ele>468.0</ele><time>2026-03-28T16:34:35.885Z</time></trkpt><trkpt lat="42.46417" lon="-8.4770455"><ele>468.0</ele><time>2026-03-28T16:34:41.875Z</time></trkpt><trkpt lat="42.4642358" lon="-8.4770789"><ele>468.0</ele><time>2026-03-28T16:34:43.883Z</time></trkpt><trkpt lat="42.4643111" lon="-8.4770995"><ele>468.0</ele><time>2026-03-28T16:34:45.872Z</time></trkpt><trkpt lat="42.4643838" lon="-8.4771124"><ele>468.0</ele><time>2026-03-28T16:34:47.876Z</time></trkpt><trkpt lat="42.4644632" lon="-8.477108"><ele>468.0</ele><time>2026-03-28T16:34:50.874Z</time></trkpt><trkpt lat="42.464542" lon="-8.4770986"><ele>468.0</ele><time>2026-03-28T16:34:53.878Z</time></trkpt><trkpt lat="42.4646195" lon="-8.4770983"><ele>468.79999999999995</ele><time>2026-03-28T16:34:55.881Z</time></trkpt><trkpt lat="42.4647055" lon="-8.4770928"><ele>469.59999999999997</ele><time>2026-03-28T16:34:57.87Z</time></trkpt><trkpt lat="42.4648125" lon="-8.4770874"><ele>470.40000000000003</ele><time>2026-03-28T16:34:59.873Z</time></trkpt><trkpt lat="42.4649106" lon="-8.477052"><ele>471.20000000000005</ele><time>2026-03-28T16:35:01.874Z</time></trkpt><trkpt lat="42.4650108" lon="-8.4770868"><ele>472.0</ele><time>2026-03-28T16:35:03.878Z</time></trkpt><trkpt lat="42.4650915" lon="-8.4771226"><ele>472.00000000000006</ele><time>2026-03-28T16:35:05.873Z</time></trkpt><trkpt lat="42.4651857" lon="-8.4771638"><ele>472.0</ele><time>2026-03-28T16:35:07.873Z</time></trkpt><trkpt lat="42.465267" lon="-8.4772074"><ele>472.0</ele><time>2026-03-28T16:35:09.875Z</time></trkpt><trkpt lat="42.4653366" lon="-8.4772553"><ele>472.0</ele><time>2026-03-28T16:35:11.873Z</time></trkpt><trkpt lat="42.4654142" lon="-8.4772916"><ele>472.00000000000006</ele><time>2026-03-28T16:35:13.876Z</time></trkpt><trkpt lat="42.4654923" lon="-8.477334"><ele>472.0</ele><time>2026-03-28T16:35:15.876Z</time></trkpt><trkpt lat="42.4655726" lon="-8.4773548"><ele>470.50000000000006</ele><time>2026-03-28T16:35:17.875Z</time></trkpt><trkpt lat="42.4656617" lon="-8.4773599"><ele>469.0</ele><time>2026-03-28T16:35:19.868Z</time></trkpt><trkpt lat="42.4657288" lon="-8.4773787"><ele>467.5</ele><time>2026-03-28T16:35:21.867Z</time></trkpt><trkpt lat="42.4658195" lon="-8.477395"><ele>466.0</ele><time>2026-03-28T16:35:24.87Z</time></trkpt><trkpt lat="42.4658943" lon="-8.4774068"><ele>464.50000000000006</ele><time>2026-03-28T16:35:27.889Z</time></trkpt><trkpt lat="42.4659653" lon="-8.4774009"><ele>463.0</ele><time>2026-03-28T16:35:30.867Z</time></trkpt><trkpt lat="42.4660407" lon="-8.4773989"><ele>463.00000000000006</ele><time>2026-03-28T16:35:32.873Z</time></trkpt><trkpt lat="42.4661126" lon="-8.4773825"><ele>463.0</ele><time>2026-03-28T16:35:35.877Z</time></trkpt><trkpt lat="42.4661991" lon="-8.4773567"><ele>463.0</ele><time>2026-03-28T16:35:38.872Z</time></trkpt><trkpt lat="42.4662705" lon="-8.4773582"><ele>463.0</ele><time>2026-03-28T16:35:40.876Z</time></trkpt><trkpt lat="42.4663521" lon="-8.4773554"><ele>463.00000000000006</ele><time>2026-03-28T16:35:42.879Z</time></trkpt><trkpt lat="42.4664559" lon="-8.4773605"><ele>463.0</ele><time>2026-03-28T16:35:44.876Z</time></trkpt><trkpt lat="42.4665346" lon="-8.4773745"><ele>460.50000000000006</ele><time>2026-03-28T16:35:46.87Z</time></trkpt><trkpt lat="42.4666085" lon="-8.4773812"><ele>458.0</ele><time>2026-03-28T16:35:50.88Z</time></trkpt><trkpt lat="42.4666923" lon="-8.4773653"><ele>455.5</ele><time>2026-03-28T16:35:53.877Z</time></trkpt><trkpt lat="42.4667816" lon="-8.4773529"><ele>453.0</ele><time>2026-03-28T16:35:56.878Z</time></trkpt><trkpt lat="42.4668471" lon="-8.4773562"><ele>450.50000000000006</ele><time>2026-03-28T16:35:58.873Z</time></trkpt><trkpt lat="42.4669314" lon="-8.4773403"><ele>448.0</ele><time>2026-03-28T16:36:01.881Z</time></trkpt><trkpt lat="42.4670046" lon="-8.477337"><ele>448.00000000000006</ele><time>2026-03-28T16:36:03.869Z</time></trkpt><trkpt lat="42.467086" lon="-8.47735"><ele>448.0</ele><time>2026-03-28T16:36:05.878Z</time></trkpt><trkpt lat="42.4671544" lon="-8.4773814"><ele>448.0</ele><time>2026-03-28T16:36:07.868Z</time></trkpt><trkpt lat="42.4672152" lon="-8.4774255"><ele>448.0</ele><time>2026-03-28T16:36:09.878Z</time></trkpt><trkpt lat="42.467289" lon="-8.4774665"><ele>448.00000000000006</ele><time>2026-03-28T16:36:12.875Z</time></trkpt><trkpt lat="42.4673794" lon="-8.4774976"><ele>448.0</ele><time>2026-03-28T16:36:15.866Z</time></trkpt><trkpt lat="42.4674526" lon="-8.4775264"><ele>445.7142857142857</ele><time>2026-03-28T16:36:19.874Z</time></trkpt><trkpt lat="42.4675176" lon="-8.4775466"><ele>443.42857142857144</ele><time>2026-03-28T16:36:22.868Z</time></trkpt><trkpt lat="42.4675838" lon="-8.4775301"><ele>441.1428571428571</ele><time>2026-03-28T16:36:24.88Z</time></trkpt><trkpt lat="42.4676454" lon="-8.4775504"><ele>438.8571428571429</ele><time>2026-03-28T16:36:26.871Z</time></trkpt><trkpt lat="42.4677176" lon="-8.4775805"><ele>436.57142857142856</ele><time>2026-03-28T16:36:28.87Z</time></trkpt><trkpt lat="42.4677958" lon="-8.4776116"><ele>434.2857142857143</ele><time>2026-03-28T16:36:30.864Z</time></trkpt><trkpt lat="42.4678618" lon="-8.4776335"><ele>432.0</ele><time>2026-03-28T16:36:32.879Z</time></trkpt><trkpt lat="42.4679255" lon="-8.4776476"><ele>430.5</ele><time>2026-03-28T16:36:34.871Z</time></trkpt><trkpt lat="42.4680182" lon="-8.4776474"><ele>429.0</ele><time>2026-03-28T16:36:37.871Z</time></trkpt><trkpt lat="42.4680884" lon="-8.4776596"><ele>427.5</ele><time>2026-03-28T16:36:39.868Z</time></trkpt><trkpt lat="42.4681577" lon="-8.4776849"><ele>426.0</ele><time>2026-03-28T16:36:41.869Z</time></trkpt><trkpt lat="42.4682315" lon="-8.4777156"><ele>424.5</ele><time>2026-03-28T16:36:43.876Z</time></trkpt><trkpt lat="42.4683246" lon="-8.4777578"><ele>423.0</ele><time>2026-03-28T16:36:45.872Z</time></trkpt><trkpt lat="42.4684192" lon="-8.4778044"><ele>423.0</ele><time>2026-03-28T16:36:47.88Z</time></trkpt><trkpt lat="42.4684888" lon="-8.4778469"><ele>423.0</ele><time>2026-03-28T16:36:49.884Z</time></trkpt><trkpt lat="42.4685566" lon="-8.4779268"><ele>423.0</ele><time>2026-03-28T16:36:52.872Z</time></trkpt><trkpt lat="42.4686022" lon="-8.477986"><ele>423.0</ele><time>2026-03-28T16:36:54.868Z</time></trkpt><trkpt lat="42.4686606" lon="-8.4780842"><ele>423.0</ele><time>2026-03-28T16:36:57.869Z</time></trkpt><trkpt lat="42.4687" lon="-8.4781538"><ele>423.0</ele><time>2026-03-28T16:36:59.864Z</time></trkpt><trkpt lat="42.4687538" lon="-8.4782172"><ele>421.85714285714283</ele><time>2026-03-28T16:37:01.868Z</time></trkpt><trkpt lat="42.4687956" lon="-8.4782846"><ele>420.7142857142857</ele><time>2026-03-28T16:37:03.861Z</time></trkpt><trkpt lat="42.4688368" lon="-8.4783543"><ele>419.57142857142856</ele><time>2026-03-28T16:37:05.884Z</time></trkpt><trkpt lat="42.4688784" lon="-8.4784491"><ele>418.42857142857144</ele><time>2026-03-28T16:37:08.872Z</time></trkpt><trkpt lat="42.4688888" lon="-8.4785358"><ele>417.28571428571433</ele><time>2026-03-28T16:37:11.872Z</time></trkpt><trkpt lat="42.4689058" lon="-8.4786403"><ele>416.14285714285717</ele><time>2026-03-28T16:37:14.873Z</time></trkpt><trkpt lat="42.468919" lon="-8.4787251"><ele>415.0</ele><time>2026-03-28T16:37:16.867Z</time></trkpt><trkpt lat="42.4689413" lon="-8.4788123"><ele>414.2</ele><time>2026-03-28T16:37:18.872Z</time></trkpt><trkpt lat="42.4689559" lon="-8.4789119"><ele>413.4</ele><time>2026-03-28T16:37:20.874Z</time></trkpt><trkpt lat="42.4689896" lon="-8.4790645"><ele>412.6</ele><time>2026-03-28T16:37:22.875Z</time></trkpt><trkpt lat="42.4690319" lon="-8.479199"><ele>411.8</ele><time>2026-03-28T16:37:24.869Z</time></trkpt><trkpt lat="42.4690712" lon="-8.4793277"><ele>411.0</ele><time>2026-03-28T16:37:26.873Z</time></trkpt><trkpt lat="42.4691191" lon="-8.4794213"><ele>411.0</ele><time>2026-03-28T16:37:28.874Z</time></trkpt><trkpt lat="42.4691699" lon="-8.4795102"><ele>411.0</ele><time>2026-03-28T16:37:30.864Z</time></trkpt><trkpt lat="42.469242" lon="-8.4795755"><ele>411.0</ele><time>2026-03-28T16:37:32.868Z</time></trkpt><trkpt lat="42.4693254" lon="-8.4796334"><ele>411.0</ele><time>2026-03-28T16:37:34.869Z</time></trkpt><trkpt lat="42.4694208" lon="-8.4796808"><ele>411.0</ele><time>2026-03-28T16:37:36.868Z</time></trkpt><trkpt lat="42.4695151" lon="-8.4797288"><ele>407.8</ele><time>2026-03-28T16:37:38.868Z</time></trkpt><trkpt lat="42.4696028" lon="-8.4797814"><ele>404.6</ele><time>2026-03-28T16:37:40.87Z</time></trkpt><trkpt lat="42.4696811" lon="-8.4798785"><ele>401.4</ele><time>2026-03-28T16:37:42.862Z</time></trkpt><trkpt lat="42.4697809" lon="-8.4799682"><ele>398.2</ele><time>2026-03-28T16:37:44.869Z</time></trkpt><trkpt lat="42.4698869" lon="-8.4800416"><ele>395.0</ele><time>2026-03-28T16:37:46.87Z</time></trkpt><trkpt lat="42.4699909" lon="-8.4800933"><ele>394.8333333333333</ele><time>2026-03-28T16:37:48.867Z</time></trkpt><trkpt lat="42.4700612" lon="-8.480123"><ele>394.66666666666663</ele><time>2026-03-28T16:37:50.766Z</time></trkpt><trkpt lat="42.4701527" lon="-8.4801444"><ele>394.5</ele><time>2026-03-28T16:37:53.665Z</time></trkpt><trkpt lat="42.4702202" lon="-8.4801504"><ele>394.33333333333337</ele><time>2026-03-28T16:37:55.682Z</time></trkpt><trkpt lat="42.4702902" lon="-8.4801607"><ele>394.1666666666667</ele><time>2026-03-28T16:37:57.666Z</time></trkpt><trkpt lat="42.470362" lon="-8.4801667"><ele>394.0</ele><time>2026-03-28T16:37:59.669Z</time></trkpt><trkpt lat="42.4704379" lon="-8.4801665"><ele>392.00000000000006</ele><time>2026-03-28T16:38:01.67Z</time></trkpt><trkpt lat="42.4705058" lon="-8.4801623"><ele>390.0</ele><time>2026-03-28T16:38:03.675Z</time></trkpt><trkpt lat="42.4705972" lon="-8.4801623"><ele>388.0</ele><time>2026-03-28T16:38:05.665Z</time></trkpt><trkpt lat="42.4706815" lon="-8.4801489"><ele>386.0</ele><time>2026-03-28T16:38:07.674Z</time></trkpt><trkpt lat="42.4707667" lon="-8.4801415"><ele>384.0</ele><time>2026-03-28T16:38:09.67Z</time></trkpt><trkpt lat="42.4708623" lon="-8.4801041"><ele>382.0</ele><time>2026-03-28T16:38:11.663Z</time></trkpt><trkpt lat="42.4709753" lon="-8.4800628"><ele>382.0</ele><time>2026-03-28T16:38:13.671Z</time></trkpt><trkpt lat="42.4710793" lon="-8.4800515"><ele>382.0</ele><time>2026-03-28T16:38:15.464Z</time></trkpt><trkpt lat="42.4711623" lon="-8.4800905"><ele>382.0</ele><time>2026-03-28T16:38:17.267Z</time></trkpt><trkpt lat="42.4711913" lon="-8.480202"><ele>382.0</ele><time>2026-03-28T16:38:19.962Z</time></trkpt><trkpt lat="42.4711808" lon="-8.4802941"><ele>382.0</ele><time>2026-03-28T16:38:21.873Z</time></trkpt><trkpt lat="42.4711564" lon="-8.4803958"><ele>382.0</ele><time>2026-03-28T16:38:23.877Z</time></trkpt><trkpt lat="42.4711355" lon="-8.4804878"><ele>379.40000000000003</ele><time>2026-03-28T16:38:52.883Z</time></trkpt><trkpt lat="42.4710783" lon="-8.4805911"><ele>376.8</ele><time>2026-03-28T16:38:56.87Z</time></trkpt><trkpt lat="42.4710263" lon="-8.4807018"><ele>374.2</ele><time>2026-03-28T16:38:58.875Z</time></trkpt><trkpt lat="42.4709801" lon="-8.4808263"><ele>371.6</ele><time>2026-03-28T16:39:00.879Z</time></trkpt><trkpt lat="42.4709135" lon="-8.4809241"><ele>369.0</ele><time>2026-03-28T16:39:02.874Z</time></trkpt><trkpt lat="42.4708082" lon="-8.4810003"><ele>369.0</ele><time>2026-03-28T16:39:04.876Z</time></trkpt><trkpt lat="42.4707518" lon="-8.4810444"><ele>369.0</ele><time>2026-03-28T16:39:05.874Z</time></trkpt><trkpt lat="42.4706699" lon="-8.4811364"><ele>369.0</ele><time>2026-03-28T16:39:07.878Z</time></trkpt><trkpt lat="42.4705751" lon="-8.4812443"><ele>369.0</ele><time>2026-03-28T16:39:09.876Z</time></trkpt><trkpt lat="42.4705223" lon="-8.4813029"><ele>369.0</ele><time>2026-03-28T16:39:10.884Z</time></trkpt><trkpt lat="42.4704709" lon="-8.4813742"><ele>369.0</ele><time>2026-03-28T16:39:11.872Z</time></trkpt><trkpt lat="42.4704156" lon="-8.4814539"><ele>368.2</ele><time>2026-03-28T16:39:12.876Z</time></trkpt><trkpt lat="42.4703524" lon="-8.4815392"><ele>367.4</ele><time>2026-03-28T16:39:13.879Z</time></trkpt><trkpt lat="42.4702896" lon="-8.4816316"><ele>366.6</ele><time>2026-03-28T16:39:14.869Z</time></trkpt><trkpt lat="42.4702251" lon="-8.4817324"><ele>365.8</ele><time>2026-03-28T16:39:15.872Z</time></trkpt><trkpt lat="42.4701569" lon="-8.4818394"><ele>365.0</ele><time>2026-03-28T16:39:16.88Z</time></trkpt><trkpt lat="42.4700916" lon="-8.4819562"><ele>365.0</ele><time>2026-03-28T16:39:17.878Z</time></trkpt><trkpt lat="42.4700362" lon="-8.4820787"><ele>365.0</ele><time>2026-03-28T16:39:18.872Z</time></trkpt><trkpt lat="42.4699862" lon="-8.4822012"><ele>365.0</ele><time>2026-03-28T16:39:19.872Z</time></trkpt><trkpt lat="42.4699369" lon="-8.4823221"><ele>365.0</ele><time>2026-03-28T16:39:20.873Z</time></trkpt><trkpt lat="42.4698921" lon="-8.4824448"><ele>365.0</ele><time>2026-03-28T16:39:21.874Z</time></trkpt><trkpt lat="42.4698512" lon="-8.4825681"><ele>364.6</ele><time>2026-03-28T16:39:22.87Z</time></trkpt><trkpt lat="42.4698065" lon="-8.4826963"><ele>364.2</ele><time>2026-03-28T16:39:23.875Z</time></trkpt><trkpt lat="42.4697611" lon="-8.4828319"><ele>363.79999999999995</ele><time>2026-03-28T16:39:24.87Z</time></trkpt><trkpt lat="42.4697177" lon="-8.4829763"><ele>363.4</ele><time>2026-03-28T16:39:25.877Z</time></trkpt><trkpt lat="42.4696741" lon="-8.483116"><ele>363.0</ele><time>2026-03-28T16:39:26.872Z</time></trkpt><trkpt lat="42.4696308" lon="-8.4832529"><ele>365.0</ele><time>2026-03-28T16:39:27.88Z</time></trkpt><trkpt lat="42.4695911" lon="-8.4833805"><ele>367.0</ele><time>2026-03-28T16:39:28.881Z</time></trkpt><trkpt lat="42.4695425" lon="-8.4835088"><ele>369.0</ele><time>2026-03-28T16:39:29.873Z</time></trkpt><trkpt lat="42.4694951" lon="-8.4836363"><ele>371.0</ele><time>2026-03-28T16:39:30.872Z</time></trkpt><trkpt lat="42.4694485" lon="-8.4837624"><ele>373.0</ele><time>2026-03-28T16:39:31.871Z</time></trkpt><trkpt lat="42.4693989" lon="-8.4838909"><ele>373.0</ele><time>2026-03-28T16:39:32.867Z</time></trkpt><trkpt lat="42.4693562" lon="-8.4840228"><ele>373.0</ele><time>2026-03-28T16:39:33.876Z</time></trkpt><trkpt lat="42.469317" lon="-8.4841618"><ele>373.0</ele><time>2026-03-28T16:39:34.873Z</time></trkpt><trkpt lat="42.4692839" lon="-8.484308"><ele>373.0</ele><time>2026-03-28T16:39:35.872Z</time></trkpt><trkpt lat="42.4692656" lon="-8.4844545"><ele>373.0</ele><time>2026-03-28T16:39:36.867Z</time></trkpt><trkpt lat="42.4692809" lon="-8.4846178"><ele>372.0</ele><time>2026-03-28T16:39:37.874Z</time></trkpt><trkpt lat="42.4693015" lon="-8.4847935"><ele>371.0</ele><time>2026-03-28T16:39:38.879Z</time></trkpt><trkpt lat="42.4693335" lon="-8.4849705"><ele>370.0</ele><time>2026-03-28T16:39:39.872Z</time></trkpt><trkpt lat="42.4693698" lon="-8.4851504"><ele>369.0</ele><time>2026-03-28T16:39:40.874Z</time></trkpt><trkpt lat="42.4694044" lon="-8.4853191"><ele>368.2</ele><time>2026-03-28T16:39:41.875Z</time></trkpt><trkpt lat="42.4694338" lon="-8.4854753"><ele>367.4</ele><time>2026-03-28T16:39:42.879Z</time></trkpt><trkpt lat="42.469463" lon="-8.4856233"><ele>366.6</ele><time>2026-03-28T16:39:43.877Z</time></trkpt><trkpt lat="42.4694834" lon="-8.4857646"><ele>365.8</ele><time>2026-03-28T16:39:44.873Z</time></trkpt><trkpt lat="42.4695034" lon="-8.4858999"><ele>365.0</ele><time>2026-03-28T16:39:45.88Z</time></trkpt><trkpt lat="42.4695219" lon="-8.4860332"><ele>365.0</ele><time>2026-03-28T16:39:46.873Z</time></trkpt><trkpt lat="42.4695349" lon="-8.4861645"><ele>365.0</ele><time>2026-03-28T16:39:47.878Z</time></trkpt><trkpt lat="42.4695394" lon="-8.4862909"><ele>365.0</ele><time>2026-03-28T16:39:48.866Z</time></trkpt><trkpt lat="42.4695353" lon="-8.486414"><ele>365.0</ele><time>2026-03-28T16:39:49.872Z</time></trkpt><trkpt lat="42.4695194" lon="-8.48653"><ele>365.0</ele><time>2026-03-28T16:39:50.874Z</time></trkpt><trkpt lat="42.4694852" lon="-8.4866421"><ele>365.8</ele><time>2026-03-28T16:39:51.878Z</time></trkpt><trkpt lat="42.4694434" lon="-8.4867524"><ele>366.6</ele><time>2026-03-28T16:39:52.875Z</time></trkpt><trkpt lat="42.4693978" lon="-8.4868717"><ele>367.4</ele><time>2026-03-28T16:39:53.871Z</time></trkpt><trkpt lat="42.4693594" lon="-8.4869975"><ele>368.2</ele><time>2026-03-28T16:39:54.87Z</time></trkpt><trkpt lat="42.4693177" lon="-8.4871196"><ele>369.0</ele><time>2026-03-28T16:39:55.873Z</time></trkpt><trkpt lat="42.4692735" lon="-8.4872358"><ele>370.75</ele><time>2026-03-28T16:39:56.875Z</time></trkpt><trkpt lat="42.4692294" lon="-8.487363"><ele>372.5</ele><time>2026-03-28T16:39:57.872Z</time></trkpt><trkpt lat="42.4691836" lon="-8.4875273"><ele>374.25</ele><time>2026-03-28T16:39:58.871Z</time></trkpt><trkpt lat="42.4691374" lon="-8.4877051"><ele>376.0</ele><time>2026-03-28T16:39:59.873Z</time></trkpt><trkpt lat="42.469101" lon="-8.4878785"><ele>377.25</ele><time>2026-03-28T16:40:00.874Z</time></trkpt><trkpt lat="42.4690769" lon="-8.4880496"><ele>378.5</ele><time>2026-03-28T16:40:01.877Z</time></trkpt><trkpt lat="42.4690609" lon="-8.4882081"><ele>379.75</ele><time>2026-03-28T16:40:02.884Z</time></trkpt><trkpt lat="42.4690428" lon="-8.4883666"><ele>381.0</ele><time>2026-03-28T16:40:03.877Z</time></trkpt><trkpt lat="42.4690249" lon="-8.4885187"><ele>381.0</ele><time>2026-03-28T16:40:04.877Z</time></trkpt><trkpt lat="42.4690091" lon="-8.4886686"><ele>381.0</ele><time>2026-03-28T16:40:05.877Z</time></trkpt><trkpt lat="42.4689924" lon="-8.4888209"><ele>381.0</ele><time>2026-03-28T16:40:06.878Z</time></trkpt><trkpt lat="42.468979" lon="-8.4890057"><ele>381.0</ele><time>2026-03-28T16:40:07.874Z</time></trkpt><trkpt lat="42.4689686" lon="-8.4892314"><ele>381.0</ele><time>2026-03-28T16:40:08.876Z</time></trkpt><trkpt lat="42.4689574" lon="-8.4894533"><ele>381.0</ele><time>2026-03-28T16:40:09.871Z</time></trkpt><trkpt lat="42.4689475" lon="-8.4896289"><ele>381.0</ele><time>2026-03-28T16:40:10.87Z</time></trkpt><trkpt lat="42.4689475" lon="-8.4897602"><ele>381.0</ele><time>2026-03-28T16:40:11.873Z</time></trkpt><trkpt lat="42.4689353" lon="-8.4898957"><ele>380.0</ele><time>2026-03-28T16:40:12.879Z</time></trkpt><trkpt lat="42.4689168" lon="-8.4900412"><ele>379.0</ele><time>2026-03-28T16:40:13.872Z</time></trkpt><trkpt lat="42.4689064" lon="-8.4901836"><ele>378.0</ele><time>2026-03-28T16:40:14.87Z</time></trkpt><trkpt lat="42.4688976" lon="-8.4903237"><ele>377.0</ele><time>2026-03-28T16:40:15.879Z</time></trkpt><trkpt lat="42.4688738" lon="-8.4904541"><ele>376.0</ele><time>2026-03-28T16:40:16.873Z</time></trkpt><trkpt lat="42.468849" lon="-8.4905806"><ele>374.6</ele><time>2026-03-28T16:40:17.873Z</time></trkpt><trkpt lat="42.4688307" lon="-8.490714"><ele>373.20000000000005</ele><time>2026-03-28T16:40:18.873Z</time></trkpt><trkpt lat="42.4688252" lon="-8.4908537"><ele>371.79999999999995</ele><time>2026-03-28T16:40:19.876Z</time></trkpt><trkpt lat="42.4688285" lon="-8.4909946"><ele>370.4</ele><time>2026-03-28T16:40:20.867Z</time></trkpt><trkpt lat="42.4688338" lon="-8.4911313"><ele>369.0</ele><time>2026-03-28T16:40:21.877Z</time></trkpt><trkpt lat="42.4688387" lon="-8.4912603"><ele>369.0</ele><time>2026-03-28T16:40:22.875Z</time></trkpt><trkpt lat="42.4688528" lon="-8.4913887"><ele>369.0</ele><time>2026-03-28T16:40:23.874Z</time></trkpt><trkpt lat="42.4688846" lon="-8.4915212"><ele>369.0</ele><time>2026-03-28T16:40:24.871Z</time></trkpt><trkpt lat="42.468916" lon="-8.4916604"><ele>369.0</ele><time>2026-03-28T16:40:25.873Z</time></trkpt><trkpt lat="42.4689438" lon="-8.491802"><ele>369.0</ele><time>2026-03-28T16:40:26.881Z</time></trkpt><trkpt lat="42.4689713" lon="-8.491943"><ele>369.25</ele><time>2026-03-28T16:40:27.876Z</time></trkpt><trkpt lat="42.4690007" lon="-8.4920906"><ele>369.5</ele><time>2026-03-28T16:40:28.877Z</time></trkpt><trkpt lat="42.4690279" lon="-8.4922411"><ele>369.75</ele><time>2026-03-28T16:40:29.871Z</time></trkpt><trkpt lat="42.4690517" lon="-8.4923891"><ele>370.0</ele><time>2026-03-28T16:40:30.87Z</time></trkpt><trkpt lat="42.4690702" lon="-8.4925383"><ele>370.0</ele><time>2026-03-28T16:40:31.873Z</time></trkpt><trkpt lat="42.4690902" lon="-8.4926872"><ele>370.0</ele><time>2026-03-28T16:40:32.876Z</time></trkpt><trkpt lat="42.4691112" lon="-8.4928407"><ele>370.0</ele><time>2026-03-28T16:40:33.874Z</time></trkpt><trkpt lat="42.4691346" lon="-8.4929969"><ele>370.0</ele><time>2026-03-28T16:40:34.882Z</time></trkpt><trkpt lat="42.4691524" lon="-8.4931524"><ele>370.5</ele><time>2026-03-28T16:40:35.869Z</time></trkpt><trkpt lat="42.469174" lon="-8.4933113"><ele>371.0</ele><time>2026-03-28T16:40:36.873Z</time></trkpt><trkpt lat="42.4691941" lon="-8.4934734"><ele>371.5</ele><time>2026-03-28T16:40:37.876Z</time></trkpt><trkpt lat="42.4692107" lon="-8.4936429"><ele>372.0</ele><time>2026-03-28T16:40:38.878Z</time></trkpt><trkpt lat="42.4692357" lon="-8.4938357"><ele>372.3333333333333</ele><time>2026-03-28T16:40:39.872Z</time></trkpt><trkpt lat="42.4692559" lon="-8.4940694"><ele>372.66666666666663</ele><time>2026-03-28T16:40:40.875Z</time></trkpt><trkpt lat="42.469289" lon="-8.4942678"><ele>373.0</ele><time>2026-03-28T16:40:41.871Z</time></trkpt><trkpt lat="42.4693152" lon="-8.4944629"><ele>373.0</ele><time>2026-03-28T16:40:42.878Z</time></trkpt><trkpt lat="42.4693451" lon="-8.4946343"><ele>373.0</ele><time>2026-03-28T16:40:43.876Z</time></trkpt><trkpt lat="42.4693619" lon="-8.4948038"><ele>373.0</ele><time>2026-03-28T16:40:44.878Z</time></trkpt><trkpt lat="42.4693755" lon="-8.4949669"><ele>373.0</ele><time>2026-03-28T16:40:45.881Z</time></trkpt><trkpt lat="42.4693718" lon="-8.4951369"><ele>373.0</ele><time>2026-03-28T16:40:46.876Z</time></trkpt><trkpt lat="42.4693569" lon="-8.4953132"><ele>373.0</ele><time>2026-03-28T16:40:47.872Z</time></trkpt><trkpt lat="42.4693332" lon="-8.4954825"><ele>373.0</ele><time>2026-03-28T16:40:48.872Z</time></trkpt><trkpt lat="42.469313" lon="-8.4956511"><ele>373.0</ele><time>2026-03-28T16:40:49.871Z</time></trkpt><trkpt lat="42.4692881" lon="-8.4958138"><ele>373.0</ele><time>2026-03-28T16:40:50.873Z</time></trkpt><trkpt lat="42.4692564" lon="-8.4959646"><ele>373.0</ele><time>2026-03-28T16:40:51.871Z</time></trkpt><trkpt lat="42.4692217" lon="-8.4961006"><ele>373.0</ele><time>2026-03-28T16:40:52.874Z</time></trkpt><trkpt lat="42.4691849" lon="-8.4962262"><ele>373.0</ele><time>2026-03-28T16:40:53.872Z</time></trkpt><trkpt lat="42.4691503" lon="-8.4963516"><ele>373.0</ele><time>2026-03-28T16:40:54.875Z</time></trkpt><trkpt lat="42.469121" lon="-8.496469"><ele>371.59999999999997</ele><time>2026-03-28T16:40:55.871Z</time></trkpt><trkpt lat="42.4690889" lon="-8.4965852"><ele>370.2</ele><time>2026-03-28T16:40:56.874Z</time></trkpt><trkpt lat="42.4690483" lon="-8.4966982"><ele>368.8</ele><time>2026-03-28T16:40:57.873Z</time></trkpt><trkpt lat="42.4690051" lon="-8.4968056"><ele>367.4</ele><time>2026-03-28T16:40:58.873Z</time></trkpt><trkpt lat="42.4689641" lon="-8.4969184"><ele>366.0</ele><time>2026-03-28T16:40:59.873Z</time></trkpt><trkpt lat="42.4689185" lon="-8.4970252"><ele>364.8</ele><time>2026-03-28T16:41:00.87Z</time></trkpt><trkpt lat="42.4688742" lon="-8.4971197"><ele>363.6</ele><time>2026-03-28T16:41:01.87Z</time></trkpt><trkpt lat="42.468818" lon="-8.4972146"><ele>362.4</ele><time>2026-03-28T16:41:02.868Z</time></trkpt><trkpt lat="42.4687503" lon="-8.4973052"><ele>361.2</ele><time>2026-03-28T16:41:03.876Z</time></trkpt><trkpt lat="42.4686845" lon="-8.4973911"><ele>360.0</ele><time>2026-03-28T16:41:04.873Z</time></trkpt><trkpt lat="42.4686159" lon="-8.4974778"><ele>360.0</ele><time>2026-03-28T16:41:05.871Z</time></trkpt><trkpt lat="42.4685475" lon="-8.4975706"><ele>360.0</ele><time>2026-03-28T16:41:06.881Z</time></trkpt><trkpt lat="42.468483" lon="-8.4976694"><ele>360.0</ele><time>2026-03-28T16:41:07.88Z</time></trkpt><trkpt lat="42.4684239" lon="-8.497776"><ele>360.0</ele><time>2026-03-28T16:41:08.875Z</time></trkpt><trkpt lat="42.468363" lon="-8.4978755"><ele>360.0</ele><time>2026-03-28T16:41:09.869Z</time></trkpt><trkpt lat="42.4682977" lon="-8.497971"><ele>359.0</ele><time>2026-03-28T16:41:10.873Z</time></trkpt><trkpt lat="42.4682335" lon="-8.498066"><ele>358.0</ele><time>2026-03-28T16:41:11.871Z</time></trkpt><trkpt lat="42.4681632" lon="-8.4981715"><ele>357.0</ele><time>2026-03-28T16:41:12.878Z</time></trkpt><trkpt lat="42.4680908" lon="-8.4982807"><ele>356.0</ele><time>2026-03-28T16:41:13.875Z</time></trkpt><trkpt lat="42.4680198" lon="-8.4983941"><ele>355.0</ele><time>2026-03-28T16:41:14.872Z</time></trkpt><trkpt lat="42.4679548" lon="-8.4985123"><ele>354.8</ele><time>2026-03-28T16:41:15.876Z</time></trkpt><trkpt lat="42.4678926" lon="-8.4986247"><ele>354.6</ele><time>2026-03-28T16:41:16.873Z</time></trkpt><trkpt lat="42.46783" lon="-8.4987188"><ele>354.4</ele><time>2026-03-28T16:41:17.878Z</time></trkpt><trkpt lat="42.4677613" lon="-8.4987941"><ele>354.2</ele><time>2026-03-28T16:41:18.877Z</time></trkpt><trkpt lat="42.4676875" lon="-8.4988594"><ele>354.0</ele><time>2026-03-28T16:41:19.869Z</time></trkpt><trkpt lat="42.4676095" lon="-8.4989074"><ele>353.0</ele><time>2026-03-28T16:41:20.873Z</time></trkpt><trkpt lat="42.4675242" lon="-8.4989326"><ele>352.0</ele><time>2026-03-28T16:41:21.871Z</time></trkpt><trkpt lat="42.4674352" lon="-8.4989259"><ele>351.0</ele><time>2026-03-28T16:41:22.873Z</time></trkpt><trkpt lat="42.4673511" lon="-8.4988997"><ele>350.0</ele><time>2026-03-28T16:41:23.869Z</time></trkpt><trkpt lat="42.4672723" lon="-8.4988679"><ele>349.0</ele><time>2026-03-28T16:41:24.873Z</time></trkpt><trkpt lat="42.4671997" lon="-8.4988286"><ele>348.0</ele><time>2026-03-28T16:41:25.878Z</time></trkpt><trkpt lat="42.4671254" lon="-8.4987792"><ele>348.6666666666667</ele><time>2026-03-28T16:41:26.87Z</time></trkpt><trkpt lat="42.467047" lon="-8.4987278"><ele>349.3333333333333</ele><time>2026-03-28T16:41:27.873Z</time></trkpt><trkpt lat="42.4669658" lon="-8.4986808"><ele>350.0</ele><time>2026-03-28T16:41:28.87Z</time></trkpt><trkpt lat="42.4668802" lon="-8.4986508"><ele>350.66666666666663</ele><time>2026-03-28T16:41:29.879Z</time></trkpt><trkpt lat="42.4667915" lon="-8.4986535"><ele>351.3333333333333</ele><time>2026-03-28T16:41:30.873Z</time></trkpt><trkpt lat="42.4666985" lon="-8.4986787"><ele>352.0</ele><time>2026-03-28T16:41:31.88Z</time></trkpt><trkpt lat="42.466603" lon="-8.4987119"><ele>352.0</ele><time>2026-03-28T16:41:32.872Z</time></trkpt><trkpt lat="42.4665036" lon="-8.4987455"><ele>352.0</ele><time>2026-03-28T16:41:33.868Z</time></trkpt><trkpt lat="42.4663956" lon="-8.4987755"><ele>352.0</ele><time>2026-03-28T16:41:34.878Z</time></trkpt><trkpt lat="42.4662856" lon="-8.4987985"><ele>352.0</ele><time>2026-03-28T16:41:35.876Z</time></trkpt><trkpt lat="42.4661785" lon="-8.4988306"><ele>352.0</ele><time>2026-03-28T16:41:36.874Z</time></trkpt><trkpt lat="42.4660652" lon="-8.4988607"><ele>350.8</ele><time>2026-03-28T16:41:37.873Z</time></trkpt><trkpt lat="42.465956" lon="-8.4988921"><ele>349.6</ele><time>2026-03-28T16:41:38.879Z</time></trkpt><trkpt lat="42.4658479" lon="-8.4989228"><ele>348.40000000000003</ele><time>2026-03-28T16:41:39.873Z</time></trkpt><trkpt lat="42.4657478" lon="-8.4989477"><ele>347.20000000000005</ele><time>2026-03-28T16:41:40.869Z</time></trkpt><trkpt lat="42.4656518" lon="-8.4989689"><ele>346.0</ele><time>2026-03-28T16:41:41.869Z</time></trkpt><trkpt lat="42.4655655" lon="-8.4989845"><ele>346.0</ele><time>2026-03-28T16:41:42.877Z</time></trkpt><trkpt lat="42.4654895" lon="-8.4989997"><ele>346.0</ele><time>2026-03-28T16:41:43.869Z</time></trkpt><trkpt lat="42.4654251" lon="-8.499016"><ele>346.0</ele><time>2026-03-28T16:41:44.871Z</time></trkpt><trkpt lat="42.4653469" lon="-8.499073"><ele>346.0</ele><time>2026-03-28T16:41:46.878Z</time></trkpt><trkpt lat="42.4653679" lon="-8.499226"><ele>346.0</ele><time>2026-03-28T16:41:49.874Z</time></trkpt><trkpt lat="42.4654066" lon="-8.4993143"><ele>346.0</ele><time>2026-03-28T16:41:50.872Z</time></trkpt><trkpt lat="42.4654427" lon="-8.4994036"><ele>346.0</ele><time>2026-03-28T16:41:51.874Z</time></trkpt><trkpt lat="42.4654711" lon="-8.499491"><ele>346.0</ele><time>2026-03-28T16:41:52.882Z</time></trkpt><trkpt lat="42.4654969" lon="-8.4995827"><ele>346.0</ele><time>2026-03-28T16:41:53.873Z</time></trkpt><trkpt lat="42.46552" lon="-8.4996702"><ele>346.0</ele><time>2026-03-28T16:41:54.872Z</time></trkpt><trkpt lat="42.4655366" lon="-8.4997564"><ele>346.0</ele><time>2026-03-28T16:41:55.873Z</time></trkpt><trkpt lat="42.4655761" lon="-8.4999006"><ele>346.0</ele><time>2026-03-28T16:41:57.873Z</time></trkpt><trkpt lat="42.4656029" lon="-8.5000345"><ele>346.0</ele><time>2026-03-28T16:41:59.872Z</time></trkpt><trkpt lat="42.4656256" lon="-8.5001479"><ele>346.0</ele><time>2026-03-28T16:42:01.877Z</time></trkpt><trkpt lat="42.4656269" lon="-8.50027"><ele>346.0</ele><time>2026-03-28T16:42:03.869Z</time></trkpt><trkpt lat="42.4656094" lon="-8.5003691"><ele>346.0</ele><time>2026-03-28T16:42:05.873Z</time></trkpt><trkpt lat="42.4655763" lon="-8.5004819"><ele>346.0</ele><time>2026-03-28T16:42:07.87Z</time></trkpt><trkpt lat="42.4655634" lon="-8.5006091"><ele>346.0</ele><time>2026-03-28T16:42:09.877Z</time></trkpt><trkpt lat="42.4655633" lon="-8.5007454"><ele>346.0</ele><time>2026-03-28T16:42:11.868Z</time></trkpt><trkpt lat="42.4655583" lon="-8.5009003"><ele>346.0</ele><time>2026-03-28T16:42:13.876Z</time></trkpt><trkpt lat="42.4655154" lon="-8.5010417"><ele>346.0</ele><time>2026-03-28T16:42:15.871Z</time></trkpt><trkpt lat="42.4654304" lon="-8.50113"><ele>346.0</ele><time>2026-03-28T16:42:17.871Z</time></trkpt><trkpt lat="42.4653285" lon="-8.5012061"><ele>345.66666666666663</ele><time>2026-03-28T16:42:19.879Z</time></trkpt><trkpt lat="42.4652702" lon="-8.5012387"><ele>345.3333333333333</ele><time>2026-03-28T16:42:20.878Z</time></trkpt><trkpt lat="42.465201" lon="-8.5012654"><ele>345.0</ele><time>2026-03-28T16:42:21.87Z</time></trkpt><trkpt lat="42.4651184" lon="-8.5012894"><ele>344.6666666666667</ele><time>2026-03-28T16:42:22.874Z</time></trkpt><trkpt lat="42.4650327" lon="-8.5013111"><ele>344.33333333333337</ele><time>2026-03-28T16:42:23.872Z</time></trkpt><trkpt lat="42.4649431" lon="-8.5013333"><ele>344.0</ele><time>2026-03-28T16:42:24.872Z</time></trkpt><trkpt lat="42.4648526" lon="-8.5013642"><ele>344.0</ele><time>2026-03-28T16:42:25.874Z</time></trkpt><trkpt lat="42.4647642" lon="-8.5014067"><ele>344.0</ele><time>2026-03-28T16:42:26.87Z</time></trkpt><trkpt lat="42.464684" lon="-8.5014457"><ele>344.0</ele><time>2026-03-28T16:42:27.875Z</time></trkpt><trkpt lat="42.4646071" lon="-8.5014962"><ele>344.0</ele><time>2026-03-28T16:42:28.869Z</time></trkpt><trkpt lat="42.4645396" lon="-8.5015742"><ele>344.0</ele><time>2026-03-28T16:42:29.864Z</time></trkpt><trkpt lat="42.4644735" lon="-8.5016856"><ele>344.5</ele><time>2026-03-28T16:42:30.869Z</time></trkpt><trkpt lat="42.464411" lon="-8.5018262"><ele>345.0</ele><time>2026-03-28T16:42:31.866Z</time></trkpt><trkpt lat="42.4643555" lon="-8.5019687"><ele>345.5</ele><time>2026-03-28T16:42:32.877Z</time></trkpt><trkpt lat="42.4643056" lon="-8.5020978"><ele>346.0</ele><time>2026-03-28T16:42:33.878Z</time></trkpt><trkpt lat="42.4642555" lon="-8.5022187"><ele>346.0</ele><time>2026-03-28T16:42:34.873Z</time></trkpt><trkpt lat="42.4641947" lon="-8.5023283"><ele>346.0</ele><time>2026-03-28T16:42:35.874Z</time></trkpt><trkpt lat="42.4641183" lon="-8.5024215"><ele>346.0</ele><time>2026-03-28T16:42:36.882Z</time></trkpt><trkpt lat="42.4640374" lon="-8.5024931"><ele>346.0</ele><time>2026-03-28T16:42:37.872Z</time></trkpt><trkpt lat="42.4639512" lon="-8.5025408"><ele>346.0</ele><time>2026-03-28T16:42:38.877Z</time></trkpt><trkpt lat="42.4638633" lon="-8.5025746"><ele>345.20000000000005</ele><time>2026-03-28T16:42:39.868Z</time></trkpt><trkpt lat="42.4637704" lon="-8.5025989"><ele>344.40000000000003</ele><time>2026-03-28T16:42:40.872Z</time></trkpt><trkpt lat="42.4636639" lon="-8.5026243"><ele>343.6</ele><time>2026-03-28T16:42:41.871Z</time></trkpt><trkpt lat="42.4635452" lon="-8.5026478"><ele>342.8</ele><time>2026-03-28T16:42:42.87Z</time></trkpt><trkpt lat="42.4634266" lon="-8.5026801"><ele>342.0</ele><time>2026-03-28T16:42:43.883Z</time></trkpt><trkpt lat="42.463311" lon="-8.5027189"><ele>342.0</ele><time>2026-03-28T16:42:44.871Z</time></trkpt><trkpt lat="42.4631934" lon="-8.5027721"><ele>342.0</ele><time>2026-03-28T16:42:45.873Z</time></trkpt><trkpt lat="42.4630775" lon="-8.5028253"><ele>342.0</ele><time>2026-03-28T16:42:46.873Z</time></trkpt><trkpt lat="42.462961" lon="-8.5028782"><ele>342.0</ele><time>2026-03-28T16:42:47.871Z</time></trkpt><trkpt lat="42.4628532" lon="-8.5029446"><ele>341.8333333333333</ele><time>2026-03-28T16:42:48.87Z</time></trkpt><trkpt lat="42.4627532" lon="-8.5030181"><ele>341.6666666666667</ele><time>2026-03-28T16:42:49.869Z</time></trkpt><trkpt lat="42.4626682" lon="-8.5030917"><ele>341.5</ele><time>2026-03-28T16:42:50.871Z</time></trkpt><trkpt lat="42.4625943" lon="-8.5031565"><ele>341.33333333333337</ele><time>2026-03-28T16:42:51.88Z</time></trkpt><trkpt lat="42.46253" lon="-8.5032117"><ele>341.1666666666667</ele><time>2026-03-28T16:42:52.88Z</time></trkpt><trkpt lat="42.4624788" lon="-8.5032773"><ele>341.0</ele><time>2026-03-28T16:42:53.878Z</time></trkpt><trkpt lat="42.4624263" lon="-8.5034222"><ele>341.0</ele><time>2026-03-28T16:42:55.866Z</time></trkpt><trkpt lat="42.4624209" lon="-8.5035242"><ele>341.0</ele><time>2026-03-28T16:42:56.873Z</time></trkpt><trkpt lat="42.4624221" lon="-8.5036445"><ele>341.0</ele><time>2026-03-28T16:42:57.873Z</time></trkpt><trkpt lat="42.4624277" lon="-8.5037807"><ele>341.0</ele><time>2026-03-28T16:42:58.876Z</time></trkpt><trkpt lat="42.4624418" lon="-8.5039283"><ele>341.0</ele><time>2026-03-28T16:42:59.873Z</time></trkpt><trkpt lat="42.4624735" lon="-8.5040899"><ele>341.25</ele><time>2026-03-28T16:43:00.873Z</time></trkpt><trkpt lat="42.462526" lon="-8.5042642"><ele>341.5</ele><time>2026-03-28T16:43:01.873Z</time></trkpt><trkpt lat="42.4625778" lon="-8.5044459"><ele>341.75</ele><time>2026-03-28T16:43:02.875Z</time></trkpt><trkpt lat="42.462628" lon="-8.5046251"><ele>342.0</ele><time>2026-03-28T16:43:03.881Z</time></trkpt><trkpt lat="42.4626685" lon="-8.5047869"><ele>341.6</ele><time>2026-03-28T16:43:04.882Z</time></trkpt><trkpt lat="42.4626981" lon="-8.5049478"><ele>341.20000000000005</ele><time>2026-03-28T16:43:05.872Z</time></trkpt><trkpt lat="42.4627231" lon="-8.5050998"><ele>340.8</ele><time>2026-03-28T16:43:06.869Z</time></trkpt><trkpt lat="42.4627505" lon="-8.505241"><ele>340.4</ele><time>2026-03-28T16:43:07.874Z</time></trkpt><trkpt lat="42.4627712" lon="-8.5053719"><ele>340.0</ele><time>2026-03-28T16:43:08.875Z</time></trkpt><trkpt lat="42.4627874" lon="-8.5054969"><ele>339.8333333333333</ele><time>2026-03-28T16:43:09.875Z</time></trkpt><trkpt lat="42.462775" lon="-8.5056103"><ele>339.66666666666663</ele><time>2026-03-28T16:43:10.877Z</time></trkpt><trkpt lat="42.4627451" lon="-8.5057011"><ele>339.5</ele><time>2026-03-28T16:43:11.878Z</time></trkpt><trkpt lat="42.4626912" lon="-8.5058286"><ele>339.3333333333333</ele><time>2026-03-28T16:43:13.869Z</time></trkpt><trkpt lat="42.4626224" lon="-8.5059112"><ele>339.1666666666667</ele><time>2026-03-28T16:43:15.871Z</time></trkpt><trkpt lat="42.4625847" lon="-8.5059856"><ele>339.0</ele><time>2026-03-28T16:43:16.871Z</time></trkpt><trkpt lat="42.462527" lon="-8.5060821"><ele>339.0</ele><time>2026-03-28T16:43:17.874Z</time></trkpt><trkpt lat="42.4624609" lon="-8.5062051"><ele>339.0</ele><time>2026-03-28T16:43:18.873Z</time></trkpt><trkpt lat="42.4623793" lon="-8.5063487"><ele>339.0</ele><time>2026-03-28T16:43:19.873Z</time></trkpt><trkpt lat="42.462291" lon="-8.5064927"><ele>339.0</ele><time>2026-03-28T16:43:20.878Z</time></trkpt><trkpt lat="42.4622056" lon="-8.5066307"><ele>339.25</ele><time>2026-03-28T16:43:21.871Z</time></trkpt><trkpt lat="42.4621223" lon="-8.5067642"><ele>339.5</ele><time>2026-03-28T16:43:22.87Z</time></trkpt><trkpt lat="42.4620375" lon="-8.5068879"><ele>339.75</ele><time>2026-03-28T16:43:23.867Z</time></trkpt><trkpt lat="42.4619502" lon="-8.5069778"><ele>340.0</ele><time>2026-03-28T16:43:24.869Z</time></trkpt><trkpt lat="42.4618688" lon="-8.5070645"><ele>339.4</ele><time>2026-03-28T16:43:25.874Z</time></trkpt><trkpt lat="42.4617923" lon="-8.5071591"><ele>338.8</ele><time>2026-03-28T16:43:26.879Z</time></trkpt><trkpt lat="42.4617227" lon="-8.5072557"><ele>338.20000000000005</ele><time>2026-03-28T16:43:27.873Z</time></trkpt><trkpt lat="42.4616529" lon="-8.5073502"><ele>337.6</ele><time>2026-03-28T16:43:28.87Z</time></trkpt><trkpt lat="42.4615746" lon="-8.5074453"><ele>337.0</ele><time>2026-03-28T16:43:29.872Z</time></trkpt><trkpt lat="42.4614957" lon="-8.5075482"><ele>337.0</ele><time>2026-03-28T16:43:30.876Z</time></trkpt><trkpt lat="42.4614138" lon="-8.507658"><ele>337.0</ele><time>2026-03-28T16:43:31.876Z</time></trkpt><trkpt lat="42.4613319" lon="-8.5077747"><ele>337.0</ele><time>2026-03-28T16:43:32.873Z</time></trkpt><trkpt lat="42.4612497" lon="-8.5078885"><ele>337.0</ele><time>2026-03-28T16:43:33.876Z</time></trkpt><trkpt lat="42.461161" lon="-8.5079984"><ele>338.25</ele><time>2026-03-28T16:43:34.879Z</time></trkpt><trkpt lat="42.4610775" lon="-8.5081104"><ele>339.5</ele><time>2026-03-28T16:43:35.88Z</time></trkpt><trkpt lat="42.4609963" lon="-8.5082361"><ele>340.75</ele><time>2026-03-28T16:43:36.873Z</time></trkpt><trkpt lat="42.4609176" lon="-8.5083877"><ele>342.0</ele><time>2026-03-28T16:43:37.866Z</time></trkpt><trkpt lat="42.4608363" lon="-8.508554"><ele>342.0</ele><time>2026-03-28T16:43:38.877Z</time></trkpt><trkpt lat="42.4607476" lon="-8.5087256"><ele>342.0</ele><time>2026-03-28T16:43:39.867Z</time></trkpt><trkpt lat="42.4606592" lon="-8.5089078"><ele>342.0</ele><time>2026-03-28T16:43:40.874Z</time></trkpt><trkpt lat="42.4605788" lon="-8.5090805"><ele>341.8</ele><time>2026-03-28T16:43:41.878Z</time></trkpt><trkpt lat="42.4605159" lon="-8.5092085"><ele>341.6</ele><time>2026-03-28T16:43:42.881Z</time></trkpt><trkpt lat="42.4604566" lon="-8.5093299"><ele>341.40000000000003</ele><time>2026-03-28T16:43:43.87Z</time></trkpt><trkpt lat="42.4603829" lon="-8.5094556"><ele>341.20000000000005</ele><time>2026-03-28T16:43:44.876Z</time></trkpt><trkpt lat="42.4603307" lon="-8.5095787"><ele>341.0</ele><time>2026-03-28T16:43:45.878Z</time></trkpt><trkpt lat="42.4602745" lon="-8.5096943"><ele>340.0</ele><time>2026-03-28T16:43:47.871Z</time></trkpt><trkpt lat="42.4601897" lon="-8.5097239"><ele>339.0</ele><time>2026-03-28T16:43:49.871Z</time></trkpt><trkpt lat="42.4600862" lon="-8.5096405"><ele>338.0</ele><time>2026-03-28T16:43:51.883Z</time></trkpt><trkpt lat="42.4600303" lon="-8.5095729"><ele>337.0</ele><time>2026-03-28T16:43:52.869Z</time></trkpt><trkpt lat="42.4599683" lon="-8.5095023"><ele>336.0</ele><time>2026-03-28T16:43:53.873Z</time></trkpt><trkpt lat="42.4599012" lon="-8.5094261"><ele>336.0</ele><time>2026-03-28T16:43:54.866Z</time></trkpt><trkpt lat="42.4598271" lon="-8.5093485"><ele>336.0</ele><time>2026-03-28T16:43:55.877Z</time></trkpt><trkpt lat="42.4597469" lon="-8.5092727"><ele>336.0</ele><time>2026-03-28T16:43:56.875Z</time></trkpt><trkpt lat="42.4596649" lon="-8.5091959"><ele>336.0</ele><time>2026-03-28T16:43:57.875Z</time></trkpt><trkpt lat="42.4595845" lon="-8.5091134"><ele>336.0</ele><time>2026-03-28T16:43:58.884Z</time></trkpt><trkpt lat="42.459512" lon="-8.5090205"><ele>336.0</ele><time>2026-03-28T16:43:59.871Z</time></trkpt><trkpt lat="42.4594454" lon="-8.5089122"><ele>336.0</ele><time>2026-03-28T16:44:00.868Z</time></trkpt><trkpt lat="42.4593854" lon="-8.5087909"><ele>336.0</ele><time>2026-03-28T16:44:01.876Z</time></trkpt><trkpt lat="42.4593318" lon="-8.508666"><ele>336.0</ele><time>2026-03-28T16:44:02.869Z</time></trkpt><trkpt lat="42.4592848" lon="-8.5085435"><ele>336.0</ele><time>2026-03-28T16:44:03.87Z</time></trkpt><trkpt lat="42.4592515" lon="-8.5084234"><ele>336.0</ele><time>2026-03-28T16:44:04.867Z</time></trkpt><trkpt lat="42.4592199" lon="-8.5083108"><ele>336.0</ele><time>2026-03-28T16:44:05.882Z</time></trkpt><trkpt lat="42.4591836" lon="-8.5082193"><ele>336.0</ele><time>2026-03-28T16:44:06.88Z</time></trkpt><trkpt lat="42.4591456" lon="-8.5081443"><ele>336.0</ele><time>2026-03-28T16:44:07.875Z</time></trkpt><trkpt lat="42.4590655" lon="-8.5080768"><ele>336.0</ele><time>2026-03-28T16:44:09.876Z</time></trkpt><trkpt lat="42.4589899" lon="-8.508007"><ele>336.0</ele><time>2026-03-28T16:44:14.878Z</time></trkpt><trkpt lat="42.4589115" lon="-8.5079637"><ele>336.0</ele><time>2026-03-28T16:44:18.876Z</time></trkpt><trkpt lat="42.4588476" lon="-8.5079194"><ele>336.0</ele><time>2026-03-28T16:44:21.876Z</time></trkpt><trkpt lat="42.4587829" lon="-8.5079084"><ele>336.0</ele><time>2026-03-28T16:44:24.87Z</time></trkpt><trkpt lat="42.4587165" lon="-8.5079009"><ele>336.0</ele><time>2026-03-28T16:44:26.871Z</time></trkpt><trkpt lat="42.4586379" lon="-8.5078338"><ele>336.0</ele><time>2026-03-28T16:44:29.876Z</time></trkpt><trkpt lat="42.4585459" lon="-8.5078035"><ele>336.0</ele><time>2026-03-28T16:44:31.876Z</time></trkpt><trkpt lat="42.4584745" lon="-8.5077618"><ele>336.5</ele><time>2026-03-28T16:44:33.874Z</time></trkpt><trkpt lat="42.4583909" lon="-8.5077224"><ele>337.0</ele><time>2026-03-28T16:44:36.87Z</time></trkpt><trkpt lat="42.4583144" lon="-8.5076766"><ele>337.5</ele><time>2026-03-28T16:44:39.872Z</time></trkpt><trkpt lat="42.4582291" lon="-8.5076337"><ele>338.0</ele><time>2026-03-28T16:44:42.873Z</time></trkpt><trkpt lat="42.4581707" lon="-8.5075886"><ele>338.5</ele><time>2026-03-28T16:44:45.876Z</time></trkpt><trkpt lat="42.4581219" lon="-8.5075342"><ele>339.0</ele><time>2026-03-28T16:44:48.87Z</time></trkpt><trkpt lat="42.4580699" lon="-8.5074844"><ele>339.0</ele><time>2026-03-28T16:44:50.877Z</time></trkpt><trkpt lat="42.4580051" lon="-8.5074434"><ele>339.0</ele><time>2026-03-28T16:44:52.869Z</time></trkpt><trkpt lat="42.4579265" lon="-8.5074152"><ele>339.0</ele><time>2026-03-28T16:44:54.874Z</time></trkpt><trkpt lat="42.4578569" lon="-8.5073808"><ele>339.0</ele><time>2026-03-28T16:44:56.863Z</time></trkpt><trkpt lat="42.4577898" lon="-8.5073278"><ele>339.0</ele><time>2026-03-28T16:44:58.868Z</time></trkpt><trkpt lat="42.4577209" lon="-8.5072904"><ele>339.0</ele><time>2026-03-28T16:45:00.874Z</time></trkpt><trkpt lat="42.4576221" lon="-8.5072442"><ele>339.1666666666667</ele><time>2026-03-28T16:45:02.871Z</time></trkpt><trkpt lat="42.4575509" lon="-8.5071979"><ele>339.3333333333333</ele><time>2026-03-28T16:45:04.871Z</time></trkpt><trkpt lat="42.4574842" lon="-8.507164"><ele>339.5</ele><time>2026-03-28T16:45:06.884Z</time></trkpt><trkpt lat="42.457397" lon="-8.5071611"><ele>339.66666666666663</ele><time>2026-03-28T16:45:09.872Z</time></trkpt><trkpt lat="42.4573409" lon="-8.5072298"><ele>339.8333333333333</ele><time>2026-03-28T16:45:11.874Z</time></trkpt><trkpt lat="42.457282" lon="-8.5073265"><ele>340.0</ele><time>2026-03-28T16:45:13.873Z</time></trkpt><trkpt lat="42.4572268" lon="-8.5074166"><ele>340.0</ele><time>2026-03-28T16:45:15.877Z</time></trkpt><trkpt lat="42.457195" lon="-8.5075003"><ele>340.0</ele><time>2026-03-28T16:45:16.87Z</time></trkpt><trkpt lat="42.4571346" lon="-8.5076062"><ele>340.0</ele><time>2026-03-28T16:45:17.874Z</time></trkpt><trkpt lat="42.4570693" lon="-8.5077061"><ele>340.0</ele><time>2026-03-28T16:45:18.885Z</time></trkpt><trkpt lat="42.4569982" lon="-8.5078018"><ele>340.0</ele><time>2026-03-28T16:45:19.869Z</time></trkpt><trkpt lat="42.4569234" lon="-8.5078875"><ele>340.7142857142857</ele><time>2026-03-28T16:45:20.871Z</time></trkpt><trkpt lat="42.4568616" lon="-8.5079355"><ele>341.4285714285714</ele><time>2026-03-28T16:45:21.865Z</time></trkpt><trkpt lat="42.4567972" lon="-8.5079734"><ele>342.1428571428571</ele><time>2026-03-28T16:45:22.879Z</time></trkpt><trkpt lat="42.4567341" lon="-8.5080103"><ele>342.8571428571429</ele><time>2026-03-28T16:45:23.875Z</time></trkpt><trkpt lat="42.456675" lon="-8.5080555"><ele>343.57142857142856</ele><time>2026-03-28T16:45:24.874Z</time></trkpt><trkpt lat="42.4566255" lon="-8.5081099"><ele>344.2857142857143</ele><time>2026-03-28T16:45:25.877Z</time></trkpt><trkpt lat="42.4565529" lon="-8.5082058"><ele>345.0</ele><time>2026-03-28T16:45:27.877Z</time></trkpt><trkpt lat="42.4565064" lon="-8.5082724"><ele>345.0</ele><time>2026-03-28T16:45:30.87Z</time></trkpt><trkpt lat="42.4564448" lon="-8.5083236"><ele>345.0</ele><time>2026-03-28T16:45:32.873Z</time></trkpt><trkpt lat="42.4563531" lon="-8.5083695"><ele>345.0</ele><time>2026-03-28T16:45:34.869Z</time></trkpt><trkpt lat="42.4562576" lon="-8.5084235"><ele>345.0</ele><time>2026-03-28T16:45:36.876Z</time></trkpt><trkpt lat="42.4561956" lon="-8.508456"><ele>345.0</ele><time>2026-03-28T16:45:38.868Z</time></trkpt><trkpt lat="42.4561146" lon="-8.5084845"><ele>345.0</ele><time>2026-03-28T16:46:07.879Z</time></trkpt><trkpt lat="42.45601" lon="-8.5084986"><ele>346.0</ele><time>2026-03-28T16:46:09.87Z</time></trkpt><trkpt lat="42.455924" lon="-8.5085421"><ele>347.0</ele><time>2026-03-28T16:46:10.868Z</time></trkpt><trkpt lat="42.4558748" lon="-8.5086454"><ele>348.0</ele><time>2026-03-28T16:46:11.871Z</time></trkpt><trkpt lat="42.4557861" lon="-8.5087283"><ele>349.0</ele><time>2026-03-28T16:46:12.87Z</time></trkpt><trkpt lat="42.4556762" lon="-8.5087733"><ele>350.0</ele><time>2026-03-28T16:46:13.878Z</time></trkpt><trkpt lat="42.4555641" lon="-8.5088156"><ele>350.4</ele><time>2026-03-28T16:46:14.866Z</time></trkpt><trkpt lat="42.4554792" lon="-8.508866"><ele>350.8</ele><time>2026-03-28T16:46:15.876Z</time></trkpt><trkpt lat="42.4553936" lon="-8.5089186"><ele>351.20000000000005</ele><time>2026-03-28T16:46:16.872Z</time></trkpt><trkpt lat="42.4553021" lon="-8.5089704"><ele>351.6</ele><time>2026-03-28T16:46:17.873Z</time></trkpt><trkpt lat="42.4552136" lon="-8.5090309"><ele>352.0</ele><time>2026-03-28T16:46:18.863Z</time></trkpt><trkpt lat="42.455127" lon="-8.5090937"><ele>352.0</ele><time>2026-03-28T16:46:19.868Z</time></trkpt><trkpt lat="42.4550444" lon="-8.5091627"><ele>352.0</ele><time>2026-03-28T16:46:20.866Z</time></trkpt><trkpt lat="42.4549674" lon="-8.5092343"><ele>352.0</ele><time>2026-03-28T16:46:21.869Z</time></trkpt><trkpt lat="42.4548929" lon="-8.5093074"><ele>352.0</ele><time>2026-03-28T16:46:22.872Z</time></trkpt><trkpt lat="42.4548205" lon="-8.5093786"><ele>352.0</ele><time>2026-03-28T16:46:23.873Z</time></trkpt><trkpt lat="42.4547536" lon="-8.5094364"><ele>352.0</ele><time>2026-03-28T16:46:24.885Z</time></trkpt><trkpt lat="42.4546776" lon="-8.5094765"><ele>352.0</ele><time>2026-03-28T16:46:25.869Z</time></trkpt><trkpt lat="42.454599" lon="-8.5095119"><ele>352.0</ele><time>2026-03-28T16:46:26.869Z</time></trkpt><trkpt lat="42.4545288" lon="-8.5095216"><ele>352.0</ele><time>2026-03-28T16:46:27.881Z</time></trkpt><trkpt lat="42.4544287" lon="-8.5094805"><ele>352.0</ele><time>2026-03-28T16:46:29.879Z</time></trkpt><trkpt lat="42.4542999" lon="-8.5094539"><ele>353.8333333333333</ele><time>2026-03-28T16:46:31.877Z</time></trkpt><trkpt lat="42.4541755" lon="-8.5094491"><ele>355.66666666666663</ele><time>2026-03-28T16:46:33.875Z</time></trkpt><trkpt lat="42.4541064" lon="-8.5094617"><ele>357.5</ele><time>2026-03-28T16:46:34.876Z</time></trkpt><trkpt lat="42.4540378" lon="-8.5094737"><ele>359.3333333333333</ele><time>2026-03-28T16:46:35.876Z</time></trkpt><trkpt lat="42.4539697" lon="-8.50948"><ele>361.1666666666667</ele><time>2026-03-28T16:46:36.87Z</time></trkpt><trkpt lat="42.4538914" lon="-8.5095019"><ele>363.0</ele><time>2026-03-28T16:46:37.88Z</time></trkpt><trkpt lat="42.4538131" lon="-8.5095327"><ele>364.0</ele><time>2026-03-28T16:46:38.869Z</time></trkpt><trkpt lat="42.453735" lon="-8.5095693"><ele>365.0</ele><time>2026-03-28T16:46:39.875Z</time></trkpt><trkpt lat="42.4536571" lon="-8.5096087"><ele>366.0</ele><time>2026-03-28T16:46:40.878Z</time></trkpt><trkpt lat="42.453576" lon="-8.5096454"><ele>367.0</ele><time>2026-03-28T16:46:41.871Z</time></trkpt><trkpt lat="42.4534905" lon="-8.5096924"><ele>368.0</ele><time>2026-03-28T16:46:42.87Z</time></trkpt><trkpt lat="42.4534282" lon="-8.5097597"><ele>369.0</ele><time>2026-03-28T16:46:43.865Z</time></trkpt><trkpt lat="42.4533738" lon="-8.5098469"><ele>369.0</ele><time>2026-03-28T16:46:44.872Z</time></trkpt><trkpt lat="42.4533258" lon="-8.509939"><ele>369.0</ele><time>2026-03-28T16:46:45.882Z</time></trkpt><trkpt lat="42.4532819" lon="-8.5100307"><ele>369.0</ele><time>2026-03-28T16:46:46.868Z</time></trkpt><trkpt lat="42.4532319" lon="-8.5101215"><ele>369.0</ele><time>2026-03-28T16:46:47.873Z</time></trkpt><trkpt lat="42.4531792" lon="-8.5102148"><ele>369.0</ele><time>2026-03-28T16:46:48.872Z</time></trkpt><trkpt lat="42.4531322" lon="-8.5103095"><ele>369.0</ele><time>2026-03-28T16:46:49.869Z</time></trkpt><trkpt lat="42.4530737" lon="-8.5103995"><ele>370.6</ele><time>2026-03-28T16:46:50.876Z</time></trkpt><trkpt lat="42.4530111" lon="-8.5104952"><ele>372.2</ele><time>2026-03-28T16:46:51.867Z</time></trkpt><trkpt lat="42.4529454" lon="-8.5105796"><ele>373.8</ele><time>2026-03-28T16:46:52.87Z</time></trkpt><trkpt lat="42.45287" lon="-8.5106663"><ele>375.40000000000003</ele><time>2026-03-28T16:46:53.873Z</time></trkpt><trkpt lat="42.4527937" lon="-8.5107649"><ele>377.0</ele><time>2026-03-28T16:46:54.871Z</time></trkpt><trkpt lat="42.452726" lon="-8.5108809"><ele>377.0</ele><time>2026-03-28T16:46:55.873Z</time></trkpt><trkpt lat="42.4526711" lon="-8.5109921"><ele>377.0</ele><time>2026-03-28T16:46:56.87Z</time></trkpt><trkpt lat="42.452623" lon="-8.5110902"><ele>377.0</ele><time>2026-03-28T16:46:57.868Z</time></trkpt><trkpt lat="42.4525923" lon="-8.5111777"><ele>377.0</ele><time>2026-03-28T16:46:58.877Z</time></trkpt><trkpt lat="42.4525801" lon="-8.5112702"><ele>377.0</ele><time>2026-03-28T16:47:12.865Z</time></trkpt><trkpt lat="42.4525232" lon="-8.5114018"><ele>377.0</ele><time>2026-03-28T16:47:15.868Z</time></trkpt><trkpt lat="42.4524891" lon="-8.5114825"><ele>374.25</ele><time>2026-03-28T16:47:16.874Z</time></trkpt><trkpt lat="42.4524392" lon="-8.5115819"><ele>371.5</ele><time>2026-03-28T16:47:17.874Z</time></trkpt><trkpt lat="42.4523712" lon="-8.5116939"><ele>368.75</ele><time>2026-03-28T16:47:18.868Z</time></trkpt><trkpt lat="42.4522928" lon="-8.5118261"><ele>366.0</ele><time>2026-03-28T16:47:19.866Z</time></trkpt><trkpt lat="42.4522173" lon="-8.5119739"><ele>364.0</ele><time>2026-03-28T16:47:20.867Z</time></trkpt><trkpt lat="42.4521507" lon="-8.5121312"><ele>362.0</ele><time>2026-03-28T16:47:21.868Z</time></trkpt><trkpt lat="42.4520964" lon="-8.5122874"><ele>360.0</ele><time>2026-03-28T16:47:22.867Z</time></trkpt><trkpt lat="42.4520468" lon="-8.5124442"><ele>358.0</ele><time>2026-03-28T16:47:23.864Z</time></trkpt><trkpt lat="42.4520012" lon="-8.5126025"><ele>361.5</ele><time>2026-03-28T16:47:24.873Z</time></trkpt><trkpt lat="42.4519568" lon="-8.5127615"><ele>365.0</ele><time>2026-03-28T16:47:25.87Z</time></trkpt><trkpt lat="42.4519112" lon="-8.5129138"><ele>368.5</ele><time>2026-03-28T16:47:26.867Z</time></trkpt><trkpt lat="42.4518616" lon="-8.5130566"><ele>372.0</ele><time>2026-03-28T16:47:27.867Z</time></trkpt><trkpt lat="42.4518111" lon="-8.5131894"><ele>372.0</ele><time>2026-03-28T16:47:28.869Z</time></trkpt><trkpt lat="42.451745" lon="-8.5133183"><ele>372.0</ele><time>2026-03-28T16:47:29.865Z</time></trkpt><trkpt lat="42.4516588" lon="-8.5134493"><ele>372.0</ele><time>2026-03-28T16:47:30.874Z</time></trkpt><trkpt lat="42.4515663" lon="-8.5135698"><ele>372.0</ele><time>2026-03-28T16:47:31.874Z</time></trkpt><trkpt lat="42.451475" lon="-8.5136753"><ele>371.0</ele><time>2026-03-28T16:47:32.872Z</time></trkpt><trkpt lat="42.4513902" lon="-8.5137584"><ele>370.0</ele><time>2026-03-28T16:47:33.877Z</time></trkpt><trkpt lat="42.4513057" lon="-8.5138041"><ele>369.0</ele><time>2026-03-28T16:47:34.869Z</time></trkpt><trkpt lat="42.4512171" lon="-8.5138406"><ele>368.0</ele><time>2026-03-28T16:47:35.872Z</time></trkpt><trkpt lat="42.4511236" lon="-8.5138741"><ele>367.0</ele><time>2026-03-28T16:47:36.871Z</time></trkpt><trkpt lat="42.4510286" lon="-8.5139038"><ele>370.20000000000005</ele><time>2026-03-28T16:47:37.866Z</time></trkpt><trkpt lat="42.4509282" lon="-8.513941"><ele>373.4</ele><time>2026-03-28T16:47:38.883Z</time></trkpt><trkpt lat="42.4508262" lon="-8.5139848"><ele>376.6</ele><time>2026-03-28T16:47:39.878Z</time></trkpt><trkpt lat="42.450725" lon="-8.5140368"><ele>379.79999999999995</ele><time>2026-03-28T16:47:40.868Z</time></trkpt><trkpt lat="42.4506195" lon="-8.5140979"><ele>383.0</ele><time>2026-03-28T16:47:41.878Z</time></trkpt><trkpt lat="42.4505151" lon="-8.5141754"><ele>386.5</ele><time>2026-03-28T16:47:42.866Z</time></trkpt><trkpt lat="42.4504216" lon="-8.514274"><ele>390.0</ele><time>2026-03-28T16:47:43.871Z</time></trkpt><trkpt lat="42.4503341" lon="-8.5143783"><ele>393.5</ele><time>2026-03-28T16:47:44.868Z</time></trkpt><trkpt lat="42.4502527" lon="-8.5144841"><ele>397.0</ele><time>2026-03-28T16:47:45.881Z</time></trkpt><trkpt lat="42.4501819" lon="-8.5145869"><ele>397.0</ele><time>2026-03-28T16:47:46.884Z</time></trkpt><trkpt lat="42.4501134" lon="-8.5146843"><ele>397.0</ele><time>2026-03-28T16:47:47.871Z</time></trkpt><trkpt lat="42.4500436" lon="-8.5147774"><ele>397.0</ele><time>2026-03-28T16:47:48.874Z</time></trkpt><trkpt lat="42.4499702" lon="-8.5148632"><ele>397.0</ele><time>2026-03-28T16:47:49.866Z</time></trkpt><trkpt lat="42.449893" lon="-8.51495"><ele>397.0</ele><time>2026-03-28T16:47:50.871Z</time></trkpt><trkpt lat="42.4498233" lon="-8.5150201"><ele>397.00000000000006</ele><time>2026-03-28T16:47:51.871Z</time></trkpt><trkpt lat="42.4497624" lon="-8.515087"><ele>397.0</ele><time>2026-03-28T16:47:52.87Z</time></trkpt><trkpt lat="42.4497135" lon="-8.515152"><ele>397.0</ele><time>2026-03-28T16:47:53.878Z</time></trkpt><trkpt lat="42.4496601" lon="-8.5152389"><ele>397.0</ele><time>2026-03-28T16:47:55.867Z</time></trkpt><trkpt lat="42.4497032" lon="-8.5151609"><ele>397.00000000000006</ele><time>2026-03-28T16:48:00.871Z</time></trkpt><trkpt lat="42.449742" lon="-8.5150846"><ele>397.0</ele><time>2026-03-28T16:48:01.87Z</time></trkpt><trkpt lat="42.4497813" lon="-8.5149641"><ele>397.0</ele><time>2026-03-28T16:48:02.868Z</time></trkpt><trkpt lat="42.4498395" lon="-8.514819"><ele>397.0</ele><time>2026-03-28T16:48:03.872Z</time></trkpt><trkpt lat="42.4498862" lon="-8.5146565"><ele>397.0</ele><time>2026-03-28T16:48:04.873Z</time></trkpt><trkpt lat="42.4499174" lon="-8.5144906"><ele>397.0</ele><time>2026-03-28T16:48:05.868Z</time></trkpt><trkpt lat="42.4499284" lon="-8.5143464"><ele>398.1666666666667</ele><time>2026-03-28T16:48:06.867Z</time></trkpt><trkpt lat="42.4499144" lon="-8.5142382"><ele>399.33333333333337</ele><time>2026-03-28T16:48:07.875Z</time></trkpt><trkpt lat="42.4499075" lon="-8.5141424"><ele>400.5</ele><time>2026-03-28T16:48:08.875Z</time></trkpt><trkpt lat="42.4498976" lon="-8.5140009"><ele>401.66666666666663</ele><time>2026-03-28T16:48:10.873Z</time></trkpt><trkpt lat="42.4498702" lon="-8.5139186"><ele>402.8333333333333</ele><time>2026-03-28T16:48:12.876Z</time></trkpt><trkpt lat="42.449807" lon="-8.5138946"><ele>404.0</ele><time>2026-03-28T16:48:14.866Z</time></trkpt><trkpt lat="42.449716" lon="-8.5139383"><ele>408.49999999999994</ele><time>2026-03-28T16:48:16.871Z</time></trkpt><trkpt lat="42.4496111" lon="-8.5140385"><ele>413.0</ele><time>2026-03-28T16:48:18.874Z</time></trkpt><trkpt lat="42.4495502" lon="-8.5140962"><ele>417.5</ele><time>2026-03-28T16:48:19.876Z</time></trkpt><trkpt lat="42.4494891" lon="-8.5141563"><ele>422.0</ele><time>2026-03-28T16:48:20.877Z</time></trkpt><trkpt lat="42.449431" lon="-8.5142129"><ele>426.49999999999994</ele><time>2026-03-28T16:48:21.869Z</time></trkpt><trkpt lat="42.4493705" lon="-8.5142692"><ele>431.0</ele><time>2026-03-28T16:48:22.871Z</time></trkpt><trkpt lat="42.4493107" lon="-8.5143207"><ele>430.99999999999994</ele><time>2026-03-28T16:48:23.875Z</time></trkpt><trkpt lat="42.449245" lon="-8.514368"><ele>431.0</ele><time>2026-03-28T16:48:24.869Z</time></trkpt><trkpt lat="42.4491822" lon="-8.5144099"><ele>431.0</ele><time>2026-03-28T16:48:25.867Z</time></trkpt><trkpt lat="42.4491228" lon="-8.5144488"><ele>431.0</ele><time>2026-03-28T16:48:26.868Z</time></trkpt><trkpt lat="42.4490214" lon="-8.514519"><ele>430.99999999999994</ele><time>2026-03-28T16:48:28.868Z</time></trkpt><trkpt lat="42.4489427" lon="-8.5145323"><ele>431.0</ele><time>2026-03-28T16:48:30.868Z</time></trkpt><trkpt lat="42.4489355" lon="-8.5144081"><ele>430.99999999999994</ele><time>2026-03-28T16:48:32.866Z</time></trkpt><trkpt lat="42.4489369" lon="-8.5143156"><ele>431.0</ele><time>2026-03-28T16:48:33.867Z</time></trkpt><trkpt lat="42.4489374" lon="-8.5142249"><ele>431.0</ele><time>2026-03-28T16:48:34.869Z</time></trkpt><trkpt lat="42.4489384" lon="-8.5140749"><ele>431.0</ele><time>2026-03-28T16:48:36.872Z</time></trkpt><trkpt lat="42.4489272" lon="-8.5139638"><ele>430.99999999999994</ele><time>2026-03-28T16:48:38.871Z</time></trkpt><trkpt lat="42.4489085" lon="-8.5138749"><ele>431.0</ele><time>2026-03-28T16:48:40.866Z</time></trkpt><trkpt lat="42.4488307" lon="-8.5138456"><ele>436.0</ele><time>2026-03-28T16:48:43.868Z</time></trkpt><trkpt lat="42.4487749" lon="-8.5138984"><ele>441.0</ele><time>2026-03-28T16:48:45.871Z</time></trkpt><trkpt lat="42.448693" lon="-8.5139847"><ele>446.0</ele><time>2026-03-28T16:48:47.869Z</time></trkpt><trkpt lat="42.4486118" lon="-8.5140766"><ele>451.0</ele><time>2026-03-28T16:48:49.883Z</time></trkpt><trkpt lat="42.4485256" lon="-8.5141689"><ele>456.0</ele><time>2026-03-28T16:48:51.87Z</time></trkpt><trkpt lat="42.4484317" lon="-8.5142554"><ele>456.0</ele><time>2026-03-28T16:48:53.874Z</time></trkpt><trkpt lat="42.4483331" lon="-8.5143082"><ele>456.0</ele><time>2026-03-28T16:48:55.874Z</time></trkpt><trkpt lat="42.4482543" lon="-8.5143265"><ele>456.0</ele><time>2026-03-28T16:48:57.874Z</time></trkpt><trkpt lat="42.4481891" lon="-8.5143048"><ele>456.0</ele><time>2026-03-28T16:48:59.872Z</time></trkpt><trkpt lat="42.4481312" lon="-8.5142122"><ele>456.0</ele><time>2026-03-28T16:49:02.879Z</time></trkpt><trkpt lat="42.4481192" lon="-8.5141111"><ele>456.0</ele><time>2026-03-28T16:49:04.871Z</time></trkpt><trkpt lat="42.448122" lon="-8.5139827"><ele>456.0</ele><time>2026-03-28T16:49:06.868Z</time></trkpt><trkpt lat="42.4481083" lon="-8.5138683"><ele>456.0</ele><time>2026-03-28T16:49:08.871Z</time></trkpt><trkpt lat="42.4480525" lon="-8.5138006"><ele>456.0</ele><time>2026-03-28T16:49:10.876Z</time></trkpt><trkpt lat="42.4479896" lon="-8.5137372"><ele>456.0</ele><time>2026-03-28T16:49:12.883Z</time></trkpt><trkpt lat="42.4479202" lon="-8.5137026"><ele>456.0</ele><time>2026-03-28T16:49:14.868Z</time></trkpt><trkpt lat="42.4478243" lon="-8.513706"><ele>456.0</ele><time>2026-03-28T16:49:16.87Z</time></trkpt><trkpt lat="42.4477206" lon="-8.5136935"><ele>459.6666666666667</ele><time>2026-03-28T16:49:18.879Z</time></trkpt><trkpt lat="42.4476557" lon="-8.5136333"><ele>463.33333333333337</ele><time>2026-03-28T16:49:20.868Z</time></trkpt><trkpt lat="42.4476585" lon="-8.5135476"><ele>467.0</ele><time>2026-03-28T16:49:40.867Z</time></trkpt><trkpt lat="42.4476942" lon="-8.5134615"><ele>470.6666666666667</ele><time>2026-03-28T16:52:55.877Z</time></trkpt><trkpt lat="42.4476934" lon="-8.5133387"><ele>474.33333333333337</ele><time>2026-03-28T16:52:57.876Z</time></trkpt><trkpt lat="42.4476976" lon="-8.513237"><ele>478.0</ele><time>2026-03-28T16:52:59.877Z</time></trkpt><trkpt lat="42.4476656" lon="-8.5131344"><ele>478.0</ele><time>2026-03-28T16:53:06.87Z</time></trkpt><trkpt lat="42.4476118" lon="-8.5130485"><ele>477.99999999999994</ele><time>2026-03-28T16:53:27.865Z</time></trkpt><trkpt lat="42.4475914" lon="-8.5129342"><ele>477.99999999999994</ele><time>2026-03-28T16:53:29.877Z</time></trkpt><trkpt lat="42.447558" lon="-8.512745"><ele>478.0</ele><time>2026-03-28T16:53:31.865Z</time></trkpt><trkpt lat="42.447524" lon="-8.5126048"><ele>478.0</ele><time>2026-03-28T16:53:32.87Z</time></trkpt><trkpt lat="42.4474792" lon="-8.5124489"><ele>480.4</ele><time>2026-03-28T16:53:33.87Z</time></trkpt><trkpt lat="42.4474172" lon="-8.5123055"><ele>482.79999999999995</ele><time>2026-03-28T16:53:34.865Z</time></trkpt><trkpt lat="42.4473534" lon="-8.5121694"><ele>485.2</ele><time>2026-03-28T16:53:35.867Z</time></trkpt><trkpt lat="42.4472846" lon="-8.5120605"><ele>487.6</ele><time>2026-03-28T16:53:36.877Z</time></trkpt><trkpt lat="42.4472224" lon="-8.511961"><ele>490.0</ele><time>2026-03-28T16:53:37.865Z</time></trkpt><trkpt lat="42.4471684" lon="-8.5118695"><ele>489.1666666666667</ele><time>2026-03-28T16:53:38.879Z</time></trkpt><trkpt lat="42.4471136" lon="-8.5117718"><ele>488.33333333333337</ele><time>2026-03-28T16:53:39.876Z</time></trkpt><trkpt lat="42.4470599" lon="-8.5116821"><ele>487.5</ele><time>2026-03-28T16:53:40.868Z</time></trkpt><trkpt lat="42.4469909" lon="-8.5115928"><ele>486.66666666666663</ele><time>2026-03-28T16:53:41.87Z</time></trkpt><trkpt lat="42.4469243" lon="-8.5115006"><ele>485.8333333333333</ele><time>2026-03-28T16:53:42.879Z</time></trkpt><trkpt lat="42.4468667" lon="-8.5114221"><ele>485.0</ele><time>2026-03-28T16:53:43.873Z</time></trkpt><trkpt lat="42.4468118" lon="-8.5113611"><ele>484.99999999999994</ele><time>2026-03-28T16:53:44.866Z</time></trkpt><trkpt lat="42.4467552" lon="-8.5112997"><ele>485.0</ele><time>2026-03-28T16:53:45.878Z</time></trkpt><trkpt lat="42.4467002" lon="-8.5112378"><ele>485.0</ele><time>2026-03-28T16:53:46.871Z</time></trkpt><trkpt lat="42.446644" lon="-8.5111774"><ele>485.0</ele><time>2026-03-28T16:53:47.869Z</time></trkpt><trkpt lat="42.4465891" lon="-8.5111107"><ele>484.99999999999994</ele><time>2026-03-28T16:53:48.866Z</time></trkpt><trkpt lat="42.4465327" lon="-8.511057"><ele>485.0</ele><time>2026-03-28T16:53:49.867Z</time></trkpt><trkpt lat="42.4464482" lon="-8.5109812"><ele>484.99999999999994</ele><time>2026-03-28T16:53:51.873Z</time></trkpt><trkpt lat="42.4463792" lon="-8.5109651"><ele>485.0</ele><time>2026-03-28T16:53:54.876Z</time></trkpt><trkpt lat="42.4463765" lon="-8.5110985"><ele>485.0</ele><time>2026-03-28T16:54:22.869Z</time></trkpt><trkpt lat="42.4463346" lon="-8.5112267"><ele>485.0</ele><time>2026-03-28T16:54:24.87Z</time></trkpt><trkpt lat="42.4462994" lon="-8.5112989"><ele>484.99999999999994</ele><time>2026-03-28T16:54:25.868Z</time></trkpt><trkpt lat="42.4462508" lon="-8.5113606"><ele>485.0</ele><time>2026-03-28T16:54:26.866Z</time></trkpt><trkpt lat="42.4461894" lon="-8.5114317"><ele>484.66666666666663</ele><time>2026-03-28T16:54:27.87Z</time></trkpt><trkpt lat="42.446127" lon="-8.5114907"><ele>484.3333333333333</ele><time>2026-03-28T16:54:28.872Z</time></trkpt><trkpt lat="42.4460501" lon="-8.5115464"><ele>484.0</ele><time>2026-03-28T16:54:29.866Z</time></trkpt><trkpt lat="42.4459705" lon="-8.5115945"><ele>483.66666666666663</ele><time>2026-03-28T16:54:30.865Z</time></trkpt><trkpt lat="42.4458914" lon="-8.5116514"><ele>483.3333333333333</ele><time>2026-03-28T16:54:31.875Z</time></trkpt><trkpt lat="42.4458188" lon="-8.5117189"><ele>483.0</ele><time>2026-03-28T16:54:32.867Z</time></trkpt><trkpt lat="42.4457527" lon="-8.5117858"><ele>483.0</ele><time>2026-03-28T16:54:33.872Z</time></trkpt><trkpt lat="42.4456929" lon="-8.5118473"><ele>483.0</ele><time>2026-03-28T16:54:34.87Z</time></trkpt><trkpt lat="42.4456268" lon="-8.5118983"><ele>483.0</ele><time>2026-03-28T16:54:35.874Z</time></trkpt><trkpt lat="42.4455651" lon="-8.5119405"><ele>483.0</ele><time>2026-03-28T16:54:36.868Z</time></trkpt><trkpt lat="42.4455079" lon="-8.5119916"><ele>483.0</ele><time>2026-03-28T16:54:37.867Z</time></trkpt><trkpt lat="42.4454368" lon="-8.512098"><ele>483.0</ele><time>2026-03-28T16:54:39.868Z</time></trkpt><trkpt lat="42.4453865" lon="-8.5122311"><ele>482.0</ele><time>2026-03-28T16:54:41.863Z</time></trkpt><trkpt lat="42.4453603" lon="-8.5123147"><ele>481.0</ele><time>2026-03-28T16:54:42.867Z</time></trkpt><trkpt lat="42.4453374" lon="-8.5123961"><ele>480.0</ele><time>2026-03-28T16:54:43.876Z</time></trkpt><trkpt lat="42.4453155" lon="-8.5124814"><ele>479.0</ele><time>2026-03-28T16:54:44.875Z</time></trkpt><trkpt lat="42.4452847" lon="-8.5126271"><ele>478.0</ele><time>2026-03-28T16:54:46.874Z</time></trkpt><trkpt lat="42.4452581" lon="-8.5127628"><ele>477.0</ele><time>2026-03-28T16:54:48.868Z</time></trkpt><trkpt lat="42.4452219" lon="-8.5128908"><ele>474.5</ele><time>2026-03-28T16:54:50.87Z</time></trkpt><trkpt lat="42.4452151" lon="-8.5130281"><ele>472.0</ele><time>2026-03-28T16:54:52.87Z</time></trkpt><trkpt lat="42.4452215" lon="-8.5132003"><ele>469.5</ele><time>2026-03-28T16:54:54.868Z</time></trkpt><trkpt lat="42.445237" lon="-8.5133603"><ele>467.0</ele><time>2026-03-28T16:54:56.867Z</time></trkpt><trkpt lat="42.4452519" lon="-8.5135111"><ele>466.99999999999994</ele><time>2026-03-28T16:54:58.863Z</time></trkpt><trkpt lat="42.4452919" lon="-8.5136332"><ele>467.0</ele><time>2026-03-28T16:55:00.872Z</time></trkpt><trkpt lat="42.4453183" lon="-8.5137177"><ele>467.0</ele><time>2026-03-28T16:55:02.871Z</time></trkpt><trkpt lat="42.4453118" lon="-8.5138092"><ele>467.0</ele><time>2026-03-28T16:55:04.868Z</time></trkpt><trkpt lat="42.4452931" lon="-8.5139309"><ele>466.99999999999994</ele><time>2026-03-28T16:55:06.874Z</time></trkpt><trkpt lat="42.4452654" lon="-8.5140632"><ele>467.0</ele><time>2026-03-28T16:55:08.865Z</time></trkpt><trkpt lat="42.4452187" lon="-8.5141706"><ele>464.3333333333333</ele><time>2026-03-28T16:55:10.869Z</time></trkpt><trkpt lat="42.4451509" lon="-8.5142298"><ele>461.66666666666663</ele><time>2026-03-28T16:55:12.873Z</time></trkpt><trkpt lat="42.4450878" lon="-8.5142754"><ele>459.0</ele><time>2026-03-28T16:55:14.866Z</time></trkpt><trkpt lat="42.445027" lon="-8.5143355"><ele>456.33333333333337</ele><time>2026-03-28T16:55:16.874Z</time></trkpt><trkpt lat="42.4449696" lon="-8.5144086"><ele>453.6666666666667</ele><time>2026-03-28T16:55:18.876Z</time></trkpt><trkpt lat="42.4449278" lon="-8.5144921"><ele>451.0</ele><time>2026-03-28T16:55:20.863Z</time></trkpt><trkpt lat="42.4448835" lon="-8.5145757"><ele>448.00000000000006</ele><time>2026-03-28T16:55:22.889Z</time></trkpt><trkpt lat="42.4448255" lon="-8.5146565"><ele>445.0</ele><time>2026-03-28T16:55:24.869Z</time></trkpt><trkpt lat="42.4447468" lon="-8.5147263"><ele>442.0</ele><time>2026-03-28T16:55:26.873Z</time></trkpt><trkpt lat="42.4446788" lon="-8.5147975"><ele>439.0</ele><time>2026-03-28T16:55:28.871Z</time></trkpt><trkpt lat="42.444623" lon="-8.5148581"><ele>436.00000000000006</ele><time>2026-03-28T16:55:30.871Z</time></trkpt><trkpt lat="42.4445714" lon="-8.5149518"><ele>433.0</ele><time>2026-03-28T16:55:32.871Z</time></trkpt><trkpt lat="42.4445186" lon="-8.5150475"><ele>433.0</ele><time>2026-03-28T16:55:34.872Z</time></trkpt><trkpt lat="42.4444741" lon="-8.5151396"><ele>432.99999999999994</ele><time>2026-03-28T16:55:36.87Z</time></trkpt><trkpt lat="42.4444133" lon="-8.5152253"><ele>432.99999999999994</ele><time>2026-03-28T16:55:38.873Z</time></trkpt><trkpt lat="42.4443212" lon="-8.5152824"><ele>433.0</ele><time>2026-03-28T16:55:40.886Z</time></trkpt><trkpt lat="42.4442229" lon="-8.5153132"><ele>433.0</ele><time>2026-03-28T16:55:42.868Z</time></trkpt><trkpt lat="42.4441316" lon="-8.5153276"><ele>433.00000000000006</ele><time>2026-03-28T16:55:44.871Z</time></trkpt><trkpt lat="42.4440548" lon="-8.5153338"><ele>433.0</ele><time>2026-03-28T16:55:46.87Z</time></trkpt><trkpt lat="42.4440274" lon="-8.5154293"><ele>433.0</ele><time>2026-03-28T16:55:49.869Z</time></trkpt><trkpt lat="42.4440723" lon="-8.515514"><ele>433.0</ele><time>2026-03-28T16:55:51.884Z</time></trkpt><trkpt lat="42.4441358" lon="-8.5155871"><ele>433.00000000000006</ele><time>2026-03-28T16:55:53.868Z</time></trkpt><trkpt lat="42.4442054" lon="-8.5156181"><ele>433.0</ele><time>2026-03-28T16:55:55.866Z</time></trkpt><trkpt lat="42.4442805" lon="-8.5156504"><ele>431.00000000000006</ele><time>2026-03-28T16:55:57.874Z</time></trkpt><trkpt lat="42.4443371" lon="-8.5157327"><ele>429.0</ele><time>2026-03-28T16:56:00.87Z</time></trkpt><trkpt lat="42.4442834" lon="-8.5158082"><ele>427.0</ele><time>2026-03-28T16:56:04.869Z</time></trkpt><trkpt lat="42.4442248" lon="-8.5158831"><ele>425.0</ele><time>2026-03-28T16:56:07.875Z</time></trkpt><trkpt lat="42.4441606" lon="-8.5159661"><ele>423.00000000000006</ele><time>2026-03-28T16:56:10.872Z</time></trkpt><trkpt lat="42.4440885" lon="-8.5160166"><ele>421.0</ele><time>2026-03-28T16:56:12.866Z</time></trkpt><trkpt lat="42.4440117" lon="-8.516076"><ele>421.0</ele><time>2026-03-28T16:56:14.867Z</time></trkpt><trkpt lat="42.443921" lon="-8.5161787"><ele>421.0</ele><time>2026-03-28T16:56:16.869Z</time></trkpt><trkpt lat="42.4438229" lon="-8.5162636"><ele>421.0</ele><time>2026-03-28T16:56:18.874Z</time></trkpt><trkpt lat="42.4437493" lon="-8.5163251"><ele>421.0</ele><time>2026-03-28T16:56:20.87Z</time></trkpt><trkpt lat="42.4436945" lon="-8.5163991"><ele>421.0</ele><time>2026-03-28T16:56:22.873Z</time></trkpt><trkpt lat="42.4436461" lon="-8.5164831"><ele>419.20000000000005</ele><time>2026-03-28T16:56:24.865Z</time></trkpt><trkpt lat="42.4435959" lon="-8.5165564"><ele>417.40000000000003</ele><time>2026-03-28T16:56:26.869Z</time></trkpt><trkpt lat="42.443513" lon="-8.5166354"><ele>415.6</ele><time>2026-03-28T16:56:28.878Z</time></trkpt><trkpt lat="42.4434255" lon="-8.5167176"><ele>413.8</ele><time>2026-03-28T16:56:30.869Z</time></trkpt><trkpt lat="42.4433754" lon="-8.516778"><ele>412.0</ele><time>2026-03-28T16:56:31.866Z</time></trkpt><trkpt lat="42.4432848" lon="-8.5169049"><ele>412.00000000000006</ele><time>2026-03-28T16:56:33.866Z</time></trkpt><trkpt lat="42.4432286" lon="-8.5169772"><ele>412.0</ele><time>2026-03-28T16:56:34.873Z</time></trkpt><trkpt lat="42.4431707" lon="-8.517056"><ele>412.0</ele><time>2026-03-28T16:56:35.866Z</time></trkpt><trkpt lat="42.4431229" lon="-8.5171334"><ele>412.0</ele><time>2026-03-28T16:56:36.868Z</time></trkpt><trkpt lat="42.4430355" lon="-8.5172559"><ele>412.00000000000006</ele><time>2026-03-28T16:56:38.873Z</time></trkpt><trkpt lat="42.442983" lon="-8.5173067"><ele>412.0</ele><time>2026-03-28T16:56:39.87Z</time></trkpt><trkpt lat="42.44292" lon="-8.5173409"><ele>409.1666666666667</ele><time>2026-03-28T16:56:40.869Z</time></trkpt><trkpt lat="42.4428556" lon="-8.5173629"><ele>406.33333333333337</ele><time>2026-03-28T16:56:41.863Z</time></trkpt><trkpt lat="42.4427914" lon="-8.5173802"><ele>403.5</ele><time>2026-03-28T16:56:42.863Z</time></trkpt><trkpt lat="42.4426826" lon="-8.517387"><ele>400.66666666666663</ele><time>2026-03-28T16:56:44.876Z</time></trkpt><trkpt lat="42.442617" lon="-8.5173821"><ele>397.8333333333333</ele><time>2026-03-28T16:56:46.868Z</time></trkpt><trkpt lat="42.4425692" lon="-8.5174516"><ele>395.0</ele><time>2026-03-28T16:56:49.865Z</time></trkpt><trkpt lat="42.4425311" lon="-8.517553"><ele>394.99999999999994</ele><time>2026-03-28T16:56:52.869Z</time></trkpt><trkpt lat="42.4425022" lon="-8.5177014"><ele>395.0</ele><time>2026-03-28T16:56:54.869Z</time></trkpt><trkpt lat="42.4424925" lon="-8.5177978"><ele>395.0</ele><time>2026-03-28T16:56:55.868Z</time></trkpt><trkpt lat="42.4424938" lon="-8.5179035"><ele>395.0</ele><time>2026-03-28T16:56:56.871Z</time></trkpt><trkpt lat="42.4424961" lon="-8.5180085"><ele>394.99999999999994</ele><time>2026-03-28T16:56:57.864Z</time></trkpt><trkpt lat="42.4425021" lon="-8.5181232"><ele>395.0</ele><time>2026-03-28T16:56:58.87Z</time></trkpt><trkpt lat="42.4425135" lon="-8.5182418"><ele>392.4</ele><time>2026-03-28T16:56:59.88Z</time></trkpt><trkpt lat="42.4425365" lon="-8.5183637"><ele>389.8</ele><time>2026-03-28T16:57:00.874Z</time></trkpt><trkpt lat="42.4425735" lon="-8.5184846"><ele>387.20000000000005</ele><time>2026-03-28T16:57:01.864Z</time></trkpt><trkpt lat="42.4426169" lon="-8.5185928"><ele>384.6</ele><time>2026-03-28T16:57:02.864Z</time></trkpt><trkpt lat="42.4426647" lon="-8.5186949"><ele>382.0</ele><time>2026-03-28T16:57:03.871Z</time></trkpt><trkpt lat="42.4427111" lon="-8.5187869"><ele>380.3333333333333</ele><time>2026-03-28T16:57:04.871Z</time></trkpt><trkpt lat="42.4427538" lon="-8.5188632"><ele>378.66666666666663</ele><time>2026-03-28T16:57:05.879Z</time></trkpt><trkpt lat="42.4427927" lon="-8.5189321"><ele>377.0</ele><time>2026-03-28T16:57:06.876Z</time></trkpt><trkpt lat="42.4428112" lon="-8.5190574"><ele>375.3333333333333</ele><time>2026-03-28T16:57:08.867Z</time></trkpt><trkpt lat="42.4427602" lon="-8.5191797"><ele>373.6666666666667</ele><time>2026-03-28T16:57:10.87Z</time></trkpt><trkpt lat="42.442747" lon="-8.5192972"><ele>372.0</ele><time>2026-03-28T16:57:12.869Z</time></trkpt><trkpt lat="42.4428126" lon="-8.5193132"><ele>372.0</ele><time>2026-03-28T16:57:14.87Z</time></trkpt><trkpt lat="42.4428841" lon="-8.519292"><ele>372.0</ele><time>2026-03-28T16:57:16.876Z</time></trkpt><trkpt lat="42.4428255" lon="-8.5193971"><ele>372.0</ele><time>2026-03-28T16:57:19.873Z</time></trkpt><trkpt lat="42.4427704" lon="-8.5194518"><ele>372.0</ele><time>2026-03-28T16:57:20.867Z</time></trkpt><trkpt lat="42.4427071" lon="-8.5195115"><ele>372.0</ele><time>2026-03-28T16:57:21.876Z</time></trkpt><trkpt lat="42.4426324" lon="-8.5195433"><ele>372.0</ele><time>2026-03-28T16:57:22.872Z</time></trkpt><trkpt lat="42.4425443" lon="-8.5195519"><ele>372.0</ele><time>2026-03-28T16:57:23.869Z</time></trkpt><trkpt lat="42.4424469" lon="-8.5195314"><ele>372.0</ele><time>2026-03-28T16:57:24.866Z</time></trkpt><trkpt lat="42.4423545" lon="-8.5194864"><ele>372.0</ele><time>2026-03-28T16:57:25.866Z</time></trkpt><trkpt lat="42.4422534" lon="-8.5194447"><ele>372.0</ele><time>2026-03-28T16:57:26.866Z</time></trkpt><trkpt lat="42.442155" lon="-8.519398"><ele>372.0</ele><time>2026-03-28T16:57:27.867Z</time></trkpt><trkpt lat="42.4420479" lon="-8.5193425"><ele>368.8</ele><time>2026-03-28T16:57:28.866Z</time></trkpt><trkpt lat="42.4419397" lon="-8.5192889"><ele>365.6</ele><time>2026-03-28T16:57:29.873Z</time></trkpt><trkpt lat="42.4418398" lon="-8.51923"><ele>362.40000000000003</ele><time>2026-03-28T16:57:30.872Z</time></trkpt><trkpt lat="42.4417413" lon="-8.5191772"><ele>359.20000000000005</ele><time>2026-03-28T16:57:31.868Z</time></trkpt><trkpt lat="42.4416511" lon="-8.5191336"><ele>356.0</ele><time>2026-03-28T16:57:32.871Z</time></trkpt><trkpt lat="42.4415731" lon="-8.5190932"><ele>356.0</ele><time>2026-03-28T16:57:33.868Z</time></trkpt><trkpt lat="42.4414959" lon="-8.5190496"><ele>356.0</ele><time>2026-03-28T16:57:34.87Z</time></trkpt><trkpt lat="42.4414256" lon="-8.5189986"><ele>356.0</ele><time>2026-03-28T16:57:35.878Z</time></trkpt><trkpt lat="42.4413559" lon="-8.5189323"><ele>356.0</ele><time>2026-03-28T16:57:36.868Z</time></trkpt><trkpt lat="42.4412893" lon="-8.5188452"><ele>356.0</ele><time>2026-03-28T16:57:37.864Z</time></trkpt><trkpt lat="42.4412315" lon="-8.518747"><ele>356.0</ele><time>2026-03-28T16:57:38.871Z</time></trkpt><trkpt lat="42.4411699" lon="-8.5186547"><ele>356.20000000000005</ele><time>2026-03-28T16:57:39.872Z</time></trkpt><trkpt lat="42.4410896" lon="-8.5185955"><ele>356.40000000000003</ele><time>2026-03-28T16:57:40.866Z</time></trkpt><trkpt lat="42.4409875" lon="-8.5185681"><ele>356.6</ele><time>2026-03-28T16:57:41.866Z</time></trkpt><trkpt lat="42.4408769" lon="-8.5185512"><ele>356.8</ele><time>2026-03-28T16:57:42.87Z</time></trkpt><trkpt lat="42.4407714" lon="-8.5185267"><ele>357.0</ele><time>2026-03-28T16:57:43.871Z</time></trkpt><trkpt lat="42.4406734" lon="-8.5184844"><ele>357.0</ele><time>2026-03-28T16:57:44.864Z</time></trkpt><trkpt lat="42.4405812" lon="-8.5184352"><ele>357.0</ele><time>2026-03-28T16:57:45.861Z</time></trkpt><trkpt lat="42.440499" lon="-8.518392"><ele>357.0</ele><time>2026-03-28T16:57:46.862Z</time></trkpt><trkpt lat="42.4404174" lon="-8.5183669"><ele>357.0</ele><time>2026-03-28T16:57:47.867Z</time></trkpt><trkpt lat="42.4403407" lon="-8.5183752"><ele>357.0</ele><time>2026-03-28T16:57:48.877Z</time></trkpt><trkpt lat="42.4402726" lon="-8.5184259"><ele>357.0</ele><time>2026-03-28T16:57:49.869Z</time></trkpt><trkpt lat="42.4402145" lon="-8.5184809"><ele>356.0</ele><time>2026-03-28T16:57:50.866Z</time></trkpt><trkpt lat="42.440164" lon="-8.5185344"><ele>355.0</ele><time>2026-03-28T16:57:51.867Z</time></trkpt><trkpt lat="42.440065" lon="-8.5186067"><ele>354.0</ele><time>2026-03-28T16:57:53.868Z</time></trkpt><trkpt lat="42.4399476" lon="-8.5185727"><ele>353.0</ele><time>2026-03-28T16:57:55.872Z</time></trkpt><trkpt lat="42.439874" lon="-8.5185266"><ele>352.0</ele><time>2026-03-28T16:57:56.868Z</time></trkpt><trkpt lat="42.4397927" lon="-8.5184759"><ele>352.0</ele><time>2026-03-28T16:57:57.871Z</time></trkpt><trkpt lat="42.4397061" lon="-8.5184237"><ele>352.0</ele><time>2026-03-28T16:57:58.867Z</time></trkpt><trkpt lat="42.4396187" lon="-8.5183708"><ele>352.0</ele><time>2026-03-28T16:57:59.87Z</time></trkpt><trkpt lat="42.4395308" lon="-8.5183298"><ele>352.0</ele><time>2026-03-28T16:58:00.881Z</time></trkpt><trkpt lat="42.4394395" lon="-8.5183186"><ele>352.0</ele><time>2026-03-28T16:58:01.869Z</time></trkpt><trkpt lat="42.4393517" lon="-8.5183302"><ele>352.0</ele><time>2026-03-28T16:58:02.867Z</time></trkpt><trkpt lat="42.4392724" lon="-8.5183555"><ele>352.0</ele><time>2026-03-28T16:58:03.878Z</time></trkpt><trkpt lat="42.4391962" lon="-8.5183915"><ele>352.0</ele><time>2026-03-28T16:58:04.867Z</time></trkpt><trkpt lat="42.4391227" lon="-8.518435"><ele>352.0</ele><time>2026-03-28T16:58:05.873Z</time></trkpt><trkpt lat="42.4390538" lon="-8.5184799"><ele>352.0</ele><time>2026-03-28T16:58:06.865Z</time></trkpt><trkpt lat="42.4389864" lon="-8.5185239"><ele>352.0</ele><time>2026-03-28T16:58:07.868Z</time></trkpt><trkpt lat="42.438918" lon="-8.5185718"><ele>352.0</ele><time>2026-03-28T16:58:08.874Z</time></trkpt><trkpt lat="42.4388463" lon="-8.5186221"><ele>352.0</ele><time>2026-03-28T16:58:09.864Z</time></trkpt><trkpt lat="42.4387764" lon="-8.5186707"><ele>352.0</ele><time>2026-03-28T16:58:10.87Z</time></trkpt><trkpt lat="42.4387093" lon="-8.5187143"><ele>352.0</ele><time>2026-03-28T16:58:11.869Z</time></trkpt><trkpt lat="42.4386486" lon="-8.5187508"><ele>352.0</ele><time>2026-03-28T16:58:12.872Z</time></trkpt><trkpt lat="42.4385351" lon="-8.5188236"><ele>352.0</ele><time>2026-03-28T16:58:14.864Z</time></trkpt><trkpt lat="42.4384735" lon="-8.5188427"><ele>352.3333333333333</ele><time>2026-03-28T16:58:15.868Z</time></trkpt><trkpt lat="42.4384055" lon="-8.5188309"><ele>352.66666666666663</ele><time>2026-03-28T16:58:16.872Z</time></trkpt><trkpt lat="42.438332" lon="-8.5187968"><ele>353.0</ele><time>2026-03-28T16:58:17.872Z</time></trkpt><trkpt lat="42.4382569" lon="-8.5187576"><ele>353.3333333333333</ele><time>2026-03-28T16:58:18.877Z</time></trkpt><trkpt lat="42.43818" lon="-8.5187206"><ele>353.6666666666667</ele><time>2026-03-28T16:58:19.865Z</time></trkpt><trkpt lat="42.4381044" lon="-8.5186946"><ele>354.0</ele><time>2026-03-28T16:58:20.87Z</time></trkpt><trkpt lat="42.4380291" lon="-8.5186737"><ele>356.3333333333333</ele><time>2026-03-28T16:58:21.871Z</time></trkpt><trkpt lat="42.437962" lon="-8.5186575"><ele>358.6666666666667</ele><time>2026-03-28T16:58:22.866Z</time></trkpt><trkpt lat="42.4378988" lon="-8.5186455"><ele>361.0</ele><time>2026-03-28T16:58:23.871Z</time></trkpt><trkpt lat="42.4378333" lon="-8.5186359"><ele>363.33333333333337</ele><time>2026-03-28T16:58:24.875Z</time></trkpt><trkpt lat="42.4377694" lon="-8.5186288"><ele>365.6666666666667</ele><time>2026-03-28T16:58:25.87Z</time></trkpt><trkpt lat="42.4376543" lon="-8.5186362"><ele>368.0</ele><time>2026-03-28T16:58:27.865Z</time></trkpt><trkpt lat="42.4375493" lon="-8.5186138"><ele>368.0</ele><time>2026-03-28T16:58:29.869Z</time></trkpt><trkpt lat="42.4374455" lon="-8.5185882"><ele>368.0</ele><time>2026-03-28T16:58:31.868Z</time></trkpt><trkpt lat="42.4373301" lon="-8.5185538"><ele>368.0</ele><time>2026-03-28T16:58:33.871Z</time></trkpt><trkpt lat="42.4372665" lon="-8.5185405"><ele>368.0</ele><time>2026-03-28T16:58:34.866Z</time></trkpt><trkpt lat="42.4371649" lon="-8.5184612"><ele>368.0</ele><time>2026-03-28T16:58:36.882Z</time></trkpt><trkpt lat="42.4371163" lon="-8.5184053"><ele>369.33333333333337</ele><time>2026-03-28T16:58:37.869Z</time></trkpt><trkpt lat="42.4370678" lon="-8.5183378"><ele>370.6666666666667</ele><time>2026-03-28T16:58:38.878Z</time></trkpt><trkpt lat="42.4370212" lon="-8.5182698"><ele>372.0</ele><time>2026-03-28T16:58:39.881Z</time></trkpt><trkpt lat="42.4369765" lon="-8.5181995"><ele>373.3333333333333</ele><time>2026-03-28T16:58:40.871Z</time></trkpt><trkpt lat="42.4369054" lon="-8.5180759"><ele>374.66666666666663</ele><time>2026-03-28T16:58:42.877Z</time></trkpt><trkpt lat="42.4368504" lon="-8.518026"><ele>376.0</ele><time>2026-03-28T16:58:43.863Z</time></trkpt><trkpt lat="42.4367885" lon="-8.5179763"><ele>376.0</ele><time>2026-03-28T16:58:44.867Z</time></trkpt><trkpt lat="42.436725" lon="-8.517924"><ele>376.0</ele><time>2026-03-28T16:58:45.878Z</time></trkpt><trkpt lat="42.436677" lon="-8.5178676"><ele>376.0</ele><time>2026-03-28T16:58:46.868Z</time></trkpt><trkpt lat="42.4366299" lon="-8.5177377"><ele>376.0</ele><time>2026-03-28T16:58:48.867Z</time></trkpt><trkpt lat="42.436614" lon="-8.5175853"><ele>376.0</ele><time>2026-03-28T16:58:50.865Z</time></trkpt><trkpt lat="42.4365831" lon="-8.5174629"><ele>376.8</ele><time>2026-03-28T16:58:52.874Z</time></trkpt><trkpt lat="42.4365388" lon="-8.5173606"><ele>377.6</ele><time>2026-03-28T16:58:54.865Z</time></trkpt><trkpt lat="42.43646" lon="-8.5173124"><ele>378.4</ele><time>2026-03-28T16:58:56.866Z</time></trkpt><trkpt lat="42.4363695" lon="-8.5173016"><ele>379.2</ele><time>2026-03-28T16:58:58.876Z</time></trkpt><trkpt lat="42.4362767" lon="-8.5173193"><ele>380.0</ele><time>2026-03-28T16:59:00.867Z</time></trkpt><trkpt lat="42.4361849" lon="-8.5173506"><ele>381.5</ele><time>2026-03-28T16:59:02.873Z</time></trkpt><trkpt lat="42.4361097" lon="-8.517386"><ele>383.0</ele><time>2026-03-28T16:59:04.867Z</time></trkpt><trkpt lat="42.436023" lon="-8.51742"><ele>384.5</ele><time>2026-03-28T16:59:06.869Z</time></trkpt><trkpt lat="42.4359419" lon="-8.5174021"><ele>386.0</ele><time>2026-03-28T16:59:08.864Z</time></trkpt><trkpt lat="42.4358926" lon="-8.5173276"><ele>387.49999999999994</ele><time>2026-03-28T16:59:10.868Z</time></trkpt><trkpt lat="42.4358814" lon="-8.5172313"><ele>389.0</ele><time>2026-03-28T16:59:12.872Z</time></trkpt><trkpt lat="42.4358577" lon="-8.5171182"><ele>390.4</ele><time>2026-03-28T16:59:14.867Z</time></trkpt><trkpt lat="42.4358264" lon="-8.5169973"><ele>391.79999999999995</ele><time>2026-03-28T16:59:16.87Z</time></trkpt><trkpt lat="42.4357715" lon="-8.516876"><ele>393.20000000000005</ele><time>2026-03-28T16:59:18.867Z</time></trkpt><trkpt lat="42.4357001" lon="-8.5167628"><ele>394.6</ele><time>2026-03-28T16:59:20.864Z</time></trkpt><trkpt lat="42.4355976" lon="-8.5167327"><ele>396.0</ele><time>2026-03-28T16:59:22.871Z</time></trkpt><trkpt lat="42.4354955" lon="-8.5167816"><ele>397.6</ele><time>2026-03-28T16:59:24.874Z</time></trkpt><trkpt lat="42.4354043" lon="-8.5168013"><ele>399.20000000000005</ele><time>2026-03-28T16:59:26.867Z</time></trkpt><trkpt lat="42.4353236" lon="-8.5167863"><ele>400.79999999999995</ele><time>2026-03-28T16:59:28.868Z</time></trkpt><trkpt lat="42.4352328" lon="-8.5167538"><ele>402.4</ele><time>2026-03-28T16:59:30.867Z</time></trkpt><trkpt lat="42.4351416" lon="-8.516782"><ele>404.0</ele><time>2026-03-28T16:59:32.872Z</time></trkpt><trkpt lat="42.4350487" lon="-8.5168429"><ele>403.99999999999994</ele><time>2026-03-28T16:59:34.867Z</time></trkpt><trkpt lat="42.4349582" lon="-8.5168602"><ele>404.0</ele><time>2026-03-28T16:59:36.869Z</time></trkpt><trkpt lat="42.4348751" lon="-8.5167932"><ele>404.0</ele><time>2026-03-28T16:59:38.877Z</time></trkpt><trkpt lat="42.4348156" lon="-8.5167394"><ele>404.0</ele><time>2026-03-28T16:59:39.869Z</time></trkpt><trkpt lat="42.4347311" lon="-8.5166887"><ele>403.99999999999994</ele><time>2026-03-28T16:59:40.875Z</time></trkpt><trkpt lat="42.4346442" lon="-8.5166337"><ele>404.0</ele><time>2026-03-28T16:59:41.868Z</time></trkpt><trkpt lat="42.4345669" lon="-8.5165848"><ele>405.6</ele><time>2026-03-28T16:59:42.875Z</time></trkpt><trkpt lat="42.4345149" lon="-8.5165288"><ele>407.2</ele><time>2026-03-28T16:59:43.867Z</time></trkpt><trkpt lat="42.4344615" lon="-8.5164039"><ele>408.8</ele><time>2026-03-28T16:59:45.862Z</time></trkpt><trkpt lat="42.4344153" lon="-8.5162846"><ele>410.40000000000003</ele><time>2026-03-28T16:59:47.872Z</time></trkpt><trkpt lat="42.434371" lon="-8.5161818"><ele>412.0</ele><time>2026-03-28T16:59:49.866Z</time></trkpt><trkpt lat="42.4342912" lon="-8.5161012"><ele>412.6</ele><time>2026-03-28T16:59:51.87Z</time></trkpt><trkpt lat="42.4341901" lon="-8.5160198"><ele>413.20000000000005</ele><time>2026-03-28T16:59:53.865Z</time></trkpt><trkpt lat="42.4340914" lon="-8.5159331"><ele>413.8</ele><time>2026-03-28T16:59:55.864Z</time></trkpt><trkpt lat="42.4339931" lon="-8.5158771"><ele>414.4</ele><time>2026-03-28T16:59:57.861Z</time></trkpt><trkpt lat="42.4339091" lon="-8.5158588"><ele>415.0</ele><time>2026-03-28T16:59:59.866Z</time></trkpt><trkpt lat="42.4338268" lon="-8.5158705"><ele>415.1666666666667</ele><time>2026-03-28T17:00:01.869Z</time></trkpt><trkpt lat="42.433755" lon="-8.5158974"><ele>415.33333333333337</ele><time>2026-03-28T17:00:03.866Z</time></trkpt><trkpt lat="42.4336838" lon="-8.5159244"><ele>415.5</ele><time>2026-03-28T17:00:05.874Z</time></trkpt><trkpt lat="42.4336073" lon="-8.5159461"><ele>415.66666666666663</ele><time>2026-03-28T17:00:07.872Z</time></trkpt><trkpt lat="42.4335127" lon="-8.5159676"><ele>415.8333333333333</ele><time>2026-03-28T17:00:09.867Z</time></trkpt><trkpt lat="42.4334129" lon="-8.5159726"><ele>416.0</ele><time>2026-03-28T17:00:11.873Z</time></trkpt><trkpt lat="42.4333224" lon="-8.515987"><ele>416.0</ele><time>2026-03-28T17:00:13.866Z</time></trkpt><trkpt lat="42.4332427" lon="-8.5159896"><ele>416.0</ele><time>2026-03-28T17:00:15.86Z</time></trkpt><trkpt lat="42.4331411" lon="-8.5160161"><ele>416.0</ele><time>2026-03-28T17:00:17.875Z</time></trkpt><trkpt lat="42.4330415" lon="-8.5160514"><ele>416.0</ele><time>2026-03-28T17:00:19.864Z</time></trkpt><trkpt lat="42.4329555" lon="-8.5160651"><ele>416.0</ele><time>2026-03-28T17:00:21.868Z</time></trkpt><trkpt lat="42.4328771" lon="-8.5160751"><ele>416.6</ele><time>2026-03-28T17:00:23.872Z</time></trkpt><trkpt lat="42.4328224" lon="-8.5161352"><ele>417.20000000000005</ele><time>2026-03-28T17:00:28.868Z</time></trkpt><trkpt lat="42.4327603" lon="-8.5162583"><ele>417.79999999999995</ele><time>2026-03-28T17:00:30.866Z</time></trkpt><trkpt lat="42.4327113" lon="-8.5163269"><ele>418.4</ele><time>2026-03-28T17:00:31.877Z</time></trkpt><trkpt lat="42.4326361" lon="-8.5164435"><ele>419.0</ele><time>2026-03-28T17:00:32.864Z</time></trkpt><trkpt lat="42.4325523" lon="-8.5165789"><ele>419.79999999999995</ele><time>2026-03-28T17:00:33.863Z</time></trkpt><trkpt lat="42.4324813" lon="-8.5167151"><ele>420.59999999999997</ele><time>2026-03-28T17:00:34.88Z</time></trkpt><trkpt lat="42.432416" lon="-8.5168219"><ele>421.4</ele><time>2026-03-28T17:00:35.868Z</time></trkpt><trkpt lat="42.4323704" lon="-8.5169216"><ele>422.2</ele><time>2026-03-28T17:00:36.871Z</time></trkpt><trkpt lat="42.4323351" lon="-8.5170121"><ele>423.0</ele><time>2026-03-28T17:00:37.871Z</time></trkpt><trkpt lat="42.4322783" lon="-8.5171482"><ele>423.59999999999997</ele><time>2026-03-28T17:00:39.866Z</time></trkpt><trkpt lat="42.4322859" lon="-8.5172715"><ele>424.2</ele><time>2026-03-28T17:00:41.869Z</time></trkpt><trkpt lat="42.4323126" lon="-8.5173912"><ele>424.8</ele><time>2026-03-28T17:00:43.863Z</time></trkpt><trkpt lat="42.4323326" lon="-8.5175244"><ele>425.4</ele><time>2026-03-28T17:00:45.863Z</time></trkpt><trkpt lat="42.4323616" lon="-8.517708"><ele>426.0</ele><time>2026-03-28T17:00:47.869Z</time></trkpt><trkpt lat="42.4323787" lon="-8.5178194"><ele>426.5</ele><time>2026-03-28T17:00:48.864Z</time></trkpt><trkpt lat="42.4323952" lon="-8.5179355"><ele>427.0</ele><time>2026-03-28T17:00:49.874Z</time></trkpt><trkpt lat="42.4324093" lon="-8.5180527"><ele>427.5</ele><time>2026-03-28T17:00:50.871Z</time></trkpt><trkpt lat="42.4324203" lon="-8.5181686"><ele>428.0</ele><time>2026-03-28T17:00:51.865Z</time></trkpt><trkpt lat="42.4324267" lon="-8.5182787"><ele>428.5</ele><time>2026-03-28T17:00:52.875Z</time></trkpt><trkpt lat="42.4324338" lon="-8.5183919"><ele>429.0</ele><time>2026-03-28T17:00:53.868Z</time></trkpt><trkpt lat="42.4324433" lon="-8.5185029"><ele>429.0</ele><time>2026-03-28T17:00:54.87Z</time></trkpt><trkpt lat="42.4324611" lon="-8.5186205"><ele>429.0</ele><time>2026-03-28T17:00:55.867Z</time></trkpt><trkpt lat="42.4324835" lon="-8.5187436"><ele>429.0</ele><time>2026-03-28T17:00:56.868Z</time></trkpt><trkpt lat="42.4325079" lon="-8.5188671"><ele>429.0</ele><time>2026-03-28T17:00:57.866Z</time></trkpt><trkpt lat="42.4325289" lon="-8.5189815"><ele>429.0</ele><time>2026-03-28T17:00:58.879Z</time></trkpt><trkpt lat="42.4325368" lon="-8.5190822"><ele>429.0</ele><time>2026-03-28T17:00:59.864Z</time></trkpt><trkpt lat="42.432534" lon="-8.5191787"><ele>429.2</ele><time>2026-03-28T17:01:00.866Z</time></trkpt><trkpt lat="42.4325005" lon="-8.5193268"><ele>429.4</ele><time>2026-03-28T17:01:02.872Z</time></trkpt><trkpt lat="42.432442" lon="-8.5193957"><ele>429.6</ele><time>2026-03-28T17:01:03.87Z</time></trkpt><trkpt lat="42.4323468" lon="-8.5194703"><ele>429.8</ele><time>2026-03-28T17:01:04.87Z</time></trkpt><trkpt lat="42.4322475" lon="-8.519548"><ele>430.0</ele><time>2026-03-28T17:01:05.865Z</time></trkpt><trkpt lat="42.4321564" lon="-8.5196291"><ele>429.8</ele><time>2026-03-28T17:01:06.868Z</time></trkpt><trkpt lat="42.4320729" lon="-8.5197062"><ele>429.6</ele><time>2026-03-28T17:01:07.866Z</time></trkpt><trkpt lat="42.43199" lon="-8.519766"><ele>429.4</ele><time>2026-03-28T17:01:08.873Z</time></trkpt><trkpt lat="42.4318998" lon="-8.5198137"><ele>429.2</ele><time>2026-03-28T17:01:09.867Z</time></trkpt><trkpt lat="42.4318154" lon="-8.5198514"><ele>429.0</ele><time>2026-03-28T17:01:10.866Z</time></trkpt><trkpt lat="42.4317276" lon="-8.5198668"><ele>429.0</ele><time>2026-03-28T17:01:11.873Z</time></trkpt><trkpt lat="42.4316369" lon="-8.5198794"><ele>429.0</ele><time>2026-03-28T17:01:12.867Z</time></trkpt><trkpt lat="42.4315383" lon="-8.5198996"><ele>429.0</ele><time>2026-03-28T17:01:13.867Z</time></trkpt><trkpt lat="42.4314377" lon="-8.5199337"><ele>429.0</ele><time>2026-03-28T17:01:14.871Z</time></trkpt><trkpt lat="42.4313432" lon="-8.5199838"><ele>429.0</ele><time>2026-03-28T17:01:15.866Z</time></trkpt><trkpt lat="42.4312461" lon="-8.5200437"><ele>430.79999999999995</ele><time>2026-03-28T17:01:16.867Z</time></trkpt><trkpt lat="42.4311481" lon="-8.5200887"><ele>432.59999999999997</ele><time>2026-03-28T17:01:17.866Z</time></trkpt><trkpt lat="42.4310512" lon="-8.5201369"><ele>434.4</ele><time>2026-03-28T17:01:18.868Z</time></trkpt><trkpt lat="42.4309523" lon="-8.5201759"><ele>436.2</ele><time>2026-03-28T17:01:19.867Z</time></trkpt><trkpt lat="42.430848" lon="-8.5202078"><ele>438.0</ele><time>2026-03-28T17:01:20.869Z</time></trkpt><trkpt lat="42.4307429" lon="-8.5202399"><ele>438.0</ele><time>2026-03-28T17:01:21.873Z</time></trkpt><trkpt lat="42.4306365" lon="-8.5202849"><ele>438.0</ele><time>2026-03-28T17:01:22.869Z</time></trkpt><trkpt lat="42.430528" lon="-8.5203409"><ele>438.0</ele><time>2026-03-28T17:01:23.865Z</time></trkpt><trkpt lat="42.4304081" lon="-8.5204008"><ele>438.0</ele><time>2026-03-28T17:01:24.873Z</time></trkpt><trkpt lat="42.430287" lon="-8.5204488"><ele>439.0</ele><time>2026-03-28T17:01:25.87Z</time></trkpt><trkpt lat="42.4301727" lon="-8.5204987"><ele>440.0</ele><time>2026-03-28T17:01:26.867Z</time></trkpt><trkpt lat="42.4300688" lon="-8.5205546"><ele>441.0</ele><time>2026-03-28T17:01:27.869Z</time></trkpt><trkpt lat="42.4299622" lon="-8.5206028"><ele>442.0</ele><time>2026-03-28T17:01:28.869Z</time></trkpt><trkpt lat="42.429848" lon="-8.5206394"><ele>442.0</ele><time>2026-03-28T17:01:29.868Z</time></trkpt><trkpt lat="42.4297286" lon="-8.5206669"><ele>442.0</ele><time>2026-03-28T17:01:30.864Z</time></trkpt><trkpt lat="42.4296147" lon="-8.5206915"><ele>442.0</ele><time>2026-03-28T17:01:31.874Z</time></trkpt><trkpt lat="42.4295056" lon="-8.520724"><ele>442.0</ele><time>2026-03-28T17:01:32.865Z</time></trkpt><trkpt lat="42.4293961" lon="-8.5207565"><ele>442.20000000000005</ele><time>2026-03-28T17:01:33.871Z</time></trkpt><trkpt lat="42.4292948" lon="-8.5207951"><ele>442.40000000000003</ele><time>2026-03-28T17:01:34.865Z</time></trkpt><trkpt lat="42.4292054" lon="-8.520847"><ele>442.59999999999997</ele><time>2026-03-28T17:01:35.866Z</time></trkpt><trkpt lat="42.4291175" lon="-8.520903"><ele>442.79999999999995</ele><time>2026-03-28T17:01:36.877Z</time></trkpt><trkpt lat="42.4290357" lon="-8.5209482"><ele>443.0</ele><time>2026-03-28T17:01:37.872Z</time></trkpt><trkpt lat="42.4289615" lon="-8.5209768"><ele>442.99999999999994</ele><time>2026-03-28T17:01:38.865Z</time></trkpt><trkpt lat="42.4288912" lon="-8.5209853"><ele>443.0</ele><time>2026-03-28T17:01:39.862Z</time></trkpt><trkpt lat="42.4288091" lon="-8.5209874"><ele>443.0</ele><time>2026-03-28T17:01:40.864Z</time></trkpt><trkpt lat="42.428712" lon="-8.5209946"><ele>443.0</ele><time>2026-03-28T17:01:41.866Z</time></trkpt><trkpt lat="42.4286146" lon="-8.52101"><ele>442.99999999999994</ele><time>2026-03-28T17:01:42.865Z</time></trkpt><trkpt lat="42.4285219" lon="-8.521035"><ele>443.0</ele><time>2026-03-28T17:01:43.878Z</time></trkpt><trkpt lat="42.428436" lon="-8.5210722"><ele>442.99999999999994</ele><time>2026-03-28T17:01:44.87Z</time></trkpt><trkpt lat="42.4283595" lon="-8.5210958"><ele>443.0</ele><time>2026-03-28T17:01:45.865Z</time></trkpt><trkpt lat="42.4282981" lon="-8.5211205"><ele>443.0</ele><time>2026-03-28T17:01:46.872Z</time></trkpt><trkpt lat="42.4282565" lon="-8.5212205"><ele>443.0</ele><time>2026-03-28T17:01:48.868Z</time></trkpt><trkpt lat="42.4282959" lon="-8.5213179"><ele>442.99999999999994</ele><time>2026-03-28T17:01:50.865Z</time></trkpt><trkpt lat="42.4283812" lon="-8.5213298"><ele>443.0</ele><time>2026-03-28T17:01:56.866Z</time></trkpt><trkpt lat="42.4284675" lon="-8.5213666"><ele>441.16666666666663</ele><time>2026-03-28T17:01:58.862Z</time></trkpt><trkpt lat="42.4285538" lon="-8.5214163"><ele>439.3333333333333</ele><time>2026-03-28T17:02:00.871Z</time></trkpt><trkpt lat="42.428624" lon="-8.5214328"><ele>437.5</ele><time>2026-03-28T17:02:02.877Z</time></trkpt><trkpt lat="42.4286841" lon="-8.5214779"><ele>435.66666666666663</ele><time>2026-03-28T17:02:19.868Z</time></trkpt><trkpt lat="42.4287482" lon="-8.5216167"><ele>433.8333333333333</ele><time>2026-03-28T17:02:22.869Z</time></trkpt><trkpt lat="42.4287767" lon="-8.5217296"><ele>432.0</ele><time>2026-03-28T17:02:23.863Z</time></trkpt><trkpt lat="42.4288073" lon="-8.5218483"><ele>431.6666666666667</ele><time>2026-03-28T17:02:24.862Z</time></trkpt><trkpt lat="42.4288336" lon="-8.5219438"><ele>431.33333333333337</ele><time>2026-03-28T17:02:25.873Z</time></trkpt><trkpt lat="42.4288025" lon="-8.5220706"><ele>431.0</ele><time>2026-03-28T17:02:27.873Z</time></trkpt><trkpt lat="42.4287617" lon="-8.5221407"><ele>430.6666666666667</ele><time>2026-03-28T17:02:29.875Z</time></trkpt><trkpt lat="42.4287038" lon="-8.5222131"><ele>430.33333333333337</ele><time>2026-03-28T17:02:47.871Z</time></trkpt><trkpt lat="42.4286305" lon="-8.5222125"><ele>430.0</ele><time>2026-03-28T17:02:48.88Z</time></trkpt><trkpt lat="42.4285515" lon="-8.5222086"><ele>430.00000000000006</ele><time>2026-03-28T17:02:49.871Z</time></trkpt><trkpt lat="42.428468" lon="-8.5222152"><ele>430.0</ele><time>2026-03-28T17:02:50.869Z</time></trkpt><trkpt lat="42.4283867" lon="-8.5222431"><ele>430.0</ele><time>2026-03-28T17:02:51.865Z</time></trkpt><trkpt lat="42.4283269" lon="-8.5222716"><ele>430.0</ele><time>2026-03-28T17:02:52.867Z</time></trkpt><trkpt lat="42.4282617" lon="-8.522361"><ele>430.00000000000006</ele><time>2026-03-28T17:02:54.87Z</time></trkpt><trkpt lat="42.4282437" lon="-8.5224434"><ele>430.0</ele><time>2026-03-28T17:02:55.874Z</time></trkpt><trkpt lat="42.4282298" lon="-8.5225319"><ele>430.00000000000006</ele><time>2026-03-28T17:02:56.871Z</time></trkpt><trkpt lat="42.4282178" lon="-8.5226186"><ele>430.0</ele><time>2026-03-28T17:02:57.87Z</time></trkpt><trkpt lat="42.4282102" lon="-8.5227246"><ele>430.0</ele><time>2026-03-28T17:02:58.867Z</time></trkpt><trkpt lat="42.4281989" lon="-8.5228353"><ele>430.0</ele><time>2026-03-28T17:02:59.866Z</time></trkpt><trkpt lat="42.4281805" lon="-8.5229551"><ele>430.00000000000006</ele><time>2026-03-28T17:03:00.864Z</time></trkpt><trkpt lat="42.4281574" lon="-8.5230608"><ele>430.0</ele><time>2026-03-28T17:03:01.867Z</time></trkpt><trkpt lat="42.4281345" lon="-8.5231578"><ele>429.33333333333337</ele><time>2026-03-28T17:03:02.87Z</time></trkpt><trkpt lat="42.4281101" lon="-8.523255"><ele>428.6666666666667</ele><time>2026-03-28T17:03:03.876Z</time></trkpt><trkpt lat="42.4280909" lon="-8.5233471"><ele>428.0</ele><time>2026-03-28T17:03:04.865Z</time></trkpt><trkpt lat="42.428081" lon="-8.5234351"><ele>427.33333333333337</ele><time>2026-03-28T17:03:05.869Z</time></trkpt><trkpt lat="42.4280655" lon="-8.5235769"><ele>426.6666666666667</ele><time>2026-03-28T17:03:07.876Z</time></trkpt><trkpt lat="42.4280361" lon="-8.5236944"><ele>426.0</ele><time>2026-03-28T17:03:09.865Z</time></trkpt><trkpt lat="42.427959" lon="-8.523779"><ele>426.0</ele><time>2026-03-28T17:03:11.877Z</time></trkpt><trkpt lat="42.4278375" lon="-8.5237929"><ele>426.0</ele><time>2026-03-28T17:03:13.872Z</time></trkpt><trkpt lat="42.4277761" lon="-8.523754"><ele>426.0</ele><time>2026-03-28T17:03:14.867Z</time></trkpt><trkpt lat="42.427724" lon="-8.5236986"><ele>426.0</ele><time>2026-03-28T17:03:15.866Z</time></trkpt><trkpt lat="42.427681" lon="-8.5236315"><ele>426.0</ele><time>2026-03-28T17:03:16.864Z</time></trkpt><trkpt lat="42.4276116" lon="-8.5234908"><ele>426.0</ele><time>2026-03-28T17:03:18.868Z</time></trkpt><trkpt lat="42.427583" lon="-8.523398"><ele>426.0</ele><time>2026-03-28T17:03:19.869Z</time></trkpt><trkpt lat="42.4275627" lon="-8.5233033"><ele>426.0</ele><time>2026-03-28T17:03:20.874Z</time></trkpt><trkpt lat="42.427544" lon="-8.5231987"><ele>426.0</ele><time>2026-03-28T17:03:21.868Z</time></trkpt><trkpt lat="42.4275219" lon="-8.5230923"><ele>426.0</ele><time>2026-03-28T17:03:22.864Z</time></trkpt><trkpt lat="42.4274883" lon="-8.5229918"><ele>426.0</ele><time>2026-03-28T17:03:23.873Z</time></trkpt><trkpt lat="42.4274375" lon="-8.5229085"><ele>426.0</ele><time>2026-03-28T17:03:24.867Z</time></trkpt><trkpt lat="42.4273792" lon="-8.5228411"><ele>427.1666666666667</ele><time>2026-03-28T17:03:25.868Z</time></trkpt><trkpt lat="42.4273177" lon="-8.5227723"><ele>428.33333333333337</ele><time>2026-03-28T17:03:26.869Z</time></trkpt><trkpt lat="42.4272534" lon="-8.5226961"><ele>429.5</ele><time>2026-03-28T17:03:27.863Z</time></trkpt><trkpt lat="42.4271851" lon="-8.5226271"><ele>430.6666666666667</ele><time>2026-03-28T17:03:28.871Z</time></trkpt><trkpt lat="42.4271152" lon="-8.5225873"><ele>431.83333333333337</ele><time>2026-03-28T17:03:29.872Z</time></trkpt><trkpt lat="42.427038" lon="-8.522568"><ele>433.0</ele><time>2026-03-28T17:03:30.866Z</time></trkpt><trkpt lat="42.4269577" lon="-8.5225748"><ele>433.00000000000006</ele><time>2026-03-28T17:03:31.866Z</time></trkpt><trkpt lat="42.4268761" lon="-8.5225953"><ele>433.0</ele><time>2026-03-28T17:03:32.873Z</time></trkpt><trkpt lat="42.4267895" lon="-8.5226177"><ele>433.0</ele><time>2026-03-28T17:03:33.87Z</time></trkpt><trkpt lat="42.4267129" lon="-8.5226298"><ele>433.0</ele><time>2026-03-28T17:03:34.866Z</time></trkpt><trkpt lat="42.4266449" lon="-8.5226292"><ele>433.00000000000006</ele><time>2026-03-28T17:03:35.867Z</time></trkpt><trkpt lat="42.426569" lon="-8.5226271"><ele>433.0</ele><time>2026-03-28T17:03:36.87Z</time></trkpt><trkpt lat="42.4264908" lon="-8.5226318"><ele>433.00000000000006</ele><time>2026-03-28T17:03:37.861Z</time></trkpt><trkpt lat="42.4264152" lon="-8.5226437"><ele>433.0</ele><time>2026-03-28T17:03:38.865Z</time></trkpt><trkpt lat="42.4263077" lon="-8.5227339"><ele>433.0</ele><time>2026-03-28T17:03:40.868Z</time></trkpt><trkpt lat="42.4262722" lon="-8.5228156"><ele>433.0</ele><time>2026-03-28T17:03:41.875Z</time></trkpt><trkpt lat="42.4262538" lon="-8.5229122"><ele>433.00000000000006</ele><time>2026-03-28T17:03:42.874Z</time></trkpt><trkpt lat="42.426237" lon="-8.5230087"><ele>433.0</ele><time>2026-03-28T17:03:43.866Z</time></trkpt><trkpt lat="42.4261713" lon="-8.5231495"><ele>432.2</ele><time>2026-03-28T17:03:45.867Z</time></trkpt><trkpt lat="42.4261218" lon="-8.5232077"><ele>431.4</ele><time>2026-03-28T17:03:46.874Z</time></trkpt><trkpt lat="42.42603" lon="-8.5233049"><ele>430.59999999999997</ele><time>2026-03-28T17:03:48.869Z</time></trkpt><trkpt lat="42.4259555" lon="-8.5234249"><ele>429.79999999999995</ele><time>2026-03-28T17:03:50.879Z</time></trkpt><trkpt lat="42.4259793" lon="-8.5235452"><ele>429.0</ele><time>2026-03-28T17:03:52.867Z</time></trkpt><trkpt lat="42.4260349" lon="-8.5235926"><ele>429.0</ele><time>2026-03-28T17:03:53.865Z</time></trkpt><trkpt lat="42.4260813" lon="-8.5236775"><ele>429.0</ele><time>2026-03-28T17:03:54.87Z</time></trkpt><trkpt lat="42.4261154" lon="-8.523784"><ele>429.0</ele><time>2026-03-28T17:03:55.872Z</time></trkpt><trkpt lat="42.426145" lon="-8.523895"><ele>429.0</ele><time>2026-03-28T17:03:56.861Z</time></trkpt><trkpt lat="42.4261635" lon="-8.5240126"><ele>429.0</ele><time>2026-03-28T17:03:57.873Z</time></trkpt><trkpt lat="42.4261695" lon="-8.5241374"><ele>429.0</ele><time>2026-03-28T17:03:58.876Z</time></trkpt><trkpt lat="42.426172" lon="-8.5242572"><ele>429.2</ele><time>2026-03-28T17:03:59.866Z</time></trkpt><trkpt lat="42.4261759" lon="-8.5243774"><ele>429.4</ele><time>2026-03-28T17:04:00.867Z</time></trkpt><trkpt lat="42.4261826" lon="-8.5244979"><ele>429.6</ele><time>2026-03-28T17:04:01.881Z</time></trkpt><trkpt lat="42.4261801" lon="-8.524621"><ele>429.8</ele><time>2026-03-28T17:04:02.867Z</time></trkpt><trkpt lat="42.426172" lon="-8.5247527"><ele>430.0</ele><time>2026-03-28T17:04:03.871Z</time></trkpt><trkpt lat="42.4261512" lon="-8.5248811"><ele>429.6</ele><time>2026-03-28T17:04:04.86Z</time></trkpt><trkpt lat="42.4261245" lon="-8.5250217"><ele>429.2</ele><time>2026-03-28T17:04:05.865Z</time></trkpt><trkpt lat="42.4260943" lon="-8.5251623"><ele>428.79999999999995</ele><time>2026-03-28T17:04:06.867Z</time></trkpt><trkpt lat="42.4260681" lon="-8.5253036"><ele>428.4</ele><time>2026-03-28T17:04:07.871Z</time></trkpt><trkpt lat="42.4260494" lon="-8.5254429"><ele>428.0</ele><time>2026-03-28T17:04:08.866Z</time></trkpt><trkpt lat="42.4260415" lon="-8.5255778"><ele>427.8333333333333</ele><time>2026-03-28T17:04:09.867Z</time></trkpt><trkpt lat="42.4260392" lon="-8.5256991"><ele>427.66666666666663</ele><time>2026-03-28T17:04:10.865Z</time></trkpt><trkpt lat="42.4260471" lon="-8.5258207"><ele>427.5</ele><time>2026-03-28T17:04:11.874Z</time></trkpt><trkpt lat="42.4260634" lon="-8.5259187"><ele>427.33333333333337</ele><time>2026-03-28T17:04:12.87Z</time></trkpt><trkpt lat="42.4260745" lon="-8.5260342"><ele>427.1666666666667</ele><time>2026-03-28T17:04:14.875Z</time></trkpt><trkpt lat="42.4260117" lon="-8.526026"><ele>427.0</ele><time>2026-03-28T17:04:16.874Z</time></trkpt><trkpt lat="42.4259399" lon="-8.5259196"><ele>427.0</ele><time>2026-03-28T17:04:18.868Z</time></trkpt><trkpt lat="42.4259043" lon="-8.5258489"><ele>427.00000000000006</ele><time>2026-03-28T17:04:19.868Z</time></trkpt><trkpt lat="42.4258566" lon="-8.5257522"><ele>427.00000000000006</ele><time>2026-03-28T17:04:20.866Z</time></trkpt><trkpt lat="42.4257833" lon="-8.5256075"><ele>427.0</ele><time>2026-03-28T17:04:21.871Z</time></trkpt><trkpt lat="42.4257118" lon="-8.525465"><ele>427.0</ele><time>2026-03-28T17:04:22.876Z</time></trkpt><trkpt lat="42.42565" lon="-8.5253368"><ele>427.20000000000005</ele><time>2026-03-28T17:04:23.871Z</time></trkpt><trkpt lat="42.4256069" lon="-8.5252089"><ele>427.40000000000003</ele><time>2026-03-28T17:04:24.868Z</time></trkpt><trkpt lat="42.4255898" lon="-8.5250784"><ele>427.59999999999997</ele><time>2026-03-28T17:04:25.861Z</time></trkpt><trkpt lat="42.4255784" lon="-8.5249325"><ele>427.79999999999995</ele><time>2026-03-28T17:04:26.864Z</time></trkpt><trkpt lat="42.4255601" lon="-8.5247811"><ele>428.0</ele><time>2026-03-28T17:04:27.865Z</time></trkpt><trkpt lat="42.4255288" lon="-8.5246516"><ele>428.3333333333333</ele><time>2026-03-28T17:04:28.861Z</time></trkpt><trkpt lat="42.4254896" lon="-8.5245373"><ele>428.66666666666663</ele><time>2026-03-28T17:04:29.863Z</time></trkpt><trkpt lat="42.4254422" lon="-8.5244283"><ele>429.0</ele><time>2026-03-28T17:04:30.865Z</time></trkpt><trkpt lat="42.4253912" lon="-8.5243323"><ele>429.33333333333337</ele><time>2026-03-28T17:04:31.866Z</time></trkpt><trkpt lat="42.4253279" lon="-8.5242611"><ele>429.6666666666667</ele><time>2026-03-28T17:04:32.869Z</time></trkpt><trkpt lat="42.4252695" lon="-8.5242231"><ele>430.0</ele><time>2026-03-28T17:04:33.869Z</time></trkpt><trkpt lat="42.4251765" lon="-8.5241884"><ele>432.00000000000006</ele><time>2026-03-28T17:04:35.872Z</time></trkpt><trkpt lat="42.4251101" lon="-8.5241523"><ele>434.0</ele><time>2026-03-28T17:04:37.866Z</time></trkpt><trkpt lat="42.4250288" lon="-8.5241217"><ele>436.0</ele><time>2026-03-28T17:04:40.868Z</time></trkpt><trkpt lat="42.4249546" lon="-8.5240669"><ele>438.0</ele><time>2026-03-28T17:04:44.867Z</time></trkpt><trkpt lat="42.4248757" lon="-8.523999"><ele>440.00000000000006</ele><time>2026-03-28T17:04:47.866Z</time></trkpt><trkpt lat="42.4248033" lon="-8.5239393"><ele>442.0</ele><time>2026-03-28T17:04:49.872Z</time></trkpt><trkpt lat="42.4247344" lon="-8.5238768"><ele>442.0</ele><time>2026-03-28T17:04:51.871Z</time></trkpt><trkpt lat="42.4246671" lon="-8.5238095"><ele>442.00000000000006</ele><time>2026-03-28T17:04:53.866Z</time></trkpt><trkpt lat="42.4245869" lon="-8.5237454"><ele>442.00000000000006</ele><time>2026-03-28T17:04:55.866Z</time></trkpt><trkpt lat="42.4244887" lon="-8.5236635"><ele>442.0</ele><time>2026-03-28T17:04:57.876Z</time></trkpt><trkpt lat="42.4243985" lon="-8.5235839"><ele>442.0</ele><time>2026-03-28T17:04:59.868Z</time></trkpt><trkpt lat="42.424324" lon="-8.5235706"><ele>442.50000000000006</ele><time>2026-03-28T17:05:01.867Z</time></trkpt><trkpt lat="42.4242524" lon="-8.5236198"><ele>443.0</ele><time>2026-03-28T17:05:04.866Z</time></trkpt><trkpt lat="42.4241916" lon="-8.5236817"><ele>443.5</ele><time>2026-03-28T17:05:06.874Z</time></trkpt><trkpt lat="42.4241315" lon="-8.523741"><ele>444.0</ele><time>2026-03-28T17:05:08.864Z</time></trkpt><trkpt lat="42.4240797" lon="-8.5238121"><ele>444.50000000000006</ele><time>2026-03-28T17:05:11.874Z</time></trkpt><trkpt lat="42.4240947" lon="-8.5239248"><ele>445.0</ele><time>2026-03-28T17:05:13.869Z</time></trkpt><trkpt lat="42.4241101" lon="-8.5240609"><ele>445.6</ele><time>2026-03-28T17:05:15.867Z</time></trkpt><trkpt lat="42.4241394" lon="-8.5241952"><ele>446.2</ele><time>2026-03-28T17:05:17.867Z</time></trkpt><trkpt lat="42.4241692" lon="-8.5243213"><ele>446.79999999999995</ele><time>2026-03-28T17:05:19.873Z</time></trkpt><trkpt lat="42.424198" lon="-8.5244601"><ele>447.4</ele><time>2026-03-28T17:05:21.869Z</time></trkpt><trkpt lat="42.4242169" lon="-8.5245909"><ele>448.0</ele><time>2026-03-28T17:05:23.873Z</time></trkpt><trkpt lat="42.4242406" lon="-8.5247224"><ele>448.59999999999997</ele><time>2026-03-28T17:05:25.867Z</time></trkpt><trkpt lat="42.4242687" lon="-8.5248504"><ele>449.19999999999993</ele><time>2026-03-28T17:05:27.864Z</time></trkpt><trkpt lat="42.424306" lon="-8.525006"><ele>449.8</ele><time>2026-03-28T17:05:29.873Z</time></trkpt><trkpt lat="42.4243173" lon="-8.5250962"><ele>450.4</ele><time>2026-03-28T17:05:30.865Z</time></trkpt><trkpt lat="42.4243455" lon="-8.5252384"><ele>451.0</ele><time>2026-03-28T17:05:32.868Z</time></trkpt><trkpt lat="42.4243692" lon="-8.5253437"><ele>451.0</ele><time>2026-03-28T17:05:34.866Z</time></trkpt><trkpt lat="42.4243873" lon="-8.5254349"><ele>451.0</ele><time>2026-03-28T17:05:36.872Z</time></trkpt><trkpt lat="42.424407" lon="-8.5255443"><ele>451.0</ele><time>2026-03-28T17:05:38.869Z</time></trkpt><trkpt lat="42.4243813" lon="-8.5257"><ele>451.0</ele><time>2026-03-28T17:05:40.874Z</time></trkpt><trkpt lat="42.4243655" lon="-8.5257892"><ele>451.0</ele><time>2026-03-28T17:05:41.869Z</time></trkpt><trkpt lat="42.4243492" lon="-8.5259431"><ele>451.0</ele><time>2026-03-28T17:05:43.865Z</time></trkpt><trkpt lat="42.4243296" lon="-8.5260885"><ele>451.0</ele><time>2026-03-28T17:05:45.865Z</time></trkpt><trkpt lat="42.4242865" lon="-8.5262472"><ele>451.0</ele><time>2026-03-28T17:05:47.867Z</time></trkpt><trkpt lat="42.4242454" lon="-8.5263973"><ele>451.0</ele><time>2026-03-28T17:05:49.865Z</time></trkpt><trkpt lat="42.4242364" lon="-8.5265506"><ele>450.4</ele><time>2026-03-28T17:05:51.875Z</time></trkpt><trkpt lat="42.4242337" lon="-8.5267118"><ele>449.8</ele><time>2026-03-28T17:05:53.864Z</time></trkpt><trkpt lat="42.4242339" lon="-8.5267971"><ele>449.19999999999993</ele><time>2026-03-28T17:05:54.866Z</time></trkpt><trkpt lat="42.4242357" lon="-8.5269566"><ele>448.59999999999997</ele><time>2026-03-28T17:05:56.87Z</time></trkpt><trkpt lat="42.4242232" lon="-8.5271282"><ele>448.0</ele><time>2026-03-28T17:05:58.869Z</time></trkpt><trkpt lat="42.4242083" lon="-8.5272784"><ele>446.59999999999997</ele><time>2026-03-28T17:06:00.866Z</time></trkpt><trkpt lat="42.4241675" lon="-8.5274135"><ele>445.19999999999993</ele><time>2026-03-28T17:06:02.873Z</time></trkpt><trkpt lat="42.42409" lon="-8.5275177"><ele>443.8</ele><time>2026-03-28T17:06:04.862Z</time></trkpt><trkpt lat="42.4239737" lon="-8.5275982"><ele>442.4</ele><time>2026-03-28T17:06:06.869Z</time></trkpt><trkpt lat="42.423898" lon="-8.5276411"><ele>441.0</ele><time>2026-03-28T17:06:07.871Z</time></trkpt><trkpt lat="42.4238167" lon="-8.5276782"><ele>441.3333333333333</ele><time>2026-03-28T17:06:08.873Z</time></trkpt><trkpt lat="42.4237446" lon="-8.5277153"><ele>441.66666666666663</ele><time>2026-03-28T17:06:09.872Z</time></trkpt><trkpt lat="42.4236874" lon="-8.5277615"><ele>442.0</ele><time>2026-03-28T17:06:10.871Z</time></trkpt><trkpt lat="42.4236322" lon="-8.5278276"><ele>442.3333333333333</ele><time>2026-03-28T17:06:11.871Z</time></trkpt><trkpt lat="42.4235729" lon="-8.5279078"><ele>442.66666666666663</ele><time>2026-03-28T17:06:12.868Z</time></trkpt><trkpt lat="42.4235191" lon="-8.5279994"><ele>443.0</ele><time>2026-03-28T17:06:13.868Z</time></trkpt><trkpt lat="42.4234712" lon="-8.5280912"><ele>442.99999999999994</ele><time>2026-03-28T17:06:14.87Z</time></trkpt><trkpt lat="42.4234312" lon="-8.5281841"><ele>443.0</ele><time>2026-03-28T17:06:15.869Z</time></trkpt><trkpt lat="42.4233941" lon="-8.5282729"><ele>443.0</ele><time>2026-03-28T17:06:16.866Z</time></trkpt><trkpt lat="42.4233471" lon="-8.5283529"><ele>443.0</ele><time>2026-03-28T17:06:17.868Z</time></trkpt><trkpt lat="42.4233009" lon="-8.5284333"><ele>442.99999999999994</ele><time>2026-03-28T17:06:18.867Z</time></trkpt><trkpt lat="42.4232509" lon="-8.5285159"><ele>443.0</ele><time>2026-03-28T17:06:19.862Z</time></trkpt><trkpt lat="42.4232027" lon="-8.5285816"><ele>442.99999999999994</ele><time>2026-03-28T17:06:20.865Z</time></trkpt><trkpt lat="42.4231569" lon="-8.5286524"><ele>443.0</ele><time>2026-03-28T17:06:24.873Z</time></trkpt><trkpt lat="42.4231114" lon="-8.5287458"><ele>443.0</ele><time>2026-03-28T17:06:28.87Z</time></trkpt><trkpt lat="42.4230722" lon="-8.5288217"><ele>443.0</ele><time>2026-03-28T17:06:30.86Z</time></trkpt><trkpt lat="42.4230394" lon="-8.5289183"><ele>442.99999999999994</ele><time>2026-03-28T17:06:32.872Z</time></trkpt><trkpt lat="42.4230022" lon="-8.5289968"><ele>443.0</ele><time>2026-03-28T17:06:34.867Z</time></trkpt><trkpt lat="42.4229148" lon="-8.5290981"><ele>442.99999999999994</ele><time>2026-03-28T17:06:36.87Z</time></trkpt><trkpt lat="42.4228381" lon="-8.5292307"><ele>443.0</ele><time>2026-03-28T17:06:38.869Z</time></trkpt><trkpt lat="42.4228027" lon="-8.5293092"><ele>443.0</ele><time>2026-03-28T17:06:39.873Z</time></trkpt><trkpt lat="42.4227721" lon="-8.5293874"><ele>443.0</ele><time>2026-03-28T17:06:40.866Z</time></trkpt><trkpt lat="42.4227452" lon="-8.5294661"><ele>442.99999999999994</ele><time>2026-03-28T17:06:41.882Z</time></trkpt><trkpt lat="42.4227107" lon="-8.5295421"><ele>443.0</ele><time>2026-03-28T17:06:42.869Z</time></trkpt><trkpt lat="42.4226463" lon="-8.5296736"><ele>442.99999999999994</ele><time>2026-03-28T17:06:44.87Z</time></trkpt><trkpt lat="42.4225956" lon="-8.5297937"><ele>443.0</ele><time>2026-03-28T17:06:46.871Z</time></trkpt><trkpt lat="42.4225647" lon="-8.5298893"><ele>443.0</ele><time>2026-03-28T17:06:48.871Z</time></trkpt><trkpt lat="42.4225449" lon="-8.529972"><ele>443.0</ele><time>2026-03-28T17:06:50.862Z</time></trkpt><trkpt lat="42.4225127" lon="-8.5300725"><ele>442.99999999999994</ele><time>2026-03-28T17:06:52.863Z</time></trkpt><trkpt lat="42.4224862" lon="-8.5302161"><ele>443.0</ele><time>2026-03-28T17:06:54.865Z</time></trkpt><trkpt lat="42.4224498" lon="-8.5303762"><ele>442.3333333333333</ele><time>2026-03-28T17:06:56.864Z</time></trkpt><trkpt lat="42.4224304" lon="-8.53047"><ele>441.66666666666663</ele><time>2026-03-28T17:06:57.86Z</time></trkpt><trkpt lat="42.4224186" lon="-8.5305647"><ele>441.0</ele><time>2026-03-28T17:06:58.865Z</time></trkpt><trkpt lat="42.4224086" lon="-8.5306517"><ele>440.33333333333337</ele><time>2026-03-28T17:06:59.862Z</time></trkpt><trkpt lat="42.4223853" lon="-8.5307993"><ele>439.6666666666667</ele><time>2026-03-28T17:07:01.869Z</time></trkpt><trkpt lat="42.4223552" lon="-8.5309522"><ele>439.0</ele><time>2026-03-28T17:07:03.861Z</time></trkpt><trkpt lat="42.4223305" lon="-8.5310322"><ele>439.00000000000006</ele><time>2026-03-28T17:07:04.859Z</time></trkpt><trkpt lat="42.4223108" lon="-8.5311551"><ele>439.0</ele><time>2026-03-28T17:07:06.86Z</time></trkpt><trkpt lat="42.4222905" lon="-8.5312453"><ele>439.0</ele><time>2026-03-28T17:07:09.863Z</time></trkpt><trkpt lat="42.4222355" lon="-8.5312992"><ele>439.0</ele><time>2026-03-28T17:07:12.864Z</time></trkpt><trkpt lat="42.4221741" lon="-8.5313352"><ele>439.00000000000006</ele><time>2026-03-28T17:07:14.861Z</time></trkpt><trkpt lat="42.4221032" lon="-8.5313669"><ele>439.0</ele><time>2026-03-28T17:07:16.863Z</time></trkpt><trkpt lat="42.4220198" lon="-8.5314146"><ele>438.6666666666667</ele><time>2026-03-28T17:07:19.864Z</time></trkpt><trkpt lat="42.4219648" lon="-8.5314816"><ele>438.33333333333337</ele><time>2026-03-28T17:07:21.869Z</time></trkpt><trkpt lat="42.421916" lon="-8.5315612"><ele>438.0</ele><time>2026-03-28T17:07:23.878Z</time></trkpt><trkpt lat="42.4218662" lon="-8.531642"><ele>437.66666666666663</ele><time>2026-03-28T17:07:25.872Z</time></trkpt><trkpt lat="42.4218061" lon="-8.5317354"><ele>437.3333333333333</ele><time>2026-03-28T17:07:27.869Z</time></trkpt><trkpt lat="42.421733" lon="-8.5318451"><ele>437.0</ele><time>2026-03-28T17:07:29.871Z</time></trkpt><trkpt lat="42.4216813" lon="-8.5319032"><ele>437.0</ele><time>2026-03-28T17:07:30.864Z</time></trkpt><trkpt lat="42.4216246" lon="-8.5319618"><ele>437.00000000000006</ele><time>2026-03-28T17:07:31.872Z</time></trkpt><trkpt lat="42.4215688" lon="-8.5320036"><ele>437.00000000000006</ele><time>2026-03-28T17:07:32.875Z</time></trkpt><trkpt lat="42.4214857" lon="-8.5320495"><ele>437.0</ele><time>2026-03-28T17:07:34.871Z</time></trkpt><trkpt lat="42.4213926" lon="-8.5321403"><ele>437.0</ele><time>2026-03-28T17:07:36.867Z</time></trkpt><trkpt lat="42.4213043" lon="-8.5322418"><ele>433.66666666666663</ele><time>2026-03-28T17:07:38.868Z</time></trkpt><trkpt lat="42.421226" lon="-8.532331"><ele>430.3333333333333</ele><time>2026-03-28T17:07:40.865Z</time></trkpt><trkpt lat="42.4211491" lon="-8.5323877"><ele>427.0</ele><time>2026-03-28T17:07:42.864Z</time></trkpt><trkpt lat="42.4210832" lon="-8.5324539"><ele>423.66666666666663</ele><time>2026-03-28T17:07:44.863Z</time></trkpt><trkpt lat="42.4210247" lon="-8.5325054"><ele>420.3333333333333</ele><time>2026-03-28T17:07:46.864Z</time></trkpt><trkpt lat="42.420963" lon="-8.532558"><ele>417.0</ele><time>2026-03-28T17:07:48.866Z</time></trkpt><trkpt lat="42.4208883" lon="-8.5326233"><ele>417.0</ele><time>2026-03-28T17:07:50.865Z</time></trkpt><trkpt lat="42.4208091" lon="-8.5327186"><ele>417.0</ele><time>2026-03-28T17:07:52.863Z</time></trkpt><trkpt lat="42.4207344" lon="-8.5328381"><ele>417.0</ele><time>2026-03-28T17:07:54.866Z</time></trkpt><trkpt lat="42.4206708" lon="-8.5329212"><ele>417.0</ele><time>2026-03-28T17:07:56.87Z</time></trkpt><trkpt lat="42.4206074" lon="-8.5330034"><ele>417.0</ele><time>2026-03-28T17:07:58.868Z</time></trkpt><trkpt lat="42.4205288" lon="-8.5331028"><ele>415.40000000000003</ele><time>2026-03-28T17:08:00.867Z</time></trkpt><trkpt lat="42.4204545" lon="-8.5332201"><ele>413.8</ele><time>2026-03-28T17:08:02.87Z</time></trkpt><trkpt lat="42.4203725" lon="-8.5333098"><ele>412.2</ele><time>2026-03-28T17:08:04.871Z</time></trkpt><trkpt lat="42.4202794" lon="-8.5333638"><ele>410.6</ele><time>2026-03-28T17:08:06.861Z</time></trkpt><trkpt lat="42.4201971" lon="-8.5334249"><ele>409.0</ele><time>2026-03-28T17:08:08.863Z</time></trkpt><trkpt lat="42.4201395" lon="-8.5335013"><ele>409.00000000000006</ele><time>2026-03-28T17:08:10.871Z</time></trkpt><trkpt lat="42.4200884" lon="-8.5335666"><ele>409.0</ele><time>2026-03-28T17:08:12.866Z</time></trkpt><trkpt lat="42.4200399" lon="-8.5336495"><ele>409.0</ele><time>2026-03-28T17:08:15.864Z</time></trkpt><trkpt lat="42.4199814" lon="-8.5337151"><ele>409.0</ele><time>2026-03-28T17:08:18.863Z</time></trkpt><trkpt lat="42.4199042" lon="-8.5338146"><ele>409.00000000000006</ele><time>2026-03-28T17:08:20.859Z</time></trkpt><trkpt lat="42.4198426" lon="-8.5338799"><ele>409.0</ele><time>2026-03-28T17:08:21.863Z</time></trkpt><trkpt lat="42.4197447" lon="-8.5339584"><ele>407.2</ele><time>2026-03-28T17:08:22.867Z</time></trkpt><trkpt lat="42.4196463" lon="-8.5340461"><ele>405.4</ele><time>2026-03-28T17:08:23.869Z</time></trkpt><trkpt lat="42.4195511" lon="-8.5341284"><ele>403.6</ele><time>2026-03-28T17:08:24.869Z</time></trkpt><trkpt lat="42.4194737" lon="-8.5342021"><ele>401.8</ele><time>2026-03-28T17:08:25.868Z</time></trkpt><trkpt lat="42.4193982" lon="-8.5342828"><ele>400.0</ele><time>2026-03-28T17:08:26.866Z</time></trkpt><trkpt lat="42.4193259" lon="-8.5343643"><ele>400.0</ele><time>2026-03-28T17:08:27.865Z</time></trkpt><trkpt lat="42.4192484" lon="-8.5344448"><ele>400.0</ele><time>2026-03-28T17:08:28.862Z</time></trkpt><trkpt lat="42.4191682" lon="-8.5345212"><ele>400.0</ele><time>2026-03-28T17:08:29.866Z</time></trkpt><trkpt lat="42.4190859" lon="-8.5346034"><ele>400.0</ele><time>2026-03-28T17:08:30.869Z</time></trkpt><trkpt lat="42.4190076" lon="-8.534684"><ele>400.0</ele><time>2026-03-28T17:08:31.863Z</time></trkpt><trkpt lat="42.4189295" lon="-8.534769"><ele>399.00000000000006</ele><time>2026-03-28T17:08:32.872Z</time></trkpt><trkpt lat="42.4188588" lon="-8.5348415"><ele>398.0</ele><time>2026-03-28T17:08:33.882Z</time></trkpt><trkpt lat="42.4187934" lon="-8.5349105"><ele>397.0</ele><time>2026-03-28T17:08:34.866Z</time></trkpt><trkpt lat="42.4187289" lon="-8.534978"><ele>396.0</ele><time>2026-03-28T17:08:35.868Z</time></trkpt><trkpt lat="42.4186631" lon="-8.5350456"><ele>395.00000000000006</ele><time>2026-03-28T17:08:36.866Z</time></trkpt><trkpt lat="42.4185937" lon="-8.5351166"><ele>394.0</ele><time>2026-03-28T17:08:37.87Z</time></trkpt><trkpt lat="42.4185192" lon="-8.5351956"><ele>394.0</ele><time>2026-03-28T17:08:38.874Z</time></trkpt><trkpt lat="42.418441" lon="-8.5352795"><ele>394.0</ele><time>2026-03-28T17:08:39.866Z</time></trkpt><trkpt lat="42.4183656" lon="-8.5353618"><ele>394.0</ele><time>2026-03-28T17:08:40.864Z</time></trkpt><trkpt lat="42.4182979" lon="-8.5354418"><ele>394.0</ele><time>2026-03-28T17:08:41.869Z</time></trkpt><trkpt lat="42.4182371" lon="-8.5355244"><ele>394.0</ele><time>2026-03-28T17:08:42.868Z</time></trkpt><trkpt lat="42.4181789" lon="-8.5356016"><ele>393.8571428571429</ele><time>2026-03-28T17:08:43.871Z</time></trkpt><trkpt lat="42.4181201" lon="-8.5356739"><ele>393.7142857142857</ele><time>2026-03-28T17:08:44.871Z</time></trkpt><trkpt lat="42.4180596" lon="-8.5357469"><ele>393.57142857142856</ele><time>2026-03-28T17:08:45.862Z</time></trkpt><trkpt lat="42.4180047" lon="-8.5358211"><ele>393.42857142857144</ele><time>2026-03-28T17:08:46.863Z</time></trkpt><trkpt lat="42.4179588" lon="-8.5358924"><ele>393.2857142857143</ele><time>2026-03-28T17:08:47.864Z</time></trkpt><trkpt lat="42.4179115" lon="-8.5359567"><ele>393.14285714285717</ele><time>2026-03-28T17:08:48.873Z</time></trkpt><trkpt lat="42.4178586" lon="-8.536015"><ele>393.0</ele><time>2026-03-28T17:08:49.872Z</time></trkpt><trkpt lat="42.4177971" lon="-8.5360752"><ele>393.1666666666667</ele><time>2026-03-28T17:08:50.868Z</time></trkpt><trkpt lat="42.4177185" lon="-8.5361437"><ele>393.33333333333337</ele><time>2026-03-28T17:08:51.863Z</time></trkpt><trkpt lat="42.4176502" lon="-8.5362036"><ele>393.5</ele><time>2026-03-28T17:08:52.873Z</time></trkpt><trkpt lat="42.4175888" lon="-8.5362592"><ele>393.6666666666667</ele><time>2026-03-28T17:08:53.862Z</time></trkpt><trkpt lat="42.4175364" lon="-8.536307"><ele>393.83333333333337</ele><time>2026-03-28T17:08:54.865Z</time></trkpt><trkpt lat="42.4174656" lon="-8.5364174"><ele>394.0</ele><time>2026-03-28T17:08:56.869Z</time></trkpt><trkpt lat="42.4174101" lon="-8.5365509"><ele>394.00000000000006</ele><time>2026-03-28T17:08:58.885Z</time></trkpt><trkpt lat="42.4173409" lon="-8.536697"><ele>394.0</ele><time>2026-03-28T17:09:00.863Z</time></trkpt><trkpt lat="42.4173022" lon="-8.5367731"><ele>394.0</ele><time>2026-03-28T17:09:01.867Z</time></trkpt><trkpt lat="42.4172654" lon="-8.5368445"><ele>394.0</ele><time>2026-03-28T17:09:02.869Z</time></trkpt><trkpt lat="42.417222" lon="-8.5369555"><ele>394.00000000000006</ele><time>2026-03-28T17:09:04.87Z</time></trkpt><trkpt lat="42.4171825" lon="-8.5370688"><ele>394.0</ele><time>2026-03-28T17:09:07.862Z</time></trkpt><trkpt lat="42.417113" lon="-8.5371646"><ele>393.79999999999995</ele><time>2026-03-28T17:09:10.864Z</time></trkpt><trkpt lat="42.4170354" lon="-8.5372788"><ele>393.59999999999997</ele><time>2026-03-28T17:09:12.861Z</time></trkpt><trkpt lat="42.4169821" lon="-8.537382"><ele>393.4</ele><time>2026-03-28T17:09:13.863Z</time></trkpt><trkpt lat="42.4169282" lon="-8.5374916"><ele>393.2</ele><time>2026-03-28T17:09:14.872Z</time></trkpt><trkpt lat="42.4168848" lon="-8.5375858"><ele>393.0</ele><time>2026-03-28T17:09:15.866Z</time></trkpt><trkpt lat="42.4168478" lon="-8.5376602"><ele>393.0</ele><time>2026-03-28T17:09:16.867Z</time></trkpt><trkpt lat="42.4167876" lon="-8.5377719"><ele>393.0</ele><time>2026-03-28T17:09:18.865Z</time></trkpt><trkpt lat="42.4167547" lon="-8.5378699"><ele>393.0</ele><time>2026-03-28T17:10:27.863Z</time></trkpt><trkpt lat="42.416691" lon="-8.5380144"><ele>393.0</ele><time>2026-03-28T17:10:29.861Z</time></trkpt><trkpt lat="42.4166462" lon="-8.5380983"><ele>393.0</ele><time>2026-03-28T17:10:30.86Z</time></trkpt><trkpt lat="42.4165931" lon="-8.5381731"><ele>393.0</ele><time>2026-03-28T17:10:31.867Z</time></trkpt><trkpt lat="42.4165433" lon="-8.5382419"><ele>393.0</ele><time>2026-03-28T17:10:32.866Z</time></trkpt><trkpt lat="42.4164887" lon="-8.5383274"><ele>393.0</ele><time>2026-03-28T17:10:33.87Z</time></trkpt><trkpt lat="42.416441" lon="-8.5384161"><ele>393.0</ele><time>2026-03-28T17:10:34.875Z</time></trkpt><trkpt lat="42.4163986" lon="-8.538515"><ele>393.0</ele><time>2026-03-28T17:10:35.87Z</time></trkpt><trkpt lat="42.4163563" lon="-8.5386062"><ele>393.0</ele><time>2026-03-28T17:10:36.87Z</time></trkpt><trkpt lat="42.416318" lon="-8.5386758"><ele>394.2</ele><time>2026-03-28T17:10:37.873Z</time></trkpt><trkpt lat="42.4162605" lon="-8.5387648"><ele>395.4</ele><time>2026-03-28T17:10:39.861Z</time></trkpt><trkpt lat="42.4162003" lon="-8.5388334"><ele>396.59999999999997</ele><time>2026-03-28T17:10:41.867Z</time></trkpt><trkpt lat="42.416107" lon="-8.5389072"><ele>397.79999999999995</ele><time>2026-03-28T17:10:43.862Z</time></trkpt><trkpt lat="42.4160494" lon="-8.5389439"><ele>399.0</ele><time>2026-03-28T17:10:44.866Z</time></trkpt><trkpt lat="42.4159411" lon="-8.5390362"><ele>399.0</ele><time>2026-03-28T17:10:46.869Z</time></trkpt><trkpt lat="42.4158995" lon="-8.5391279"><ele>399.0</ele><time>2026-03-28T17:10:47.861Z</time></trkpt><trkpt lat="42.4158756" lon="-8.5392496"><ele>399.0</ele><time>2026-03-28T17:10:48.871Z</time></trkpt><trkpt lat="42.4158633" lon="-8.5394175"><ele>399.0</ele><time>2026-03-28T17:10:49.866Z</time></trkpt><trkpt lat="42.4158473" lon="-8.5396415"><ele>399.5</ele><time>2026-03-28T17:10:50.865Z</time></trkpt><trkpt lat="42.4158279" lon="-8.5398625"><ele>400.0</ele><time>2026-03-28T17:10:51.863Z</time></trkpt><trkpt lat="42.4157759" lon="-8.5400577"><ele>400.5</ele><time>2026-03-28T17:10:52.858Z</time></trkpt><trkpt lat="42.4157338" lon="-8.5401991"><ele>401.0</ele><time>2026-03-28T17:10:53.864Z</time></trkpt><trkpt lat="42.415707" lon="-8.5403146"><ele>401.16666666666663</ele><time>2026-03-28T17:10:54.867Z</time></trkpt><trkpt lat="42.415704" lon="-8.540425"><ele>401.3333333333333</ele><time>2026-03-28T17:10:55.867Z</time></trkpt><trkpt lat="42.4157138" lon="-8.5405133"><ele>401.5</ele><time>2026-03-28T17:10:56.863Z</time></trkpt><trkpt lat="42.4156959" lon="-8.5406349"><ele>401.66666666666663</ele><time>2026-03-28T17:10:58.862Z</time></trkpt><trkpt lat="42.4156813" lon="-8.5407313"><ele>401.8333333333333</ele><time>2026-03-28T17:11:03.874Z</time></trkpt><trkpt lat="42.4156488" lon="-8.5408193"><ele>402.0</ele><time>2026-03-28T17:12:10.873Z</time></trkpt><trkpt lat="42.4156399" lon="-8.540936"><ele>402.0</ele><time>2026-03-28T17:12:14.871Z</time></trkpt><trkpt lat="42.4155969" lon="-8.5410589"><ele>402.0</ele><time>2026-03-28T17:12:16.872Z</time></trkpt><trkpt lat="42.4155535" lon="-8.5411578"><ele>402.0</ele><time>2026-03-28T17:12:17.861Z</time></trkpt><trkpt lat="42.415502" lon="-8.5412778"><ele>402.0</ele><time>2026-03-28T17:12:18.872Z</time></trkpt><trkpt lat="42.4155045" lon="-8.5414344"><ele>402.0</ele><time>2026-03-28T17:12:19.86Z</time></trkpt><trkpt lat="42.4154849" lon="-8.541564"><ele>401.1666666666667</ele><time>2026-03-28T17:12:20.867Z</time></trkpt><trkpt lat="42.4154599" lon="-8.5416819"><ele>400.33333333333337</ele><time>2026-03-28T17:12:21.865Z</time></trkpt><trkpt lat="42.4154582" lon="-8.5417876"><ele>399.5</ele><time>2026-03-28T17:12:22.863Z</time></trkpt><trkpt lat="42.4154432" lon="-8.5418965"><ele>398.6666666666667</ele><time>2026-03-28T17:12:23.864Z</time></trkpt><trkpt lat="42.4154259" lon="-8.5420073"><ele>397.83333333333337</ele><time>2026-03-28T17:12:24.873Z</time></trkpt><trkpt lat="42.4154097" lon="-8.5421158"><ele>397.0</ele><time>2026-03-28T17:12:25.863Z</time></trkpt><trkpt lat="42.4154011" lon="-8.5422279"><ele>395.00000000000006</ele><time>2026-03-28T17:12:26.871Z</time></trkpt><trkpt lat="42.4153906" lon="-8.5423366"><ele>393.0</ele><time>2026-03-28T17:12:27.866Z</time></trkpt><trkpt lat="42.4153843" lon="-8.5424437"><ele>391.0</ele><time>2026-03-28T17:12:28.875Z</time></trkpt><trkpt lat="42.4153773" lon="-8.5425522"><ele>389.0</ele><time>2026-03-28T17:12:29.876Z</time></trkpt><trkpt lat="42.4153632" lon="-8.5426449"><ele>387.00000000000006</ele><time>2026-03-28T17:12:30.869Z</time></trkpt><trkpt lat="42.415315" lon="-8.5428056"><ele>385.0</ele><time>2026-03-28T17:12:32.865Z</time></trkpt><trkpt lat="42.415279" lon="-8.542876"><ele>383.85714285714283</ele><time>2026-03-28T17:12:33.864Z</time></trkpt><trkpt lat="42.4152316" lon="-8.5429426"><ele>382.7142857142857</ele><time>2026-03-28T17:12:34.867Z</time></trkpt><trkpt lat="42.4151785" lon="-8.5430087"><ele>381.57142857142856</ele><time>2026-03-28T17:12:35.859Z</time></trkpt><trkpt lat="42.4151218" lon="-8.5430696"><ele>380.42857142857144</ele><time>2026-03-28T17:12:36.867Z</time></trkpt><trkpt lat="42.4150545" lon="-8.5431281"><ele>379.2857142857143</ele><time>2026-03-28T17:12:37.865Z</time></trkpt><trkpt lat="42.4149817" lon="-8.543174"><ele>378.1428571428571</ele><time>2026-03-28T17:12:38.859Z</time></trkpt><trkpt lat="42.4149121" lon="-8.543211"><ele>377.0</ele><time>2026-03-28T17:12:39.863Z</time></trkpt><trkpt lat="42.4148034" lon="-8.5432642"><ele>377.0</ele><time>2026-03-28T17:12:41.86Z</time></trkpt><trkpt lat="42.4147302" lon="-8.5432901"><ele>377.0</ele><time>2026-03-28T17:12:43.865Z</time></trkpt><trkpt lat="42.4146702" lon="-8.5433595"><ele>377.0</ele><time>2026-03-28T17:12:47.862Z</time></trkpt><trkpt lat="42.4146722" lon="-8.5434608"><ele>377.0</ele><time>2026-03-28T17:12:52.863Z</time></trkpt><trkpt lat="42.4147203" lon="-8.5435696"><ele>377.0</ele><time>2026-03-28T17:12:55.867Z</time></trkpt><trkpt lat="42.4147658" lon="-8.5436441"><ele>377.0</ele><time>2026-03-28T17:12:57.864Z</time></trkpt><trkpt lat="42.4147706" lon="-8.5437713"><ele>375.0</ele><time>2026-03-28T17:13:00.868Z</time></trkpt><trkpt lat="42.4147607" lon="-8.54388"><ele>373.0</ele><time>2026-03-28T17:13:02.869Z</time></trkpt><trkpt lat="42.4147527" lon="-8.544027"><ele>371.0</ele><time>2026-03-28T17:13:04.87Z</time></trkpt><trkpt lat="42.4147656" lon="-8.5442078"><ele>369.0</ele><time>2026-03-28T17:13:06.863Z</time></trkpt><trkpt lat="42.4147588" lon="-8.5443061"><ele>367.0</ele><time>2026-03-28T17:13:07.87Z</time></trkpt><trkpt lat="42.4147735" lon="-8.544475"><ele>365.0</ele><time>2026-03-28T17:13:09.864Z</time></trkpt><trkpt lat="42.4147881" lon="-8.5445597"><ele>363.0</ele><time>2026-03-28T17:13:10.866Z</time></trkpt><trkpt lat="42.4147864" lon="-8.5446939"><ele>361.0</ele><time>2026-03-28T17:13:12.876Z</time></trkpt><trkpt lat="42.4147622" lon="-8.544839"><ele>359.0</ele><time>2026-03-28T17:13:14.87Z</time></trkpt><trkpt lat="42.4147494" lon="-8.5449257"><ele>357.0</ele><time>2026-03-28T17:13:15.861Z</time></trkpt><trkpt lat="42.4147358" lon="-8.5450193"><ele>355.0</ele><time>2026-03-28T17:13:16.866Z</time></trkpt><trkpt lat="42.4147224" lon="-8.5451236"><ele>355.0</ele><time>2026-03-28T17:13:17.862Z</time></trkpt><trkpt lat="42.4146908" lon="-8.5452302"><ele>355.0</ele><time>2026-03-28T17:13:18.86Z</time></trkpt><trkpt lat="42.4146638" lon="-8.5453402"><ele>355.0</ele><time>2026-03-28T17:13:19.875Z</time></trkpt><trkpt lat="42.4146381" lon="-8.5454365"><ele>355.0</ele><time>2026-03-28T17:13:20.865Z</time></trkpt><trkpt lat="42.4146182" lon="-8.5455232"><ele>355.0</ele><time>2026-03-28T17:13:21.864Z</time></trkpt><trkpt lat="42.4146012" lon="-8.545611"><ele>355.0</ele><time>2026-03-28T17:13:22.866Z</time></trkpt><trkpt lat="42.4145812" lon="-8.5457012"><ele>354.66666666666663</ele><time>2026-03-28T17:13:23.864Z</time></trkpt><trkpt lat="42.4145612" lon="-8.545786"><ele>354.3333333333333</ele><time>2026-03-28T17:13:24.865Z</time></trkpt><trkpt lat="42.4145388" lon="-8.5458768"><ele>354.0</ele><time>2026-03-28T17:13:25.86Z</time></trkpt><trkpt lat="42.4145212" lon="-8.5459644"><ele>353.6666666666667</ele><time>2026-03-28T17:13:26.87Z</time></trkpt><trkpt lat="42.4145068" lon="-8.5461135"><ele>353.33333333333337</ele><time>2026-03-28T17:13:28.864Z</time></trkpt><trkpt lat="42.4145026" lon="-8.5462138"><ele>353.0</ele><time>2026-03-28T17:13:30.867Z</time></trkpt><trkpt lat="42.414475" lon="-8.5463185"><ele>353.0</ele><time>2026-03-28T17:13:33.859Z</time></trkpt><trkpt lat="42.4144547" lon="-8.54641"><ele>353.0</ele><time>2026-03-28T17:13:35.863Z</time></trkpt><trkpt lat="42.414431" lon="-8.5465253"><ele>353.0</ele><time>2026-03-28T17:13:37.858Z</time></trkpt><trkpt lat="42.4144001" lon="-8.5466631"><ele>353.0</ele><time>2026-03-28T17:13:39.869Z</time></trkpt><trkpt lat="42.4143674" lon="-8.5468033"><ele>353.0</ele><time>2026-03-28T17:13:41.868Z</time></trkpt><trkpt lat="42.4143541" lon="-8.546934"><ele>350.2</ele><time>2026-03-28T17:13:43.863Z</time></trkpt><trkpt lat="42.4143616" lon="-8.547051"><ele>347.4</ele><time>2026-03-28T17:13:45.863Z</time></trkpt><trkpt lat="42.4143476" lon="-8.5471831"><ele>344.59999999999997</ele><time>2026-03-28T17:13:47.864Z</time></trkpt><trkpt lat="42.4143334" lon="-8.5472775"><ele>341.79999999999995</ele><time>2026-03-28T17:13:48.869Z</time></trkpt><trkpt lat="42.4143073" lon="-8.5474074"><ele>339.0</ele><time>2026-03-28T17:13:49.863Z</time></trkpt><trkpt lat="42.4142722" lon="-8.5475573"><ele>339.0</ele><time>2026-03-28T17:13:50.861Z</time></trkpt><trkpt lat="42.4142277" lon="-8.5477226"><ele>339.0</ele><time>2026-03-28T17:13:51.859Z</time></trkpt><trkpt lat="42.414172" lon="-8.5478906"><ele>339.0</ele><time>2026-03-28T17:13:52.859Z</time></trkpt><trkpt lat="42.4141204" lon="-8.5480506"><ele>339.0</ele><time>2026-03-28T17:13:53.864Z</time></trkpt><trkpt lat="42.4140705" lon="-8.548184"><ele>338.3333333333333</ele><time>2026-03-28T17:13:54.869Z</time></trkpt><trkpt lat="42.4140264" lon="-8.5483045"><ele>337.6666666666667</ele><time>2026-03-28T17:13:55.878Z</time></trkpt><trkpt lat="42.4139949" lon="-8.5484155"><ele>337.0</ele><time>2026-03-28T17:13:56.864Z</time></trkpt><trkpt lat="42.413973" lon="-8.5485198"><ele>336.33333333333337</ele><time>2026-03-28T17:13:57.868Z</time></trkpt><trkpt lat="42.4139482" lon="-8.5486174"><ele>335.6666666666667</ele><time>2026-03-28T17:13:58.875Z</time></trkpt><trkpt lat="42.4139156" lon="-8.5487111"><ele>335.0</ele><time>2026-03-28T17:13:59.859Z</time></trkpt><trkpt lat="42.4138884" lon="-8.5488073"><ele>334.6666666666667</ele><time>2026-03-28T17:14:00.872Z</time></trkpt><trkpt lat="42.4138756" lon="-8.5489113"><ele>334.33333333333337</ele><time>2026-03-28T17:14:01.864Z</time></trkpt><trkpt lat="42.4138671" lon="-8.5490279"><ele>334.0</ele><time>2026-03-28T17:14:02.871Z</time></trkpt><trkpt lat="42.4138544" lon="-8.549152"><ele>333.6666666666667</ele><time>2026-03-28T17:14:03.869Z</time></trkpt><trkpt lat="42.4138291" lon="-8.5492739"><ele>333.3333333333333</ele><time>2026-03-28T17:14:04.869Z</time></trkpt><trkpt lat="42.4137936" lon="-8.5493864"><ele>333.0</ele><time>2026-03-28T17:14:05.86Z</time></trkpt><trkpt lat="42.4137477" lon="-8.5494821"><ele>332.8333333333333</ele><time>2026-03-28T17:14:06.874Z</time></trkpt><trkpt lat="42.4136917" lon="-8.549566"><ele>332.6666666666667</ele><time>2026-03-28T17:14:07.869Z</time></trkpt><trkpt lat="42.4136326" lon="-8.5496569"><ele>332.5</ele><time>2026-03-28T17:14:08.865Z</time></trkpt><trkpt lat="42.4135702" lon="-8.5497561"><ele>332.33333333333337</ele><time>2026-03-28T17:14:09.868Z</time></trkpt><trkpt lat="42.4135215" lon="-8.5498645"><ele>332.1666666666667</ele><time>2026-03-28T17:14:10.861Z</time></trkpt><trkpt lat="42.4134847" lon="-8.5499704"><ele>332.0</ele><time>2026-03-28T17:14:11.859Z</time></trkpt><trkpt lat="42.4134554" lon="-8.550071"><ele>332.0</ele><time>2026-03-28T17:14:12.865Z</time></trkpt><trkpt lat="42.4134343" lon="-8.5501669"><ele>332.0</ele><time>2026-03-28T17:14:13.864Z</time></trkpt><trkpt lat="42.4134246" lon="-8.5502602"><ele>332.0</ele><time>2026-03-28T17:14:14.873Z</time></trkpt><trkpt lat="42.4134341" lon="-8.5504081"><ele>332.0</ele><time>2026-03-28T17:14:16.872Z</time></trkpt><trkpt lat="42.4134867" lon="-8.5504918"><ele>332.0</ele><time>2026-03-28T17:14:19.866Z</time></trkpt><trkpt lat="42.4134737" lon="-8.5506598"><ele>332.6666666666667</ele><time>2026-03-28T17:14:22.863Z</time></trkpt><trkpt lat="42.4134466" lon="-8.5507489"><ele>333.33333333333337</ele><time>2026-03-28T17:14:23.862Z</time></trkpt><trkpt lat="42.4134179" lon="-8.5508509"><ele>334.0</ele><time>2026-03-28T17:14:24.877Z</time></trkpt><trkpt lat="42.4133916" lon="-8.5509534"><ele>334.6666666666667</ele><time>2026-03-28T17:14:25.859Z</time></trkpt><trkpt lat="42.4133685" lon="-8.5510589"><ele>335.3333333333333</ele><time>2026-03-28T17:14:26.863Z</time></trkpt><trkpt lat="42.4133508" lon="-8.551175"><ele>336.0</ele><time>2026-03-28T17:14:27.872Z</time></trkpt><trkpt lat="42.4133298" lon="-8.5512877"><ele>336.2857142857143</ele><time>2026-03-28T17:14:28.864Z</time></trkpt><trkpt lat="42.4133012" lon="-8.5513879"><ele>336.57142857142856</ele><time>2026-03-28T17:14:29.861Z</time></trkpt><trkpt lat="42.4132716" lon="-8.5514875"><ele>336.8571428571429</ele><time>2026-03-28T17:14:30.863Z</time></trkpt><trkpt lat="42.4132468" lon="-8.5515814"><ele>337.1428571428571</ele><time>2026-03-28T17:14:31.869Z</time></trkpt><trkpt lat="42.4132281" lon="-8.5516693"><ele>337.42857142857144</ele><time>2026-03-28T17:14:32.868Z</time></trkpt><trkpt lat="42.4132127" lon="-8.5517593"><ele>337.7142857142857</ele><time>2026-03-28T17:14:33.864Z</time></trkpt><trkpt lat="42.4131952" lon="-8.551849"><ele>338.0</ele><time>2026-03-28T17:14:34.867Z</time></trkpt><trkpt lat="42.4131688" lon="-8.5519433"><ele>338.0</ele><time>2026-03-28T17:14:35.864Z</time></trkpt><trkpt lat="42.4131342" lon="-8.5520386"><ele>338.0</ele><time>2026-03-28T17:14:36.864Z</time></trkpt><trkpt lat="42.4130959" lon="-8.5521259"><ele>338.0</ele><time>2026-03-28T17:14:37.864Z</time></trkpt><trkpt lat="42.4130569" lon="-8.5522115"><ele>338.0</ele><time>2026-03-28T17:14:38.875Z</time></trkpt><trkpt lat="42.413022" lon="-8.5522971"><ele>338.0</ele><time>2026-03-28T17:14:39.863Z</time></trkpt><trkpt lat="42.4129902" lon="-8.5523857"><ele>338.0</ele><time>2026-03-28T17:14:40.863Z</time></trkpt><trkpt lat="42.4129607" lon="-8.5524829"><ele>337.1666666666667</ele><time>2026-03-28T17:14:41.861Z</time></trkpt><trkpt lat="42.4129456" lon="-8.552588"><ele>336.33333333333337</ele><time>2026-03-28T17:14:42.863Z</time></trkpt><trkpt lat="42.4129355" lon="-8.5526962"><ele>335.5</ele><time>2026-03-28T17:14:43.869Z</time></trkpt><trkpt lat="42.4129367" lon="-8.5528067"><ele>334.6666666666667</ele><time>2026-03-28T17:14:44.872Z</time></trkpt><trkpt lat="42.4129475" lon="-8.5529183"><ele>333.8333333333333</ele><time>2026-03-28T17:14:45.861Z</time></trkpt><trkpt lat="42.4129631" lon="-8.5530288"><ele>333.0</ele><time>2026-03-28T17:14:46.862Z</time></trkpt><trkpt lat="42.4129732" lon="-8.5531471"><ele>333.0</ele><time>2026-03-28T17:14:47.873Z</time></trkpt><trkpt lat="42.4129764" lon="-8.5532642"><ele>333.0</ele><time>2026-03-28T17:14:48.871Z</time></trkpt><trkpt lat="42.4129678" lon="-8.5533782"><ele>333.0</ele><time>2026-03-28T17:14:49.867Z</time></trkpt><trkpt lat="42.4129364" lon="-8.5534787"><ele>333.0</ele><time>2026-03-28T17:14:50.861Z</time></trkpt><trkpt lat="42.4128919" lon="-8.5535685"><ele>333.0</ele><time>2026-03-28T17:14:51.86Z</time></trkpt><trkpt lat="42.4128424" lon="-8.5536583"><ele>333.0</ele><time>2026-03-28T17:14:52.868Z</time></trkpt><trkpt lat="42.4127949" lon="-8.5537504"><ele>333.1666666666667</ele><time>2026-03-28T17:14:53.871Z</time></trkpt><trkpt lat="42.4127502" lon="-8.553844"><ele>333.3333333333333</ele><time>2026-03-28T17:14:54.866Z</time></trkpt><trkpt lat="42.4127055" lon="-8.5539421"><ele>333.5</ele><time>2026-03-28T17:14:55.87Z</time></trkpt><trkpt lat="42.4126601" lon="-8.5540477"><ele>333.66666666666663</ele><time>2026-03-28T17:14:56.88Z</time></trkpt><trkpt lat="42.412607" lon="-8.5541522"><ele>333.8333333333333</ele><time>2026-03-28T17:14:57.86Z</time></trkpt><trkpt lat="42.4125494" lon="-8.5542495"><ele>334.0</ele><time>2026-03-28T17:14:58.86Z</time></trkpt><trkpt lat="42.4124883" lon="-8.5543453"><ele>334.0</ele><time>2026-03-28T17:14:59.86Z</time></trkpt><trkpt lat="42.4124307" lon="-8.5544528"><ele>334.0</ele><time>2026-03-28T17:15:00.863Z</time></trkpt><trkpt lat="42.4123748" lon="-8.5545727"><ele>334.0</ele><time>2026-03-28T17:15:01.862Z</time></trkpt><trkpt lat="42.4123184" lon="-8.5546887"><ele>334.0</ele><time>2026-03-28T17:15:02.864Z</time></trkpt><trkpt lat="42.4122548" lon="-8.5548002"><ele>334.0</ele><time>2026-03-28T17:15:03.872Z</time></trkpt><trkpt lat="42.4121979" lon="-8.5549128"><ele>334.2</ele><time>2026-03-28T17:15:04.863Z</time></trkpt><trkpt lat="42.4121456" lon="-8.5550289"><ele>334.4</ele><time>2026-03-28T17:15:05.87Z</time></trkpt><trkpt lat="42.4120972" lon="-8.5551363"><ele>334.6</ele><time>2026-03-28T17:15:06.865Z</time></trkpt><trkpt lat="42.4120478" lon="-8.5552368"><ele>334.8</ele><time>2026-03-28T17:15:07.861Z</time></trkpt><trkpt lat="42.4120024" lon="-8.5553468"><ele>335.0</ele><time>2026-03-28T17:15:08.87Z</time></trkpt><trkpt lat="42.4119684" lon="-8.5554655"><ele>334.6666666666667</ele><time>2026-03-28T17:15:09.868Z</time></trkpt><trkpt lat="42.4119347" lon="-8.5555753"><ele>334.33333333333337</ele><time>2026-03-28T17:15:10.863Z</time></trkpt><trkpt lat="42.4118975" lon="-8.5556761"><ele>334.0</ele><time>2026-03-28T17:15:11.874Z</time></trkpt><trkpt lat="42.4118601" lon="-8.5557725"><ele>333.6666666666667</ele><time>2026-03-28T17:15:12.862Z</time></trkpt><trkpt lat="42.4118279" lon="-8.5558706"><ele>333.3333333333333</ele><time>2026-03-28T17:15:13.861Z</time></trkpt><trkpt lat="42.4118008" lon="-8.5559634"><ele>333.0</ele><time>2026-03-28T17:15:14.87Z</time></trkpt><trkpt lat="42.4117895" lon="-8.5560579"><ele>333.0</ele><time>2026-03-28T17:15:15.86Z</time></trkpt><trkpt lat="42.4117841" lon="-8.5561553"><ele>333.0</ele><time>2026-03-28T17:15:16.866Z</time></trkpt><trkpt lat="42.4117867" lon="-8.5562532"><ele>333.0</ele><time>2026-03-28T17:15:17.862Z</time></trkpt><trkpt lat="42.4117832" lon="-8.5563509"><ele>333.0</ele><time>2026-03-28T17:15:18.873Z</time></trkpt><trkpt lat="42.4117817" lon="-8.5564453"><ele>333.0</ele><time>2026-03-28T17:15:19.867Z</time></trkpt><trkpt lat="42.4117753" lon="-8.5565486"><ele>333.0</ele><time>2026-03-28T17:15:20.864Z</time></trkpt><trkpt lat="42.4117666" lon="-8.5566563"><ele>333.0</ele><time>2026-03-28T17:15:21.866Z</time></trkpt><trkpt lat="42.4117622" lon="-8.5567641"><ele>332.8571428571429</ele><time>2026-03-28T17:15:22.874Z</time></trkpt><trkpt lat="42.4117699" lon="-8.5568653"><ele>332.71428571428567</ele><time>2026-03-28T17:15:23.86Z</time></trkpt><trkpt lat="42.4117809" lon="-8.5569588"><ele>332.57142857142856</ele><time>2026-03-28T17:15:24.862Z</time></trkpt><trkpt lat="42.4117988" lon="-8.5570439"><ele>332.42857142857144</ele><time>2026-03-28T17:15:25.864Z</time></trkpt><trkpt lat="42.4118342" lon="-8.5571147"><ele>332.28571428571433</ele><time>2026-03-28T17:15:26.866Z</time></trkpt><trkpt lat="42.4118977" lon="-8.5571641"><ele>332.1428571428571</ele><time>2026-03-28T17:15:27.863Z</time></trkpt><trkpt lat="42.4119793" lon="-8.5571962"><ele>332.0</ele><time>2026-03-28T17:15:28.859Z</time></trkpt><trkpt lat="42.4120645" lon="-8.5572178"><ele>331.83333333333337</ele><time>2026-03-28T17:15:29.865Z</time></trkpt><trkpt lat="42.4121427" lon="-8.5572566"><ele>331.6666666666667</ele><time>2026-03-28T17:15:30.866Z</time></trkpt><trkpt lat="42.4122128" lon="-8.5573108"><ele>331.5</ele><time>2026-03-28T17:15:31.869Z</time></trkpt><trkpt lat="42.412274" lon="-8.5573883"><ele>331.3333333333333</ele><time>2026-03-28T17:15:32.863Z</time></trkpt><trkpt lat="42.4123322" lon="-8.5574831"><ele>331.16666666666663</ele><time>2026-03-28T17:15:33.867Z</time></trkpt><trkpt lat="42.4123957" lon="-8.5575829"><ele>331.0</ele><time>2026-03-28T17:15:34.872Z</time></trkpt><trkpt lat="42.4124598" lon="-8.5576835"><ele>331.0</ele><time>2026-03-28T17:15:35.871Z</time></trkpt><trkpt lat="42.4125165" lon="-8.5577928"><ele>331.0</ele><time>2026-03-28T17:15:36.864Z</time></trkpt><trkpt lat="42.4125647" lon="-8.5578987"><ele>331.0</ele><time>2026-03-28T17:15:37.866Z</time></trkpt><trkpt lat="42.4126117" lon="-8.5580026"><ele>331.0</ele><time>2026-03-28T17:15:38.859Z</time></trkpt><trkpt lat="42.4126629" lon="-8.5580822"><ele>331.0</ele><time>2026-03-28T17:15:39.86Z</time></trkpt><trkpt lat="42.4127335" lon="-8.5581372"><ele>331.0</ele><time>2026-03-28T17:15:40.881Z</time></trkpt><trkpt lat="42.4128187" lon="-8.5581646"><ele>330.20000000000005</ele><time>2026-03-28T17:15:41.87Z</time></trkpt><trkpt lat="42.4129227" lon="-8.5581924"><ele>329.40000000000003</ele><time>2026-03-28T17:15:42.864Z</time></trkpt><trkpt lat="42.4130366" lon="-8.5582353"><ele>328.6</ele><time>2026-03-28T17:15:43.863Z</time></trkpt><trkpt lat="42.4131572" lon="-8.5582553"><ele>327.8</ele><time>2026-03-28T17:15:44.869Z</time></trkpt><trkpt lat="42.4132559" lon="-8.5582613"><ele>327.0</ele><time>2026-03-28T17:15:45.862Z</time></trkpt><trkpt lat="42.4133289" lon="-8.5582707"><ele>327.0</ele><time>2026-03-28T17:15:46.87Z</time></trkpt><trkpt lat="42.4133915" lon="-8.5582989"><ele>327.0</ele><time>2026-03-28T17:15:47.863Z</time></trkpt><trkpt lat="42.4134802" lon="-8.5583973"><ele>327.0</ele><time>2026-03-28T17:15:49.867Z</time></trkpt><trkpt lat="42.4134855" lon="-8.5584907"><ele>327.0</ele><time>2026-03-28T17:15:50.862Z</time></trkpt><trkpt lat="42.4134834" lon="-8.5585942"><ele>327.0</ele><time>2026-03-28T17:15:51.865Z</time></trkpt><trkpt lat="42.413471" lon="-8.5586989"><ele>327.0</ele><time>2026-03-28T17:15:52.872Z</time></trkpt><trkpt lat="42.413463" lon="-8.5588001"><ele>327.0</ele><time>2026-03-28T17:15:53.873Z</time></trkpt><trkpt lat="42.4134476" lon="-8.5589023"><ele>327.0</ele><time>2026-03-28T17:15:54.862Z</time></trkpt><trkpt lat="42.4134246" lon="-8.5590052"><ele>327.0</ele><time>2026-03-28T17:15:55.865Z</time></trkpt><trkpt lat="42.4133929" lon="-8.5590996"><ele>327.0</ele><time>2026-03-28T17:15:56.877Z</time></trkpt><trkpt lat="42.4133569" lon="-8.5591838"><ele>327.0</ele><time>2026-03-28T17:15:57.866Z</time></trkpt><trkpt lat="42.4133197" lon="-8.559261"><ele>327.0</ele><time>2026-03-28T17:15:58.861Z</time></trkpt><trkpt lat="42.4132854" lon="-8.5593387"><ele>327.0</ele><time>2026-03-28T17:15:59.858Z</time></trkpt><trkpt lat="42.4132557" lon="-8.5594143"><ele>327.25</ele><time>2026-03-28T17:16:00.864Z</time></trkpt><trkpt lat="42.4131981" lon="-8.5595503"><ele>327.5</ele><time>2026-03-28T17:16:02.874Z</time></trkpt><trkpt lat="42.4131531" lon="-8.5596947"><ele>327.75</ele><time>2026-03-28T17:16:04.862Z</time></trkpt><trkpt lat="42.4131034" lon="-8.5598344"><ele>328.0</ele><time>2026-03-28T17:16:06.869Z</time></trkpt><trkpt lat="42.4130414" lon="-8.5599849"><ele>327.99999999999994</ele><time>2026-03-28T17:16:08.874Z</time></trkpt><trkpt lat="42.4130034" lon="-8.5600599"><ele>328.0</ele><time>2026-03-28T17:16:09.863Z</time></trkpt><trkpt lat="42.4129651" lon="-8.560137"><ele>328.0</ele><time>2026-03-28T17:16:10.867Z</time></trkpt><trkpt lat="42.4129291" lon="-8.5602185"><ele>328.0</ele><time>2026-03-28T17:16:11.872Z</time></trkpt><trkpt lat="42.4129022" lon="-8.5603087"><ele>328.0</ele><time>2026-03-28T17:16:12.865Z</time></trkpt><trkpt lat="42.4128821" lon="-8.5603991"><ele>327.99999999999994</ele><time>2026-03-28T17:16:13.865Z</time></trkpt><trkpt lat="42.4128818" lon="-8.5604864"><ele>328.0</ele><time>2026-03-28T17:16:14.859Z</time></trkpt><trkpt lat="42.4129362" lon="-8.5606335"><ele>327.57142857142856</ele><time>2026-03-28T17:16:16.868Z</time></trkpt><trkpt lat="42.4129784" lon="-8.5607056"><ele>327.1428571428571</ele><time>2026-03-28T17:16:17.863Z</time></trkpt><trkpt lat="42.4130329" lon="-8.5607834"><ele>326.71428571428567</ele><time>2026-03-28T17:16:18.865Z</time></trkpt><trkpt lat="42.4130912" lon="-8.5608583"><ele>326.2857142857143</ele><time>2026-03-28T17:16:19.862Z</time></trkpt><trkpt lat="42.4131461" lon="-8.5609319"><ele>325.8571428571429</ele><time>2026-03-28T17:16:20.863Z</time></trkpt><trkpt lat="42.413189" lon="-8.5610112"><ele>325.4285714285714</ele><time>2026-03-28T17:16:21.865Z</time></trkpt><trkpt lat="42.4132241" lon="-8.5610957"><ele>325.0</ele><time>2026-03-28T17:16:22.858Z</time></trkpt><trkpt lat="42.4132597" lon="-8.5611966"><ele>325.16666666666663</ele><time>2026-03-28T17:16:23.867Z</time></trkpt><trkpt lat="42.4132969" lon="-8.5613064"><ele>325.3333333333333</ele><time>2026-03-28T17:16:24.868Z</time></trkpt><trkpt lat="42.4133413" lon="-8.5614174"><ele>325.5</ele><time>2026-03-28T17:16:25.862Z</time></trkpt><trkpt lat="42.413395" lon="-8.561511"><ele>325.6666666666667</ele><time>2026-03-28T17:16:26.867Z</time></trkpt><trkpt lat="42.4134536" lon="-8.5615915"><ele>325.83333333333337</ele><time>2026-03-28T17:16:27.86Z</time></trkpt><trkpt lat="42.4134998" lon="-8.5616643"><ele>326.0</ele><time>2026-03-28T17:16:28.867Z</time></trkpt><trkpt lat="42.4135484" lon="-8.5617881"><ele>326.0</ele><time>2026-03-28T17:16:30.866Z</time></trkpt><trkpt lat="42.4135665" lon="-8.5618832"><ele>326.0</ele><time>2026-03-28T17:16:32.872Z</time></trkpt><trkpt lat="42.4136396" lon="-8.5619924"><ele>326.0</ele><time>2026-03-28T17:16:34.86Z</time></trkpt><trkpt lat="42.4137022" lon="-8.5620513"><ele>326.0</ele><time>2026-03-28T17:16:35.869Z</time></trkpt><trkpt lat="42.413765" lon="-8.5621204"><ele>326.0</ele><time>2026-03-28T17:16:36.862Z</time></trkpt><trkpt lat="42.4138261" lon="-8.5621996"><ele>326.0</ele><time>2026-03-28T17:16:37.87Z</time></trkpt><trkpt lat="42.4138903" lon="-8.5622813"><ele>327.0</ele><time>2026-03-28T17:16:38.864Z</time></trkpt><trkpt lat="42.4139528" lon="-8.5623611"><ele>328.0</ele><time>2026-03-28T17:16:39.874Z</time></trkpt><trkpt lat="42.4140049" lon="-8.5624413"><ele>329.0</ele><time>2026-03-28T17:16:40.867Z</time></trkpt><trkpt lat="42.4140419" lon="-8.5625167"><ele>330.0</ele><time>2026-03-28T17:16:41.863Z</time></trkpt><trkpt lat="42.4140581" lon="-8.5626048"><ele>331.0</ele><time>2026-03-28T17:16:42.862Z</time></trkpt><trkpt lat="42.4140223" lon="-8.5627489"><ele>332.0</ele><time>2026-03-28T17:16:44.867Z</time></trkpt><trkpt lat="42.4139763" lon="-8.5628865"><ele>332.1666666666667</ele><time>2026-03-28T17:16:46.864Z</time></trkpt><trkpt lat="42.4139637" lon="-8.56302"><ele>332.33333333333337</ele><time>2026-03-28T17:16:48.86Z</time></trkpt><trkpt lat="42.413945" lon="-8.5631121"><ele>332.5</ele><time>2026-03-28T17:16:50.863Z</time></trkpt><trkpt lat="42.4139258" lon="-8.5632223"><ele>332.6666666666667</ele><time>2026-03-28T17:16:52.865Z</time></trkpt><trkpt lat="42.413883" lon="-8.5633253"><ele>332.8333333333333</ele><time>2026-03-28T17:16:54.861Z</time></trkpt><trkpt lat="42.4138339" lon="-8.5634421"><ele>333.0</ele><time>2026-03-28T17:16:56.862Z</time></trkpt><trkpt lat="42.4137809" lon="-8.5635614"><ele>334.0</ele><time>2026-03-28T17:16:58.864Z</time></trkpt><trkpt lat="42.4137726" lon="-8.5637345"><ele>335.0</ele><time>2026-03-28T17:17:00.864Z</time></trkpt><trkpt lat="42.4137929" lon="-8.5638352"><ele>336.0</ele><time>2026-03-28T17:17:01.866Z</time></trkpt><trkpt lat="42.4138082" lon="-8.5639393"><ele>337.0</ele><time>2026-03-28T17:17:02.87Z</time></trkpt><trkpt lat="42.4138185" lon="-8.5640436"><ele>338.0</ele><time>2026-03-28T17:17:03.868Z</time></trkpt><trkpt lat="42.4138252" lon="-8.5641509"><ele>339.0</ele><time>2026-03-28T17:17:04.864Z</time></trkpt><trkpt lat="42.4138245" lon="-8.5642629"><ele>339.0</ele><time>2026-03-28T17:17:05.862Z</time></trkpt><trkpt lat="42.4138217" lon="-8.5643708"><ele>339.0</ele><time>2026-03-28T17:17:06.857Z</time></trkpt><trkpt lat="42.4138177" lon="-8.5644759"><ele>339.0</ele><time>2026-03-28T17:17:07.858Z</time></trkpt><trkpt lat="42.4138205" lon="-8.5645792"><ele>339.0</ele><time>2026-03-28T17:17:08.862Z</time></trkpt><trkpt lat="42.4138275" lon="-8.5646762"><ele>339.0</ele><time>2026-03-28T17:17:09.861Z</time></trkpt><trkpt lat="42.4138348" lon="-8.5647704"><ele>339.0</ele><time>2026-03-28T17:17:10.863Z</time></trkpt><trkpt lat="42.413839" lon="-8.5648606"><ele>339.0</ele><time>2026-03-28T17:17:11.865Z</time></trkpt><trkpt lat="42.4138404" lon="-8.5649542"><ele>339.0</ele><time>2026-03-28T17:17:12.862Z</time></trkpt><trkpt lat="42.4138357" lon="-8.5650438"><ele>339.0</ele><time>2026-03-28T17:17:13.867Z</time></trkpt><trkpt lat="42.4138195" lon="-8.5651992"><ele>339.0</ele><time>2026-03-28T17:17:15.869Z</time></trkpt><trkpt lat="42.4138102" lon="-8.5653381"><ele>339.0</ele><time>2026-03-28T17:17:17.862Z</time></trkpt><trkpt lat="42.4138094" lon="-8.5654273"><ele>339.0</ele><time>2026-03-28T17:17:19.862Z</time></trkpt><trkpt lat="42.4138027" lon="-8.5655438"><ele>339.0</ele><time>2026-03-28T17:17:21.86Z</time></trkpt><trkpt lat="42.4138058" lon="-8.5656952"><ele>338.79999999999995</ele><time>2026-03-28T17:17:23.861Z</time></trkpt><trkpt lat="42.4138177" lon="-8.5657989"><ele>338.59999999999997</ele><time>2026-03-28T17:17:24.871Z</time></trkpt><trkpt lat="42.4138374" lon="-8.5659248"><ele>338.4</ele><time>2026-03-28T17:17:25.866Z</time></trkpt><trkpt lat="42.4138669" lon="-8.5660598"><ele>338.2</ele><time>2026-03-28T17:17:26.858Z</time></trkpt><trkpt lat="42.4138958" lon="-8.5661978"><ele>338.0</ele><time>2026-03-28T17:17:27.86Z</time></trkpt><trkpt lat="42.4139118" lon="-8.5663328"><ele>337.1666666666667</ele><time>2026-03-28T17:17:28.862Z</time></trkpt><trkpt lat="42.41392" lon="-8.5664559"><ele>336.33333333333337</ele><time>2026-03-28T17:17:29.86Z</time></trkpt><trkpt lat="42.4139338" lon="-8.5665753"><ele>335.5</ele><time>2026-03-28T17:17:30.863Z</time></trkpt><trkpt lat="42.4139462" lon="-8.5666942"><ele>334.6666666666667</ele><time>2026-03-28T17:17:31.861Z</time></trkpt><trkpt lat="42.4139539" lon="-8.5668037"><ele>333.8333333333333</ele><time>2026-03-28T17:17:32.863Z</time></trkpt><trkpt lat="42.4139603" lon="-8.5669125"><ele>333.0</ele><time>2026-03-28T17:17:33.866Z</time></trkpt><trkpt lat="42.4139532" lon="-8.567018"><ele>332.3333333333333</ele><time>2026-03-28T17:17:34.862Z</time></trkpt><trkpt lat="42.4139363" lon="-8.5671154"><ele>331.6666666666667</ele><time>2026-03-28T17:17:35.876Z</time></trkpt><trkpt lat="42.4138953" lon="-8.5672031"><ele>331.0</ele><time>2026-03-28T17:17:36.872Z</time></trkpt><trkpt lat="42.4138346" lon="-8.5672742"><ele>330.33333333333337</ele><time>2026-03-28T17:17:37.865Z</time></trkpt><trkpt lat="42.4137732" lon="-8.5673402"><ele>329.6666666666667</ele><time>2026-03-28T17:17:38.859Z</time></trkpt><trkpt lat="42.413715" lon="-8.5674058"><ele>329.0</ele><time>2026-03-28T17:17:39.861Z</time></trkpt><trkpt lat="42.4136697" lon="-8.5674807"><ele>328.6</ele><time>2026-03-28T17:17:40.868Z</time></trkpt><trkpt lat="42.4136395" lon="-8.567565"><ele>328.2</ele><time>2026-03-28T17:17:41.862Z</time></trkpt><trkpt lat="42.4136201" lon="-8.5676599"><ele>327.8</ele><time>2026-03-28T17:17:42.866Z</time></trkpt><trkpt lat="42.413612" lon="-8.5677521"><ele>327.40000000000003</ele><time>2026-03-28T17:17:43.865Z</time></trkpt><trkpt lat="42.4135914" lon="-8.5679145"><ele>327.0</ele><time>2026-03-28T17:17:45.869Z</time></trkpt><trkpt lat="42.4135629" lon="-8.568079"><ele>326.1666666666667</ele><time>2026-03-28T17:17:47.862Z</time></trkpt><trkpt lat="42.4135503" lon="-8.568163"><ele>325.3333333333333</ele><time>2026-03-28T17:17:48.868Z</time></trkpt><trkpt lat="42.4135388" lon="-8.568248"><ele>324.5</ele><time>2026-03-28T17:17:49.86Z</time></trkpt><trkpt lat="42.4135346" lon="-8.5683364"><ele>323.66666666666663</ele><time>2026-03-28T17:17:50.861Z</time></trkpt><trkpt lat="42.4135248" lon="-8.5684227"><ele>322.8333333333333</ele><time>2026-03-28T17:17:51.861Z</time></trkpt><trkpt lat="42.4134993" lon="-8.5685764"><ele>322.0</ele><time>2026-03-28T17:17:53.868Z</time></trkpt><trkpt lat="42.4135178" lon="-8.5687263"><ele>321.20000000000005</ele><time>2026-03-28T17:17:55.869Z</time></trkpt><trkpt lat="42.4135672" lon="-8.5688654"><ele>320.40000000000003</ele><time>2026-03-28T17:17:57.862Z</time></trkpt><trkpt lat="42.4136327" lon="-8.5690049"><ele>319.6</ele><time>2026-03-28T17:17:59.864Z</time></trkpt><trkpt lat="42.4136854" lon="-8.5691296"><ele>318.8</ele><time>2026-03-28T17:18:01.867Z</time></trkpt><trkpt lat="42.4137315" lon="-8.5692597"><ele>318.0</ele><time>2026-03-28T17:18:03.869Z</time></trkpt><trkpt lat="42.4137718" lon="-8.5693805"><ele>318.0</ele><time>2026-03-28T17:18:05.872Z</time></trkpt><trkpt lat="42.413811" lon="-8.5695139"><ele>318.0</ele><time>2026-03-28T17:18:07.863Z</time></trkpt><trkpt lat="42.4138502" lon="-8.5696557"><ele>318.0</ele><time>2026-03-28T17:18:09.869Z</time></trkpt><trkpt lat="42.4138779" lon="-8.5698019"><ele>318.0</ele><time>2026-03-28T17:18:11.862Z</time></trkpt><trkpt lat="42.4138877" lon="-8.5699513"><ele>318.0</ele><time>2026-03-28T17:18:13.861Z</time></trkpt><trkpt lat="42.4138709" lon="-8.5701059"><ele>316.57142857142856</ele><time>2026-03-28T17:18:15.865Z</time></trkpt><trkpt lat="42.4138556" lon="-8.5701947"><ele>315.14285714285717</ele><time>2026-03-28T17:18:16.868Z</time></trkpt><trkpt lat="42.4138355" lon="-8.5702822"><ele>313.7142857142857</ele><time>2026-03-28T17:18:17.861Z</time></trkpt><trkpt lat="42.4138098" lon="-8.57037"><ele>312.2857142857143</ele><time>2026-03-28T17:18:18.871Z</time></trkpt><trkpt lat="42.4137864" lon="-8.5704572"><ele>310.8571428571429</ele><time>2026-03-28T17:18:19.863Z</time></trkpt><trkpt lat="42.4137673" lon="-8.5705434"><ele>309.42857142857144</ele><time>2026-03-28T17:18:20.858Z</time></trkpt><trkpt lat="42.4137434" lon="-8.5706722"><ele>308.0</ele><time>2026-03-28T17:18:22.865Z</time></trkpt><trkpt lat="42.4137211" lon="-8.5707703"><ele>308.0</ele><time>2026-03-28T17:18:24.868Z</time></trkpt><trkpt lat="42.4136689" lon="-8.5708661"><ele>308.0</ele><time>2026-03-28T17:18:27.874Z</time></trkpt><trkpt lat="42.4135821" lon="-8.5709098"><ele>308.0</ele><time>2026-03-28T17:18:29.863Z</time></trkpt><trkpt lat="42.4134569" lon="-8.5709202"><ele>308.0</ele><time>2026-03-28T17:18:31.864Z</time></trkpt><trkpt lat="42.4133935" lon="-8.5709259"><ele>308.0</ele><time>2026-03-28T17:18:32.866Z</time></trkpt><trkpt lat="42.4133286" lon="-8.5709418"><ele>308.0</ele><time>2026-03-28T17:18:33.861Z</time></trkpt><trkpt lat="42.4132042" lon="-8.5709528"><ele>308.0</ele><time>2026-03-28T17:18:35.86Z</time></trkpt><trkpt lat="42.4131406" lon="-8.5709451"><ele>308.0</ele><time>2026-03-28T17:18:36.863Z</time></trkpt><trkpt lat="42.4130112" lon="-8.5709539"><ele>308.0</ele><time>2026-03-28T17:18:38.858Z</time></trkpt><trkpt lat="42.4129431" lon="-8.5709678"><ele>308.0</ele><time>2026-03-28T17:18:39.867Z</time></trkpt><trkpt lat="42.4128744" lon="-8.5709843"><ele>308.0</ele><time>2026-03-28T17:18:40.864Z</time></trkpt><trkpt lat="42.4128121" lon="-8.571003"><ele>308.0</ele><time>2026-03-28T17:18:41.864Z</time></trkpt><trkpt lat="42.4126866" lon="-8.5710072"><ele>308.33333333333337</ele><time>2026-03-28T17:18:43.866Z</time></trkpt><trkpt lat="42.412614" lon="-8.5710084"><ele>308.6666666666667</ele><time>2026-03-28T17:18:44.862Z</time></trkpt><trkpt lat="42.4125459" lon="-8.5710195"><ele>309.0</ele><time>2026-03-28T17:18:45.861Z</time></trkpt><trkpt lat="42.4124882" lon="-8.5710538"><ele>309.3333333333333</ele><time>2026-03-28T17:18:46.857Z</time></trkpt><trkpt lat="42.4124272" lon="-8.5710917"><ele>309.66666666666663</ele><time>2026-03-28T17:18:47.871Z</time></trkpt><trkpt lat="42.4123673" lon="-8.5711194"><ele>310.0</ele><time>2026-03-28T17:18:48.86Z</time></trkpt><trkpt lat="42.4122395" lon="-8.5711516"><ele>310.0</ele><time>2026-03-28T17:18:50.87Z</time></trkpt><trkpt lat="42.4121764" lon="-8.5711573"><ele>310.0</ele><time>2026-03-28T17:18:51.867Z</time></trkpt><trkpt lat="42.4121085" lon="-8.571163"><ele>310.0</ele><time>2026-03-28T17:18:52.861Z</time></trkpt><trkpt lat="42.4120442" lon="-8.571167"><ele>310.0</ele><time>2026-03-28T17:18:53.872Z</time></trkpt><trkpt lat="42.4119798" lon="-8.5711764"><ele>310.0</ele><time>2026-03-28T17:18:55.871Z</time></trkpt><trkpt lat="42.4120321" lon="-8.5711136"><ele>310.0</ele><time>2026-03-28T17:27:45.865Z</time></trkpt><trkpt lat="42.4121089" lon="-8.5711607"><ele>310.0</ele><time>2026-03-28T17:29:40.859Z</time></trkpt><trkpt lat="42.4121993" lon="-8.5711462"><ele>310.0</ele><time>2026-03-28T17:29:42.858Z</time></trkpt><trkpt lat="42.4122643" lon="-8.5711326"><ele>310.0</ele><time>2026-03-28T17:29:43.863Z</time></trkpt><trkpt lat="42.412329" lon="-8.5711145"><ele>310.0</ele><time>2026-03-28T17:29:44.858Z</time></trkpt><trkpt lat="42.4123937" lon="-8.5710936"><ele>310.0</ele><time>2026-03-28T17:29:45.863Z</time></trkpt><trkpt lat="42.4124588" lon="-8.5710585"><ele>310.0</ele><time>2026-03-28T17:29:46.86Z</time></trkpt><trkpt lat="42.4125716" lon="-8.5709807"><ele>310.0</ele><time>2026-03-28T17:29:48.864Z</time></trkpt><trkpt lat="42.4126332" lon="-8.5709441"><ele>310.0</ele><time>2026-03-28T17:29:49.86Z</time></trkpt><trkpt lat="42.4127535" lon="-8.570918"><ele>310.0</ele><time>2026-03-28T17:29:51.87Z</time></trkpt><trkpt lat="42.4128737" lon="-8.5709108"><ele>310.0</ele><time>2026-03-28T17:29:53.858Z</time></trkpt><trkpt lat="42.4129832" lon="-8.5709233"><ele>310.0</ele><time>2026-03-28T17:29:55.857Z</time></trkpt><trkpt lat="42.4130902" lon="-8.5709169"><ele>309.66666666666663</ele><time>2026-03-28T17:29:57.852Z</time></trkpt><trkpt lat="42.4132146" lon="-8.5709066"><ele>309.3333333333333</ele><time>2026-03-28T17:29:59.861Z</time></trkpt><trkpt lat="42.4132831" lon="-8.5709065"><ele>309.0</ele><time>2026-03-28T17:30:00.86Z</time></trkpt><trkpt lat="42.4133506" lon="-8.5709023"><ele>308.6666666666667</ele><time>2026-03-28T17:30:01.867Z</time></trkpt><trkpt lat="42.4134152" lon="-8.5709002"><ele>308.33333333333337</ele><time>2026-03-28T17:30:02.859Z</time></trkpt><trkpt lat="42.4134808" lon="-8.5708958"><ele>308.0</ele><time>2026-03-28T17:30:03.862Z</time></trkpt><trkpt lat="42.4136013" lon="-8.5708745"><ele>308.0</ele><time>2026-03-28T17:30:05.863Z</time></trkpt><trkpt lat="42.4136859" lon="-8.5708126"><ele>308.0</ele><time>2026-03-28T17:30:07.868Z</time></trkpt><trkpt lat="42.4137329" lon="-8.5707521"><ele>308.0</ele><time>2026-03-28T17:30:09.866Z</time></trkpt><trkpt lat="42.41376" lon="-8.5706583"><ele>308.0</ele><time>2026-03-28T17:30:12.856Z</time></trkpt><trkpt lat="42.4137845" lon="-8.5705647"><ele>308.0</ele><time>2026-03-28T17:30:14.868Z</time></trkpt><trkpt lat="42.4137877" lon="-8.5704267"><ele>308.0</ele><time>2026-03-28T17:30:16.859Z</time></trkpt><trkpt lat="42.4137992" lon="-8.5703404"><ele>308.0</ele><time>2026-03-28T17:30:17.863Z</time></trkpt><trkpt lat="42.413815" lon="-8.57025"><ele>308.0</ele><time>2026-03-28T17:30:18.859Z</time></trkpt><trkpt lat="42.4138288" lon="-8.5701595"><ele>308.0</ele><time>2026-03-28T17:30:19.858Z</time></trkpt><trkpt lat="42.4138425" lon="-8.570068"><ele>308.0</ele><time>2026-03-28T17:30:20.861Z</time></trkpt><trkpt lat="42.4138555" lon="-8.5699815"><ele>308.0</ele><time>2026-03-28T17:30:21.872Z</time></trkpt><trkpt lat="42.4138735" lon="-8.569828"><ele>308.0</ele><time>2026-03-28T17:30:23.863Z</time></trkpt><trkpt lat="42.4138839" lon="-8.5696939"><ele>309.5</ele><time>2026-03-28T17:30:25.867Z</time></trkpt><trkpt lat="42.4138536" lon="-8.5695138"><ele>311.0</ele><time>2026-03-28T17:30:27.861Z</time></trkpt><trkpt lat="42.4138163" lon="-8.5693905"><ele>312.5</ele><time>2026-03-28T17:30:28.857Z</time></trkpt><trkpt lat="42.4137686" lon="-8.5692386"><ele>314.0</ele><time>2026-03-28T17:30:29.861Z</time></trkpt><trkpt lat="42.4137194" lon="-8.5690996"><ele>314.6666666666667</ele><time>2026-03-28T17:30:30.857Z</time></trkpt><trkpt lat="42.4136771" lon="-8.5689794"><ele>315.33333333333337</ele><time>2026-03-28T17:30:31.864Z</time></trkpt><trkpt lat="42.4136374" lon="-8.5688732"><ele>316.0</ele><time>2026-03-28T17:30:32.873Z</time></trkpt><trkpt lat="42.4136059" lon="-8.5687799"><ele>316.6666666666667</ele><time>2026-03-28T17:30:33.865Z</time></trkpt><trkpt lat="42.4135784" lon="-8.5686856"><ele>317.3333333333333</ele><time>2026-03-28T17:30:34.863Z</time></trkpt><trkpt lat="42.4135558" lon="-8.5685848"><ele>318.0</ele><time>2026-03-28T17:30:35.853Z</time></trkpt><trkpt lat="42.4135312" lon="-8.5684867"><ele>318.6666666666667</ele><time>2026-03-28T17:30:36.861Z</time></trkpt><trkpt lat="42.4135139" lon="-8.5683952"><ele>319.3333333333333</ele><time>2026-03-28T17:30:37.863Z</time></trkpt><trkpt lat="42.4135132" lon="-8.5682317"><ele>320.0</ele><time>2026-03-28T17:30:39.861Z</time></trkpt><trkpt lat="42.4135195" lon="-8.5681359"><ele>320.66666666666663</ele><time>2026-03-28T17:30:40.868Z</time></trkpt><trkpt lat="42.4135415" lon="-8.5680237"><ele>321.3333333333333</ele><time>2026-03-28T17:30:41.86Z</time></trkpt><trkpt lat="42.4135684" lon="-8.5679083"><ele>322.0</ele><time>2026-03-28T17:30:42.859Z</time></trkpt><trkpt lat="42.4135964" lon="-8.5677911"><ele>322.8333333333333</ele><time>2026-03-28T17:30:43.864Z</time></trkpt><trkpt lat="42.4136257" lon="-8.5676748"><ele>323.66666666666663</ele><time>2026-03-28T17:30:44.867Z</time></trkpt><trkpt lat="42.4136501" lon="-8.5675647"><ele>324.5</ele><time>2026-03-28T17:30:45.861Z</time></trkpt><trkpt lat="42.4136676" lon="-8.5674548"><ele>325.3333333333333</ele><time>2026-03-28T17:30:46.865Z</time></trkpt><trkpt lat="42.4136831" lon="-8.5673601"><ele>326.1666666666667</ele><time>2026-03-28T17:30:47.865Z</time></trkpt><trkpt lat="42.4137104" lon="-8.567269"><ele>327.0</ele><time>2026-03-28T17:30:48.861Z</time></trkpt><trkpt lat="42.4137489" lon="-8.5671914"><ele>327.0</ele><time>2026-03-28T17:30:49.862Z</time></trkpt><trkpt lat="42.4138015" lon="-8.5671251"><ele>327.0</ele><time>2026-03-28T17:30:50.859Z</time></trkpt><trkpt lat="42.4138547" lon="-8.5670642"><ele>327.0</ele><time>2026-03-28T17:30:51.865Z</time></trkpt><trkpt lat="42.4138963" lon="-8.5669938"><ele>327.0</ele><time>2026-03-28T17:30:52.858Z</time></trkpt><trkpt lat="42.4139254" lon="-8.5669133"><ele>327.0</ele><time>2026-03-28T17:30:53.861Z</time></trkpt><trkpt lat="42.4139479" lon="-8.5668296"><ele>327.0</ele><time>2026-03-28T17:30:54.853Z</time></trkpt><trkpt lat="42.4139612" lon="-8.5667407"><ele>327.0</ele><time>2026-03-28T17:30:55.863Z</time></trkpt><trkpt lat="42.4139659" lon="-8.5666412"><ele>328.0</ele><time>2026-03-28T17:30:56.861Z</time></trkpt><trkpt lat="42.4139623" lon="-8.5665331"><ele>329.0</ele><time>2026-03-28T17:30:57.857Z</time></trkpt><trkpt lat="42.4139624" lon="-8.5664176"><ele>330.0</ele><time>2026-03-28T17:30:58.855Z</time></trkpt><trkpt lat="42.4139523" lon="-8.5662943"><ele>331.0</ele><time>2026-03-28T17:30:59.863Z</time></trkpt><trkpt lat="42.4139419" lon="-8.5661654"><ele>332.0</ele><time>2026-03-28T17:31:00.857Z</time></trkpt><trkpt lat="42.413924" lon="-8.566049"><ele>333.0</ele><time>2026-03-28T17:31:01.866Z</time></trkpt><trkpt lat="42.4139025" lon="-8.5659224"><ele>333.75</ele><time>2026-03-28T17:31:02.856Z</time></trkpt><trkpt lat="42.4138782" lon="-8.5657817"><ele>334.5</ele><time>2026-03-28T17:31:03.859Z</time></trkpt><trkpt lat="42.413855" lon="-8.5656219"><ele>335.25</ele><time>2026-03-28T17:31:04.858Z</time></trkpt><trkpt lat="42.4138377" lon="-8.5654595"><ele>336.0</ele><time>2026-03-28T17:31:05.864Z</time></trkpt><trkpt lat="42.4138279" lon="-8.5652954"><ele>336.6</ele><time>2026-03-28T17:31:06.859Z</time></trkpt><trkpt lat="42.4138278" lon="-8.5651377"><ele>337.20000000000005</ele><time>2026-03-28T17:31:07.859Z</time></trkpt><trkpt lat="42.4138358" lon="-8.5649823"><ele>337.79999999999995</ele><time>2026-03-28T17:31:08.862Z</time></trkpt><trkpt lat="42.4138402" lon="-8.5648333"><ele>338.4</ele><time>2026-03-28T17:31:09.866Z</time></trkpt><trkpt lat="42.41384" lon="-8.5646876"><ele>339.0</ele><time>2026-03-28T17:31:10.858Z</time></trkpt><trkpt lat="42.4138374" lon="-8.5645482"><ele>339.0</ele><time>2026-03-28T17:31:11.862Z</time></trkpt><trkpt lat="42.4138282" lon="-8.5644157"><ele>339.0</ele><time>2026-03-28T17:31:12.862Z</time></trkpt><trkpt lat="42.4138233" lon="-8.564284"><ele>339.0</ele><time>2026-03-28T17:31:13.856Z</time></trkpt><trkpt lat="42.4138206" lon="-8.5641578"><ele>339.0</ele><time>2026-03-28T17:31:14.858Z</time></trkpt><trkpt lat="42.4138234" lon="-8.5640361"><ele>339.0</ele><time>2026-03-28T17:31:15.861Z</time></trkpt><trkpt lat="42.4138315" lon="-8.5639115"><ele>339.1666666666667</ele><time>2026-03-28T17:31:16.861Z</time></trkpt><trkpt lat="42.4138429" lon="-8.5637847"><ele>339.3333333333333</ele><time>2026-03-28T17:31:17.859Z</time></trkpt><trkpt lat="42.4138528" lon="-8.5636666"><ele>339.5</ele><time>2026-03-28T17:31:18.857Z</time></trkpt><trkpt lat="42.4138693" lon="-8.5635553"><ele>339.66666666666663</ele><time>2026-03-28T17:31:19.862Z</time></trkpt><trkpt lat="42.4138834" lon="-8.5634486"><ele>339.8333333333333</ele><time>2026-03-28T17:31:20.859Z</time></trkpt><trkpt lat="42.4138993" lon="-8.5633484"><ele>340.0</ele><time>2026-03-28T17:31:21.859Z</time></trkpt><trkpt lat="42.4139078" lon="-8.5632346"><ele>339.3333333333333</ele><time>2026-03-28T17:31:22.859Z</time></trkpt><trkpt lat="42.413909" lon="-8.5631138"><ele>338.66666666666663</ele><time>2026-03-28T17:31:23.864Z</time></trkpt><trkpt lat="42.4139103" lon="-8.5630028"><ele>338.0</ele><time>2026-03-28T17:31:24.86Z</time></trkpt><trkpt lat="42.4139157" lon="-8.5628929"><ele>337.3333333333333</ele><time>2026-03-28T17:31:25.866Z</time></trkpt><trkpt lat="42.4139268" lon="-8.5627864"><ele>336.6666666666667</ele><time>2026-03-28T17:31:26.864Z</time></trkpt><trkpt lat="42.4139405" lon="-8.5626871"><ele>336.0</ele><time>2026-03-28T17:31:27.853Z</time></trkpt><trkpt lat="42.4139644" lon="-8.5626041"><ele>335.20000000000005</ele><time>2026-03-28T17:31:28.86Z</time></trkpt><trkpt lat="42.4140086" lon="-8.5624696"><ele>334.40000000000003</ele><time>2026-03-28T17:31:30.857Z</time></trkpt><trkpt lat="42.4140136" lon="-8.5623513"><ele>333.6</ele><time>2026-03-28T17:31:32.859Z</time></trkpt><trkpt lat="42.4139456" lon="-8.5622129"><ele>332.8</ele><time>2026-03-28T17:31:34.862Z</time></trkpt><trkpt lat="42.4139066" lon="-8.56213"><ele>332.0</ele><time>2026-03-28T17:31:35.86Z</time></trkpt><trkpt lat="42.4138641" lon="-8.5620569"><ele>330.8</ele><time>2026-03-28T17:31:36.864Z</time></trkpt><trkpt lat="42.4137686" lon="-8.5619546"><ele>329.6</ele><time>2026-03-28T17:31:38.861Z</time></trkpt><trkpt lat="42.4136733" lon="-8.5618874"><ele>328.40000000000003</ele><time>2026-03-28T17:31:40.86Z</time></trkpt><trkpt lat="42.4136035" lon="-8.5618321"><ele>327.20000000000005</ele><time>2026-03-28T17:31:42.869Z</time></trkpt><trkpt lat="42.4135443" lon="-8.5617603"><ele>326.0</ele><time>2026-03-28T17:31:44.86Z</time></trkpt><trkpt lat="42.4135079" lon="-8.561681"><ele>326.0</ele><time>2026-03-28T17:31:46.864Z</time></trkpt><trkpt lat="42.4134762" lon="-8.5615802"><ele>326.0</ele><time>2026-03-28T17:31:48.858Z</time></trkpt><trkpt lat="42.4134306" lon="-8.5614462"><ele>326.0</ele><time>2026-03-28T17:31:50.86Z</time></trkpt><trkpt lat="42.4133948" lon="-8.5613689"><ele>326.0</ele><time>2026-03-28T17:31:51.86Z</time></trkpt><trkpt lat="42.4133524" lon="-8.5612896"><ele>326.0</ele><time>2026-03-28T17:31:52.857Z</time></trkpt><trkpt lat="42.4133096" lon="-8.5612017"><ele>326.0</ele><time>2026-03-28T17:31:53.858Z</time></trkpt><trkpt lat="42.4132702" lon="-8.5611056"><ele>325.83333333333337</ele><time>2026-03-28T17:31:54.861Z</time></trkpt><trkpt lat="42.4132356" lon="-8.5610048"><ele>325.6666666666667</ele><time>2026-03-28T17:31:55.864Z</time></trkpt><trkpt lat="42.4131995" lon="-8.5609068"><ele>325.5</ele><time>2026-03-28T17:31:56.857Z</time></trkpt><trkpt lat="42.4131631" lon="-8.5608105"><ele>325.3333333333333</ele><time>2026-03-28T17:31:57.857Z</time></trkpt><trkpt lat="42.4131246" lon="-8.5607292"><ele>325.16666666666663</ele><time>2026-03-28T17:31:58.864Z</time></trkpt><trkpt lat="42.4130821" lon="-8.560654"><ele>325.0</ele><time>2026-03-28T17:31:59.861Z</time></trkpt><trkpt lat="42.4130327" lon="-8.5605845"><ele>324.16666666666663</ele><time>2026-03-28T17:32:00.864Z</time></trkpt><trkpt lat="42.4129872" lon="-8.5605117"><ele>323.3333333333333</ele><time>2026-03-28T17:32:01.856Z</time></trkpt><trkpt lat="42.4129461" lon="-8.5604371"><ele>322.5</ele><time>2026-03-28T17:32:02.867Z</time></trkpt><trkpt lat="42.4128927" lon="-8.5603115"><ele>321.6666666666667</ele><time>2026-03-28T17:32:04.858Z</time></trkpt><trkpt lat="42.4128717" lon="-8.5601974"><ele>320.83333333333337</ele><time>2026-03-28T17:32:06.859Z</time></trkpt><trkpt lat="42.4128871" lon="-8.5601058"><ele>320.0</ele><time>2026-03-28T17:32:08.863Z</time></trkpt><trkpt lat="42.4129369" lon="-8.5600369"><ele>320.0</ele><time>2026-03-28T17:32:48.864Z</time></trkpt><trkpt lat="42.4129873" lon="-8.5599539"><ele>320.0</ele><time>2026-03-28T17:32:50.864Z</time></trkpt><trkpt lat="42.4130198" lon="-8.5598804"><ele>320.0</ele><time>2026-03-28T17:32:51.861Z</time></trkpt><trkpt lat="42.4130576" lon="-8.5597948"><ele>320.0</ele><time>2026-03-28T17:32:52.862Z</time></trkpt><trkpt lat="42.413104" lon="-8.5596981"><ele>320.0</ele><time>2026-03-28T17:32:53.858Z</time></trkpt><trkpt lat="42.4131486" lon="-8.5596079"><ele>320.0</ele><time>2026-03-28T17:32:54.863Z</time></trkpt><trkpt lat="42.4131916" lon="-8.5594928"><ele>321.4</ele><time>2026-03-28T17:32:55.858Z</time></trkpt><trkpt lat="42.4132397" lon="-8.5593793"><ele>322.8</ele><time>2026-03-28T17:32:56.856Z</time></trkpt><trkpt lat="42.4132982" lon="-8.5592651"><ele>324.20000000000005</ele><time>2026-03-28T17:32:57.864Z</time></trkpt><trkpt lat="42.4133507" lon="-8.5591521"><ele>325.6</ele><time>2026-03-28T17:32:58.861Z</time></trkpt><trkpt lat="42.4133974" lon="-8.5590456"><ele>327.0</ele><time>2026-03-28T17:32:59.853Z</time></trkpt><trkpt lat="42.4134328" lon="-8.5589429"><ele>327.0</ele><time>2026-03-28T17:33:00.862Z</time></trkpt><trkpt lat="42.4134598" lon="-8.5588453"><ele>327.0</ele><time>2026-03-28T17:33:01.858Z</time></trkpt><trkpt lat="42.4134763" lon="-8.5587484"><ele>327.0</ele><time>2026-03-28T17:33:02.857Z</time></trkpt><trkpt lat="42.4134794" lon="-8.558654"><ele>327.0</ele><time>2026-03-28T17:33:03.862Z</time></trkpt><trkpt lat="42.4134777" lon="-8.5585573"><ele>327.0</ele><time>2026-03-28T17:33:04.866Z</time></trkpt><trkpt lat="42.413481" lon="-8.5584623"><ele>327.0</ele><time>2026-03-28T17:33:05.86Z</time></trkpt><trkpt lat="42.413479" lon="-8.5583744"><ele>327.0</ele><time>2026-03-28T17:33:06.859Z</time></trkpt><trkpt lat="42.4134649" lon="-8.5582316"><ele>327.0</ele><time>2026-03-28T17:33:08.856Z</time></trkpt><trkpt lat="42.4133859" lon="-8.5581341"><ele>327.0</ele><time>2026-03-28T17:33:10.86Z</time></trkpt><trkpt lat="42.4132589" lon="-8.5581181"><ele>327.0</ele><time>2026-03-28T17:33:12.859Z</time></trkpt><trkpt lat="42.4131935" lon="-8.5581153"><ele>327.0</ele><time>2026-03-28T17:33:13.857Z</time></trkpt><trkpt lat="42.4131244" lon="-8.5581081"><ele>327.0</ele><time>2026-03-28T17:33:14.865Z</time></trkpt><trkpt lat="42.4130477" lon="-8.5580927"><ele>327.0</ele><time>2026-03-28T17:33:15.865Z</time></trkpt><trkpt lat="42.4129675" lon="-8.5580673"><ele>326.6666666666667</ele><time>2026-03-28T17:33:16.86Z</time></trkpt><trkpt lat="42.4128799" lon="-8.5580454"><ele>326.3333333333333</ele><time>2026-03-28T17:33:17.865Z</time></trkpt><trkpt lat="42.4127937" lon="-8.5580263"><ele>326.0</ele><time>2026-03-28T17:33:18.86Z</time></trkpt><trkpt lat="42.4127138" lon="-8.5580137"><ele>325.66666666666663</ele><time>2026-03-28T17:33:19.862Z</time></trkpt><trkpt lat="42.412641" lon="-8.558004"><ele>325.3333333333333</ele><time>2026-03-28T17:33:20.855Z</time></trkpt><trkpt lat="42.4125745" lon="-8.5579934"><ele>325.0</ele><time>2026-03-28T17:33:21.855Z</time></trkpt><trkpt lat="42.4124743" lon="-8.557903"><ele>326.0</ele><time>2026-03-28T17:33:23.855Z</time></trkpt><trkpt lat="42.4124433" lon="-8.5578115"><ele>327.0</ele><time>2026-03-28T17:33:24.855Z</time></trkpt><trkpt lat="42.4124123" lon="-8.5577194"><ele>328.0</ele><time>2026-03-28T17:33:25.853Z</time></trkpt><trkpt lat="42.4123686" lon="-8.5576246"><ele>329.0</ele><time>2026-03-28T17:33:26.861Z</time></trkpt><trkpt lat="42.412314" lon="-8.5575404"><ele>330.0</ele><time>2026-03-28T17:33:27.859Z</time></trkpt><trkpt lat="42.4122574" lon="-8.5574593"><ele>331.0</ele><time>2026-03-28T17:33:28.859Z</time></trkpt><trkpt lat="42.4122065" lon="-8.5573725"><ele>331.0</ele><time>2026-03-28T17:33:29.858Z</time></trkpt><trkpt lat="42.4121604" lon="-8.557288"><ele>331.0</ele><time>2026-03-28T17:33:30.874Z</time></trkpt><trkpt lat="42.4121166" lon="-8.557211"><ele>331.0</ele><time>2026-03-28T17:33:31.859Z</time></trkpt><trkpt lat="42.4120306" lon="-8.5571181"><ele>331.0</ele><time>2026-03-28T17:33:33.86Z</time></trkpt><trkpt lat="42.4119268" lon="-8.5570539"><ele>331.0</ele><time>2026-03-28T17:33:35.861Z</time></trkpt><trkpt lat="42.4118389" lon="-8.5570044"><ele>331.16666666666663</ele><time>2026-03-28T17:33:37.854Z</time></trkpt><trkpt lat="42.4117715" lon="-8.5569625"><ele>331.3333333333333</ele><time>2026-03-28T17:33:39.869Z</time></trkpt><trkpt lat="42.4117492" lon="-8.556872"><ele>331.5</ele><time>2026-03-28T17:33:41.857Z</time></trkpt><trkpt lat="42.4117366" lon="-8.5567428"><ele>331.6666666666667</ele><time>2026-03-28T17:33:43.858Z</time></trkpt><trkpt lat="42.4117307" lon="-8.5566282"><ele>331.83333333333337</ele><time>2026-03-28T17:33:45.864Z</time></trkpt><trkpt lat="42.4117548" lon="-8.5565114"><ele>332.0</ele><time>2026-03-28T17:33:48.866Z</time></trkpt><trkpt lat="42.4117929" lon="-8.5564282"><ele>332.0</ele><time>2026-03-28T17:33:50.853Z</time></trkpt><trkpt lat="42.4118324" lon="-8.5563046"><ele>332.0</ele><time>2026-03-28T17:33:52.866Z</time></trkpt><trkpt lat="42.4118481" lon="-8.5562129"><ele>332.0</ele><time>2026-03-28T17:33:53.869Z</time></trkpt><trkpt lat="42.411861" lon="-8.5561083"><ele>332.0</ele><time>2026-03-28T17:33:54.855Z</time></trkpt><trkpt lat="42.4118728" lon="-8.5560024"><ele>332.0</ele><time>2026-03-28T17:33:55.858Z</time></trkpt><trkpt lat="42.4118861" lon="-8.5558891"><ele>332.0</ele><time>2026-03-28T17:33:56.866Z</time></trkpt><trkpt lat="42.411903" lon="-8.5557794"><ele>332.20000000000005</ele><time>2026-03-28T17:33:57.856Z</time></trkpt><trkpt lat="42.4119315" lon="-8.5556666"><ele>332.4</ele><time>2026-03-28T17:33:58.864Z</time></trkpt><trkpt lat="42.4119754" lon="-8.5555506"><ele>332.6</ele><time>2026-03-28T17:33:59.863Z</time></trkpt><trkpt lat="42.4120183" lon="-8.5554294"><ele>332.79999999999995</ele><time>2026-03-28T17:34:00.857Z</time></trkpt><trkpt lat="42.4120574" lon="-8.5553058"><ele>333.0</ele><time>2026-03-28T17:34:01.865Z</time></trkpt><trkpt lat="42.4120983" lon="-8.5551855"><ele>333.4</ele><time>2026-03-28T17:34:02.862Z</time></trkpt><trkpt lat="42.4121413" lon="-8.5550695"><ele>333.79999999999995</ele><time>2026-03-28T17:34:03.863Z</time></trkpt><trkpt lat="42.4121883" lon="-8.5549518"><ele>334.2</ele><time>2026-03-28T17:34:04.861Z</time></trkpt><trkpt lat="42.4122424" lon="-8.5548392"><ele>334.6</ele><time>2026-03-28T17:34:05.868Z</time></trkpt><trkpt lat="42.4122967" lon="-8.5547318"><ele>335.0</ele><time>2026-03-28T17:34:06.855Z</time></trkpt><trkpt lat="42.4123448" lon="-8.5546203"><ele>334.8</ele><time>2026-03-28T17:34:07.859Z</time></trkpt><trkpt lat="42.4123877" lon="-8.5545088"><ele>334.6</ele><time>2026-03-28T17:34:08.867Z</time></trkpt><trkpt lat="42.4124295" lon="-8.5543954"><ele>334.4</ele><time>2026-03-28T17:34:09.858Z</time></trkpt><trkpt lat="42.4124764" lon="-8.5542895"><ele>334.2</ele><time>2026-03-28T17:34:10.857Z</time></trkpt><trkpt lat="42.412531" lon="-8.5541888"><ele>334.0</ele><time>2026-03-28T17:34:11.856Z</time></trkpt><trkpt lat="42.4125928" lon="-8.5540947"><ele>334.0</ele><time>2026-03-28T17:34:12.858Z</time></trkpt><trkpt lat="42.4126527" lon="-8.553995"><ele>334.0</ele><time>2026-03-28T17:34:13.86Z</time></trkpt><trkpt lat="42.4127138" lon="-8.5538859"><ele>334.0</ele><time>2026-03-28T17:34:14.857Z</time></trkpt><trkpt lat="42.4127667" lon="-8.5537751"><ele>334.0</ele><time>2026-03-28T17:34:15.858Z</time></trkpt><trkpt lat="42.4128132" lon="-8.553658"><ele>334.0</ele><time>2026-03-28T17:34:16.863Z</time></trkpt><trkpt lat="42.4128592" lon="-8.5535492"><ele>333.8333333333333</ele><time>2026-03-28T17:34:17.857Z</time></trkpt><trkpt lat="42.4129039" lon="-8.5534452"><ele>333.66666666666663</ele><time>2026-03-28T17:34:18.857Z</time></trkpt><trkpt lat="42.4129448" lon="-8.5533469"><ele>333.5</ele><time>2026-03-28T17:34:19.859Z</time></trkpt><trkpt lat="42.4129802" lon="-8.5532528"><ele>333.3333333333333</ele><time>2026-03-28T17:34:20.857Z</time></trkpt><trkpt lat="42.4130098" lon="-8.5531583"><ele>333.1666666666667</ele><time>2026-03-28T17:34:21.863Z</time></trkpt><trkpt lat="42.4130271" lon="-8.5530619"><ele>333.0</ele><time>2026-03-28T17:34:22.865Z</time></trkpt><trkpt lat="42.4130318" lon="-8.5529594"><ele>334.1666666666667</ele><time>2026-03-28T17:34:23.865Z</time></trkpt><trkpt lat="42.4130267" lon="-8.5528524"><ele>335.3333333333333</ele><time>2026-03-28T17:34:24.857Z</time></trkpt><trkpt lat="42.4130163" lon="-8.5527341"><ele>336.5</ele><time>2026-03-28T17:34:25.872Z</time></trkpt><trkpt lat="42.4130131" lon="-8.5526137"><ele>337.66666666666663</ele><time>2026-03-28T17:34:26.868Z</time></trkpt><trkpt lat="42.413015" lon="-8.5525043"><ele>338.8333333333333</ele><time>2026-03-28T17:34:27.861Z</time></trkpt><trkpt lat="42.4130199" lon="-8.5524054"><ele>340.0</ele><time>2026-03-28T17:34:28.861Z</time></trkpt><trkpt lat="42.4130304" lon="-8.552308"><ele>340.0</ele><time>2026-03-28T17:34:29.857Z</time></trkpt><trkpt lat="42.4130846" lon="-8.5521565"><ele>340.0</ele><time>2026-03-28T17:34:31.857Z</time></trkpt><trkpt lat="42.4131355" lon="-8.5520094"><ele>340.0</ele><time>2026-03-28T17:34:33.865Z</time></trkpt><trkpt lat="42.4131624" lon="-8.5519279"><ele>340.0</ele><time>2026-03-28T17:34:34.852Z</time></trkpt><trkpt lat="42.4131961" lon="-8.5518385"><ele>340.0</ele><time>2026-03-28T17:34:35.856Z</time></trkpt><trkpt lat="42.4132314" lon="-8.5517444"><ele>339.66666666666663</ele><time>2026-03-28T17:34:36.864Z</time></trkpt><trkpt lat="42.4132628" lon="-8.5516402"><ele>339.3333333333333</ele><time>2026-03-28T17:34:37.858Z</time></trkpt><trkpt lat="42.4132924" lon="-8.5515345"><ele>339.0</ele><time>2026-03-28T17:34:38.856Z</time></trkpt><trkpt lat="42.4133149" lon="-8.5514248"><ele>338.6666666666667</ele><time>2026-03-28T17:34:39.861Z</time></trkpt><trkpt lat="42.4133378" lon="-8.5513091"><ele>338.33333333333337</ele><time>2026-03-28T17:34:40.856Z</time></trkpt><trkpt lat="42.4133656" lon="-8.5511904"><ele>338.0</ele><time>2026-03-28T17:34:41.861Z</time></trkpt><trkpt lat="42.4133865" lon="-8.5510692"><ele>337.6666666666667</ele><time>2026-03-28T17:34:42.865Z</time></trkpt><trkpt lat="42.4134053" lon="-8.5509436"><ele>337.33333333333337</ele><time>2026-03-28T17:34:43.864Z</time></trkpt><trkpt lat="42.4134196" lon="-8.5508239"><ele>337.0</ele><time>2026-03-28T17:34:44.855Z</time></trkpt><trkpt lat="42.4134411" lon="-8.5507105"><ele>336.6666666666667</ele><time>2026-03-28T17:34:45.853Z</time></trkpt><trkpt lat="42.4134686" lon="-8.5506012"><ele>336.3333333333333</ele><time>2026-03-28T17:34:46.867Z</time></trkpt><trkpt lat="42.4134924" lon="-8.5505"><ele>336.0</ele><time>2026-03-28T17:34:47.859Z</time></trkpt><trkpt lat="42.413514" lon="-8.5503971"><ele>335.42857142857144</ele><time>2026-03-28T17:34:48.857Z</time></trkpt><trkpt lat="42.4135208" lon="-8.5502841"><ele>334.8571428571429</ele><time>2026-03-28T17:34:49.851Z</time></trkpt><trkpt lat="42.4135238" lon="-8.550176"><ele>334.2857142857143</ele><time>2026-03-28T17:34:50.855Z</time></trkpt><trkpt lat="42.4135244" lon="-8.5500731"><ele>333.7142857142857</ele><time>2026-03-28T17:34:51.858Z</time></trkpt><trkpt lat="42.4135283" lon="-8.5499785"><ele>333.14285714285717</ele><time>2026-03-28T17:34:52.87Z</time></trkpt><trkpt lat="42.4135355" lon="-8.5498905"><ele>332.57142857142856</ele><time>2026-03-28T17:34:53.858Z</time></trkpt><trkpt lat="42.413545" lon="-8.5498002"><ele>332.0</ele><time>2026-03-28T17:34:54.855Z</time></trkpt><trkpt lat="42.4135634" lon="-8.5497077"><ele>332.0</ele><time>2026-03-28T17:34:55.861Z</time></trkpt><trkpt lat="42.4135906" lon="-8.5496169"><ele>332.0</ele><time>2026-03-28T17:34:56.859Z</time></trkpt><trkpt lat="42.413631" lon="-8.5495238"><ele>332.0</ele><time>2026-03-28T17:34:57.861Z</time></trkpt><trkpt lat="42.4136818" lon="-8.5494358"><ele>332.0</ele><time>2026-03-28T17:34:58.865Z</time></trkpt><trkpt lat="42.4137377" lon="-8.5493504"><ele>332.0</ele><time>2026-03-28T17:34:59.859Z</time></trkpt><trkpt lat="42.4137903" lon="-8.5492585"><ele>332.0</ele><time>2026-03-28T17:35:00.853Z</time></trkpt><trkpt lat="42.4138338" lon="-8.5491649"><ele>332.1666666666667</ele><time>2026-03-28T17:35:01.861Z</time></trkpt><trkpt lat="42.4138673" lon="-8.5490648"><ele>332.33333333333337</ele><time>2026-03-28T17:35:02.862Z</time></trkpt><trkpt lat="42.4138992" lon="-8.5489621"><ele>332.5</ele><time>2026-03-28T17:35:03.863Z</time></trkpt><trkpt lat="42.4139264" lon="-8.5488584"><ele>332.6666666666667</ele><time>2026-03-28T17:35:04.865Z</time></trkpt><trkpt lat="42.4139471" lon="-8.548755"><ele>332.8333333333333</ele><time>2026-03-28T17:35:05.863Z</time></trkpt><trkpt lat="42.413966" lon="-8.5486515"><ele>333.0</ele><time>2026-03-28T17:35:06.858Z</time></trkpt><trkpt lat="42.4139828" lon="-8.5485561"><ele>333.0</ele><time>2026-03-28T17:35:07.854Z</time></trkpt><trkpt lat="42.4139974" lon="-8.5484719"><ele>333.0</ele><time>2026-03-28T17:35:08.859Z</time></trkpt><trkpt lat="42.4140235" lon="-8.5483475"><ele>333.0</ele><time>2026-03-28T17:35:10.868Z</time></trkpt><trkpt lat="42.4139807" lon="-8.5484237"><ele>333.0</ele><time>2026-03-28T17:38:36.855Z</time></trkpt><trkpt lat="42.4139677" lon="-8.548526"><ele>333.0</ele><time>2026-03-28T17:44:12.859Z</time></trkpt><trkpt lat="42.4139441" lon="-8.5486066"><ele>333.0</ele><time>2026-03-28T17:44:13.861Z</time></trkpt><trkpt lat="42.4139283" lon="-8.5486964"><ele>333.0</ele><time>2026-03-28T17:44:14.867Z</time></trkpt><trkpt lat="42.413914" lon="-8.5488055"><ele>333.0</ele><time>2026-03-28T17:44:15.855Z</time></trkpt><trkpt lat="42.4139021" lon="-8.5489467"><ele>333.0</ele><time>2026-03-28T17:44:16.859Z</time></trkpt><trkpt lat="42.4138867" lon="-8.549064"><ele>333.0</ele><time>2026-03-28T17:44:17.859Z</time></trkpt><trkpt lat="42.4138669" lon="-8.5491619"><ele>333.0</ele><time>2026-03-28T17:44:18.862Z</time></trkpt><trkpt lat="42.4138405" lon="-8.5492465"><ele>333.0</ele><time>2026-03-28T17:44:19.859Z</time></trkpt><trkpt lat="42.413809" lon="-8.5493255"><ele>333.0</ele><time>2026-03-28T17:44:20.854Z</time></trkpt><trkpt lat="42.4137712" lon="-8.549399"><ele>332.79999999999995</ele><time>2026-03-28T17:44:21.856Z</time></trkpt><trkpt lat="42.4136923" lon="-8.5495266"><ele>332.6</ele><time>2026-03-28T17:44:23.853Z</time></trkpt><trkpt lat="42.4136222" lon="-8.5496663"><ele>332.4</ele><time>2026-03-28T17:44:25.863Z</time></trkpt><trkpt lat="42.4135559" lon="-8.5498007"><ele>332.20000000000005</ele><time>2026-03-28T17:44:27.864Z</time></trkpt><trkpt lat="42.4135254" lon="-8.5498755"><ele>332.0</ele><time>2026-03-28T17:44:28.854Z</time></trkpt><trkpt lat="42.4134798" lon="-8.5500304"><ele>332.0</ele><time>2026-03-28T17:44:30.861Z</time></trkpt><trkpt lat="42.4134631" lon="-8.5501173"><ele>332.0</ele><time>2026-03-28T17:44:31.857Z</time></trkpt><trkpt lat="42.413454" lon="-8.5502252"><ele>332.0</ele><time>2026-03-28T17:44:32.859Z</time></trkpt><trkpt lat="42.4134528" lon="-8.5503461"><ele>332.0</ele><time>2026-03-28T17:44:33.856Z</time></trkpt><trkpt lat="42.413452" lon="-8.5504704"><ele>332.0</ele><time>2026-03-28T17:44:34.856Z</time></trkpt><trkpt lat="42.4134469" lon="-8.5505858"><ele>332.0</ele><time>2026-03-28T17:44:35.858Z</time></trkpt><trkpt lat="42.4134302" lon="-8.5506928"><ele>332.8</ele><time>2026-03-28T17:44:36.862Z</time></trkpt><trkpt lat="42.4134106" lon="-8.5507959"><ele>333.6</ele><time>2026-03-28T17:44:37.851Z</time></trkpt><trkpt lat="42.4133908" lon="-8.5509052"><ele>334.40000000000003</ele><time>2026-03-28T17:44:38.856Z</time></trkpt><trkpt lat="42.4133703" lon="-8.551029"><ele>335.20000000000005</ele><time>2026-03-28T17:44:39.873Z</time></trkpt><trkpt lat="42.4133508" lon="-8.5511614"><ele>336.0</ele><time>2026-03-28T17:44:40.861Z</time></trkpt><trkpt lat="42.4133324" lon="-8.551295"><ele>336.4</ele><time>2026-03-28T17:44:41.856Z</time></trkpt><trkpt lat="42.4133044" lon="-8.5514299"><ele>336.8</ele><time>2026-03-28T17:44:42.858Z</time></trkpt><trkpt lat="42.4132704" lon="-8.5515632"><ele>337.2</ele><time>2026-03-28T17:44:43.86Z</time></trkpt><trkpt lat="42.4132458" lon="-8.551687"><ele>337.59999999999997</ele><time>2026-03-28T17:44:44.872Z</time></trkpt><trkpt lat="42.4132239" lon="-8.5518065"><ele>338.0</ele><time>2026-03-28T17:44:45.851Z</time></trkpt><trkpt lat="42.4131938" lon="-8.5519228"><ele>338.0</ele><time>2026-03-28T17:44:46.852Z</time></trkpt><trkpt lat="42.413151" lon="-8.552031"><ele>338.0</ele><time>2026-03-28T17:44:47.862Z</time></trkpt><trkpt lat="42.4131049" lon="-8.5521373"><ele>338.0</ele><time>2026-03-28T17:44:48.851Z</time></trkpt><trkpt lat="42.413062" lon="-8.5522552"><ele>338.0</ele><time>2026-03-28T17:44:49.857Z</time></trkpt><trkpt lat="42.4130209" lon="-8.5523798"><ele>338.0</ele><time>2026-03-28T17:44:50.856Z</time></trkpt><trkpt lat="42.4129828" lon="-8.5525134"><ele>337.0</ele><time>2026-03-28T17:44:51.866Z</time></trkpt><trkpt lat="42.4129495" lon="-8.5526482"><ele>336.0</ele><time>2026-03-28T17:44:52.853Z</time></trkpt><trkpt lat="42.4129261" lon="-8.552789"><ele>335.0</ele><time>2026-03-28T17:44:53.864Z</time></trkpt><trkpt lat="42.4129206" lon="-8.5529308"><ele>334.0</ele><time>2026-03-28T17:44:54.857Z</time></trkpt><trkpt lat="42.4129312" lon="-8.5530721"><ele>333.0</ele><time>2026-03-28T17:44:55.855Z</time></trkpt><trkpt lat="42.4129471" lon="-8.5532121"><ele>333.0</ele><time>2026-03-28T17:44:56.852Z</time></trkpt><trkpt lat="42.4129505" lon="-8.5533501"><ele>333.0</ele><time>2026-03-28T17:44:57.856Z</time></trkpt><trkpt lat="42.412929" lon="-8.5534793"><ele>333.0</ele><time>2026-03-28T17:44:58.857Z</time></trkpt><trkpt lat="42.4128859" lon="-8.5536004"><ele>333.0</ele><time>2026-03-28T17:44:59.852Z</time></trkpt><trkpt lat="42.4128347" lon="-8.5537241"><ele>333.0</ele><time>2026-03-28T17:45:00.859Z</time></trkpt><trkpt lat="42.4127781" lon="-8.5538482"><ele>333.2</ele><time>2026-03-28T17:45:01.855Z</time></trkpt><trkpt lat="42.4127196" lon="-8.5539694"><ele>333.4</ele><time>2026-03-28T17:45:02.86Z</time></trkpt><trkpt lat="42.4126598" lon="-8.554088"><ele>333.59999999999997</ele><time>2026-03-28T17:45:03.86Z</time></trkpt><trkpt lat="42.4125967" lon="-8.5542037"><ele>333.79999999999995</ele><time>2026-03-28T17:45:04.857Z</time></trkpt><trkpt lat="42.4125285" lon="-8.5543131"><ele>334.0</ele><time>2026-03-28T17:45:05.864Z</time></trkpt><trkpt lat="42.4124618" lon="-8.5544204"><ele>334.25</ele><time>2026-03-28T17:45:06.852Z</time></trkpt><trkpt lat="42.4123984" lon="-8.5545426"><ele>334.5</ele><time>2026-03-28T17:45:07.853Z</time></trkpt><trkpt lat="42.4123377" lon="-8.5546733"><ele>334.75</ele><time>2026-03-28T17:45:08.863Z</time></trkpt><trkpt lat="42.4122738" lon="-8.5548071"><ele>335.0</ele><time>2026-03-28T17:45:09.859Z</time></trkpt><trkpt lat="42.4122069" lon="-8.5549405"><ele>335.0</ele><time>2026-03-28T17:45:10.852Z</time></trkpt><trkpt lat="42.4121383" lon="-8.5550719"><ele>335.0</ele><time>2026-03-28T17:45:11.857Z</time></trkpt><trkpt lat="42.4120692" lon="-8.5552043"><ele>335.0</ele><time>2026-03-28T17:45:12.858Z</time></trkpt><trkpt lat="42.4120138" lon="-8.5553448"><ele>335.0</ele><time>2026-03-28T17:45:13.864Z</time></trkpt><trkpt lat="42.4119684" lon="-8.5554856"><ele>334.6</ele><time>2026-03-28T17:45:14.867Z</time></trkpt><trkpt lat="42.4119258" lon="-8.5556258"><ele>334.2</ele><time>2026-03-28T17:45:15.857Z</time></trkpt><trkpt lat="42.4118799" lon="-8.5557551"><ele>333.79999999999995</ele><time>2026-03-28T17:45:16.858Z</time></trkpt><trkpt lat="42.4118408" lon="-8.5558792"><ele>333.4</ele><time>2026-03-28T17:45:17.864Z</time></trkpt><trkpt lat="42.4118096" lon="-8.5560071"><ele>333.0</ele><time>2026-03-28T17:45:18.852Z</time></trkpt><trkpt lat="42.4117885" lon="-8.5561343"><ele>332.79999999999995</ele><time>2026-03-28T17:45:19.86Z</time></trkpt><trkpt lat="42.4117722" lon="-8.5562553"><ele>332.6</ele><time>2026-03-28T17:45:20.852Z</time></trkpt><trkpt lat="42.4117602" lon="-8.5563819"><ele>332.4</ele><time>2026-03-28T17:45:21.856Z</time></trkpt><trkpt lat="42.4117566" lon="-8.556512"><ele>332.20000000000005</ele><time>2026-03-28T17:45:22.858Z</time></trkpt><trkpt lat="42.4117613" lon="-8.5566355"><ele>332.0</ele><time>2026-03-28T17:45:23.856Z</time></trkpt><trkpt lat="42.4117674" lon="-8.5567603"><ele>332.0</ele><time>2026-03-28T17:45:24.862Z</time></trkpt><trkpt lat="42.4117768" lon="-8.5568757"><ele>332.0</ele><time>2026-03-28T17:45:25.85Z</time></trkpt><trkpt lat="42.4117983" lon="-8.5569769"><ele>332.0</ele><time>2026-03-28T17:45:26.855Z</time></trkpt><trkpt lat="42.4118638" lon="-8.5571014"><ele>332.0</ele><time>2026-03-28T17:45:28.854Z</time></trkpt><trkpt lat="42.4119614" lon="-8.5571471"><ele>332.0</ele><time>2026-03-28T17:45:30.87Z</time></trkpt><trkpt lat="42.4120773" lon="-8.5571736"><ele>331.83333333333337</ele><time>2026-03-28T17:45:32.865Z</time></trkpt><trkpt lat="42.4121733" lon="-8.5572171"><ele>331.6666666666667</ele><time>2026-03-28T17:45:34.855Z</time></trkpt><trkpt lat="42.412243" lon="-8.5573022"><ele>331.5</ele><time>2026-03-28T17:45:36.856Z</time></trkpt><trkpt lat="42.4122785" lon="-8.5573732"><ele>331.3333333333333</ele><time>2026-03-28T17:45:37.859Z</time></trkpt><trkpt lat="42.4123234" lon="-8.5574545"><ele>331.16666666666663</ele><time>2026-03-28T17:45:38.858Z</time></trkpt><trkpt lat="42.4123735" lon="-8.5575386"><ele>331.0</ele><time>2026-03-28T17:45:39.854Z</time></trkpt><trkpt lat="42.4124266" lon="-8.5576301"><ele>331.0</ele><time>2026-03-28T17:45:40.853Z</time></trkpt><trkpt lat="42.4124811" lon="-8.557723"><ele>331.0</ele><time>2026-03-28T17:45:41.858Z</time></trkpt><trkpt lat="42.4125299" lon="-8.5578179"><ele>331.0</ele><time>2026-03-28T17:45:42.854Z</time></trkpt><trkpt lat="42.4125667" lon="-8.5579124"><ele>331.0</ele><time>2026-03-28T17:45:43.853Z</time></trkpt><trkpt lat="42.4126" lon="-8.5579893"><ele>331.0</ele><time>2026-03-28T17:45:44.862Z</time></trkpt><trkpt lat="42.4126637" lon="-8.5580801"><ele>331.0</ele><time>2026-03-28T17:50:12.859Z</time></trkpt><trkpt lat="42.4127363" lon="-8.5581208"><ele>330.3333333333333</ele><time>2026-03-28T17:50:14.854Z</time></trkpt><trkpt lat="42.4128419" lon="-8.5581296"><ele>329.66666666666663</ele><time>2026-03-28T17:50:16.853Z</time></trkpt><trkpt lat="42.4129077" lon="-8.5581377"><ele>329.0</ele><time>2026-03-28T17:50:17.855Z</time></trkpt><trkpt lat="42.412983" lon="-8.5581588"><ele>328.3333333333333</ele><time>2026-03-28T17:50:18.852Z</time></trkpt><trkpt lat="42.4130667" lon="-8.5581775"><ele>327.6666666666667</ele><time>2026-03-28T17:50:19.852Z</time></trkpt><trkpt lat="42.4131541" lon="-8.5581912"><ele>327.0</ele><time>2026-03-28T17:50:20.863Z</time></trkpt><trkpt lat="42.4132401" lon="-8.5582099"><ele>327.0</ele><time>2026-03-28T17:50:21.854Z</time></trkpt><trkpt lat="42.4133206" lon="-8.5582267"><ele>327.0</ele><time>2026-03-28T17:50:22.858Z</time></trkpt><trkpt lat="42.4134032" lon="-8.5582538"><ele>327.0</ele><time>2026-03-28T17:50:23.849Z</time></trkpt><trkpt lat="42.4134597" lon="-8.5583017"><ele>327.0</ele><time>2026-03-28T17:50:24.851Z</time></trkpt><trkpt lat="42.4135009" lon="-8.558461"><ele>327.0</ele><time>2026-03-28T17:50:26.854Z</time></trkpt><trkpt lat="42.4134911" lon="-8.5585782"><ele>327.0</ele><time>2026-03-28T17:50:27.868Z</time></trkpt><trkpt lat="42.4134824" lon="-8.5587065"><ele>327.0</ele><time>2026-03-28T17:50:28.852Z</time></trkpt><trkpt lat="42.4134718" lon="-8.5588368"><ele>327.0</ele><time>2026-03-28T17:50:29.854Z</time></trkpt><trkpt lat="42.4134547" lon="-8.5589701"><ele>327.0</ele><time>2026-03-28T17:50:30.862Z</time></trkpt><trkpt lat="42.4134244" lon="-8.5590774"><ele>327.0</ele><time>2026-03-28T17:50:31.854Z</time></trkpt><trkpt lat="42.4133775" lon="-8.5591843"><ele>327.0</ele><time>2026-03-28T17:50:32.852Z</time></trkpt><trkpt lat="42.4133174" lon="-8.5592869"><ele>327.0</ele><time>2026-03-28T17:50:33.858Z</time></trkpt><trkpt lat="42.413265" lon="-8.559388"><ele>327.0</ele><time>2026-03-28T17:50:34.858Z</time></trkpt><trkpt lat="42.4132136" lon="-8.5594948"><ele>327.0</ele><time>2026-03-28T17:50:35.862Z</time></trkpt><trkpt lat="42.4131642" lon="-8.5595991"><ele>327.0</ele><time>2026-03-28T17:50:36.853Z</time></trkpt><trkpt lat="42.4131265" lon="-8.5597111"><ele>327.0</ele><time>2026-03-28T17:50:37.851Z</time></trkpt><trkpt lat="42.4130882" lon="-8.5598232"><ele>327.20000000000005</ele><time>2026-03-28T17:50:38.853Z</time></trkpt><trkpt lat="42.413043" lon="-8.5599323"><ele>327.4</ele><time>2026-03-28T17:50:39.857Z</time></trkpt><trkpt lat="42.412985" lon="-8.5600427"><ele>327.6</ele><time>2026-03-28T17:50:40.858Z</time></trkpt><trkpt lat="42.4129351" lon="-8.5601731"><ele>327.79999999999995</ele><time>2026-03-28T17:50:41.851Z</time></trkpt><trkpt lat="42.4129034" lon="-8.5602907"><ele>328.0</ele><time>2026-03-28T17:50:42.852Z</time></trkpt><trkpt lat="42.412894" lon="-8.5603867"><ele>327.5</ele><time>2026-03-28T17:50:43.854Z</time></trkpt><trkpt lat="42.412907" lon="-8.5604922"><ele>327.0</ele><time>2026-03-28T17:50:44.852Z</time></trkpt><trkpt lat="42.4129387" lon="-8.5606085"><ele>326.5</ele><time>2026-03-28T17:50:45.849Z</time></trkpt><trkpt lat="42.4129832" lon="-8.56072"><ele>326.0</ele><time>2026-03-28T17:50:46.861Z</time></trkpt><trkpt lat="42.4130228" lon="-8.5608202"><ele>325.5</ele><time>2026-03-28T17:50:47.865Z</time></trkpt><trkpt lat="42.4130819" lon="-8.5609154"><ele>325.0</ele><time>2026-03-28T17:50:48.855Z</time></trkpt><trkpt lat="42.4131265" lon="-8.5610144"><ele>325.0</ele><time>2026-03-28T17:50:49.861Z</time></trkpt><trkpt lat="42.4131702" lon="-8.5611245"><ele>325.0</ele><time>2026-03-28T17:50:50.854Z</time></trkpt><trkpt lat="42.4132207" lon="-8.5612349"><ele>325.0</ele><time>2026-03-28T17:50:51.851Z</time></trkpt><trkpt lat="42.4132808" lon="-8.5613524"><ele>325.0</ele><time>2026-03-28T17:50:52.864Z</time></trkpt><trkpt lat="42.4133478" lon="-8.5614667"><ele>325.0</ele><time>2026-03-28T17:50:53.854Z</time></trkpt><trkpt lat="42.4134109" lon="-8.5615728"><ele>325.16666666666663</ele><time>2026-03-28T17:50:54.852Z</time></trkpt><trkpt lat="42.4134617" lon="-8.5616682"><ele>325.3333333333333</ele><time>2026-03-28T17:50:55.858Z</time></trkpt><trkpt lat="42.4135308" lon="-8.5617793"><ele>325.5</ele><time>2026-03-28T17:50:57.858Z</time></trkpt><trkpt lat="42.4135522" lon="-8.5618772"><ele>325.6666666666667</ele><time>2026-03-28T17:50:59.854Z</time></trkpt><trkpt lat="42.4136276" lon="-8.5619714"><ele>325.83333333333337</ele><time>2026-03-28T17:51:01.853Z</time></trkpt><trkpt lat="42.4136929" lon="-8.5620268"><ele>326.0</ele><time>2026-03-28T17:51:02.854Z</time></trkpt><trkpt lat="42.4137698" lon="-8.5620956"><ele>327.0</ele><time>2026-03-28T17:51:03.854Z</time></trkpt><trkpt lat="42.4138354" lon="-8.5621832"><ele>328.0</ele><time>2026-03-28T17:51:04.858Z</time></trkpt><trkpt lat="42.4138943" lon="-8.5622772"><ele>329.0</ele><time>2026-03-28T17:51:05.853Z</time></trkpt><trkpt lat="42.4139478" lon="-8.5623725"><ele>330.0</ele><time>2026-03-28T17:51:06.856Z</time></trkpt><trkpt lat="42.4139971" lon="-8.5624476"><ele>331.0</ele><time>2026-03-28T17:51:07.852Z</time></trkpt><trkpt lat="42.4140564" lon="-8.5625603"><ele>332.0</ele><time>2026-03-28T17:51:09.851Z</time></trkpt><trkpt lat="42.4140357" lon="-8.5626761"><ele>332.0</ele><time>2026-03-28T17:51:11.856Z</time></trkpt><trkpt lat="42.4140016" lon="-8.5627484"><ele>332.0</ele><time>2026-03-28T17:51:12.859Z</time></trkpt><trkpt lat="42.4139807" lon="-8.5628354"><ele>332.0</ele><time>2026-03-28T17:51:13.85Z</time></trkpt><trkpt lat="42.4139646" lon="-8.5629269"><ele>332.0</ele><time>2026-03-28T17:51:14.854Z</time></trkpt><trkpt lat="42.4139607" lon="-8.5630198"><ele>332.0</ele><time>2026-03-28T17:51:15.86Z</time></trkpt><trkpt lat="42.4139466" lon="-8.5631165"><ele>332.0</ele><time>2026-03-28T17:51:16.855Z</time></trkpt><trkpt lat="42.413938" lon="-8.5632192"><ele>332.0</ele><time>2026-03-28T17:51:17.862Z</time></trkpt><trkpt lat="42.4139344" lon="-8.5633358"><ele>332.6666666666667</ele><time>2026-03-28T17:51:18.86Z</time></trkpt><trkpt lat="42.4139264" lon="-8.5634484"><ele>333.33333333333337</ele><time>2026-03-28T17:51:19.86Z</time></trkpt><trkpt lat="42.413906" lon="-8.5635456"><ele>334.0</ele><time>2026-03-28T17:51:20.855Z</time></trkpt><trkpt lat="42.4138741" lon="-8.5636475"><ele>334.6666666666667</ele><time>2026-03-28T17:51:21.848Z</time></trkpt><trkpt lat="42.4138413" lon="-8.5637585"><ele>335.3333333333333</ele><time>2026-03-28T17:51:22.858Z</time></trkpt><trkpt lat="42.4138118" lon="-8.5638687"><ele>336.0</ele><time>2026-03-28T17:51:23.852Z</time></trkpt><trkpt lat="42.4137937" lon="-8.5639847"><ele>336.5</ele><time>2026-03-28T17:51:24.855Z</time></trkpt><trkpt lat="42.4137912" lon="-8.5641031"><ele>337.0</ele><time>2026-03-28T17:51:25.852Z</time></trkpt><trkpt lat="42.4138041" lon="-8.5642215"><ele>337.5</ele><time>2026-03-28T17:51:26.864Z</time></trkpt><trkpt lat="42.4138168" lon="-8.5643355"><ele>338.0</ele><time>2026-03-28T17:51:27.854Z</time></trkpt><trkpt lat="42.4138247" lon="-8.564461"><ele>338.5</ele><time>2026-03-28T17:51:28.854Z</time></trkpt><trkpt lat="42.413826" lon="-8.5645881"><ele>339.0</ele><time>2026-03-28T17:51:29.851Z</time></trkpt><trkpt lat="42.4138257" lon="-8.5647105"><ele>339.0</ele><time>2026-03-28T17:51:30.853Z</time></trkpt><trkpt lat="42.4138283" lon="-8.5648332"><ele>339.0</ele><time>2026-03-28T17:51:31.852Z</time></trkpt><trkpt lat="42.413835" lon="-8.5649587"><ele>339.0</ele><time>2026-03-28T17:51:32.854Z</time></trkpt><trkpt lat="42.4138321" lon="-8.5650818"><ele>339.0</ele><time>2026-03-28T17:51:33.852Z</time></trkpt><trkpt lat="42.413829" lon="-8.5651993"><ele>339.0</ele><time>2026-03-28T17:51:34.87Z</time></trkpt><trkpt lat="42.4138302" lon="-8.5653192"><ele>338.4</ele><time>2026-03-28T17:51:35.855Z</time></trkpt><trkpt lat="42.4138291" lon="-8.5654382"><ele>337.79999999999995</ele><time>2026-03-28T17:51:36.851Z</time></trkpt><trkpt lat="42.4138365" lon="-8.5655651"><ele>337.20000000000005</ele><time>2026-03-28T17:51:37.864Z</time></trkpt><trkpt lat="42.4138371" lon="-8.5656937"><ele>336.6</ele><time>2026-03-28T17:51:38.858Z</time></trkpt><trkpt lat="42.4138415" lon="-8.5658137"><ele>336.0</ele><time>2026-03-28T17:51:39.853Z</time></trkpt><trkpt lat="42.4138472" lon="-8.5659309"><ele>336.0</ele><time>2026-03-28T17:51:40.852Z</time></trkpt><trkpt lat="42.4138565" lon="-8.5660422"><ele>336.0</ele><time>2026-03-28T17:51:41.865Z</time></trkpt><trkpt lat="42.4138738" lon="-8.5661582"><ele>336.0</ele><time>2026-03-28T17:51:42.854Z</time></trkpt><trkpt lat="42.4138994" lon="-8.5662832"><ele>336.0</ele><time>2026-03-28T17:51:43.855Z</time></trkpt><trkpt lat="42.4139208" lon="-8.5664113"><ele>336.0</ele><time>2026-03-28T17:51:44.858Z</time></trkpt><trkpt lat="42.4139293" lon="-8.5665352"><ele>335.57142857142856</ele><time>2026-03-28T17:51:45.851Z</time></trkpt><trkpt lat="42.4139333" lon="-8.5666506"><ele>335.1428571428571</ele><time>2026-03-28T17:51:46.856Z</time></trkpt><trkpt lat="42.4139417" lon="-8.566758"><ele>334.7142857142857</ele><time>2026-03-28T17:51:47.858Z</time></trkpt><trkpt lat="42.4139459" lon="-8.5668585"><ele>334.2857142857143</ele><time>2026-03-28T17:51:48.857Z</time></trkpt><trkpt lat="42.4139387" lon="-8.566964"><ele>333.85714285714283</ele><time>2026-03-28T17:51:49.861Z</time></trkpt><trkpt lat="42.4139237" lon="-8.5670502"><ele>333.42857142857144</ele><time>2026-03-28T17:51:50.848Z</time></trkpt><trkpt lat="42.4139077" lon="-8.5671361"><ele>333.0</ele><time>2026-03-28T17:51:51.849Z</time></trkpt><trkpt lat="42.4138382" lon="-8.5672474"><ele>332.0</ele><time>2026-03-28T17:51:53.855Z</time></trkpt><trkpt lat="42.4137848" lon="-8.5673019"><ele>331.0</ele><time>2026-03-28T17:51:54.856Z</time></trkpt><trkpt lat="42.4137352" lon="-8.5673636"><ele>330.0</ele><time>2026-03-28T17:51:55.848Z</time></trkpt><trkpt lat="42.413697" lon="-8.5674407"><ele>329.0</ele><time>2026-03-28T17:51:56.86Z</time></trkpt><trkpt lat="42.4136689" lon="-8.567522"><ele>328.0</ele><time>2026-03-28T17:51:57.859Z</time></trkpt><trkpt lat="42.4136473" lon="-8.5676082"><ele>327.0</ele><time>2026-03-28T17:51:58.851Z</time></trkpt><trkpt lat="42.4136364" lon="-8.5677807"><ele>326.1666666666667</ele><time>2026-03-28T17:52:00.852Z</time></trkpt><trkpt lat="42.4136291" lon="-8.5678781"><ele>325.3333333333333</ele><time>2026-03-28T17:52:01.856Z</time></trkpt><trkpt lat="42.4136185" lon="-8.5679741"><ele>324.5</ele><time>2026-03-28T17:52:02.849Z</time></trkpt><trkpt lat="42.4136087" lon="-8.5680777"><ele>323.66666666666663</ele><time>2026-03-28T17:52:03.861Z</time></trkpt><trkpt lat="42.4135966" lon="-8.5681844"><ele>322.8333333333333</ele><time>2026-03-28T17:52:04.861Z</time></trkpt><trkpt lat="42.4135762" lon="-8.5682871"><ele>322.0</ele><time>2026-03-28T17:52:05.858Z</time></trkpt><trkpt lat="42.4135519" lon="-8.5683929"><ele>322.0</ele><time>2026-03-28T17:52:06.851Z</time></trkpt><trkpt lat="42.4135285" lon="-8.5684956"><ele>322.0</ele><time>2026-03-28T17:52:07.867Z</time></trkpt><trkpt lat="42.4135219" lon="-8.5685949"><ele>322.0</ele><time>2026-03-28T17:52:08.856Z</time></trkpt><trkpt lat="42.4135294" lon="-8.5686852"><ele>322.0</ele><time>2026-03-28T17:52:09.853Z</time></trkpt><trkpt lat="42.4135572" lon="-8.568771"><ele>322.0</ele><time>2026-03-28T17:52:10.857Z</time></trkpt><trkpt lat="42.4135925" lon="-8.5688688"><ele>322.0</ele><time>2026-03-28T17:52:11.857Z</time></trkpt><trkpt lat="42.4136323" lon="-8.5689723"><ele>321.3333333333333</ele><time>2026-03-28T17:52:12.86Z</time></trkpt><trkpt lat="42.4136718" lon="-8.5690816"><ele>320.66666666666663</ele><time>2026-03-28T17:52:13.855Z</time></trkpt><trkpt lat="42.413702" lon="-8.5691883"><ele>320.0</ele><time>2026-03-28T17:52:14.857Z</time></trkpt><trkpt lat="42.4137338" lon="-8.5692973"><ele>319.3333333333333</ele><time>2026-03-28T17:52:15.854Z</time></trkpt><trkpt lat="42.4137692" lon="-8.5694005"><ele>318.6666666666667</ele><time>2026-03-28T17:52:16.86Z</time></trkpt><trkpt lat="42.4138001" lon="-8.5695077"><ele>318.0</ele><time>2026-03-28T17:52:17.851Z</time></trkpt><trkpt lat="42.4138269" lon="-8.5696164"><ele>316.0</ele><time>2026-03-28T17:52:18.857Z</time></trkpt><trkpt lat="42.413847" lon="-8.5697215"><ele>314.0</ele><time>2026-03-28T17:52:19.855Z</time></trkpt><trkpt lat="42.413863" lon="-8.5698205"><ele>312.0</ele><time>2026-03-28T17:52:20.848Z</time></trkpt><trkpt lat="42.413868" lon="-8.5699771"><ele>310.0</ele><time>2026-03-28T17:52:22.859Z</time></trkpt><trkpt lat="42.413846" lon="-8.5701269"><ele>308.0</ele><time>2026-03-28T17:52:24.851Z</time></trkpt><trkpt lat="42.4138378" lon="-8.5702581"><ele>308.0</ele><time>2026-03-28T17:52:26.857Z</time></trkpt><trkpt lat="42.4138963" lon="-8.5703252"><ele>308.0</ele><time>2026-03-28T17:52:29.856Z</time></trkpt><trkpt lat="42.4139511" lon="-8.570397"><ele>308.0</ele><time>2026-03-28T17:52:31.863Z</time></trkpt><trkpt lat="42.4140288" lon="-8.5705174"><ele>308.0</ele><time>2026-03-28T17:52:33.863Z</time></trkpt><trkpt lat="42.4140705" lon="-8.5705858"><ele>308.0</ele><time>2026-03-28T17:52:34.858Z</time></trkpt><trkpt lat="42.4141154" lon="-8.5706678"><ele>308.0</ele><time>2026-03-28T17:52:35.852Z</time></trkpt><trkpt lat="42.4141512" lon="-8.5707523"><ele>307.1666666666667</ele><time>2026-03-28T17:52:36.854Z</time></trkpt><trkpt lat="42.4141853" lon="-8.5708481"><ele>306.33333333333337</ele><time>2026-03-28T17:52:37.857Z</time></trkpt><trkpt lat="42.4142297" lon="-8.5709247"><ele>305.5</ele><time>2026-03-28T17:52:38.858Z</time></trkpt><trkpt lat="42.4142826" lon="-8.5709777"><ele>304.6666666666667</ele><time>2026-03-28T17:52:39.847Z</time></trkpt><trkpt lat="42.4144071" lon="-8.5710345"><ele>303.8333333333333</ele><time>2026-03-28T17:52:41.859Z</time></trkpt><trkpt lat="42.4144829" lon="-8.5710696"><ele>303.0</ele><time>2026-03-28T17:52:42.852Z</time></trkpt><trkpt lat="42.4145746" lon="-8.5710845"><ele>302.0</ele><time>2026-03-28T17:52:43.856Z</time></trkpt><trkpt lat="42.4146746" lon="-8.5710869"><ele>301.0</ele><time>2026-03-28T17:52:44.858Z</time></trkpt><trkpt lat="42.4147756" lon="-8.5710765"><ele>300.0</ele><time>2026-03-28T17:52:45.851Z</time></trkpt><trkpt lat="42.4148658" lon="-8.5710597"><ele>299.0</ele><time>2026-03-28T17:52:46.849Z</time></trkpt><trkpt lat="42.4149438" lon="-8.571053"><ele>298.0</ele><time>2026-03-28T17:52:47.855Z</time></trkpt><trkpt lat="42.4150129" lon="-8.5710726"><ele>297.0</ele><time>2026-03-28T17:52:48.852Z</time></trkpt><trkpt lat="42.4150904" lon="-8.5710777"><ele>297.0</ele><time>2026-03-28T17:52:49.858Z</time></trkpt><trkpt lat="42.4151684" lon="-8.5710938"><ele>297.0</ele><time>2026-03-28T17:52:50.857Z</time></trkpt><trkpt lat="42.4152448" lon="-8.5711303"><ele>297.0</ele><time>2026-03-28T17:52:51.864Z</time></trkpt><trkpt lat="42.4153262" lon="-8.5711772"><ele>297.0</ele><time>2026-03-28T17:52:52.863Z</time></trkpt><trkpt lat="42.4154104" lon="-8.5712146"><ele>297.0</ele><time>2026-03-28T17:52:53.858Z</time></trkpt><trkpt lat="42.4154927" lon="-8.5712598"><ele>297.0</ele><time>2026-03-28T17:52:54.86Z</time></trkpt><trkpt lat="42.4155652" lon="-8.5713167"><ele>295.6</ele><time>2026-03-28T17:52:55.86Z</time></trkpt><trkpt lat="42.4156294" lon="-8.5713995"><ele>294.2</ele><time>2026-03-28T17:52:56.856Z</time></trkpt><trkpt lat="42.4156875" lon="-8.5714974"><ele>292.8</ele><time>2026-03-28T17:52:57.856Z</time></trkpt><trkpt lat="42.4157375" lon="-8.5716018"><ele>291.4</ele><time>2026-03-28T17:52:58.859Z</time></trkpt><trkpt lat="42.4157831" lon="-8.5717201"><ele>290.0</ele><time>2026-03-28T17:52:59.861Z</time></trkpt><trkpt lat="42.4158287" lon="-8.5718339"><ele>290.0</ele><time>2026-03-28T17:53:00.853Z</time></trkpt><trkpt lat="42.4158835" lon="-8.5719419"><ele>290.0</ele><time>2026-03-28T17:53:01.85Z</time></trkpt><trkpt lat="42.4159369" lon="-8.5720451"><ele>290.0</ele><time>2026-03-28T17:53:02.854Z</time></trkpt><trkpt lat="42.4159848" lon="-8.5721407"><ele>290.0</ele><time>2026-03-28T17:53:03.852Z</time></trkpt><trkpt lat="42.4160217" lon="-8.572224"><ele>290.0</ele><time>2026-03-28T17:53:04.856Z</time></trkpt><trkpt lat="42.4160662" lon="-8.5723526"><ele>288.4</ele><time>2026-03-28T17:53:06.854Z</time></trkpt><trkpt lat="42.4160917" lon="-8.5724947"><ele>286.8</ele><time>2026-03-28T17:53:08.859Z</time></trkpt><trkpt lat="42.4161032" lon="-8.572609"><ele>285.2</ele><time>2026-03-28T17:53:09.857Z</time></trkpt><trkpt lat="42.4161254" lon="-8.5727335"><ele>283.6</ele><time>2026-03-28T17:53:10.856Z</time></trkpt><trkpt lat="42.4161478" lon="-8.5728571"><ele>282.0</ele><time>2026-03-28T17:53:11.855Z</time></trkpt><trkpt lat="42.4161608" lon="-8.5729723"><ele>281.14285714285717</ele><time>2026-03-28T17:53:12.861Z</time></trkpt><trkpt lat="42.4161664" lon="-8.5730746"><ele>280.2857142857143</ele><time>2026-03-28T17:53:13.855Z</time></trkpt><trkpt lat="42.4161827" lon="-8.5731701"><ele>279.42857142857144</ele><time>2026-03-28T17:53:14.853Z</time></trkpt><trkpt lat="42.4161822" lon="-8.5732708"><ele>278.57142857142856</ele><time>2026-03-28T17:53:15.862Z</time></trkpt><trkpt lat="42.4161758" lon="-8.573372"><ele>277.7142857142857</ele><time>2026-03-28T17:53:16.855Z</time></trkpt><trkpt lat="42.4161655" lon="-8.5734734"><ele>276.8571428571429</ele><time>2026-03-28T17:53:17.856Z</time></trkpt><trkpt lat="42.4161684" lon="-8.5735739"><ele>276.0</ele><time>2026-03-28T17:53:18.857Z</time></trkpt><trkpt lat="42.4161824" lon="-8.5736765"><ele>274.5</ele><time>2026-03-28T17:53:19.852Z</time></trkpt><trkpt lat="42.4162053" lon="-8.5737606"><ele>273.0</ele><time>2026-03-28T17:53:20.852Z</time></trkpt><trkpt lat="42.4162912" lon="-8.573825"><ele>271.5</ele><time>2026-03-28T17:53:22.859Z</time></trkpt><trkpt lat="42.4163721" lon="-8.5738186"><ele>270.0</ele><time>2026-03-28T17:53:43.851Z</time></trkpt><trkpt lat="42.416429" lon="-8.5737746"><ele>268.5</ele><time>2026-03-28T17:53:45.854Z</time></trkpt><trkpt lat="42.4165502" lon="-8.5737849"><ele>267.0</ele><time>2026-03-28T17:53:47.863Z</time></trkpt><trkpt lat="42.4166536" lon="-8.5738321"><ele>266.0</ele><time>2026-03-28T17:53:48.854Z</time></trkpt><trkpt lat="42.4167652" lon="-8.5738622"><ele>265.0</ele><time>2026-03-28T17:53:49.861Z</time></trkpt><trkpt lat="42.4168792" lon="-8.5739108"><ele>264.0</ele><time>2026-03-28T17:53:50.851Z</time></trkpt><trkpt lat="42.4169809" lon="-8.5739601"><ele>263.0</ele><time>2026-03-28T17:53:51.855Z</time></trkpt><trkpt lat="42.4170811" lon="-8.5739859"><ele>262.0</ele><time>2026-03-28T17:53:52.857Z</time></trkpt><trkpt lat="42.4171627" lon="-8.5739749"><ele>259.3333333333333</ele><time>2026-03-28T17:53:53.857Z</time></trkpt><trkpt lat="42.4172368" lon="-8.5739631"><ele>256.66666666666663</ele><time>2026-03-28T17:53:54.859Z</time></trkpt><trkpt lat="42.4173103" lon="-8.5739402"><ele>254.0</ele><time>2026-03-28T17:53:55.866Z</time></trkpt><trkpt lat="42.417383" lon="-8.5739229"><ele>251.33333333333331</ele><time>2026-03-28T17:53:56.85Z</time></trkpt><trkpt lat="42.4174572" lon="-8.5738747"><ele>248.66666666666666</ele><time>2026-03-28T17:53:57.851Z</time></trkpt><trkpt lat="42.4175372" lon="-8.573799"><ele>246.0</ele><time>2026-03-28T17:53:58.855Z</time></trkpt><trkpt lat="42.4176228" lon="-8.5737188"><ele>248.33333333333334</ele><time>2026-03-28T17:53:59.856Z</time></trkpt><trkpt lat="42.4176925" lon="-8.5736321"><ele>250.66666666666669</ele><time>2026-03-28T17:54:00.847Z</time></trkpt><trkpt lat="42.4177598" lon="-8.5735325"><ele>253.0</ele><time>2026-03-28T17:54:01.849Z</time></trkpt><trkpt lat="42.4178021" lon="-8.5734493"><ele>255.33333333333334</ele><time>2026-03-28T17:54:02.857Z</time></trkpt><trkpt lat="42.4178497" lon="-8.5733563"><ele>257.6666666666667</ele><time>2026-03-28T17:54:03.85Z</time></trkpt><trkpt lat="42.4178958" lon="-8.5732685"><ele>260.0</ele><time>2026-03-28T17:54:04.858Z</time></trkpt><trkpt lat="42.4179419" lon="-8.5732036"><ele>256.33333333333337</ele><time>2026-03-28T17:54:05.862Z</time></trkpt><trkpt lat="42.4180285" lon="-8.5731872"><ele>252.66666666666669</ele><time>2026-03-28T17:54:07.865Z</time></trkpt><trkpt lat="42.4180751" lon="-8.5732779"><ele>249.0</ele><time>2026-03-28T17:54:10.852Z</time></trkpt><trkpt lat="42.4181431" lon="-8.5733422"><ele>245.33333333333331</ele><time>2026-03-28T17:54:13.854Z</time></trkpt><trkpt lat="42.4182061" lon="-8.5733718"><ele>241.66666666666666</ele><time>2026-03-28T17:54:15.857Z</time></trkpt><trkpt lat="42.4183055" lon="-8.5733682"><ele>238.0</ele><time>2026-03-28T17:54:18.849Z</time></trkpt><trkpt lat="42.4183583" lon="-8.5733146"><ele>238.0</ele><time>2026-03-28T17:54:21.857Z</time></trkpt><trkpt lat="42.4184208" lon="-8.5733016"><ele>238.0</ele><time>2026-03-28T17:54:26.857Z</time></trkpt><trkpt lat="42.4184575" lon="-8.5733857"><ele>238.0</ele><time>2026-03-28T17:54:28.854Z</time></trkpt><trkpt lat="42.4184812" lon="-8.5734653"><ele>238.0</ele><time>2026-03-28T17:54:30.85Z</time></trkpt><trkpt lat="42.4184942" lon="-8.5735667"><ele>238.0</ele><time>2026-03-28T17:54:35.85Z</time></trkpt><trkpt lat="42.4184862" lon="-8.5736796"><ele>238.0</ele><time>2026-03-28T17:54:46.852Z</time></trkpt><trkpt lat="42.4184841" lon="-8.5737845"><ele>238.0</ele><time>2026-03-28T17:54:48.859Z</time></trkpt><trkpt lat="42.4184898" lon="-8.5738882"><ele>235.83333333333331</ele><time>2026-03-28T17:54:50.858Z</time></trkpt><trkpt lat="42.4185114" lon="-8.5739688"><ele>233.66666666666666</ele><time>2026-03-28T17:54:51.857Z</time></trkpt><trkpt lat="42.4185312" lon="-8.5741266"><ele>231.5</ele><time>2026-03-28T17:54:53.866Z</time></trkpt><trkpt lat="42.4185489" lon="-8.5742106"><ele>229.33333333333331</ele><time>2026-03-28T17:54:54.861Z</time></trkpt><trkpt lat="42.4185429" lon="-8.5743"><ele>227.16666666666666</ele><time>2026-03-28T17:54:55.863Z</time></trkpt><trkpt lat="42.4185385" lon="-8.5744181"><ele>225.0</ele><time>2026-03-28T17:54:56.855Z</time></trkpt><trkpt lat="42.4184825" lon="-8.5745532"><ele>223.5</ele><time>2026-03-28T17:54:58.87Z</time></trkpt><trkpt lat="42.4183813" lon="-8.5746567"><ele>222.0</ele><time>2026-03-28T17:55:00.858Z</time></trkpt><trkpt lat="42.4183129" lon="-8.5746954"><ele>220.5</ele><time>2026-03-28T17:55:01.857Z</time></trkpt><trkpt lat="42.4182393" lon="-8.5747275"><ele>219.0</ele><time>2026-03-28T17:55:02.85Z</time></trkpt><trkpt lat="42.4181652" lon="-8.5747573"><ele>217.5</ele><time>2026-03-28T17:55:03.857Z</time></trkpt><trkpt lat="42.4180985" lon="-8.574784"><ele>216.0</ele><time>2026-03-28T17:55:04.859Z</time></trkpt><trkpt lat="42.4180279" lon="-8.574853"><ele>216.0</ele><time>2026-03-28T17:55:06.861Z</time></trkpt><trkpt lat="42.4180785" lon="-8.5749467"><ele>216.0</ele><time>2026-03-28T17:55:08.851Z</time></trkpt><trkpt lat="42.4181579" lon="-8.5750172"><ele>216.0</ele><time>2026-03-28T17:55:10.864Z</time></trkpt><trkpt lat="42.418211" lon="-8.5750642"><ele>216.0</ele><time>2026-03-28T17:55:12.852Z</time></trkpt><trkpt lat="42.4182774" lon="-8.575104"><ele>216.0</ele><time>2026-03-28T17:55:15.853Z</time></trkpt><trkpt lat="42.418329" lon="-8.5751616"><ele>216.0</ele><time>2026-03-28T17:55:17.859Z</time></trkpt><trkpt lat="42.4183888" lon="-8.5752107"><ele>216.0</ele><time>2026-03-28T17:55:31.854Z</time></trkpt><trkpt lat="42.4184544" lon="-8.5752524"><ele>216.0</ele><time>2026-03-28T17:55:33.859Z</time></trkpt><trkpt lat="42.4185255" lon="-8.5753151"><ele>216.0</ele><time>2026-03-28T17:55:35.85Z</time></trkpt><trkpt lat="42.418516" lon="-8.5754356"><ele>216.0</ele><time>2026-03-28T17:55:41.85Z</time></trkpt><trkpt lat="42.4184849" lon="-8.575538"><ele>216.0</ele><time>2026-03-28T17:55:43.852Z</time></trkpt><trkpt lat="42.4184378" lon="-8.5756602"><ele>216.0</ele><time>2026-03-28T17:55:45.861Z</time></trkpt><trkpt lat="42.4184034" lon="-8.5758125"><ele>215.0</ele><time>2026-03-28T17:55:47.852Z</time></trkpt><trkpt lat="42.4183831" lon="-8.575895"><ele>214.0</ele><time>2026-03-28T17:55:48.858Z</time></trkpt><trkpt lat="42.4183497" lon="-8.5759888"><ele>213.0</ele><time>2026-03-28T17:55:49.851Z</time></trkpt><trkpt lat="42.4183105" lon="-8.5760828"><ele>212.0</ele><time>2026-03-28T17:55:50.848Z</time></trkpt><trkpt lat="42.4182742" lon="-8.5761775"><ele>211.0</ele><time>2026-03-28T17:55:51.857Z</time></trkpt><trkpt lat="42.4182299" lon="-8.5762465"><ele>210.0</ele><time>2026-03-28T17:55:52.856Z</time></trkpt><trkpt lat="42.4181782" lon="-8.5763019"><ele>209.0</ele><time>2026-03-28T17:55:53.851Z</time></trkpt><trkpt lat="42.4181209" lon="-8.5764468"><ele>206.0</ele><time>2026-03-28T17:55:55.861Z</time></trkpt><trkpt lat="42.4182091" lon="-8.5765625"><ele>203.0</ele><time>2026-03-28T17:55:57.849Z</time></trkpt><trkpt lat="42.4182769" lon="-8.5766367"><ele>200.0</ele><time>2026-03-28T17:55:58.868Z</time></trkpt><trkpt lat="42.4183465" lon="-8.5767245"><ele>197.0</ele><time>2026-03-28T17:55:59.853Z</time></trkpt><trkpt lat="42.4184165" lon="-8.5767984"><ele>194.0</ele><time>2026-03-28T17:56:00.853Z</time></trkpt><trkpt lat="42.4184854" lon="-8.5768472"><ele>194.0</ele><time>2026-03-28T17:56:01.857Z</time></trkpt><trkpt lat="42.418566" lon="-8.5769316"><ele>194.0</ele><time>2026-03-28T17:56:03.855Z</time></trkpt><trkpt lat="42.4185635" lon="-8.5770389"><ele>194.0</ele><time>2026-03-28T17:56:07.852Z</time></trkpt><trkpt lat="42.4184013" lon="-8.577051"><ele>194.0</ele><time>2026-03-28T17:56:09.852Z</time></trkpt><trkpt lat="42.4182832" lon="-8.5770545"><ele>189.75</ele><time>2026-03-28T17:56:10.849Z</time></trkpt><trkpt lat="42.4181617" lon="-8.5770743"><ele>185.5</ele><time>2026-03-28T17:56:11.853Z</time></trkpt><trkpt lat="42.418033" lon="-8.5770901"><ele>181.25</ele><time>2026-03-28T17:56:12.856Z</time></trkpt><trkpt lat="42.4179011" lon="-8.577106"><ele>177.0</ele><time>2026-03-28T17:56:13.849Z</time></trkpt><trkpt lat="42.4177736" lon="-8.5771224"><ele>177.0</ele><time>2026-03-28T17:56:14.865Z</time></trkpt><trkpt lat="42.417654" lon="-8.5771323"><ele>177.0</ele><time>2026-03-28T17:56:15.85Z</time></trkpt><trkpt lat="42.4175366" lon="-8.5771557"><ele>177.0</ele><time>2026-03-28T17:56:16.86Z</time></trkpt><trkpt lat="42.417434" lon="-8.5772094"><ele>177.0</ele><time>2026-03-28T17:56:17.852Z</time></trkpt><trkpt lat="42.4173376" lon="-8.5772819"><ele>177.0</ele><time>2026-03-28T17:56:18.853Z</time></trkpt><trkpt lat="42.4172443" lon="-8.5773752"><ele>177.0</ele><time>2026-03-28T17:56:19.857Z</time></trkpt><trkpt lat="42.4171533" lon="-8.5774706"><ele>177.0</ele><time>2026-03-28T17:56:20.848Z</time></trkpt><trkpt lat="42.4170676" lon="-8.5775492"><ele>177.0</ele><time>2026-03-28T17:56:21.849Z</time></trkpt><trkpt lat="42.4169905" lon="-8.5776292"><ele>177.0</ele><time>2026-03-28T17:56:22.856Z</time></trkpt><trkpt lat="42.4169275" lon="-8.5777189"><ele>177.66666666666666</ele><time>2026-03-28T17:56:23.855Z</time></trkpt><trkpt lat="42.4168877" lon="-8.577813"><ele>178.33333333333334</ele><time>2026-03-28T17:56:24.86Z</time></trkpt><trkpt lat="42.4168772" lon="-8.5778989"><ele>179.0</ele><time>2026-03-28T17:56:25.85Z</time></trkpt><trkpt lat="42.4169191" lon="-8.5780409"><ele>179.66666666666669</ele><time>2026-03-28T17:56:27.852Z</time></trkpt><trkpt lat="42.4170114" lon="-8.578134"><ele>180.33333333333334</ele><time>2026-03-28T17:56:29.85Z</time></trkpt><trkpt lat="42.4170797" lon="-8.5781296"><ele>181.0</ele><time>2026-03-28T17:56:30.858Z</time></trkpt><trkpt lat="42.4171932" lon="-8.5780913"><ele>181.0</ele><time>2026-03-28T17:56:31.856Z</time></trkpt><trkpt lat="42.4172929" lon="-8.5780419"><ele>181.0</ele><time>2026-03-28T17:56:32.868Z</time></trkpt><trkpt lat="42.4173878" lon="-8.5780226"><ele>181.0</ele><time>2026-03-28T17:56:33.868Z</time></trkpt><trkpt lat="42.417495" lon="-8.5780212"><ele>181.0</ele><time>2026-03-28T17:56:34.856Z</time></trkpt><trkpt lat="42.4176036" lon="-8.5780865"><ele>181.0</ele><time>2026-03-28T17:56:35.853Z</time></trkpt><trkpt lat="42.4177002" lon="-8.578177"><ele>181.0</ele><time>2026-03-28T17:56:36.856Z</time></trkpt><trkpt lat="42.4177965" lon="-8.578263"><ele>181.0</ele><time>2026-03-28T17:56:37.853Z</time></trkpt><trkpt lat="42.4178923" lon="-8.5783365"><ele>181.0</ele><time>2026-03-28T17:56:38.851Z</time></trkpt><trkpt lat="42.4179882" lon="-8.5784065"><ele>181.0</ele><time>2026-03-28T17:56:39.849Z</time></trkpt><trkpt lat="42.4180822" lon="-8.5784736"><ele>181.0</ele><time>2026-03-28T17:56:40.855Z</time></trkpt><trkpt lat="42.4181758" lon="-8.5785439"><ele>181.20000000000002</ele><time>2026-03-28T17:56:41.853Z</time></trkpt><trkpt lat="42.4182732" lon="-8.5786116"><ele>181.4</ele><time>2026-03-28T17:56:42.857Z</time></trkpt><trkpt lat="42.4183681" lon="-8.5786798"><ele>181.6</ele><time>2026-03-28T17:56:43.854Z</time></trkpt><trkpt lat="42.4184599" lon="-8.5787571"><ele>181.8</ele><time>2026-03-28T17:56:44.855Z</time></trkpt><trkpt lat="42.4185518" lon="-8.5788384"><ele>182.0</ele><time>2026-03-28T17:56:45.853Z</time></trkpt><trkpt lat="42.4186372" lon="-8.5789131"><ele>182.0</ele><time>2026-03-28T17:56:46.851Z</time></trkpt><trkpt lat="42.4187197" lon="-8.5789837"><ele>182.0</ele><time>2026-03-28T17:56:47.857Z</time></trkpt><trkpt lat="42.4188021" lon="-8.5790571"><ele>182.0</ele><time>2026-03-28T17:56:48.853Z</time></trkpt><trkpt lat="42.4188616" lon="-8.57917"><ele>182.0</ele><time>2026-03-28T17:56:49.863Z</time></trkpt><trkpt lat="42.418904" lon="-8.5793106"><ele>182.0</ele><time>2026-03-28T17:56:50.86Z</time></trkpt><trkpt lat="42.4189466" lon="-8.5794618"><ele>179.75</ele><time>2026-03-28T17:56:51.854Z</time></trkpt><trkpt lat="42.4189896" lon="-8.5796229"><ele>177.5</ele><time>2026-03-28T17:56:52.85Z</time></trkpt><trkpt lat="42.4190404" lon="-8.5797829"><ele>175.25</ele><time>2026-03-28T17:56:53.851Z</time></trkpt><trkpt lat="42.4190918" lon="-8.5799231"><ele>173.0</ele><time>2026-03-28T17:56:54.861Z</time></trkpt><trkpt lat="42.4191368" lon="-8.5800554"><ele>173.0</ele><time>2026-03-28T17:56:55.858Z</time></trkpt><trkpt lat="42.4192042" lon="-8.5801917"><ele>173.0</ele><time>2026-03-28T17:56:56.848Z</time></trkpt><trkpt lat="42.4192719" lon="-8.5803259"><ele>173.0</ele><time>2026-03-28T17:56:57.857Z</time></trkpt><trkpt lat="42.4193578" lon="-8.580438"><ele>173.0</ele><time>2026-03-28T17:56:58.853Z</time></trkpt><trkpt lat="42.4194568" lon="-8.5805186"><ele>173.4</ele><time>2026-03-28T17:56:59.853Z</time></trkpt><trkpt lat="42.4195554" lon="-8.5805783"><ele>173.8</ele><time>2026-03-28T17:57:00.857Z</time></trkpt><trkpt lat="42.4196455" lon="-8.5806423"><ele>174.2</ele><time>2026-03-28T17:57:01.854Z</time></trkpt><trkpt lat="42.4197311" lon="-8.5806955"><ele>174.6</ele><time>2026-03-28T17:57:02.858Z</time></trkpt><trkpt lat="42.4198125" lon="-8.5807459"><ele>175.0</ele><time>2026-03-28T17:57:03.852Z</time></trkpt><trkpt lat="42.4198893" lon="-8.5808068"><ele>175.0</ele><time>2026-03-28T17:57:04.853Z</time></trkpt><trkpt lat="42.4199622" lon="-8.5808808"><ele>175.0</ele><time>2026-03-28T17:57:05.853Z</time></trkpt><trkpt lat="42.4200316" lon="-8.5809832"><ele>175.0</ele><time>2026-03-28T17:57:06.853Z</time></trkpt><trkpt lat="42.4201143" lon="-8.5810932"><ele>175.0</ele><time>2026-03-28T17:57:07.849Z</time></trkpt><trkpt lat="42.4201907" lon="-8.5812137"><ele>175.0</ele><time>2026-03-28T17:57:08.854Z</time></trkpt><trkpt lat="42.4202593" lon="-8.581324"><ele>174.2</ele><time>2026-03-28T17:57:09.86Z</time></trkpt><trkpt lat="42.4203199" lon="-8.5814359"><ele>173.4</ele><time>2026-03-28T17:57:10.85Z</time></trkpt><trkpt lat="42.4203768" lon="-8.581552"><ele>172.60000000000002</ele><time>2026-03-28T17:57:11.857Z</time></trkpt><trkpt lat="42.4204352" lon="-8.5816596"><ele>171.8</ele><time>2026-03-28T17:57:12.863Z</time></trkpt><trkpt lat="42.4204945" lon="-8.5817624"><ele>171.0</ele><time>2026-03-28T17:57:13.854Z</time></trkpt><trkpt lat="42.4205541" lon="-8.5818692"><ele>171.0</ele><time>2026-03-28T17:57:14.853Z</time></trkpt><trkpt lat="42.4206175" lon="-8.581974"><ele>171.0</ele><time>2026-03-28T17:57:15.85Z</time></trkpt><trkpt lat="42.420683" lon="-8.5820738"><ele>171.0</ele><time>2026-03-28T17:57:16.854Z</time></trkpt><trkpt lat="42.4207465" lon="-8.5821749"><ele>171.0</ele><time>2026-03-28T17:57:17.852Z</time></trkpt><trkpt lat="42.4208015" lon="-8.582288"><ele>171.0</ele><time>2026-03-28T17:57:18.856Z</time></trkpt><trkpt lat="42.4208521" lon="-8.5824095"><ele>174.20000000000002</ele><time>2026-03-28T17:57:19.864Z</time></trkpt><trkpt lat="42.4208961" lon="-8.582535"><ele>177.4</ele><time>2026-03-28T17:57:20.852Z</time></trkpt><trkpt lat="42.420938" lon="-8.5826555"><ele>180.6</ele><time>2026-03-28T17:57:21.85Z</time></trkpt><trkpt lat="42.4209786" lon="-8.5827775"><ele>183.8</ele><time>2026-03-28T17:57:22.856Z</time></trkpt><trkpt lat="42.4210219" lon="-8.5829002"><ele>187.0</ele><time>2026-03-28T17:57:23.856Z</time></trkpt><trkpt lat="42.4210758" lon="-8.583022"><ele>185.6</ele><time>2026-03-28T17:57:24.852Z</time></trkpt><trkpt lat="42.4211267" lon="-8.583134"><ele>184.2</ele><time>2026-03-28T17:57:25.849Z</time></trkpt><trkpt lat="42.4211822" lon="-8.5832406"><ele>182.8</ele><time>2026-03-28T17:57:26.856Z</time></trkpt><trkpt lat="42.4212463" lon="-8.5833557"><ele>181.4</ele><time>2026-03-28T17:57:27.851Z</time></trkpt><trkpt lat="42.4213149" lon="-8.5834647"><ele>180.0</ele><time>2026-03-28T17:57:28.853Z</time></trkpt><trkpt lat="42.4213893" lon="-8.5835612"><ele>180.0</ele><time>2026-03-28T17:57:29.849Z</time></trkpt><trkpt lat="42.4214725" lon="-8.5836538"><ele>180.0</ele><time>2026-03-28T17:57:30.851Z</time></trkpt><trkpt lat="42.4215589" lon="-8.5837406"><ele>180.0</ele><time>2026-03-28T17:57:31.853Z</time></trkpt><trkpt lat="42.4216528" lon="-8.5838233"><ele>180.0</ele><time>2026-03-28T17:57:32.855Z</time></trkpt><trkpt lat="42.4217457" lon="-8.5838921"><ele>180.0</ele><time>2026-03-28T17:57:33.852Z</time></trkpt><trkpt lat="42.4218364" lon="-8.5839587"><ele>180.8</ele><time>2026-03-28T17:57:34.856Z</time></trkpt><trkpt lat="42.4219223" lon="-8.5840307"><ele>181.6</ele><time>2026-03-28T17:57:35.856Z</time></trkpt><trkpt lat="42.4220025" lon="-8.5841129"><ele>182.39999999999998</ele><time>2026-03-28T17:57:36.85Z</time></trkpt><trkpt lat="42.4220855" lon="-8.584204"><ele>183.2</ele><time>2026-03-28T17:57:37.847Z</time></trkpt><trkpt lat="42.4221683" lon="-8.5842913"><ele>184.0</ele><time>2026-03-28T17:57:38.855Z</time></trkpt><trkpt lat="42.4222532" lon="-8.5843831"><ele>184.0</ele><time>2026-03-28T17:57:39.866Z</time></trkpt><trkpt lat="42.4223287" lon="-8.5844841"><ele>184.0</ele><time>2026-03-28T17:57:40.855Z</time></trkpt><trkpt lat="42.4223959" lon="-8.5845902"><ele>184.0</ele><time>2026-03-28T17:57:41.853Z</time></trkpt><trkpt lat="42.4224576" lon="-8.5847054"><ele>184.0</ele><time>2026-03-28T17:57:42.868Z</time></trkpt><trkpt lat="42.4225112" lon="-8.5848222"><ele>184.0</ele><time>2026-03-28T17:57:43.853Z</time></trkpt><trkpt lat="42.4225601" lon="-8.5849467"><ele>185.25</ele><time>2026-03-28T17:57:44.854Z</time></trkpt><trkpt lat="42.4226038" lon="-8.5850816"><ele>186.5</ele><time>2026-03-28T17:57:45.87Z</time></trkpt><trkpt lat="42.4226489" lon="-8.585222"><ele>187.75</ele><time>2026-03-28T17:57:46.848Z</time></trkpt><trkpt lat="42.4226992" lon="-8.5853602"><ele>189.0</ele><time>2026-03-28T17:57:47.853Z</time></trkpt><trkpt lat="42.4227506" lon="-8.5855027"><ele>189.75</ele><time>2026-03-28T17:57:48.866Z</time></trkpt><trkpt lat="42.4228035" lon="-8.5856547"><ele>190.5</ele><time>2026-03-28T17:57:49.85Z</time></trkpt><trkpt lat="42.4228595" lon="-8.5858096"><ele>191.25</ele><time>2026-03-28T17:57:50.85Z</time></trkpt><trkpt lat="42.4229179" lon="-8.5859476"><ele>192.0</ele><time>2026-03-28T17:57:51.863Z</time></trkpt><trkpt lat="42.4229789" lon="-8.586079"><ele>192.6</ele><time>2026-03-28T17:57:52.853Z</time></trkpt><trkpt lat="42.4230251" lon="-8.586212"><ele>193.2</ele><time>2026-03-28T17:57:53.853Z</time></trkpt><trkpt lat="42.4230632" lon="-8.5863482"><ele>193.8</ele><time>2026-03-28T17:57:54.853Z</time></trkpt><trkpt lat="42.4230933" lon="-8.5864844"><ele>194.4</ele><time>2026-03-28T17:57:55.858Z</time></trkpt><trkpt lat="42.4231125" lon="-8.5866184"><ele>195.0</ele><time>2026-03-28T17:57:56.854Z</time></trkpt><trkpt lat="42.4230981" lon="-8.5867565"><ele>195.0</ele><time>2026-03-28T17:57:57.856Z</time></trkpt><trkpt lat="42.4230735" lon="-8.5868858"><ele>195.0</ele><time>2026-03-28T17:57:58.86Z</time></trkpt><trkpt lat="42.4230249" lon="-8.58701"><ele>195.0</ele><time>2026-03-28T17:57:59.852Z</time></trkpt><trkpt lat="42.4229618" lon="-8.5871186"><ele>195.0</ele><time>2026-03-28T17:58:00.864Z</time></trkpt><trkpt lat="42.4228785" lon="-8.5872311"><ele>195.0</ele><time>2026-03-28T17:58:01.859Z</time></trkpt><trkpt lat="42.4227937" lon="-8.587339"><ele>194.2</ele><time>2026-03-28T17:58:02.853Z</time></trkpt><trkpt lat="42.4227144" lon="-8.5874451"><ele>193.4</ele><time>2026-03-28T17:58:03.872Z</time></trkpt><trkpt lat="42.4226369" lon="-8.5875469"><ele>192.60000000000002</ele><time>2026-03-28T17:58:04.852Z</time></trkpt><trkpt lat="42.4225527" lon="-8.5876467"><ele>191.8</ele><time>2026-03-28T17:58:05.851Z</time></trkpt><trkpt lat="42.4224649" lon="-8.587739"><ele>191.0</ele><time>2026-03-28T17:58:06.85Z</time></trkpt><trkpt lat="42.4223692" lon="-8.5878249"><ele>191.25</ele><time>2026-03-28T17:58:07.861Z</time></trkpt><trkpt lat="42.4222707" lon="-8.5879091"><ele>191.5</ele><time>2026-03-28T17:58:08.853Z</time></trkpt><trkpt lat="42.4221641" lon="-8.5879962"><ele>191.75</ele><time>2026-03-28T17:58:09.86Z</time></trkpt><trkpt lat="42.4220611" lon="-8.5880833"><ele>192.0</ele><time>2026-03-28T17:58:10.862Z</time></trkpt><trkpt lat="42.4219638" lon="-8.5881689"><ele>192.2</ele><time>2026-03-28T17:58:11.851Z</time></trkpt><trkpt lat="42.4218624" lon="-8.5882471"><ele>192.39999999999998</ele><time>2026-03-28T17:58:12.852Z</time></trkpt><trkpt lat="42.4217658" lon="-8.5883379"><ele>192.60000000000002</ele><time>2026-03-28T17:58:13.858Z</time></trkpt><trkpt lat="42.4216826" lon="-8.5884304"><ele>192.8</ele><time>2026-03-28T17:58:14.859Z</time></trkpt><trkpt lat="42.4216145" lon="-8.5885229"><ele>193.0</ele><time>2026-03-28T17:58:15.861Z</time></trkpt><trkpt lat="42.4215599" lon="-8.5886193"><ele>193.60000000000002</ele><time>2026-03-28T17:58:16.863Z</time></trkpt><trkpt lat="42.4215035" lon="-8.5886992"><ele>194.20000000000002</ele><time>2026-03-28T17:58:17.862Z</time></trkpt><trkpt lat="42.4214391" lon="-8.5887464"><ele>194.8</ele><time>2026-03-28T17:58:18.853Z</time></trkpt><trkpt lat="42.421334" lon="-8.5888167"><ele>195.4</ele><time>2026-03-28T17:58:20.848Z</time></trkpt><trkpt lat="42.4212432" lon="-8.5889494"><ele>196.0</ele><time>2026-03-28T17:58:22.855Z</time></trkpt><trkpt lat="42.4212143" lon="-8.5890454"><ele>196.0</ele><time>2026-03-28T17:58:23.852Z</time></trkpt><trkpt lat="42.4211863" lon="-8.5891532"><ele>196.0</ele><time>2026-03-28T17:58:24.859Z</time></trkpt><trkpt lat="42.4211365" lon="-8.5892608"><ele>196.0</ele><time>2026-03-28T17:58:25.85Z</time></trkpt><trkpt lat="42.4210688" lon="-8.5893724"><ele>196.0</ele><time>2026-03-28T17:58:26.86Z</time></trkpt><trkpt lat="42.4209914" lon="-8.589474"><ele>196.0</ele><time>2026-03-28T17:58:27.857Z</time></trkpt><trkpt lat="42.4209088" lon="-8.5895666"><ele>194.33333333333331</ele><time>2026-03-28T17:58:28.857Z</time></trkpt><trkpt lat="42.4208537" lon="-8.5896571"><ele>192.66666666666666</ele><time>2026-03-28T17:58:29.866Z</time></trkpt><trkpt lat="42.4208118" lon="-8.5897535"><ele>191.0</ele><time>2026-03-28T17:58:30.863Z</time></trkpt><trkpt lat="42.4207816" lon="-8.5898582"><ele>189.33333333333331</ele><time>2026-03-28T17:58:31.855Z</time></trkpt><trkpt lat="42.4207364" lon="-8.5899571"><ele>187.66666666666666</ele><time>2026-03-28T17:58:32.857Z</time></trkpt><trkpt lat="42.4206918" lon="-8.5900611"><ele>186.0</ele><time>2026-03-28T17:58:33.851Z</time></trkpt><trkpt lat="42.4206351" lon="-8.5901734"><ele>186.0</ele><time>2026-03-28T17:58:34.848Z</time></trkpt><trkpt lat="42.4205692" lon="-8.5902953"><ele>186.0</ele><time>2026-03-28T17:58:35.856Z</time></trkpt><trkpt lat="42.4205077" lon="-8.5904092"><ele>186.0</ele><time>2026-03-28T17:58:36.859Z</time></trkpt><trkpt lat="42.4204546" lon="-8.5905106"><ele>186.0</ele><time>2026-03-28T17:58:37.854Z</time></trkpt><trkpt lat="42.4204211" lon="-8.5905972"><ele>186.0</ele><time>2026-03-28T17:58:38.853Z</time></trkpt><trkpt lat="42.4203832" lon="-8.5907556"><ele>187.16666666666666</ele><time>2026-03-28T17:58:40.85Z</time></trkpt><trkpt lat="42.4203863" lon="-8.5908544"><ele>188.33333333333331</ele><time>2026-03-28T17:58:41.86Z</time></trkpt><trkpt lat="42.4203962" lon="-8.5909447"><ele>189.5</ele><time>2026-03-28T17:58:42.854Z</time></trkpt><trkpt lat="42.4203997" lon="-8.5910468"><ele>190.66666666666666</ele><time>2026-03-28T17:58:43.857Z</time></trkpt><trkpt lat="42.4203818" lon="-8.5911617"><ele>191.83333333333331</ele><time>2026-03-28T17:58:44.861Z</time></trkpt><trkpt lat="42.4203693" lon="-8.591277"><ele>193.0</ele><time>2026-03-28T17:58:45.85Z</time></trkpt><trkpt lat="42.4203604" lon="-8.5913764"><ele>192.99999999999997</ele><time>2026-03-28T17:58:46.852Z</time></trkpt><trkpt lat="42.4203629" lon="-8.5914728"><ele>193.0</ele><time>2026-03-28T17:58:47.847Z</time></trkpt><trkpt lat="42.4203778" lon="-8.5915658"><ele>193.0</ele><time>2026-03-28T17:58:48.859Z</time></trkpt><trkpt lat="42.4203968" lon="-8.5916957"><ele>193.0</ele><time>2026-03-28T17:58:50.858Z</time></trkpt><trkpt lat="42.4203894" lon="-8.5918175"><ele>192.99999999999997</ele><time>2026-03-28T17:58:53.852Z</time></trkpt><trkpt lat="42.4204087" lon="-8.5919052"><ele>193.0</ele><time>2026-03-28T17:58:55.849Z</time></trkpt><trkpt lat="42.4203757" lon="-8.5920242"><ele>190.99999999999997</ele><time>2026-03-28T17:58:57.85Z</time></trkpt><trkpt lat="42.4203472" lon="-8.5921181"><ele>189.0</ele><time>2026-03-28T17:58:59.855Z</time></trkpt><trkpt lat="42.4203334" lon="-8.5922119"><ele>187.0</ele><time>2026-03-28T17:59:01.859Z</time></trkpt><trkpt lat="42.4203488" lon="-8.592345"><ele>185.0</ele><time>2026-03-28T17:59:12.849Z</time></trkpt><trkpt lat="42.4203588" lon="-8.5924448"><ele>183.0</ele><time>2026-03-28T17:59:13.852Z</time></trkpt><trkpt lat="42.4203656" lon="-8.5925485"><ele>181.0</ele><time>2026-03-28T17:59:14.858Z</time></trkpt><trkpt lat="42.4203329" lon="-8.5926385"><ele>181.0</ele><time>2026-03-28T17:59:15.855Z</time></trkpt><trkpt lat="42.4202877" lon="-8.5927175"><ele>181.0</ele><time>2026-03-28T17:59:16.851Z</time></trkpt><trkpt lat="42.4202417" lon="-8.5927962"><ele>181.0</ele><time>2026-03-28T17:59:17.85Z</time></trkpt><trkpt lat="42.4201725" lon="-8.5929004"><ele>181.0</ele><time>2026-03-28T17:59:18.852Z</time></trkpt><trkpt lat="42.4201173" lon="-8.5930001"><ele>181.0</ele><time>2026-03-28T17:59:19.849Z</time></trkpt><trkpt lat="42.4200671" lon="-8.5930947"><ele>181.0</ele><time>2026-03-28T17:59:20.861Z</time></trkpt><trkpt lat="42.4200093" lon="-8.5931932"><ele>180.33333333333334</ele><time>2026-03-28T17:59:21.854Z</time></trkpt><trkpt lat="42.4199502" lon="-8.5932976"><ele>179.66666666666669</ele><time>2026-03-28T17:59:22.867Z</time></trkpt><trkpt lat="42.419891" lon="-8.5933931"><ele>179.0</ele><time>2026-03-28T17:59:23.854Z</time></trkpt><trkpt lat="42.4198458" lon="-8.5934914"><ele>178.33333333333334</ele><time>2026-03-28T17:59:24.851Z</time></trkpt><trkpt lat="42.4198076" lon="-8.5935749"><ele>177.66666666666666</ele><time>2026-03-28T17:59:25.853Z</time></trkpt><trkpt lat="42.4197765" lon="-8.5936641"><ele>177.0</ele><time>2026-03-28T17:59:26.85Z</time></trkpt><trkpt lat="42.4197525" lon="-8.5937527"><ele>176.39999999999998</ele><time>2026-03-28T17:59:27.86Z</time></trkpt><trkpt lat="42.4197223" lon="-8.5939216"><ele>175.79999999999998</ele><time>2026-03-28T17:59:29.852Z</time></trkpt><trkpt lat="42.4197171" lon="-8.5940102"><ele>175.2</ele><time>2026-03-28T17:59:30.852Z</time></trkpt><trkpt lat="42.4197048" lon="-8.5941148"><ele>174.6</ele><time>2026-03-28T17:59:31.85Z</time></trkpt><trkpt lat="42.419702" lon="-8.594236"><ele>174.0</ele><time>2026-03-28T17:59:32.859Z</time></trkpt><trkpt lat="42.4196959" lon="-8.5943626"><ele>174.0</ele><time>2026-03-28T17:59:33.854Z</time></trkpt><trkpt lat="42.4196904" lon="-8.5944934"><ele>174.0</ele><time>2026-03-28T17:59:34.849Z</time></trkpt><trkpt lat="42.419688" lon="-8.5946304"><ele>174.0</ele><time>2026-03-28T17:59:35.849Z</time></trkpt><trkpt lat="42.4196909" lon="-8.5947722"><ele>174.0</ele><time>2026-03-28T17:59:36.852Z</time></trkpt><trkpt lat="42.4197068" lon="-8.594914"><ele>174.0</ele><time>2026-03-28T17:59:37.865Z</time></trkpt><trkpt lat="42.4197452" lon="-8.5950351"><ele>173.16666666666666</ele><time>2026-03-28T17:59:38.859Z</time></trkpt><trkpt lat="42.4197893" lon="-8.5951375"><ele>172.33333333333334</ele><time>2026-03-28T17:59:39.858Z</time></trkpt><trkpt lat="42.4198261" lon="-8.5952417"><ele>171.5</ele><time>2026-03-28T17:59:40.852Z</time></trkpt><trkpt lat="42.4198551" lon="-8.5953446"><ele>170.66666666666669</ele><time>2026-03-28T17:59:41.86Z</time></trkpt><trkpt lat="42.4198962" lon="-8.595427"><ele>169.83333333333334</ele><time>2026-03-28T17:59:42.856Z</time></trkpt><trkpt lat="42.4199399" lon="-8.5955043"><ele>169.0</ele><time>2026-03-28T17:59:43.853Z</time></trkpt><trkpt lat="42.4199864" lon="-8.5955722"><ele>169.0</ele><time>2026-03-28T17:59:44.858Z</time></trkpt><trkpt lat="42.4200415" lon="-8.5956213"><ele>169.0</ele><time>2026-03-28T17:59:45.85Z</time></trkpt><trkpt lat="42.4200981" lon="-8.5956785"><ele>169.0</ele><time>2026-03-28T17:59:46.853Z</time></trkpt><trkpt lat="42.4201593" lon="-8.595724"><ele>169.0</ele><time>2026-03-28T17:59:47.85Z</time></trkpt><trkpt lat="42.4202271" lon="-8.5957531"><ele>169.0</ele><time>2026-03-28T17:59:48.858Z</time></trkpt><trkpt lat="42.42029" lon="-8.5957766"><ele>169.0</ele><time>2026-03-28T17:59:49.858Z</time></trkpt><trkpt lat="42.4204091" lon="-8.5958144"><ele>169.0</ele><time>2026-03-28T17:59:51.853Z</time></trkpt><trkpt lat="42.4204758" lon="-8.5958522"><ele>169.0</ele><time>2026-03-28T17:59:52.856Z</time></trkpt><trkpt lat="42.4205245" lon="-8.5959127"><ele>169.0</ele><time>2026-03-28T17:59:53.856Z</time></trkpt><trkpt lat="42.4205743" lon="-8.5959952"><ele>169.0</ele><time>2026-03-28T17:59:54.856Z</time></trkpt><trkpt lat="42.4206305" lon="-8.5961228"><ele>169.0</ele><time>2026-03-28T17:59:55.853Z</time></trkpt><trkpt lat="42.4206699" lon="-8.5962627"><ele>169.0</ele><time>2026-03-28T17:59:56.847Z</time></trkpt><trkpt lat="42.4207231" lon="-8.5963833"><ele>167.5</ele><time>2026-03-28T17:59:57.86Z</time></trkpt><trkpt lat="42.4207764" lon="-8.5964946"><ele>166.0</ele><time>2026-03-28T17:59:58.852Z</time></trkpt><trkpt lat="42.4208233" lon="-8.596597"><ele>164.5</ele><time>2026-03-28T17:59:59.85Z</time></trkpt><trkpt lat="42.4208604" lon="-8.5967064"><ele>163.0</ele><time>2026-03-28T18:00:00.847Z</time></trkpt><trkpt lat="42.4208863" lon="-8.5968122"><ele>161.5</ele><time>2026-03-28T18:00:01.853Z</time></trkpt><trkpt lat="42.420909" lon="-8.5969158"><ele>160.0</ele><time>2026-03-28T18:00:02.856Z</time></trkpt><trkpt lat="42.4209236" lon="-8.597024"><ele>160.0</ele><time>2026-03-28T18:00:03.848Z</time></trkpt><trkpt lat="42.42094" lon="-8.5971401"><ele>160.0</ele><time>2026-03-28T18:00:04.861Z</time></trkpt><trkpt lat="42.4209567" lon="-8.5972615"><ele>160.0</ele><time>2026-03-28T18:00:05.85Z</time></trkpt><trkpt lat="42.4209679" lon="-8.597376"><ele>160.0</ele><time>2026-03-28T18:00:06.853Z</time></trkpt><trkpt lat="42.4209791" lon="-8.5974918"><ele>160.0</ele><time>2026-03-28T18:00:07.853Z</time></trkpt><trkpt lat="42.4209903" lon="-8.5976089"><ele>160.0</ele><time>2026-03-28T18:00:08.852Z</time></trkpt><trkpt lat="42.4209961" lon="-8.5977324"><ele>160.33333333333334</ele><time>2026-03-28T18:00:09.851Z</time></trkpt><trkpt lat="42.4210055" lon="-8.5978544"><ele>160.66666666666669</ele><time>2026-03-28T18:00:10.853Z</time></trkpt><trkpt lat="42.4210223" lon="-8.597976"><ele>161.0</ele><time>2026-03-28T18:00:11.85Z</time></trkpt><trkpt lat="42.4210478" lon="-8.5980913"><ele>161.33333333333334</ele><time>2026-03-28T18:00:12.86Z</time></trkpt><trkpt lat="42.4210774" lon="-8.5982016"><ele>161.66666666666666</ele><time>2026-03-28T18:00:13.853Z</time></trkpt><trkpt lat="42.4211204" lon="-8.5982989"><ele>162.0</ele><time>2026-03-28T18:00:14.857Z</time></trkpt><trkpt lat="42.4211658" lon="-8.598383"><ele>162.0</ele><time>2026-03-28T18:00:15.855Z</time></trkpt><trkpt lat="42.4212064" lon="-8.5984746"><ele>162.0</ele><time>2026-03-28T18:00:16.87Z</time></trkpt><trkpt lat="42.4212366" lon="-8.5985768"><ele>162.0</ele><time>2026-03-28T18:00:17.851Z</time></trkpt><trkpt lat="42.4212541" lon="-8.5986849"><ele>162.0</ele><time>2026-03-28T18:00:18.859Z</time></trkpt><trkpt lat="42.4212604" lon="-8.5988006"><ele>162.0</ele><time>2026-03-28T18:00:19.863Z</time></trkpt><trkpt lat="42.4212618" lon="-8.598914"><ele>162.0</ele><time>2026-03-28T18:00:20.85Z</time></trkpt><trkpt lat="42.4212501" lon="-8.5990191"><ele>161.83333333333334</ele><time>2026-03-28T18:00:21.851Z</time></trkpt><trkpt lat="42.4212383" lon="-8.5991309"><ele>161.66666666666666</ele><time>2026-03-28T18:00:22.855Z</time></trkpt><trkpt lat="42.4212241" lon="-8.5992445"><ele>161.5</ele><time>2026-03-28T18:00:23.861Z</time></trkpt><trkpt lat="42.4212106" lon="-8.5993598"><ele>161.33333333333331</ele><time>2026-03-28T18:00:24.853Z</time></trkpt><trkpt lat="42.4211903" lon="-8.5994645"><ele>161.16666666666666</ele><time>2026-03-28T18:00:25.855Z</time></trkpt><trkpt lat="42.4211639" lon="-8.5995567"><ele>161.0</ele><time>2026-03-28T18:00:26.853Z</time></trkpt><trkpt lat="42.4211354" lon="-8.59964"><ele>161.0</ele><time>2026-03-28T18:00:27.858Z</time></trkpt><trkpt lat="42.4211221" lon="-8.5997317"><ele>161.0</ele><time>2026-03-28T18:00:28.859Z</time></trkpt><trkpt lat="42.4211298" lon="-8.5998181"><ele>161.0</ele><time>2026-03-28T18:00:29.849Z</time></trkpt><trkpt lat="42.4211738" lon="-8.599945"><ele>161.0</ele><time>2026-03-28T18:00:31.848Z</time></trkpt><trkpt lat="42.4212539" lon="-8.6000791"><ele>161.0</ele><time>2026-03-28T18:00:33.862Z</time></trkpt><trkpt lat="42.4213036" lon="-8.6001501"><ele>161.0</ele><time>2026-03-28T18:00:34.852Z</time></trkpt><trkpt lat="42.4213496" lon="-8.6002263"><ele>160.66666666666666</ele><time>2026-03-28T18:00:35.855Z</time></trkpt><trkpt lat="42.4213927" lon="-8.6003034"><ele>160.33333333333331</ele><time>2026-03-28T18:00:36.876Z</time></trkpt><trkpt lat="42.4214407" lon="-8.6003702"><ele>160.0</ele><time>2026-03-28T18:00:37.859Z</time></trkpt><trkpt lat="42.4215366" lon="-8.6004879"><ele>159.66666666666666</ele><time>2026-03-28T18:00:39.852Z</time></trkpt><trkpt lat="42.4215804" lon="-8.6005513"><ele>159.33333333333334</ele><time>2026-03-28T18:00:40.849Z</time></trkpt><trkpt lat="42.4216243" lon="-8.6006637"><ele>159.0</ele><time>2026-03-28T18:00:42.869Z</time></trkpt><trkpt lat="42.4216754" lon="-8.6007396"><ele>159.0</ele><time>2026-03-28T18:00:49.855Z</time></trkpt><trkpt lat="42.4217515" lon="-8.6008071"><ele>159.0</ele><time>2026-03-28T18:00:51.858Z</time></trkpt><trkpt lat="42.4218178" lon="-8.6008877"><ele>159.0</ele><time>2026-03-28T18:00:53.85Z</time></trkpt><trkpt lat="42.4218751" lon="-8.6009251"><ele>159.0</ele><time>2026-03-28T18:00:55.859Z</time></trkpt><trkpt lat="42.4219625" lon="-8.600975"><ele>159.0</ele><time>2026-03-28T18:00:57.854Z</time></trkpt><trkpt lat="42.4220266" lon="-8.601029"><ele>159.0</ele><time>2026-03-28T18:00:59.857Z</time></trkpt><trkpt lat="42.4220876" lon="-8.6010517"><ele>159.0</ele><time>2026-03-28T18:01:01.852Z</time></trkpt><trkpt lat="42.4221459" lon="-8.6010937"><ele>159.0</ele><time>2026-03-28T18:01:03.868Z</time></trkpt><trkpt lat="42.4222291" lon="-8.6011437"><ele>159.0</ele><time>2026-03-28T18:01:05.852Z</time></trkpt><trkpt lat="42.422303" lon="-8.6012218"><ele>159.0</ele><time>2026-03-28T18:01:07.863Z</time></trkpt><trkpt lat="42.4224" lon="-8.6013313"><ele>159.0</ele><time>2026-03-28T18:01:09.849Z</time></trkpt><trkpt lat="42.4224592" lon="-8.6013894"><ele>160.33333333333334</ele><time>2026-03-28T18:01:10.853Z</time></trkpt><trkpt lat="42.422518" lon="-8.6014475"><ele>161.66666666666666</ele><time>2026-03-28T18:01:11.853Z</time></trkpt><trkpt lat="42.422582" lon="-8.6014885"><ele>163.0</ele><time>2026-03-28T18:01:12.857Z</time></trkpt><trkpt lat="42.4226544" lon="-8.6015101"><ele>164.33333333333331</ele><time>2026-03-28T18:01:13.849Z</time></trkpt><trkpt lat="42.4227678" lon="-8.6014434"><ele>165.66666666666666</ele><time>2026-03-28T18:01:15.85Z</time></trkpt><trkpt lat="42.4228334" lon="-8.6014352"><ele>167.0</ele><time>2026-03-28T18:01:16.855Z</time></trkpt><trkpt lat="42.4228946" lon="-8.6014683"><ele>167.0</ele><time>2026-03-28T18:01:17.851Z</time></trkpt><trkpt lat="42.4229479" lon="-8.6015188"><ele>167.0</ele><time>2026-03-28T18:01:18.872Z</time></trkpt><trkpt lat="42.4230034" lon="-8.6015724"><ele>167.0</ele><time>2026-03-28T18:01:19.861Z</time></trkpt><trkpt lat="42.4230586" lon="-8.6016229"><ele>167.0</ele><time>2026-03-28T18:01:20.855Z</time></trkpt><trkpt lat="42.4231196" lon="-8.601658"><ele>167.0</ele><time>2026-03-28T18:01:21.853Z</time></trkpt><trkpt lat="42.4231841" lon="-8.6016855"><ele>167.0</ele><time>2026-03-28T18:01:22.851Z</time></trkpt><trkpt lat="42.4232713" lon="-8.6017602"><ele>167.0</ele><time>2026-03-28T18:01:24.856Z</time></trkpt><trkpt lat="42.4232446" lon="-8.6018722"><ele>168.6</ele><time>2026-03-28T18:01:26.857Z</time></trkpt><trkpt lat="42.4232117" lon="-8.6019835"><ele>170.2</ele><time>2026-03-28T18:01:28.851Z</time></trkpt><trkpt lat="42.4231861" lon="-8.6020936"><ele>171.8</ele><time>2026-03-28T18:01:30.853Z</time></trkpt><trkpt lat="42.4231611" lon="-8.6022231"><ele>173.4</ele><time>2026-03-28T18:01:32.858Z</time></trkpt><trkpt lat="42.4231882" lon="-8.602371"><ele>175.0</ele><time>2026-03-28T18:01:34.851Z</time></trkpt><trkpt lat="42.4232151" lon="-8.6024566"><ele>175.66666666666669</ele><time>2026-03-28T18:01:35.853Z</time></trkpt><trkpt lat="42.423239" lon="-8.602543"><ele>176.33333333333334</ele><time>2026-03-28T18:01:36.86Z</time></trkpt><trkpt lat="42.4232554" lon="-8.6026268"><ele>177.0</ele><time>2026-03-28T18:01:37.859Z</time></trkpt><trkpt lat="42.4232998" lon="-8.6027736"><ele>177.66666666666666</ele><time>2026-03-28T18:01:39.853Z</time></trkpt><trkpt lat="42.4233189" lon="-8.6029164"><ele>178.33333333333331</ele><time>2026-03-28T18:01:41.855Z</time></trkpt><trkpt lat="42.4233477" lon="-8.6030065"><ele>179.0</ele><time>2026-03-28T18:01:50.852Z</time></trkpt><trkpt lat="42.4234124" lon="-8.603016"><ele>179.00000000000003</ele><time>2026-03-28T18:01:52.854Z</time></trkpt><trkpt lat="42.4234736" lon="-8.6029894"><ele>179.0</ele><time>2026-03-28T18:01:53.859Z</time></trkpt><trkpt lat="42.4235325" lon="-8.6029491"><ele>179.0</ele><time>2026-03-28T18:01:54.857Z</time></trkpt><trkpt lat="42.4235879" lon="-8.6028858"><ele>179.0</ele><time>2026-03-28T18:01:55.855Z</time></trkpt><trkpt lat="42.4236436" lon="-8.602817"><ele>179.0</ele><time>2026-03-28T18:01:56.851Z</time></trkpt><trkpt lat="42.4237028" lon="-8.6027557"><ele>179.00000000000003</ele><time>2026-03-28T18:01:57.848Z</time></trkpt><trkpt lat="42.4237686" lon="-8.6027036"><ele>179.0</ele><time>2026-03-28T18:01:58.861Z</time></trkpt><trkpt lat="42.4238399" lon="-8.6026599"><ele>181.83333333333331</ele><time>2026-03-28T18:01:59.855Z</time></trkpt><trkpt lat="42.4239093" lon="-8.6026228"><ele>184.66666666666666</ele><time>2026-03-28T18:02:00.853Z</time></trkpt><trkpt lat="42.42398" lon="-8.6026001"><ele>187.5</ele><time>2026-03-28T18:02:01.852Z</time></trkpt><trkpt lat="42.4240538" lon="-8.6026019"><ele>190.33333333333331</ele><time>2026-03-28T18:02:02.852Z</time></trkpt><trkpt lat="42.4241207" lon="-8.6026515"><ele>193.16666666666666</ele><time>2026-03-28T18:02:03.86Z</time></trkpt><trkpt lat="42.4241894" lon="-8.6027106"><ele>196.0</ele><time>2026-03-28T18:02:04.851Z</time></trkpt><trkpt lat="42.424245" lon="-8.6027954"><ele>194.8</ele><time>2026-03-28T18:02:05.85Z</time></trkpt><trkpt lat="42.4242869" lon="-8.6028933"><ele>193.60000000000002</ele><time>2026-03-28T18:02:06.867Z</time></trkpt><trkpt lat="42.4243234" lon="-8.6029844"><ele>192.4</ele><time>2026-03-28T18:02:07.85Z</time></trkpt><trkpt lat="42.4243583" lon="-8.6031385"><ele>191.2</ele><time>2026-03-28T18:02:09.846Z</time></trkpt><trkpt lat="42.424386" lon="-8.6032727"><ele>190.0</ele><time>2026-03-28T18:02:11.858Z</time></trkpt><trkpt lat="42.4244632" lon="-8.6033519"><ele>190.0</ele><time>2026-03-28T18:02:13.851Z</time></trkpt><trkpt lat="42.4245527" lon="-8.6033662"><ele>190.0</ele><time>2026-03-28T18:02:15.85Z</time></trkpt><trkpt lat="42.4246566" lon="-8.6033262"><ele>190.0</ele><time>2026-03-28T18:02:17.855Z</time></trkpt><trkpt lat="42.4247207" lon="-8.6033025"><ele>190.0</ele><time>2026-03-28T18:02:18.857Z</time></trkpt><trkpt lat="42.4248446" lon="-8.6032633"><ele>190.0</ele><time>2026-03-28T18:02:20.851Z</time></trkpt><trkpt lat="42.4249103" lon="-8.6032474"><ele>192.28571428571428</ele><time>2026-03-28T18:02:21.852Z</time></trkpt><trkpt lat="42.4249787" lon="-8.603238"><ele>194.57142857142858</ele><time>2026-03-28T18:02:22.855Z</time></trkpt><trkpt lat="42.4250505" lon="-8.6032304"><ele>196.85714285714283</ele><time>2026-03-28T18:02:23.865Z</time></trkpt><trkpt lat="42.4251142" lon="-8.6032183"><ele>199.14285714285714</ele><time>2026-03-28T18:02:24.853Z</time></trkpt><trkpt lat="42.4251773" lon="-8.603202"><ele>201.42857142857142</ele><time>2026-03-28T18:02:25.854Z</time></trkpt><trkpt lat="42.4252436" lon="-8.6031813"><ele>203.7142857142857</ele><time>2026-03-28T18:02:26.847Z</time></trkpt><trkpt lat="42.4253079" lon="-8.6031602"><ele>206.0</ele><time>2026-03-28T18:02:27.848Z</time></trkpt><trkpt lat="42.4253719" lon="-8.603135"><ele>205.99999999999997</ele><time>2026-03-28T18:02:28.856Z</time></trkpt><trkpt lat="42.4254386" lon="-8.6031144"><ele>206.0</ele><time>2026-03-28T18:02:29.858Z</time></trkpt><trkpt lat="42.4255114" lon="-8.6031028"><ele>206.0</ele><time>2026-03-28T18:02:30.862Z</time></trkpt><trkpt lat="42.425582" lon="-8.6031017"><ele>206.0</ele><time>2026-03-28T18:02:31.861Z</time></trkpt><trkpt lat="42.4256526" lon="-8.6031027"><ele>206.0</ele><time>2026-03-28T18:02:32.854Z</time></trkpt><trkpt lat="42.4257286" lon="-8.6030796"><ele>205.99999999999997</ele><time>2026-03-28T18:02:33.853Z</time></trkpt><trkpt lat="42.4258003" lon="-8.6030461"><ele>206.0</ele><time>2026-03-28T18:02:34.853Z</time></trkpt><trkpt lat="42.4258812" lon="-8.6030105"><ele>208.4</ele><time>2026-03-28T18:02:35.854Z</time></trkpt><trkpt lat="42.4259638" lon="-8.6029779"><ele>210.8</ele><time>2026-03-28T18:02:36.851Z</time></trkpt><trkpt lat="42.4260487" lon="-8.6029428"><ele>213.20000000000002</ele><time>2026-03-28T18:02:37.862Z</time></trkpt><trkpt lat="42.4261411" lon="-8.6029005"><ele>215.60000000000002</ele><time>2026-03-28T18:02:38.855Z</time></trkpt><trkpt lat="42.4262263" lon="-8.6028589"><ele>218.0</ele><time>2026-03-28T18:02:39.859Z</time></trkpt><trkpt lat="42.4263127" lon="-8.602824"><ele>219.2</ele><time>2026-03-28T18:02:40.861Z</time></trkpt><trkpt lat="42.4264014" lon="-8.6027858"><ele>220.4</ele><time>2026-03-28T18:02:41.853Z</time></trkpt><trkpt lat="42.4264927" lon="-8.6027414"><ele>221.59999999999997</ele><time>2026-03-28T18:02:42.853Z</time></trkpt><trkpt lat="42.4265817" lon="-8.6026972"><ele>222.79999999999998</ele><time>2026-03-28T18:02:43.852Z</time></trkpt><trkpt lat="42.4266688" lon="-8.602648"><ele>224.0</ele><time>2026-03-28T18:02:44.849Z</time></trkpt><trkpt lat="42.4267508" lon="-8.6026019"><ele>224.00000000000003</ele><time>2026-03-28T18:02:45.846Z</time></trkpt><trkpt lat="42.4268423" lon="-8.6025566"><ele>224.0</ele><time>2026-03-28T18:02:46.867Z</time></trkpt><trkpt lat="42.4269318" lon="-8.6025183"><ele>224.0</ele><time>2026-03-28T18:02:47.854Z</time></trkpt><trkpt lat="42.4270142" lon="-8.6024854"><ele>224.0</ele><time>2026-03-28T18:02:48.853Z</time></trkpt><trkpt lat="42.4270903" lon="-8.6024466"><ele>224.00000000000003</ele><time>2026-03-28T18:02:49.855Z</time></trkpt><trkpt lat="42.4271708" lon="-8.6024095"><ele>224.0</ele><time>2026-03-28T18:02:50.855Z</time></trkpt><trkpt lat="42.4272526" lon="-8.6023812"><ele>224.33333333333334</ele><time>2026-03-28T18:02:51.849Z</time></trkpt><trkpt lat="42.4273365" lon="-8.6023421"><ele>224.66666666666669</ele><time>2026-03-28T18:02:52.861Z</time></trkpt><trkpt lat="42.4274179" lon="-8.6023073"><ele>225.0</ele><time>2026-03-28T18:02:53.847Z</time></trkpt><trkpt lat="42.4275035" lon="-8.6022665"><ele>225.33333333333331</ele><time>2026-03-28T18:02:54.847Z</time></trkpt><trkpt lat="42.4275903" lon="-8.602219"><ele>225.66666666666666</ele><time>2026-03-28T18:02:55.859Z</time></trkpt><trkpt lat="42.4276716" lon="-8.6021741"><ele>226.0</ele><time>2026-03-28T18:02:56.853Z</time></trkpt><trkpt lat="42.4277463" lon="-8.6021309"><ele>225.99999999999997</ele><time>2026-03-28T18:02:57.856Z</time></trkpt><trkpt lat="42.4278179" lon="-8.6020888"><ele>226.0</ele><time>2026-03-28T18:02:58.855Z</time></trkpt><trkpt lat="42.4278902" lon="-8.6020475"><ele>226.0</ele><time>2026-03-28T18:02:59.854Z</time></trkpt><trkpt lat="42.4279654" lon="-8.6020082"><ele>226.0</ele><time>2026-03-28T18:03:00.853Z</time></trkpt><trkpt lat="42.4280401" lon="-8.6019659"><ele>225.99999999999997</ele><time>2026-03-28T18:03:01.858Z</time></trkpt><trkpt lat="42.4281202" lon="-8.6019229"><ele>226.0</ele><time>2026-03-28T18:03:02.854Z</time></trkpt><trkpt lat="42.4281996" lon="-8.6018763"><ele>226.8</ele><time>2026-03-28T18:03:03.848Z</time></trkpt><trkpt lat="42.4282679" lon="-8.6018347"><ele>227.60000000000002</ele><time>2026-03-28T18:03:04.863Z</time></trkpt><trkpt lat="42.4283608" lon="-8.6017844"><ele>228.4</ele><time>2026-03-28T18:03:06.853Z</time></trkpt><trkpt lat="42.4284385" lon="-8.6017581"><ele>229.2</ele><time>2026-03-28T18:03:08.855Z</time></trkpt><trkpt lat="42.4285273" lon="-8.6016764"><ele>230.0</ele><time>2026-03-28T18:03:10.849Z</time></trkpt><trkpt lat="42.4286423" lon="-8.601603"><ele>230.00000000000003</ele><time>2026-03-28T18:03:12.85Z</time></trkpt><trkpt lat="42.4287079" lon="-8.6015738"><ele>230.0</ele><time>2026-03-28T18:03:13.852Z</time></trkpt><trkpt lat="42.4287759" lon="-8.6015569"><ele>230.0</ele><time>2026-03-28T18:03:14.859Z</time></trkpt><trkpt lat="42.4288394" lon="-8.6015297"><ele>230.0</ele><time>2026-03-28T18:03:15.853Z</time></trkpt><trkpt lat="42.4288932" lon="-8.6014725"><ele>230.00000000000003</ele><time>2026-03-28T18:03:16.85Z</time></trkpt><trkpt lat="42.4289879" lon="-8.6014105"><ele>230.0</ele><time>2026-03-28T18:03:18.851Z</time></trkpt><trkpt lat="42.4290757" lon="-8.6013885"><ele>228.83333333333334</ele><time>2026-03-28T18:03:20.859Z</time></trkpt><trkpt lat="42.4291115" lon="-8.601477"><ele>227.66666666666669</ele><time>2026-03-28T18:03:24.86Z</time></trkpt><trkpt lat="42.4291056" lon="-8.6015965"><ele>226.5</ele><time>2026-03-28T18:03:28.861Z</time></trkpt><trkpt lat="42.4290957" lon="-8.6017"><ele>225.33333333333331</ele><time>2026-03-28T18:03:30.858Z</time></trkpt><trkpt lat="42.4290816" lon="-8.6017947"><ele>224.16666666666666</ele><time>2026-03-28T18:03:32.858Z</time></trkpt><trkpt lat="42.4290629" lon="-8.6019168"><ele>223.0</ele><time>2026-03-28T18:03:34.858Z</time></trkpt><trkpt lat="42.4290471" lon="-8.6020409"><ele>222.66666666666666</ele><time>2026-03-28T18:03:36.856Z</time></trkpt><trkpt lat="42.429046" lon="-8.6021749"><ele>222.33333333333331</ele><time>2026-03-28T18:03:38.849Z</time></trkpt><trkpt lat="42.4290337" lon="-8.6022678"><ele>222.0</ele><time>2026-03-28T18:03:39.853Z</time></trkpt><trkpt lat="42.4290153" lon="-8.6023745"><ele>221.66666666666669</ele><time>2026-03-28T18:03:40.855Z</time></trkpt><trkpt lat="42.4289921" lon="-8.6024849"><ele>221.33333333333334</ele><time>2026-03-28T18:03:41.859Z</time></trkpt><trkpt lat="42.4289755" lon="-8.6026004"><ele>221.0</ele><time>2026-03-28T18:03:42.849Z</time></trkpt><trkpt lat="42.4289719" lon="-8.6027175"><ele>220.16666666666669</ele><time>2026-03-28T18:03:43.852Z</time></trkpt><trkpt lat="42.4289757" lon="-8.6028319"><ele>219.33333333333334</ele><time>2026-03-28T18:03:44.854Z</time></trkpt><trkpt lat="42.4289853" lon="-8.6029427"><ele>218.5</ele><time>2026-03-28T18:03:45.852Z</time></trkpt><trkpt lat="42.428998" lon="-8.6030587"><ele>217.66666666666669</ele><time>2026-03-28T18:03:46.862Z</time></trkpt><trkpt lat="42.4290111" lon="-8.6031759"><ele>216.83333333333334</ele><time>2026-03-28T18:03:47.858Z</time></trkpt><trkpt lat="42.4290199" lon="-8.6032928"><ele>216.0</ele><time>2026-03-28T18:03:48.847Z</time></trkpt><trkpt lat="42.4290059" lon="-8.6034006"><ele>216.0</ele><time>2026-03-28T18:03:49.852Z</time></trkpt><trkpt lat="42.4289727" lon="-8.6034998"><ele>216.0</ele><time>2026-03-28T18:03:50.848Z</time></trkpt><trkpt lat="42.4289134" lon="-8.6035882"><ele>216.0</ele><time>2026-03-28T18:03:51.857Z</time></trkpt><trkpt lat="42.4288318" lon="-8.6036333"><ele>216.0</ele><time>2026-03-28T18:03:52.844Z</time></trkpt><trkpt lat="42.4287446" lon="-8.6036814"><ele>216.0</ele><time>2026-03-28T18:03:53.85Z</time></trkpt><trkpt lat="42.4286714" lon="-8.6037365"><ele>216.0</ele><time>2026-03-28T18:03:54.852Z</time></trkpt><trkpt lat="42.4286095" lon="-8.6037974"><ele>213.33333333333334</ele><time>2026-03-28T18:03:55.845Z</time></trkpt><trkpt lat="42.4285626" lon="-8.6038941"><ele>210.66666666666669</ele><time>2026-03-28T18:03:56.845Z</time></trkpt><trkpt lat="42.428546" lon="-8.6040155"><ele>208.0</ele><time>2026-03-28T18:03:57.85Z</time></trkpt><trkpt lat="42.4285248" lon="-8.6041282"><ele>205.33333333333334</ele><time>2026-03-28T18:03:58.856Z</time></trkpt><trkpt lat="42.4284953" lon="-8.6042289"><ele>202.66666666666669</ele><time>2026-03-28T18:03:59.858Z</time></trkpt><trkpt lat="42.428464" lon="-8.6043299"><ele>200.0</ele><time>2026-03-28T18:04:00.845Z</time></trkpt><trkpt lat="42.4284371" lon="-8.6044245"><ele>199.14285714285717</ele><time>2026-03-28T18:04:01.845Z</time></trkpt><trkpt lat="42.4284084" lon="-8.6045152"><ele>198.28571428571428</ele><time>2026-03-28T18:04:02.856Z</time></trkpt><trkpt lat="42.4283918" lon="-8.604612"><ele>197.42857142857144</ele><time>2026-03-28T18:04:03.851Z</time></trkpt><trkpt lat="42.4283755" lon="-8.6047163"><ele>196.57142857142858</ele><time>2026-03-28T18:04:04.849Z</time></trkpt><trkpt lat="42.4283698" lon="-8.6048178"><ele>195.71428571428572</ele><time>2026-03-28T18:04:05.846Z</time></trkpt><trkpt lat="42.428381" lon="-8.6049073"><ele>194.85714285714286</ele><time>2026-03-28T18:04:06.858Z</time></trkpt><trkpt lat="42.4284294" lon="-8.604992"><ele>194.0</ele><time>2026-03-28T18:04:07.851Z</time></trkpt><trkpt lat="42.4285024" lon="-8.6050726"><ele>194.00000000000003</ele><time>2026-03-28T18:04:08.851Z</time></trkpt><trkpt lat="42.428584" lon="-8.6051406"><ele>194.0</ele><time>2026-03-28T18:04:09.85Z</time></trkpt><trkpt lat="42.4286611" lon="-8.6052022"><ele>194.0</ele><time>2026-03-28T18:04:10.858Z</time></trkpt><trkpt lat="42.4287328" lon="-8.6052683"><ele>194.0</ele><time>2026-03-28T18:04:11.854Z</time></trkpt><trkpt lat="42.4287844" lon="-8.6053445"><ele>194.00000000000003</ele><time>2026-03-28T18:04:12.853Z</time></trkpt><trkpt lat="42.428828" lon="-8.6054419"><ele>194.0</ele><time>2026-03-28T18:04:13.85Z</time></trkpt><trkpt lat="42.4288525" lon="-8.605549"><ele>194.00000000000003</ele><time>2026-03-28T18:04:14.842Z</time></trkpt><trkpt lat="42.4288909" lon="-8.6056528"><ele>194.0</ele><time>2026-03-28T18:04:15.849Z</time></trkpt><trkpt lat="42.4289306" lon="-8.6057551"><ele>194.0</ele><time>2026-03-28T18:04:16.856Z</time></trkpt><trkpt lat="42.4289634" lon="-8.6058681"><ele>194.0</ele><time>2026-03-28T18:04:17.846Z</time></trkpt><trkpt lat="42.4289874" lon="-8.6059872"><ele>194.00000000000003</ele><time>2026-03-28T18:04:18.85Z</time></trkpt><trkpt lat="42.4290059" lon="-8.6061066"><ele>194.0</ele><time>2026-03-28T18:04:19.842Z</time></trkpt><trkpt lat="42.4290123" lon="-8.6062228"><ele>193.16666666666669</ele><time>2026-03-28T18:04:20.846Z</time></trkpt><trkpt lat="42.4290004" lon="-8.6063409"><ele>192.33333333333334</ele><time>2026-03-28T18:04:21.843Z</time></trkpt><trkpt lat="42.4289724" lon="-8.6064559"><ele>191.5</ele><time>2026-03-28T18:04:22.852Z</time></trkpt><trkpt lat="42.4289293" lon="-8.6065524"><ele>190.66666666666669</ele><time>2026-03-28T18:04:23.849Z</time></trkpt><trkpt lat="42.4288848" lon="-8.6066452"><ele>189.83333333333334</ele><time>2026-03-28T18:04:24.846Z</time></trkpt><trkpt lat="42.4288383" lon="-8.6067259"><ele>189.0</ele><time>2026-03-28T18:04:25.851Z</time></trkpt><trkpt lat="42.4287698" lon="-8.6068099"><ele>186.0</ele><time>2026-03-28T18:04:26.848Z</time></trkpt><trkpt lat="42.4287018" lon="-8.6068857"><ele>183.0</ele><time>2026-03-28T18:04:27.858Z</time></trkpt><trkpt lat="42.4286627" lon="-8.6069719"><ele>180.0</ele><time>2026-03-28T18:04:28.851Z</time></trkpt><trkpt lat="42.4286311" lon="-8.6070578"><ele>177.0</ele><time>2026-03-28T18:04:29.857Z</time></trkpt><trkpt lat="42.428596" lon="-8.6071654"><ele>174.0</ele><time>2026-03-28T18:04:30.846Z</time></trkpt><trkpt lat="42.4285559" lon="-8.6072806"><ele>171.0</ele><time>2026-03-28T18:04:31.846Z</time></trkpt><trkpt lat="42.4285312" lon="-8.607399"><ele>169.0</ele><time>2026-03-28T18:04:32.862Z</time></trkpt><trkpt lat="42.4285246" lon="-8.6074998"><ele>167.0</ele><time>2026-03-28T18:04:33.84Z</time></trkpt><trkpt lat="42.4285228" lon="-8.6076438"><ele>165.0</ele><time>2026-03-28T18:04:35.852Z</time></trkpt><trkpt lat="42.4285431" lon="-8.6077465"><ele>163.0</ele><time>2026-03-28T18:04:38.856Z</time></trkpt><trkpt lat="42.4285898" lon="-8.607811"><ele>161.0</ele><time>2026-03-28T18:04:42.852Z</time></trkpt><trkpt lat="42.428665" lon="-8.6078715"><ele>159.0</ele><time>2026-03-28T18:04:45.857Z</time></trkpt><trkpt lat="42.4287159" lon="-8.6079677"><ele>157.8</ele><time>2026-03-28T18:04:47.859Z</time></trkpt><trkpt lat="42.4287631" lon="-8.6080654"><ele>156.60000000000002</ele><time>2026-03-28T18:04:49.848Z</time></trkpt><trkpt lat="42.428792" lon="-8.6081606"><ele>155.4</ele><time>2026-03-28T18:04:51.852Z</time></trkpt><trkpt lat="42.4288578" lon="-8.6082304"><ele>154.20000000000002</ele><time>2026-03-28T18:04:53.857Z</time></trkpt><trkpt lat="42.4289625" lon="-8.6083219"><ele>153.0</ele><time>2026-03-28T18:04:55.857Z</time></trkpt><trkpt lat="42.4290357" lon="-8.6083672"><ele>154.0</ele><time>2026-03-28T18:04:56.856Z</time></trkpt><trkpt lat="42.4291047" lon="-8.6084125"><ele>155.0</ele><time>2026-03-28T18:04:57.85Z</time></trkpt><trkpt lat="42.42917" lon="-8.6084554"><ele>156.0</ele><time>2026-03-28T18:04:58.857Z</time></trkpt><trkpt lat="42.4292563" lon="-8.6085327"><ele>157.0</ele><time>2026-03-28T18:05:00.862Z</time></trkpt><trkpt lat="42.4293119" lon="-8.6086382"><ele>158.0</ele><time>2026-03-28T18:05:16.86Z</time></trkpt><trkpt lat="42.429409" lon="-8.6087592"><ele>158.0</ele><time>2026-03-28T18:05:18.853Z</time></trkpt><trkpt lat="42.4294831" lon="-8.6088381"><ele>158.0</ele><time>2026-03-28T18:05:19.845Z</time></trkpt><trkpt lat="42.4295527" lon="-8.6089461"><ele>158.0</ele><time>2026-03-28T18:05:20.858Z</time></trkpt><trkpt lat="42.4296023" lon="-8.6090521"><ele>158.0</ele><time>2026-03-28T18:05:21.853Z</time></trkpt><trkpt lat="42.4296459" lon="-8.6091537"><ele>158.0</ele><time>2026-03-28T18:05:22.857Z</time></trkpt><trkpt lat="42.4296861" lon="-8.6092518"><ele>158.16666666666666</ele><time>2026-03-28T18:05:23.855Z</time></trkpt><trkpt lat="42.429729" lon="-8.6093282"><ele>158.33333333333331</ele><time>2026-03-28T18:05:24.855Z</time></trkpt><trkpt lat="42.4297714" lon="-8.6093973"><ele>158.5</ele><time>2026-03-28T18:05:25.848Z</time></trkpt><trkpt lat="42.4298593" lon="-8.6095166"><ele>158.66666666666666</ele><time>2026-03-28T18:05:27.851Z</time></trkpt><trkpt lat="42.4298959" lon="-8.6095912"><ele>158.83333333333334</ele><time>2026-03-28T18:05:28.855Z</time></trkpt><trkpt lat="42.429908" lon="-8.6096823"><ele>159.0</ele><time>2026-03-28T18:05:29.859Z</time></trkpt><trkpt lat="42.4299126" lon="-8.6097924"><ele>159.0</ele><time>2026-03-28T18:05:30.851Z</time></trkpt><trkpt lat="42.4299169" lon="-8.6098985"><ele>159.0</ele><time>2026-03-28T18:05:31.847Z</time></trkpt><trkpt lat="42.4299189" lon="-8.610012"><ele>159.0</ele><time>2026-03-28T18:05:32.86Z</time></trkpt><trkpt lat="42.4299186" lon="-8.6101227"><ele>159.0</ele><time>2026-03-28T18:05:33.866Z</time></trkpt><trkpt lat="42.4299207" lon="-8.6102245"><ele>159.0</ele><time>2026-03-28T18:05:34.858Z</time></trkpt><trkpt lat="42.4299112" lon="-8.6103549"><ele>159.0</ele><time>2026-03-28T18:05:36.855Z</time></trkpt><trkpt lat="42.4297735" lon="-8.6104354"><ele>158.4</ele><time>2026-03-28T18:05:38.847Z</time></trkpt><trkpt lat="42.42968" lon="-8.6104676"><ele>157.8</ele><time>2026-03-28T18:05:39.862Z</time></trkpt><trkpt lat="42.4295881" lon="-8.6104997"><ele>157.2</ele><time>2026-03-28T18:05:40.849Z</time></trkpt><trkpt lat="42.4295101" lon="-8.6105657"><ele>156.6</ele><time>2026-03-28T18:05:41.86Z</time></trkpt><trkpt lat="42.4294707" lon="-8.6106689"><ele>156.0</ele><time>2026-03-28T18:05:42.857Z</time></trkpt><trkpt lat="42.4294557" lon="-8.6107872"><ele>156.0</ele><time>2026-03-28T18:05:43.853Z</time></trkpt><trkpt lat="42.4294333" lon="-8.6109178"><ele>156.0</ele><time>2026-03-28T18:05:44.848Z</time></trkpt><trkpt lat="42.4293905" lon="-8.6110358"><ele>156.0</ele><time>2026-03-28T18:05:45.846Z</time></trkpt><trkpt lat="42.429327" lon="-8.6111392"><ele>156.0</ele><time>2026-03-28T18:05:46.854Z</time></trkpt><trkpt lat="42.4292719" lon="-8.6112196"><ele>156.0</ele><time>2026-03-28T18:05:47.854Z</time></trkpt><trkpt lat="42.4291936" lon="-8.6113053"><ele>155.4</ele><time>2026-03-28T18:05:49.851Z</time></trkpt><trkpt lat="42.4291067" lon="-8.6113621"><ele>154.8</ele><time>2026-03-28T18:05:51.854Z</time></trkpt><trkpt lat="42.4290425" lon="-8.6113936"><ele>154.20000000000002</ele><time>2026-03-28T18:05:52.851Z</time></trkpt><trkpt lat="42.4289671" lon="-8.6114073"><ele>153.6</ele><time>2026-03-28T18:05:53.864Z</time></trkpt><trkpt lat="42.4288671" lon="-8.611434"><ele>153.0</ele><time>2026-03-28T18:05:54.856Z</time></trkpt><trkpt lat="42.4287504" lon="-8.6114613"><ele>152.8</ele><time>2026-03-28T18:05:55.853Z</time></trkpt><trkpt lat="42.4286412" lon="-8.6114769"><ele>152.60000000000002</ele><time>2026-03-28T18:05:56.859Z</time></trkpt><trkpt lat="42.4285296" lon="-8.6114905"><ele>152.39999999999998</ele><time>2026-03-28T18:05:57.847Z</time></trkpt><trkpt lat="42.4284272" lon="-8.6115036"><ele>152.2</ele><time>2026-03-28T18:05:58.859Z</time></trkpt><trkpt lat="42.4283269" lon="-8.6115143"><ele>152.0</ele><time>2026-03-28T18:05:59.846Z</time></trkpt><trkpt lat="42.4282191" lon="-8.6115318"><ele>152.0</ele><time>2026-03-28T18:06:00.852Z</time></trkpt><trkpt lat="42.4281195" lon="-8.6115511"><ele>152.0</ele><time>2026-03-28T18:06:01.844Z</time></trkpt><trkpt lat="42.4280137" lon="-8.6115785"><ele>152.0</ele><time>2026-03-28T18:06:02.861Z</time></trkpt><trkpt lat="42.4279038" lon="-8.611613"><ele>152.0</ele><time>2026-03-28T18:06:03.851Z</time></trkpt><trkpt lat="42.4277958" lon="-8.6116497"><ele>152.0</ele><time>2026-03-28T18:06:04.862Z</time></trkpt><trkpt lat="42.4276851" lon="-8.6116899"><ele>151.2</ele><time>2026-03-28T18:06:05.849Z</time></trkpt><trkpt lat="42.4275724" lon="-8.6117308"><ele>150.39999999999998</ele><time>2026-03-28T18:06:06.855Z</time></trkpt><trkpt lat="42.4274701" lon="-8.6117701"><ele>149.60000000000002</ele><time>2026-03-28T18:06:07.85Z</time></trkpt><trkpt lat="42.4273704" lon="-8.611808"><ele>148.8</ele><time>2026-03-28T18:06:08.852Z</time></trkpt><trkpt lat="42.4272769" lon="-8.6118505"><ele>148.0</ele><time>2026-03-28T18:06:09.846Z</time></trkpt><trkpt lat="42.4271867" lon="-8.6118929"><ele>148.20000000000002</ele><time>2026-03-28T18:06:10.867Z</time></trkpt><trkpt lat="42.4271038" lon="-8.611948"><ele>148.4</ele><time>2026-03-28T18:06:11.845Z</time></trkpt><trkpt lat="42.427016" lon="-8.6119972"><ele>148.60000000000002</ele><time>2026-03-28T18:06:12.853Z</time></trkpt><trkpt lat="42.4269295" lon="-8.612056"><ele>148.8</ele><time>2026-03-28T18:06:13.85Z</time></trkpt><trkpt lat="42.426842" lon="-8.612117"><ele>149.0</ele><time>2026-03-28T18:06:14.853Z</time></trkpt><trkpt lat="42.4267692" lon="-8.6121926"><ele>149.0</ele><time>2026-03-28T18:06:15.866Z</time></trkpt><trkpt lat="42.4267029" lon="-8.6122684"><ele>149.0</ele><time>2026-03-28T18:06:16.843Z</time></trkpt><trkpt lat="42.4266293" lon="-8.6123242"><ele>149.0</ele><time>2026-03-28T18:06:17.849Z</time></trkpt><trkpt lat="42.4265558" lon="-8.612393"><ele>149.0</ele><time>2026-03-28T18:06:18.852Z</time></trkpt><trkpt lat="42.4264913" lon="-8.6124678"><ele>149.0</ele><time>2026-03-28T18:06:19.852Z</time></trkpt><trkpt lat="42.4264231" lon="-8.6125556"><ele>149.0</ele><time>2026-03-28T18:06:20.861Z</time></trkpt><trkpt lat="42.426347" lon="-8.6126444"><ele>146.8</ele><time>2026-03-28T18:06:21.857Z</time></trkpt><trkpt lat="42.426279" lon="-8.6127518"><ele>144.60000000000002</ele><time>2026-03-28T18:06:22.855Z</time></trkpt><trkpt lat="42.4262099" lon="-8.6128602"><ele>142.4</ele><time>2026-03-28T18:06:23.85Z</time></trkpt><trkpt lat="42.4261432" lon="-8.6129608"><ele>140.20000000000002</ele><time>2026-03-28T18:06:24.854Z</time></trkpt><trkpt lat="42.4260754" lon="-8.6130501"><ele>138.0</ele><time>2026-03-28T18:06:25.858Z</time></trkpt><trkpt lat="42.4260156" lon="-8.6131438"><ele>138.0</ele><time>2026-03-28T18:06:26.848Z</time></trkpt><trkpt lat="42.4259609" lon="-8.6132337"><ele>138.0</ele><time>2026-03-28T18:06:27.862Z</time></trkpt><trkpt lat="42.4259008" lon="-8.6133277"><ele>138.0</ele><time>2026-03-28T18:06:28.852Z</time></trkpt><trkpt lat="42.425852" lon="-8.6134174"><ele>138.0</ele><time>2026-03-28T18:06:29.853Z</time></trkpt><trkpt lat="42.4258147" lon="-8.613508"><ele>138.0</ele><time>2026-03-28T18:06:30.847Z</time></trkpt><trkpt lat="42.4257863" lon="-8.613599"><ele>138.0</ele><time>2026-03-28T18:06:31.853Z</time></trkpt><trkpt lat="42.4257571" lon="-8.6136914"><ele>137.71428571428572</ele><time>2026-03-28T18:06:32.856Z</time></trkpt><trkpt lat="42.4257269" lon="-8.6137735"><ele>137.42857142857144</ele><time>2026-03-28T18:06:33.858Z</time></trkpt><trkpt lat="42.4256875" lon="-8.6138593"><ele>137.14285714285714</ele><time>2026-03-28T18:06:35.848Z</time></trkpt><trkpt lat="42.4256649" lon="-8.6139434"><ele>136.85714285714286</ele><time>2026-03-28T18:06:37.865Z</time></trkpt><trkpt lat="42.4256381" lon="-8.6140218"><ele>136.57142857142856</ele><time>2026-03-28T18:06:41.857Z</time></trkpt><trkpt lat="42.4255815" lon="-8.6141124"><ele>136.28571428571428</ele><time>2026-03-28T18:06:43.851Z</time></trkpt><trkpt lat="42.4255064" lon="-8.6140785"><ele>136.0</ele><time>2026-03-28T18:06:44.845Z</time></trkpt><trkpt lat="42.425416" lon="-8.614007"><ele>135.33333333333334</ele><time>2026-03-28T18:06:45.86Z</time></trkpt><trkpt lat="42.4253492" lon="-8.6139262"><ele>134.66666666666669</ele><time>2026-03-28T18:06:46.854Z</time></trkpt><trkpt lat="42.4252963" lon="-8.6138408"><ele>134.0</ele><time>2026-03-28T18:06:47.852Z</time></trkpt><trkpt lat="42.4252561" lon="-8.6137585"><ele>133.33333333333334</ele><time>2026-03-28T18:06:48.855Z</time></trkpt><trkpt lat="42.4252053" lon="-8.6137033"><ele>132.66666666666666</ele><time>2026-03-28T18:06:49.862Z</time></trkpt><trkpt lat="42.4251327" lon="-8.6136803"><ele>132.0</ele><time>2026-03-28T18:06:50.862Z</time></trkpt><trkpt lat="42.4250482" lon="-8.6136786"><ele>132.0</ele><time>2026-03-28T18:06:51.857Z</time></trkpt><trkpt lat="42.424977" lon="-8.6136753"><ele>132.0</ele><time>2026-03-28T18:06:52.853Z</time></trkpt><trkpt lat="42.4249179" lon="-8.6136411"><ele>132.0</ele><time>2026-03-28T18:06:53.857Z</time></trkpt><trkpt lat="42.4248698" lon="-8.6134545"><ele>132.0</ele><time>2026-03-28T18:06:55.849Z</time></trkpt><trkpt lat="42.42485" lon="-8.6133343"><ele>132.0</ele><time>2026-03-28T18:06:56.86Z</time></trkpt><trkpt lat="42.4248294" lon="-8.6132236"><ele>131.0</ele><time>2026-03-28T18:06:57.852Z</time></trkpt><trkpt lat="42.4248135" lon="-8.6131118"><ele>130.0</ele><time>2026-03-28T18:06:58.85Z</time></trkpt><trkpt lat="42.4247962" lon="-8.6130206"><ele>129.0</ele><time>2026-03-28T18:06:59.848Z</time></trkpt><trkpt lat="42.424796" lon="-8.612902"><ele>128.0</ele><time>2026-03-28T18:07:01.853Z</time></trkpt><trkpt lat="42.4247593" lon="-8.6127863"><ele>127.0</ele><time>2026-03-28T18:07:03.857Z</time></trkpt><trkpt lat="42.4246549" lon="-8.6126722"><ele>125.83333333333334</ele><time>2026-03-28T18:07:05.854Z</time></trkpt><trkpt lat="42.4245911" lon="-8.6126286"><ele>124.66666666666667</ele><time>2026-03-28T18:07:06.859Z</time></trkpt><trkpt lat="42.4245254" lon="-8.6125817"><ele>123.5</ele><time>2026-03-28T18:07:07.858Z</time></trkpt><trkpt lat="42.4244799" lon="-8.612644"><ele>122.33333333333334</ele><time>2026-03-28T18:07:23.846Z</time></trkpt><trkpt lat="42.4244558" lon="-8.6127307"><ele>121.16666666666667</ele><time>2026-03-28T18:07:27.862Z</time></trkpt><trkpt lat="42.4243982" lon="-8.6128066"><ele>120.0</ele><time>2026-03-28T18:07:29.856Z</time></trkpt><trkpt lat="42.4243084" lon="-8.6128954"><ele>120.0</ele><time>2026-03-28T18:07:31.864Z</time></trkpt><trkpt lat="42.4242463" lon="-8.6129353"><ele>120.0</ele><time>2026-03-28T18:07:32.847Z</time></trkpt><trkpt lat="42.4241769" lon="-8.6129725"><ele>120.0</ele><time>2026-03-28T18:07:33.86Z</time></trkpt><trkpt lat="42.4240556" lon="-8.613049"><ele>120.0</ele><time>2026-03-28T18:07:35.853Z</time></trkpt><trkpt lat="42.4239852" lon="-8.6130822"><ele>120.0</ele><time>2026-03-28T18:07:36.847Z</time></trkpt><trkpt lat="42.4239055" lon="-8.6131244"><ele>120.0</ele><time>2026-03-28T18:07:37.857Z</time></trkpt><trkpt lat="42.4238241" lon="-8.6131587"><ele>116.66666666666667</ele><time>2026-03-28T18:07:38.851Z</time></trkpt><trkpt lat="42.4237349" lon="-8.6131806"><ele>113.33333333333334</ele><time>2026-03-28T18:07:39.856Z</time></trkpt><trkpt lat="42.4236424" lon="-8.613189"><ele>110.0</ele><time>2026-03-28T18:07:40.857Z</time></trkpt><trkpt lat="42.4235645" lon="-8.6131843"><ele>106.66666666666667</ele><time>2026-03-28T18:07:41.85Z</time></trkpt><trkpt lat="42.4234629" lon="-8.6131776"><ele>103.33333333333334</ele><time>2026-03-28T18:07:43.865Z</time></trkpt><trkpt lat="42.4234013" lon="-8.6131958"><ele>100.0</ele><time>2026-03-28T18:07:45.857Z</time></trkpt><trkpt lat="42.4233642" lon="-8.6132941"><ele>100.0</ele><time>2026-03-28T18:07:47.85Z</time></trkpt><trkpt lat="42.4233875" lon="-8.6134014"><ele>100.0</ele><time>2026-03-28T18:07:48.85Z</time></trkpt><trkpt lat="42.4234" lon="-8.6135275"><ele>100.0</ele><time>2026-03-28T18:07:49.86Z</time></trkpt><trkpt lat="42.423385" lon="-8.6136627"><ele>100.0</ele><time>2026-03-28T18:07:50.86Z</time></trkpt><trkpt lat="42.423348" lon="-8.6137885"><ele>100.0</ele><time>2026-03-28T18:07:51.864Z</time></trkpt><trkpt lat="42.4232921" lon="-8.6139076"><ele>101.6</ele><time>2026-03-28T18:07:52.85Z</time></trkpt><trkpt lat="42.4232227" lon="-8.614016"><ele>103.2</ele><time>2026-03-28T18:07:53.849Z</time></trkpt><trkpt lat="42.4231461" lon="-8.6141169"><ele>104.80000000000001</ele><time>2026-03-28T18:07:54.845Z</time></trkpt><trkpt lat="42.4230696" lon="-8.6142129"><ele>106.4</ele><time>2026-03-28T18:07:55.858Z</time></trkpt><trkpt lat="42.4229945" lon="-8.6143078"><ele>108.0</ele><time>2026-03-28T18:07:56.853Z</time></trkpt><trkpt lat="42.4229167" lon="-8.6143975"><ele>105.2</ele><time>2026-03-28T18:07:57.849Z</time></trkpt><trkpt lat="42.4228467" lon="-8.6144926"><ele>102.4</ele><time>2026-03-28T18:07:58.855Z</time></trkpt><trkpt lat="42.4227852" lon="-8.6146051"><ele>99.60000000000001</ele><time>2026-03-28T18:07:59.871Z</time></trkpt><trkpt lat="42.4227326" lon="-8.6147275"><ele>96.80000000000001</ele><time>2026-03-28T18:08:00.855Z</time></trkpt><trkpt lat="42.4226925" lon="-8.6148666"><ele>94.0</ele><time>2026-03-28T18:08:01.851Z</time></trkpt><trkpt lat="42.4226709" lon="-8.6150049"><ele>94.0</ele><time>2026-03-28T18:08:02.856Z</time></trkpt><trkpt lat="42.4226802" lon="-8.615161"><ele>94.0</ele><time>2026-03-28T18:08:03.859Z</time></trkpt><trkpt lat="42.4227193" lon="-8.6153279"><ele>94.0</ele><time>2026-03-28T18:08:04.85Z</time></trkpt><trkpt lat="42.4227856" lon="-8.6154714"><ele>94.0</ele><time>2026-03-28T18:08:05.858Z</time></trkpt><trkpt lat="42.4228611" lon="-8.6155914"><ele>92.6</ele><time>2026-03-28T18:08:06.853Z</time></trkpt><trkpt lat="42.4229376" lon="-8.615686"><ele>91.2</ele><time>2026-03-28T18:08:07.854Z</time></trkpt><trkpt lat="42.423032" lon="-8.6157667"><ele>89.8</ele><time>2026-03-28T18:08:08.862Z</time></trkpt><trkpt lat="42.4231197" lon="-8.6158658"><ele>88.39999999999999</ele><time>2026-03-28T18:08:09.844Z</time></trkpt><trkpt lat="42.4232036" lon="-8.6159804"><ele>87.0</ele><time>2026-03-28T18:08:10.851Z</time></trkpt><trkpt lat="42.4232687" lon="-8.6161098"><ele>88.6</ele><time>2026-03-28T18:08:11.848Z</time></trkpt><trkpt lat="42.4233109" lon="-8.6162376"><ele>90.19999999999999</ele><time>2026-03-28T18:08:12.85Z</time></trkpt><trkpt lat="42.4233384" lon="-8.6163647"><ele>91.8</ele><time>2026-03-28T18:08:13.851Z</time></trkpt><trkpt lat="42.4233564" lon="-8.6164961"><ele>93.4</ele><time>2026-03-28T18:08:14.858Z</time></trkpt><trkpt lat="42.423372" lon="-8.6166218"><ele>95.0</ele><time>2026-03-28T18:08:15.864Z</time></trkpt><trkpt lat="42.4233949" lon="-8.6167482"><ele>95.0</ele><time>2026-03-28T18:08:16.845Z</time></trkpt><trkpt lat="42.4234278" lon="-8.6168676"><ele>95.0</ele><time>2026-03-28T18:08:17.856Z</time></trkpt><trkpt lat="42.4234663" lon="-8.6169923"><ele>95.0</ele><time>2026-03-28T18:08:18.852Z</time></trkpt><trkpt lat="42.4235004" lon="-8.6171238"><ele>95.0</ele><time>2026-03-28T18:08:19.849Z</time></trkpt><trkpt lat="42.4235493" lon="-8.6172384"><ele>95.0</ele><time>2026-03-28T18:08:20.856Z</time></trkpt><trkpt lat="42.4235992" lon="-8.6173407"><ele>95.4</ele><time>2026-03-28T18:08:21.853Z</time></trkpt><trkpt lat="42.4236566" lon="-8.6174319"><ele>95.8</ele><time>2026-03-28T18:08:22.85Z</time></trkpt><trkpt lat="42.4237193" lon="-8.6175167"><ele>96.19999999999999</ele><time>2026-03-28T18:08:23.853Z</time></trkpt><trkpt lat="42.4237803" lon="-8.6176054"><ele>96.6</ele><time>2026-03-28T18:08:24.862Z</time></trkpt><trkpt lat="42.42387" lon="-8.6176676"><ele>97.0</ele><time>2026-03-28T18:08:25.849Z</time></trkpt><trkpt lat="42.4239535" lon="-8.6176934"><ele>97.00000000000001</ele><time>2026-03-28T18:08:26.848Z</time></trkpt><trkpt lat="42.4240261" lon="-8.6176838"><ele>97.0</ele><time>2026-03-28T18:08:27.847Z</time></trkpt><trkpt lat="42.4241342" lon="-8.6176851"><ele>97.0</ele><time>2026-03-28T18:08:29.85Z</time></trkpt><trkpt lat="42.4242093" lon="-8.6176737"><ele>97.0</ele><time>2026-03-28T18:08:31.849Z</time></trkpt><trkpt lat="42.4241399" lon="-8.6175798"><ele>97.00000000000001</ele><time>2026-03-28T18:08:35.851Z</time></trkpt><trkpt lat="42.4241461" lon="-8.6174947"><ele>97.0</ele><time>2026-03-28T18:08:40.851Z</time></trkpt><trkpt lat="42.4242146" lon="-8.6174741"><ele>97.0</ele><time>2026-03-28T18:10:40.858Z</time></trkpt><trkpt lat="42.4241404" lon="-8.6175063"><ele>97.0</ele><time>2026-03-28T18:11:21.847Z</time></trkpt><trkpt lat="42.4242035" lon="-8.6174637"><ele>97.0</ele><time>2026-03-28T18:12:42.864Z</time></trkpt><trkpt lat="42.4241426" lon="-8.617439"><ele>97.0</ele><time>2026-03-28T18:13:54.85Z</time></trkpt><trkpt lat="42.4241767" lon="-8.617513"><ele>97.0</ele><time>2026-03-28T18:14:39.851Z</time></trkpt><trkpt lat="42.4242036" lon="-8.6174221"><ele>97.0</ele><time>2026-03-28T18:15:46.852Z</time></trkpt><trkpt lat="42.4241533" lon="-8.6175053"><ele>97.0</ele><time>2026-03-28T18:16:31.861Z</time></trkpt><trkpt lat="42.4242122" lon="-8.617459"><ele>97.0</ele><time>2026-03-28T18:19:12.847Z</time></trkpt><trkpt lat="42.4241393" lon="-8.6175004"><ele>97.0</ele><time>2026-03-28T18:20:40.85Z</time></trkpt></trkseg><trkseg><trkpt lat="42.4241761" lon="-8.6175541"><ele>97.0</ele><time>2026-03-28T18:59:29.093Z</time></trkpt><trkpt lat="42.4241634" lon="-8.617654"><ele>97.0</ele><time>2026-03-28T18:59:35.094Z</time></trkpt><trkpt lat="42.4242093" lon="-8.6177223"><ele>97.0</ele><time>2026-03-28T18:59:39.094Z</time></trkpt><trkpt lat="42.4242898" lon="-8.617796"><ele>97.0</ele><time>2026-03-28T18:59:42.094Z</time></trkpt><trkpt lat="42.4243584" lon="-8.6178982"><ele>97.0</ele><time>2026-03-28T18:59:44.103Z</time></trkpt><trkpt lat="42.4244123" lon="-8.6180241"><ele>93.5</ele><time>2026-03-28T18:59:46.095Z</time></trkpt><trkpt lat="42.4244559" lon="-8.6181566"><ele>90.0</ele><time>2026-03-28T18:59:48.084Z</time></trkpt><trkpt lat="42.4244974" lon="-8.6182961"><ele>86.5</ele><time>2026-03-28T18:59:50.105Z</time></trkpt><trkpt lat="42.4245477" lon="-8.6184405"><ele>83.0</ele><time>2026-03-28T18:59:52.09Z</time></trkpt><trkpt lat="42.4245927" lon="-8.6185927"><ele>82.33333333333334</ele><time>2026-03-28T18:59:54.097Z</time></trkpt><trkpt lat="42.4246141" lon="-8.6186851"><ele>81.66666666666667</ele><time>2026-03-28T18:59:55.093Z</time></trkpt><trkpt lat="42.4246399" lon="-8.6187795"><ele>81.0</ele><time>2026-03-28T18:59:56.092Z</time></trkpt><trkpt lat="42.4246901" lon="-8.6189648"><ele>80.33333333333333</ele><time>2026-03-28T18:59:57.887Z</time></trkpt><trkpt lat="42.4247207" lon="-8.619055"><ele>79.66666666666666</ele><time>2026-03-28T18:59:58.845Z</time></trkpt><trkpt lat="42.4247495" lon="-8.6191502"><ele>79.0</ele><time>2026-03-28T18:59:59.834Z</time></trkpt><trkpt lat="42.4247765" lon="-8.6192496"><ele>79.57142857142858</ele><time>2026-03-28T19:00:00.827Z</time></trkpt><trkpt lat="42.4248069" lon="-8.6193507"><ele>80.14285714285714</ele><time>2026-03-28T19:00:01.832Z</time></trkpt><trkpt lat="42.4248317" lon="-8.619446"><ele>80.71428571428572</ele><time>2026-03-28T19:00:02.837Z</time></trkpt><trkpt lat="42.4248589" lon="-8.6195444"><ele>81.28571428571429</ele><time>2026-03-28T19:00:03.834Z</time></trkpt><trkpt lat="42.4248938" lon="-8.6196319"><ele>81.85714285714286</ele><time>2026-03-28T19:00:04.834Z</time></trkpt><trkpt lat="42.4249391" lon="-8.6197057"><ele>82.42857142857143</ele><time>2026-03-28T19:00:05.836Z</time></trkpt><trkpt lat="42.4249871" lon="-8.6197643"><ele>83.0</ele><time>2026-03-28T19:00:06.842Z</time></trkpt><trkpt lat="42.425098" lon="-8.619789"><ele>83.0</ele><time>2026-03-28T19:00:08.834Z</time></trkpt><trkpt lat="42.4252176" lon="-8.6196866"><ele>83.0</ele><time>2026-03-28T19:00:10.839Z</time></trkpt><trkpt lat="42.4252907" lon="-8.6196407"><ele>83.0</ele><time>2026-03-28T19:00:11.83Z</time></trkpt><trkpt lat="42.4253632" lon="-8.6196446"><ele>83.0</ele><time>2026-03-28T19:00:12.833Z</time></trkpt><trkpt lat="42.4254277" lon="-8.6196984"><ele>83.0</ele><time>2026-03-28T19:00:13.84Z</time></trkpt><trkpt lat="42.4254787" lon="-8.6198003"><ele>82.0</ele><time>2026-03-28T19:00:14.85Z</time></trkpt><trkpt lat="42.4254984" lon="-8.6199267"><ele>81.0</ele><time>2026-03-28T19:00:15.837Z</time></trkpt><trkpt lat="42.425499" lon="-8.6200538"><ele>80.0</ele><time>2026-03-28T19:00:16.83Z</time></trkpt><trkpt lat="42.4255173" lon="-8.6201824"><ele>79.0</ele><time>2026-03-28T19:00:17.833Z</time></trkpt><trkpt lat="42.4255429" lon="-8.620309"><ele>78.0</ele><time>2026-03-28T19:00:18.836Z</time></trkpt><trkpt lat="42.4255905" lon="-8.6204079"><ele>78.0</ele><time>2026-03-28T19:00:19.833Z</time></trkpt><trkpt lat="42.4256452" lon="-8.6204955"><ele>78.0</ele><time>2026-03-28T19:00:20.831Z</time></trkpt><trkpt lat="42.4257169" lon="-8.6205677"><ele>78.0</ele><time>2026-03-28T19:00:21.844Z</time></trkpt><trkpt lat="42.4257903" lon="-8.6206451"><ele>78.0</ele><time>2026-03-28T19:00:22.839Z</time></trkpt><trkpt lat="42.4258641" lon="-8.620719"><ele>78.0</ele><time>2026-03-28T19:00:23.834Z</time></trkpt><trkpt lat="42.4259344" lon="-8.6207834"><ele>78.0</ele><time>2026-03-28T19:00:24.84Z</time></trkpt><trkpt lat="42.4260031" lon="-8.6208492"><ele>78.0</ele><time>2026-03-28T19:00:25.844Z</time></trkpt><trkpt lat="42.4260656" lon="-8.6209166"><ele>78.0</ele><time>2026-03-28T19:00:26.834Z</time></trkpt><trkpt lat="42.4261264" lon="-8.620974"><ele>78.0</ele><time>2026-03-28T19:00:27.835Z</time></trkpt><trkpt lat="42.426183" lon="-8.6210239"><ele>78.0</ele><time>2026-03-28T19:00:28.831Z</time></trkpt><trkpt lat="42.426281" lon="-8.6211209"><ele>78.0</ele><time>2026-03-28T19:00:30.832Z</time></trkpt><trkpt lat="42.4263837" lon="-8.6212104"><ele>77.25</ele><time>2026-03-28T19:00:32.837Z</time></trkpt><trkpt lat="42.4264826" lon="-8.6213016"><ele>76.5</ele><time>2026-03-28T19:00:34.834Z</time></trkpt><trkpt lat="42.4265706" lon="-8.6213875"><ele>75.75</ele><time>2026-03-28T19:00:36.839Z</time></trkpt><trkpt lat="42.4266477" lon="-8.621476"><ele>75.0</ele><time>2026-03-28T19:00:38.839Z</time></trkpt><trkpt lat="42.4267443" lon="-8.6215754"><ele>75.0</ele><time>2026-03-28T19:00:40.839Z</time></trkpt><trkpt lat="42.4268519" lon="-8.6216767"><ele>75.0</ele><time>2026-03-28T19:00:42.841Z</time></trkpt><trkpt lat="42.4269139" lon="-8.6217427"><ele>75.0</ele><time>2026-03-28T19:00:43.838Z</time></trkpt><trkpt lat="42.4269717" lon="-8.6218153"><ele>75.0</ele><time>2026-03-28T19:00:44.829Z</time></trkpt><trkpt lat="42.4270278" lon="-8.6219036"><ele>75.0</ele><time>2026-03-28T19:00:45.835Z</time></trkpt><trkpt lat="42.4270746" lon="-8.6220109"><ele>75.0</ele><time>2026-03-28T19:00:46.841Z</time></trkpt><trkpt lat="42.4271087" lon="-8.6221308"><ele>75.0</ele><time>2026-03-28T19:00:47.833Z</time></trkpt><trkpt lat="42.4271303" lon="-8.6222516"><ele>75.0</ele><time>2026-03-28T19:00:48.834Z</time></trkpt><trkpt lat="42.427147" lon="-8.6223673"><ele>75.0</ele><time>2026-03-28T19:00:49.843Z</time></trkpt><trkpt lat="42.4271622" lon="-8.6224867"><ele>75.0</ele><time>2026-03-28T19:00:50.835Z</time></trkpt><trkpt lat="42.4271786" lon="-8.62261"><ele>75.0</ele><time>2026-03-28T19:00:51.832Z</time></trkpt><trkpt lat="42.4271978" lon="-8.622739"><ele>75.0</ele><time>2026-03-28T19:00:52.83Z</time></trkpt><trkpt lat="42.4272172" lon="-8.6228662"><ele>75.0</ele><time>2026-03-28T19:00:53.84Z</time></trkpt><trkpt lat="42.4272248" lon="-8.6230005"><ele>75.0</ele><time>2026-03-28T19:00:54.839Z</time></trkpt><trkpt lat="42.4272201" lon="-8.6231383"><ele>75.0</ele><time>2026-03-28T19:00:55.84Z</time></trkpt><trkpt lat="42.4272058" lon="-8.6232851"><ele>74.75</ele><time>2026-03-28T19:00:56.84Z</time></trkpt><trkpt lat="42.4271863" lon="-8.6234384"><ele>74.5</ele><time>2026-03-28T19:00:57.836Z</time></trkpt><trkpt lat="42.4271566" lon="-8.6235827"><ele>74.25</ele><time>2026-03-28T19:00:58.847Z</time></trkpt><trkpt lat="42.4271285" lon="-8.6237289"><ele>74.0</ele><time>2026-03-28T19:00:59.83Z</time></trkpt><trkpt lat="42.4270985" lon="-8.6238861"><ele>72.75</ele><time>2026-03-28T19:01:00.842Z</time></trkpt><trkpt lat="42.4270666" lon="-8.6240335"><ele>71.5</ele><time>2026-03-28T19:01:01.838Z</time></trkpt><trkpt lat="42.4270426" lon="-8.6241881"><ele>70.25</ele><time>2026-03-28T19:01:02.839Z</time></trkpt><trkpt lat="42.4270195" lon="-8.6243507"><ele>69.0</ele><time>2026-03-28T19:01:03.83Z</time></trkpt><trkpt lat="42.4269983" lon="-8.6245182"><ele>68.25</ele><time>2026-03-28T19:01:04.841Z</time></trkpt><trkpt lat="42.4269803" lon="-8.6246877"><ele>67.5</ele><time>2026-03-28T19:01:05.833Z</time></trkpt><trkpt lat="42.4269691" lon="-8.6248574"><ele>66.75</ele><time>2026-03-28T19:01:06.834Z</time></trkpt><trkpt lat="42.426955" lon="-8.6250286"><ele>66.0</ele><time>2026-03-28T19:01:07.837Z</time></trkpt><trkpt lat="42.4269441" lon="-8.625219"><ele>66.0</ele><time>2026-03-28T19:01:08.834Z</time></trkpt><trkpt lat="42.4269377" lon="-8.6254069"><ele>66.0</ele><time>2026-03-28T19:01:09.832Z</time></trkpt><trkpt lat="42.4269393" lon="-8.6255609"><ele>66.0</ele><time>2026-03-28T19:01:10.833Z</time></trkpt><trkpt lat="42.4269584" lon="-8.6257006"><ele>66.0</ele><time>2026-03-28T19:01:11.835Z</time></trkpt><trkpt lat="42.427014" lon="-8.6258035"><ele>66.0</ele><time>2026-03-28T19:01:12.833Z</time></trkpt><trkpt lat="42.4270948" lon="-8.6258759"><ele>66.0</ele><time>2026-03-28T19:01:13.838Z</time></trkpt><trkpt lat="42.427191" lon="-8.6259579"><ele>66.0</ele><time>2026-03-28T19:01:14.834Z</time></trkpt><trkpt lat="42.4272842" lon="-8.6260616"><ele>66.0</ele><time>2026-03-28T19:01:15.842Z</time></trkpt><trkpt lat="42.4273844" lon="-8.6261709"><ele>65.0</ele><time>2026-03-28T19:01:16.833Z</time></trkpt><trkpt lat="42.4274637" lon="-8.626275"><ele>64.0</ele><time>2026-03-28T19:01:17.827Z</time></trkpt><trkpt lat="42.4275197" lon="-8.626366"><ele>63.0</ele><time>2026-03-28T19:01:18.837Z</time></trkpt><trkpt lat="42.4275547" lon="-8.626457"><ele>62.0</ele><time>2026-03-28T19:01:19.836Z</time></trkpt><trkpt lat="42.4275942" lon="-8.6265436"><ele>61.0</ele><time>2026-03-28T19:01:20.836Z</time></trkpt><trkpt lat="42.4276453" lon="-8.626615"><ele>60.0</ele><time>2026-03-28T19:01:21.835Z</time></trkpt><trkpt lat="42.4277074" lon="-8.6266823"><ele>60.0</ele><time>2026-03-28T19:01:22.837Z</time></trkpt><trkpt lat="42.4277718" lon="-8.6267347"><ele>60.0</ele><time>2026-03-28T19:01:23.836Z</time></trkpt><trkpt lat="42.4278358" lon="-8.6267808"><ele>60.0</ele><time>2026-03-28T19:01:24.833Z</time></trkpt><trkpt lat="42.4278994" lon="-8.6268268"><ele>60.0</ele><time>2026-03-28T19:01:25.834Z</time></trkpt><trkpt lat="42.4279674" lon="-8.6268646"><ele>60.0</ele><time>2026-03-28T19:01:26.836Z</time></trkpt><trkpt lat="42.4280352" lon="-8.6268818"><ele>60.0</ele><time>2026-03-28T19:01:27.841Z</time></trkpt><trkpt lat="42.4281123" lon="-8.6268947"><ele>60.0</ele><time>2026-03-28T19:01:28.841Z</time></trkpt><trkpt lat="42.4281868" lon="-8.6269057"><ele>58.85714285714286</ele><time>2026-03-28T19:01:29.834Z</time></trkpt><trkpt lat="42.4282649" lon="-8.6269109"><ele>57.71428571428571</ele><time>2026-03-28T19:01:30.838Z</time></trkpt><trkpt lat="42.4283418" lon="-8.6269108"><ele>56.57142857142857</ele><time>2026-03-28T19:01:31.833Z</time></trkpt><trkpt lat="42.4284091" lon="-8.6269038"><ele>55.42857142857143</ele><time>2026-03-28T19:01:32.835Z</time></trkpt><trkpt lat="42.4284831" lon="-8.6268916"><ele>54.28571428571429</ele><time>2026-03-28T19:01:33.838Z</time></trkpt><trkpt lat="42.4285533" lon="-8.6268836"><ele>53.14285714285714</ele><time>2026-03-28T19:01:34.844Z</time></trkpt><trkpt lat="42.428621" lon="-8.6268843"><ele>52.0</ele><time>2026-03-28T19:01:35.83Z</time></trkpt><trkpt lat="42.428716" lon="-8.6268696"><ele>51.99999999999999</ele><time>2026-03-28T19:01:37.827Z</time></trkpt><trkpt lat="42.428784" lon="-8.6268386"><ele>52.0</ele><time>2026-03-28T19:01:39.843Z</time></trkpt><trkpt lat="42.4288611" lon="-8.6268063"><ele>52.0</ele><time>2026-03-28T19:01:42.84Z</time></trkpt><trkpt lat="42.4289502" lon="-8.6267986"><ele>52.0</ele><time>2026-03-28T19:01:45.833Z</time></trkpt><trkpt lat="42.4289962" lon="-8.6268619"><ele>51.99999999999999</ele><time>2026-03-28T19:01:58.835Z</time></trkpt><trkpt lat="42.4289806" lon="-8.6269611"><ele>52.0</ele><time>2026-03-28T19:02:00.832Z</time></trkpt><trkpt lat="42.4289528" lon="-8.6271004"><ele>51.49999999999999</ele><time>2026-03-28T19:02:02.835Z</time></trkpt><trkpt lat="42.4289241" lon="-8.6271941"><ele>51.0</ele><time>2026-03-28T19:02:03.842Z</time></trkpt><trkpt lat="42.4288905" lon="-8.6272856"><ele>50.5</ele><time>2026-03-28T19:02:04.84Z</time></trkpt><trkpt lat="42.4288809" lon="-8.6274025"><ele>50.0</ele><time>2026-03-28T19:02:05.831Z</time></trkpt><trkpt lat="42.4288613" lon="-8.6275188"><ele>49.49999999999999</ele><time>2026-03-28T19:02:06.843Z</time></trkpt><trkpt lat="42.4288469" lon="-8.6276339"><ele>49.0</ele><time>2026-03-28T19:02:07.832Z</time></trkpt><trkpt lat="42.4288312" lon="-8.6277485"><ele>49.400000000000006</ele><time>2026-03-28T19:02:08.833Z</time></trkpt><trkpt lat="42.4288138" lon="-8.6278543"><ele>49.8</ele><time>2026-03-28T19:02:09.835Z</time></trkpt><trkpt lat="42.4287897" lon="-8.6279474"><ele>50.2</ele><time>2026-03-28T19:02:10.848Z</time></trkpt><trkpt lat="42.4287641" lon="-8.6280874"><ele>50.599999999999994</ele><time>2026-03-28T19:02:12.833Z</time></trkpt><trkpt lat="42.428857" lon="-8.6281014"><ele>51.0</ele><time>2026-03-28T19:02:18.832Z</time></trkpt><trkpt lat="42.4289978" lon="-8.6281116"><ele>50.166666666666664</ele><time>2026-03-28T19:02:20.836Z</time></trkpt><trkpt lat="42.4290775" lon="-8.6281175"><ele>49.333333333333336</ele><time>2026-03-28T19:02:21.834Z</time></trkpt><trkpt lat="42.429146" lon="-8.6281271"><ele>48.5</ele><time>2026-03-28T19:02:22.836Z</time></trkpt><trkpt lat="42.4292086" lon="-8.6280938"><ele>47.66666666666667</ele><time>2026-03-28T19:02:26.843Z</time></trkpt><trkpt lat="42.4292863" lon="-8.6280664"><ele>46.833333333333336</ele><time>2026-03-28T19:02:29.839Z</time></trkpt><trkpt lat="42.429295" lon="-8.6279281"><ele>46.0</ele><time>2026-03-28T19:02:31.836Z</time></trkpt><trkpt lat="42.4292948" lon="-8.6278418"><ele>46.5</ele><time>2026-03-28T19:02:32.836Z</time></trkpt><trkpt lat="42.4292904" lon="-8.6276596"><ele>47.0</ele><time>2026-03-28T19:02:34.835Z</time></trkpt><trkpt lat="42.4293051" lon="-8.6275526"><ele>47.5</ele><time>2026-03-28T19:02:35.84Z</time></trkpt><trkpt lat="42.4293064" lon="-8.627446"><ele>48.0</ele><time>2026-03-28T19:02:36.831Z</time></trkpt><trkpt lat="42.4293218" lon="-8.6273586"><ele>48.49999999999999</ele><time>2026-03-28T19:02:37.835Z</time></trkpt><trkpt lat="42.4293518" lon="-8.6272814"><ele>49.0</ele><time>2026-03-28T19:02:38.839Z</time></trkpt><trkpt lat="42.4293882" lon="-8.6272076"><ele>49.0</ele><time>2026-03-28T19:02:39.832Z</time></trkpt><trkpt lat="42.429429" lon="-8.6271397"><ele>49.0</ele><time>2026-03-28T19:02:40.837Z</time></trkpt><trkpt lat="42.4294718" lon="-8.6270721"><ele>49.0</ele><time>2026-03-28T19:02:41.838Z</time></trkpt><trkpt lat="42.4295209" lon="-8.6270073"><ele>49.0</ele><time>2026-03-28T19:02:42.832Z</time></trkpt><trkpt lat="42.4295848" lon="-8.6269478"><ele>49.0</ele><time>2026-03-28T19:02:43.839Z</time></trkpt><trkpt lat="42.4296463" lon="-8.6268892"><ele>49.0</ele><time>2026-03-28T19:02:44.831Z</time></trkpt><trkpt lat="42.4297191" lon="-8.6268376"><ele>49.0</ele><time>2026-03-28T19:02:45.837Z</time></trkpt><trkpt lat="42.4297963" lon="-8.6267806"><ele>48.666666666666664</ele><time>2026-03-28T19:02:46.841Z</time></trkpt><trkpt lat="42.429875" lon="-8.6267073"><ele>48.33333333333333</ele><time>2026-03-28T19:02:47.835Z</time></trkpt><trkpt lat="42.4299466" lon="-8.6266351"><ele>48.0</ele><time>2026-03-28T19:02:48.834Z</time></trkpt><trkpt lat="42.4300225" lon="-8.6265588"><ele>47.666666666666664</ele><time>2026-03-28T19:02:49.836Z</time></trkpt><trkpt lat="42.4300934" lon="-8.6264964"><ele>47.33333333333333</ele><time>2026-03-28T19:02:50.845Z</time></trkpt><trkpt lat="42.4301653" lon="-8.6264515"><ele>47.0</ele><time>2026-03-28T19:02:51.833Z</time></trkpt><trkpt lat="42.4302353" lon="-8.626421"><ele>47.0</ele><time>2026-03-28T19:02:52.837Z</time></trkpt><trkpt lat="42.430361" lon="-8.6264065"><ele>47.0</ele><time>2026-03-28T19:02:54.839Z</time></trkpt><trkpt lat="42.4304313" lon="-8.6263797"><ele>47.0</ele><time>2026-03-28T19:02:55.833Z</time></trkpt><trkpt lat="42.4304825" lon="-8.6263282"><ele>47.0</ele><time>2026-03-28T19:02:56.84Z</time></trkpt><trkpt lat="42.430542" lon="-8.6262087"><ele>47.0</ele><time>2026-03-28T19:02:58.841Z</time></trkpt><trkpt lat="42.4306295" lon="-8.6260645"><ele>44.800000000000004</ele><time>2026-03-28T19:03:00.838Z</time></trkpt><trkpt lat="42.4306938" lon="-8.6259812"><ele>42.6</ele><time>2026-03-28T19:03:01.838Z</time></trkpt><trkpt lat="42.4307643" lon="-8.6258943"><ele>40.400000000000006</ele><time>2026-03-28T19:03:02.839Z</time></trkpt><trkpt lat="42.4308354" lon="-8.6258027"><ele>38.2</ele><time>2026-03-28T19:03:03.835Z</time></trkpt><trkpt lat="42.4309077" lon="-8.6257043"><ele>36.0</ele><time>2026-03-28T19:03:04.846Z</time></trkpt><trkpt lat="42.4309827" lon="-8.6256113"><ele>36.0</ele><time>2026-03-28T19:03:05.839Z</time></trkpt><trkpt lat="42.4310623" lon="-8.6255205"><ele>36.0</ele><time>2026-03-28T19:03:06.835Z</time></trkpt><trkpt lat="42.4311357" lon="-8.6254377"><ele>36.0</ele><time>2026-03-28T19:03:07.845Z</time></trkpt><trkpt lat="42.4312099" lon="-8.6253636"><ele>36.0</ele><time>2026-03-28T19:03:08.831Z</time></trkpt><trkpt lat="42.4312802" lon="-8.6252957"><ele>36.0</ele><time>2026-03-28T19:03:09.831Z</time></trkpt><trkpt lat="42.4313476" lon="-8.6252389"><ele>37.166666666666664</ele><time>2026-03-28T19:03:10.835Z</time></trkpt><trkpt lat="42.4314135" lon="-8.6251727"><ele>38.333333333333336</ele><time>2026-03-28T19:03:11.836Z</time></trkpt><trkpt lat="42.4314697" lon="-8.6251095"><ele>39.5</ele><time>2026-03-28T19:03:12.85Z</time></trkpt><trkpt lat="42.4315399" lon="-8.6250532"><ele>40.66666666666667</ele><time>2026-03-28T19:03:13.837Z</time></trkpt><trkpt lat="42.4316057" lon="-8.6250144"><ele>41.833333333333336</ele><time>2026-03-28T19:03:14.833Z</time></trkpt><trkpt lat="42.4316821" lon="-8.6249811"><ele>43.0</ele><time>2026-03-28T19:03:15.832Z</time></trkpt><trkpt lat="42.4317678" lon="-8.62495"><ele>43.0</ele><time>2026-03-28T19:03:16.836Z</time></trkpt><trkpt lat="42.4318606" lon="-8.6249293"><ele>43.0</ele><time>2026-03-28T19:03:17.84Z</time></trkpt><trkpt lat="42.4319568" lon="-8.6249189"><ele>43.0</ele><time>2026-03-28T19:03:18.846Z</time></trkpt><trkpt lat="42.4320509" lon="-8.6249184"><ele>43.0</ele><time>2026-03-28T19:03:19.834Z</time></trkpt><trkpt lat="42.4321498" lon="-8.6249325"><ele>43.0</ele><time>2026-03-28T19:03:20.833Z</time></trkpt><trkpt lat="42.4322459" lon="-8.6249604"><ele>42.599999999999994</ele><time>2026-03-28T19:03:21.83Z</time></trkpt><trkpt lat="42.4323358" lon="-8.6249932"><ele>42.199999999999996</ele><time>2026-03-28T19:03:22.837Z</time></trkpt><trkpt lat="42.4324238" lon="-8.625043"><ele>41.8</ele><time>2026-03-28T19:03:23.838Z</time></trkpt><trkpt lat="42.4325085" lon="-8.6251093"><ele>41.4</ele><time>2026-03-28T19:03:24.829Z</time></trkpt><trkpt lat="42.4325938" lon="-8.6251814"><ele>41.0</ele><time>2026-03-28T19:03:25.833Z</time></trkpt><trkpt lat="42.4326763" lon="-8.6252611"><ele>40.599999999999994</ele><time>2026-03-28T19:03:26.842Z</time></trkpt><trkpt lat="42.4327512" lon="-8.6253558"><ele>40.199999999999996</ele><time>2026-03-28T19:03:27.832Z</time></trkpt><trkpt lat="42.4328231" lon="-8.6254666"><ele>39.8</ele><time>2026-03-28T19:03:28.838Z</time></trkpt><trkpt lat="42.4328819" lon="-8.6255847"><ele>39.4</ele><time>2026-03-28T19:03:29.833Z</time></trkpt><trkpt lat="42.4329345" lon="-8.6257095"><ele>39.0</ele><time>2026-03-28T19:03:30.832Z</time></trkpt><trkpt lat="42.4329653" lon="-8.6258429"><ele>40.0</ele><time>2026-03-28T19:03:31.838Z</time></trkpt><trkpt lat="42.432982" lon="-8.6259857"><ele>41.0</ele><time>2026-03-28T19:03:32.839Z</time></trkpt><trkpt lat="42.4329925" lon="-8.6261305"><ele>42.0</ele><time>2026-03-28T19:03:33.834Z</time></trkpt><trkpt lat="42.4330033" lon="-8.6262703"><ele>43.0</ele><time>2026-03-28T19:03:34.833Z</time></trkpt><trkpt lat="42.4330182" lon="-8.6264075"><ele>44.0</ele><time>2026-03-28T19:03:35.839Z</time></trkpt><trkpt lat="42.4330393" lon="-8.6265393"><ele>44.400000000000006</ele><time>2026-03-28T19:03:36.831Z</time></trkpt><trkpt lat="42.433065" lon="-8.6266679"><ele>44.8</ele><time>2026-03-28T19:03:37.832Z</time></trkpt><trkpt lat="42.433093" lon="-8.6267735"><ele>45.2</ele><time>2026-03-28T19:03:38.841Z</time></trkpt><trkpt lat="42.4331473" lon="-8.626916"><ele>45.599999999999994</ele><time>2026-03-28T19:03:40.838Z</time></trkpt><trkpt lat="42.4332047" lon="-8.6270521"><ele>46.0</ele><time>2026-03-28T19:03:42.838Z</time></trkpt><trkpt lat="42.4332603" lon="-8.627198"><ele>46.5</ele><time>2026-03-28T19:03:44.827Z</time></trkpt><trkpt lat="42.4332942" lon="-8.6272752"><ele>47.0</ele><time>2026-03-28T19:03:45.832Z</time></trkpt><trkpt lat="42.4333607" lon="-8.6273742"><ele>47.5</ele><time>2026-03-28T19:03:47.833Z</time></trkpt><trkpt lat="42.4334275" lon="-8.6274071"><ele>48.0</ele><time>2026-03-28T19:03:50.838Z</time></trkpt><trkpt lat="42.4334766" lon="-8.6273383"><ele>48.49999999999999</ele><time>2026-03-28T19:03:54.839Z</time></trkpt><trkpt lat="42.433541" lon="-8.627288"><ele>49.0</ele><time>2026-03-28T19:03:55.837Z</time></trkpt><trkpt lat="42.4336463" lon="-8.6271989"><ele>48.99999999999999</ele><time>2026-03-28T19:03:56.836Z</time></trkpt><trkpt lat="42.4337352" lon="-8.6271278"><ele>49.0</ele><time>2026-03-28T19:03:57.832Z</time></trkpt><trkpt lat="42.4338121" lon="-8.627073"><ele>49.0</ele><time>2026-03-28T19:03:58.832Z</time></trkpt><trkpt lat="42.4338834" lon="-8.6270455"><ele>49.0</ele><time>2026-03-28T19:03:59.845Z</time></trkpt><trkpt lat="42.4339626" lon="-8.6270264"><ele>48.99999999999999</ele><time>2026-03-28T19:04:00.833Z</time></trkpt><trkpt lat="42.4340608" lon="-8.6270271"><ele>49.0</ele><time>2026-03-28T19:04:01.833Z</time></trkpt><trkpt lat="42.434182" lon="-8.627055"><ele>50.800000000000004</ele><time>2026-03-28T19:04:02.843Z</time></trkpt><trkpt lat="42.434296" lon="-8.6270928"><ele>52.6</ele><time>2026-03-28T19:04:03.834Z</time></trkpt><trkpt lat="42.4344002" lon="-8.6271248"><ele>54.4</ele><time>2026-03-28T19:04:04.836Z</time></trkpt><trkpt lat="42.4344971" lon="-8.6271374"><ele>56.2</ele><time>2026-03-28T19:04:05.832Z</time></trkpt><trkpt lat="42.4345974" lon="-8.627132"><ele>58.0</ele><time>2026-03-28T19:04:06.839Z</time></trkpt><trkpt lat="42.4347025" lon="-8.6270906"><ele>58.25</ele><time>2026-03-28T19:04:07.84Z</time></trkpt><trkpt lat="42.4348164" lon="-8.6270138"><ele>58.5</ele><time>2026-03-28T19:04:08.839Z</time></trkpt><trkpt lat="42.4349307" lon="-8.6269301"><ele>58.75</ele><time>2026-03-28T19:04:09.838Z</time></trkpt><trkpt lat="42.4350373" lon="-8.6268546"><ele>59.0</ele><time>2026-03-28T19:04:10.836Z</time></trkpt><trkpt lat="42.4351438" lon="-8.6268086"><ele>59.0</ele><time>2026-03-28T19:04:11.826Z</time></trkpt><trkpt lat="42.4352505" lon="-8.6267816"><ele>59.00000000000001</ele><time>2026-03-28T19:04:12.834Z</time></trkpt><trkpt lat="42.4353456" lon="-8.6267418"><ele>59.00000000000001</ele><time>2026-03-28T19:04:13.833Z</time></trkpt><trkpt lat="42.4354222" lon="-8.6266925"><ele>59.0</ele><time>2026-03-28T19:04:14.841Z</time></trkpt><trkpt lat="42.435492" lon="-8.6266036"><ele>59.0</ele><time>2026-03-28T19:04:15.839Z</time></trkpt><trkpt lat="42.435532" lon="-8.6264679"><ele>57.75</ele><time>2026-03-28T19:04:16.832Z</time></trkpt><trkpt lat="42.4355511" lon="-8.6262748"><ele>56.5</ele><time>2026-03-28T19:04:17.831Z</time></trkpt><trkpt lat="42.4355814" lon="-8.6261027"><ele>55.25</ele><time>2026-03-28T19:04:18.834Z</time></trkpt><trkpt lat="42.4356247" lon="-8.62594"><ele>54.0</ele><time>2026-03-28T19:04:19.834Z</time></trkpt><trkpt lat="42.4356726" lon="-8.6257761"><ele>54.0</ele><time>2026-03-28T19:04:20.837Z</time></trkpt><trkpt lat="42.4357402" lon="-8.6256347"><ele>54.00000000000001</ele><time>2026-03-28T19:04:21.829Z</time></trkpt><trkpt lat="42.4358104" lon="-8.6255378"><ele>54.00000000000001</ele><time>2026-03-28T19:04:22.837Z</time></trkpt><trkpt lat="42.4358663" lon="-8.6254754"><ele>54.0</ele><time>2026-03-28T19:04:23.837Z</time></trkpt><trkpt lat="42.4359355" lon="-8.6254288"><ele>54.0</ele><time>2026-03-28T19:04:24.845Z</time></trkpt><trkpt lat="42.4360044" lon="-8.6253797"><ele>53.800000000000004</ele><time>2026-03-28T19:04:25.842Z</time></trkpt><trkpt lat="42.436119" lon="-8.6252678"><ele>53.60000000000001</ele><time>2026-03-28T19:04:27.834Z</time></trkpt><trkpt lat="42.4361892" lon="-8.625222"><ele>53.4</ele><time>2026-03-28T19:04:28.836Z</time></trkpt><trkpt lat="42.4362563" lon="-8.6251529"><ele>53.2</ele><time>2026-03-28T19:04:29.841Z</time></trkpt><trkpt lat="42.4363219" lon="-8.6250743"><ele>53.0</ele><time>2026-03-28T19:04:30.835Z</time></trkpt><trkpt lat="42.4363899" lon="-8.6250005"><ele>53.0</ele><time>2026-03-28T19:04:31.839Z</time></trkpt><trkpt lat="42.436446" lon="-8.6249192"><ele>53.0</ele><time>2026-03-28T19:04:32.825Z</time></trkpt><trkpt lat="42.4364918" lon="-8.6248085"><ele>53.0</ele><time>2026-03-28T19:04:33.833Z</time></trkpt><trkpt lat="42.4365379" lon="-8.6246695"><ele>53.0</ele><time>2026-03-28T19:04:34.831Z</time></trkpt><trkpt lat="42.4366002" lon="-8.6245416"><ele>53.0</ele><time>2026-03-28T19:04:35.834Z</time></trkpt><trkpt lat="42.4366765" lon="-8.6244305"><ele>53.0</ele><time>2026-03-28T19:04:36.832Z</time></trkpt><trkpt lat="42.4367555" lon="-8.6243273"><ele>53.0</ele><time>2026-03-28T19:04:37.836Z</time></trkpt><trkpt lat="42.4368429" lon="-8.6242388"><ele>53.0</ele><time>2026-03-28T19:04:38.834Z</time></trkpt><trkpt lat="42.4369336" lon="-8.624149"><ele>53.0</ele><time>2026-03-28T19:04:39.837Z</time></trkpt><trkpt lat="42.437029" lon="-8.6240692"><ele>53.0</ele><time>2026-03-28T19:04:40.835Z</time></trkpt><trkpt lat="42.4371097" lon="-8.6239963"><ele>53.599999999999994</ele><time>2026-03-28T19:04:41.833Z</time></trkpt><trkpt lat="42.4371949" lon="-8.6239166"><ele>54.199999999999996</ele><time>2026-03-28T19:04:42.844Z</time></trkpt><trkpt lat="42.4372871" lon="-8.6238361"><ele>54.8</ele><time>2026-03-28T19:04:43.836Z</time></trkpt><trkpt lat="42.4373719" lon="-8.6237575"><ele>55.4</ele><time>2026-03-28T19:04:44.84Z</time></trkpt><trkpt lat="42.4374592" lon="-8.623691"><ele>56.0</ele><time>2026-03-28T19:04:45.829Z</time></trkpt><trkpt lat="42.4375373" lon="-8.6236161"><ele>57.14285714285714</ele><time>2026-03-28T19:04:46.834Z</time></trkpt><trkpt lat="42.4376086" lon="-8.6235451"><ele>58.285714285714285</ele><time>2026-03-28T19:04:47.835Z</time></trkpt><trkpt lat="42.4376703" lon="-8.6234877"><ele>59.42857142857143</ele><time>2026-03-28T19:04:48.84Z</time></trkpt><trkpt lat="42.4377302" lon="-8.6234294"><ele>60.57142857142857</ele><time>2026-03-28T19:04:49.837Z</time></trkpt><trkpt lat="42.4377826" lon="-8.6233814"><ele>61.71428571428571</ele><time>2026-03-28T19:04:50.832Z</time></trkpt><trkpt lat="42.4378464" lon="-8.6233204"><ele>62.857142857142854</ele><time>2026-03-28T19:04:52.836Z</time></trkpt><trkpt lat="42.4379061" lon="-8.6232808"><ele>64.0</ele><time>2026-03-28T19:05:06.844Z</time></trkpt><trkpt lat="42.437971" lon="-8.6232286"><ele>63.666666666666664</ele><time>2026-03-28T19:05:10.832Z</time></trkpt><trkpt lat="42.438026" lon="-8.6233151"><ele>63.33333333333333</ele><time>2026-03-28T19:05:12.844Z</time></trkpt><trkpt lat="42.4380907" lon="-8.6234229"><ele>63.0</ele><time>2026-03-28T19:05:14.838Z</time></trkpt><trkpt lat="42.4381362" lon="-8.62352"><ele>62.66666666666667</ele><time>2026-03-28T19:05:16.833Z</time></trkpt><trkpt lat="42.4381707" lon="-8.623609"><ele>62.333333333333336</ele><time>2026-03-28T19:05:18.833Z</time></trkpt><trkpt lat="42.4382317" lon="-8.6237005"><ele>62.0</ele><time>2026-03-28T19:05:21.831Z</time></trkpt><trkpt lat="42.4382756" lon="-8.6237857"><ele>62.00000000000001</ele><time>2026-03-28T19:05:23.833Z</time></trkpt><trkpt lat="42.4383429" lon="-8.6239048"><ele>62.0</ele><time>2026-03-28T19:05:25.836Z</time></trkpt><trkpt lat="42.4383835" lon="-8.6239715"><ele>62.0</ele><time>2026-03-28T19:05:26.833Z</time></trkpt><trkpt lat="42.4384227" lon="-8.624094"><ele>62.0</ele><time>2026-03-28T19:05:27.834Z</time></trkpt><trkpt lat="42.4384565" lon="-8.6241855"><ele>62.00000000000001</ele><time>2026-03-28T19:05:28.832Z</time></trkpt><trkpt lat="42.4385073" lon="-8.6242684"><ele>62.0</ele><time>2026-03-28T19:05:29.834Z</time></trkpt><trkpt lat="42.4385477" lon="-8.6243489"><ele>62.00000000000001</ele><time>2026-03-28T19:05:30.834Z</time></trkpt><trkpt lat="42.4385965" lon="-8.6244307"><ele>62.0</ele><time>2026-03-28T19:05:31.832Z</time></trkpt><trkpt lat="42.4386541" lon="-8.624503"><ele>62.0</ele><time>2026-03-28T19:05:32.829Z</time></trkpt><trkpt lat="42.4387099" lon="-8.6245685"><ele>62.0</ele><time>2026-03-28T19:05:33.835Z</time></trkpt><trkpt lat="42.4387671" lon="-8.624634"><ele>62.00000000000001</ele><time>2026-03-28T19:05:34.835Z</time></trkpt><trkpt lat="42.4388447" lon="-8.6246753"><ele>62.0</ele><time>2026-03-28T19:05:35.84Z</time></trkpt><trkpt lat="42.4389231" lon="-8.6247115"><ele>61.6</ele><time>2026-03-28T19:05:36.837Z</time></trkpt><trkpt lat="42.4390091" lon="-8.6247474"><ele>61.2</ele><time>2026-03-28T19:05:37.83Z</time></trkpt><trkpt lat="42.4390928" lon="-8.6247826"><ele>60.8</ele><time>2026-03-28T19:05:38.837Z</time></trkpt><trkpt lat="42.4391803" lon="-8.624828"><ele>60.4</ele><time>2026-03-28T19:05:39.828Z</time></trkpt><trkpt lat="42.4392676" lon="-8.6248714"><ele>60.0</ele><time>2026-03-28T19:05:40.835Z</time></trkpt><trkpt lat="42.4393475" lon="-8.6249171"><ele>60.0</ele><time>2026-03-28T19:05:41.83Z</time></trkpt><trkpt lat="42.43943" lon="-8.6249652"><ele>60.0</ele><time>2026-03-28T19:05:42.832Z</time></trkpt><trkpt lat="42.4395151" lon="-8.625024"><ele>60.0</ele><time>2026-03-28T19:05:43.829Z</time></trkpt><trkpt lat="42.4396046" lon="-8.6250915"><ele>60.0</ele><time>2026-03-28T19:05:44.842Z</time></trkpt><trkpt lat="42.4396938" lon="-8.6251611"><ele>60.0</ele><time>2026-03-28T19:05:45.841Z</time></trkpt><trkpt lat="42.4397857" lon="-8.6252247"><ele>60.8</ele><time>2026-03-28T19:05:46.833Z</time></trkpt><trkpt lat="42.4398718" lon="-8.6252847"><ele>61.6</ele><time>2026-03-28T19:05:47.833Z</time></trkpt><trkpt lat="42.4399626" lon="-8.625358"><ele>62.400000000000006</ele><time>2026-03-28T19:05:48.837Z</time></trkpt><trkpt lat="42.440053" lon="-8.6254218"><ele>63.2</ele><time>2026-03-28T19:05:49.843Z</time></trkpt><trkpt lat="42.44014" lon="-8.6254906"><ele>64.0</ele><time>2026-03-28T19:05:50.837Z</time></trkpt><trkpt lat="42.4402208" lon="-8.6255707"><ele>63.99999999999999</ele><time>2026-03-28T19:05:51.828Z</time></trkpt><trkpt lat="42.4403001" lon="-8.6256414"><ele>64.0</ele><time>2026-03-28T19:05:52.836Z</time></trkpt><trkpt lat="42.4403758" lon="-8.6257041"><ele>64.0</ele><time>2026-03-28T19:05:53.835Z</time></trkpt><trkpt lat="42.4404513" lon="-8.6257641"><ele>64.0</ele><time>2026-03-28T19:05:54.83Z</time></trkpt><trkpt lat="42.4405242" lon="-8.6258214"><ele>63.99999999999999</ele><time>2026-03-28T19:05:55.837Z</time></trkpt><trkpt lat="42.4406081" lon="-8.6258695"><ele>64.0</ele><time>2026-03-28T19:05:56.833Z</time></trkpt><trkpt lat="42.4406942" lon="-8.6259012"><ele>64.0</ele><time>2026-03-28T19:05:57.831Z</time></trkpt><trkpt lat="42.4407917" lon="-8.625907"><ele>64.0</ele><time>2026-03-28T19:05:58.828Z</time></trkpt><trkpt lat="42.4408909" lon="-8.6258968"><ele>64.0</ele><time>2026-03-28T19:05:59.835Z</time></trkpt><trkpt lat="42.4409828" lon="-8.6258809"><ele>64.0</ele><time>2026-03-28T19:06:00.839Z</time></trkpt><trkpt lat="42.4410743" lon="-8.6258726"><ele>64.0</ele><time>2026-03-28T19:06:01.838Z</time></trkpt><trkpt lat="42.441168" lon="-8.6258625"><ele>63.99999999999999</ele><time>2026-03-28T19:06:02.831Z</time></trkpt><trkpt lat="42.4412609" lon="-8.6258486"><ele>64.0</ele><time>2026-03-28T19:06:03.844Z</time></trkpt><trkpt lat="42.4413518" lon="-8.6258362"><ele>64.0</ele><time>2026-03-28T19:06:04.833Z</time></trkpt><trkpt lat="42.4414363" lon="-8.625831"><ele>64.0</ele><time>2026-03-28T19:06:05.834Z</time></trkpt><trkpt lat="42.4415215" lon="-8.6258233"><ele>63.99999999999999</ele><time>2026-03-28T19:06:06.835Z</time></trkpt><trkpt lat="42.4416055" lon="-8.6258001"><ele>64.0</ele><time>2026-03-28T19:06:07.833Z</time></trkpt><trkpt lat="42.4416912" lon="-8.6257628"><ele>64.33333333333333</ele><time>2026-03-28T19:06:08.837Z</time></trkpt><trkpt lat="42.4417648" lon="-8.6257147"><ele>64.66666666666666</ele><time>2026-03-28T19:06:09.835Z</time></trkpt><trkpt lat="42.441849" lon="-8.6256635"><ele>65.0</ele><time>2026-03-28T19:06:10.836Z</time></trkpt><trkpt lat="42.4419328" lon="-8.6256075"><ele>65.33333333333333</ele><time>2026-03-28T19:06:11.831Z</time></trkpt><trkpt lat="42.4420043" lon="-8.6255496"><ele>65.66666666666667</ele><time>2026-03-28T19:06:12.832Z</time></trkpt><trkpt lat="42.442079" lon="-8.6254915"><ele>66.0</ele><time>2026-03-28T19:06:13.832Z</time></trkpt><trkpt lat="42.4421541" lon="-8.6254214"><ele>67.39999999999999</ele><time>2026-03-28T19:06:14.835Z</time></trkpt><trkpt lat="42.4422359" lon="-8.625336"><ele>68.8</ele><time>2026-03-28T19:06:15.844Z</time></trkpt><trkpt lat="42.4423227" lon="-8.6252406"><ele>70.19999999999999</ele><time>2026-03-28T19:06:16.839Z</time></trkpt><trkpt lat="42.4424134" lon="-8.6251438"><ele>71.6</ele><time>2026-03-28T19:06:17.833Z</time></trkpt><trkpt lat="42.442498" lon="-8.6250427"><ele>73.0</ele><time>2026-03-28T19:06:18.843Z</time></trkpt><trkpt lat="42.4425744" lon="-8.6249462"><ele>73.0</ele><time>2026-03-28T19:06:19.836Z</time></trkpt><trkpt lat="42.4426536" lon="-8.6248483"><ele>73.0</ele><time>2026-03-28T19:06:20.837Z</time></trkpt><trkpt lat="42.4427105" lon="-8.6247427"><ele>73.0</ele><time>2026-03-28T19:06:21.837Z</time></trkpt><trkpt lat="42.4427495" lon="-8.6246328"><ele>73.0</ele><time>2026-03-28T19:06:22.837Z</time></trkpt><trkpt lat="42.44278" lon="-8.6245168"><ele>73.0</ele><time>2026-03-28T19:06:23.834Z</time></trkpt><trkpt lat="42.4428116" lon="-8.6244078"><ele>72.33333333333333</ele><time>2026-03-28T19:06:24.829Z</time></trkpt><trkpt lat="42.4428369" lon="-8.6243057"><ele>71.66666666666666</ele><time>2026-03-28T19:06:25.836Z</time></trkpt><trkpt lat="42.4428668" lon="-8.6242076"><ele>71.0</ele><time>2026-03-28T19:06:26.826Z</time></trkpt><trkpt lat="42.4428857" lon="-8.6241137"><ele>70.33333333333333</ele><time>2026-03-28T19:06:27.837Z</time></trkpt><trkpt lat="42.4429137" lon="-8.6239819"><ele>69.66666666666667</ele><time>2026-03-28T19:06:29.841Z</time></trkpt><trkpt lat="42.4429631" lon="-8.6239119"><ele>69.0</ele><time>2026-03-28T19:06:32.835Z</time></trkpt><trkpt lat="42.4430183" lon="-8.6239999"><ele>68.83333333333333</ele><time>2026-03-28T19:07:13.845Z</time></trkpt><trkpt lat="42.4431167" lon="-8.6240472"><ele>68.66666666666667</ele><time>2026-03-28T19:07:15.832Z</time></trkpt><trkpt lat="42.4431874" lon="-8.6240806"><ele>68.5</ele><time>2026-03-28T19:07:16.834Z</time></trkpt><trkpt lat="42.4432595" lon="-8.6241168"><ele>68.33333333333334</ele><time>2026-03-28T19:07:17.828Z</time></trkpt><trkpt lat="42.4433404" lon="-8.6241381"><ele>68.16666666666667</ele><time>2026-03-28T19:07:18.834Z</time></trkpt><trkpt lat="42.4434216" lon="-8.6241635"><ele>68.0</ele><time>2026-03-28T19:07:19.835Z</time></trkpt><trkpt lat="42.4434975" lon="-8.6241859"><ele>67.99999999999999</ele><time>2026-03-28T19:07:20.832Z</time></trkpt><trkpt lat="42.4435662" lon="-8.6242023"><ele>68.0</ele><time>2026-03-28T19:07:21.83Z</time></trkpt><trkpt lat="42.4436413" lon="-8.6242098"><ele>68.0</ele><time>2026-03-28T19:07:22.826Z</time></trkpt><trkpt lat="42.4437148" lon="-8.6242084"><ele>68.0</ele><time>2026-03-28T19:07:23.842Z</time></trkpt><trkpt lat="42.443782" lon="-8.6242099"><ele>68.0</ele><time>2026-03-28T19:07:24.832Z</time></trkpt><trkpt lat="42.4438488" lon="-8.6242079"><ele>67.99999999999999</ele><time>2026-03-28T19:07:25.836Z</time></trkpt><trkpt lat="42.4439183" lon="-8.6242051"><ele>68.0</ele><time>2026-03-28T19:07:26.838Z</time></trkpt><trkpt lat="42.4439878" lon="-8.6242007"><ele>67.14285714285714</ele><time>2026-03-28T19:07:27.829Z</time></trkpt><trkpt lat="42.4440564" lon="-8.6241924"><ele>66.28571428571428</ele><time>2026-03-28T19:07:28.844Z</time></trkpt><trkpt lat="42.4441306" lon="-8.6241841"><ele>65.42857142857143</ele><time>2026-03-28T19:07:29.843Z</time></trkpt><trkpt lat="42.4441986" lon="-8.6241897"><ele>64.57142857142857</ele><time>2026-03-28T19:07:30.832Z</time></trkpt><trkpt lat="42.4442674" lon="-8.6241983"><ele>63.71428571428572</ele><time>2026-03-28T19:07:31.833Z</time></trkpt><trkpt lat="42.4443289" lon="-8.624218"><ele>62.85714285714286</ele><time>2026-03-28T19:07:32.827Z</time></trkpt><trkpt lat="42.4444321" lon="-8.624222"><ele>62.0</ele><time>2026-03-28T19:07:34.836Z</time></trkpt><trkpt lat="42.4444944" lon="-8.6241806"><ele>62.0</ele><time>2026-03-28T19:07:36.83Z</time></trkpt><trkpt lat="42.4445409" lon="-8.6240764"><ele>62.0</ele><time>2026-03-28T19:07:38.832Z</time></trkpt><trkpt lat="42.444571" lon="-8.6239619"><ele>62.0</ele><time>2026-03-28T19:07:40.835Z</time></trkpt><trkpt lat="42.4446052" lon="-8.6238356"><ele>62.0</ele><time>2026-03-28T19:07:42.835Z</time></trkpt><trkpt lat="42.4446513" lon="-8.623711"><ele>62.0</ele><time>2026-03-28T19:07:44.825Z</time></trkpt><trkpt lat="42.444699" lon="-8.623607"><ele>61.85714285714286</ele><time>2026-03-28T19:07:46.828Z</time></trkpt><trkpt lat="42.444767" lon="-8.6235509"><ele>61.71428571428572</ele><time>2026-03-28T19:07:48.857Z</time></trkpt><trkpt lat="42.4448254" lon="-8.6235934"><ele>61.57142857142857</ele><time>2026-03-28T19:07:50.827Z</time></trkpt><trkpt lat="42.4448732" lon="-8.6236847"><ele>61.42857142857143</ele><time>2026-03-28T19:08:08.837Z</time></trkpt><trkpt lat="42.4449057" lon="-8.6237749"><ele>61.285714285714285</ele><time>2026-03-28T19:08:10.839Z</time></trkpt><trkpt lat="42.4449279" lon="-8.6238571"><ele>61.14285714285714</ele><time>2026-03-28T19:08:11.833Z</time></trkpt><trkpt lat="42.4449494" lon="-8.6239572"><ele>60.99999999999999</ele><time>2026-03-28T19:08:12.831Z</time></trkpt><trkpt lat="42.4449598" lon="-8.6240601"><ele>60.166666666666664</ele><time>2026-03-28T19:08:13.837Z</time></trkpt><trkpt lat="42.4449738" lon="-8.6241568"><ele>59.33333333333333</ele><time>2026-03-28T19:08:14.834Z</time></trkpt><trkpt lat="42.4449913" lon="-8.6242565"><ele>58.5</ele><time>2026-03-28T19:08:15.832Z</time></trkpt><trkpt lat="42.4450046" lon="-8.6243647"><ele>57.66666666666667</ele><time>2026-03-28T19:08:16.829Z</time></trkpt><trkpt lat="42.4450122" lon="-8.6244642"><ele>56.833333333333336</ele><time>2026-03-28T19:08:17.831Z</time></trkpt><trkpt lat="42.445019" lon="-8.6245573"><ele>56.0</ele><time>2026-03-28T19:08:18.834Z</time></trkpt><trkpt lat="42.4450528" lon="-8.6247084"><ele>54.75</ele><time>2026-03-28T19:08:20.831Z</time></trkpt><trkpt lat="42.445098" lon="-8.6248649"><ele>53.5</ele><time>2026-03-28T19:08:22.831Z</time></trkpt><trkpt lat="42.4451443" lon="-8.6250155"><ele>52.25</ele><time>2026-03-28T19:08:24.841Z</time></trkpt><trkpt lat="42.445193" lon="-8.6251524"><ele>51.0</ele><time>2026-03-28T19:08:26.836Z</time></trkpt><trkpt lat="42.445255" lon="-8.6252815"><ele>50.199999999999996</ele><time>2026-03-28T19:08:28.83Z</time></trkpt><trkpt lat="42.4452875" lon="-8.6253696"><ele>49.4</ele><time>2026-03-28T19:08:30.832Z</time></trkpt><trkpt lat="42.4453202" lon="-8.6254447"><ele>48.6</ele><time>2026-03-28T19:08:37.829Z</time></trkpt><trkpt lat="42.4453493" lon="-8.625561"><ele>47.8</ele><time>2026-03-28T19:08:41.83Z</time></trkpt><trkpt lat="42.4453911" lon="-8.6256838"><ele>47.0</ele><time>2026-03-28T19:08:43.836Z</time></trkpt><trkpt lat="42.4454643" lon="-8.6258243"><ele>45.83333333333333</ele><time>2026-03-28T19:08:45.833Z</time></trkpt><trkpt lat="42.445496" lon="-8.6259247"><ele>44.666666666666664</ele><time>2026-03-28T19:08:46.836Z</time></trkpt><trkpt lat="42.4455293" lon="-8.626025"><ele>43.5</ele><time>2026-03-28T19:08:47.829Z</time></trkpt><trkpt lat="42.4455747" lon="-8.6261109"><ele>42.333333333333336</ele><time>2026-03-28T19:08:48.835Z</time></trkpt><trkpt lat="42.4456124" lon="-8.6262066"><ele>41.16666666666667</ele><time>2026-03-28T19:08:49.827Z</time></trkpt><trkpt lat="42.4456534" lon="-8.6263076"><ele>40.0</ele><time>2026-03-28T19:08:50.83Z</time></trkpt><trkpt lat="42.4456891" lon="-8.6264044"><ele>39.16666666666667</ele><time>2026-03-28T19:08:51.83Z</time></trkpt><trkpt lat="42.4457495" lon="-8.6265131"><ele>38.333333333333336</ele><time>2026-03-28T19:08:53.83Z</time></trkpt><trkpt lat="42.4457917" lon="-8.6265831"><ele>37.5</ele><time>2026-03-28T19:08:59.83Z</time></trkpt><trkpt lat="42.4458421" lon="-8.6266897"><ele>36.666666666666664</ele><time>2026-03-28T19:09:01.838Z</time></trkpt><trkpt lat="42.4458901" lon="-8.6267551"><ele>35.83333333333333</ele><time>2026-03-28T19:09:02.829Z</time></trkpt><trkpt lat="42.4459502" lon="-8.6268258"><ele>35.0</ele><time>2026-03-28T19:09:03.83Z</time></trkpt><trkpt lat="42.4460233" lon="-8.6269066"><ele>35.0</ele><time>2026-03-28T19:09:04.829Z</time></trkpt><trkpt lat="42.4461038" lon="-8.6269891"><ele>35.0</ele><time>2026-03-28T19:09:05.838Z</time></trkpt><trkpt lat="42.4461875" lon="-8.6270806"><ele>35.0</ele><time>2026-03-28T19:09:06.832Z</time></trkpt><trkpt lat="42.4462887" lon="-8.6271693"><ele>35.0</ele><time>2026-03-28T19:09:07.831Z</time></trkpt><trkpt lat="42.4463987" lon="-8.6272483"><ele>31.25</ele><time>2026-03-28T19:09:08.833Z</time></trkpt><trkpt lat="42.4465145" lon="-8.6273071"><ele>27.5</ele><time>2026-03-28T19:09:09.832Z</time></trkpt><trkpt lat="42.4466243" lon="-8.6273624"><ele>23.75</ele><time>2026-03-28T19:09:10.837Z</time></trkpt><trkpt lat="42.4467351" lon="-8.6274276"><ele>20.0</ele><time>2026-03-28T19:09:11.829Z</time></trkpt><trkpt lat="42.4468418" lon="-8.6274889"><ele>20.0</ele><time>2026-03-28T19:09:12.832Z</time></trkpt><trkpt lat="42.4469508" lon="-8.6275419"><ele>20.0</ele><time>2026-03-28T19:09:13.829Z</time></trkpt><trkpt lat="42.4470525" lon="-8.6275954"><ele>20.0</ele><time>2026-03-28T19:09:14.839Z</time></trkpt><trkpt lat="42.4471629" lon="-8.6276491"><ele>20.0</ele><time>2026-03-28T19:09:15.827Z</time></trkpt><trkpt lat="42.4472723" lon="-8.6277041"><ele>20.2</ele><time>2026-03-28T19:09:16.846Z</time></trkpt><trkpt lat="42.4473832" lon="-8.6277618"><ele>20.4</ele><time>2026-03-28T19:09:17.837Z</time></trkpt><trkpt lat="42.4474875" lon="-8.6278175"><ele>20.6</ele><time>2026-03-28T19:09:18.831Z</time></trkpt><trkpt lat="42.4475845" lon="-8.6278649"><ele>20.8</ele><time>2026-03-28T19:09:19.828Z</time></trkpt><trkpt lat="42.4476802" lon="-8.6279168"><ele>21.0</ele><time>2026-03-28T19:09:20.837Z</time></trkpt><trkpt lat="42.4477717" lon="-8.6279656"><ele>21.0</ele><time>2026-03-28T19:09:21.831Z</time></trkpt><trkpt lat="42.4478574" lon="-8.6280123"><ele>21.0</ele><time>2026-03-28T19:09:22.832Z</time></trkpt><trkpt lat="42.4479366" lon="-8.6280619"><ele>21.0</ele><time>2026-03-28T19:09:23.834Z</time></trkpt><trkpt lat="42.4480199" lon="-8.6281061"><ele>21.0</ele><time>2026-03-28T19:09:24.83Z</time></trkpt><trkpt lat="42.4481102" lon="-8.6281526"><ele>21.0</ele><time>2026-03-28T19:09:25.831Z</time></trkpt><trkpt lat="42.4482096" lon="-8.6281947"><ele>25.5</ele><time>2026-03-28T19:09:26.836Z</time></trkpt><trkpt lat="42.4483135" lon="-8.6282412"><ele>30.0</ele><time>2026-03-28T19:09:27.829Z</time></trkpt><trkpt lat="42.4484246" lon="-8.6282916"><ele>34.5</ele><time>2026-03-28T19:09:28.832Z</time></trkpt><trkpt lat="42.448537" lon="-8.6283487"><ele>39.0</ele><time>2026-03-28T19:09:29.836Z</time></trkpt><trkpt lat="42.4486505" lon="-8.6284081"><ele>39.0</ele><time>2026-03-28T19:09:30.838Z</time></trkpt><trkpt lat="42.4487558" lon="-8.6284669"><ele>39.0</ele><time>2026-03-28T19:09:31.833Z</time></trkpt><trkpt lat="42.4488686" lon="-8.6285269"><ele>39.0</ele><time>2026-03-28T19:09:32.827Z</time></trkpt><trkpt lat="42.4489877" lon="-8.6285924"><ele>39.0</ele><time>2026-03-28T19:09:33.83Z</time></trkpt><trkpt lat="42.4491064" lon="-8.6286724"><ele>40.75</ele><time>2026-03-28T19:09:34.827Z</time></trkpt><trkpt lat="42.4492215" lon="-8.6287565"><ele>42.5</ele><time>2026-03-28T19:09:35.83Z</time></trkpt><trkpt lat="42.4493338" lon="-8.6288468"><ele>44.25</ele><time>2026-03-28T19:09:36.835Z</time></trkpt><trkpt lat="42.449447" lon="-8.6289617"><ele>46.0</ele><time>2026-03-28T19:09:37.826Z</time></trkpt><trkpt lat="42.4495563" lon="-8.6290941"><ele>45.66666666666667</ele><time>2026-03-28T19:09:38.836Z</time></trkpt><trkpt lat="42.4496641" lon="-8.6292573"><ele>45.333333333333336</ele><time>2026-03-28T19:09:39.833Z</time></trkpt><trkpt lat="42.4497475" lon="-8.6294341"><ele>45.0</ele><time>2026-03-28T19:09:40.84Z</time></trkpt><trkpt lat="42.4498273" lon="-8.6296271"><ele>44.25</ele><time>2026-03-28T19:09:41.836Z</time></trkpt><trkpt lat="42.449899" lon="-8.6298194"><ele>43.5</ele><time>2026-03-28T19:09:42.843Z</time></trkpt><trkpt lat="42.4499472" lon="-8.6299943"><ele>42.75</ele><time>2026-03-28T19:09:43.833Z</time></trkpt><trkpt lat="42.4499899" lon="-8.6301596"><ele>42.0</ele><time>2026-03-28T19:09:44.833Z</time></trkpt><trkpt lat="42.4500298" lon="-8.6303185"><ele>42.0</ele><time>2026-03-28T19:09:45.838Z</time></trkpt><trkpt lat="42.4500413" lon="-8.630476"><ele>42.0</ele><time>2026-03-28T19:09:46.832Z</time></trkpt><trkpt lat="42.4500444" lon="-8.6306121"><ele>42.0</ele><time>2026-03-28T19:09:47.827Z</time></trkpt><trkpt lat="42.4500471" lon="-8.6307457"><ele>42.0</ele><time>2026-03-28T19:09:48.835Z</time></trkpt><trkpt lat="42.4500538" lon="-8.6308637"><ele>42.0</ele><time>2026-03-28T19:09:49.836Z</time></trkpt><trkpt lat="42.4500707" lon="-8.6309887"><ele>42.0</ele><time>2026-03-28T19:09:50.831Z</time></trkpt><trkpt lat="42.4500869" lon="-8.6311172"><ele>42.0</ele><time>2026-03-28T19:09:51.829Z</time></trkpt><trkpt lat="42.4501051" lon="-8.6312303"><ele>42.0</ele><time>2026-03-28T19:09:52.838Z</time></trkpt><trkpt lat="42.4501332" lon="-8.6313245"><ele>42.0</ele><time>2026-03-28T19:09:53.838Z</time></trkpt><trkpt lat="42.4501723" lon="-8.6314067"><ele>42.0</ele><time>2026-03-28T19:09:54.83Z</time></trkpt><trkpt lat="42.4502443" lon="-8.6315141"><ele>42.0</ele><time>2026-03-28T19:09:56.826Z</time></trkpt><trkpt lat="42.4503263" lon="-8.6314935"><ele>42.5</ele><time>2026-03-28T19:09:58.83Z</time></trkpt><trkpt lat="42.4504139" lon="-8.6314019"><ele>43.0</ele><time>2026-03-28T19:10:00.83Z</time></trkpt><trkpt lat="42.4504493" lon="-8.6313296"><ele>43.5</ele><time>2026-03-28T19:10:01.83Z</time></trkpt><trkpt lat="42.4504799" lon="-8.6312507"><ele>44.0</ele><time>2026-03-28T19:10:02.84Z</time></trkpt><trkpt lat="42.4505066" lon="-8.6311586"><ele>44.5</ele><time>2026-03-28T19:10:03.833Z</time></trkpt><trkpt lat="42.450535" lon="-8.6310574"><ele>45.0</ele><time>2026-03-28T19:10:04.84Z</time></trkpt><trkpt lat="42.4505637" lon="-8.6309494"><ele>45.8</ele><time>2026-03-28T19:10:05.833Z</time></trkpt><trkpt lat="42.4505954" lon="-8.6308292"><ele>46.6</ele><time>2026-03-28T19:10:06.838Z</time></trkpt><trkpt lat="42.4506298" lon="-8.6307057"><ele>47.400000000000006</ele><time>2026-03-28T19:10:07.837Z</time></trkpt><trkpt lat="42.4506657" lon="-8.6305753"><ele>48.2</ele><time>2026-03-28T19:10:08.835Z</time></trkpt><trkpt lat="42.4507028" lon="-8.6304325"><ele>49.0</ele><time>2026-03-28T19:10:09.832Z</time></trkpt><trkpt lat="42.4507318" lon="-8.6302833"><ele>49.0</ele><time>2026-03-28T19:10:10.828Z</time></trkpt><trkpt lat="42.4507623" lon="-8.630137"><ele>49.0</ele><time>2026-03-28T19:10:11.83Z</time></trkpt><trkpt lat="42.4507926" lon="-8.6299807"><ele>49.0</ele><time>2026-03-28T19:10:12.829Z</time></trkpt><trkpt lat="42.4508167" lon="-8.6298347"><ele>49.0</ele><time>2026-03-28T19:10:13.833Z</time></trkpt><trkpt lat="42.450841" lon="-8.6296976"><ele>49.0</ele><time>2026-03-28T19:10:14.841Z</time></trkpt><trkpt lat="42.4508554" lon="-8.6295513"><ele>49.0</ele><time>2026-03-28T19:10:15.833Z</time></trkpt><trkpt lat="42.4508808" lon="-8.629407"><ele>49.0</ele><time>2026-03-28T19:10:16.83Z</time></trkpt><trkpt lat="42.4509277" lon="-8.6292776"><ele>49.0</ele><time>2026-03-28T19:10:17.836Z</time></trkpt><trkpt lat="42.451012" lon="-8.6291652"><ele>49.0</ele><time>2026-03-28T19:10:18.832Z</time></trkpt><trkpt lat="42.451098" lon="-8.6290739"><ele>49.0</ele><time>2026-03-28T19:10:19.832Z</time></trkpt><trkpt lat="42.4511904" lon="-8.6289824"><ele>49.0</ele><time>2026-03-28T19:10:20.837Z</time></trkpt><trkpt lat="42.4512822" lon="-8.6288897"><ele>49.0</ele><time>2026-03-28T19:10:21.829Z</time></trkpt><trkpt lat="42.4513734" lon="-8.6287886"><ele>49.0</ele><time>2026-03-28T19:10:22.832Z</time></trkpt><trkpt lat="42.4514673" lon="-8.6286817"><ele>49.0</ele><time>2026-03-28T19:10:23.832Z</time></trkpt><trkpt lat="42.4515556" lon="-8.6285812"><ele>49.25</ele><time>2026-03-28T19:10:24.829Z</time></trkpt><trkpt lat="42.4516465" lon="-8.6284685"><ele>49.5</ele><time>2026-03-28T19:10:25.836Z</time></trkpt><trkpt lat="42.4517359" lon="-8.6283486"><ele>49.75</ele><time>2026-03-28T19:10:26.833Z</time></trkpt><trkpt lat="42.4518217" lon="-8.6282261"><ele>50.0</ele><time>2026-03-28T19:10:27.839Z</time></trkpt><trkpt lat="42.4519051" lon="-8.6280959"><ele>50.0</ele><time>2026-03-28T19:10:28.834Z</time></trkpt><trkpt lat="42.4519911" lon="-8.627977"><ele>50.0</ele><time>2026-03-28T19:10:29.835Z</time></trkpt><trkpt lat="42.4520651" lon="-8.6278661"><ele>50.0</ele><time>2026-03-28T19:10:30.824Z</time></trkpt><trkpt lat="42.4521236" lon="-8.6277657"><ele>50.0</ele><time>2026-03-28T19:10:31.831Z</time></trkpt><trkpt lat="42.4521664" lon="-8.6277"><ele>50.0</ele><time>2026-03-28T19:10:32.838Z</time></trkpt><trkpt lat="42.4522181" lon="-8.6276076"><ele>49.85714285714286</ele><time>2026-03-28T19:10:34.832Z</time></trkpt><trkpt lat="42.4522597" lon="-8.627542"><ele>49.714285714285715</ele><time>2026-03-28T19:10:36.826Z</time></trkpt><trkpt lat="42.4522471" lon="-8.6274501"><ele>49.57142857142857</ele><time>2026-03-28T19:11:03.84Z</time></trkpt><trkpt lat="42.4522184" lon="-8.627573"><ele>49.42857142857143</ele><time>2026-03-28T19:11:14.833Z</time></trkpt><trkpt lat="42.4521652" lon="-8.6276271"><ele>49.285714285714285</ele><time>2026-03-28T19:11:16.831Z</time></trkpt><trkpt lat="42.4521021" lon="-8.6276552"><ele>49.142857142857146</ele><time>2026-03-28T19:11:43.83Z</time></trkpt><trkpt lat="42.4520607" lon="-8.6275894"><ele>49.0</ele><time>2026-03-28T19:14:09.834Z</time></trkpt><trkpt lat="42.4519746" lon="-8.6274714"><ele>49.0</ele><time>2026-03-28T19:14:37.832Z</time></trkpt><trkpt lat="42.4519497" lon="-8.6273643"><ele>49.0</ele><time>2026-03-28T19:14:38.833Z</time></trkpt><trkpt lat="42.4518835" lon="-8.6272877"><ele>49.0</ele><time>2026-03-28T19:15:49.829Z</time></trkpt><trkpt lat="42.4519046" lon="-8.627193"><ele>49.0</ele><time>2026-03-28T19:15:50.824Z</time></trkpt><trkpt lat="42.4520997" lon="-8.6272053"><ele>49.0</ele><time>2026-03-28T19:16:32.829Z</time></trkpt><trkpt lat="42.4521881" lon="-8.6272603"><ele>49.0</ele><time>2026-03-28T19:16:33.821Z</time></trkpt></trkseg></trk></gpx>